<?xml version="1.0" encoding="UTF-8" standalone="no" ?>
<gpx xmlns="http://www.topografix.com/GPX/1/1" xmlns:xsi="http://www.w3.org/2001/XMLSchema-instance" xsi:schemaLocation="http://www.topografix.com/GPX/1/1 http://www.topografix.com/GPX/1/1/gpx.xsd" version="1.1" creator="VisuGPX - https://www.visugpx.com">
  <metadata>
    <name>De trieste à Split</name>
    <desc><![CDATA[nous nous rendons à split cette fois ci]]></desc>
  </metadata>
  <trk>
    <name><![CDATA[OR-5939590--Trieste:Croatie]]></name>
    <trkseg>
      <trkpt lat="45.6573" lon="13.77246">
        <ele>8</ele>
        <time>2016-07-10T22:31:58Z</time>
      </trkpt>
      <trkpt lat="45.65716" lon="13.77205">
        <ele>9</ele>
        <time>2016-07-10T22:33:58Z</time>
      </trkpt>
      <trkpt lat="45.65714" lon="13.77201">
        <ele>9</ele>
        <time>2016-07-10T22:35:58Z</time>
      </trkpt>
      <trkpt lat="45.65712" lon="13.77196">
        <ele>9</ele>
        <time>2016-07-10T22:37:58Z</time>
      </trkpt>
      <trkpt lat="45.6571" lon="13.77191">
        <ele>9</ele>
        <time>2016-07-10T22:39:58Z</time>
      </trkpt>
      <trkpt lat="45.65708" lon="13.77188">
        <ele>9</ele>
        <time>2016-07-10T22:41:58Z</time>
      </trkpt>
      <trkpt lat="45.65705" lon="13.77184">
        <ele>9</ele>
        <time>2016-07-10T22:43:58Z</time>
      </trkpt>
      <trkpt lat="45.65701" lon="13.77181">
        <ele>9</ele>
        <time>2016-07-10T22:45:58Z</time>
      </trkpt>
      <trkpt lat="45.65687" lon="13.77172">
        <ele>8</ele>
        <time>2016-07-10T22:47:58Z</time>
      </trkpt>
      <trkpt lat="45.65681" lon="13.77168">
        <ele>8</ele>
        <time>2016-07-10T22:49:58Z</time>
      </trkpt>
      <trkpt lat="45.65655" lon="13.77154">
        <ele>8</ele>
        <time>2016-07-10T22:51:58Z</time>
      </trkpt>
      <trkpt lat="45.65645" lon="13.77149">
        <ele>9</ele>
        <time>2016-07-10T22:53:58Z</time>
      </trkpt>
      <trkpt lat="45.65614" lon="13.77134">
        <ele>9</ele>
        <time>2016-07-10T22:55:58Z</time>
      </trkpt>
      <trkpt lat="45.65605" lon="13.77131">
        <ele>9</ele>
        <time>2016-07-10T22:57:58Z</time>
      </trkpt>
      <trkpt lat="45.65598" lon="13.77123">
        <ele>8</ele>
        <time>2016-07-10T22:59:58Z</time>
      </trkpt>
      <trkpt lat="45.65581" lon="13.77117">
        <ele>8</ele>
        <time>2016-07-10T23:01:58Z</time>
      </trkpt>
      <trkpt lat="45.65573" lon="13.77113">
        <ele>8</ele>
        <time>2016-07-10T23:03:58Z</time>
      </trkpt>
      <trkpt lat="45.65559" lon="13.77106">
        <ele>7</ele>
        <time>2016-07-10T23:05:58Z</time>
      </trkpt>
      <trkpt lat="45.65548" lon="13.771">
        <ele>6</ele>
        <time>2016-07-10T23:07:58Z</time>
      </trkpt>
      <trkpt lat="45.65522" lon="13.77084">
        <ele>6</ele>
        <time>2016-07-10T23:09:58Z</time>
      </trkpt>
      <trkpt lat="45.65481" lon="13.77059">
        <ele>7</ele>
        <time>2016-07-10T23:11:58Z</time>
      </trkpt>
      <trkpt lat="45.65481" lon="13.77059">
        <ele>7</ele>
        <time>2016-07-10T23:13:58Z</time>
      </trkpt>
      <trkpt lat="45.65472" lon="13.7707">
        <ele>8</ele>
        <time>2016-07-10T23:15:58Z</time>
      </trkpt>
      <trkpt lat="45.65442" lon="13.77166">
        <ele>14</ele>
        <time>2016-07-10T23:17:58Z</time>
      </trkpt>
      <trkpt lat="45.6543" lon="13.77209">
        <ele>15</ele>
        <time>2016-07-10T23:19:58Z</time>
      </trkpt>
      <trkpt lat="45.654" lon="13.77319">
        <ele>16</ele>
        <time>2016-07-10T23:21:58Z</time>
      </trkpt>
      <trkpt lat="45.65387" lon="13.77364">
        <ele>16</ele>
        <time>2016-07-10T23:23:58Z</time>
      </trkpt>
      <trkpt lat="45.65369" lon="13.77424">
        <ele>17</ele>
        <time>2016-07-10T23:25:58Z</time>
      </trkpt>
      <trkpt lat="45.6534" lon="13.77532">
        <ele>20</ele>
        <time>2016-07-10T23:27:58Z</time>
      </trkpt>
      <trkpt lat="45.65326" lon="13.77579">
        <ele>23</ele>
        <time>2016-07-10T23:29:58Z</time>
      </trkpt>
      <trkpt lat="45.65318" lon="13.77607">
        <ele>24</ele>
        <time>2016-07-10T23:31:58Z</time>
      </trkpt>
      <trkpt lat="45.65315" lon="13.77615">
        <ele>24</ele>
        <time>2016-07-10T23:33:58Z</time>
      </trkpt>
      <trkpt lat="45.65306" lon="13.77641">
        <ele>24</ele>
        <time>2016-07-10T23:35:58Z</time>
      </trkpt>
      <trkpt lat="45.65306" lon="13.77656">
        <ele>24</ele>
        <time>2016-07-10T23:37:58Z</time>
      </trkpt>
      <trkpt lat="45.65307" lon="13.7766">
        <ele>25</ele>
        <time>2016-07-10T23:39:58Z</time>
      </trkpt>
      <trkpt lat="45.65307" lon="13.77664">
        <ele>25</ele>
        <time>2016-07-10T23:41:58Z</time>
      </trkpt>
      <trkpt lat="45.65309" lon="13.77672">
        <ele>25</ele>
        <time>2016-07-10T23:43:58Z</time>
      </trkpt>
      <trkpt lat="45.65319" lon="13.77714">
        <ele>21</ele>
        <time>2016-07-10T23:45:58Z</time>
      </trkpt>
      <trkpt lat="45.65337" lon="13.77785">
        <ele>17</ele>
        <time>2016-07-10T23:47:58Z</time>
      </trkpt>
      <trkpt lat="45.65338" lon="13.77791">
        <ele>17</ele>
        <time>2016-07-10T23:49:58Z</time>
      </trkpt>
      <trkpt lat="45.65345" lon="13.77815">
        <ele>17</ele>
        <time>2016-07-10T23:51:58Z</time>
      </trkpt>
      <trkpt lat="45.65349" lon="13.77832">
        <ele>17</ele>
        <time>2016-07-10T23:53:58Z</time>
      </trkpt>
      <trkpt lat="45.6535" lon="13.77836">
        <ele>17</ele>
        <time>2016-07-10T23:55:58Z</time>
      </trkpt>
      <trkpt lat="45.65352" lon="13.77841">
        <ele>17</ele>
        <time>2016-07-10T23:57:58Z</time>
      </trkpt>
      <trkpt lat="45.65355" lon="13.77848">
        <ele>17</ele>
        <time>2016-07-10T23:59:58Z</time>
      </trkpt>
      <trkpt lat="45.65355" lon="13.77848">
        <ele>17</ele>
        <time>2016-07-11T00:01:58Z</time>
      </trkpt>
      <trkpt lat="45.65352" lon="13.77849">
        <ele>18</ele>
        <time>2016-07-11T00:03:58Z</time>
      </trkpt>
      <trkpt lat="45.653" lon="13.77896">
        <ele>21</ele>
        <time>2016-07-11T00:05:58Z</time>
      </trkpt>
      <trkpt lat="45.65234" lon="13.77956">
        <ele>23</ele>
        <time>2016-07-11T00:07:58Z</time>
      </trkpt>
      <trkpt lat="45.65234" lon="13.77956">
        <ele>23</ele>
        <time>2016-07-11T00:09:58Z</time>
      </trkpt>
      <trkpt lat="45.65189" lon="13.77999">
        <ele>22</ele>
        <time>2016-07-11T00:11:58Z</time>
      </trkpt>
      <trkpt lat="45.65181" lon="13.78008">
        <ele>22</ele>
        <time>2016-07-11T00:13:58Z</time>
      </trkpt>
      <trkpt lat="45.65181" lon="13.78008">
        <ele>22</ele>
        <time>2016-07-11T00:15:58Z</time>
      </trkpt>
      <trkpt lat="45.65123" lon="13.78029">
        <ele>25</ele>
        <time>2016-07-11T00:17:58Z</time>
      </trkpt>
      <trkpt lat="45.65064" lon="13.78052">
        <ele>25</ele>
        <time>2016-07-11T00:19:58Z</time>
      </trkpt>
      <trkpt lat="45.65029" lon="13.78065">
        <ele>23</ele>
        <time>2016-07-11T00:21:58Z</time>
      </trkpt>
      <trkpt lat="45.65029" lon="13.78065">
        <ele>23</ele>
        <time>2016-07-11T00:23:58Z</time>
      </trkpt>
      <trkpt lat="45.65027" lon="13.7805">
        <ele>23</ele>
        <time>2016-07-11T00:25:58Z</time>
      </trkpt>
      <trkpt lat="45.65022" lon="13.7802">
        <ele>22</ele>
        <time>2016-07-11T00:27:58Z</time>
      </trkpt>
      <trkpt lat="45.65022" lon="13.7802">
        <ele>22</ele>
        <time>2016-07-11T00:29:58Z</time>
      </trkpt>
      <trkpt lat="45.64973" lon="13.78031">
        <ele>21</ele>
        <time>2016-07-11T00:31:58Z</time>
      </trkpt>
      <trkpt lat="45.64966" lon="13.78032">
        <ele>22</ele>
        <time>2016-07-11T00:33:58Z</time>
      </trkpt>
      <trkpt lat="45.64958" lon="13.78035">
        <ele>22</ele>
        <time>2016-07-11T00:35:58Z</time>
      </trkpt>
      <trkpt lat="45.64916" lon="13.78053">
        <ele>23</ele>
        <time>2016-07-11T00:37:58Z</time>
      </trkpt>
      <trkpt lat="45.64888" lon="13.78065">
        <ele>23</ele>
        <time>2016-07-11T00:39:58Z</time>
      </trkpt>
      <trkpt lat="45.64886" lon="13.78066">
        <ele>23</ele>
        <time>2016-07-11T00:41:58Z</time>
      </trkpt>
      <trkpt lat="45.64884" lon="13.78067">
        <ele>23</ele>
        <time>2016-07-11T00:43:58Z</time>
      </trkpt>
      <trkpt lat="45.64882" lon="13.78067">
        <ele>23</ele>
        <time>2016-07-11T00:45:58Z</time>
      </trkpt>
      <trkpt lat="45.64863" lon="13.78075">
        <ele>23</ele>
        <time>2016-07-11T00:47:58Z</time>
      </trkpt>
      <trkpt lat="45.64852" lon="13.78082">
        <ele>23</ele>
        <time>2016-07-11T00:49:58Z</time>
      </trkpt>
      <trkpt lat="45.64847" lon="13.78086">
        <ele>23</ele>
        <time>2016-07-11T00:51:58Z</time>
      </trkpt>
      <trkpt lat="45.64844" lon="13.78089">
        <ele>23</ele>
        <time>2016-07-11T00:53:58Z</time>
      </trkpt>
      <trkpt lat="45.64842" lon="13.78094">
        <ele>23</ele>
        <time>2016-07-11T00:55:58Z</time>
      </trkpt>
      <trkpt lat="45.64842" lon="13.78094">
        <ele>23</ele>
        <time>2016-07-11T00:57:58Z</time>
      </trkpt>
      <trkpt lat="45.64832" lon="13.78098">
        <ele>23</ele>
        <time>2016-07-11T00:59:58Z</time>
      </trkpt>
      <trkpt lat="45.64812" lon="13.78122">
        <ele>24</ele>
        <time>2016-07-11T01:01:58Z</time>
      </trkpt>
      <trkpt lat="45.64812" lon="13.78122">
        <ele>24</ele>
        <time>2016-07-11T01:03:58Z</time>
      </trkpt>
      <trkpt lat="45.64806" lon="13.7812">
        <ele>24</ele>
        <time>2016-07-11T01:05:58Z</time>
      </trkpt>
      <trkpt lat="45.64779" lon="13.78132">
        <ele>26</ele>
        <time>2016-07-11T01:07:58Z</time>
      </trkpt>
      <trkpt lat="45.6475" lon="13.78155">
        <ele>27</ele>
        <time>2016-07-11T01:09:58Z</time>
      </trkpt>
      <trkpt lat="45.64701" lon="13.78198">
        <ele>29</ele>
        <time>2016-07-11T01:11:58Z</time>
      </trkpt>
      <trkpt lat="45.64701" lon="13.78198">
        <ele>29</ele>
        <time>2016-07-11T01:13:58Z</time>
      </trkpt>
      <trkpt lat="45.64643" lon="13.78063">
        <ele>21</ele>
        <time>2016-07-11T01:15:58Z</time>
      </trkpt>
      <trkpt lat="45.64643" lon="13.78046">
        <ele>21</ele>
        <time>2016-07-11T01:17:58Z</time>
      </trkpt>
      <trkpt lat="45.64643" lon="13.78046">
        <ele>21</ele>
        <time>2016-07-11T01:19:58Z</time>
      </trkpt>
      <trkpt lat="45.64636" lon="13.78048">
        <ele>22</ele>
        <time>2016-07-11T01:21:58Z</time>
      </trkpt>
      <trkpt lat="45.64607" lon="13.78052">
        <ele>22</ele>
        <time>2016-07-11T01:23:58Z</time>
      </trkpt>
      <trkpt lat="45.6459" lon="13.78053">
        <ele>23</ele>
        <time>2016-07-11T01:25:58Z</time>
      </trkpt>
      <trkpt lat="45.64582" lon="13.78055">
        <ele>23</ele>
        <time>2016-07-11T01:27:58Z</time>
      </trkpt>
      <trkpt lat="45.64579" lon="13.78057">
        <ele>23</ele>
        <time>2016-07-11T01:29:58Z</time>
      </trkpt>
      <trkpt lat="45.64574" lon="13.7806">
        <ele>24</ele>
        <time>2016-07-11T01:31:58Z</time>
      </trkpt>
      <trkpt lat="45.64562" lon="13.78075">
        <ele>25</ele>
        <time>2016-07-11T01:33:58Z</time>
      </trkpt>
      <trkpt lat="45.64562" lon="13.78075">
        <ele>25</ele>
        <time>2016-07-11T01:35:58Z</time>
      </trkpt>
      <trkpt lat="45.64547" lon="13.78101">
        <ele>27</ele>
        <time>2016-07-11T01:37:58Z</time>
      </trkpt>
      <trkpt lat="45.64543" lon="13.78108">
        <ele>28</ele>
        <time>2016-07-11T01:39:58Z</time>
      </trkpt>
      <trkpt lat="45.64477" lon="13.78197">
        <ele>34</ele>
        <time>2016-07-11T01:41:58Z</time>
      </trkpt>
      <trkpt lat="45.64475" lon="13.782">
        <ele>34</ele>
        <time>2016-07-11T01:43:58Z</time>
      </trkpt>
      <trkpt lat="45.64474" lon="13.78203">
        <ele>34</ele>
        <time>2016-07-11T01:45:58Z</time>
      </trkpt>
      <trkpt lat="45.64466" lon="13.78215">
        <ele>36</ele>
        <time>2016-07-11T01:47:58Z</time>
      </trkpt>
      <trkpt lat="45.64446" lon="13.78248">
        <ele>38</ele>
        <time>2016-07-11T01:49:58Z</time>
      </trkpt>
      <trkpt lat="45.6441" lon="13.78293">
        <ele>39</ele>
        <time>2016-07-11T01:51:58Z</time>
      </trkpt>
      <trkpt lat="45.64392" lon="13.78314">
        <ele>39</ele>
        <time>2016-07-11T01:53:58Z</time>
      </trkpt>
      <trkpt lat="45.64362" lon="13.78356">
        <ele>39</ele>
        <time>2016-07-11T01:55:58Z</time>
      </trkpt>
      <trkpt lat="45.64335" lon="13.78394">
        <ele>41</ele>
        <time>2016-07-11T01:57:58Z</time>
      </trkpt>
      <trkpt lat="45.64314" lon="13.78424">
        <ele>41</ele>
        <time>2016-07-11T01:59:58Z</time>
      </trkpt>
      <trkpt lat="45.64284" lon="13.78462">
        <ele>42</ele>
        <time>2016-07-11T02:01:58Z</time>
      </trkpt>
      <trkpt lat="45.64241" lon="13.78516">
        <ele>42</ele>
        <time>2016-07-11T02:03:58Z</time>
      </trkpt>
      <trkpt lat="45.64237" lon="13.78525">
        <ele>42</ele>
        <time>2016-07-11T02:05:58Z</time>
      </trkpt>
      <trkpt lat="45.64233" lon="13.7853">
        <ele>42</ele>
        <time>2016-07-11T02:07:58Z</time>
      </trkpt>
      <trkpt lat="45.64157" lon="13.78629">
        <ele>47</ele>
        <time>2016-07-11T02:09:58Z</time>
      </trkpt>
      <trkpt lat="45.64131" lon="13.7866">
        <ele>48</ele>
        <time>2016-07-11T02:11:58Z</time>
      </trkpt>
      <trkpt lat="45.64076" lon="13.78729">
        <ele>47</ele>
        <time>2016-07-11T02:13:58Z</time>
      </trkpt>
      <trkpt lat="45.64041" lon="13.78771">
        <ele>49</ele>
        <time>2016-07-11T02:15:58Z</time>
      </trkpt>
      <trkpt lat="45.6402" lon="13.78797">
        <ele>49</ele>
        <time>2016-07-11T02:17:58Z</time>
      </trkpt>
      <trkpt lat="45.64012" lon="13.78808">
        <ele>50</ele>
        <time>2016-07-11T02:19:58Z</time>
      </trkpt>
      <trkpt lat="45.64005" lon="13.78818">
        <ele>50</ele>
        <time>2016-07-11T02:21:58Z</time>
      </trkpt>
      <trkpt lat="45.63999" lon="13.78827">
        <ele>51</ele>
        <time>2016-07-11T02:23:58Z</time>
      </trkpt>
      <trkpt lat="45.63995" lon="13.78833">
        <ele>51</ele>
        <time>2016-07-11T02:25:58Z</time>
      </trkpt>
      <trkpt lat="45.63995" lon="13.78833">
        <ele>51</ele>
        <time>2016-07-11T02:27:58Z</time>
      </trkpt>
      <trkpt lat="45.63993" lon="13.78836">
        <ele>51</ele>
        <time>2016-07-11T02:29:58Z</time>
      </trkpt>
      <trkpt lat="45.63984" lon="13.78857">
        <ele>51</ele>
        <time>2016-07-11T02:31:58Z</time>
      </trkpt>
      <trkpt lat="45.63981" lon="13.7887">
        <ele>51</ele>
        <time>2016-07-11T02:33:58Z</time>
      </trkpt>
      <trkpt lat="45.63971" lon="13.78934">
        <ele>50</ele>
        <time>2016-07-11T02:35:58Z</time>
      </trkpt>
      <trkpt lat="45.63971" lon="13.78934">
        <ele>50</ele>
        <time>2016-07-11T02:37:58Z</time>
      </trkpt>
      <trkpt lat="45.6395" lon="13.78921">
        <ele>50</ele>
        <time>2016-07-11T02:39:58Z</time>
      </trkpt>
      <trkpt lat="45.63934" lon="13.78913">
        <ele>50</ele>
        <time>2016-07-11T02:41:58Z</time>
      </trkpt>
      <trkpt lat="45.63933" lon="13.78912">
        <ele>50</ele>
        <time>2016-07-11T02:43:58Z</time>
      </trkpt>
      <trkpt lat="45.63929" lon="13.78911">
        <ele>50</ele>
        <time>2016-07-11T02:45:58Z</time>
      </trkpt>
      <trkpt lat="45.63924" lon="13.7891">
        <ele>50</ele>
        <time>2016-07-11T02:47:58Z</time>
      </trkpt>
      <trkpt lat="45.63919" lon="13.78909">
        <ele>51</ele>
        <time>2016-07-11T02:49:58Z</time>
      </trkpt>
      <trkpt lat="45.63914" lon="13.78909">
        <ele>51</ele>
        <time>2016-07-11T02:51:58Z</time>
      </trkpt>
      <trkpt lat="45.63904" lon="13.78909">
        <ele>53</ele>
        <time>2016-07-11T02:53:58Z</time>
      </trkpt>
      <trkpt lat="45.63904" lon="13.78909">
        <ele>53</ele>
        <time>2016-07-11T02:55:58Z</time>
      </trkpt>
      <trkpt lat="45.6386" lon="13.78913">
        <ele>59</ele>
        <time>2016-07-11T02:57:58Z</time>
      </trkpt>
      <trkpt lat="45.63814" lon="13.78924">
        <ele>67</ele>
        <time>2016-07-11T02:59:58Z</time>
      </trkpt>
      <trkpt lat="45.63697" lon="13.78951">
        <ele>86</ele>
        <time>2016-07-11T03:01:58Z</time>
      </trkpt>
      <trkpt lat="45.63692" lon="13.78952">
        <ele>86</ele>
        <time>2016-07-11T03:03:58Z</time>
      </trkpt>
      <trkpt lat="45.6367" lon="13.78956">
        <ele>89</ele>
        <time>2016-07-11T03:05:58Z</time>
      </trkpt>
      <trkpt lat="45.63645" lon="13.78961">
        <ele>89</ele>
        <time>2016-07-11T03:07:58Z</time>
      </trkpt>
      <trkpt lat="45.6362" lon="13.78967">
        <ele>87</ele>
        <time>2016-07-11T03:09:58Z</time>
      </trkpt>
      <trkpt lat="45.63617" lon="13.78967">
        <ele>87</ele>
        <time>2016-07-11T03:11:58Z</time>
      </trkpt>
      <trkpt lat="45.63579" lon="13.78975">
        <ele>86</ele>
        <time>2016-07-11T03:13:58Z</time>
      </trkpt>
      <trkpt lat="45.63548" lon="13.78981">
        <ele>83</ele>
        <time>2016-07-11T03:15:58Z</time>
      </trkpt>
      <trkpt lat="45.63537" lon="13.78984">
        <ele>82</ele>
        <time>2016-07-11T03:17:58Z</time>
      </trkpt>
      <trkpt lat="45.63536" lon="13.78984">
        <ele>82</ele>
        <time>2016-07-11T03:19:58Z</time>
      </trkpt>
      <trkpt lat="45.63531" lon="13.78985">
        <ele>81</ele>
        <time>2016-07-11T03:21:58Z</time>
      </trkpt>
      <trkpt lat="45.63523" lon="13.78986">
        <ele>80</ele>
        <time>2016-07-11T03:23:58Z</time>
      </trkpt>
      <trkpt lat="45.63509" lon="13.78989">
        <ele>79</ele>
        <time>2016-07-11T03:25:58Z</time>
      </trkpt>
      <trkpt lat="45.63502" lon="13.78991">
        <ele>79</ele>
        <time>2016-07-11T03:27:58Z</time>
      </trkpt>
      <trkpt lat="45.63498" lon="13.78992">
        <ele>78</ele>
        <time>2016-07-11T03:29:58Z</time>
      </trkpt>
      <trkpt lat="45.63481" lon="13.78995">
        <ele>77</ele>
        <time>2016-07-11T03:31:58Z</time>
      </trkpt>
      <trkpt lat="45.63476" lon="13.78996">
        <ele>76</ele>
        <time>2016-07-11T03:33:58Z</time>
      </trkpt>
      <trkpt lat="45.63393" lon="13.79016">
        <ele>66</ele>
        <time>2016-07-11T03:35:58Z</time>
      </trkpt>
      <trkpt lat="45.63386" lon="13.79017">
        <ele>65</ele>
        <time>2016-07-11T03:37:58Z</time>
      </trkpt>
      <trkpt lat="45.63333" lon="13.79028">
        <ele>57</ele>
        <time>2016-07-11T03:39:58Z</time>
      </trkpt>
      <trkpt lat="45.63325" lon="13.7903">
        <ele>56</ele>
        <time>2016-07-11T03:41:58Z</time>
      </trkpt>
      <trkpt lat="45.63317" lon="13.79032">
        <ele>55</ele>
        <time>2016-07-11T03:43:58Z</time>
      </trkpt>
      <trkpt lat="45.63274" lon="13.79041">
        <ele>49</ele>
        <time>2016-07-11T03:45:58Z</time>
      </trkpt>
      <trkpt lat="45.63261" lon="13.79043">
        <ele>47</ele>
        <time>2016-07-11T03:47:58Z</time>
      </trkpt>
      <trkpt lat="45.63261" lon="13.79043">
        <ele>47</ele>
        <time>2016-07-11T03:49:58Z</time>
      </trkpt>
      <trkpt lat="45.6324" lon="13.7905">
        <ele>45</ele>
        <time>2016-07-11T03:51:58Z</time>
      </trkpt>
      <trkpt lat="45.63233" lon="13.79054">
        <ele>45</ele>
        <time>2016-07-11T03:53:58Z</time>
      </trkpt>
      <trkpt lat="45.63231" lon="13.79056">
        <ele>44</ele>
        <time>2016-07-11T03:55:58Z</time>
      </trkpt>
      <trkpt lat="45.63221" lon="13.79065">
        <ele>44</ele>
        <time>2016-07-11T03:57:58Z</time>
      </trkpt>
      <trkpt lat="45.63146" lon="13.79167">
        <ele>45</ele>
        <time>2016-07-11T03:59:58Z</time>
      </trkpt>
      <trkpt lat="45.63137" lon="13.79179">
        <ele>46</ele>
        <time>2016-07-11T04:01:58Z</time>
      </trkpt>
      <trkpt lat="45.63133" lon="13.79186">
        <ele>46</ele>
        <time>2016-07-11T04:03:58Z</time>
      </trkpt>
      <trkpt lat="45.63133" lon="13.79186">
        <ele>46</ele>
        <time>2016-07-11T04:05:58Z</time>
      </trkpt>
      <trkpt lat="45.63122" lon="13.79201">
        <ele>47</ele>
        <time>2016-07-11T04:07:58Z</time>
      </trkpt>
      <trkpt lat="45.63089" lon="13.79246">
        <ele>48</ele>
        <time>2016-07-11T04:09:58Z</time>
      </trkpt>
      <trkpt lat="45.63085" lon="13.79252">
        <ele>48</ele>
        <time>2016-07-11T04:11:58Z</time>
      </trkpt>
      <trkpt lat="45.63079" lon="13.79262">
        <ele>48</ele>
        <time>2016-07-11T04:13:58Z</time>
      </trkpt>
      <trkpt lat="45.63063" lon="13.79282">
        <ele>48</ele>
        <time>2016-07-11T04:15:58Z</time>
      </trkpt>
      <trkpt lat="45.63056" lon="13.79291">
        <ele>48</ele>
        <time>2016-07-11T04:17:58Z</time>
      </trkpt>
      <trkpt lat="45.63047" lon="13.79302">
        <ele>47</ele>
        <time>2016-07-11T04:19:58Z</time>
      </trkpt>
      <trkpt lat="45.63033" lon="13.79317">
        <ele>46</ele>
        <time>2016-07-11T04:21:58Z</time>
      </trkpt>
      <trkpt lat="45.63019" lon="13.7933">
        <ele>44</ele>
        <time>2016-07-11T04:23:58Z</time>
      </trkpt>
      <trkpt lat="45.63008" lon="13.79341">
        <ele>43</ele>
        <time>2016-07-11T04:25:58Z</time>
      </trkpt>
      <trkpt lat="45.62998" lon="13.79349">
        <ele>42</ele>
        <time>2016-07-11T04:27:58Z</time>
      </trkpt>
      <trkpt lat="45.6299" lon="13.79354">
        <ele>42</ele>
        <time>2016-07-11T04:29:58Z</time>
      </trkpt>
      <trkpt lat="45.6296" lon="13.79364">
        <ele>39</ele>
        <time>2016-07-11T04:31:58Z</time>
      </trkpt>
      <trkpt lat="45.62936" lon="13.79371">
        <ele>38</ele>
        <time>2016-07-11T04:33:58Z</time>
      </trkpt>
      <trkpt lat="45.62935" lon="13.79372">
        <ele>37</ele>
        <time>2016-07-11T04:35:58Z</time>
      </trkpt>
      <trkpt lat="45.62849" lon="13.79398">
        <ele>30</ele>
        <time>2016-07-11T04:37:58Z</time>
      </trkpt>
      <trkpt lat="45.62833" lon="13.79404">
        <ele>29</ele>
        <time>2016-07-11T04:39:58Z</time>
      </trkpt>
      <trkpt lat="45.62821" lon="13.79408">
        <ele>28</ele>
        <time>2016-07-11T04:41:58Z</time>
      </trkpt>
      <trkpt lat="45.62813" lon="13.79411">
        <ele>28</ele>
        <time>2016-07-11T04:43:58Z</time>
      </trkpt>
      <trkpt lat="45.62786" lon="13.79421">
        <ele>27</ele>
        <time>2016-07-11T04:45:58Z</time>
      </trkpt>
      <trkpt lat="45.6276" lon="13.79431">
        <ele>26</ele>
        <time>2016-07-11T04:47:58Z</time>
      </trkpt>
      <trkpt lat="45.62687" lon="13.79466">
        <ele>22</ele>
        <time>2016-07-11T04:49:58Z</time>
      </trkpt>
      <trkpt lat="45.62658" lon="13.79479">
        <ele>21</ele>
        <time>2016-07-11T04:51:58Z</time>
      </trkpt>
      <trkpt lat="45.62638" lon="13.79487">
        <ele>21</ele>
        <time>2016-07-11T04:53:58Z</time>
      </trkpt>
      <trkpt lat="45.6261" lon="13.79496">
        <ele>22</ele>
        <time>2016-07-11T04:55:58Z</time>
      </trkpt>
      <trkpt lat="45.62586" lon="13.79502">
        <ele>22</ele>
        <time>2016-07-11T04:57:58Z</time>
      </trkpt>
      <trkpt lat="45.62581" lon="13.79503">
        <ele>22</ele>
        <time>2016-07-11T04:59:58Z</time>
      </trkpt>
      <trkpt lat="45.62568" lon="13.79506">
        <ele>23</ele>
        <time>2016-07-11T05:01:58Z</time>
      </trkpt>
      <trkpt lat="45.62568" lon="13.79506">
        <ele>23</ele>
        <time>2016-07-11T05:03:58Z</time>
      </trkpt>
      <trkpt lat="45.62554" lon="13.79505">
        <ele>23</ele>
        <time>2016-07-11T05:05:58Z</time>
      </trkpt>
      <trkpt lat="45.62545" lon="13.79505">
        <ele>24</ele>
        <time>2016-07-11T05:07:58Z</time>
      </trkpt>
      <trkpt lat="45.62541" lon="13.79505">
        <ele>24</ele>
        <time>2016-07-11T05:09:58Z</time>
      </trkpt>
      <trkpt lat="45.62523" lon="13.79504">
        <ele>24</ele>
        <time>2016-07-11T05:11:58Z</time>
      </trkpt>
      <trkpt lat="45.62507" lon="13.79504">
        <ele>25</ele>
        <time>2016-07-11T05:13:58Z</time>
      </trkpt>
      <trkpt lat="45.62483" lon="13.79504">
        <ele>25</ele>
        <time>2016-07-11T05:15:58Z</time>
      </trkpt>
      <trkpt lat="45.62468" lon="13.79504">
        <ele>25</ele>
        <time>2016-07-11T05:17:58Z</time>
      </trkpt>
      <trkpt lat="45.62448" lon="13.79506">
        <ele>25</ele>
        <time>2016-07-11T05:19:58Z</time>
      </trkpt>
      <trkpt lat="45.62431" lon="13.7951">
        <ele>26</ele>
        <time>2016-07-11T05:21:58Z</time>
      </trkpt>
      <trkpt lat="45.62405" lon="13.79517">
        <ele>26</ele>
        <time>2016-07-11T05:23:58Z</time>
      </trkpt>
      <trkpt lat="45.6239" lon="13.79522">
        <ele>26</ele>
        <time>2016-07-11T05:25:58Z</time>
      </trkpt>
      <trkpt lat="45.62362" lon="13.79536">
        <ele>26</ele>
        <time>2016-07-11T05:27:58Z</time>
      </trkpt>
      <trkpt lat="45.62349" lon="13.79547">
        <ele>26</ele>
        <time>2016-07-11T05:29:58Z</time>
      </trkpt>
      <trkpt lat="45.62335" lon="13.79558">
        <ele>26</ele>
        <time>2016-07-11T05:31:58Z</time>
      </trkpt>
      <trkpt lat="45.62317" lon="13.79576">
        <ele>25</ele>
        <time>2016-07-11T05:33:58Z</time>
      </trkpt>
      <trkpt lat="45.62307" lon="13.79588">
        <ele>26</ele>
        <time>2016-07-11T05:35:58Z</time>
      </trkpt>
      <trkpt lat="45.62294" lon="13.79605">
        <ele>26</ele>
        <time>2016-07-11T05:37:58Z</time>
      </trkpt>
      <trkpt lat="45.62262" lon="13.79651">
        <ele>28</ele>
        <time>2016-07-11T05:39:58Z</time>
      </trkpt>
      <trkpt lat="45.62223" lon="13.7972">
        <ele>30</ele>
        <time>2016-07-11T05:41:58Z</time>
      </trkpt>
      <trkpt lat="45.62187" lon="13.79789">
        <ele>31</ele>
        <time>2016-07-11T05:43:58Z</time>
      </trkpt>
      <trkpt lat="45.62154" lon="13.79855">
        <ele>32</ele>
        <time>2016-07-11T05:45:58Z</time>
      </trkpt>
      <trkpt lat="45.6215" lon="13.79864">
        <ele>33</ele>
        <time>2016-07-11T05:47:58Z</time>
      </trkpt>
      <trkpt lat="45.6213" lon="13.79902">
        <ele>33</ele>
        <time>2016-07-11T05:49:58Z</time>
      </trkpt>
      <trkpt lat="45.62122" lon="13.79924">
        <ele>33</ele>
        <time>2016-07-11T05:51:58Z</time>
      </trkpt>
      <trkpt lat="45.62119" lon="13.79934">
        <ele>32</ele>
        <time>2016-07-11T05:53:58Z</time>
      </trkpt>
      <trkpt lat="45.62117" lon="13.79942">
        <ele>32</ele>
        <time>2016-07-11T05:55:58Z</time>
      </trkpt>
      <trkpt lat="45.62114" lon="13.79958">
        <ele>31</ele>
        <time>2016-07-11T05:57:58Z</time>
      </trkpt>
      <trkpt lat="45.62112" lon="13.79971">
        <ele>30</ele>
        <time>2016-07-11T05:59:58Z</time>
      </trkpt>
      <trkpt lat="45.62112" lon="13.79977">
        <ele>30</ele>
        <time>2016-07-11T06:01:58Z</time>
      </trkpt>
      <trkpt lat="45.6211" lon="13.79996">
        <ele>29</ele>
        <time>2016-07-11T06:03:58Z</time>
      </trkpt>
      <trkpt lat="45.62114" lon="13.80042">
        <ele>27</ele>
        <time>2016-07-11T06:05:58Z</time>
      </trkpt>
      <trkpt lat="45.62115" lon="13.80045">
        <ele>27</ele>
        <time>2016-07-11T06:07:58Z</time>
      </trkpt>
      <trkpt lat="45.62118" lon="13.80064">
        <ele>27</ele>
        <time>2016-07-11T06:09:58Z</time>
      </trkpt>
      <trkpt lat="45.62121" lon="13.80075">
        <ele>26</ele>
        <time>2016-07-11T06:11:58Z</time>
      </trkpt>
      <trkpt lat="45.62134" lon="13.80112">
        <ele>25</ele>
        <time>2016-07-11T06:13:58Z</time>
      </trkpt>
      <trkpt lat="45.62148" lon="13.80156">
        <ele>24</ele>
        <time>2016-07-11T06:15:58Z</time>
      </trkpt>
      <trkpt lat="45.62153" lon="13.80181">
        <ele>24</ele>
        <time>2016-07-11T06:17:58Z</time>
      </trkpt>
      <trkpt lat="45.62156" lon="13.80205">
        <ele>23</ele>
        <time>2016-07-11T06:19:58Z</time>
      </trkpt>
      <trkpt lat="45.62163" lon="13.80269">
        <ele>23</ele>
        <time>2016-07-11T06:21:58Z</time>
      </trkpt>
      <trkpt lat="45.62171" lon="13.80357">
        <ele>22</ele>
        <time>2016-07-11T06:23:58Z</time>
      </trkpt>
      <trkpt lat="45.62173" lon="13.80383">
        <ele>21</ele>
        <time>2016-07-11T06:25:58Z</time>
      </trkpt>
      <trkpt lat="45.62176" lon="13.8041">
        <ele>19</ele>
        <time>2016-07-11T06:27:58Z</time>
      </trkpt>
      <trkpt lat="45.6218" lon="13.80453">
        <ele>19</ele>
        <time>2016-07-11T06:29:58Z</time>
      </trkpt>
      <trkpt lat="45.62184" lon="13.805">
        <ele>20</ele>
        <time>2016-07-11T06:31:58Z</time>
      </trkpt>
      <trkpt lat="45.62184" lon="13.80534">
        <ele>20</ele>
        <time>2016-07-11T06:33:58Z</time>
      </trkpt>
      <trkpt lat="45.62184" lon="13.80571">
        <ele>19</ele>
        <time>2016-07-11T06:35:58Z</time>
      </trkpt>
      <trkpt lat="45.62181" lon="13.80596">
        <ele>19</ele>
        <time>2016-07-11T06:37:58Z</time>
      </trkpt>
      <trkpt lat="45.62176" lon="13.80627">
        <ele>18</ele>
        <time>2016-07-11T06:39:58Z</time>
      </trkpt>
      <trkpt lat="45.6217" lon="13.80653">
        <ele>17</ele>
        <time>2016-07-11T06:41:58Z</time>
      </trkpt>
      <trkpt lat="45.6216" lon="13.80691">
        <ele>16</ele>
        <time>2016-07-11T06:43:58Z</time>
      </trkpt>
      <trkpt lat="45.62147" lon="13.80728">
        <ele>15</ele>
        <time>2016-07-11T06:45:58Z</time>
      </trkpt>
      <trkpt lat="45.62135" lon="13.80753">
        <ele>15</ele>
        <time>2016-07-11T06:47:58Z</time>
      </trkpt>
      <trkpt lat="45.62134" lon="13.80756">
        <ele>15</ele>
        <time>2016-07-11T06:49:58Z</time>
      </trkpt>
      <trkpt lat="45.62092" lon="13.80843">
        <ele>13</ele>
        <time>2016-07-11T06:51:58Z</time>
      </trkpt>
      <trkpt lat="45.62023" lon="13.80984">
        <ele>13</ele>
        <time>2016-07-11T06:53:58Z</time>
      </trkpt>
      <trkpt lat="45.61999" lon="13.81035">
        <ele>13</ele>
        <time>2016-07-11T06:55:58Z</time>
      </trkpt>
      <trkpt lat="45.61981" lon="13.81075">
        <ele>13</ele>
        <time>2016-07-11T06:57:58Z</time>
      </trkpt>
      <trkpt lat="45.61977" lon="13.81085">
        <ele>13</ele>
        <time>2016-07-11T06:59:58Z</time>
      </trkpt>
      <trkpt lat="45.61971" lon="13.81088">
        <ele>13</ele>
        <time>2016-07-11T07:01:58Z</time>
      </trkpt>
      <trkpt lat="45.61958" lon="13.81116">
        <ele>13</ele>
        <time>2016-07-11T07:03:58Z</time>
      </trkpt>
      <trkpt lat="45.61949" lon="13.81136">
        <ele>13</ele>
        <time>2016-07-11T07:05:58Z</time>
      </trkpt>
      <trkpt lat="45.61946" lon="13.81141">
        <ele>13</ele>
        <time>2016-07-11T07:07:58Z</time>
      </trkpt>
      <trkpt lat="45.61944" lon="13.81146">
        <ele>13</ele>
        <time>2016-07-11T07:09:58Z</time>
      </trkpt>
      <trkpt lat="45.61931" lon="13.81174">
        <ele>14</ele>
        <time>2016-07-11T07:11:58Z</time>
      </trkpt>
      <trkpt lat="45.61929" lon="13.8118">
        <ele>14</ele>
        <time>2016-07-11T07:13:58Z</time>
      </trkpt>
      <trkpt lat="45.61892" lon="13.81257">
        <ele>16</ele>
        <time>2016-07-11T07:15:58Z</time>
      </trkpt>
      <trkpt lat="45.61868" lon="13.81309">
        <ele>17</ele>
        <time>2016-07-11T07:17:58Z</time>
      </trkpt>
      <trkpt lat="45.61852" lon="13.81346">
        <ele>16</ele>
        <time>2016-07-11T07:19:58Z</time>
      </trkpt>
      <trkpt lat="45.61838" lon="13.81382">
        <ele>16</ele>
        <time>2016-07-11T07:21:58Z</time>
      </trkpt>
      <trkpt lat="45.61823" lon="13.81431">
        <ele>15</ele>
        <time>2016-07-11T07:23:58Z</time>
      </trkpt>
      <trkpt lat="45.61817" lon="13.81454">
        <ele>15</ele>
        <time>2016-07-11T07:25:58Z</time>
      </trkpt>
      <trkpt lat="45.61807" lon="13.81495">
        <ele>14</ele>
        <time>2016-07-11T07:27:58Z</time>
      </trkpt>
      <trkpt lat="45.61803" lon="13.81514">
        <ele>14</ele>
        <time>2016-07-11T07:29:58Z</time>
      </trkpt>
      <trkpt lat="45.61798" lon="13.81541">
        <ele>14</ele>
        <time>2016-07-11T07:31:58Z</time>
      </trkpt>
      <trkpt lat="45.61789" lon="13.81605">
        <ele>14</ele>
        <time>2016-07-11T07:33:58Z</time>
      </trkpt>
      <trkpt lat="45.61779" lon="13.8167">
        <ele>12</ele>
        <time>2016-07-11T07:35:58Z</time>
      </trkpt>
      <trkpt lat="45.61775" lon="13.81689">
        <ele>12</ele>
        <time>2016-07-11T07:37:58Z</time>
      </trkpt>
      <trkpt lat="45.61771" lon="13.81708">
        <ele>12</ele>
        <time>2016-07-11T07:39:58Z</time>
      </trkpt>
      <trkpt lat="45.61767" lon="13.81723">
        <ele>11</ele>
        <time>2016-07-11T07:41:58Z</time>
      </trkpt>
      <trkpt lat="45.61764" lon="13.81731">
        <ele>11</ele>
        <time>2016-07-11T07:43:58Z</time>
      </trkpt>
      <trkpt lat="45.6176" lon="13.81741">
        <ele>11</ele>
        <time>2016-07-11T07:45:58Z</time>
      </trkpt>
      <trkpt lat="45.61749" lon="13.81762">
        <ele>10</ele>
        <time>2016-07-11T07:47:58Z</time>
      </trkpt>
      <trkpt lat="45.61733" lon="13.81788">
        <ele>11</ele>
        <time>2016-07-11T07:49:58Z</time>
      </trkpt>
      <trkpt lat="45.61705" lon="13.81832">
        <ele>12</ele>
        <time>2016-07-11T07:51:58Z</time>
      </trkpt>
      <trkpt lat="45.61672" lon="13.81882">
        <ele>13</ele>
        <time>2016-07-11T07:53:58Z</time>
      </trkpt>
      <trkpt lat="45.61664" lon="13.81892">
        <ele>13</ele>
        <time>2016-07-11T07:55:58Z</time>
      </trkpt>
      <trkpt lat="45.61664" lon="13.81892">
        <ele>13</ele>
        <time>2016-07-11T07:57:58Z</time>
      </trkpt>
      <trkpt lat="45.61656" lon="13.81901">
        <ele>13</ele>
        <time>2016-07-11T07:59:58Z</time>
      </trkpt>
      <trkpt lat="45.61656" lon="13.81901">
        <ele>13</ele>
        <time>2016-07-11T08:01:58Z</time>
      </trkpt>
      <trkpt lat="45.61654" lon="13.819">
        <ele>13</ele>
        <time>2016-07-11T08:03:58Z</time>
      </trkpt>
      <trkpt lat="45.61653" lon="13.819">
        <ele>13</ele>
        <time>2016-07-11T08:05:58Z</time>
      </trkpt>
      <trkpt lat="45.61652" lon="13.819">
        <ele>13</ele>
        <time>2016-07-11T08:07:58Z</time>
      </trkpt>
      <trkpt lat="45.61651" lon="13.819">
        <ele>13</ele>
        <time>2016-07-11T08:09:58Z</time>
      </trkpt>
      <trkpt lat="45.6165" lon="13.81901">
        <ele>13</ele>
        <time>2016-07-11T08:11:58Z</time>
      </trkpt>
      <trkpt lat="45.61649" lon="13.81901">
        <ele>13</ele>
        <time>2016-07-11T08:13:58Z</time>
      </trkpt>
      <trkpt lat="45.61648" lon="13.81902">
        <ele>13</ele>
        <time>2016-07-11T08:15:58Z</time>
      </trkpt>
      <trkpt lat="45.61647" lon="13.81903">
        <ele>13</ele>
        <time>2016-07-11T08:17:58Z</time>
      </trkpt>
      <trkpt lat="45.61646" lon="13.81903">
        <ele>13</ele>
        <time>2016-07-11T08:19:58Z</time>
      </trkpt>
      <trkpt lat="45.61646" lon="13.81904">
        <ele>13</ele>
        <time>2016-07-11T08:21:58Z</time>
      </trkpt>
      <trkpt lat="45.61645" lon="13.81905">
        <ele>13</ele>
        <time>2016-07-11T08:23:58Z</time>
      </trkpt>
      <trkpt lat="45.61645" lon="13.81906">
        <ele>13</ele>
        <time>2016-07-11T08:25:58Z</time>
      </trkpt>
      <trkpt lat="45.61644" lon="13.81907">
        <ele>13</ele>
        <time>2016-07-11T08:27:58Z</time>
      </trkpt>
      <trkpt lat="45.61644" lon="13.81908">
        <ele>13</ele>
        <time>2016-07-11T08:29:58Z</time>
      </trkpt>
      <trkpt lat="45.61643" lon="13.81909">
        <ele>13</ele>
        <time>2016-07-11T08:31:58Z</time>
      </trkpt>
      <trkpt lat="45.61643" lon="13.81911">
        <ele>13</ele>
        <time>2016-07-11T08:33:58Z</time>
      </trkpt>
      <trkpt lat="45.61643" lon="13.81912">
        <ele>13</ele>
        <time>2016-07-11T08:35:58Z</time>
      </trkpt>
      <trkpt lat="45.61643" lon="13.81913">
        <ele>13</ele>
        <time>2016-07-11T08:37:58Z</time>
      </trkpt>
      <trkpt lat="45.61643" lon="13.81914">
        <ele>13</ele>
        <time>2016-07-11T08:39:58Z</time>
      </trkpt>
      <trkpt lat="45.61642" lon="13.81915">
        <ele>13</ele>
        <time>2016-07-11T08:41:58Z</time>
      </trkpt>
      <trkpt lat="45.61642" lon="13.81916">
        <ele>13</ele>
        <time>2016-07-11T08:43:58Z</time>
      </trkpt>
      <trkpt lat="45.61642" lon="13.81917">
        <ele>13</ele>
        <time>2016-07-11T08:45:58Z</time>
      </trkpt>
      <trkpt lat="45.61642" lon="13.81918">
        <ele>13</ele>
        <time>2016-07-11T08:47:58Z</time>
      </trkpt>
      <trkpt lat="45.61643" lon="13.81918">
        <ele>13</ele>
        <time>2016-07-11T08:49:58Z</time>
      </trkpt>
      <trkpt lat="45.61643" lon="13.81919">
        <ele>13</ele>
        <time>2016-07-11T08:51:58Z</time>
      </trkpt>
      <trkpt lat="45.61643" lon="13.8192">
        <ele>13</ele>
        <time>2016-07-11T08:53:58Z</time>
      </trkpt>
      <trkpt lat="45.61643" lon="13.81921">
        <ele>13</ele>
        <time>2016-07-11T08:55:58Z</time>
      </trkpt>
      <trkpt lat="45.61644" lon="13.81922">
        <ele>13</ele>
        <time>2016-07-11T08:57:58Z</time>
      </trkpt>
      <trkpt lat="45.61645" lon="13.81923">
        <ele>13</ele>
        <time>2016-07-11T08:59:58Z</time>
      </trkpt>
      <trkpt lat="45.61645" lon="13.81925">
        <ele>13</ele>
        <time>2016-07-11T09:01:58Z</time>
      </trkpt>
      <trkpt lat="45.61646" lon="13.81927">
        <ele>13</ele>
        <time>2016-07-11T09:03:58Z</time>
      </trkpt>
      <trkpt lat="45.61637" lon="13.81937">
        <ele>14</ele>
        <time>2016-07-11T09:05:58Z</time>
      </trkpt>
      <trkpt lat="45.61545" lon="13.82098">
        <ele>13</ele>
        <time>2016-07-11T09:07:58Z</time>
      </trkpt>
      <trkpt lat="45.61463" lon="13.82242">
        <ele>12</ele>
        <time>2016-07-11T09:09:58Z</time>
      </trkpt>
      <trkpt lat="45.61388" lon="13.8237">
        <ele>10</ele>
        <time>2016-07-11T09:11:58Z</time>
      </trkpt>
      <trkpt lat="45.61373" lon="13.82396">
        <ele>10</ele>
        <time>2016-07-11T09:13:58Z</time>
      </trkpt>
      <trkpt lat="45.61312" lon="13.82496">
        <ele>10</ele>
        <time>2016-07-11T09:15:58Z</time>
      </trkpt>
      <trkpt lat="45.61287" lon="13.82542">
        <ele>10</ele>
        <time>2016-07-11T09:17:58Z</time>
      </trkpt>
      <trkpt lat="45.61285" lon="13.82549">
        <ele>10</ele>
        <time>2016-07-11T09:19:58Z</time>
      </trkpt>
      <trkpt lat="45.61282" lon="13.82554">
        <ele>10</ele>
        <time>2016-07-11T09:21:58Z</time>
      </trkpt>
      <trkpt lat="45.61251" lon="13.82603">
        <ele>10</ele>
        <time>2016-07-11T09:23:58Z</time>
      </trkpt>
      <trkpt lat="45.6122" lon="13.82651">
        <ele>11</ele>
        <time>2016-07-11T09:25:58Z</time>
      </trkpt>
      <trkpt lat="45.61185" lon="13.82706">
        <ele>13</ele>
        <time>2016-07-11T09:27:58Z</time>
      </trkpt>
      <trkpt lat="45.61168" lon="13.82731">
        <ele>14</ele>
        <time>2016-07-11T09:29:58Z</time>
      </trkpt>
      <trkpt lat="45.61088" lon="13.8286">
        <ele>13</ele>
        <time>2016-07-11T09:31:58Z</time>
      </trkpt>
      <trkpt lat="45.60984" lon="13.83041">
        <ele>16</ele>
        <time>2016-07-11T09:33:58Z</time>
      </trkpt>
      <trkpt lat="45.6098" lon="13.83047">
        <ele>16</ele>
        <time>2016-07-11T09:35:58Z</time>
      </trkpt>
      <trkpt lat="45.60976" lon="13.83053">
        <ele>16</ele>
        <time>2016-07-11T09:37:58Z</time>
      </trkpt>
      <trkpt lat="45.60965" lon="13.8307">
        <ele>17</ele>
        <time>2016-07-11T09:39:58Z</time>
      </trkpt>
      <trkpt lat="45.60949" lon="13.83095">
        <ele>17</ele>
        <time>2016-07-11T09:41:58Z</time>
      </trkpt>
      <trkpt lat="45.60914" lon="13.83146">
        <ele>17</ele>
        <time>2016-07-11T09:43:58Z</time>
      </trkpt>
      <trkpt lat="45.60906" lon="13.83157">
        <ele>17</ele>
        <time>2016-07-11T09:45:58Z</time>
      </trkpt>
      <trkpt lat="45.60902" lon="13.83163">
        <ele>17</ele>
        <time>2016-07-11T09:47:58Z</time>
      </trkpt>
      <trkpt lat="45.60894" lon="13.83172">
        <ele>18</ele>
        <time>2016-07-11T09:49:58Z</time>
      </trkpt>
      <trkpt lat="45.60885" lon="13.83182">
        <ele>18</ele>
        <time>2016-07-11T09:51:58Z</time>
      </trkpt>
      <trkpt lat="45.60856" lon="13.83205">
        <ele>20</ele>
        <time>2016-07-11T09:53:58Z</time>
      </trkpt>
      <trkpt lat="45.60848" lon="13.8321">
        <ele>20</ele>
        <time>2016-07-11T09:55:58Z</time>
      </trkpt>
      <trkpt lat="45.60808" lon="13.8324">
        <ele>21</ele>
        <time>2016-07-11T09:57:58Z</time>
      </trkpt>
      <trkpt lat="45.60795" lon="13.83251">
        <ele>21</ele>
        <time>2016-07-11T09:59:58Z</time>
      </trkpt>
      <trkpt lat="45.60783" lon="13.8326">
        <ele>22</ele>
        <time>2016-07-11T10:01:58Z</time>
      </trkpt>
      <trkpt lat="45.60779" lon="13.83264">
        <ele>21</ele>
        <time>2016-07-11T10:03:58Z</time>
      </trkpt>
      <trkpt lat="45.60772" lon="13.83269">
        <ele>21</ele>
        <time>2016-07-11T10:05:58Z</time>
      </trkpt>
      <trkpt lat="45.60739" lon="13.83293">
        <ele>21</ele>
        <time>2016-07-11T10:07:58Z</time>
      </trkpt>
      <trkpt lat="45.60734" lon="13.83298">
        <ele>21</ele>
        <time>2016-07-11T10:09:58Z</time>
      </trkpt>
      <trkpt lat="45.60723" lon="13.83305">
        <ele>21</ele>
        <time>2016-07-11T10:11:58Z</time>
      </trkpt>
      <trkpt lat="45.60708" lon="13.83319">
        <ele>21</ele>
        <time>2016-07-11T10:13:58Z</time>
      </trkpt>
      <trkpt lat="45.60688" lon="13.83339">
        <ele>21</ele>
        <time>2016-07-11T10:15:58Z</time>
      </trkpt>
      <trkpt lat="45.60657" lon="13.83371">
        <ele>20</ele>
        <time>2016-07-11T10:17:58Z</time>
      </trkpt>
      <trkpt lat="45.60626" lon="13.83405">
        <ele>20</ele>
        <time>2016-07-11T10:19:58Z</time>
      </trkpt>
      <trkpt lat="45.60581" lon="13.83458">
        <ele>21</ele>
        <time>2016-07-11T10:21:58Z</time>
      </trkpt>
      <trkpt lat="45.60524" lon="13.83547">
        <ele>24</ele>
        <time>2016-07-11T10:23:58Z</time>
      </trkpt>
      <trkpt lat="45.60484" lon="13.83619">
        <ele>26</ele>
        <time>2016-07-11T10:25:58Z</time>
      </trkpt>
      <trkpt lat="45.60452" lon="13.83679">
        <ele>26</ele>
        <time>2016-07-11T10:27:58Z</time>
      </trkpt>
      <trkpt lat="45.60431" lon="13.83726">
        <ele>27</ele>
        <time>2016-07-11T10:29:58Z</time>
      </trkpt>
      <trkpt lat="45.60429" lon="13.8373">
        <ele>27</ele>
        <time>2016-07-11T10:31:58Z</time>
      </trkpt>
      <trkpt lat="45.60377" lon="13.83839">
        <ele>29</ele>
        <time>2016-07-11T10:33:58Z</time>
      </trkpt>
      <trkpt lat="45.60342" lon="13.83912">
        <ele>30</ele>
        <time>2016-07-11T10:35:58Z</time>
      </trkpt>
      <trkpt lat="45.6032" lon="13.83967">
        <ele>31</ele>
        <time>2016-07-11T10:37:58Z</time>
      </trkpt>
      <trkpt lat="45.60316" lon="13.83976">
        <ele>32</ele>
        <time>2016-07-11T10:39:58Z</time>
      </trkpt>
      <trkpt lat="45.60316" lon="13.83976">
        <ele>32</ele>
        <time>2016-07-11T10:41:58Z</time>
      </trkpt>
      <trkpt lat="45.60294" lon="13.84011">
        <ele>31</ele>
        <time>2016-07-11T10:43:58Z</time>
      </trkpt>
      <trkpt lat="45.60286" lon="13.84021">
        <ele>31</ele>
        <time>2016-07-11T10:45:58Z</time>
      </trkpt>
      <trkpt lat="45.60275" lon="13.84037">
        <ele>31</ele>
        <time>2016-07-11T10:47:58Z</time>
      </trkpt>
      <trkpt lat="45.60267" lon="13.84042">
        <ele>31</ele>
        <time>2016-07-11T10:49:58Z</time>
      </trkpt>
      <trkpt lat="45.60267" lon="13.84042">
        <ele>31</ele>
        <time>2016-07-11T10:51:58Z</time>
      </trkpt>
      <trkpt lat="45.60264" lon="13.84045">
        <ele>31</ele>
        <time>2016-07-11T10:53:58Z</time>
      </trkpt>
      <trkpt lat="45.60243" lon="13.8406">
        <ele>30</ele>
        <time>2016-07-11T10:55:58Z</time>
      </trkpt>
      <trkpt lat="45.60239" lon="13.84062">
        <ele>31</ele>
        <time>2016-07-11T10:57:58Z</time>
      </trkpt>
      <trkpt lat="45.60235" lon="13.84063">
        <ele>31</ele>
        <time>2016-07-11T10:59:58Z</time>
      </trkpt>
      <trkpt lat="45.60233" lon="13.84064">
        <ele>31</ele>
        <time>2016-07-11T11:01:58Z</time>
      </trkpt>
      <trkpt lat="45.60231" lon="13.84064">
        <ele>31</ele>
        <time>2016-07-11T11:03:58Z</time>
      </trkpt>
      <trkpt lat="45.60227" lon="13.84062">
        <ele>31</ele>
        <time>2016-07-11T11:05:58Z</time>
      </trkpt>
      <trkpt lat="45.60224" lon="13.84059">
        <ele>31</ele>
        <time>2016-07-11T11:07:58Z</time>
      </trkpt>
      <trkpt lat="45.60222" lon="13.84057">
        <ele>30</ele>
        <time>2016-07-11T11:09:58Z</time>
      </trkpt>
      <trkpt lat="45.6022" lon="13.84055">
        <ele>30</ele>
        <time>2016-07-11T11:11:58Z</time>
      </trkpt>
      <trkpt lat="45.60216" lon="13.84051">
        <ele>30</ele>
        <time>2016-07-11T11:13:58Z</time>
      </trkpt>
      <trkpt lat="45.60214" lon="13.8405">
        <ele>30</ele>
        <time>2016-07-11T11:15:58Z</time>
      </trkpt>
      <trkpt lat="45.60211" lon="13.84048">
        <ele>30</ele>
        <time>2016-07-11T11:17:58Z</time>
      </trkpt>
      <trkpt lat="45.60187" lon="13.84051">
        <ele>31</ele>
        <time>2016-07-11T11:19:58Z</time>
      </trkpt>
      <trkpt lat="45.60161" lon="13.84056">
        <ele>31</ele>
        <time>2016-07-11T11:21:58Z</time>
      </trkpt>
      <trkpt lat="45.60136" lon="13.8406">
        <ele>32</ele>
        <time>2016-07-11T11:23:58Z</time>
      </trkpt>
      <trkpt lat="45.60074" lon="13.84066">
        <ele>36</ele>
        <time>2016-07-11T11:25:58Z</time>
      </trkpt>
      <trkpt lat="45.60031" lon="13.8407">
        <ele>37</ele>
        <time>2016-07-11T11:27:58Z</time>
      </trkpt>
      <trkpt lat="45.59995" lon="13.84076">
        <ele>37</ele>
        <time>2016-07-11T11:29:58Z</time>
      </trkpt>
      <trkpt lat="45.59978" lon="13.84079">
        <ele>37</ele>
        <time>2016-07-11T11:31:58Z</time>
      </trkpt>
      <trkpt lat="45.59963" lon="13.84084">
        <ele>36</ele>
        <time>2016-07-11T11:33:58Z</time>
      </trkpt>
      <trkpt lat="45.59953" lon="13.84088">
        <ele>36</ele>
        <time>2016-07-11T11:35:58Z</time>
      </trkpt>
      <trkpt lat="45.59936" lon="13.84095">
        <ele>35</ele>
        <time>2016-07-11T11:37:58Z</time>
      </trkpt>
      <trkpt lat="45.59915" lon="13.84112">
        <ele>35</ele>
        <time>2016-07-11T11:39:58Z</time>
      </trkpt>
      <trkpt lat="45.59894" lon="13.8413">
        <ele>37</ele>
        <time>2016-07-11T11:41:58Z</time>
      </trkpt>
      <trkpt lat="45.59858" lon="13.84165">
        <ele>41</ele>
        <time>2016-07-11T11:43:58Z</time>
      </trkpt>
      <trkpt lat="45.59842" lon="13.84182">
        <ele>43</ele>
        <time>2016-07-11T11:45:58Z</time>
      </trkpt>
      <trkpt lat="45.59834" lon="13.84191">
        <ele>43</ele>
        <time>2016-07-11T11:47:58Z</time>
      </trkpt>
      <trkpt lat="45.59824" lon="13.84199">
        <ele>44</ele>
        <time>2016-07-11T11:49:58Z</time>
      </trkpt>
      <trkpt lat="45.59815" lon="13.84208">
        <ele>44</ele>
        <time>2016-07-11T11:51:58Z</time>
      </trkpt>
      <trkpt lat="45.59804" lon="13.84215">
        <ele>44</ele>
        <time>2016-07-11T11:53:58Z</time>
      </trkpt>
      <trkpt lat="45.59787" lon="13.84226">
        <ele>45</ele>
        <time>2016-07-11T11:55:58Z</time>
      </trkpt>
      <trkpt lat="45.59748" lon="13.84252">
        <ele>45</ele>
        <time>2016-07-11T11:57:58Z</time>
      </trkpt>
      <trkpt lat="45.597" lon="13.84283">
        <ele>46</ele>
        <time>2016-07-11T11:59:58Z</time>
      </trkpt>
      <trkpt lat="45.59646" lon="13.84315">
        <ele>51</ele>
        <time>2016-07-11T12:01:58Z</time>
      </trkpt>
      <trkpt lat="45.59646" lon="13.84315">
        <ele>51</ele>
        <time>2016-07-11T12:03:58Z</time>
      </trkpt>
      <trkpt lat="45.59628" lon="13.84308">
        <ele>56</ele>
        <time>2016-07-11T12:05:58Z</time>
      </trkpt>
      <trkpt lat="45.5962" lon="13.84301">
        <ele>58</ele>
        <time>2016-07-11T12:07:58Z</time>
      </trkpt>
      <trkpt lat="45.59619" lon="13.84301">
        <ele>58</ele>
        <time>2016-07-11T12:09:58Z</time>
      </trkpt>
      <trkpt lat="45.59615" lon="13.84295">
        <ele>59</ele>
        <time>2016-07-11T12:11:58Z</time>
      </trkpt>
      <trkpt lat="45.59611" lon="13.84285">
        <ele>60</ele>
        <time>2016-07-11T12:13:58Z</time>
      </trkpt>
      <trkpt lat="45.59609" lon="13.84277">
        <ele>61</ele>
        <time>2016-07-11T12:15:58Z</time>
      </trkpt>
      <trkpt lat="45.59606" lon="13.84263">
        <ele>62</ele>
        <time>2016-07-11T12:17:58Z</time>
      </trkpt>
      <trkpt lat="45.59605" lon="13.84246">
        <ele>63</ele>
        <time>2016-07-11T12:19:58Z</time>
      </trkpt>
      <trkpt lat="45.59605" lon="13.84223">
        <ele>64</ele>
        <time>2016-07-11T12:21:58Z</time>
      </trkpt>
      <trkpt lat="45.59607" lon="13.84194">
        <ele>66</ele>
        <time>2016-07-11T12:23:58Z</time>
      </trkpt>
      <trkpt lat="45.59619" lon="13.84142">
        <ele>66</ele>
        <time>2016-07-11T12:25:58Z</time>
      </trkpt>
      <trkpt lat="45.59635" lon="13.84083">
        <ele>64</ele>
        <time>2016-07-11T12:27:58Z</time>
      </trkpt>
      <trkpt lat="45.59646" lon="13.84041">
        <ele>62</ele>
        <time>2016-07-11T12:29:58Z</time>
      </trkpt>
      <trkpt lat="45.59648" lon="13.84029">
        <ele>62</ele>
        <time>2016-07-11T12:31:58Z</time>
      </trkpt>
      <trkpt lat="45.5965" lon="13.84011">
        <ele>62</ele>
        <time>2016-07-11T12:33:58Z</time>
      </trkpt>
      <trkpt lat="45.5965" lon="13.83978">
        <ele>62</ele>
        <time>2016-07-11T12:35:58Z</time>
      </trkpt>
      <trkpt lat="45.59647" lon="13.83943">
        <ele>63</ele>
        <time>2016-07-11T12:37:58Z</time>
      </trkpt>
      <trkpt lat="45.59645" lon="13.8392">
        <ele>63</ele>
        <time>2016-07-11T12:39:58Z</time>
      </trkpt>
      <trkpt lat="45.59638" lon="13.83895">
        <ele>66</ele>
        <time>2016-07-11T12:41:58Z</time>
      </trkpt>
      <trkpt lat="45.59625" lon="13.8386">
        <ele>71</ele>
        <time>2016-07-11T12:43:58Z</time>
      </trkpt>
      <trkpt lat="45.59614" lon="13.83822">
        <ele>76</ele>
        <time>2016-07-11T12:45:58Z</time>
      </trkpt>
      <trkpt lat="45.59609" lon="13.838">
        <ele>77</ele>
        <time>2016-07-11T12:47:58Z</time>
      </trkpt>
      <trkpt lat="45.59598" lon="13.83765">
        <ele>79</ele>
        <time>2016-07-11T12:49:58Z</time>
      </trkpt>
      <trkpt lat="45.5959" lon="13.83745">
        <ele>80</ele>
        <time>2016-07-11T12:51:58Z</time>
      </trkpt>
      <trkpt lat="45.59587" lon="13.83739">
        <ele>80</ele>
        <time>2016-07-11T12:53:58Z</time>
      </trkpt>
      <trkpt lat="45.59574" lon="13.83711">
        <ele>80</ele>
        <time>2016-07-11T12:55:58Z</time>
      </trkpt>
      <trkpt lat="45.5957" lon="13.83703">
        <ele>80</ele>
        <time>2016-07-11T12:57:58Z</time>
      </trkpt>
      <trkpt lat="45.59565" lon="13.83693">
        <ele>80</ele>
        <time>2016-07-11T12:59:58Z</time>
      </trkpt>
      <trkpt lat="45.59561" lon="13.83687">
        <ele>80</ele>
        <time>2016-07-11T13:01:58Z</time>
      </trkpt>
      <trkpt lat="45.59556" lon="13.83681">
        <ele>81</ele>
        <time>2016-07-11T13:03:58Z</time>
      </trkpt>
      <trkpt lat="45.59554" lon="13.83678">
        <ele>81</ele>
        <time>2016-07-11T13:05:58Z</time>
      </trkpt>
      <trkpt lat="45.5955" lon="13.83675">
        <ele>81</ele>
        <time>2016-07-11T13:07:58Z</time>
      </trkpt>
      <trkpt lat="45.59548" lon="13.83674">
        <ele>82</ele>
        <time>2016-07-11T13:09:58Z</time>
      </trkpt>
      <trkpt lat="45.59544" lon="13.83673">
        <ele>83</ele>
        <time>2016-07-11T13:11:58Z</time>
      </trkpt>
      <trkpt lat="45.59541" lon="13.83673">
        <ele>83</ele>
        <time>2016-07-11T13:13:58Z</time>
      </trkpt>
      <trkpt lat="45.59539" lon="13.83674">
        <ele>84</ele>
        <time>2016-07-11T13:15:58Z</time>
      </trkpt>
      <trkpt lat="45.59535" lon="13.83676">
        <ele>85</ele>
        <time>2016-07-11T13:17:58Z</time>
      </trkpt>
      <trkpt lat="45.59531" lon="13.8368">
        <ele>87</ele>
        <time>2016-07-11T13:19:58Z</time>
      </trkpt>
      <trkpt lat="45.59529" lon="13.83684">
        <ele>88</ele>
        <time>2016-07-11T13:21:58Z</time>
      </trkpt>
      <trkpt lat="45.59528" lon="13.83687">
        <ele>88</ele>
        <time>2016-07-11T13:23:58Z</time>
      </trkpt>
      <trkpt lat="45.59528" lon="13.83691">
        <ele>89</ele>
        <time>2016-07-11T13:25:58Z</time>
      </trkpt>
      <trkpt lat="45.59527" lon="13.83698">
        <ele>90</ele>
        <time>2016-07-11T13:27:58Z</time>
      </trkpt>
      <trkpt lat="45.59529" lon="13.83707">
        <ele>90</ele>
        <time>2016-07-11T13:29:58Z</time>
      </trkpt>
      <trkpt lat="45.59534" lon="13.83721">
        <ele>90</ele>
        <time>2016-07-11T13:31:58Z</time>
      </trkpt>
      <trkpt lat="45.59567" lon="13.83782">
        <ele>89</ele>
        <time>2016-07-11T13:33:58Z</time>
      </trkpt>
      <trkpt lat="45.59576" lon="13.83799">
        <ele>88</ele>
        <time>2016-07-11T13:35:58Z</time>
      </trkpt>
      <trkpt lat="45.59578" lon="13.83805">
        <ele>87</ele>
        <time>2016-07-11T13:37:58Z</time>
      </trkpt>
      <trkpt lat="45.5958" lon="13.83809">
        <ele>87</ele>
        <time>2016-07-11T13:39:58Z</time>
      </trkpt>
      <trkpt lat="45.59581" lon="13.83813">
        <ele>87</ele>
        <time>2016-07-11T13:41:58Z</time>
      </trkpt>
      <trkpt lat="45.59582" lon="13.83819">
        <ele>87</ele>
        <time>2016-07-11T13:43:58Z</time>
      </trkpt>
      <trkpt lat="45.59581" lon="13.83824">
        <ele>87</ele>
        <time>2016-07-11T13:45:58Z</time>
      </trkpt>
      <trkpt lat="45.59581" lon="13.83829">
        <ele>88</ele>
        <time>2016-07-11T13:47:58Z</time>
      </trkpt>
      <trkpt lat="45.5958" lon="13.83833">
        <ele>88</ele>
        <time>2016-07-11T13:49:58Z</time>
      </trkpt>
      <trkpt lat="45.59579" lon="13.83838">
        <ele>88</ele>
        <time>2016-07-11T13:51:58Z</time>
      </trkpt>
      <trkpt lat="45.59576" lon="13.83842">
        <ele>89</ele>
        <time>2016-07-11T13:53:58Z</time>
      </trkpt>
      <trkpt lat="45.59573" lon="13.83845">
        <ele>90</ele>
        <time>2016-07-11T13:55:58Z</time>
      </trkpt>
      <trkpt lat="45.59568" lon="13.83847">
        <ele>92</ele>
        <time>2016-07-11T13:57:58Z</time>
      </trkpt>
      <trkpt lat="45.59564" lon="13.83847">
        <ele>94</ele>
        <time>2016-07-11T13:59:58Z</time>
      </trkpt>
      <trkpt lat="45.59559" lon="13.83846">
        <ele>96</ele>
        <time>2016-07-11T14:01:58Z</time>
      </trkpt>
      <trkpt lat="45.59556" lon="13.83844">
        <ele>97</ele>
        <time>2016-07-11T14:03:58Z</time>
      </trkpt>
      <trkpt lat="45.59554" lon="13.83841">
        <ele>98</ele>
        <time>2016-07-11T14:05:58Z</time>
      </trkpt>
      <trkpt lat="45.59552" lon="13.83836">
        <ele>99</ele>
        <time>2016-07-11T14:07:58Z</time>
      </trkpt>
      <trkpt lat="45.59547" lon="13.83823">
        <ele>100</ele>
        <time>2016-07-11T14:09:58Z</time>
      </trkpt>
      <trkpt lat="45.59538" lon="13.83794">
        <ele>99</ele>
        <time>2016-07-11T14:11:58Z</time>
      </trkpt>
      <trkpt lat="45.59536" lon="13.83788">
        <ele>99</ele>
        <time>2016-07-11T14:13:58Z</time>
      </trkpt>
      <trkpt lat="45.59534" lon="13.83783">
        <ele>99</ele>
        <time>2016-07-11T14:15:58Z</time>
      </trkpt>
      <trkpt lat="45.59526" lon="13.8377">
        <ele>99</ele>
        <time>2016-07-11T14:17:58Z</time>
      </trkpt>
      <trkpt lat="45.59515" lon="13.83753">
        <ele>98</ele>
        <time>2016-07-11T14:19:58Z</time>
      </trkpt>
      <trkpt lat="45.59501" lon="13.83734">
        <ele>99</ele>
        <time>2016-07-11T14:21:58Z</time>
      </trkpt>
      <trkpt lat="45.59477" lon="13.83711">
        <ele>103</ele>
        <time>2016-07-11T14:23:58Z</time>
      </trkpt>
      <trkpt lat="45.59444" lon="13.83673">
        <ele>107</ele>
        <time>2016-07-11T14:25:58Z</time>
      </trkpt>
      <trkpt lat="45.59428" lon="13.83651">
        <ele>109</ele>
        <time>2016-07-11T14:27:58Z</time>
      </trkpt>
      <trkpt lat="45.59419" lon="13.83636">
        <ele>109</ele>
        <time>2016-07-11T14:29:58Z</time>
      </trkpt>
      <trkpt lat="45.59411" lon="13.83622">
        <ele>110</ele>
        <time>2016-07-11T14:31:58Z</time>
      </trkpt>
      <trkpt lat="45.59407" lon="13.83613">
        <ele>110</ele>
        <time>2016-07-11T14:33:58Z</time>
      </trkpt>
      <trkpt lat="45.59405" lon="13.83609">
        <ele>110</ele>
        <time>2016-07-11T14:35:58Z</time>
      </trkpt>
      <trkpt lat="45.59404" lon="13.83604">
        <ele>110</ele>
        <time>2016-07-11T14:37:58Z</time>
      </trkpt>
      <trkpt lat="45.59403" lon="13.83596">
        <ele>109</ele>
        <time>2016-07-11T14:39:58Z</time>
      </trkpt>
      <trkpt lat="45.59401" lon="13.83572">
        <ele>109</ele>
        <time>2016-07-11T14:41:58Z</time>
      </trkpt>
      <trkpt lat="45.59398" lon="13.83533">
        <ele>111</ele>
        <time>2016-07-11T14:43:58Z</time>
      </trkpt>
      <trkpt lat="45.59396" lon="13.83495">
        <ele>112</ele>
        <time>2016-07-11T14:45:58Z</time>
      </trkpt>
      <trkpt lat="45.59395" lon="13.83474">
        <ele>113</ele>
        <time>2016-07-11T14:47:58Z</time>
      </trkpt>
      <trkpt lat="45.59396" lon="13.83449">
        <ele>114</ele>
        <time>2016-07-11T14:49:58Z</time>
      </trkpt>
      <trkpt lat="45.59399" lon="13.83428">
        <ele>114</ele>
        <time>2016-07-11T14:51:58Z</time>
      </trkpt>
      <trkpt lat="45.59408" lon="13.83401">
        <ele>113</ele>
        <time>2016-07-11T14:53:58Z</time>
      </trkpt>
      <trkpt lat="45.59416" lon="13.83376">
        <ele>113</ele>
        <time>2016-07-11T14:55:58Z</time>
      </trkpt>
      <trkpt lat="45.59424" lon="13.83357">
        <ele>112</ele>
        <time>2016-07-11T14:57:58Z</time>
      </trkpt>
      <trkpt lat="45.59426" lon="13.83352">
        <ele>112</ele>
        <time>2016-07-11T14:59:58Z</time>
      </trkpt>
      <trkpt lat="45.59427" lon="13.83346">
        <ele>112</ele>
        <time>2016-07-11T15:01:58Z</time>
      </trkpt>
      <trkpt lat="45.59427" lon="13.83342">
        <ele>113</ele>
        <time>2016-07-11T15:03:58Z</time>
      </trkpt>
      <trkpt lat="45.59427" lon="13.83338">
        <ele>113</ele>
        <time>2016-07-11T15:05:58Z</time>
      </trkpt>
      <trkpt lat="45.59426" lon="13.83335">
        <ele>114</ele>
        <time>2016-07-11T15:07:58Z</time>
      </trkpt>
      <trkpt lat="45.59425" lon="13.83331">
        <ele>114</ele>
        <time>2016-07-11T15:09:58Z</time>
      </trkpt>
      <trkpt lat="45.59424" lon="13.83327">
        <ele>114</ele>
        <time>2016-07-11T15:11:58Z</time>
      </trkpt>
      <trkpt lat="45.59422" lon="13.83324">
        <ele>115</ele>
        <time>2016-07-11T15:13:58Z</time>
      </trkpt>
      <trkpt lat="45.5942" lon="13.83322">
        <ele>116</ele>
        <time>2016-07-11T15:15:58Z</time>
      </trkpt>
      <trkpt lat="45.59417" lon="13.8332">
        <ele>116</ele>
        <time>2016-07-11T15:17:58Z</time>
      </trkpt>
      <trkpt lat="45.59415" lon="13.83319">
        <ele>117</ele>
        <time>2016-07-11T15:19:58Z</time>
      </trkpt>
      <trkpt lat="45.59412" lon="13.83318">
        <ele>118</ele>
        <time>2016-07-11T15:21:58Z</time>
      </trkpt>
      <trkpt lat="45.59409" lon="13.83318">
        <ele>118</ele>
        <time>2016-07-11T15:23:58Z</time>
      </trkpt>
      <trkpt lat="45.59406" lon="13.83318">
        <ele>119</ele>
        <time>2016-07-11T15:25:58Z</time>
      </trkpt>
      <trkpt lat="45.59403" lon="13.83319">
        <ele>119</ele>
        <time>2016-07-11T15:27:58Z</time>
      </trkpt>
      <trkpt lat="45.59401" lon="13.83321">
        <ele>120</ele>
        <time>2016-07-11T15:29:58Z</time>
      </trkpt>
      <trkpt lat="45.59399" lon="13.83322">
        <ele>120</ele>
        <time>2016-07-11T15:31:58Z</time>
      </trkpt>
      <trkpt lat="45.59398" lon="13.83324">
        <ele>120</ele>
        <time>2016-07-11T15:33:58Z</time>
      </trkpt>
      <trkpt lat="45.59396" lon="13.83328">
        <ele>121</ele>
        <time>2016-07-11T15:35:58Z</time>
      </trkpt>
      <trkpt lat="45.59392" lon="13.83343">
        <ele>121</ele>
        <time>2016-07-11T15:37:58Z</time>
      </trkpt>
      <trkpt lat="45.59388" lon="13.83364">
        <ele>120</ele>
        <time>2016-07-11T15:39:58Z</time>
      </trkpt>
      <trkpt lat="45.59386" lon="13.83378">
        <ele>120</ele>
        <time>2016-07-11T15:41:58Z</time>
      </trkpt>
      <trkpt lat="45.59381" lon="13.83401">
        <ele>120</ele>
        <time>2016-07-11T15:43:58Z</time>
      </trkpt>
      <trkpt lat="45.59378" lon="13.8341">
        <ele>120</ele>
        <time>2016-07-11T15:45:58Z</time>
      </trkpt>
      <trkpt lat="45.59367" lon="13.83441">
        <ele>122</ele>
        <time>2016-07-11T15:47:58Z</time>
      </trkpt>
      <trkpt lat="45.59361" lon="13.83456">
        <ele>124</ele>
        <time>2016-07-11T15:49:58Z</time>
      </trkpt>
      <trkpt lat="45.59354" lon="13.83479">
        <ele>125</ele>
        <time>2016-07-11T15:51:58Z</time>
      </trkpt>
      <trkpt lat="45.59351" lon="13.83488">
        <ele>126</ele>
        <time>2016-07-11T15:53:58Z</time>
      </trkpt>
      <trkpt lat="45.59348" lon="13.83501">
        <ele>127</ele>
        <time>2016-07-11T15:55:58Z</time>
      </trkpt>
      <trkpt lat="45.59346" lon="13.83516">
        <ele>127</ele>
        <time>2016-07-11T15:57:58Z</time>
      </trkpt>
      <trkpt lat="45.59343" lon="13.83547">
        <ele>127</ele>
        <time>2016-07-11T15:59:58Z</time>
      </trkpt>
      <trkpt lat="45.59342" lon="13.8357">
        <ele>127</ele>
        <time>2016-07-11T16:01:58Z</time>
      </trkpt>
      <trkpt lat="45.59341" lon="13.83606">
        <ele>129</ele>
        <time>2016-07-11T16:03:58Z</time>
      </trkpt>
      <trkpt lat="45.59339" lon="13.83619">
        <ele>130</ele>
        <time>2016-07-11T16:05:58Z</time>
      </trkpt>
      <trkpt lat="45.59337" lon="13.83628">
        <ele>131</ele>
        <time>2016-07-11T16:07:58Z</time>
      </trkpt>
      <trkpt lat="45.59335" lon="13.83633">
        <ele>131</ele>
        <time>2016-07-11T16:09:58Z</time>
      </trkpt>
      <trkpt lat="45.59332" lon="13.83641">
        <ele>132</ele>
        <time>2016-07-11T16:11:58Z</time>
      </trkpt>
      <trkpt lat="45.59324" lon="13.83651">
        <ele>133</ele>
        <time>2016-07-11T16:13:58Z</time>
      </trkpt>
      <trkpt lat="45.5932" lon="13.83655">
        <ele>133</ele>
        <time>2016-07-11T16:15:58Z</time>
      </trkpt>
      <trkpt lat="45.59316" lon="13.83658">
        <ele>133</ele>
        <time>2016-07-11T16:17:58Z</time>
      </trkpt>
      <trkpt lat="45.59311" lon="13.83661">
        <ele>134</ele>
        <time>2016-07-11T16:19:58Z</time>
      </trkpt>
      <trkpt lat="45.59305" lon="13.83663">
        <ele>134</ele>
        <time>2016-07-11T16:21:58Z</time>
      </trkpt>
      <trkpt lat="45.59284" lon="13.83666">
        <ele>135</ele>
        <time>2016-07-11T16:23:58Z</time>
      </trkpt>
      <trkpt lat="45.59277" lon="13.83672">
        <ele>135</ele>
        <time>2016-07-11T16:25:58Z</time>
      </trkpt>
      <trkpt lat="45.59277" lon="13.83672">
        <ele>135</ele>
        <time>2016-07-11T16:27:58Z</time>
      </trkpt>
      <trkpt lat="45.59288" lon="13.83726">
        <ele>139</ele>
        <time>2016-07-11T16:29:58Z</time>
      </trkpt>
      <trkpt lat="45.59294" lon="13.83769">
        <ele>143</ele>
        <time>2016-07-11T16:31:58Z</time>
      </trkpt>
      <trkpt lat="45.59296" lon="13.83791">
        <ele>145</ele>
        <time>2016-07-11T16:33:58Z</time>
      </trkpt>
      <trkpt lat="45.59296" lon="13.83806">
        <ele>146</ele>
        <time>2016-07-11T16:35:58Z</time>
      </trkpt>
      <trkpt lat="45.59296" lon="13.83821">
        <ele>148</ele>
        <time>2016-07-11T16:37:58Z</time>
      </trkpt>
      <trkpt lat="45.59293" lon="13.83845">
        <ele>150</ele>
        <time>2016-07-11T16:39:58Z</time>
      </trkpt>
      <trkpt lat="45.59292" lon="13.83852">
        <ele>151</ele>
        <time>2016-07-11T16:41:58Z</time>
      </trkpt>
      <trkpt lat="45.5929" lon="13.83873">
        <ele>153</ele>
        <time>2016-07-11T16:43:58Z</time>
      </trkpt>
      <trkpt lat="45.59288" lon="13.8389">
        <ele>155</ele>
        <time>2016-07-11T16:45:58Z</time>
      </trkpt>
      <trkpt lat="45.59286" lon="13.83921">
        <ele>158</ele>
        <time>2016-07-11T16:47:58Z</time>
      </trkpt>
      <trkpt lat="45.59286" lon="13.8395">
        <ele>160</ele>
        <time>2016-07-11T16:49:58Z</time>
      </trkpt>
      <trkpt lat="45.59285" lon="13.83983">
        <ele>162</ele>
        <time>2016-07-11T16:51:58Z</time>
      </trkpt>
      <trkpt lat="45.59283" lon="13.84011">
        <ele>163</ele>
        <time>2016-07-11T16:53:58Z</time>
      </trkpt>
      <trkpt lat="45.59281" lon="13.84031">
        <ele>164</ele>
        <time>2016-07-11T16:55:58Z</time>
      </trkpt>
      <trkpt lat="45.59276" lon="13.84056">
        <ele>165</ele>
        <time>2016-07-11T16:57:58Z</time>
      </trkpt>
      <trkpt lat="45.59267" lon="13.84087">
        <ele>167</ele>
        <time>2016-07-11T16:59:58Z</time>
      </trkpt>
      <trkpt lat="45.59255" lon="13.84126">
        <ele>169</ele>
        <time>2016-07-11T17:01:58Z</time>
      </trkpt>
      <trkpt lat="45.59242" lon="13.84167">
        <ele>172</ele>
        <time>2016-07-11T17:03:58Z</time>
      </trkpt>
      <trkpt lat="45.59233" lon="13.84192">
        <ele>173</ele>
        <time>2016-07-11T17:05:58Z</time>
      </trkpt>
      <trkpt lat="45.59232" lon="13.84195">
        <ele>173</ele>
        <time>2016-07-11T17:07:58Z</time>
      </trkpt>
      <trkpt lat="45.59227" lon="13.84207">
        <ele>173</ele>
        <time>2016-07-11T17:09:58Z</time>
      </trkpt>
      <trkpt lat="45.59223" lon="13.84214">
        <ele>174</ele>
        <time>2016-07-11T17:11:58Z</time>
      </trkpt>
      <trkpt lat="45.59217" lon="13.84219">
        <ele>175</ele>
        <time>2016-07-11T17:13:58Z</time>
      </trkpt>
      <trkpt lat="45.5921" lon="13.84222">
        <ele>176</ele>
        <time>2016-07-11T17:15:58Z</time>
      </trkpt>
      <trkpt lat="45.59188" lon="13.84221">
        <ele>180</ele>
        <time>2016-07-11T17:17:58Z</time>
      </trkpt>
      <trkpt lat="45.59172" lon="13.84219">
        <ele>182</ele>
        <time>2016-07-11T17:19:58Z</time>
      </trkpt>
      <trkpt lat="45.59165" lon="13.8422">
        <ele>183</ele>
        <time>2016-07-11T17:21:58Z</time>
      </trkpt>
      <trkpt lat="45.59161" lon="13.84222">
        <ele>184</ele>
        <time>2016-07-11T17:23:58Z</time>
      </trkpt>
      <trkpt lat="45.59157" lon="13.84226">
        <ele>184</ele>
        <time>2016-07-11T17:25:58Z</time>
      </trkpt>
      <trkpt lat="45.59151" lon="13.84231">
        <ele>185</ele>
        <time>2016-07-11T17:27:58Z</time>
      </trkpt>
      <trkpt lat="45.59146" lon="13.84242">
        <ele>186</ele>
        <time>2016-07-11T17:29:58Z</time>
      </trkpt>
      <trkpt lat="45.5914" lon="13.84262">
        <ele>189</ele>
        <time>2016-07-11T17:31:58Z</time>
      </trkpt>
      <trkpt lat="45.59124" lon="13.84318">
        <ele>194</ele>
        <time>2016-07-11T17:33:58Z</time>
      </trkpt>
      <trkpt lat="45.5911" lon="13.84352">
        <ele>199</ele>
        <time>2016-07-11T17:35:58Z</time>
      </trkpt>
      <trkpt lat="45.59089" lon="13.8441">
        <ele>207</ele>
        <time>2016-07-11T17:37:58Z</time>
      </trkpt>
      <trkpt lat="45.59086" lon="13.84426">
        <ele>210</ele>
        <time>2016-07-11T17:39:58Z</time>
      </trkpt>
      <trkpt lat="45.59085" lon="13.84441">
        <ele>212</ele>
        <time>2016-07-11T17:41:58Z</time>
      </trkpt>
      <trkpt lat="45.59086" lon="13.84455">
        <ele>214</ele>
        <time>2016-07-11T17:43:58Z</time>
      </trkpt>
      <trkpt lat="45.59084" lon="13.84474">
        <ele>217</ele>
        <time>2016-07-11T17:45:58Z</time>
      </trkpt>
      <trkpt lat="45.59082" lon="13.84481">
        <ele>218</ele>
        <time>2016-07-11T17:47:58Z</time>
      </trkpt>
      <trkpt lat="45.59078" lon="13.84492">
        <ele>219</ele>
        <time>2016-07-11T17:49:58Z</time>
      </trkpt>
      <trkpt lat="45.59069" lon="13.84506">
        <ele>219</ele>
        <time>2016-07-11T17:51:58Z</time>
      </trkpt>
      <trkpt lat="45.59063" lon="13.84519">
        <ele>219</ele>
        <time>2016-07-11T17:53:58Z</time>
      </trkpt>
      <trkpt lat="45.5906" lon="13.84529">
        <ele>219</ele>
        <time>2016-07-11T17:55:58Z</time>
      </trkpt>
      <trkpt lat="45.59058" lon="13.84539">
        <ele>220</ele>
        <time>2016-07-11T17:57:58Z</time>
      </trkpt>
      <trkpt lat="45.59056" lon="13.84553">
        <ele>221</ele>
        <time>2016-07-11T17:59:58Z</time>
      </trkpt>
      <trkpt lat="45.59052" lon="13.84607">
        <ele>224</ele>
        <time>2016-07-11T18:01:58Z</time>
      </trkpt>
      <trkpt lat="45.5905" lon="13.84622">
        <ele>225</ele>
        <time>2016-07-11T18:03:58Z</time>
      </trkpt>
      <trkpt lat="45.59047" lon="13.84633">
        <ele>225</ele>
        <time>2016-07-11T18:05:58Z</time>
      </trkpt>
      <trkpt lat="45.59041" lon="13.84657">
        <ele>226</ele>
        <time>2016-07-11T18:07:58Z</time>
      </trkpt>
      <trkpt lat="45.59027" lon="13.84698">
        <ele>231</ele>
        <time>2016-07-11T18:09:58Z</time>
      </trkpt>
      <trkpt lat="45.59018" lon="13.84726">
        <ele>235</ele>
        <time>2016-07-11T18:11:58Z</time>
      </trkpt>
      <trkpt lat="45.59011" lon="13.84753">
        <ele>239</ele>
        <time>2016-07-11T18:13:58Z</time>
      </trkpt>
      <trkpt lat="45.59007" lon="13.84771">
        <ele>241</ele>
        <time>2016-07-11T18:15:58Z</time>
      </trkpt>
      <trkpt lat="45.59004" lon="13.84781">
        <ele>242</ele>
        <time>2016-07-11T18:17:58Z</time>
      </trkpt>
      <trkpt lat="45.59" lon="13.84792">
        <ele>244</ele>
        <time>2016-07-11T18:19:58Z</time>
      </trkpt>
      <trkpt lat="45.58992" lon="13.84806">
        <ele>244</ele>
        <time>2016-07-11T18:21:58Z</time>
      </trkpt>
      <trkpt lat="45.58978" lon="13.84823">
        <ele>245</ele>
        <time>2016-07-11T18:23:58Z</time>
      </trkpt>
      <trkpt lat="45.58969" lon="13.84834">
        <ele>246</ele>
        <time>2016-07-11T18:25:58Z</time>
      </trkpt>
      <trkpt lat="45.58967" lon="13.84838">
        <ele>246</ele>
        <time>2016-07-11T18:27:58Z</time>
      </trkpt>
      <trkpt lat="45.58967" lon="13.84838">
        <ele>246</ele>
        <time>2016-07-11T18:29:58Z</time>
      </trkpt>
      <trkpt lat="45.5897" lon="13.84847">
        <ele>248</ele>
        <time>2016-07-11T18:31:58Z</time>
      </trkpt>
      <trkpt lat="45.5897" lon="13.84847">
        <ele>248</ele>
        <time>2016-07-11T18:33:58Z</time>
      </trkpt>
      <trkpt lat="45.58966" lon="13.84851">
        <ele>248</ele>
        <time>2016-07-11T18:35:58Z</time>
      </trkpt>
      <trkpt lat="45.58962" lon="13.84859">
        <ele>249</ele>
        <time>2016-07-11T18:37:58Z</time>
      </trkpt>
      <trkpt lat="45.5896" lon="13.84868">
        <ele>251</ele>
        <time>2016-07-11T18:39:58Z</time>
      </trkpt>
      <trkpt lat="45.58959" lon="13.84874">
        <ele>252</ele>
        <time>2016-07-11T18:41:58Z</time>
      </trkpt>
      <trkpt lat="45.58959" lon="13.84884">
        <ele>253</ele>
        <time>2016-07-11T18:43:58Z</time>
      </trkpt>
      <trkpt lat="45.58959" lon="13.84889">
        <ele>254</ele>
        <time>2016-07-11T18:45:58Z</time>
      </trkpt>
      <trkpt lat="45.5896" lon="13.84895">
        <ele>255</ele>
        <time>2016-07-11T18:47:58Z</time>
      </trkpt>
      <trkpt lat="45.58964" lon="13.84902">
        <ele>256</ele>
        <time>2016-07-11T18:49:58Z</time>
      </trkpt>
      <trkpt lat="45.58967" lon="13.84908">
        <ele>257</ele>
        <time>2016-07-11T18:51:58Z</time>
      </trkpt>
      <trkpt lat="45.58981" lon="13.84928">
        <ele>259</ele>
        <time>2016-07-11T18:53:58Z</time>
      </trkpt>
      <trkpt lat="45.58993" lon="13.84945">
        <ele>261</ele>
        <time>2016-07-11T18:55:58Z</time>
      </trkpt>
      <trkpt lat="45.58996" lon="13.84949">
        <ele>262</ele>
        <time>2016-07-11T18:57:58Z</time>
      </trkpt>
      <trkpt lat="45.58997" lon="13.84953">
        <ele>262</ele>
        <time>2016-07-11T18:59:58Z</time>
      </trkpt>
      <trkpt lat="45.58998" lon="13.84959">
        <ele>263</ele>
        <time>2016-07-11T19:01:58Z</time>
      </trkpt>
      <trkpt lat="45.58999" lon="13.84964">
        <ele>263</ele>
        <time>2016-07-11T19:03:58Z</time>
      </trkpt>
      <trkpt lat="45.59" lon="13.84978">
        <ele>265</ele>
        <time>2016-07-11T19:05:58Z</time>
      </trkpt>
      <trkpt lat="45.59" lon="13.85027">
        <ele>268</ele>
        <time>2016-07-11T19:07:58Z</time>
      </trkpt>
      <trkpt lat="45.59001" lon="13.85062">
        <ele>267</ele>
        <time>2016-07-11T19:09:58Z</time>
      </trkpt>
      <trkpt lat="45.59001" lon="13.85097">
        <ele>269</ele>
        <time>2016-07-11T19:11:58Z</time>
      </trkpt>
      <trkpt lat="45.59002" lon="13.85107">
        <ele>271</ele>
        <time>2016-07-11T19:13:58Z</time>
      </trkpt>
      <trkpt lat="45.59004" lon="13.85117">
        <ele>273</ele>
        <time>2016-07-11T19:15:58Z</time>
      </trkpt>
      <trkpt lat="45.59005" lon="13.85123">
        <ele>274</ele>
        <time>2016-07-11T19:17:58Z</time>
      </trkpt>
      <trkpt lat="45.59007" lon="13.85128">
        <ele>274</ele>
        <time>2016-07-11T19:19:58Z</time>
      </trkpt>
      <trkpt lat="45.59017" lon="13.85165">
        <ele>278</ele>
        <time>2016-07-11T19:21:58Z</time>
      </trkpt>
      <trkpt lat="45.59021" lon="13.85178">
        <ele>280</ele>
        <time>2016-07-11T19:23:58Z</time>
      </trkpt>
      <trkpt lat="45.59024" lon="13.85186">
        <ele>281</ele>
        <time>2016-07-11T19:25:58Z</time>
      </trkpt>
      <trkpt lat="45.5903" lon="13.85199">
        <ele>283</ele>
        <time>2016-07-11T19:27:58Z</time>
      </trkpt>
      <trkpt lat="45.59036" lon="13.85206">
        <ele>283</ele>
        <time>2016-07-11T19:29:58Z</time>
      </trkpt>
      <trkpt lat="45.59041" lon="13.85213">
        <ele>283</ele>
        <time>2016-07-11T19:31:58Z</time>
      </trkpt>
      <trkpt lat="45.59077" lon="13.85253">
        <ele>284</ele>
        <time>2016-07-11T19:33:58Z</time>
      </trkpt>
      <trkpt lat="45.59077" lon="13.85253">
        <ele>284</ele>
        <time>2016-07-11T19:35:58Z</time>
      </trkpt>
      <trkpt lat="45.5909" lon="13.85289">
        <ele>287</ele>
        <time>2016-07-11T19:37:58Z</time>
      </trkpt>
      <trkpt lat="45.591" lon="13.85321">
        <ele>290</ele>
        <time>2016-07-11T19:39:58Z</time>
      </trkpt>
      <trkpt lat="45.59104" lon="13.85334">
        <ele>292</ele>
        <time>2016-07-11T19:41:58Z</time>
      </trkpt>
      <trkpt lat="45.59107" lon="13.85343">
        <ele>292</ele>
        <time>2016-07-11T19:43:58Z</time>
      </trkpt>
      <trkpt lat="45.59109" lon="13.8535">
        <ele>292</ele>
        <time>2016-07-11T19:45:58Z</time>
      </trkpt>
      <trkpt lat="45.5911" lon="13.85353">
        <ele>293</ele>
        <time>2016-07-11T19:47:58Z</time>
      </trkpt>
      <trkpt lat="45.59111" lon="13.85355">
        <ele>293</ele>
        <time>2016-07-11T19:49:58Z</time>
      </trkpt>
      <trkpt lat="45.59112" lon="13.85357">
        <ele>293</ele>
        <time>2016-07-11T19:51:58Z</time>
      </trkpt>
      <trkpt lat="45.59113" lon="13.85359">
        <ele>293</ele>
        <time>2016-07-11T19:53:58Z</time>
      </trkpt>
      <trkpt lat="45.59114" lon="13.85361">
        <ele>293</ele>
        <time>2016-07-11T19:55:58Z</time>
      </trkpt>
      <trkpt lat="45.59115" lon="13.85363">
        <ele>293</ele>
        <time>2016-07-11T19:57:58Z</time>
      </trkpt>
      <trkpt lat="45.59117" lon="13.85365">
        <ele>292</ele>
        <time>2016-07-11T19:59:58Z</time>
      </trkpt>
      <trkpt lat="45.59123" lon="13.85373">
        <ele>292</ele>
        <time>2016-07-11T20:01:58Z</time>
      </trkpt>
      <trkpt lat="45.59142" lon="13.85398">
        <ele>291</ele>
        <time>2016-07-11T20:03:58Z</time>
      </trkpt>
      <trkpt lat="45.59166" lon="13.85428">
        <ele>290</ele>
        <time>2016-07-11T20:05:58Z</time>
      </trkpt>
      <trkpt lat="45.59169" lon="13.85433">
        <ele>289</ele>
        <time>2016-07-11T20:07:58Z</time>
      </trkpt>
      <trkpt lat="45.59172" lon="13.85438">
        <ele>289</ele>
        <time>2016-07-11T20:09:58Z</time>
      </trkpt>
      <trkpt lat="45.59173" lon="13.85441">
        <ele>289</ele>
        <time>2016-07-11T20:11:58Z</time>
      </trkpt>
      <trkpt lat="45.59175" lon="13.85445">
        <ele>288</ele>
        <time>2016-07-11T20:13:58Z</time>
      </trkpt>
      <trkpt lat="45.59177" lon="13.85449">
        <ele>288</ele>
        <time>2016-07-11T20:15:58Z</time>
      </trkpt>
      <trkpt lat="45.59178" lon="13.85453">
        <ele>288</ele>
        <time>2016-07-11T20:17:58Z</time>
      </trkpt>
      <trkpt lat="45.5918" lon="13.85457">
        <ele>288</ele>
        <time>2016-07-11T20:19:58Z</time>
      </trkpt>
      <trkpt lat="45.59181" lon="13.85461">
        <ele>288</ele>
        <time>2016-07-11T20:21:58Z</time>
      </trkpt>
      <trkpt lat="45.59182" lon="13.85465">
        <ele>288</ele>
        <time>2016-07-11T20:23:58Z</time>
      </trkpt>
      <trkpt lat="45.59184" lon="13.85481">
        <ele>288</ele>
        <time>2016-07-11T20:25:58Z</time>
      </trkpt>
      <trkpt lat="45.59186" lon="13.85487">
        <ele>288</ele>
        <time>2016-07-11T20:27:58Z</time>
      </trkpt>
      <trkpt lat="45.59187" lon="13.85496">
        <ele>289</ele>
        <time>2016-07-11T20:29:58Z</time>
      </trkpt>
      <trkpt lat="45.59188" lon="13.85505">
        <ele>289</ele>
        <time>2016-07-11T20:31:58Z</time>
      </trkpt>
      <trkpt lat="45.59188" lon="13.85511">
        <ele>289</ele>
        <time>2016-07-11T20:33:58Z</time>
      </trkpt>
      <trkpt lat="45.59188" lon="13.85521">
        <ele>289</ele>
        <time>2016-07-11T20:35:58Z</time>
      </trkpt>
      <trkpt lat="45.59187" lon="13.85529">
        <ele>290</ele>
        <time>2016-07-11T20:37:58Z</time>
      </trkpt>
      <trkpt lat="45.59185" lon="13.85551">
        <ele>292</ele>
        <time>2016-07-11T20:39:58Z</time>
      </trkpt>
      <trkpt lat="45.59184" lon="13.85564">
        <ele>293</ele>
        <time>2016-07-11T20:41:58Z</time>
      </trkpt>
      <trkpt lat="45.59181" lon="13.85601">
        <ele>296</ele>
        <time>2016-07-11T20:43:58Z</time>
      </trkpt>
      <trkpt lat="45.5918" lon="13.85605">
        <ele>296</ele>
        <time>2016-07-11T20:45:58Z</time>
      </trkpt>
      <trkpt lat="45.5918" lon="13.85607">
        <ele>296</ele>
        <time>2016-07-11T20:47:58Z</time>
      </trkpt>
      <trkpt lat="45.59179" lon="13.85609">
        <ele>297</ele>
        <time>2016-07-11T20:49:58Z</time>
      </trkpt>
      <trkpt lat="45.59178" lon="13.85611">
        <ele>297</ele>
        <time>2016-07-11T20:51:58Z</time>
      </trkpt>
      <trkpt lat="45.59177" lon="13.85613">
        <ele>298</ele>
        <time>2016-07-11T20:53:58Z</time>
      </trkpt>
      <trkpt lat="45.59176" lon="13.85614">
        <ele>298</ele>
        <time>2016-07-11T20:55:58Z</time>
      </trkpt>
      <trkpt lat="45.59175" lon="13.85615">
        <ele>299</ele>
        <time>2016-07-11T20:57:58Z</time>
      </trkpt>
      <trkpt lat="45.59174" lon="13.85615">
        <ele>299</ele>
        <time>2016-07-11T20:59:58Z</time>
      </trkpt>
      <trkpt lat="45.59172" lon="13.85616">
        <ele>300</ele>
        <time>2016-07-11T21:01:58Z</time>
      </trkpt>
      <trkpt lat="45.5917" lon="13.85616">
        <ele>301</ele>
        <time>2016-07-11T21:03:58Z</time>
      </trkpt>
      <trkpt lat="45.59169" lon="13.85616">
        <ele>301</ele>
        <time>2016-07-11T21:05:58Z</time>
      </trkpt>
      <trkpt lat="45.59168" lon="13.85615">
        <ele>301</ele>
        <time>2016-07-11T21:07:58Z</time>
      </trkpt>
      <trkpt lat="45.59167" lon="13.85615">
        <ele>302</ele>
        <time>2016-07-11T21:09:58Z</time>
      </trkpt>
      <trkpt lat="45.59166" lon="13.85615">
        <ele>302</ele>
        <time>2016-07-11T21:11:58Z</time>
      </trkpt>
      <trkpt lat="45.59165" lon="13.85614">
        <ele>302</ele>
        <time>2016-07-11T21:13:58Z</time>
      </trkpt>
      <trkpt lat="45.59164" lon="13.85613">
        <ele>302</ele>
        <time>2016-07-11T21:15:58Z</time>
      </trkpt>
      <trkpt lat="45.59163" lon="13.85612">
        <ele>303</ele>
        <time>2016-07-11T21:17:58Z</time>
      </trkpt>
      <trkpt lat="45.59163" lon="13.85611">
        <ele>302</ele>
        <time>2016-07-11T21:19:58Z</time>
      </trkpt>
      <trkpt lat="45.59162" lon="13.8561">
        <ele>303</ele>
        <time>2016-07-11T21:21:58Z</time>
      </trkpt>
      <trkpt lat="45.59162" lon="13.85609">
        <ele>303</ele>
        <time>2016-07-11T21:23:58Z</time>
      </trkpt>
      <trkpt lat="45.59161" lon="13.85607">
        <ele>303</ele>
        <time>2016-07-11T21:25:58Z</time>
      </trkpt>
      <trkpt lat="45.59161" lon="13.85606">
        <ele>303</ele>
        <time>2016-07-11T21:27:58Z</time>
      </trkpt>
      <trkpt lat="45.59161" lon="13.85605">
        <ele>303</ele>
        <time>2016-07-11T21:29:58Z</time>
      </trkpt>
      <trkpt lat="45.5916" lon="13.85603">
        <ele>303</ele>
        <time>2016-07-11T21:31:58Z</time>
      </trkpt>
      <trkpt lat="45.5916" lon="13.85602">
        <ele>303</ele>
        <time>2016-07-11T21:33:58Z</time>
      </trkpt>
      <trkpt lat="45.59161" lon="13.856">
        <ele>302</ele>
        <time>2016-07-11T21:35:58Z</time>
      </trkpt>
      <trkpt lat="45.59161" lon="13.85591">
        <ele>301</ele>
        <time>2016-07-11T21:37:58Z</time>
      </trkpt>
      <trkpt lat="45.59163" lon="13.8557">
        <ele>299</ele>
        <time>2016-07-11T21:39:58Z</time>
      </trkpt>
      <trkpt lat="45.59164" lon="13.85563">
        <ele>299</ele>
        <time>2016-07-11T21:41:58Z</time>
      </trkpt>
      <trkpt lat="45.59163" lon="13.85557">
        <ele>299</ele>
        <time>2016-07-11T21:43:58Z</time>
      </trkpt>
      <trkpt lat="45.5916" lon="13.85534">
        <ele>298</ele>
        <time>2016-07-11T21:45:58Z</time>
      </trkpt>
      <trkpt lat="45.59159" lon="13.85526">
        <ele>298</ele>
        <time>2016-07-11T21:47:58Z</time>
      </trkpt>
      <trkpt lat="45.59158" lon="13.8552">
        <ele>298</ele>
        <time>2016-07-11T21:49:58Z</time>
      </trkpt>
      <trkpt lat="45.59156" lon="13.85511">
        <ele>298</ele>
        <time>2016-07-11T21:51:58Z</time>
      </trkpt>
      <trkpt lat="45.59154" lon="13.85507">
        <ele>298</ele>
        <time>2016-07-11T21:53:58Z</time>
      </trkpt>
      <trkpt lat="45.59154" lon="13.85504">
        <ele>298</ele>
        <time>2016-07-11T21:55:58Z</time>
      </trkpt>
      <trkpt lat="45.59153" lon="13.85502">
        <ele>298</ele>
        <time>2016-07-11T21:57:58Z</time>
      </trkpt>
      <trkpt lat="45.59152" lon="13.855">
        <ele>298</ele>
        <time>2016-07-11T21:59:58Z</time>
      </trkpt>
      <trkpt lat="45.59151" lon="13.85498">
        <ele>298</ele>
        <time>2016-07-11T22:01:58Z</time>
      </trkpt>
      <trkpt lat="45.5915" lon="13.85496">
        <ele>298</ele>
        <time>2016-07-11T22:03:58Z</time>
      </trkpt>
      <trkpt lat="45.59149" lon="13.85494">
        <ele>299</ele>
        <time>2016-07-11T22:05:58Z</time>
      </trkpt>
      <trkpt lat="45.59147" lon="13.8549">
        <ele>299</ele>
        <time>2016-07-11T22:07:58Z</time>
      </trkpt>
      <trkpt lat="45.59144" lon="13.85487">
        <ele>299</ele>
        <time>2016-07-11T22:09:58Z</time>
      </trkpt>
      <trkpt lat="45.59136" lon="13.8548">
        <ele>300</ele>
        <time>2016-07-11T22:11:58Z</time>
      </trkpt>
      <trkpt lat="45.59099" lon="13.85446">
        <ele>305</ele>
        <time>2016-07-11T22:13:58Z</time>
      </trkpt>
      <trkpt lat="45.59064" lon="13.8541">
        <ele>309</ele>
        <time>2016-07-11T22:15:58Z</time>
      </trkpt>
      <trkpt lat="45.59044" lon="13.85387">
        <ele>312</ele>
        <time>2016-07-11T22:17:58Z</time>
      </trkpt>
      <trkpt lat="45.59029" lon="13.85367">
        <ele>314</ele>
        <time>2016-07-11T22:19:58Z</time>
      </trkpt>
      <trkpt lat="45.58997" lon="13.85329">
        <ele>319</ele>
        <time>2016-07-11T22:21:58Z</time>
      </trkpt>
      <trkpt lat="45.58959" lon="13.85283">
        <ele>320</ele>
        <time>2016-07-11T22:23:58Z</time>
      </trkpt>
      <trkpt lat="45.58944" lon="13.85266">
        <ele>320</ele>
        <time>2016-07-11T22:25:58Z</time>
      </trkpt>
      <trkpt lat="45.58933" lon="13.85257">
        <ele>321</ele>
        <time>2016-07-11T22:27:58Z</time>
      </trkpt>
      <trkpt lat="45.58923" lon="13.8525">
        <ele>322</ele>
        <time>2016-07-11T22:29:58Z</time>
      </trkpt>
      <trkpt lat="45.58913" lon="13.85244">
        <ele>322</ele>
        <time>2016-07-11T22:31:58Z</time>
      </trkpt>
      <trkpt lat="45.58901" lon="13.85239">
        <ele>322</ele>
        <time>2016-07-11T22:33:58Z</time>
      </trkpt>
      <trkpt lat="45.58889" lon="13.85236">
        <ele>323</ele>
        <time>2016-07-11T22:35:58Z</time>
      </trkpt>
      <trkpt lat="45.58878" lon="13.85234">
        <ele>324</ele>
        <time>2016-07-11T22:37:58Z</time>
      </trkpt>
      <trkpt lat="45.5887" lon="13.85234">
        <ele>325</ele>
        <time>2016-07-11T22:39:58Z</time>
      </trkpt>
      <trkpt lat="45.58862" lon="13.85235">
        <ele>326</ele>
        <time>2016-07-11T22:41:58Z</time>
      </trkpt>
      <trkpt lat="45.58854" lon="13.85236">
        <ele>327</ele>
        <time>2016-07-11T22:43:58Z</time>
      </trkpt>
      <trkpt lat="45.58843" lon="13.85238">
        <ele>329</ele>
        <time>2016-07-11T22:45:58Z</time>
      </trkpt>
      <trkpt lat="45.58838" lon="13.8524">
        <ele>331</ele>
        <time>2016-07-11T22:47:58Z</time>
      </trkpt>
      <trkpt lat="45.58832" lon="13.85243">
        <ele>332</ele>
        <time>2016-07-11T22:49:58Z</time>
      </trkpt>
      <trkpt lat="45.58822" lon="13.85249">
        <ele>331</ele>
        <time>2016-07-11T22:51:58Z</time>
      </trkpt>
      <trkpt lat="45.58815" lon="13.85254">
        <ele>331</ele>
        <time>2016-07-11T22:53:58Z</time>
      </trkpt>
      <trkpt lat="45.58807" lon="13.8526">
        <ele>330</ele>
        <time>2016-07-11T22:55:58Z</time>
      </trkpt>
      <trkpt lat="45.58799" lon="13.85266">
        <ele>329</ele>
        <time>2016-07-11T22:57:58Z</time>
      </trkpt>
      <trkpt lat="45.58794" lon="13.85271">
        <ele>329</ele>
        <time>2016-07-11T22:59:58Z</time>
      </trkpt>
      <trkpt lat="45.58788" lon="13.85276">
        <ele>328</ele>
        <time>2016-07-11T23:01:58Z</time>
      </trkpt>
      <trkpt lat="45.58784" lon="13.85282">
        <ele>328</ele>
        <time>2016-07-11T23:03:58Z</time>
      </trkpt>
      <trkpt lat="45.58779" lon="13.85289">
        <ele>328</ele>
        <time>2016-07-11T23:05:58Z</time>
      </trkpt>
      <trkpt lat="45.58775" lon="13.85296">
        <ele>328</ele>
        <time>2016-07-11T23:07:58Z</time>
      </trkpt>
      <trkpt lat="45.58773" lon="13.85301">
        <ele>328</ele>
        <time>2016-07-11T23:09:58Z</time>
      </trkpt>
      <trkpt lat="45.58771" lon="13.85307">
        <ele>329</ele>
        <time>2016-07-11T23:11:58Z</time>
      </trkpt>
      <trkpt lat="45.58769" lon="13.85312">
        <ele>329</ele>
        <time>2016-07-11T23:13:58Z</time>
      </trkpt>
      <trkpt lat="45.58767" lon="13.85317">
        <ele>329</ele>
        <time>2016-07-11T23:15:58Z</time>
      </trkpt>
      <trkpt lat="45.58766" lon="13.85322">
        <ele>330</ele>
        <time>2016-07-11T23:17:58Z</time>
      </trkpt>
      <trkpt lat="45.58765" lon="13.8533">
        <ele>331</ele>
        <time>2016-07-11T23:19:58Z</time>
      </trkpt>
      <trkpt lat="45.58765" lon="13.85338">
        <ele>331</ele>
        <time>2016-07-11T23:21:58Z</time>
      </trkpt>
      <trkpt lat="45.58765" lon="13.85346">
        <ele>331</ele>
        <time>2016-07-11T23:23:58Z</time>
      </trkpt>
      <trkpt lat="45.58766" lon="13.85358">
        <ele>331</ele>
        <time>2016-07-11T23:25:58Z</time>
      </trkpt>
      <trkpt lat="45.58769" lon="13.85372">
        <ele>332</ele>
        <time>2016-07-11T23:27:58Z</time>
      </trkpt>
      <trkpt lat="45.5878" lon="13.85409">
        <ele>335</ele>
        <time>2016-07-11T23:29:58Z</time>
      </trkpt>
      <trkpt lat="45.58796" lon="13.85458">
        <ele>339</ele>
        <time>2016-07-11T23:31:58Z</time>
      </trkpt>
      <trkpt lat="45.58798" lon="13.85467">
        <ele>339</ele>
        <time>2016-07-11T23:33:58Z</time>
      </trkpt>
      <trkpt lat="45.58802" lon="13.8548">
        <ele>340</ele>
        <time>2016-07-11T23:35:58Z</time>
      </trkpt>
      <trkpt lat="45.58837" lon="13.85626">
        <ele>349</ele>
        <time>2016-07-11T23:37:58Z</time>
      </trkpt>
      <trkpt lat="45.5884" lon="13.85638">
        <ele>350</ele>
        <time>2016-07-11T23:39:58Z</time>
      </trkpt>
      <trkpt lat="45.58843" lon="13.85651">
        <ele>350</ele>
        <time>2016-07-11T23:41:58Z</time>
      </trkpt>
      <trkpt lat="45.58849" lon="13.8568">
        <ele>352</ele>
        <time>2016-07-11T23:43:58Z</time>
      </trkpt>
      <trkpt lat="45.58851" lon="13.85693">
        <ele>352</ele>
        <time>2016-07-11T23:45:58Z</time>
      </trkpt>
      <trkpt lat="45.58853" lon="13.85708">
        <ele>353</ele>
        <time>2016-07-11T23:47:58Z</time>
      </trkpt>
      <trkpt lat="45.58858" lon="13.8575">
        <ele>355</ele>
        <time>2016-07-11T23:49:58Z</time>
      </trkpt>
      <trkpt lat="45.58861" lon="13.85784">
        <ele>358</ele>
        <time>2016-07-11T23:51:58Z</time>
      </trkpt>
      <trkpt lat="45.58863" lon="13.85811">
        <ele>360</ele>
        <time>2016-07-11T23:53:58Z</time>
      </trkpt>
      <trkpt lat="45.58863" lon="13.85826">
        <ele>361</ele>
        <time>2016-07-11T23:55:58Z</time>
      </trkpt>
      <trkpt lat="45.58863" lon="13.85836">
        <ele>362</ele>
        <time>2016-07-11T23:57:58Z</time>
      </trkpt>
      <trkpt lat="45.58863" lon="13.8584">
        <ele>363</ele>
        <time>2016-07-11T23:59:58Z</time>
      </trkpt>
      <trkpt lat="45.58862" lon="13.85844">
        <ele>363</ele>
        <time>2016-07-12T00:01:58Z</time>
      </trkpt>
      <trkpt lat="45.58862" lon="13.85849">
        <ele>363</ele>
        <time>2016-07-12T00:03:58Z</time>
      </trkpt>
      <trkpt lat="45.58861" lon="13.85858">
        <ele>364</ele>
        <time>2016-07-12T00:05:58Z</time>
      </trkpt>
      <trkpt lat="45.58861" lon="13.85864">
        <ele>365</ele>
        <time>2016-07-12T00:07:58Z</time>
      </trkpt>
      <trkpt lat="45.5886" lon="13.85868">
        <ele>365</ele>
        <time>2016-07-12T00:09:58Z</time>
      </trkpt>
      <trkpt lat="45.5886" lon="13.85872">
        <ele>366</ele>
        <time>2016-07-12T00:11:58Z</time>
      </trkpt>
      <trkpt lat="45.58856" lon="13.85894">
        <ele>367</ele>
        <time>2016-07-12T00:13:58Z</time>
      </trkpt>
      <trkpt lat="45.58843" lon="13.85936">
        <ele>370</ele>
        <time>2016-07-12T00:15:58Z</time>
      </trkpt>
      <trkpt lat="45.5884" lon="13.85943">
        <ele>371</ele>
        <time>2016-07-12T00:17:58Z</time>
      </trkpt>
      <trkpt lat="45.58837" lon="13.85952">
        <ele>372</ele>
        <time>2016-07-12T00:19:58Z</time>
      </trkpt>
      <trkpt lat="45.58828" lon="13.85975">
        <ele>373</ele>
        <time>2016-07-12T00:21:58Z</time>
      </trkpt>
      <trkpt lat="45.5882" lon="13.85997">
        <ele>373</ele>
        <time>2016-07-12T00:23:58Z</time>
      </trkpt>
      <trkpt lat="45.58815" lon="13.86009">
        <ele>374</ele>
        <time>2016-07-12T00:25:58Z</time>
      </trkpt>
      <trkpt lat="45.58808" lon="13.86023">
        <ele>374</ele>
        <time>2016-07-12T00:27:58Z</time>
      </trkpt>
      <trkpt lat="45.58801" lon="13.86038">
        <ele>374</ele>
        <time>2016-07-12T00:29:58Z</time>
      </trkpt>
      <trkpt lat="45.58794" lon="13.86052">
        <ele>375</ele>
        <time>2016-07-12T00:31:58Z</time>
      </trkpt>
      <trkpt lat="45.58747" lon="13.86126">
        <ele>369</ele>
        <time>2016-07-12T00:33:58Z</time>
      </trkpt>
      <trkpt lat="45.58727" lon="13.86166">
        <ele>369</ele>
        <time>2016-07-12T00:35:58Z</time>
      </trkpt>
      <trkpt lat="45.58715" lon="13.86191">
        <ele>367</ele>
        <time>2016-07-12T00:37:58Z</time>
      </trkpt>
      <trkpt lat="45.58704" lon="13.86217">
        <ele>366</ele>
        <time>2016-07-12T00:39:58Z</time>
      </trkpt>
      <trkpt lat="45.58666" lon="13.863">
        <ele>362</ele>
        <time>2016-07-12T00:41:58Z</time>
      </trkpt>
      <trkpt lat="45.5863" lon="13.86385">
        <ele>358</ele>
        <time>2016-07-12T00:43:58Z</time>
      </trkpt>
      <trkpt lat="45.58623" lon="13.86402">
        <ele>357</ele>
        <time>2016-07-12T00:45:58Z</time>
      </trkpt>
      <trkpt lat="45.58618" lon="13.86417">
        <ele>356</ele>
        <time>2016-07-12T00:47:58Z</time>
      </trkpt>
      <trkpt lat="45.58617" lon="13.86421">
        <ele>356</ele>
        <time>2016-07-12T00:49:58Z</time>
      </trkpt>
      <trkpt lat="45.58603" lon="13.86465">
        <ele>357</ele>
        <time>2016-07-12T00:51:58Z</time>
      </trkpt>
      <trkpt lat="45.58596" lon="13.86489">
        <ele>357</ele>
        <time>2016-07-12T00:53:58Z</time>
      </trkpt>
      <trkpt lat="45.58581" lon="13.86534">
        <ele>356</ele>
        <time>2016-07-12T00:55:58Z</time>
      </trkpt>
      <trkpt lat="45.58564" lon="13.86571">
        <ele>353</ele>
        <time>2016-07-12T00:57:58Z</time>
      </trkpt>
      <trkpt lat="45.58547" lon="13.86606">
        <ele>350</ele>
        <time>2016-07-12T00:59:58Z</time>
      </trkpt>
      <trkpt lat="45.58539" lon="13.86625">
        <ele>348</ele>
        <time>2016-07-12T01:01:58Z</time>
      </trkpt>
      <trkpt lat="45.58536" lon="13.86632">
        <ele>348</ele>
        <time>2016-07-12T01:03:58Z</time>
      </trkpt>
      <trkpt lat="45.58534" lon="13.86638">
        <ele>348</ele>
        <time>2016-07-12T01:05:58Z</time>
      </trkpt>
      <trkpt lat="45.58529" lon="13.86653">
        <ele>347</ele>
        <time>2016-07-12T01:07:58Z</time>
      </trkpt>
      <trkpt lat="45.58525" lon="13.86669">
        <ele>346</ele>
        <time>2016-07-12T01:09:58Z</time>
      </trkpt>
      <trkpt lat="45.58522" lon="13.86678">
        <ele>346</ele>
        <time>2016-07-12T01:11:58Z</time>
      </trkpt>
      <trkpt lat="45.5852" lon="13.86686">
        <ele>346</ele>
        <time>2016-07-12T01:13:58Z</time>
      </trkpt>
      <trkpt lat="45.58511" lon="13.86719">
        <ele>345</ele>
        <time>2016-07-12T01:15:58Z</time>
      </trkpt>
      <trkpt lat="45.58505" lon="13.86741">
        <ele>344</ele>
        <time>2016-07-12T01:17:58Z</time>
      </trkpt>
      <trkpt lat="45.585" lon="13.86758">
        <ele>343</ele>
        <time>2016-07-12T01:19:58Z</time>
      </trkpt>
      <trkpt lat="45.58494" lon="13.86779">
        <ele>344</ele>
        <time>2016-07-12T01:21:58Z</time>
      </trkpt>
      <trkpt lat="45.58493" lon="13.86785">
        <ele>344</ele>
        <time>2016-07-12T01:23:58Z</time>
      </trkpt>
      <trkpt lat="45.58491" lon="13.8679">
        <ele>344</ele>
        <time>2016-07-12T01:25:58Z</time>
      </trkpt>
      <trkpt lat="45.58489" lon="13.86795">
        <ele>344</ele>
        <time>2016-07-12T01:27:58Z</time>
      </trkpt>
      <trkpt lat="45.58488" lon="13.86799">
        <ele>344</ele>
        <time>2016-07-12T01:29:58Z</time>
      </trkpt>
      <trkpt lat="45.58481" lon="13.86814">
        <ele>343</ele>
        <time>2016-07-12T01:31:58Z</time>
      </trkpt>
      <trkpt lat="45.58472" lon="13.86825">
        <ele>342</ele>
        <time>2016-07-12T01:33:58Z</time>
      </trkpt>
      <trkpt lat="45.58463" lon="13.86836">
        <ele>342</ele>
        <time>2016-07-12T01:35:58Z</time>
      </trkpt>
      <trkpt lat="45.58463" lon="13.86836">
        <ele>342</ele>
        <time>2016-07-12T01:37:58Z</time>
      </trkpt>
      <trkpt lat="45.58432" lon="13.86871">
        <ele>339</ele>
        <time>2016-07-12T01:39:58Z</time>
      </trkpt>
      <trkpt lat="45.58409" lon="13.86895">
        <ele>338</ele>
        <time>2016-07-12T01:41:58Z</time>
      </trkpt>
      <trkpt lat="45.58401" lon="13.86904">
        <ele>337</ele>
        <time>2016-07-12T01:43:58Z</time>
      </trkpt>
      <trkpt lat="45.58394" lon="13.8691">
        <ele>337</ele>
        <time>2016-07-12T01:45:58Z</time>
      </trkpt>
      <trkpt lat="45.5839" lon="13.86913">
        <ele>336</ele>
        <time>2016-07-12T01:47:58Z</time>
      </trkpt>
      <trkpt lat="45.58383" lon="13.86917">
        <ele>335</ele>
        <time>2016-07-12T01:49:58Z</time>
      </trkpt>
      <trkpt lat="45.58377" lon="13.8692">
        <ele>335</ele>
        <time>2016-07-12T01:51:58Z</time>
      </trkpt>
      <trkpt lat="45.5837" lon="13.86924">
        <ele>334</ele>
        <time>2016-07-12T01:53:58Z</time>
      </trkpt>
      <trkpt lat="45.58359" lon="13.86927">
        <ele>333</ele>
        <time>2016-07-12T01:55:58Z</time>
      </trkpt>
      <trkpt lat="45.58316" lon="13.86937">
        <ele>329</ele>
        <time>2016-07-12T01:57:58Z</time>
      </trkpt>
      <trkpt lat="45.58308" lon="13.86939">
        <ele>329</ele>
        <time>2016-07-12T01:59:58Z</time>
      </trkpt>
      <trkpt lat="45.58247" lon="13.86952">
        <ele>327</ele>
        <time>2016-07-12T02:01:58Z</time>
      </trkpt>
      <trkpt lat="45.58237" lon="13.86955">
        <ele>326</ele>
        <time>2016-07-12T02:03:58Z</time>
      </trkpt>
      <trkpt lat="45.5823" lon="13.86957">
        <ele>326</ele>
        <time>2016-07-12T02:05:58Z</time>
      </trkpt>
      <trkpt lat="45.58225" lon="13.8696">
        <ele>325</ele>
        <time>2016-07-12T02:07:58Z</time>
      </trkpt>
      <trkpt lat="45.5822" lon="13.86963">
        <ele>325</ele>
        <time>2016-07-12T02:09:58Z</time>
      </trkpt>
      <trkpt lat="45.58214" lon="13.86967">
        <ele>324</ele>
        <time>2016-07-12T02:11:58Z</time>
      </trkpt>
      <trkpt lat="45.58212" lon="13.8697">
        <ele>325</ele>
        <time>2016-07-12T02:13:58Z</time>
      </trkpt>
      <trkpt lat="45.58209" lon="13.86972">
        <ele>324</ele>
        <time>2016-07-12T02:15:58Z</time>
      </trkpt>
      <trkpt lat="45.58206" lon="13.86975">
        <ele>324</ele>
        <time>2016-07-12T02:17:58Z</time>
      </trkpt>
      <trkpt lat="45.58204" lon="13.86977">
        <ele>324</ele>
        <time>2016-07-12T02:19:58Z</time>
      </trkpt>
      <trkpt lat="45.582" lon="13.86982">
        <ele>324</ele>
        <time>2016-07-12T02:21:58Z</time>
      </trkpt>
      <trkpt lat="45.58198" lon="13.86985">
        <ele>324</ele>
        <time>2016-07-12T02:23:58Z</time>
      </trkpt>
      <trkpt lat="45.58196" lon="13.86988">
        <ele>324</ele>
        <time>2016-07-12T02:25:58Z</time>
      </trkpt>
      <trkpt lat="45.58194" lon="13.86992">
        <ele>324</ele>
        <time>2016-07-12T02:27:58Z</time>
      </trkpt>
      <trkpt lat="45.58191" lon="13.86997">
        <ele>323</ele>
        <time>2016-07-12T02:29:58Z</time>
      </trkpt>
      <trkpt lat="45.58188" lon="13.87003">
        <ele>323</ele>
        <time>2016-07-12T02:31:58Z</time>
      </trkpt>
      <trkpt lat="45.58186" lon="13.8701">
        <ele>323</ele>
        <time>2016-07-12T02:33:58Z</time>
      </trkpt>
      <trkpt lat="45.58184" lon="13.87017">
        <ele>323</ele>
        <time>2016-07-12T02:35:58Z</time>
      </trkpt>
      <trkpt lat="45.58177" lon="13.87042">
        <ele>324</ele>
        <time>2016-07-12T02:37:58Z</time>
      </trkpt>
      <trkpt lat="45.58166" lon="13.87088">
        <ele>324</ele>
        <time>2016-07-12T02:39:58Z</time>
      </trkpt>
      <trkpt lat="45.58141" lon="13.87184">
        <ele>320</ele>
        <time>2016-07-12T02:41:58Z</time>
      </trkpt>
      <trkpt lat="45.58135" lon="13.87201">
        <ele>320</ele>
        <time>2016-07-12T02:43:58Z</time>
      </trkpt>
      <trkpt lat="45.58128" lon="13.87223">
        <ele>320</ele>
        <time>2016-07-12T02:45:58Z</time>
      </trkpt>
      <trkpt lat="45.58113" lon="13.87251">
        <ele>321</ele>
        <time>2016-07-12T02:47:58Z</time>
      </trkpt>
      <trkpt lat="45.5811" lon="13.87255">
        <ele>321</ele>
        <time>2016-07-12T02:49:58Z</time>
      </trkpt>
      <trkpt lat="45.58097" lon="13.87273">
        <ele>324</ele>
        <time>2016-07-12T02:51:58Z</time>
      </trkpt>
      <trkpt lat="45.58081" lon="13.87287">
        <ele>325</ele>
        <time>2016-07-12T02:53:58Z</time>
      </trkpt>
      <trkpt lat="45.5808" lon="13.87289">
        <ele>325</ele>
        <time>2016-07-12T02:55:58Z</time>
      </trkpt>
      <trkpt lat="45.58052" lon="13.87303">
        <ele>325</ele>
        <time>2016-07-12T02:57:58Z</time>
      </trkpt>
      <trkpt lat="45.58035" lon="13.87309">
        <ele>325</ele>
        <time>2016-07-12T02:59:58Z</time>
      </trkpt>
      <trkpt lat="45.58013" lon="13.87317">
        <ele>324</ele>
        <time>2016-07-12T03:01:58Z</time>
      </trkpt>
      <trkpt lat="45.57995" lon="13.87323">
        <ele>324</ele>
        <time>2016-07-12T03:03:58Z</time>
      </trkpt>
      <trkpt lat="45.57963" lon="13.87331">
        <ele>323</ele>
        <time>2016-07-12T03:05:58Z</time>
      </trkpt>
      <trkpt lat="45.57934" lon="13.87338">
        <ele>324</ele>
        <time>2016-07-12T03:07:58Z</time>
      </trkpt>
      <trkpt lat="45.57913" lon="13.87341">
        <ele>324</ele>
        <time>2016-07-12T03:09:58Z</time>
      </trkpt>
      <trkpt lat="45.57889" lon="13.87343">
        <ele>327</ele>
        <time>2016-07-12T03:11:58Z</time>
      </trkpt>
      <trkpt lat="45.57868" lon="13.87342">
        <ele>328</ele>
        <time>2016-07-12T03:13:58Z</time>
      </trkpt>
      <trkpt lat="45.57827" lon="13.87339">
        <ele>330</ele>
        <time>2016-07-12T03:15:58Z</time>
      </trkpt>
      <trkpt lat="45.57822" lon="13.87338">
        <ele>330</ele>
        <time>2016-07-12T03:17:58Z</time>
      </trkpt>
      <trkpt lat="45.57815" lon="13.87338">
        <ele>330</ele>
        <time>2016-07-12T03:19:58Z</time>
      </trkpt>
      <trkpt lat="45.57809" lon="13.87336">
        <ele>329</ele>
        <time>2016-07-12T03:21:58Z</time>
      </trkpt>
      <trkpt lat="45.57775" lon="13.87327">
        <ele>327</ele>
        <time>2016-07-12T03:23:58Z</time>
      </trkpt>
      <trkpt lat="45.57727" lon="13.87304">
        <ele>326</ele>
        <time>2016-07-12T03:25:58Z</time>
      </trkpt>
      <trkpt lat="45.57697" lon="13.87286">
        <ele>326</ele>
        <time>2016-07-12T03:27:58Z</time>
      </trkpt>
      <trkpt lat="45.57663" lon="13.87258">
        <ele>320</ele>
        <time>2016-07-12T03:29:58Z</time>
      </trkpt>
      <trkpt lat="45.57622" lon="13.87216">
        <ele>317</ele>
        <time>2016-07-12T03:31:58Z</time>
      </trkpt>
      <trkpt lat="45.57597" lon="13.87185">
        <ele>315</ele>
        <time>2016-07-12T03:33:58Z</time>
      </trkpt>
      <trkpt lat="45.57564" lon="13.87135">
        <ele>311</ele>
        <time>2016-07-12T03:35:58Z</time>
      </trkpt>
      <trkpt lat="45.57535" lon="13.87081">
        <ele>307</ele>
        <time>2016-07-12T03:37:58Z</time>
      </trkpt>
      <trkpt lat="45.57529" lon="13.8707">
        <ele>307</ele>
        <time>2016-07-12T03:39:58Z</time>
      </trkpt>
      <trkpt lat="45.57521" lon="13.87059">
        <ele>307</ele>
        <time>2016-07-12T03:41:58Z</time>
      </trkpt>
      <trkpt lat="45.57516" lon="13.87053">
        <ele>307</ele>
        <time>2016-07-12T03:43:58Z</time>
      </trkpt>
      <trkpt lat="45.57512" lon="13.87048">
        <ele>307</ele>
        <time>2016-07-12T03:45:58Z</time>
      </trkpt>
      <trkpt lat="45.57505" lon="13.87042">
        <ele>307</ele>
        <time>2016-07-12T03:47:58Z</time>
      </trkpt>
      <trkpt lat="45.57501" lon="13.87039">
        <ele>307</ele>
        <time>2016-07-12T03:49:58Z</time>
      </trkpt>
      <trkpt lat="45.57475" lon="13.87027">
        <ele>307</ele>
        <time>2016-07-12T03:51:58Z</time>
      </trkpt>
      <trkpt lat="45.57463" lon="13.87025">
        <ele>307</ele>
        <time>2016-07-12T03:53:58Z</time>
      </trkpt>
      <trkpt lat="45.57453" lon="13.87025">
        <ele>307</ele>
        <time>2016-07-12T03:55:58Z</time>
      </trkpt>
      <trkpt lat="45.57444" lon="13.87026">
        <ele>307</ele>
        <time>2016-07-12T03:57:58Z</time>
      </trkpt>
      <trkpt lat="45.57434" lon="13.8703">
        <ele>308</ele>
        <time>2016-07-12T03:59:58Z</time>
      </trkpt>
      <trkpt lat="45.57418" lon="13.87039">
        <ele>308</ele>
        <time>2016-07-12T04:01:58Z</time>
      </trkpt>
      <trkpt lat="45.57412" lon="13.87044">
        <ele>309</ele>
        <time>2016-07-12T04:03:58Z</time>
      </trkpt>
      <trkpt lat="45.57406" lon="13.8705">
        <ele>309</ele>
        <time>2016-07-12T04:05:58Z</time>
      </trkpt>
      <trkpt lat="45.57401" lon="13.87055">
        <ele>310</ele>
        <time>2016-07-12T04:07:58Z</time>
      </trkpt>
      <trkpt lat="45.57397" lon="13.8706">
        <ele>310</ele>
        <time>2016-07-12T04:09:58Z</time>
      </trkpt>
      <trkpt lat="45.57391" lon="13.8707">
        <ele>311</ele>
        <time>2016-07-12T04:11:58Z</time>
      </trkpt>
      <trkpt lat="45.57388" lon="13.87075">
        <ele>312</ele>
        <time>2016-07-12T04:13:58Z</time>
      </trkpt>
      <trkpt lat="45.57378" lon="13.8709">
        <ele>314</ele>
        <time>2016-07-12T04:15:58Z</time>
      </trkpt>
      <trkpt lat="45.57377" lon="13.87093">
        <ele>314</ele>
        <time>2016-07-12T04:17:58Z</time>
      </trkpt>
      <trkpt lat="45.57368" lon="13.87107">
        <ele>317</ele>
        <time>2016-07-12T04:19:58Z</time>
      </trkpt>
      <trkpt lat="45.57364" lon="13.87113">
        <ele>318</ele>
        <time>2016-07-12T04:21:58Z</time>
      </trkpt>
      <trkpt lat="45.57363" lon="13.87114">
        <ele>318</ele>
        <time>2016-07-12T04:23:58Z</time>
      </trkpt>
      <trkpt lat="45.57361" lon="13.87117">
        <ele>318</ele>
        <time>2016-07-12T04:25:58Z</time>
      </trkpt>
      <trkpt lat="45.57342" lon="13.87147">
        <ele>324</ele>
        <time>2016-07-12T04:27:58Z</time>
      </trkpt>
      <trkpt lat="45.57336" lon="13.87156">
        <ele>325</ele>
        <time>2016-07-12T04:29:58Z</time>
      </trkpt>
      <trkpt lat="45.5733" lon="13.87162">
        <ele>326</ele>
        <time>2016-07-12T04:31:58Z</time>
      </trkpt>
      <trkpt lat="45.57319" lon="13.87172">
        <ele>328</ele>
        <time>2016-07-12T04:33:58Z</time>
      </trkpt>
      <trkpt lat="45.57307" lon="13.87179">
        <ele>329</ele>
        <time>2016-07-12T04:35:58Z</time>
      </trkpt>
      <trkpt lat="45.57291" lon="13.87187">
        <ele>331</ele>
        <time>2016-07-12T04:37:58Z</time>
      </trkpt>
      <trkpt lat="45.57283" lon="13.87189">
        <ele>331</ele>
        <time>2016-07-12T04:39:58Z</time>
      </trkpt>
      <trkpt lat="45.57281" lon="13.8719">
        <ele>331</ele>
        <time>2016-07-12T04:41:58Z</time>
      </trkpt>
      <trkpt lat="45.57271" lon="13.87191">
        <ele>331</ele>
        <time>2016-07-12T04:43:58Z</time>
      </trkpt>
      <trkpt lat="45.57258" lon="13.87191">
        <ele>331</ele>
        <time>2016-07-12T04:45:58Z</time>
      </trkpt>
      <trkpt lat="45.57246" lon="13.87189">
        <ele>330</ele>
        <time>2016-07-12T04:47:58Z</time>
      </trkpt>
      <trkpt lat="45.57216" lon="13.87183">
        <ele>328</ele>
        <time>2016-07-12T04:49:58Z</time>
      </trkpt>
      <trkpt lat="45.57197" lon="13.87181">
        <ele>327</ele>
        <time>2016-07-12T04:51:58Z</time>
      </trkpt>
      <trkpt lat="45.57165" lon="13.87183">
        <ele>325</ele>
        <time>2016-07-12T04:53:58Z</time>
      </trkpt>
      <trkpt lat="45.57145" lon="13.8719">
        <ele>327</ele>
        <time>2016-07-12T04:55:58Z</time>
      </trkpt>
      <trkpt lat="45.57123" lon="13.87199">
        <ele>329</ele>
        <time>2016-07-12T04:57:58Z</time>
      </trkpt>
      <trkpt lat="45.57104" lon="13.87209">
        <ele>331</ele>
        <time>2016-07-12T04:59:58Z</time>
      </trkpt>
      <trkpt lat="45.57082" lon="13.87213">
        <ele>332</ele>
        <time>2016-07-12T05:01:58Z</time>
      </trkpt>
      <trkpt lat="45.57072" lon="13.87213">
        <ele>332</ele>
        <time>2016-07-12T05:03:58Z</time>
      </trkpt>
      <trkpt lat="45.5706" lon="13.87212">
        <ele>331</ele>
        <time>2016-07-12T05:05:58Z</time>
      </trkpt>
      <trkpt lat="45.5706" lon="13.87212">
        <ele>331</ele>
        <time>2016-07-12T05:07:58Z</time>
      </trkpt>
      <trkpt lat="45.57038" lon="13.87283">
        <ele>343</ele>
        <time>2016-07-12T05:09:58Z</time>
      </trkpt>
      <trkpt lat="45.57032" lon="13.87293">
        <ele>344</ele>
        <time>2016-07-12T05:11:58Z</time>
      </trkpt>
      <trkpt lat="45.57027" lon="13.87301">
        <ele>345</ele>
        <time>2016-07-12T05:13:58Z</time>
      </trkpt>
      <trkpt lat="45.57021" lon="13.87306">
        <ele>346</ele>
        <time>2016-07-12T05:15:58Z</time>
      </trkpt>
      <trkpt lat="45.57016" lon="13.8731">
        <ele>346</ele>
        <time>2016-07-12T05:17:58Z</time>
      </trkpt>
      <trkpt lat="45.57006" lon="13.87313">
        <ele>346</ele>
        <time>2016-07-12T05:19:58Z</time>
      </trkpt>
      <trkpt lat="45.56999" lon="13.87312">
        <ele>346</ele>
        <time>2016-07-12T05:21:58Z</time>
      </trkpt>
      <trkpt lat="45.56974" lon="13.87303">
        <ele>346</ele>
        <time>2016-07-12T05:23:58Z</time>
      </trkpt>
      <trkpt lat="45.56973" lon="13.87301">
        <ele>345</ele>
        <time>2016-07-12T05:25:58Z</time>
      </trkpt>
      <trkpt lat="45.56958" lon="13.8729">
        <ele>344</ele>
        <time>2016-07-12T05:27:58Z</time>
      </trkpt>
      <trkpt lat="45.56953" lon="13.87287">
        <ele>343</ele>
        <time>2016-07-12T05:29:58Z</time>
      </trkpt>
      <trkpt lat="45.56923" lon="13.87274">
        <ele>342</ele>
        <time>2016-07-12T05:31:58Z</time>
      </trkpt>
      <trkpt lat="45.56907" lon="13.87269">
        <ele>341</ele>
        <time>2016-07-12T05:33:58Z</time>
      </trkpt>
      <trkpt lat="45.56887" lon="13.87268">
        <ele>341</ele>
        <time>2016-07-12T05:35:58Z</time>
      </trkpt>
      <trkpt lat="45.56876" lon="13.8727">
        <ele>341</ele>
        <time>2016-07-12T05:37:58Z</time>
      </trkpt>
      <trkpt lat="45.56864" lon="13.87274">
        <ele>342</ele>
        <time>2016-07-12T05:39:58Z</time>
      </trkpt>
      <trkpt lat="45.56853" lon="13.87279">
        <ele>343</ele>
        <time>2016-07-12T05:41:58Z</time>
      </trkpt>
      <trkpt lat="45.56833" lon="13.87291">
        <ele>345</ele>
        <time>2016-07-12T05:43:58Z</time>
      </trkpt>
      <trkpt lat="45.56821" lon="13.87301">
        <ele>347</ele>
        <time>2016-07-12T05:45:58Z</time>
      </trkpt>
      <trkpt lat="45.568" lon="13.8732">
        <ele>350</ele>
        <time>2016-07-12T05:47:58Z</time>
      </trkpt>
      <trkpt lat="45.56733" lon="13.87384">
        <ele>359</ele>
        <time>2016-07-12T05:49:58Z</time>
      </trkpt>
      <trkpt lat="45.56661" lon="13.87461">
        <ele>367</ele>
        <time>2016-07-12T05:51:58Z</time>
      </trkpt>
      <trkpt lat="45.56556" lon="13.87597">
        <ele>380</ele>
        <time>2016-07-12T05:53:58Z</time>
      </trkpt>
      <trkpt lat="45.56542" lon="13.87622">
        <ele>382</ele>
        <time>2016-07-12T05:55:58Z</time>
      </trkpt>
      <trkpt lat="45.56516" lon="13.87659">
        <ele>384</ele>
        <time>2016-07-12T05:57:58Z</time>
      </trkpt>
      <trkpt lat="45.56498" lon="13.8768">
        <ele>384</ele>
        <time>2016-07-12T05:59:58Z</time>
      </trkpt>
      <trkpt lat="45.56475" lon="13.87704">
        <ele>385</ele>
        <time>2016-07-12T06:01:58Z</time>
      </trkpt>
      <trkpt lat="45.56457" lon="13.8772">
        <ele>385</ele>
        <time>2016-07-12T06:03:58Z</time>
      </trkpt>
      <trkpt lat="45.56446" lon="13.87729">
        <ele>385</ele>
        <time>2016-07-12T06:05:58Z</time>
      </trkpt>
      <trkpt lat="45.56426" lon="13.87748">
        <ele>385</ele>
        <time>2016-07-12T06:07:58Z</time>
      </trkpt>
      <trkpt lat="45.56404" lon="13.87769">
        <ele>384</ele>
        <time>2016-07-12T06:09:58Z</time>
      </trkpt>
      <trkpt lat="45.56388" lon="13.87792">
        <ele>383</ele>
        <time>2016-07-12T06:11:58Z</time>
      </trkpt>
      <trkpt lat="45.56379" lon="13.87815">
        <ele>384</ele>
        <time>2016-07-12T06:13:58Z</time>
      </trkpt>
      <trkpt lat="45.56371" lon="13.8784">
        <ele>385</ele>
        <time>2016-07-12T06:15:58Z</time>
      </trkpt>
      <trkpt lat="45.56366" lon="13.8787">
        <ele>386</ele>
        <time>2016-07-12T06:17:58Z</time>
      </trkpt>
      <trkpt lat="45.56364" lon="13.87894">
        <ele>387</ele>
        <time>2016-07-12T06:19:58Z</time>
      </trkpt>
      <trkpt lat="45.56362" lon="13.87944">
        <ele>389</ele>
        <time>2016-07-12T06:21:58Z</time>
      </trkpt>
      <trkpt lat="45.56359" lon="13.87975">
        <ele>390</ele>
        <time>2016-07-12T06:23:58Z</time>
      </trkpt>
      <trkpt lat="45.56364" lon="13.88026">
        <ele>393</ele>
        <time>2016-07-12T06:25:58Z</time>
      </trkpt>
      <trkpt lat="45.56368" lon="13.88092">
        <ele>395</ele>
        <time>2016-07-12T06:27:58Z</time>
      </trkpt>
      <trkpt lat="45.56374" lon="13.88137">
        <ele>397</ele>
        <time>2016-07-12T06:29:58Z</time>
      </trkpt>
      <trkpt lat="45.56385" lon="13.88177">
        <ele>399</ele>
        <time>2016-07-12T06:31:58Z</time>
      </trkpt>
      <trkpt lat="45.56396" lon="13.88221">
        <ele>401</ele>
        <time>2016-07-12T06:33:58Z</time>
      </trkpt>
      <trkpt lat="45.56403" lon="13.88243">
        <ele>401</ele>
        <time>2016-07-12T06:35:58Z</time>
      </trkpt>
      <trkpt lat="45.56417" lon="13.88284">
        <ele>402</ele>
        <time>2016-07-12T06:37:58Z</time>
      </trkpt>
      <trkpt lat="45.56426" lon="13.88301">
        <ele>402</ele>
        <time>2016-07-12T06:39:58Z</time>
      </trkpt>
      <trkpt lat="45.56434" lon="13.88316">
        <ele>403</ele>
        <time>2016-07-12T06:41:58Z</time>
      </trkpt>
      <trkpt lat="45.56436" lon="13.8833">
        <ele>402</ele>
        <time>2016-07-12T06:43:58Z</time>
      </trkpt>
      <trkpt lat="45.5644" lon="13.88352">
        <ele>404</ele>
        <time>2016-07-12T06:45:58Z</time>
      </trkpt>
      <trkpt lat="45.56441" lon="13.88366">
        <ele>405</ele>
        <time>2016-07-12T06:47:58Z</time>
      </trkpt>
      <trkpt lat="45.56441" lon="13.8838">
        <ele>405</ele>
        <time>2016-07-12T06:49:58Z</time>
      </trkpt>
      <trkpt lat="45.56441" lon="13.88393">
        <ele>406</ele>
        <time>2016-07-12T06:51:58Z</time>
      </trkpt>
      <trkpt lat="45.5644" lon="13.88403">
        <ele>407</ele>
        <time>2016-07-12T06:53:58Z</time>
      </trkpt>
      <trkpt lat="45.56438" lon="13.8842">
        <ele>408</ele>
        <time>2016-07-12T06:55:58Z</time>
      </trkpt>
      <trkpt lat="45.56436" lon="13.88433">
        <ele>409</ele>
        <time>2016-07-12T06:57:58Z</time>
      </trkpt>
      <trkpt lat="45.56434" lon="13.88442">
        <ele>410</ele>
        <time>2016-07-12T06:59:58Z</time>
      </trkpt>
      <trkpt lat="45.56433" lon="13.88454">
        <ele>411</ele>
        <time>2016-07-12T07:01:58Z</time>
      </trkpt>
      <trkpt lat="45.56432" lon="13.88469">
        <ele>412</ele>
        <time>2016-07-12T07:03:58Z</time>
      </trkpt>
      <trkpt lat="45.5643" lon="13.88479">
        <ele>413</ele>
        <time>2016-07-12T07:05:58Z</time>
      </trkpt>
      <trkpt lat="45.56429" lon="13.88486">
        <ele>413</ele>
        <time>2016-07-12T07:07:58Z</time>
      </trkpt>
      <trkpt lat="45.56425" lon="13.88495">
        <ele>413</ele>
        <time>2016-07-12T07:09:58Z</time>
      </trkpt>
      <trkpt lat="45.56419" lon="13.88511">
        <ele>415</ele>
        <time>2016-07-12T07:11:58Z</time>
      </trkpt>
      <trkpt lat="45.56409" lon="13.88529">
        <ele>417</ele>
        <time>2016-07-12T07:13:58Z</time>
      </trkpt>
      <trkpt lat="45.56394" lon="13.88552">
        <ele>418</ele>
        <time>2016-07-12T07:15:58Z</time>
      </trkpt>
      <trkpt lat="45.56371" lon="13.88584">
        <ele>418</ele>
        <time>2016-07-12T07:17:58Z</time>
      </trkpt>
      <trkpt lat="45.56364" lon="13.88593">
        <ele>419</ele>
        <time>2016-07-12T07:19:58Z</time>
      </trkpt>
      <trkpt lat="45.56359" lon="13.88598">
        <ele>419</ele>
        <time>2016-07-12T07:21:58Z</time>
      </trkpt>
      <trkpt lat="45.56354" lon="13.88603">
        <ele>419</ele>
        <time>2016-07-12T07:23:58Z</time>
      </trkpt>
      <trkpt lat="45.56347" lon="13.88606">
        <ele>419</ele>
        <time>2016-07-12T07:25:58Z</time>
      </trkpt>
      <trkpt lat="45.56339" lon="13.8861">
        <ele>418</ele>
        <time>2016-07-12T07:27:58Z</time>
      </trkpt>
      <trkpt lat="45.56327" lon="13.88615">
        <ele>418</ele>
        <time>2016-07-12T07:29:58Z</time>
      </trkpt>
      <trkpt lat="45.56304" lon="13.88624">
        <ele>419</ele>
        <time>2016-07-12T07:31:58Z</time>
      </trkpt>
      <trkpt lat="45.56272" lon="13.88636">
        <ele>420</ele>
        <time>2016-07-12T07:33:58Z</time>
      </trkpt>
      <trkpt lat="45.56261" lon="13.88641">
        <ele>420</ele>
        <time>2016-07-12T07:35:58Z</time>
      </trkpt>
      <trkpt lat="45.56258" lon="13.88643">
        <ele>421</ele>
        <time>2016-07-12T07:37:58Z</time>
      </trkpt>
      <trkpt lat="45.56256" lon="13.88645">
        <ele>421</ele>
        <time>2016-07-12T07:39:58Z</time>
      </trkpt>
      <trkpt lat="45.56254" lon="13.88647">
        <ele>421</ele>
        <time>2016-07-12T07:41:58Z</time>
      </trkpt>
      <trkpt lat="45.56252" lon="13.88649">
        <ele>421</ele>
        <time>2016-07-12T07:43:58Z</time>
      </trkpt>
      <trkpt lat="45.5625" lon="13.88651">
        <ele>421</ele>
        <time>2016-07-12T07:45:58Z</time>
      </trkpt>
      <trkpt lat="45.56248" lon="13.88654">
        <ele>422</ele>
        <time>2016-07-12T07:47:58Z</time>
      </trkpt>
      <trkpt lat="45.56246" lon="13.88656">
        <ele>421</ele>
        <time>2016-07-12T07:49:58Z</time>
      </trkpt>
      <trkpt lat="45.56245" lon="13.88658">
        <ele>422</ele>
        <time>2016-07-12T07:51:58Z</time>
      </trkpt>
      <trkpt lat="45.56243" lon="13.88661">
        <ele>422</ele>
        <time>2016-07-12T07:53:58Z</time>
      </trkpt>
      <trkpt lat="45.56242" lon="13.88664">
        <ele>422</ele>
        <time>2016-07-12T07:55:58Z</time>
      </trkpt>
      <trkpt lat="45.5624" lon="13.88668">
        <ele>422</ele>
        <time>2016-07-12T07:57:58Z</time>
      </trkpt>
      <trkpt lat="45.56216" lon="13.88736">
        <ele>426</ele>
        <time>2016-07-12T07:59:58Z</time>
      </trkpt>
      <trkpt lat="45.562" lon="13.88787">
        <ele>427</ele>
        <time>2016-07-12T08:01:58Z</time>
      </trkpt>
      <trkpt lat="45.56194" lon="13.88805">
        <ele>427</ele>
        <time>2016-07-12T08:03:58Z</time>
      </trkpt>
      <trkpt lat="45.56189" lon="13.88817">
        <ele>428</ele>
        <time>2016-07-12T08:05:58Z</time>
      </trkpt>
      <trkpt lat="45.56183" lon="13.8883">
        <ele>428</ele>
        <time>2016-07-12T08:07:58Z</time>
      </trkpt>
      <trkpt lat="45.56177" lon="13.88842">
        <ele>428</ele>
        <time>2016-07-12T08:09:58Z</time>
      </trkpt>
      <trkpt lat="45.5617" lon="13.88854">
        <ele>428</ele>
        <time>2016-07-12T08:11:58Z</time>
      </trkpt>
      <trkpt lat="45.56165" lon="13.88862">
        <ele>428</ele>
        <time>2016-07-12T08:13:58Z</time>
      </trkpt>
      <trkpt lat="45.56156" lon="13.88874">
        <ele>429</ele>
        <time>2016-07-12T08:15:58Z</time>
      </trkpt>
      <trkpt lat="45.56139" lon="13.88893">
        <ele>428</ele>
        <time>2016-07-12T08:17:58Z</time>
      </trkpt>
      <trkpt lat="45.56108" lon="13.88929">
        <ele>427</ele>
        <time>2016-07-12T08:19:58Z</time>
      </trkpt>
      <trkpt lat="45.56098" lon="13.88942">
        <ele>427</ele>
        <time>2016-07-12T08:21:58Z</time>
      </trkpt>
      <trkpt lat="45.5609" lon="13.88953">
        <ele>428</ele>
        <time>2016-07-12T08:23:58Z</time>
      </trkpt>
      <trkpt lat="45.56083" lon="13.88966">
        <ele>429</ele>
        <time>2016-07-12T08:25:58Z</time>
      </trkpt>
      <trkpt lat="45.56078" lon="13.88976">
        <ele>429</ele>
        <time>2016-07-12T08:27:58Z</time>
      </trkpt>
      <trkpt lat="45.56074" lon="13.88987">
        <ele>430</ele>
        <time>2016-07-12T08:29:58Z</time>
      </trkpt>
      <trkpt lat="45.56071" lon="13.88999">
        <ele>431</ele>
        <time>2016-07-12T08:31:58Z</time>
      </trkpt>
      <trkpt lat="45.56068" lon="13.89011">
        <ele>431</ele>
        <time>2016-07-12T08:33:58Z</time>
      </trkpt>
      <trkpt lat="45.56065" lon="13.89029">
        <ele>432</ele>
        <time>2016-07-12T08:35:58Z</time>
      </trkpt>
      <trkpt lat="45.56064" lon="13.89038">
        <ele>433</ele>
        <time>2016-07-12T08:37:58Z</time>
      </trkpt>
      <trkpt lat="45.56065" lon="13.8905">
        <ele>434</ele>
        <time>2016-07-12T08:39:58Z</time>
      </trkpt>
      <trkpt lat="45.56066" lon="13.89063">
        <ele>435</ele>
        <time>2016-07-12T08:41:58Z</time>
      </trkpt>
      <trkpt lat="45.56068" lon="13.89076">
        <ele>437</ele>
        <time>2016-07-12T08:43:58Z</time>
      </trkpt>
      <trkpt lat="45.56074" lon="13.89094">
        <ele>438</ele>
        <time>2016-07-12T08:45:58Z</time>
      </trkpt>
      <trkpt lat="45.56079" lon="13.8911">
        <ele>440</ele>
        <time>2016-07-12T08:47:58Z</time>
      </trkpt>
      <trkpt lat="45.56099" lon="13.89153">
        <ele>441</ele>
        <time>2016-07-12T08:49:58Z</time>
      </trkpt>
      <trkpt lat="45.56101" lon="13.89157">
        <ele>442</ele>
        <time>2016-07-12T08:51:58Z</time>
      </trkpt>
      <trkpt lat="45.56101" lon="13.89163">
        <ele>442</ele>
        <time>2016-07-12T08:53:58Z</time>
      </trkpt>
      <trkpt lat="45.561" lon="13.89168">
        <ele>442</ele>
        <time>2016-07-12T08:55:58Z</time>
      </trkpt>
      <trkpt lat="45.56099" lon="13.89173">
        <ele>442</ele>
        <time>2016-07-12T08:57:58Z</time>
      </trkpt>
      <trkpt lat="45.56097" lon="13.8918">
        <ele>442</ele>
        <time>2016-07-12T08:59:58Z</time>
      </trkpt>
      <trkpt lat="45.56096" lon="13.89183">
        <ele>442</ele>
        <time>2016-07-12T09:01:58Z</time>
      </trkpt>
      <trkpt lat="45.56095" lon="13.89186">
        <ele>442</ele>
        <time>2016-07-12T09:03:58Z</time>
      </trkpt>
      <trkpt lat="45.56063" lon="13.89235">
        <ele>441</ele>
        <time>2016-07-12T09:05:58Z</time>
      </trkpt>
      <trkpt lat="45.55984" lon="13.89346">
        <ele>440</ele>
        <time>2016-07-12T09:07:58Z</time>
      </trkpt>
      <trkpt lat="45.5588" lon="13.8949">
        <ele>440</ele>
        <time>2016-07-12T09:09:58Z</time>
      </trkpt>
      <trkpt lat="45.5587" lon="13.89503">
        <ele>440</ele>
        <time>2016-07-12T09:11:58Z</time>
      </trkpt>
      <trkpt lat="45.55813" lon="13.89582">
        <ele>437</ele>
        <time>2016-07-12T09:13:58Z</time>
      </trkpt>
      <trkpt lat="45.55759" lon="13.89657">
        <ele>434</ele>
        <time>2016-07-12T09:15:58Z</time>
      </trkpt>
      <trkpt lat="45.55685" lon="13.8976">
        <ele>437</ele>
        <time>2016-07-12T09:17:58Z</time>
      </trkpt>
      <trkpt lat="45.5558" lon="13.89906">
        <ele>437</ele>
        <time>2016-07-12T09:19:58Z</time>
      </trkpt>
      <trkpt lat="45.55473" lon="13.90055">
        <ele>438</ele>
        <time>2016-07-12T09:21:58Z</time>
      </trkpt>
      <trkpt lat="45.55375" lon="13.90192">
        <ele>436</ele>
        <time>2016-07-12T09:23:58Z</time>
      </trkpt>
      <trkpt lat="45.55326" lon="13.90262">
        <ele>435</ele>
        <time>2016-07-12T09:25:58Z</time>
      </trkpt>
      <trkpt lat="45.55242" lon="13.90379">
        <ele>433</ele>
        <time>2016-07-12T09:27:58Z</time>
      </trkpt>
      <trkpt lat="45.55184" lon="13.90462">
        <ele>432</ele>
        <time>2016-07-12T09:29:58Z</time>
      </trkpt>
      <trkpt lat="45.55092" lon="13.90591">
        <ele>428</ele>
        <time>2016-07-12T09:31:58Z</time>
      </trkpt>
      <trkpt lat="45.55082" lon="13.90607">
        <ele>427</ele>
        <time>2016-07-12T09:33:58Z</time>
      </trkpt>
      <trkpt lat="45.55071" lon="13.90621">
        <ele>427</ele>
        <time>2016-07-12T09:35:58Z</time>
      </trkpt>
      <trkpt lat="45.55061" lon="13.90634">
        <ele>427</ele>
        <time>2016-07-12T09:37:58Z</time>
      </trkpt>
      <trkpt lat="45.55043" lon="13.9066">
        <ele>427</ele>
        <time>2016-07-12T09:39:58Z</time>
      </trkpt>
      <trkpt lat="45.55035" lon="13.9067">
        <ele>427</ele>
        <time>2016-07-12T09:41:58Z</time>
      </trkpt>
      <trkpt lat="45.54962" lon="13.9077">
        <ele>429</ele>
        <time>2016-07-12T09:43:58Z</time>
      </trkpt>
      <trkpt lat="45.54895" lon="13.90864">
        <ele>429</ele>
        <time>2016-07-12T09:45:58Z</time>
      </trkpt>
      <trkpt lat="45.54821" lon="13.90967">
        <ele>429</ele>
        <time>2016-07-12T09:47:58Z</time>
      </trkpt>
      <trkpt lat="45.54757" lon="13.91055">
        <ele>431</ele>
        <time>2016-07-12T09:49:58Z</time>
      </trkpt>
      <trkpt lat="45.5471" lon="13.91123">
        <ele>432</ele>
        <time>2016-07-12T09:51:58Z</time>
      </trkpt>
      <trkpt lat="45.54676" lon="13.91169">
        <ele>433</ele>
        <time>2016-07-12T09:53:58Z</time>
      </trkpt>
      <trkpt lat="45.5466" lon="13.91195">
        <ele>433</ele>
        <time>2016-07-12T09:55:58Z</time>
      </trkpt>
      <trkpt lat="45.5465" lon="13.91214">
        <ele>433</ele>
        <time>2016-07-12T09:57:58Z</time>
      </trkpt>
      <trkpt lat="45.5464" lon="13.91235">
        <ele>434</ele>
        <time>2016-07-12T09:59:58Z</time>
      </trkpt>
      <trkpt lat="45.54621" lon="13.9128">
        <ele>435</ele>
        <time>2016-07-12T10:01:58Z</time>
      </trkpt>
      <trkpt lat="45.54562" lon="13.91434">
        <ele>439</ele>
        <time>2016-07-12T10:03:58Z</time>
      </trkpt>
      <trkpt lat="45.54496" lon="13.91609">
        <ele>442</ele>
        <time>2016-07-12T10:05:58Z</time>
      </trkpt>
      <trkpt lat="45.54391" lon="13.91884">
        <ele>443</ele>
        <time>2016-07-12T10:07:58Z</time>
      </trkpt>
      <trkpt lat="45.54346" lon="13.92001">
        <ele>442</ele>
        <time>2016-07-12T10:09:58Z</time>
      </trkpt>
      <trkpt lat="45.54321" lon="13.92058">
        <ele>444</ele>
        <time>2016-07-12T10:11:58Z</time>
      </trkpt>
      <trkpt lat="45.54305" lon="13.92091">
        <ele>445</ele>
        <time>2016-07-12T10:13:58Z</time>
      </trkpt>
      <trkpt lat="45.54253" lon="13.92197">
        <ele>444</ele>
        <time>2016-07-12T10:15:58Z</time>
      </trkpt>
      <trkpt lat="45.54197" lon="13.92312">
        <ele>445</ele>
        <time>2016-07-12T10:17:58Z</time>
      </trkpt>
      <trkpt lat="45.5415" lon="13.92406">
        <ele>445</ele>
        <time>2016-07-12T10:19:58Z</time>
      </trkpt>
      <trkpt lat="45.54115" lon="13.92476">
        <ele>448</ele>
        <time>2016-07-12T10:21:58Z</time>
      </trkpt>
      <trkpt lat="45.54034" lon="13.9264">
        <ele>454</ele>
        <time>2016-07-12T10:23:58Z</time>
      </trkpt>
      <trkpt lat="45.54006" lon="13.92699">
        <ele>454</ele>
        <time>2016-07-12T10:25:58Z</time>
      </trkpt>
      <trkpt lat="45.53985" lon="13.92741">
        <ele>455</ele>
        <time>2016-07-12T10:27:58Z</time>
      </trkpt>
      <trkpt lat="45.53968" lon="13.92774">
        <ele>458</ele>
        <time>2016-07-12T10:29:58Z</time>
      </trkpt>
      <trkpt lat="45.53954" lon="13.92803">
        <ele>461</ele>
        <time>2016-07-12T10:31:58Z</time>
      </trkpt>
      <trkpt lat="45.53946" lon="13.92819">
        <ele>461</ele>
        <time>2016-07-12T10:33:58Z</time>
      </trkpt>
      <trkpt lat="45.5394" lon="13.92835">
        <ele>462</ele>
        <time>2016-07-12T10:35:58Z</time>
      </trkpt>
      <trkpt lat="45.53935" lon="13.92846">
        <ele>462</ele>
        <time>2016-07-12T10:37:58Z</time>
      </trkpt>
      <trkpt lat="45.5393" lon="13.9286">
        <ele>462</ele>
        <time>2016-07-12T10:39:58Z</time>
      </trkpt>
      <trkpt lat="45.53925" lon="13.92882">
        <ele>462</ele>
        <time>2016-07-12T10:41:58Z</time>
      </trkpt>
      <trkpt lat="45.5392" lon="13.92907">
        <ele>463</ele>
        <time>2016-07-12T10:43:58Z</time>
      </trkpt>
      <trkpt lat="45.53917" lon="13.92927">
        <ele>464</ele>
        <time>2016-07-12T10:45:58Z</time>
      </trkpt>
      <trkpt lat="45.53916" lon="13.92951">
        <ele>466</ele>
        <time>2016-07-12T10:47:58Z</time>
      </trkpt>
      <trkpt lat="45.53913" lon="13.93013">
        <ele>471</ele>
        <time>2016-07-12T10:49:58Z</time>
      </trkpt>
      <trkpt lat="45.53913" lon="13.93073">
        <ele>473</ele>
        <time>2016-07-12T10:51:58Z</time>
      </trkpt>
      <trkpt lat="45.53909" lon="13.93194">
        <ele>480</ele>
        <time>2016-07-12T10:53:58Z</time>
      </trkpt>
      <trkpt lat="45.53906" lon="13.93339">
        <ele>481</ele>
        <time>2016-07-12T10:55:58Z</time>
      </trkpt>
      <trkpt lat="45.53903" lon="13.93446">
        <ele>479</ele>
        <time>2016-07-12T10:57:58Z</time>
      </trkpt>
      <trkpt lat="45.53901" lon="13.93496">
        <ele>478</ele>
        <time>2016-07-12T10:59:58Z</time>
      </trkpt>
      <trkpt lat="45.539" lon="13.93577">
        <ele>479</ele>
        <time>2016-07-12T11:01:58Z</time>
      </trkpt>
      <trkpt lat="45.53898" lon="13.93639">
        <ele>478</ele>
        <time>2016-07-12T11:03:58Z</time>
      </trkpt>
      <trkpt lat="45.53897" lon="13.93693">
        <ele>478</ele>
        <time>2016-07-12T11:05:58Z</time>
      </trkpt>
      <trkpt lat="45.53896" lon="13.93768">
        <ele>477</ele>
        <time>2016-07-12T11:07:58Z</time>
      </trkpt>
      <trkpt lat="45.53891" lon="13.93917">
        <ele>478</ele>
        <time>2016-07-12T11:09:58Z</time>
      </trkpt>
      <trkpt lat="45.53891" lon="13.93948">
        <ele>479</ele>
        <time>2016-07-12T11:11:58Z</time>
      </trkpt>
      <trkpt lat="45.53887" lon="13.93973">
        <ele>480</ele>
        <time>2016-07-12T11:13:58Z</time>
      </trkpt>
      <trkpt lat="45.53884" lon="13.9399">
        <ele>480</ele>
        <time>2016-07-12T11:15:58Z</time>
      </trkpt>
      <trkpt lat="45.5388" lon="13.94003">
        <ele>480</ele>
        <time>2016-07-12T11:17:58Z</time>
      </trkpt>
      <trkpt lat="45.53875" lon="13.9402">
        <ele>481</ele>
        <time>2016-07-12T11:19:58Z</time>
      </trkpt>
      <trkpt lat="45.5387" lon="13.94031">
        <ele>481</ele>
        <time>2016-07-12T11:21:58Z</time>
      </trkpt>
      <trkpt lat="45.53861" lon="13.9405">
        <ele>481</ele>
        <time>2016-07-12T11:23:58Z</time>
      </trkpt>
      <trkpt lat="45.5385" lon="13.94069">
        <ele>480</ele>
        <time>2016-07-12T11:25:58Z</time>
      </trkpt>
      <trkpt lat="45.53836" lon="13.94089">
        <ele>480</ele>
        <time>2016-07-12T11:27:58Z</time>
      </trkpt>
      <trkpt lat="45.53765" lon="13.94195">
        <ele>484</ele>
        <time>2016-07-12T11:29:58Z</time>
      </trkpt>
      <trkpt lat="45.53701" lon="13.94289">
        <ele>490</ele>
        <time>2016-07-12T11:31:58Z</time>
      </trkpt>
      <trkpt lat="45.53656" lon="13.94357">
        <ele>491</ele>
        <time>2016-07-12T11:33:58Z</time>
      </trkpt>
      <trkpt lat="45.53612" lon="13.94425">
        <ele>489</ele>
        <time>2016-07-12T11:35:58Z</time>
      </trkpt>
      <trkpt lat="45.53605" lon="13.94436">
        <ele>489</ele>
        <time>2016-07-12T11:37:58Z</time>
      </trkpt>
      <trkpt lat="45.53588" lon="13.94463">
        <ele>489</ele>
        <time>2016-07-12T11:39:58Z</time>
      </trkpt>
      <trkpt lat="45.53586" lon="13.94466">
        <ele>488</ele>
        <time>2016-07-12T11:41:58Z</time>
      </trkpt>
      <trkpt lat="45.53584" lon="13.94469">
        <ele>488</ele>
        <time>2016-07-12T11:43:58Z</time>
      </trkpt>
      <trkpt lat="45.53583" lon="13.9447">
        <ele>488</ele>
        <time>2016-07-12T11:45:58Z</time>
      </trkpt>
      <trkpt lat="45.5358" lon="13.94473">
        <ele>488</ele>
        <time>2016-07-12T11:47:58Z</time>
      </trkpt>
      <trkpt lat="45.53571" lon="13.94484">
        <ele>488</ele>
        <time>2016-07-12T11:49:58Z</time>
      </trkpt>
      <trkpt lat="45.53564" lon="13.9449">
        <ele>489</ele>
        <time>2016-07-12T11:51:58Z</time>
      </trkpt>
      <trkpt lat="45.53555" lon="13.94498">
        <ele>489</ele>
        <time>2016-07-12T11:53:58Z</time>
      </trkpt>
      <trkpt lat="45.53548" lon="13.94503">
        <ele>489</ele>
        <time>2016-07-12T11:55:58Z</time>
      </trkpt>
      <trkpt lat="45.53539" lon="13.94508">
        <ele>489</ele>
        <time>2016-07-12T11:57:58Z</time>
      </trkpt>
      <trkpt lat="45.53532" lon="13.9451">
        <ele>489</ele>
        <time>2016-07-12T11:59:58Z</time>
      </trkpt>
      <trkpt lat="45.53514" lon="13.94515">
        <ele>489</ele>
        <time>2016-07-12T12:01:58Z</time>
      </trkpt>
      <trkpt lat="45.53465" lon="13.94522">
        <ele>491</ele>
        <time>2016-07-12T12:03:58Z</time>
      </trkpt>
      <trkpt lat="45.53431" lon="13.94526">
        <ele>492</ele>
        <time>2016-07-12T12:05:58Z</time>
      </trkpt>
      <trkpt lat="45.53413" lon="13.94529">
        <ele>493</ele>
        <time>2016-07-12T12:07:58Z</time>
      </trkpt>
      <trkpt lat="45.53381" lon="13.94537">
        <ele>494</ele>
        <time>2016-07-12T12:09:58Z</time>
      </trkpt>
      <trkpt lat="45.5337" lon="13.94552">
        <ele>494</ele>
        <time>2016-07-12T12:11:58Z</time>
      </trkpt>
      <trkpt lat="45.53363" lon="13.94562">
        <ele>494</ele>
        <time>2016-07-12T12:13:58Z</time>
      </trkpt>
      <trkpt lat="45.53352" lon="13.94579">
        <ele>495</ele>
        <time>2016-07-12T12:15:58Z</time>
      </trkpt>
      <trkpt lat="45.53321" lon="13.9463">
        <ele>497</ele>
        <time>2016-07-12T12:17:58Z</time>
      </trkpt>
      <trkpt lat="45.53303" lon="13.94658">
        <ele>498</ele>
        <time>2016-07-12T12:19:58Z</time>
      </trkpt>
      <trkpt lat="45.53269" lon="13.94713">
        <ele>499</ele>
        <time>2016-07-12T12:21:58Z</time>
      </trkpt>
      <trkpt lat="45.53239" lon="13.94762">
        <ele>499</ele>
        <time>2016-07-12T12:23:58Z</time>
      </trkpt>
      <trkpt lat="45.53224" lon="13.94783">
        <ele>500</ele>
        <time>2016-07-12T12:25:58Z</time>
      </trkpt>
      <trkpt lat="45.53213" lon="13.94796">
        <ele>500</ele>
        <time>2016-07-12T12:27:58Z</time>
      </trkpt>
      <trkpt lat="45.53207" lon="13.94804">
        <ele>500</ele>
        <time>2016-07-12T12:29:58Z</time>
      </trkpt>
      <trkpt lat="45.53194" lon="13.94818">
        <ele>500</ele>
        <time>2016-07-12T12:31:58Z</time>
      </trkpt>
      <trkpt lat="45.53172" lon="13.94841">
        <ele>500</ele>
        <time>2016-07-12T12:33:58Z</time>
      </trkpt>
      <trkpt lat="45.53156" lon="13.94856">
        <ele>500</ele>
        <time>2016-07-12T12:35:58Z</time>
      </trkpt>
      <trkpt lat="45.53093" lon="13.94915">
        <ele>504</ele>
        <time>2016-07-12T12:37:58Z</time>
      </trkpt>
      <trkpt lat="45.53086" lon="13.94923">
        <ele>504</ele>
        <time>2016-07-12T12:39:58Z</time>
      </trkpt>
      <trkpt lat="45.53032" lon="13.94971">
        <ele>503</ele>
        <time>2016-07-12T12:41:58Z</time>
      </trkpt>
      <trkpt lat="45.52994" lon="13.95008">
        <ele>502</ele>
        <time>2016-07-12T12:43:58Z</time>
      </trkpt>
      <trkpt lat="45.52967" lon="13.95033">
        <ele>502</ele>
        <time>2016-07-12T12:45:58Z</time>
      </trkpt>
      <trkpt lat="45.52921" lon="13.95076">
        <ele>501</ele>
        <time>2016-07-12T12:47:58Z</time>
      </trkpt>
      <trkpt lat="45.52865" lon="13.95132">
        <ele>503</ele>
        <time>2016-07-12T12:49:58Z</time>
      </trkpt>
      <trkpt lat="45.52772" lon="13.95214">
        <ele>503</ele>
        <time>2016-07-12T12:51:58Z</time>
      </trkpt>
      <trkpt lat="45.52738" lon="13.95243">
        <ele>503</ele>
        <time>2016-07-12T12:53:58Z</time>
      </trkpt>
      <trkpt lat="45.52676" lon="13.9529">
        <ele>504</ele>
        <time>2016-07-12T12:55:58Z</time>
      </trkpt>
      <trkpt lat="45.52674" lon="13.95291">
        <ele>504</ele>
        <time>2016-07-12T12:57:58Z</time>
      </trkpt>
      <trkpt lat="45.52648" lon="13.95313">
        <ele>505</ele>
        <time>2016-07-12T12:59:58Z</time>
      </trkpt>
      <trkpt lat="45.526" lon="13.95352">
        <ele>508</ele>
        <time>2016-07-12T13:01:58Z</time>
      </trkpt>
      <trkpt lat="45.5258" lon="13.95367">
        <ele>509</ele>
        <time>2016-07-12T13:03:58Z</time>
      </trkpt>
      <trkpt lat="45.52559" lon="13.95389">
        <ele>510</ele>
        <time>2016-07-12T13:05:58Z</time>
      </trkpt>
      <trkpt lat="45.52555" lon="13.95394">
        <ele>510</ele>
        <time>2016-07-12T13:07:58Z</time>
      </trkpt>
      <trkpt lat="45.5255" lon="13.95401">
        <ele>510</ele>
        <time>2016-07-12T13:09:58Z</time>
      </trkpt>
      <trkpt lat="45.52542" lon="13.95418">
        <ele>512</ele>
        <time>2016-07-12T13:11:58Z</time>
      </trkpt>
      <trkpt lat="45.52537" lon="13.9543">
        <ele>514</ele>
        <time>2016-07-12T13:13:58Z</time>
      </trkpt>
      <trkpt lat="45.52533" lon="13.9544">
        <ele>516</ele>
        <time>2016-07-12T13:15:58Z</time>
      </trkpt>
      <trkpt lat="45.52529" lon="13.95447">
        <ele>517</ele>
        <time>2016-07-12T13:17:58Z</time>
      </trkpt>
      <trkpt lat="45.52526" lon="13.95452">
        <ele>518</ele>
        <time>2016-07-12T13:19:58Z</time>
      </trkpt>
      <trkpt lat="45.52516" lon="13.95464">
        <ele>519</ele>
        <time>2016-07-12T13:21:58Z</time>
      </trkpt>
      <trkpt lat="45.52506" lon="13.95473">
        <ele>520</ele>
        <time>2016-07-12T13:23:58Z</time>
      </trkpt>
      <trkpt lat="45.52489" lon="13.95482">
        <ele>520</ele>
        <time>2016-07-12T13:25:58Z</time>
      </trkpt>
      <trkpt lat="45.52474" lon="13.95487">
        <ele>520</ele>
        <time>2016-07-12T13:27:58Z</time>
      </trkpt>
      <trkpt lat="45.52426" lon="13.95501">
        <ele>519</ele>
        <time>2016-07-12T13:29:58Z</time>
      </trkpt>
      <trkpt lat="45.52422" lon="13.95503">
        <ele>519</ele>
        <time>2016-07-12T13:31:58Z</time>
      </trkpt>
      <trkpt lat="45.52415" lon="13.95506">
        <ele>520</ele>
        <time>2016-07-12T13:33:58Z</time>
      </trkpt>
      <trkpt lat="45.52402" lon="13.95513">
        <ele>520</ele>
        <time>2016-07-12T13:35:58Z</time>
      </trkpt>
      <trkpt lat="45.52382" lon="13.95528">
        <ele>523</ele>
        <time>2016-07-12T13:37:58Z</time>
      </trkpt>
      <trkpt lat="45.52365" lon="13.95549">
        <ele>527</ele>
        <time>2016-07-12T13:39:58Z</time>
      </trkpt>
      <trkpt lat="45.52359" lon="13.95556">
        <ele>528</ele>
        <time>2016-07-12T13:41:58Z</time>
      </trkpt>
      <trkpt lat="45.52347" lon="13.95562">
        <ele>528</ele>
        <time>2016-07-12T13:43:58Z</time>
      </trkpt>
      <trkpt lat="45.52324" lon="13.95569">
        <ele>528</ele>
        <time>2016-07-12T13:45:58Z</time>
      </trkpt>
      <trkpt lat="45.5226" lon="13.95574">
        <ele>526</ele>
        <time>2016-07-12T13:47:58Z</time>
      </trkpt>
      <trkpt lat="45.52248" lon="13.95575">
        <ele>526</ele>
        <time>2016-07-12T13:49:58Z</time>
      </trkpt>
      <trkpt lat="45.52238" lon="13.95577">
        <ele>526</ele>
        <time>2016-07-12T13:51:58Z</time>
      </trkpt>
      <trkpt lat="45.5223" lon="13.95579">
        <ele>527</ele>
        <time>2016-07-12T13:53:58Z</time>
      </trkpt>
      <trkpt lat="45.52195" lon="13.9559">
        <ele>529</ele>
        <time>2016-07-12T13:55:58Z</time>
      </trkpt>
      <trkpt lat="45.52125" lon="13.95626">
        <ele>536</ele>
        <time>2016-07-12T13:57:58Z</time>
      </trkpt>
      <trkpt lat="45.52101" lon="13.95637">
        <ele>539</ele>
        <time>2016-07-12T13:59:58Z</time>
      </trkpt>
      <trkpt lat="45.52074" lon="13.95645">
        <ele>540</ele>
        <time>2016-07-12T14:01:58Z</time>
      </trkpt>
      <trkpt lat="45.52034" lon="13.95644">
        <ele>538</ele>
        <time>2016-07-12T14:03:58Z</time>
      </trkpt>
      <trkpt lat="45.52013" lon="13.95646">
        <ele>538</ele>
        <time>2016-07-12T14:05:58Z</time>
      </trkpt>
      <trkpt lat="45.51982" lon="13.95653">
        <ele>539</ele>
        <time>2016-07-12T14:07:58Z</time>
      </trkpt>
      <trkpt lat="45.51949" lon="13.95663">
        <ele>542</ele>
        <time>2016-07-12T14:09:58Z</time>
      </trkpt>
      <trkpt lat="45.51912" lon="13.95674">
        <ele>543</ele>
        <time>2016-07-12T14:11:58Z</time>
      </trkpt>
      <trkpt lat="45.51879" lon="13.95687">
        <ele>545</ele>
        <time>2016-07-12T14:13:58Z</time>
      </trkpt>
      <trkpt lat="45.51851" lon="13.95703">
        <ele>547</ele>
        <time>2016-07-12T14:15:58Z</time>
      </trkpt>
      <trkpt lat="45.51765" lon="13.95766">
        <ele>551</ele>
        <time>2016-07-12T14:17:58Z</time>
      </trkpt>
      <trkpt lat="45.5176" lon="13.95769">
        <ele>551</ele>
        <time>2016-07-12T14:19:58Z</time>
      </trkpt>
      <trkpt lat="45.51747" lon="13.95778">
        <ele>551</ele>
        <time>2016-07-12T14:21:58Z</time>
      </trkpt>
      <trkpt lat="45.51733" lon="13.95789">
        <ele>552</ele>
        <time>2016-07-12T14:23:58Z</time>
      </trkpt>
      <trkpt lat="45.51719" lon="13.95801">
        <ele>553</ele>
        <time>2016-07-12T14:25:58Z</time>
      </trkpt>
      <trkpt lat="45.51697" lon="13.95825">
        <ele>554</ele>
        <time>2016-07-12T14:27:58Z</time>
      </trkpt>
      <trkpt lat="45.51688" lon="13.95839">
        <ele>555</ele>
        <time>2016-07-12T14:29:58Z</time>
      </trkpt>
      <trkpt lat="45.51682" lon="13.95848">
        <ele>556</ele>
        <time>2016-07-12T14:31:58Z</time>
      </trkpt>
      <trkpt lat="45.51677" lon="13.95858">
        <ele>557</ele>
        <time>2016-07-12T14:33:58Z</time>
      </trkpt>
      <trkpt lat="45.5167" lon="13.95873">
        <ele>559</ele>
        <time>2016-07-12T14:35:58Z</time>
      </trkpt>
      <trkpt lat="45.51664" lon="13.95886">
        <ele>560</ele>
        <time>2016-07-12T14:37:58Z</time>
      </trkpt>
      <trkpt lat="45.51658" lon="13.95896">
        <ele>561</ele>
        <time>2016-07-12T14:39:58Z</time>
      </trkpt>
      <trkpt lat="45.51649" lon="13.95905">
        <ele>562</ele>
        <time>2016-07-12T14:41:58Z</time>
      </trkpt>
      <trkpt lat="45.51617" lon="13.95926">
        <ele>564</ele>
        <time>2016-07-12T14:43:58Z</time>
      </trkpt>
      <trkpt lat="45.5158" lon="13.95937">
        <ele>563</ele>
        <time>2016-07-12T14:45:58Z</time>
      </trkpt>
      <trkpt lat="45.5155" lon="13.95942">
        <ele>562</ele>
        <time>2016-07-12T14:47:58Z</time>
      </trkpt>
      <trkpt lat="45.51518" lon="13.9595">
        <ele>561</ele>
        <time>2016-07-12T14:49:58Z</time>
      </trkpt>
      <trkpt lat="45.51488" lon="13.95973">
        <ele>563</ele>
        <time>2016-07-12T14:51:58Z</time>
      </trkpt>
      <trkpt lat="45.51468" lon="13.95994">
        <ele>565</ele>
        <time>2016-07-12T14:53:58Z</time>
      </trkpt>
      <trkpt lat="45.51459" lon="13.96012">
        <ele>567</ele>
        <time>2016-07-12T14:55:58Z</time>
      </trkpt>
      <trkpt lat="45.51453" lon="13.96034">
        <ele>570</ele>
        <time>2016-07-12T14:57:58Z</time>
      </trkpt>
      <trkpt lat="45.51453" lon="13.96051">
        <ele>573</ele>
        <time>2016-07-12T14:59:58Z</time>
      </trkpt>
      <trkpt lat="45.51451" lon="13.96059">
        <ele>574</ele>
        <time>2016-07-12T15:01:58Z</time>
      </trkpt>
      <trkpt lat="45.51448" lon="13.96069">
        <ele>575</ele>
        <time>2016-07-12T15:03:58Z</time>
      </trkpt>
      <trkpt lat="45.51444" lon="13.96076">
        <ele>576</ele>
        <time>2016-07-12T15:05:58Z</time>
      </trkpt>
      <trkpt lat="45.51411" lon="13.96107">
        <ele>576</ele>
        <time>2016-07-12T15:07:58Z</time>
      </trkpt>
      <trkpt lat="45.51384" lon="13.96136">
        <ele>578</ele>
        <time>2016-07-12T15:09:58Z</time>
      </trkpt>
      <trkpt lat="45.51361" lon="13.96166">
        <ele>581</ele>
        <time>2016-07-12T15:11:58Z</time>
      </trkpt>
      <trkpt lat="45.51355" lon="13.96175">
        <ele>583</ele>
        <time>2016-07-12T15:13:58Z</time>
      </trkpt>
      <trkpt lat="45.51348" lon="13.96182">
        <ele>584</ele>
        <time>2016-07-12T15:15:58Z</time>
      </trkpt>
      <trkpt lat="45.51342" lon="13.96186">
        <ele>584</ele>
        <time>2016-07-12T15:17:58Z</time>
      </trkpt>
      <trkpt lat="45.51336" lon="13.96189">
        <ele>584</ele>
        <time>2016-07-12T15:19:58Z</time>
      </trkpt>
      <trkpt lat="45.51299" lon="13.96197">
        <ele>580</ele>
        <time>2016-07-12T15:21:58Z</time>
      </trkpt>
      <trkpt lat="45.51282" lon="13.96201">
        <ele>578</ele>
        <time>2016-07-12T15:23:58Z</time>
      </trkpt>
      <trkpt lat="45.51267" lon="13.96207">
        <ele>577</ele>
        <time>2016-07-12T15:25:58Z</time>
      </trkpt>
      <trkpt lat="45.51259" lon="13.96213">
        <ele>577</ele>
        <time>2016-07-12T15:27:58Z</time>
      </trkpt>
      <trkpt lat="45.51249" lon="13.96224">
        <ele>578</ele>
        <time>2016-07-12T15:29:58Z</time>
      </trkpt>
      <trkpt lat="45.51242" lon="13.96246">
        <ele>583</ele>
        <time>2016-07-12T15:31:58Z</time>
      </trkpt>
      <trkpt lat="45.51235" lon="13.96278">
        <ele>586</ele>
        <time>2016-07-12T15:33:58Z</time>
      </trkpt>
      <trkpt lat="45.51234" lon="13.96284">
        <ele>587</ele>
        <time>2016-07-12T15:35:58Z</time>
      </trkpt>
      <trkpt lat="45.51234" lon="13.9629">
        <ele>588</ele>
        <time>2016-07-12T15:37:58Z</time>
      </trkpt>
      <trkpt lat="45.51232" lon="13.96297">
        <ele>588</ele>
        <time>2016-07-12T15:39:58Z</time>
      </trkpt>
      <trkpt lat="45.51228" lon="13.96305">
        <ele>589</ele>
        <time>2016-07-12T15:41:58Z</time>
      </trkpt>
      <trkpt lat="45.51225" lon="13.96311">
        <ele>589</ele>
        <time>2016-07-12T15:43:58Z</time>
      </trkpt>
      <trkpt lat="45.51218" lon="13.96327">
        <ele>589</ele>
        <time>2016-07-12T15:45:58Z</time>
      </trkpt>
      <trkpt lat="45.51214" lon="13.96343">
        <ele>591</ele>
        <time>2016-07-12T15:47:58Z</time>
      </trkpt>
      <trkpt lat="45.5121" lon="13.96361">
        <ele>594</ele>
        <time>2016-07-12T15:49:58Z</time>
      </trkpt>
      <trkpt lat="45.51205" lon="13.96373">
        <ele>595</ele>
        <time>2016-07-12T15:51:58Z</time>
      </trkpt>
      <trkpt lat="45.51199" lon="13.96384">
        <ele>596</ele>
        <time>2016-07-12T15:53:58Z</time>
      </trkpt>
      <trkpt lat="45.51194" lon="13.96393">
        <ele>596</ele>
        <time>2016-07-12T15:55:58Z</time>
      </trkpt>
      <trkpt lat="45.5118" lon="13.96402">
        <ele>595</ele>
        <time>2016-07-12T15:57:58Z</time>
      </trkpt>
      <trkpt lat="45.51153" lon="13.96424">
        <ele>594</ele>
        <time>2016-07-12T15:59:58Z</time>
      </trkpt>
      <trkpt lat="45.51125" lon="13.96463">
        <ele>598</ele>
        <time>2016-07-12T16:01:58Z</time>
      </trkpt>
      <trkpt lat="45.51101" lon="13.96494">
        <ele>600</ele>
        <time>2016-07-12T16:03:58Z</time>
      </trkpt>
      <trkpt lat="45.51093" lon="13.96506">
        <ele>600</ele>
        <time>2016-07-12T16:05:58Z</time>
      </trkpt>
      <trkpt lat="45.51087" lon="13.96514">
        <ele>601</ele>
        <time>2016-07-12T16:07:58Z</time>
      </trkpt>
      <trkpt lat="45.51081" lon="13.96519">
        <ele>601</ele>
        <time>2016-07-12T16:09:58Z</time>
      </trkpt>
      <trkpt lat="45.51079" lon="13.96521">
        <ele>601</ele>
        <time>2016-07-12T16:11:58Z</time>
      </trkpt>
      <trkpt lat="45.5107" lon="13.96525">
        <ele>600</ele>
        <time>2016-07-12T16:13:58Z</time>
      </trkpt>
      <trkpt lat="45.51055" lon="13.9653">
        <ele>598</ele>
        <time>2016-07-12T16:15:58Z</time>
      </trkpt>
      <trkpt lat="45.51051" lon="13.96533">
        <ele>598</ele>
        <time>2016-07-12T16:17:58Z</time>
      </trkpt>
      <trkpt lat="45.51045" lon="13.96537">
        <ele>598</ele>
        <time>2016-07-12T16:19:58Z</time>
      </trkpt>
      <trkpt lat="45.51037" lon="13.96551">
        <ele>600</ele>
        <time>2016-07-12T16:21:58Z</time>
      </trkpt>
      <trkpt lat="45.51022" lon="13.96588">
        <ele>605</ele>
        <time>2016-07-12T16:23:58Z</time>
      </trkpt>
      <trkpt lat="45.5101" lon="13.96613">
        <ele>607</ele>
        <time>2016-07-12T16:25:58Z</time>
      </trkpt>
      <trkpt lat="45.51001" lon="13.96621">
        <ele>606</ele>
        <time>2016-07-12T16:27:58Z</time>
      </trkpt>
      <trkpt lat="45.50995" lon="13.96624">
        <ele>606</ele>
        <time>2016-07-12T16:29:58Z</time>
      </trkpt>
      <trkpt lat="45.50987" lon="13.96625">
        <ele>605</ele>
        <time>2016-07-12T16:31:58Z</time>
      </trkpt>
      <trkpt lat="45.50987" lon="13.96625">
        <ele>605</ele>
        <time>2016-07-12T16:33:58Z</time>
      </trkpt>
      <trkpt lat="45.50982" lon="13.96625">
        <ele>604</ele>
        <time>2016-07-12T16:35:58Z</time>
      </trkpt>
      <trkpt lat="45.50973" lon="13.96628">
        <ele>602</ele>
        <time>2016-07-12T16:37:58Z</time>
      </trkpt>
      <trkpt lat="45.50966" lon="13.96636">
        <ele>602</ele>
        <time>2016-07-12T16:39:58Z</time>
      </trkpt>
      <trkpt lat="45.50961" lon="13.96646">
        <ele>603</ele>
        <time>2016-07-12T16:41:58Z</time>
      </trkpt>
      <trkpt lat="45.50959" lon="13.96654">
        <ele>603</ele>
        <time>2016-07-12T16:43:58Z</time>
      </trkpt>
      <trkpt lat="45.50956" lon="13.96696">
        <ele>607</ele>
        <time>2016-07-12T16:45:58Z</time>
      </trkpt>
      <trkpt lat="45.50956" lon="13.96696">
        <ele>607</ele>
        <time>2016-07-12T16:47:58Z</time>
      </trkpt>
      <trkpt lat="45.50957" lon="13.96741">
        <ele>612</ele>
        <time>2016-07-12T16:49:58Z</time>
      </trkpt>
      <trkpt lat="45.50956" lon="13.96749">
        <ele>613</ele>
        <time>2016-07-12T16:51:58Z</time>
      </trkpt>
      <trkpt lat="45.50955" lon="13.96758">
        <ele>613</ele>
        <time>2016-07-12T16:53:58Z</time>
      </trkpt>
      <trkpt lat="45.50954" lon="13.96766">
        <ele>614</ele>
        <time>2016-07-12T16:55:58Z</time>
      </trkpt>
      <trkpt lat="45.50953" lon="13.96769">
        <ele>614</ele>
        <time>2016-07-12T16:57:58Z</time>
      </trkpt>
      <trkpt lat="45.50951" lon="13.96772">
        <ele>614</ele>
        <time>2016-07-12T16:59:58Z</time>
      </trkpt>
      <trkpt lat="45.50949" lon="13.96776">
        <ele>613</ele>
        <time>2016-07-12T17:01:58Z</time>
      </trkpt>
      <trkpt lat="45.50947" lon="13.96781">
        <ele>613</ele>
        <time>2016-07-12T17:03:58Z</time>
      </trkpt>
      <trkpt lat="45.50942" lon="13.96787">
        <ele>613</ele>
        <time>2016-07-12T17:05:58Z</time>
      </trkpt>
      <trkpt lat="45.50938" lon="13.96796">
        <ele>613</ele>
        <time>2016-07-12T17:07:58Z</time>
      </trkpt>
      <trkpt lat="45.50934" lon="13.96805">
        <ele>612</ele>
        <time>2016-07-12T17:09:58Z</time>
      </trkpt>
      <trkpt lat="45.50932" lon="13.96813">
        <ele>613</ele>
        <time>2016-07-12T17:11:58Z</time>
      </trkpt>
      <trkpt lat="45.50931" lon="13.96821">
        <ele>613</ele>
        <time>2016-07-12T17:13:58Z</time>
      </trkpt>
      <trkpt lat="45.50931" lon="13.9683">
        <ele>614</ele>
        <time>2016-07-12T17:15:58Z</time>
      </trkpt>
      <trkpt lat="45.50931" lon="13.96832">
        <ele>614</ele>
        <time>2016-07-12T17:17:58Z</time>
      </trkpt>
      <trkpt lat="45.50931" lon="13.96833">
        <ele>615</ele>
        <time>2016-07-12T17:19:58Z</time>
      </trkpt>
      <trkpt lat="45.50931" lon="13.96838">
        <ele>615</ele>
        <time>2016-07-12T17:21:58Z</time>
      </trkpt>
      <trkpt lat="45.50932" lon="13.96842">
        <ele>616</ele>
        <time>2016-07-12T17:23:58Z</time>
      </trkpt>
      <trkpt lat="45.50933" lon="13.96847">
        <ele>616</ele>
        <time>2016-07-12T17:25:58Z</time>
      </trkpt>
      <trkpt lat="45.50934" lon="13.96852">
        <ele>617</ele>
        <time>2016-07-12T17:27:58Z</time>
      </trkpt>
      <trkpt lat="45.50935" lon="13.96856">
        <ele>618</ele>
        <time>2016-07-12T17:29:58Z</time>
      </trkpt>
      <trkpt lat="45.50948" lon="13.96886">
        <ele>623</ele>
        <time>2016-07-12T17:31:58Z</time>
      </trkpt>
      <trkpt lat="45.50949" lon="13.9689">
        <ele>624</ele>
        <time>2016-07-12T17:33:58Z</time>
      </trkpt>
      <trkpt lat="45.50949" lon="13.96894">
        <ele>624</ele>
        <time>2016-07-12T17:35:58Z</time>
      </trkpt>
      <trkpt lat="45.5095" lon="13.96898">
        <ele>624</ele>
        <time>2016-07-12T17:37:58Z</time>
      </trkpt>
      <trkpt lat="45.5095" lon="13.96902">
        <ele>625</ele>
        <time>2016-07-12T17:39:58Z</time>
      </trkpt>
      <trkpt lat="45.5095" lon="13.96906">
        <ele>625</ele>
        <time>2016-07-12T17:41:58Z</time>
      </trkpt>
      <trkpt lat="45.50949" lon="13.9691">
        <ele>625</ele>
        <time>2016-07-12T17:43:58Z</time>
      </trkpt>
      <trkpt lat="45.50949" lon="13.96914">
        <ele>625</ele>
        <time>2016-07-12T17:45:58Z</time>
      </trkpt>
      <trkpt lat="45.50948" lon="13.96918">
        <ele>626</ele>
        <time>2016-07-12T17:47:58Z</time>
      </trkpt>
      <trkpt lat="45.50946" lon="13.96921">
        <ele>626</ele>
        <time>2016-07-12T17:49:58Z</time>
      </trkpt>
      <trkpt lat="45.50944" lon="13.96925">
        <ele>626</ele>
        <time>2016-07-12T17:51:58Z</time>
      </trkpt>
      <trkpt lat="45.50943" lon="13.96928">
        <ele>626</ele>
        <time>2016-07-12T17:53:58Z</time>
      </trkpt>
      <trkpt lat="45.5094" lon="13.96931">
        <ele>626</ele>
        <time>2016-07-12T17:55:58Z</time>
      </trkpt>
      <trkpt lat="45.50938" lon="13.96933">
        <ele>626</ele>
        <time>2016-07-12T17:57:58Z</time>
      </trkpt>
      <trkpt lat="45.50883" lon="13.9697">
        <ele>628</ele>
        <time>2016-07-12T17:59:58Z</time>
      </trkpt>
      <trkpt lat="45.5088" lon="13.96973">
        <ele>628</ele>
        <time>2016-07-12T18:01:58Z</time>
      </trkpt>
      <trkpt lat="45.50876" lon="13.96976">
        <ele>628</ele>
        <time>2016-07-12T18:03:58Z</time>
      </trkpt>
      <trkpt lat="45.50873" lon="13.96978">
        <ele>628</ele>
        <time>2016-07-12T18:05:58Z</time>
      </trkpt>
      <trkpt lat="45.50869" lon="13.96979">
        <ele>628</ele>
        <time>2016-07-12T18:07:58Z</time>
      </trkpt>
      <trkpt lat="45.50866" lon="13.9698">
        <ele>628</ele>
        <time>2016-07-12T18:09:58Z</time>
      </trkpt>
      <trkpt lat="45.50862" lon="13.96981">
        <ele>628</ele>
        <time>2016-07-12T18:11:58Z</time>
      </trkpt>
      <trkpt lat="45.50858" lon="13.96981">
        <ele>628</ele>
        <time>2016-07-12T18:13:58Z</time>
      </trkpt>
      <trkpt lat="45.50855" lon="13.96981">
        <ele>628</ele>
        <time>2016-07-12T18:15:58Z</time>
      </trkpt>
      <trkpt lat="45.50852" lon="13.96981">
        <ele>627</ele>
        <time>2016-07-12T18:17:58Z</time>
      </trkpt>
      <trkpt lat="45.50849" lon="13.96981">
        <ele>627</ele>
        <time>2016-07-12T18:19:58Z</time>
      </trkpt>
      <trkpt lat="45.50845" lon="13.9698">
        <ele>627</ele>
        <time>2016-07-12T18:21:58Z</time>
      </trkpt>
      <trkpt lat="45.50842" lon="13.96981">
        <ele>627</ele>
        <time>2016-07-12T18:23:58Z</time>
      </trkpt>
      <trkpt lat="45.50839" lon="13.96982">
        <ele>627</ele>
        <time>2016-07-12T18:25:58Z</time>
      </trkpt>
      <trkpt lat="45.50836" lon="13.96983">
        <ele>627</ele>
        <time>2016-07-12T18:27:58Z</time>
      </trkpt>
      <trkpt lat="45.50832" lon="13.96985">
        <ele>626</ele>
        <time>2016-07-12T18:29:58Z</time>
      </trkpt>
      <trkpt lat="45.50828" lon="13.96986">
        <ele>626</ele>
        <time>2016-07-12T18:31:58Z</time>
      </trkpt>
      <trkpt lat="45.50824" lon="13.96989">
        <ele>625</ele>
        <time>2016-07-12T18:33:58Z</time>
      </trkpt>
      <trkpt lat="45.5082" lon="13.96993">
        <ele>625</ele>
        <time>2016-07-12T18:35:58Z</time>
      </trkpt>
      <trkpt lat="45.50814" lon="13.96999">
        <ele>625</ele>
        <time>2016-07-12T18:37:58Z</time>
      </trkpt>
      <trkpt lat="45.50773" lon="13.97062">
        <ele>629</ele>
        <time>2016-07-12T18:39:58Z</time>
      </trkpt>
      <trkpt lat="45.50768" lon="13.97069">
        <ele>629</ele>
        <time>2016-07-12T18:41:58Z</time>
      </trkpt>
      <trkpt lat="45.50763" lon="13.97077">
        <ele>630</ele>
        <time>2016-07-12T18:43:58Z</time>
      </trkpt>
      <trkpt lat="45.50757" lon="13.97086">
        <ele>630</ele>
        <time>2016-07-12T18:45:58Z</time>
      </trkpt>
      <trkpt lat="45.50752" lon="13.97094">
        <ele>630</ele>
        <time>2016-07-12T18:47:58Z</time>
      </trkpt>
      <trkpt lat="45.50748" lon="13.97102">
        <ele>630</ele>
        <time>2016-07-12T18:49:58Z</time>
      </trkpt>
      <trkpt lat="45.50745" lon="13.97109">
        <ele>631</ele>
        <time>2016-07-12T18:51:58Z</time>
      </trkpt>
      <trkpt lat="45.50744" lon="13.97111">
        <ele>631</ele>
        <time>2016-07-12T18:53:58Z</time>
      </trkpt>
      <trkpt lat="45.5074" lon="13.9712">
        <ele>631</ele>
        <time>2016-07-12T18:55:58Z</time>
      </trkpt>
      <trkpt lat="45.50736" lon="13.9713">
        <ele>631</ele>
        <time>2016-07-12T18:57:58Z</time>
      </trkpt>
      <trkpt lat="45.50733" lon="13.97139">
        <ele>631</ele>
        <time>2016-07-12T18:59:58Z</time>
      </trkpt>
      <trkpt lat="45.5073" lon="13.97149">
        <ele>632</ele>
        <time>2016-07-12T19:01:58Z</time>
      </trkpt>
      <trkpt lat="45.50727" lon="13.97159">
        <ele>632</ele>
        <time>2016-07-12T19:03:58Z</time>
      </trkpt>
      <trkpt lat="45.50705" lon="13.97231">
        <ele>635</ele>
        <time>2016-07-12T19:05:58Z</time>
      </trkpt>
      <trkpt lat="45.50702" lon="13.97242">
        <ele>635</ele>
        <time>2016-07-12T19:07:58Z</time>
      </trkpt>
      <trkpt lat="45.507" lon="13.97251">
        <ele>636</ele>
        <time>2016-07-12T19:09:58Z</time>
      </trkpt>
      <trkpt lat="45.50698" lon="13.97259">
        <ele>636</ele>
        <time>2016-07-12T19:11:58Z</time>
      </trkpt>
      <trkpt lat="45.50696" lon="13.9727">
        <ele>636</ele>
        <time>2016-07-12T19:13:58Z</time>
      </trkpt>
      <trkpt lat="45.50696" lon="13.97275">
        <ele>637</ele>
        <time>2016-07-12T19:15:58Z</time>
      </trkpt>
      <trkpt lat="45.50678" lon="13.97394">
        <ele>641</ele>
        <time>2016-07-12T19:17:58Z</time>
      </trkpt>
      <trkpt lat="45.50677" lon="13.97402">
        <ele>641</ele>
        <time>2016-07-12T19:19:58Z</time>
      </trkpt>
      <trkpt lat="45.50676" lon="13.9741">
        <ele>642</ele>
        <time>2016-07-12T19:21:58Z</time>
      </trkpt>
      <trkpt lat="45.50674" lon="13.97417">
        <ele>642</ele>
        <time>2016-07-12T19:23:58Z</time>
      </trkpt>
      <trkpt lat="45.50672" lon="13.97424">
        <ele>642</ele>
        <time>2016-07-12T19:25:58Z</time>
      </trkpt>
      <trkpt lat="45.5067" lon="13.97431">
        <ele>643</ele>
        <time>2016-07-12T19:27:58Z</time>
      </trkpt>
      <trkpt lat="45.50668" lon="13.97438">
        <ele>643</ele>
        <time>2016-07-12T19:29:58Z</time>
      </trkpt>
      <trkpt lat="45.50666" lon="13.97445">
        <ele>644</ele>
        <time>2016-07-12T19:31:58Z</time>
      </trkpt>
      <trkpt lat="45.50663" lon="13.97452">
        <ele>644</ele>
        <time>2016-07-12T19:33:58Z</time>
      </trkpt>
      <trkpt lat="45.50654" lon="13.97469">
        <ele>644</ele>
        <time>2016-07-12T19:35:58Z</time>
      </trkpt>
      <trkpt lat="45.50647" lon="13.97481">
        <ele>643</ele>
        <time>2016-07-12T19:37:58Z</time>
      </trkpt>
      <trkpt lat="45.50631" lon="13.97519">
        <ele>643</ele>
        <time>2016-07-12T19:39:58Z</time>
      </trkpt>
      <trkpt lat="45.50628" lon="13.97527">
        <ele>643</ele>
        <time>2016-07-12T19:41:58Z</time>
      </trkpt>
      <trkpt lat="45.50626" lon="13.97535">
        <ele>643</ele>
        <time>2016-07-12T19:43:58Z</time>
      </trkpt>
      <trkpt lat="45.50623" lon="13.97543">
        <ele>643</ele>
        <time>2016-07-12T19:45:58Z</time>
      </trkpt>
      <trkpt lat="45.50622" lon="13.97551">
        <ele>644</ele>
        <time>2016-07-12T19:47:58Z</time>
      </trkpt>
      <trkpt lat="45.50619" lon="13.9756">
        <ele>644</ele>
        <time>2016-07-12T19:49:58Z</time>
      </trkpt>
      <trkpt lat="45.50616" lon="13.97569">
        <ele>644</ele>
        <time>2016-07-12T19:51:58Z</time>
      </trkpt>
      <trkpt lat="45.50615" lon="13.97579">
        <ele>644</ele>
        <time>2016-07-12T19:53:58Z</time>
      </trkpt>
      <trkpt lat="45.50613" lon="13.97588">
        <ele>645</ele>
        <time>2016-07-12T19:55:58Z</time>
      </trkpt>
      <trkpt lat="45.50611" lon="13.97598">
        <ele>645</ele>
        <time>2016-07-12T19:57:58Z</time>
      </trkpt>
      <trkpt lat="45.506" lon="13.97728">
        <ele>653</ele>
        <time>2016-07-12T19:59:58Z</time>
      </trkpt>
      <trkpt lat="45.50599" lon="13.97732">
        <ele>653</ele>
        <time>2016-07-12T20:01:58Z</time>
      </trkpt>
      <trkpt lat="45.50598" lon="13.97737">
        <ele>653</ele>
        <time>2016-07-12T20:03:58Z</time>
      </trkpt>
      <trkpt lat="45.50597" lon="13.97741">
        <ele>653</ele>
        <time>2016-07-12T20:05:58Z</time>
      </trkpt>
      <trkpt lat="45.50596" lon="13.97745">
        <ele>653</ele>
        <time>2016-07-12T20:07:58Z</time>
      </trkpt>
      <trkpt lat="45.50595" lon="13.97749">
        <ele>653</ele>
        <time>2016-07-12T20:09:58Z</time>
      </trkpt>
      <trkpt lat="45.50594" lon="13.97752">
        <ele>653</ele>
        <time>2016-07-12T20:11:58Z</time>
      </trkpt>
      <trkpt lat="45.50592" lon="13.97756">
        <ele>653</ele>
        <time>2016-07-12T20:13:58Z</time>
      </trkpt>
      <trkpt lat="45.50591" lon="13.9776">
        <ele>654</ele>
        <time>2016-07-12T20:15:58Z</time>
      </trkpt>
      <trkpt lat="45.50589" lon="13.97764">
        <ele>654</ele>
        <time>2016-07-12T20:17:58Z</time>
      </trkpt>
      <trkpt lat="45.50588" lon="13.97768">
        <ele>654</ele>
        <time>2016-07-12T20:19:58Z</time>
      </trkpt>
      <trkpt lat="45.50586" lon="13.97771">
        <ele>654</ele>
        <time>2016-07-12T20:21:58Z</time>
      </trkpt>
      <trkpt lat="45.50583" lon="13.97776">
        <ele>654</ele>
        <time>2016-07-12T20:23:58Z</time>
      </trkpt>
      <trkpt lat="45.50569" lon="13.9781">
        <ele>655</ele>
        <time>2016-07-12T20:25:58Z</time>
      </trkpt>
      <trkpt lat="45.50565" lon="13.97817">
        <ele>655</ele>
        <time>2016-07-12T20:27:58Z</time>
      </trkpt>
      <trkpt lat="45.50563" lon="13.97821">
        <ele>655</ele>
        <time>2016-07-12T20:29:58Z</time>
      </trkpt>
      <trkpt lat="45.50561" lon="13.97825">
        <ele>655</ele>
        <time>2016-07-12T20:31:58Z</time>
      </trkpt>
      <trkpt lat="45.50558" lon="13.9783">
        <ele>655</ele>
        <time>2016-07-12T20:33:58Z</time>
      </trkpt>
      <trkpt lat="45.50555" lon="13.97837">
        <ele>655</ele>
        <time>2016-07-12T20:35:58Z</time>
      </trkpt>
      <trkpt lat="45.5055" lon="13.9785">
        <ele>655</ele>
        <time>2016-07-12T20:37:58Z</time>
      </trkpt>
      <trkpt lat="45.50544" lon="13.97874">
        <ele>656</ele>
        <time>2016-07-12T20:39:58Z</time>
      </trkpt>
      <trkpt lat="45.50523" lon="13.97963">
        <ele>659</ele>
        <time>2016-07-12T20:41:58Z</time>
      </trkpt>
      <trkpt lat="45.50523" lon="13.97966">
        <ele>660</ele>
        <time>2016-07-12T20:43:58Z</time>
      </trkpt>
      <trkpt lat="45.50522" lon="13.97968">
        <ele>659</ele>
        <time>2016-07-12T20:45:58Z</time>
      </trkpt>
      <trkpt lat="45.50521" lon="13.97971">
        <ele>659</ele>
        <time>2016-07-12T20:47:58Z</time>
      </trkpt>
      <trkpt lat="45.5052" lon="13.97973">
        <ele>659</ele>
        <time>2016-07-12T20:49:58Z</time>
      </trkpt>
      <trkpt lat="45.5052" lon="13.97974">
        <ele>659</ele>
        <time>2016-07-12T20:51:58Z</time>
      </trkpt>
      <trkpt lat="45.50519" lon="13.97977">
        <ele>660</ele>
        <time>2016-07-12T20:53:58Z</time>
      </trkpt>
      <trkpt lat="45.50518" lon="13.97979">
        <ele>659</ele>
        <time>2016-07-12T20:55:58Z</time>
      </trkpt>
      <trkpt lat="45.50517" lon="13.97982">
        <ele>659</ele>
        <time>2016-07-12T20:57:58Z</time>
      </trkpt>
      <trkpt lat="45.50516" lon="13.97985">
        <ele>659</ele>
        <time>2016-07-12T20:59:58Z</time>
      </trkpt>
      <trkpt lat="45.50514" lon="13.97987">
        <ele>659</ele>
        <time>2016-07-12T21:01:58Z</time>
      </trkpt>
      <trkpt lat="45.50513" lon="13.97989">
        <ele>659</ele>
        <time>2016-07-12T21:03:58Z</time>
      </trkpt>
      <trkpt lat="45.50512" lon="13.97991">
        <ele>659</ele>
        <time>2016-07-12T21:05:58Z</time>
      </trkpt>
      <trkpt lat="45.50511" lon="13.97994">
        <ele>659</ele>
        <time>2016-07-12T21:07:58Z</time>
      </trkpt>
      <trkpt lat="45.50509" lon="13.97996">
        <ele>658</ele>
        <time>2016-07-12T21:09:58Z</time>
      </trkpt>
      <trkpt lat="45.50508" lon="13.97998">
        <ele>658</ele>
        <time>2016-07-12T21:11:58Z</time>
      </trkpt>
      <trkpt lat="45.50507" lon="13.98">
        <ele>658</ele>
        <time>2016-07-12T21:13:58Z</time>
      </trkpt>
      <trkpt lat="45.50505" lon="13.98002">
        <ele>657</ele>
        <time>2016-07-12T21:15:58Z</time>
      </trkpt>
      <trkpt lat="45.50503" lon="13.98005">
        <ele>657</ele>
        <time>2016-07-12T21:17:58Z</time>
      </trkpt>
      <trkpt lat="45.505" lon="13.98009">
        <ele>657</ele>
        <time>2016-07-12T21:19:58Z</time>
      </trkpt>
      <trkpt lat="45.50498" lon="13.98013">
        <ele>657</ele>
        <time>2016-07-12T21:21:58Z</time>
      </trkpt>
      <trkpt lat="45.50495" lon="13.98017">
        <ele>656</ele>
        <time>2016-07-12T21:23:58Z</time>
      </trkpt>
      <trkpt lat="45.50493" lon="13.98021">
        <ele>656</ele>
        <time>2016-07-12T21:25:58Z</time>
      </trkpt>
      <trkpt lat="45.50491" lon="13.98025">
        <ele>656</ele>
        <time>2016-07-12T21:27:58Z</time>
      </trkpt>
      <trkpt lat="45.50489" lon="13.9803">
        <ele>656</ele>
        <time>2016-07-12T21:29:58Z</time>
      </trkpt>
      <trkpt lat="45.50486" lon="13.98034">
        <ele>656</ele>
        <time>2016-07-12T21:31:58Z</time>
      </trkpt>
      <trkpt lat="45.50484" lon="13.98038">
        <ele>656</ele>
        <time>2016-07-12T21:33:58Z</time>
      </trkpt>
      <trkpt lat="45.50482" lon="13.98042">
        <ele>656</ele>
        <time>2016-07-12T21:35:58Z</time>
      </trkpt>
      <trkpt lat="45.5048" lon="13.98047">
        <ele>656</ele>
        <time>2016-07-12T21:37:58Z</time>
      </trkpt>
      <trkpt lat="45.50478" lon="13.98051">
        <ele>656</ele>
        <time>2016-07-12T21:39:58Z</time>
      </trkpt>
      <trkpt lat="45.50476" lon="13.98055">
        <ele>656</ele>
        <time>2016-07-12T21:41:58Z</time>
      </trkpt>
      <trkpt lat="45.50474" lon="13.9806">
        <ele>656</ele>
        <time>2016-07-12T21:43:58Z</time>
      </trkpt>
      <trkpt lat="45.50473" lon="13.98064">
        <ele>656</ele>
        <time>2016-07-12T21:45:58Z</time>
      </trkpt>
      <trkpt lat="45.50471" lon="13.98069">
        <ele>656</ele>
        <time>2016-07-12T21:47:58Z</time>
      </trkpt>
      <trkpt lat="45.50469" lon="13.98073">
        <ele>656</ele>
        <time>2016-07-12T21:49:58Z</time>
      </trkpt>
      <trkpt lat="45.50464" lon="13.98085">
        <ele>656</ele>
        <time>2016-07-12T21:51:58Z</time>
      </trkpt>
      <trkpt lat="45.50449" lon="13.98131">
        <ele>654</ele>
        <time>2016-07-12T21:53:58Z</time>
      </trkpt>
      <trkpt lat="45.50444" lon="13.98152">
        <ele>654</ele>
        <time>2016-07-12T21:55:58Z</time>
      </trkpt>
      <trkpt lat="45.50438" lon="13.98188">
        <ele>654</ele>
        <time>2016-07-12T21:57:58Z</time>
      </trkpt>
      <trkpt lat="45.50427" lon="13.98277">
        <ele>654</ele>
        <time>2016-07-12T21:59:58Z</time>
      </trkpt>
      <trkpt lat="45.50416" lon="13.98377">
        <ele>652</ele>
        <time>2016-07-12T22:01:58Z</time>
      </trkpt>
      <trkpt lat="45.50412" lon="13.98399">
        <ele>652</ele>
        <time>2016-07-12T22:03:58Z</time>
      </trkpt>
      <trkpt lat="45.50411" lon="13.98406">
        <ele>651</ele>
        <time>2016-07-12T22:05:58Z</time>
      </trkpt>
      <trkpt lat="45.5041" lon="13.9841">
        <ele>651</ele>
        <time>2016-07-12T22:07:58Z</time>
      </trkpt>
      <trkpt lat="45.5041" lon="13.98415">
        <ele>651</ele>
        <time>2016-07-12T22:09:58Z</time>
      </trkpt>
      <trkpt lat="45.50408" lon="13.9842">
        <ele>651</ele>
        <time>2016-07-12T22:11:58Z</time>
      </trkpt>
      <trkpt lat="45.50382" lon="13.98568">
        <ele>648</ele>
        <time>2016-07-12T22:13:58Z</time>
      </trkpt>
      <trkpt lat="45.50372" lon="13.98621">
        <ele>646</ele>
        <time>2016-07-12T22:15:58Z</time>
      </trkpt>
      <trkpt lat="45.50369" lon="13.98643">
        <ele>645</ele>
        <time>2016-07-12T22:17:58Z</time>
      </trkpt>
      <trkpt lat="45.50367" lon="13.9867">
        <ele>644</ele>
        <time>2016-07-12T22:19:58Z</time>
      </trkpt>
      <trkpt lat="45.50369" lon="13.98692">
        <ele>644</ele>
        <time>2016-07-12T22:21:58Z</time>
      </trkpt>
      <trkpt lat="45.50371" lon="13.98712">
        <ele>645</ele>
        <time>2016-07-12T22:23:58Z</time>
      </trkpt>
      <trkpt lat="45.50372" lon="13.98725">
        <ele>645</ele>
        <time>2016-07-12T22:25:58Z</time>
      </trkpt>
      <trkpt lat="45.50372" lon="13.98736">
        <ele>644</ele>
        <time>2016-07-12T22:27:58Z</time>
      </trkpt>
      <trkpt lat="45.50372" lon="13.98743">
        <ele>644</ele>
        <time>2016-07-12T22:29:58Z</time>
      </trkpt>
      <trkpt lat="45.5037" lon="13.98752">
        <ele>643</ele>
        <time>2016-07-12T22:31:58Z</time>
      </trkpt>
      <trkpt lat="45.50368" lon="13.9876">
        <ele>643</ele>
        <time>2016-07-12T22:33:58Z</time>
      </trkpt>
      <trkpt lat="45.50364" lon="13.98771">
        <ele>642</ele>
        <time>2016-07-12T22:35:58Z</time>
      </trkpt>
      <trkpt lat="45.50357" lon="13.98784">
        <ele>641</ele>
        <time>2016-07-12T22:37:58Z</time>
      </trkpt>
      <trkpt lat="45.50355" lon="13.98789">
        <ele>640</ele>
        <time>2016-07-12T22:39:58Z</time>
      </trkpt>
      <trkpt lat="45.50352" lon="13.98796">
        <ele>640</ele>
        <time>2016-07-12T22:41:58Z</time>
      </trkpt>
      <trkpt lat="45.50349" lon="13.98806">
        <ele>640</ele>
        <time>2016-07-12T22:43:58Z</time>
      </trkpt>
      <trkpt lat="45.50347" lon="13.98818">
        <ele>640</ele>
        <time>2016-07-12T22:45:58Z</time>
      </trkpt>
      <trkpt lat="45.50343" lon="13.98843">
        <ele>640</ele>
        <time>2016-07-12T22:47:58Z</time>
      </trkpt>
      <trkpt lat="45.50341" lon="13.98865">
        <ele>639</ele>
        <time>2016-07-12T22:49:58Z</time>
      </trkpt>
      <trkpt lat="45.5034" lon="13.98884">
        <ele>639</ele>
        <time>2016-07-12T22:51:58Z</time>
      </trkpt>
      <trkpt lat="45.5034" lon="13.98906">
        <ele>639</ele>
        <time>2016-07-12T22:53:58Z</time>
      </trkpt>
      <trkpt lat="45.50341" lon="13.98929">
        <ele>639</ele>
        <time>2016-07-12T22:55:58Z</time>
      </trkpt>
      <trkpt lat="45.50341" lon="13.98945">
        <ele>638</ele>
        <time>2016-07-12T22:57:58Z</time>
      </trkpt>
      <trkpt lat="45.50342" lon="13.98959">
        <ele>638</ele>
        <time>2016-07-12T22:59:58Z</time>
      </trkpt>
      <trkpt lat="45.50341" lon="13.98973">
        <ele>637</ele>
        <time>2016-07-12T23:01:58Z</time>
      </trkpt>
      <trkpt lat="45.50339" lon="13.9899">
        <ele>635</ele>
        <time>2016-07-12T23:03:58Z</time>
      </trkpt>
      <trkpt lat="45.50336" lon="13.99008">
        <ele>634</ele>
        <time>2016-07-12T23:05:58Z</time>
      </trkpt>
      <trkpt lat="45.50332" lon="13.99036">
        <ele>634</ele>
        <time>2016-07-12T23:07:58Z</time>
      </trkpt>
      <trkpt lat="45.50328" lon="13.99066">
        <ele>635</ele>
        <time>2016-07-12T23:09:58Z</time>
      </trkpt>
      <trkpt lat="45.50322" lon="13.99092">
        <ele>635</ele>
        <time>2016-07-12T23:11:58Z</time>
      </trkpt>
      <trkpt lat="45.50315" lon="13.99116">
        <ele>636</ele>
        <time>2016-07-12T23:13:58Z</time>
      </trkpt>
      <trkpt lat="45.50307" lon="13.9914">
        <ele>637</ele>
        <time>2016-07-12T23:15:58Z</time>
      </trkpt>
      <trkpt lat="45.50297" lon="13.99167">
        <ele>637</ele>
        <time>2016-07-12T23:17:58Z</time>
      </trkpt>
      <trkpt lat="45.50288" lon="13.99191">
        <ele>637</ele>
        <time>2016-07-12T23:19:58Z</time>
      </trkpt>
      <trkpt lat="45.50274" lon="13.99221">
        <ele>637</ele>
        <time>2016-07-12T23:21:58Z</time>
      </trkpt>
      <trkpt lat="45.50264" lon="13.99242">
        <ele>637</ele>
        <time>2016-07-12T23:23:58Z</time>
      </trkpt>
      <trkpt lat="45.50249" lon="13.99268">
        <ele>636</ele>
        <time>2016-07-12T23:25:58Z</time>
      </trkpt>
      <trkpt lat="45.50233" lon="13.9929">
        <ele>636</ele>
        <time>2016-07-12T23:27:58Z</time>
      </trkpt>
      <trkpt lat="45.50219" lon="13.99307">
        <ele>637</ele>
        <time>2016-07-12T23:29:58Z</time>
      </trkpt>
      <trkpt lat="45.50202" lon="13.99327">
        <ele>637</ele>
        <time>2016-07-12T23:31:58Z</time>
      </trkpt>
      <trkpt lat="45.50183" lon="13.99348">
        <ele>639</ele>
        <time>2016-07-12T23:33:58Z</time>
      </trkpt>
      <trkpt lat="45.5017" lon="13.9936">
        <ele>639</ele>
        <time>2016-07-12T23:35:58Z</time>
      </trkpt>
      <trkpt lat="45.5016" lon="13.99371">
        <ele>640</ele>
        <time>2016-07-12T23:37:58Z</time>
      </trkpt>
      <trkpt lat="45.50149" lon="13.99383">
        <ele>640</ele>
        <time>2016-07-12T23:39:58Z</time>
      </trkpt>
      <trkpt lat="45.50138" lon="13.99402">
        <ele>641</ele>
        <time>2016-07-12T23:41:58Z</time>
      </trkpt>
      <trkpt lat="45.50125" lon="13.99424">
        <ele>642</ele>
        <time>2016-07-12T23:43:58Z</time>
      </trkpt>
      <trkpt lat="45.50114" lon="13.99444">
        <ele>643</ele>
        <time>2016-07-12T23:45:58Z</time>
      </trkpt>
      <trkpt lat="45.50103" lon="13.9946">
        <ele>645</ele>
        <time>2016-07-12T23:47:58Z</time>
      </trkpt>
      <trkpt lat="45.50095" lon="13.99472">
        <ele>646</ele>
        <time>2016-07-12T23:49:58Z</time>
      </trkpt>
      <trkpt lat="45.50089" lon="13.9948">
        <ele>647</ele>
        <time>2016-07-12T23:51:58Z</time>
      </trkpt>
      <trkpt lat="45.50084" lon="13.99485">
        <ele>647</ele>
        <time>2016-07-12T23:53:58Z</time>
      </trkpt>
      <trkpt lat="45.50071" lon="13.99497">
        <ele>648</ele>
        <time>2016-07-12T23:55:58Z</time>
      </trkpt>
      <trkpt lat="45.50047" lon="13.99516">
        <ele>650</ele>
        <time>2016-07-12T23:57:58Z</time>
      </trkpt>
      <trkpt lat="45.50017" lon="13.99541">
        <ele>652</ele>
        <time>2016-07-12T23:59:58Z</time>
      </trkpt>
      <trkpt lat="45.49991" lon="13.99563">
        <ele>652</ele>
        <time>2016-07-13T00:01:58Z</time>
      </trkpt>
      <trkpt lat="45.49967" lon="13.9959">
        <ele>652</ele>
        <time>2016-07-13T00:03:58Z</time>
      </trkpt>
      <trkpt lat="45.49956" lon="13.99604">
        <ele>652</ele>
        <time>2016-07-13T00:05:58Z</time>
      </trkpt>
      <trkpt lat="45.49949" lon="13.99615">
        <ele>653</ele>
        <time>2016-07-13T00:07:58Z</time>
      </trkpt>
      <trkpt lat="45.49944" lon="13.99623">
        <ele>653</ele>
        <time>2016-07-13T00:09:58Z</time>
      </trkpt>
      <trkpt lat="45.49941" lon="13.9963">
        <ele>653</ele>
        <time>2016-07-13T00:11:58Z</time>
      </trkpt>
      <trkpt lat="45.49932" lon="13.99644">
        <ele>654</ele>
        <time>2016-07-13T00:13:58Z</time>
      </trkpt>
      <trkpt lat="45.4991" lon="13.9968">
        <ele>654</ele>
        <time>2016-07-13T00:15:58Z</time>
      </trkpt>
      <trkpt lat="45.49884" lon="13.99724">
        <ele>653</ele>
        <time>2016-07-13T00:17:58Z</time>
      </trkpt>
      <trkpt lat="45.49864" lon="13.99755">
        <ele>654</ele>
        <time>2016-07-13T00:19:58Z</time>
      </trkpt>
      <trkpt lat="45.49851" lon="13.99775">
        <ele>655</ele>
        <time>2016-07-13T00:21:58Z</time>
      </trkpt>
      <trkpt lat="45.49849" lon="13.99778">
        <ele>655</ele>
        <time>2016-07-13T00:23:58Z</time>
      </trkpt>
      <trkpt lat="45.49848" lon="13.9978">
        <ele>655</ele>
        <time>2016-07-13T00:25:58Z</time>
      </trkpt>
      <trkpt lat="45.49846" lon="13.99783">
        <ele>655</ele>
        <time>2016-07-13T00:27:58Z</time>
      </trkpt>
      <trkpt lat="45.49844" lon="13.99786">
        <ele>655</ele>
        <time>2016-07-13T00:29:58Z</time>
      </trkpt>
      <trkpt lat="45.49841" lon="13.99788">
        <ele>655</ele>
        <time>2016-07-13T00:31:58Z</time>
      </trkpt>
      <trkpt lat="45.49839" lon="13.99791">
        <ele>655</ele>
        <time>2016-07-13T00:33:58Z</time>
      </trkpt>
      <trkpt lat="45.49837" lon="13.99793">
        <ele>655</ele>
        <time>2016-07-13T00:35:58Z</time>
      </trkpt>
      <trkpt lat="45.49835" lon="13.99795">
        <ele>655</ele>
        <time>2016-07-13T00:37:58Z</time>
      </trkpt>
      <trkpt lat="45.49832" lon="13.99797">
        <ele>655</ele>
        <time>2016-07-13T00:39:58Z</time>
      </trkpt>
      <trkpt lat="45.4983" lon="13.99798">
        <ele>655</ele>
        <time>2016-07-13T00:41:58Z</time>
      </trkpt>
      <trkpt lat="45.49827" lon="13.998">
        <ele>655</ele>
        <time>2016-07-13T00:43:58Z</time>
      </trkpt>
      <trkpt lat="45.49825" lon="13.99801">
        <ele>655</ele>
        <time>2016-07-13T00:45:58Z</time>
      </trkpt>
      <trkpt lat="45.49822" lon="13.99802">
        <ele>655</ele>
        <time>2016-07-13T00:47:58Z</time>
      </trkpt>
      <trkpt lat="45.49819" lon="13.99803">
        <ele>655</ele>
        <time>2016-07-13T00:49:58Z</time>
      </trkpt>
      <trkpt lat="45.49817" lon="13.99804">
        <ele>655</ele>
        <time>2016-07-13T00:51:58Z</time>
      </trkpt>
      <trkpt lat="45.49814" lon="13.99804">
        <ele>654</ele>
        <time>2016-07-13T00:53:58Z</time>
      </trkpt>
      <trkpt lat="45.49811" lon="13.99805">
        <ele>654</ele>
        <time>2016-07-13T00:55:58Z</time>
      </trkpt>
      <trkpt lat="45.49809" lon="13.99805">
        <ele>654</ele>
        <time>2016-07-13T00:57:58Z</time>
      </trkpt>
      <trkpt lat="45.49806" lon="13.99805">
        <ele>654</ele>
        <time>2016-07-13T00:59:58Z</time>
      </trkpt>
      <trkpt lat="45.49804" lon="13.99805">
        <ele>654</ele>
        <time>2016-07-13T01:01:58Z</time>
      </trkpt>
      <trkpt lat="45.49792" lon="13.99804">
        <ele>653</ele>
        <time>2016-07-13T01:03:58Z</time>
      </trkpt>
      <trkpt lat="45.49784" lon="13.99805">
        <ele>653</ele>
        <time>2016-07-13T01:05:58Z</time>
      </trkpt>
      <trkpt lat="45.49776" lon="13.99807">
        <ele>652</ele>
        <time>2016-07-13T01:07:58Z</time>
      </trkpt>
      <trkpt lat="45.49771" lon="13.99809">
        <ele>652</ele>
        <time>2016-07-13T01:09:58Z</time>
      </trkpt>
      <trkpt lat="45.49765" lon="13.99813">
        <ele>653</ele>
        <time>2016-07-13T01:11:58Z</time>
      </trkpt>
      <trkpt lat="45.49758" lon="13.9982">
        <ele>653</ele>
        <time>2016-07-13T01:13:58Z</time>
      </trkpt>
      <trkpt lat="45.49753" lon="13.99827">
        <ele>654</ele>
        <time>2016-07-13T01:15:58Z</time>
      </trkpt>
      <trkpt lat="45.49747" lon="13.99838">
        <ele>655</ele>
        <time>2016-07-13T01:17:58Z</time>
      </trkpt>
      <trkpt lat="45.4974" lon="13.99854">
        <ele>655</ele>
        <time>2016-07-13T01:19:58Z</time>
      </trkpt>
      <trkpt lat="45.49733" lon="13.99875">
        <ele>656</ele>
        <time>2016-07-13T01:21:58Z</time>
      </trkpt>
      <trkpt lat="45.49727" lon="13.99894">
        <ele>657</ele>
        <time>2016-07-13T01:23:58Z</time>
      </trkpt>
      <trkpt lat="45.49721" lon="13.99915">
        <ele>658</ele>
        <time>2016-07-13T01:25:58Z</time>
      </trkpt>
      <trkpt lat="45.49716" lon="13.99932">
        <ele>658</ele>
        <time>2016-07-13T01:27:58Z</time>
      </trkpt>
      <trkpt lat="45.49711" lon="13.99944">
        <ele>658</ele>
        <time>2016-07-13T01:29:58Z</time>
      </trkpt>
      <trkpt lat="45.49705" lon="13.99954">
        <ele>658</ele>
        <time>2016-07-13T01:31:58Z</time>
      </trkpt>
      <trkpt lat="45.49693" lon="13.99975">
        <ele>658</ele>
        <time>2016-07-13T01:33:58Z</time>
      </trkpt>
      <trkpt lat="45.49689" lon="13.99983">
        <ele>659</ele>
        <time>2016-07-13T01:35:58Z</time>
      </trkpt>
      <trkpt lat="45.49683" lon="13.99994">
        <ele>659</ele>
        <time>2016-07-13T01:37:58Z</time>
      </trkpt>
      <trkpt lat="45.49676" lon="14.00008">
        <ele>659</ele>
        <time>2016-07-13T01:39:58Z</time>
      </trkpt>
      <trkpt lat="45.49671" lon="14.0002">
        <ele>659</ele>
        <time>2016-07-13T01:41:58Z</time>
      </trkpt>
      <trkpt lat="45.49668" lon="14.00034">
        <ele>659</ele>
        <time>2016-07-13T01:43:58Z</time>
      </trkpt>
      <trkpt lat="45.49666" lon="14.00043">
        <ele>659</ele>
        <time>2016-07-13T01:45:58Z</time>
      </trkpt>
      <trkpt lat="45.49664" lon="14.00055">
        <ele>660</ele>
        <time>2016-07-13T01:47:58Z</time>
      </trkpt>
      <trkpt lat="45.49663" lon="14.00068">
        <ele>660</ele>
        <time>2016-07-13T01:49:58Z</time>
      </trkpt>
      <trkpt lat="45.49662" lon="14.00086">
        <ele>661</ele>
        <time>2016-07-13T01:51:58Z</time>
      </trkpt>
      <trkpt lat="45.49662" lon="14.00105">
        <ele>662</ele>
        <time>2016-07-13T01:53:58Z</time>
      </trkpt>
      <trkpt lat="45.49663" lon="14.00131">
        <ele>662</ele>
        <time>2016-07-13T01:55:58Z</time>
      </trkpt>
      <trkpt lat="45.49665" lon="14.00155">
        <ele>663</ele>
        <time>2016-07-13T01:57:58Z</time>
      </trkpt>
      <trkpt lat="45.49666" lon="14.00188">
        <ele>664</ele>
        <time>2016-07-13T01:59:58Z</time>
      </trkpt>
      <trkpt lat="45.49668" lon="14.00215">
        <ele>665</ele>
        <time>2016-07-13T02:01:58Z</time>
      </trkpt>
      <trkpt lat="45.49669" lon="14.00221">
        <ele>666</ele>
        <time>2016-07-13T02:03:58Z</time>
      </trkpt>
      <trkpt lat="45.4967" lon="14.00227">
        <ele>666</ele>
        <time>2016-07-13T02:05:58Z</time>
      </trkpt>
      <trkpt lat="45.49672" lon="14.00232">
        <ele>667</ele>
        <time>2016-07-13T02:07:58Z</time>
      </trkpt>
      <trkpt lat="45.49673" lon="14.00241">
        <ele>667</ele>
        <time>2016-07-13T02:09:58Z</time>
      </trkpt>
      <trkpt lat="45.49674" lon="14.00247">
        <ele>668</ele>
        <time>2016-07-13T02:11:58Z</time>
      </trkpt>
      <trkpt lat="45.49676" lon="14.00255">
        <ele>668</ele>
        <time>2016-07-13T02:13:58Z</time>
      </trkpt>
      <trkpt lat="45.49677" lon="14.00262">
        <ele>668</ele>
        <time>2016-07-13T02:15:58Z</time>
      </trkpt>
      <trkpt lat="45.49677" lon="14.00269">
        <ele>668</ele>
        <time>2016-07-13T02:17:58Z</time>
      </trkpt>
      <trkpt lat="45.49677" lon="14.00277">
        <ele>669</ele>
        <time>2016-07-13T02:19:58Z</time>
      </trkpt>
      <trkpt lat="45.49677" lon="14.00287">
        <ele>669</ele>
        <time>2016-07-13T02:21:58Z</time>
      </trkpt>
      <trkpt lat="45.49677" lon="14.00295">
        <ele>669</ele>
        <time>2016-07-13T02:23:58Z</time>
      </trkpt>
      <trkpt lat="45.49677" lon="14.00304">
        <ele>669</ele>
        <time>2016-07-13T02:25:58Z</time>
      </trkpt>
      <trkpt lat="45.49676" lon="14.0031">
        <ele>669</ele>
        <time>2016-07-13T02:27:58Z</time>
      </trkpt>
      <trkpt lat="45.49676" lon="14.00314">
        <ele>669</ele>
        <time>2016-07-13T02:29:58Z</time>
      </trkpt>
      <trkpt lat="45.49677" lon="14.0032">
        <ele>669</ele>
        <time>2016-07-13T02:31:58Z</time>
      </trkpt>
      <trkpt lat="45.49677" lon="14.00324">
        <ele>669</ele>
        <time>2016-07-13T02:33:58Z</time>
      </trkpt>
      <trkpt lat="45.49678" lon="14.00329">
        <ele>669</ele>
        <time>2016-07-13T02:35:58Z</time>
      </trkpt>
      <trkpt lat="45.49684" lon="14.00345">
        <ele>670</ele>
        <time>2016-07-13T02:37:58Z</time>
      </trkpt>
      <trkpt lat="45.49693" lon="14.00366">
        <ele>671</ele>
        <time>2016-07-13T02:39:58Z</time>
      </trkpt>
      <trkpt lat="45.49701" lon="14.00382">
        <ele>672</ele>
        <time>2016-07-13T02:41:58Z</time>
      </trkpt>
      <trkpt lat="45.49705" lon="14.00389">
        <ele>673</ele>
        <time>2016-07-13T02:43:58Z</time>
      </trkpt>
      <trkpt lat="45.49709" lon="14.00394">
        <ele>673</ele>
        <time>2016-07-13T02:45:58Z</time>
      </trkpt>
      <trkpt lat="45.49719" lon="14.00404">
        <ele>674</ele>
        <time>2016-07-13T02:47:58Z</time>
      </trkpt>
      <trkpt lat="45.4973" lon="14.00413">
        <ele>675</ele>
        <time>2016-07-13T02:49:58Z</time>
      </trkpt>
      <trkpt lat="45.4974" lon="14.0042">
        <ele>676</ele>
        <time>2016-07-13T02:51:58Z</time>
      </trkpt>
      <trkpt lat="45.49747" lon="14.00424">
        <ele>676</ele>
        <time>2016-07-13T02:53:58Z</time>
      </trkpt>
      <trkpt lat="45.49755" lon="14.00429">
        <ele>676</ele>
        <time>2016-07-13T02:55:58Z</time>
      </trkpt>
      <trkpt lat="45.49762" lon="14.00434">
        <ele>676</ele>
        <time>2016-07-13T02:57:58Z</time>
      </trkpt>
      <trkpt lat="45.49769" lon="14.00439">
        <ele>677</ele>
        <time>2016-07-13T02:59:58Z</time>
      </trkpt>
      <trkpt lat="45.49776" lon="14.00444">
        <ele>677</ele>
        <time>2016-07-13T03:01:58Z</time>
      </trkpt>
      <trkpt lat="45.49783" lon="14.00449">
        <ele>677</ele>
        <time>2016-07-13T03:03:58Z</time>
      </trkpt>
      <trkpt lat="45.4979" lon="14.00453">
        <ele>678</ele>
        <time>2016-07-13T03:05:58Z</time>
      </trkpt>
      <trkpt lat="45.49796" lon="14.00458">
        <ele>678</ele>
        <time>2016-07-13T03:07:58Z</time>
      </trkpt>
      <trkpt lat="45.49813" lon="14.00476">
        <ele>678</ele>
        <time>2016-07-13T03:09:58Z</time>
      </trkpt>
      <trkpt lat="45.49832" lon="14.00498">
        <ele>678</ele>
        <time>2016-07-13T03:11:58Z</time>
      </trkpt>
      <trkpt lat="45.49838" lon="14.00505">
        <ele>678</ele>
        <time>2016-07-13T03:13:58Z</time>
      </trkpt>
      <trkpt lat="45.49844" lon="14.00513">
        <ele>678</ele>
        <time>2016-07-13T03:15:58Z</time>
      </trkpt>
      <trkpt lat="45.4985" lon="14.00524">
        <ele>678</ele>
        <time>2016-07-13T03:17:58Z</time>
      </trkpt>
      <trkpt lat="45.49853" lon="14.00529">
        <ele>678</ele>
        <time>2016-07-13T03:19:58Z</time>
      </trkpt>
      <trkpt lat="45.49856" lon="14.00535">
        <ele>678</ele>
        <time>2016-07-13T03:21:58Z</time>
      </trkpt>
      <trkpt lat="45.49859" lon="14.0054">
        <ele>678</ele>
        <time>2016-07-13T03:23:58Z</time>
      </trkpt>
      <trkpt lat="45.49861" lon="14.00545">
        <ele>677</ele>
        <time>2016-07-13T03:25:58Z</time>
      </trkpt>
      <trkpt lat="45.49886" lon="14.00602">
        <ele>675</ele>
        <time>2016-07-13T03:27:58Z</time>
      </trkpt>
      <trkpt lat="45.49904" lon="14.0064">
        <ele>673</ele>
        <time>2016-07-13T03:29:58Z</time>
      </trkpt>
      <trkpt lat="45.49922" lon="14.00677">
        <ele>671</ele>
        <time>2016-07-13T03:31:58Z</time>
      </trkpt>
      <trkpt lat="45.49944" lon="14.00718">
        <ele>667</ele>
        <time>2016-07-13T03:33:58Z</time>
      </trkpt>
      <trkpt lat="45.49968" lon="14.00762">
        <ele>664</ele>
        <time>2016-07-13T03:35:58Z</time>
      </trkpt>
      <trkpt lat="45.49984" lon="14.00794">
        <ele>662</ele>
        <time>2016-07-13T03:37:58Z</time>
      </trkpt>
      <trkpt lat="45.49999" lon="14.0082">
        <ele>661</ele>
        <time>2016-07-13T03:39:58Z</time>
      </trkpt>
      <trkpt lat="45.5" lon="14.00823">
        <ele>661</ele>
        <time>2016-07-13T03:41:58Z</time>
      </trkpt>
      <trkpt lat="45.50002" lon="14.00826">
        <ele>661</ele>
        <time>2016-07-13T03:43:58Z</time>
      </trkpt>
      <trkpt lat="45.50003" lon="14.00828">
        <ele>660</ele>
        <time>2016-07-13T03:45:58Z</time>
      </trkpt>
      <trkpt lat="45.50005" lon="14.00831">
        <ele>660</ele>
        <time>2016-07-13T03:47:58Z</time>
      </trkpt>
      <trkpt lat="45.50006" lon="14.00834">
        <ele>660</ele>
        <time>2016-07-13T03:49:58Z</time>
      </trkpt>
      <trkpt lat="45.50007" lon="14.00837">
        <ele>660</ele>
        <time>2016-07-13T03:51:58Z</time>
      </trkpt>
      <trkpt lat="45.50008" lon="14.0084">
        <ele>660</ele>
        <time>2016-07-13T03:53:58Z</time>
      </trkpt>
      <trkpt lat="45.50009" lon="14.00844">
        <ele>660</ele>
        <time>2016-07-13T03:55:58Z</time>
      </trkpt>
      <trkpt lat="45.5001" lon="14.00847">
        <ele>660</ele>
        <time>2016-07-13T03:57:58Z</time>
      </trkpt>
      <trkpt lat="45.5001" lon="14.0085">
        <ele>660</ele>
        <time>2016-07-13T03:59:58Z</time>
      </trkpt>
      <trkpt lat="45.50011" lon="14.00854">
        <ele>660</ele>
        <time>2016-07-13T04:01:58Z</time>
      </trkpt>
      <trkpt lat="45.50011" lon="14.00857">
        <ele>660</ele>
        <time>2016-07-13T04:03:58Z</time>
      </trkpt>
      <trkpt lat="45.50012" lon="14.0086">
        <ele>660</ele>
        <time>2016-07-13T04:05:58Z</time>
      </trkpt>
      <trkpt lat="45.50012" lon="14.00864">
        <ele>660</ele>
        <time>2016-07-13T04:07:58Z</time>
      </trkpt>
      <trkpt lat="45.50012" lon="14.00867">
        <ele>660</ele>
        <time>2016-07-13T04:09:58Z</time>
      </trkpt>
      <trkpt lat="45.50012" lon="14.0087">
        <ele>660</ele>
        <time>2016-07-13T04:11:58Z</time>
      </trkpt>
      <trkpt lat="45.50012" lon="14.00873">
        <ele>660</ele>
        <time>2016-07-13T04:13:58Z</time>
      </trkpt>
      <trkpt lat="45.50012" lon="14.00877">
        <ele>660</ele>
        <time>2016-07-13T04:15:58Z</time>
      </trkpt>
      <trkpt lat="45.50011" lon="14.0088">
        <ele>660</ele>
        <time>2016-07-13T04:17:58Z</time>
      </trkpt>
      <trkpt lat="45.49996" lon="14.00936">
        <ele>661</ele>
        <time>2016-07-13T04:19:58Z</time>
      </trkpt>
      <trkpt lat="45.49969" lon="14.01054">
        <ele>661</ele>
        <time>2016-07-13T04:21:58Z</time>
      </trkpt>
      <trkpt lat="45.49968" lon="14.01061">
        <ele>661</ele>
        <time>2016-07-13T04:23:58Z</time>
      </trkpt>
      <trkpt lat="45.49966" lon="14.01068">
        <ele>661</ele>
        <time>2016-07-13T04:25:58Z</time>
      </trkpt>
      <trkpt lat="45.49965" lon="14.01075">
        <ele>661</ele>
        <time>2016-07-13T04:27:58Z</time>
      </trkpt>
      <trkpt lat="45.49963" lon="14.01082">
        <ele>662</ele>
        <time>2016-07-13T04:29:58Z</time>
      </trkpt>
      <trkpt lat="45.49962" lon="14.01089">
        <ele>662</ele>
        <time>2016-07-13T04:31:58Z</time>
      </trkpt>
      <trkpt lat="45.49961" lon="14.01096">
        <ele>662</ele>
        <time>2016-07-13T04:33:58Z</time>
      </trkpt>
      <trkpt lat="45.4996" lon="14.01103">
        <ele>662</ele>
        <time>2016-07-13T04:35:58Z</time>
      </trkpt>
      <trkpt lat="45.49959" lon="14.0111">
        <ele>661</ele>
        <time>2016-07-13T04:37:58Z</time>
      </trkpt>
      <trkpt lat="45.49958" lon="14.01116">
        <ele>661</ele>
        <time>2016-07-13T04:39:58Z</time>
      </trkpt>
      <trkpt lat="45.49957" lon="14.01123">
        <ele>661</ele>
        <time>2016-07-13T04:41:58Z</time>
      </trkpt>
      <trkpt lat="45.49956" lon="14.0113">
        <ele>661</ele>
        <time>2016-07-13T04:43:58Z</time>
      </trkpt>
      <trkpt lat="45.49956" lon="14.01133">
        <ele>661</ele>
        <time>2016-07-13T04:45:58Z</time>
      </trkpt>
      <trkpt lat="45.49956" lon="14.01136">
        <ele>661</ele>
        <time>2016-07-13T04:47:58Z</time>
      </trkpt>
      <trkpt lat="45.49955" lon="14.01139">
        <ele>661</ele>
        <time>2016-07-13T04:49:58Z</time>
      </trkpt>
      <trkpt lat="45.49955" lon="14.01142">
        <ele>661</ele>
        <time>2016-07-13T04:51:58Z</time>
      </trkpt>
      <trkpt lat="45.49954" lon="14.01145">
        <ele>661</ele>
        <time>2016-07-13T04:53:58Z</time>
      </trkpt>
      <trkpt lat="45.49953" lon="14.01147">
        <ele>661</ele>
        <time>2016-07-13T04:55:58Z</time>
      </trkpt>
      <trkpt lat="45.49952" lon="14.0115">
        <ele>661</ele>
        <time>2016-07-13T04:57:58Z</time>
      </trkpt>
      <trkpt lat="45.49951" lon="14.01153">
        <ele>661</ele>
        <time>2016-07-13T04:59:58Z</time>
      </trkpt>
      <trkpt lat="45.4995" lon="14.01155">
        <ele>661</ele>
        <time>2016-07-13T05:01:58Z</time>
      </trkpt>
      <trkpt lat="45.49948" lon="14.01158">
        <ele>662</ele>
        <time>2016-07-13T05:03:58Z</time>
      </trkpt>
      <trkpt lat="45.49947" lon="14.0116">
        <ele>662</ele>
        <time>2016-07-13T05:05:58Z</time>
      </trkpt>
      <trkpt lat="45.49946" lon="14.01163">
        <ele>662</ele>
        <time>2016-07-13T05:07:58Z</time>
      </trkpt>
      <trkpt lat="45.49944" lon="14.01165">
        <ele>662</ele>
        <time>2016-07-13T05:09:58Z</time>
      </trkpt>
      <trkpt lat="45.49942" lon="14.01167">
        <ele>662</ele>
        <time>2016-07-13T05:11:58Z</time>
      </trkpt>
      <trkpt lat="45.49941" lon="14.01169">
        <ele>662</ele>
        <time>2016-07-13T05:13:58Z</time>
      </trkpt>
      <trkpt lat="45.49939" lon="14.0117">
        <ele>662</ele>
        <time>2016-07-13T05:15:58Z</time>
      </trkpt>
      <trkpt lat="45.49937" lon="14.01172">
        <ele>662</ele>
        <time>2016-07-13T05:17:58Z</time>
      </trkpt>
      <trkpt lat="45.49935" lon="14.01174">
        <ele>662</ele>
        <time>2016-07-13T05:19:58Z</time>
      </trkpt>
      <trkpt lat="45.49933" lon="14.01175">
        <ele>662</ele>
        <time>2016-07-13T05:21:58Z</time>
      </trkpt>
      <trkpt lat="45.49931" lon="14.01176">
        <ele>662</ele>
        <time>2016-07-13T05:23:58Z</time>
      </trkpt>
      <trkpt lat="45.49928" lon="14.01177">
        <ele>662</ele>
        <time>2016-07-13T05:25:58Z</time>
      </trkpt>
      <trkpt lat="45.49926" lon="14.01178">
        <ele>662</ele>
        <time>2016-07-13T05:27:58Z</time>
      </trkpt>
      <trkpt lat="45.49861" lon="14.012">
        <ele>668</ele>
        <time>2016-07-13T05:29:58Z</time>
      </trkpt>
      <trkpt lat="45.49858" lon="14.01202">
        <ele>668</ele>
        <time>2016-07-13T05:31:58Z</time>
      </trkpt>
      <trkpt lat="45.49855" lon="14.01205">
        <ele>668</ele>
        <time>2016-07-13T05:33:58Z</time>
      </trkpt>
      <trkpt lat="45.49852" lon="14.01207">
        <ele>668</ele>
        <time>2016-07-13T05:35:58Z</time>
      </trkpt>
      <trkpt lat="45.49849" lon="14.0121">
        <ele>668</ele>
        <time>2016-07-13T05:37:58Z</time>
      </trkpt>
      <trkpt lat="45.49846" lon="14.01213">
        <ele>668</ele>
        <time>2016-07-13T05:39:58Z</time>
      </trkpt>
      <trkpt lat="45.49843" lon="14.01215">
        <ele>668</ele>
        <time>2016-07-13T05:41:58Z</time>
      </trkpt>
      <trkpt lat="45.49841" lon="14.01219">
        <ele>668</ele>
        <time>2016-07-13T05:43:58Z</time>
      </trkpt>
      <trkpt lat="45.49838" lon="14.01222">
        <ele>668</ele>
        <time>2016-07-13T05:45:58Z</time>
      </trkpt>
      <trkpt lat="45.49836" lon="14.01225">
        <ele>668</ele>
        <time>2016-07-13T05:47:58Z</time>
      </trkpt>
      <trkpt lat="45.49833" lon="14.01229">
        <ele>668</ele>
        <time>2016-07-13T05:49:58Z</time>
      </trkpt>
      <trkpt lat="45.49831" lon="14.01232">
        <ele>668</ele>
        <time>2016-07-13T05:51:58Z</time>
      </trkpt>
      <trkpt lat="45.49829" lon="14.01236">
        <ele>667</ele>
        <time>2016-07-13T05:53:58Z</time>
      </trkpt>
      <trkpt lat="45.49826" lon="14.0124">
        <ele>668</ele>
        <time>2016-07-13T05:55:58Z</time>
      </trkpt>
      <trkpt lat="45.49824" lon="14.01244">
        <ele>668</ele>
        <time>2016-07-13T05:57:58Z</time>
      </trkpt>
      <trkpt lat="45.49823" lon="14.01248">
        <ele>667</ele>
        <time>2016-07-13T05:59:58Z</time>
      </trkpt>
      <trkpt lat="45.49821" lon="14.01252">
        <ele>667</ele>
        <time>2016-07-13T06:01:58Z</time>
      </trkpt>
      <trkpt lat="45.49819" lon="14.01256">
        <ele>668</ele>
        <time>2016-07-13T06:03:58Z</time>
      </trkpt>
      <trkpt lat="45.49817" lon="14.0126">
        <ele>668</ele>
        <time>2016-07-13T06:05:58Z</time>
      </trkpt>
      <trkpt lat="45.49816" lon="14.01265">
        <ele>668</ele>
        <time>2016-07-13T06:07:58Z</time>
      </trkpt>
      <trkpt lat="45.49815" lon="14.01269">
        <ele>668</ele>
        <time>2016-07-13T06:09:58Z</time>
      </trkpt>
      <trkpt lat="45.49813" lon="14.01274">
        <ele>668</ele>
        <time>2016-07-13T06:11:58Z</time>
      </trkpt>
      <trkpt lat="45.49803" lon="14.01346">
        <ele>668</ele>
        <time>2016-07-13T06:13:58Z</time>
      </trkpt>
      <trkpt lat="45.49803" lon="14.01352">
        <ele>668</ele>
        <time>2016-07-13T06:15:58Z</time>
      </trkpt>
      <trkpt lat="45.49803" lon="14.01357">
        <ele>668</ele>
        <time>2016-07-13T06:17:58Z</time>
      </trkpt>
      <trkpt lat="45.49802" lon="14.01363">
        <ele>668</ele>
        <time>2016-07-13T06:19:58Z</time>
      </trkpt>
      <trkpt lat="45.49801" lon="14.01368">
        <ele>668</ele>
        <time>2016-07-13T06:21:58Z</time>
      </trkpt>
      <trkpt lat="45.49801" lon="14.01374">
        <ele>668</ele>
        <time>2016-07-13T06:23:58Z</time>
      </trkpt>
      <trkpt lat="45.498" lon="14.01379">
        <ele>668</ele>
        <time>2016-07-13T06:25:58Z</time>
      </trkpt>
      <trkpt lat="45.49799" lon="14.01384">
        <ele>668</ele>
        <time>2016-07-13T06:27:58Z</time>
      </trkpt>
      <trkpt lat="45.49797" lon="14.0139">
        <ele>668</ele>
        <time>2016-07-13T06:29:58Z</time>
      </trkpt>
      <trkpt lat="45.49796" lon="14.01395">
        <ele>668</ele>
        <time>2016-07-13T06:31:58Z</time>
      </trkpt>
      <trkpt lat="45.49795" lon="14.014">
        <ele>668</ele>
        <time>2016-07-13T06:33:58Z</time>
      </trkpt>
      <trkpt lat="45.49793" lon="14.01405">
        <ele>668</ele>
        <time>2016-07-13T06:35:58Z</time>
      </trkpt>
      <trkpt lat="45.49791" lon="14.0141">
        <ele>668</ele>
        <time>2016-07-13T06:37:58Z</time>
      </trkpt>
      <trkpt lat="45.4979" lon="14.01414">
        <ele>668</ele>
        <time>2016-07-13T06:39:58Z</time>
      </trkpt>
      <trkpt lat="45.49789" lon="14.01418">
        <ele>669</ele>
        <time>2016-07-13T06:41:58Z</time>
      </trkpt>
      <trkpt lat="45.49787" lon="14.01422">
        <ele>669</ele>
        <time>2016-07-13T06:43:58Z</time>
      </trkpt>
      <trkpt lat="45.49785" lon="14.01426">
        <ele>670</ele>
        <time>2016-07-13T06:45:58Z</time>
      </trkpt>
      <trkpt lat="45.49784" lon="14.0143">
        <ele>670</ele>
        <time>2016-07-13T06:47:58Z</time>
      </trkpt>
      <trkpt lat="45.49783" lon="14.01434">
        <ele>670</ele>
        <time>2016-07-13T06:49:58Z</time>
      </trkpt>
      <trkpt lat="45.49782" lon="14.01438">
        <ele>670</ele>
        <time>2016-07-13T06:51:58Z</time>
      </trkpt>
      <trkpt lat="45.4978" lon="14.01442">
        <ele>671</ele>
        <time>2016-07-13T06:53:58Z</time>
      </trkpt>
      <trkpt lat="45.49779" lon="14.01446">
        <ele>671</ele>
        <time>2016-07-13T06:55:58Z</time>
      </trkpt>
      <trkpt lat="45.49779" lon="14.0145">
        <ele>671</ele>
        <time>2016-07-13T06:57:58Z</time>
      </trkpt>
      <trkpt lat="45.49778" lon="14.01455">
        <ele>671</ele>
        <time>2016-07-13T06:59:58Z</time>
      </trkpt>
      <trkpt lat="45.49777" lon="14.01459">
        <ele>672</ele>
        <time>2016-07-13T07:01:58Z</time>
      </trkpt>
      <trkpt lat="45.49777" lon="14.01463">
        <ele>672</ele>
        <time>2016-07-13T07:03:58Z</time>
      </trkpt>
      <trkpt lat="45.49776" lon="14.01468">
        <ele>672</ele>
        <time>2016-07-13T07:05:58Z</time>
      </trkpt>
      <trkpt lat="45.49776" lon="14.01472">
        <ele>672</ele>
        <time>2016-07-13T07:07:58Z</time>
      </trkpt>
      <trkpt lat="45.49776" lon="14.01476">
        <ele>672</ele>
        <time>2016-07-13T07:09:58Z</time>
      </trkpt>
      <trkpt lat="45.49776" lon="14.01481">
        <ele>672</ele>
        <time>2016-07-13T07:11:58Z</time>
      </trkpt>
      <trkpt lat="45.49776" lon="14.01485">
        <ele>672</ele>
        <time>2016-07-13T07:13:58Z</time>
      </trkpt>
      <trkpt lat="45.49776" lon="14.0149">
        <ele>672</ele>
        <time>2016-07-13T07:15:58Z</time>
      </trkpt>
      <trkpt lat="45.49776" lon="14.01494">
        <ele>672</ele>
        <time>2016-07-13T07:17:58Z</time>
      </trkpt>
      <trkpt lat="45.49789" lon="14.01606">
        <ele>673</ele>
        <time>2016-07-13T07:19:58Z</time>
      </trkpt>
      <trkpt lat="45.49789" lon="14.01614">
        <ele>674</ele>
        <time>2016-07-13T07:21:58Z</time>
      </trkpt>
      <trkpt lat="45.4979" lon="14.01622">
        <ele>674</ele>
        <time>2016-07-13T07:23:58Z</time>
      </trkpt>
      <trkpt lat="45.49791" lon="14.0163">
        <ele>674</ele>
        <time>2016-07-13T07:25:58Z</time>
      </trkpt>
      <trkpt lat="45.49791" lon="14.01638">
        <ele>675</ele>
        <time>2016-07-13T07:27:58Z</time>
      </trkpt>
      <trkpt lat="45.49792" lon="14.01646">
        <ele>675</ele>
        <time>2016-07-13T07:29:58Z</time>
      </trkpt>
      <trkpt lat="45.49792" lon="14.01654">
        <ele>675</ele>
        <time>2016-07-13T07:31:58Z</time>
      </trkpt>
      <trkpt lat="45.49792" lon="14.01662">
        <ele>676</ele>
        <time>2016-07-13T07:33:58Z</time>
      </trkpt>
      <trkpt lat="45.49792" lon="14.01668">
        <ele>676</ele>
        <time>2016-07-13T07:35:58Z</time>
      </trkpt>
      <trkpt lat="45.49792" lon="14.01675">
        <ele>676</ele>
        <time>2016-07-13T07:37:58Z</time>
      </trkpt>
      <trkpt lat="45.49791" lon="14.01682">
        <ele>676</ele>
        <time>2016-07-13T07:39:58Z</time>
      </trkpt>
      <trkpt lat="45.49791" lon="14.01688">
        <ele>676</ele>
        <time>2016-07-13T07:41:58Z</time>
      </trkpt>
      <trkpt lat="45.49785" lon="14.01774">
        <ele>679</ele>
        <time>2016-07-13T07:43:58Z</time>
      </trkpt>
      <trkpt lat="45.4977" lon="14.01949">
        <ele>678</ele>
        <time>2016-07-13T07:45:58Z</time>
      </trkpt>
      <trkpt lat="45.49769" lon="14.01957">
        <ele>678</ele>
        <time>2016-07-13T07:47:58Z</time>
      </trkpt>
      <trkpt lat="45.49768" lon="14.01964">
        <ele>678</ele>
        <time>2016-07-13T07:49:58Z</time>
      </trkpt>
      <trkpt lat="45.49767" lon="14.01965">
        <ele>678</ele>
        <time>2016-07-13T07:51:58Z</time>
      </trkpt>
      <trkpt lat="45.49766" lon="14.01973">
        <ele>678</ele>
        <time>2016-07-13T07:53:58Z</time>
      </trkpt>
      <trkpt lat="45.49765" lon="14.01982">
        <ele>677</ele>
        <time>2016-07-13T07:55:58Z</time>
      </trkpt>
      <trkpt lat="45.49763" lon="14.01991">
        <ele>677</ele>
        <time>2016-07-13T07:57:58Z</time>
      </trkpt>
      <trkpt lat="45.49761" lon="14.01999">
        <ele>677</ele>
        <time>2016-07-13T07:59:58Z</time>
      </trkpt>
      <trkpt lat="45.49759" lon="14.02008">
        <ele>676</ele>
        <time>2016-07-13T08:01:58Z</time>
      </trkpt>
      <trkpt lat="45.49757" lon="14.02016">
        <ele>676</ele>
        <time>2016-07-13T08:03:58Z</time>
      </trkpt>
      <trkpt lat="45.49755" lon="14.02025">
        <ele>675</ele>
        <time>2016-07-13T08:05:58Z</time>
      </trkpt>
      <trkpt lat="45.49753" lon="14.02033">
        <ele>675</ele>
        <time>2016-07-13T08:07:58Z</time>
      </trkpt>
      <trkpt lat="45.49735" lon="14.02085">
        <ele>672</ele>
        <time>2016-07-13T08:09:58Z</time>
      </trkpt>
      <trkpt lat="45.49733" lon="14.02088">
        <ele>672</ele>
        <time>2016-07-13T08:11:58Z</time>
      </trkpt>
      <trkpt lat="45.49731" lon="14.02092">
        <ele>671</ele>
        <time>2016-07-13T08:13:58Z</time>
      </trkpt>
      <trkpt lat="45.49729" lon="14.02095">
        <ele>671</ele>
        <time>2016-07-13T08:15:58Z</time>
      </trkpt>
      <trkpt lat="45.49727" lon="14.02098">
        <ele>671</ele>
        <time>2016-07-13T08:17:58Z</time>
      </trkpt>
      <trkpt lat="45.49724" lon="14.02101">
        <ele>671</ele>
        <time>2016-07-13T08:19:58Z</time>
      </trkpt>
      <trkpt lat="45.49722" lon="14.02104">
        <ele>671</ele>
        <time>2016-07-13T08:21:58Z</time>
      </trkpt>
      <trkpt lat="45.49719" lon="14.02107">
        <ele>671</ele>
        <time>2016-07-13T08:23:58Z</time>
      </trkpt>
      <trkpt lat="45.49717" lon="14.0211">
        <ele>670</ele>
        <time>2016-07-13T08:25:58Z</time>
      </trkpt>
      <trkpt lat="45.49714" lon="14.02112">
        <ele>670</ele>
        <time>2016-07-13T08:27:58Z</time>
      </trkpt>
      <trkpt lat="45.49712" lon="14.02114">
        <ele>670</ele>
        <time>2016-07-13T08:29:58Z</time>
      </trkpt>
      <trkpt lat="45.4971" lon="14.02116">
        <ele>670</ele>
        <time>2016-07-13T08:31:58Z</time>
      </trkpt>
      <trkpt lat="45.49707" lon="14.02118">
        <ele>670</ele>
        <time>2016-07-13T08:33:58Z</time>
      </trkpt>
      <trkpt lat="45.49705" lon="14.02119">
        <ele>670</ele>
        <time>2016-07-13T08:35:58Z</time>
      </trkpt>
      <trkpt lat="45.49702" lon="14.02121">
        <ele>670</ele>
        <time>2016-07-13T08:37:58Z</time>
      </trkpt>
      <trkpt lat="45.49646" lon="14.02154">
        <ele>671</ele>
        <time>2016-07-13T08:39:58Z</time>
      </trkpt>
      <trkpt lat="45.49637" lon="14.02159">
        <ele>671</ele>
        <time>2016-07-13T08:41:58Z</time>
      </trkpt>
      <trkpt lat="45.49634" lon="14.02161">
        <ele>671</ele>
        <time>2016-07-13T08:43:58Z</time>
      </trkpt>
      <trkpt lat="45.49631" lon="14.02163">
        <ele>672</ele>
        <time>2016-07-13T08:45:58Z</time>
      </trkpt>
      <trkpt lat="45.49629" lon="14.02165">
        <ele>672</ele>
        <time>2016-07-13T08:47:58Z</time>
      </trkpt>
      <trkpt lat="45.49626" lon="14.02167">
        <ele>672</ele>
        <time>2016-07-13T08:49:58Z</time>
      </trkpt>
      <trkpt lat="45.49624" lon="14.02169">
        <ele>672</ele>
        <time>2016-07-13T08:51:58Z</time>
      </trkpt>
      <trkpt lat="45.49621" lon="14.02171">
        <ele>672</ele>
        <time>2016-07-13T08:53:58Z</time>
      </trkpt>
      <trkpt lat="45.49619" lon="14.02174">
        <ele>672</ele>
        <time>2016-07-13T08:55:58Z</time>
      </trkpt>
      <trkpt lat="45.49617" lon="14.02176">
        <ele>672</ele>
        <time>2016-07-13T08:57:58Z</time>
      </trkpt>
      <trkpt lat="45.49614" lon="14.02179">
        <ele>672</ele>
        <time>2016-07-13T08:59:58Z</time>
      </trkpt>
      <trkpt lat="45.49612" lon="14.02182">
        <ele>672</ele>
        <time>2016-07-13T09:01:58Z</time>
      </trkpt>
      <trkpt lat="45.4961" lon="14.02185">
        <ele>672</ele>
        <time>2016-07-13T09:03:58Z</time>
      </trkpt>
      <trkpt lat="45.49608" lon="14.02188">
        <ele>672</ele>
        <time>2016-07-13T09:05:58Z</time>
      </trkpt>
      <trkpt lat="45.49608" lon="14.02189">
        <ele>672</ele>
        <time>2016-07-13T09:07:58Z</time>
      </trkpt>
      <trkpt lat="45.49607" lon="14.02191">
        <ele>672</ele>
        <time>2016-07-13T09:09:58Z</time>
      </trkpt>
      <trkpt lat="45.49605" lon="14.02195">
        <ele>672</ele>
        <time>2016-07-13T09:11:58Z</time>
      </trkpt>
      <trkpt lat="45.49603" lon="14.022">
        <ele>671</ele>
        <time>2016-07-13T09:13:58Z</time>
      </trkpt>
      <trkpt lat="45.496" lon="14.02209">
        <ele>671</ele>
        <time>2016-07-13T09:15:58Z</time>
      </trkpt>
      <trkpt lat="45.49594" lon="14.02231">
        <ele>669</ele>
        <time>2016-07-13T09:17:58Z</time>
      </trkpt>
      <trkpt lat="45.49589" lon="14.02247">
        <ele>668</ele>
        <time>2016-07-13T09:19:58Z</time>
      </trkpt>
      <trkpt lat="45.49587" lon="14.02254">
        <ele>667</ele>
        <time>2016-07-13T09:21:58Z</time>
      </trkpt>
      <trkpt lat="45.49582" lon="14.02263">
        <ele>667</ele>
        <time>2016-07-13T09:23:58Z</time>
      </trkpt>
      <trkpt lat="45.49565" lon="14.02292">
        <ele>667</ele>
        <time>2016-07-13T09:25:58Z</time>
      </trkpt>
      <trkpt lat="45.49516" lon="14.02371">
        <ele>668</ele>
        <time>2016-07-13T09:27:58Z</time>
      </trkpt>
      <trkpt lat="45.49509" lon="14.02383">
        <ele>668</ele>
        <time>2016-07-13T09:29:58Z</time>
      </trkpt>
      <trkpt lat="45.49505" lon="14.0239">
        <ele>668</ele>
        <time>2016-07-13T09:31:58Z</time>
      </trkpt>
      <trkpt lat="45.49501" lon="14.02396">
        <ele>668</ele>
        <time>2016-07-13T09:33:58Z</time>
      </trkpt>
      <trkpt lat="45.49499" lon="14.02404">
        <ele>668</ele>
        <time>2016-07-13T09:35:58Z</time>
      </trkpt>
      <trkpt lat="45.49496" lon="14.02412">
        <ele>668</ele>
        <time>2016-07-13T09:37:58Z</time>
      </trkpt>
      <trkpt lat="45.49492" lon="14.0243">
        <ele>667</ele>
        <time>2016-07-13T09:39:58Z</time>
      </trkpt>
      <trkpt lat="45.49488" lon="14.02449">
        <ele>666</ele>
        <time>2016-07-13T09:41:58Z</time>
      </trkpt>
      <trkpt lat="45.49485" lon="14.02465">
        <ele>666</ele>
        <time>2016-07-13T09:43:58Z</time>
      </trkpt>
      <trkpt lat="45.49484" lon="14.0247">
        <ele>665</ele>
        <time>2016-07-13T09:45:58Z</time>
      </trkpt>
      <trkpt lat="45.49481" lon="14.02478">
        <ele>665</ele>
        <time>2016-07-13T09:47:58Z</time>
      </trkpt>
      <trkpt lat="45.49478" lon="14.02484">
        <ele>666</ele>
        <time>2016-07-13T09:49:58Z</time>
      </trkpt>
      <trkpt lat="45.49473" lon="14.02495">
        <ele>666</ele>
        <time>2016-07-13T09:51:58Z</time>
      </trkpt>
      <trkpt lat="45.49466" lon="14.0251">
        <ele>666</ele>
        <time>2016-07-13T09:53:58Z</time>
      </trkpt>
      <trkpt lat="45.49462" lon="14.02516">
        <ele>666</ele>
        <time>2016-07-13T09:55:58Z</time>
      </trkpt>
      <trkpt lat="45.49461" lon="14.02521">
        <ele>666</ele>
        <time>2016-07-13T09:57:58Z</time>
      </trkpt>
      <trkpt lat="45.4946" lon="14.02526">
        <ele>666</ele>
        <time>2016-07-13T09:59:58Z</time>
      </trkpt>
      <trkpt lat="45.49459" lon="14.02531">
        <ele>666</ele>
        <time>2016-07-13T10:01:58Z</time>
      </trkpt>
      <trkpt lat="45.49459" lon="14.02536">
        <ele>665</ele>
        <time>2016-07-13T10:03:58Z</time>
      </trkpt>
      <trkpt lat="45.49459" lon="14.02549">
        <ele>664</ele>
        <time>2016-07-13T10:05:58Z</time>
      </trkpt>
      <trkpt lat="45.49459" lon="14.02557">
        <ele>663</ele>
        <time>2016-07-13T10:07:58Z</time>
      </trkpt>
      <trkpt lat="45.49458" lon="14.02564">
        <ele>663</ele>
        <time>2016-07-13T10:09:58Z</time>
      </trkpt>
      <trkpt lat="45.49456" lon="14.02576">
        <ele>662</ele>
        <time>2016-07-13T10:11:58Z</time>
      </trkpt>
      <trkpt lat="45.49453" lon="14.02589">
        <ele>662</ele>
        <time>2016-07-13T10:13:58Z</time>
      </trkpt>
      <trkpt lat="45.49449" lon="14.02602">
        <ele>662</ele>
        <time>2016-07-13T10:15:58Z</time>
      </trkpt>
      <trkpt lat="45.49443" lon="14.02618">
        <ele>662</ele>
        <time>2016-07-13T10:17:58Z</time>
      </trkpt>
      <trkpt lat="45.49438" lon="14.02627">
        <ele>663</ele>
        <time>2016-07-13T10:19:58Z</time>
      </trkpt>
      <trkpt lat="45.49422" lon="14.02661">
        <ele>664</ele>
        <time>2016-07-13T10:21:58Z</time>
      </trkpt>
      <trkpt lat="45.49379" lon="14.0275">
        <ele>664</ele>
        <time>2016-07-13T10:23:58Z</time>
      </trkpt>
      <trkpt lat="45.4937" lon="14.02768">
        <ele>664</ele>
        <time>2016-07-13T10:25:58Z</time>
      </trkpt>
      <trkpt lat="45.49365" lon="14.02777">
        <ele>664</ele>
        <time>2016-07-13T10:27:58Z</time>
      </trkpt>
      <trkpt lat="45.49355" lon="14.02795">
        <ele>663</ele>
        <time>2016-07-13T10:29:58Z</time>
      </trkpt>
      <trkpt lat="45.49338" lon="14.02821">
        <ele>663</ele>
        <time>2016-07-13T10:31:58Z</time>
      </trkpt>
      <trkpt lat="45.49303" lon="14.0287">
        <ele>662</ele>
        <time>2016-07-13T10:33:58Z</time>
      </trkpt>
      <trkpt lat="45.49225" lon="14.02978">
        <ele>657</ele>
        <time>2016-07-13T10:35:58Z</time>
      </trkpt>
      <trkpt lat="45.49221" lon="14.02983">
        <ele>657</ele>
        <time>2016-07-13T10:37:58Z</time>
      </trkpt>
      <trkpt lat="45.49217" lon="14.02988">
        <ele>657</ele>
        <time>2016-07-13T10:39:58Z</time>
      </trkpt>
      <trkpt lat="45.49213" lon="14.02993">
        <ele>657</ele>
        <time>2016-07-13T10:41:58Z</time>
      </trkpt>
      <trkpt lat="45.49209" lon="14.02998">
        <ele>657</ele>
        <time>2016-07-13T10:43:58Z</time>
      </trkpt>
      <trkpt lat="45.49205" lon="14.03002">
        <ele>657</ele>
        <time>2016-07-13T10:45:58Z</time>
      </trkpt>
      <trkpt lat="45.49184" lon="14.03019">
        <ele>658</ele>
        <time>2016-07-13T10:47:58Z</time>
      </trkpt>
      <trkpt lat="45.49158" lon="14.03041">
        <ele>660</ele>
        <time>2016-07-13T10:49:58Z</time>
      </trkpt>
      <trkpt lat="45.49152" lon="14.03047">
        <ele>661</ele>
        <time>2016-07-13T10:51:58Z</time>
      </trkpt>
      <trkpt lat="45.49147" lon="14.03052">
        <ele>662</ele>
        <time>2016-07-13T10:53:58Z</time>
      </trkpt>
      <trkpt lat="45.49142" lon="14.03059">
        <ele>662</ele>
        <time>2016-07-13T10:55:58Z</time>
      </trkpt>
      <trkpt lat="45.49137" lon="14.03067">
        <ele>662</ele>
        <time>2016-07-13T10:57:58Z</time>
      </trkpt>
      <trkpt lat="45.49134" lon="14.03075">
        <ele>662</ele>
        <time>2016-07-13T10:59:58Z</time>
      </trkpt>
      <trkpt lat="45.49129" lon="14.03088">
        <ele>662</ele>
        <time>2016-07-13T11:01:58Z</time>
      </trkpt>
      <trkpt lat="45.49126" lon="14.03099">
        <ele>661</ele>
        <time>2016-07-13T11:03:58Z</time>
      </trkpt>
      <trkpt lat="45.49124" lon="14.03108">
        <ele>661</ele>
        <time>2016-07-13T11:05:58Z</time>
      </trkpt>
      <trkpt lat="45.49103" lon="14.03194">
        <ele>656</ele>
        <time>2016-07-13T11:07:58Z</time>
      </trkpt>
      <trkpt lat="45.49099" lon="14.03208">
        <ele>655</ele>
        <time>2016-07-13T11:09:58Z</time>
      </trkpt>
      <trkpt lat="45.49095" lon="14.03222">
        <ele>655</ele>
        <time>2016-07-13T11:11:58Z</time>
      </trkpt>
      <trkpt lat="45.49091" lon="14.03236">
        <ele>654</ele>
        <time>2016-07-13T11:13:58Z</time>
      </trkpt>
      <trkpt lat="45.49087" lon="14.03249">
        <ele>654</ele>
        <time>2016-07-13T11:15:58Z</time>
      </trkpt>
      <trkpt lat="45.49082" lon="14.03263">
        <ele>654</ele>
        <time>2016-07-13T11:17:58Z</time>
      </trkpt>
      <trkpt lat="45.49078" lon="14.03277">
        <ele>655</ele>
        <time>2016-07-13T11:19:58Z</time>
      </trkpt>
      <trkpt lat="45.49073" lon="14.0329">
        <ele>655</ele>
        <time>2016-07-13T11:21:58Z</time>
      </trkpt>
      <trkpt lat="45.49069" lon="14.03303">
        <ele>655</ele>
        <time>2016-07-13T11:23:58Z</time>
      </trkpt>
      <trkpt lat="45.49065" lon="14.03315">
        <ele>656</ele>
        <time>2016-07-13T11:25:58Z</time>
      </trkpt>
      <trkpt lat="45.4906" lon="14.03328">
        <ele>656</ele>
        <time>2016-07-13T11:27:58Z</time>
      </trkpt>
      <trkpt lat="45.49006" lon="14.03491">
        <ele>652</ele>
        <time>2016-07-13T11:29:58Z</time>
      </trkpt>
      <trkpt lat="45.49004" lon="14.03498">
        <ele>652</ele>
        <time>2016-07-13T11:31:58Z</time>
      </trkpt>
      <trkpt lat="45.49001" lon="14.03504">
        <ele>652</ele>
        <time>2016-07-13T11:33:58Z</time>
      </trkpt>
      <trkpt lat="45.48998" lon="14.0351">
        <ele>652</ele>
        <time>2016-07-13T11:35:58Z</time>
      </trkpt>
      <trkpt lat="45.48995" lon="14.03516">
        <ele>652</ele>
        <time>2016-07-13T11:37:58Z</time>
      </trkpt>
      <trkpt lat="45.48992" lon="14.03523">
        <ele>652</ele>
        <time>2016-07-13T11:39:58Z</time>
      </trkpt>
      <trkpt lat="45.48989" lon="14.03529">
        <ele>652</ele>
        <time>2016-07-13T11:41:58Z</time>
      </trkpt>
      <trkpt lat="45.48986" lon="14.03535">
        <ele>652</ele>
        <time>2016-07-13T11:43:58Z</time>
      </trkpt>
      <trkpt lat="45.48982" lon="14.03541">
        <ele>652</ele>
        <time>2016-07-13T11:45:58Z</time>
      </trkpt>
      <trkpt lat="45.48979" lon="14.03547">
        <ele>652</ele>
        <time>2016-07-13T11:47:58Z</time>
      </trkpt>
      <trkpt lat="45.48975" lon="14.03552">
        <ele>652</ele>
        <time>2016-07-13T11:49:58Z</time>
      </trkpt>
      <trkpt lat="45.48972" lon="14.03558">
        <ele>652</ele>
        <time>2016-07-13T11:51:58Z</time>
      </trkpt>
      <trkpt lat="45.48967" lon="14.03565">
        <ele>652</ele>
        <time>2016-07-13T11:53:58Z</time>
      </trkpt>
      <trkpt lat="45.48963" lon="14.03573">
        <ele>652</ele>
        <time>2016-07-13T11:55:58Z</time>
      </trkpt>
      <trkpt lat="45.48959" lon="14.0358">
        <ele>652</ele>
        <time>2016-07-13T11:57:58Z</time>
      </trkpt>
      <trkpt lat="45.48955" lon="14.03588">
        <ele>652</ele>
        <time>2016-07-13T11:59:58Z</time>
      </trkpt>
      <trkpt lat="45.48952" lon="14.03595">
        <ele>652</ele>
        <time>2016-07-13T12:01:58Z</time>
      </trkpt>
      <trkpt lat="45.48948" lon="14.03603">
        <ele>652</ele>
        <time>2016-07-13T12:03:58Z</time>
      </trkpt>
      <trkpt lat="45.48944" lon="14.03611">
        <ele>652</ele>
        <time>2016-07-13T12:05:58Z</time>
      </trkpt>
      <trkpt lat="45.48941" lon="14.03619">
        <ele>652</ele>
        <time>2016-07-13T12:07:58Z</time>
      </trkpt>
      <trkpt lat="45.48937" lon="14.03627">
        <ele>651</ele>
        <time>2016-07-13T12:09:58Z</time>
      </trkpt>
      <trkpt lat="45.48934" lon="14.03635">
        <ele>651</ele>
        <time>2016-07-13T12:11:58Z</time>
      </trkpt>
      <trkpt lat="45.4893" lon="14.03643">
        <ele>651</ele>
        <time>2016-07-13T12:13:58Z</time>
      </trkpt>
      <trkpt lat="45.48859" lon="14.03806">
        <ele>650</ele>
        <time>2016-07-13T12:15:58Z</time>
      </trkpt>
      <trkpt lat="45.48772" lon="14.04018">
        <ele>647</ele>
        <time>2016-07-13T12:17:58Z</time>
      </trkpt>
      <trkpt lat="45.48765" lon="14.04035">
        <ele>647</ele>
        <time>2016-07-13T12:19:58Z</time>
      </trkpt>
      <trkpt lat="45.48763" lon="14.04041">
        <ele>646</ele>
        <time>2016-07-13T12:21:58Z</time>
      </trkpt>
      <trkpt lat="45.48761" lon="14.04047">
        <ele>646</ele>
        <time>2016-07-13T12:23:58Z</time>
      </trkpt>
      <trkpt lat="45.48759" lon="14.04053">
        <ele>646</ele>
        <time>2016-07-13T12:25:58Z</time>
      </trkpt>
      <trkpt lat="45.48757" lon="14.04059">
        <ele>646</ele>
        <time>2016-07-13T12:27:58Z</time>
      </trkpt>
      <trkpt lat="45.48756" lon="14.04065">
        <ele>646</ele>
        <time>2016-07-13T12:29:58Z</time>
      </trkpt>
      <trkpt lat="45.48754" lon="14.04071">
        <ele>645</ele>
        <time>2016-07-13T12:31:58Z</time>
      </trkpt>
      <trkpt lat="45.48752" lon="14.04078">
        <ele>645</ele>
        <time>2016-07-13T12:33:58Z</time>
      </trkpt>
      <trkpt lat="45.48751" lon="14.04085">
        <ele>645</ele>
        <time>2016-07-13T12:35:58Z</time>
      </trkpt>
      <trkpt lat="45.48749" lon="14.04092">
        <ele>645</ele>
        <time>2016-07-13T12:37:58Z</time>
      </trkpt>
      <trkpt lat="45.48748" lon="14.04099">
        <ele>645</ele>
        <time>2016-07-13T12:39:58Z</time>
      </trkpt>
      <trkpt lat="45.48747" lon="14.04107">
        <ele>645</ele>
        <time>2016-07-13T12:41:58Z</time>
      </trkpt>
      <trkpt lat="45.48738" lon="14.04154">
        <ele>645</ele>
        <time>2016-07-13T12:43:58Z</time>
      </trkpt>
      <trkpt lat="45.48734" lon="14.0418">
        <ele>645</ele>
        <time>2016-07-13T12:45:58Z</time>
      </trkpt>
      <trkpt lat="45.48732" lon="14.04204">
        <ele>645</ele>
        <time>2016-07-13T12:47:58Z</time>
      </trkpt>
      <trkpt lat="45.4873" lon="14.04228">
        <ele>645</ele>
        <time>2016-07-13T12:49:58Z</time>
      </trkpt>
      <trkpt lat="45.48729" lon="14.04276">
        <ele>644</ele>
        <time>2016-07-13T12:51:58Z</time>
      </trkpt>
      <trkpt lat="45.48729" lon="14.04326">
        <ele>643</ele>
        <time>2016-07-13T12:53:58Z</time>
      </trkpt>
      <trkpt lat="45.48729" lon="14.04332">
        <ele>643</ele>
        <time>2016-07-13T12:55:58Z</time>
      </trkpt>
      <trkpt lat="45.4873" lon="14.04343">
        <ele>643</ele>
        <time>2016-07-13T12:57:58Z</time>
      </trkpt>
      <trkpt lat="45.48731" lon="14.04353">
        <ele>643</ele>
        <time>2016-07-13T12:59:58Z</time>
      </trkpt>
      <trkpt lat="45.48733" lon="14.04361">
        <ele>642</ele>
        <time>2016-07-13T13:01:58Z</time>
      </trkpt>
      <trkpt lat="45.48736" lon="14.04377">
        <ele>641</ele>
        <time>2016-07-13T13:03:58Z</time>
      </trkpt>
      <trkpt lat="45.48738" lon="14.04387">
        <ele>640</ele>
        <time>2016-07-13T13:05:58Z</time>
      </trkpt>
      <trkpt lat="45.48738" lon="14.04399">
        <ele>640</ele>
        <time>2016-07-13T13:07:58Z</time>
      </trkpt>
      <trkpt lat="45.48738" lon="14.04413">
        <ele>640</ele>
        <time>2016-07-13T13:09:58Z</time>
      </trkpt>
      <trkpt lat="45.48737" lon="14.04428">
        <ele>640</ele>
        <time>2016-07-13T13:11:58Z</time>
      </trkpt>
      <trkpt lat="45.48736" lon="14.04439">
        <ele>640</ele>
        <time>2016-07-13T13:13:58Z</time>
      </trkpt>
      <trkpt lat="45.48735" lon="14.04449">
        <ele>640</ele>
        <time>2016-07-13T13:15:58Z</time>
      </trkpt>
      <trkpt lat="45.48733" lon="14.04459">
        <ele>641</ele>
        <time>2016-07-13T13:17:58Z</time>
      </trkpt>
      <trkpt lat="45.48731" lon="14.04468">
        <ele>641</ele>
        <time>2016-07-13T13:19:58Z</time>
      </trkpt>
      <trkpt lat="45.48706" lon="14.04563">
        <ele>643</ele>
        <time>2016-07-13T13:21:58Z</time>
      </trkpt>
      <trkpt lat="45.48704" lon="14.0457">
        <ele>642</ele>
        <time>2016-07-13T13:23:58Z</time>
      </trkpt>
      <trkpt lat="45.48702" lon="14.04577">
        <ele>642</ele>
        <time>2016-07-13T13:25:58Z</time>
      </trkpt>
      <trkpt lat="45.487" lon="14.04584">
        <ele>642</ele>
        <time>2016-07-13T13:27:58Z</time>
      </trkpt>
      <trkpt lat="45.48698" lon="14.04591">
        <ele>642</ele>
        <time>2016-07-13T13:29:58Z</time>
      </trkpt>
      <trkpt lat="45.48692" lon="14.04605">
        <ele>642</ele>
        <time>2016-07-13T13:31:58Z</time>
      </trkpt>
      <trkpt lat="45.48685" lon="14.0462">
        <ele>641</ele>
        <time>2016-07-13T13:33:58Z</time>
      </trkpt>
      <trkpt lat="45.48679" lon="14.04633">
        <ele>641</ele>
        <time>2016-07-13T13:35:58Z</time>
      </trkpt>
      <trkpt lat="45.48672" lon="14.04646">
        <ele>640</ele>
        <time>2016-07-13T13:37:58Z</time>
      </trkpt>
      <trkpt lat="45.48666" lon="14.04657">
        <ele>639</ele>
        <time>2016-07-13T13:39:58Z</time>
      </trkpt>
      <trkpt lat="45.48658" lon="14.04669">
        <ele>639</ele>
        <time>2016-07-13T13:41:58Z</time>
      </trkpt>
      <trkpt lat="45.48652" lon="14.04677">
        <ele>640</ele>
        <time>2016-07-13T13:43:58Z</time>
      </trkpt>
      <trkpt lat="45.48645" lon="14.04686">
        <ele>641</ele>
        <time>2016-07-13T13:45:58Z</time>
      </trkpt>
      <trkpt lat="45.48629" lon="14.04706">
        <ele>643</ele>
        <time>2016-07-13T13:47:58Z</time>
      </trkpt>
      <trkpt lat="45.48603" lon="14.0474">
        <ele>643</ele>
        <time>2016-07-13T13:49:58Z</time>
      </trkpt>
      <trkpt lat="45.48587" lon="14.04761">
        <ele>643</ele>
        <time>2016-07-13T13:51:58Z</time>
      </trkpt>
      <trkpt lat="45.48579" lon="14.04769">
        <ele>644</ele>
        <time>2016-07-13T13:53:58Z</time>
      </trkpt>
      <trkpt lat="45.48573" lon="14.04777">
        <ele>644</ele>
        <time>2016-07-13T13:55:58Z</time>
      </trkpt>
      <trkpt lat="45.48565" lon="14.04786">
        <ele>645</ele>
        <time>2016-07-13T13:57:58Z</time>
      </trkpt>
      <trkpt lat="45.48554" lon="14.04799">
        <ele>645</ele>
        <time>2016-07-13T13:59:58Z</time>
      </trkpt>
      <trkpt lat="45.48524" lon="14.04837">
        <ele>645</ele>
        <time>2016-07-13T14:01:58Z</time>
      </trkpt>
      <trkpt lat="45.48518" lon="14.04843">
        <ele>645</ele>
        <time>2016-07-13T14:03:58Z</time>
      </trkpt>
      <trkpt lat="45.48512" lon="14.04849">
        <ele>645</ele>
        <time>2016-07-13T14:05:58Z</time>
      </trkpt>
      <trkpt lat="45.48506" lon="14.04854">
        <ele>646</ele>
        <time>2016-07-13T14:07:58Z</time>
      </trkpt>
      <trkpt lat="45.485" lon="14.0486">
        <ele>646</ele>
        <time>2016-07-13T14:09:58Z</time>
      </trkpt>
      <trkpt lat="45.48495" lon="14.04865">
        <ele>646</ele>
        <time>2016-07-13T14:11:58Z</time>
      </trkpt>
      <trkpt lat="45.48469" lon="14.04884">
        <ele>646</ele>
        <time>2016-07-13T14:13:58Z</time>
      </trkpt>
      <trkpt lat="45.48464" lon="14.04888">
        <ele>646</ele>
        <time>2016-07-13T14:15:58Z</time>
      </trkpt>
      <trkpt lat="45.48456" lon="14.04895">
        <ele>646</ele>
        <time>2016-07-13T14:17:58Z</time>
      </trkpt>
      <trkpt lat="45.48446" lon="14.04905">
        <ele>646</ele>
        <time>2016-07-13T14:19:58Z</time>
      </trkpt>
      <trkpt lat="45.48419" lon="14.04939">
        <ele>647</ele>
        <time>2016-07-13T14:21:58Z</time>
      </trkpt>
      <trkpt lat="45.48411" lon="14.04949">
        <ele>648</ele>
        <time>2016-07-13T14:23:58Z</time>
      </trkpt>
      <trkpt lat="45.48407" lon="14.04957">
        <ele>648</ele>
        <time>2016-07-13T14:25:58Z</time>
      </trkpt>
      <trkpt lat="45.48402" lon="14.04965">
        <ele>648</ele>
        <time>2016-07-13T14:27:58Z</time>
      </trkpt>
      <trkpt lat="45.484" lon="14.04972">
        <ele>648</ele>
        <time>2016-07-13T14:29:58Z</time>
      </trkpt>
      <trkpt lat="45.48398" lon="14.04978">
        <ele>648</ele>
        <time>2016-07-13T14:31:58Z</time>
      </trkpt>
      <trkpt lat="45.48393" lon="14.04996">
        <ele>648</ele>
        <time>2016-07-13T14:33:58Z</time>
      </trkpt>
      <trkpt lat="45.48389" lon="14.05017">
        <ele>649</ele>
        <time>2016-07-13T14:35:58Z</time>
      </trkpt>
      <trkpt lat="45.48389" lon="14.05029">
        <ele>649</ele>
        <time>2016-07-13T14:37:58Z</time>
      </trkpt>
      <trkpt lat="45.48389" lon="14.05037">
        <ele>649</ele>
        <time>2016-07-13T14:39:58Z</time>
      </trkpt>
      <trkpt lat="45.48389" lon="14.05048">
        <ele>650</ele>
        <time>2016-07-13T14:41:58Z</time>
      </trkpt>
      <trkpt lat="45.4839" lon="14.05059">
        <ele>650</ele>
        <time>2016-07-13T14:43:58Z</time>
      </trkpt>
      <trkpt lat="45.48393" lon="14.05082">
        <ele>651</ele>
        <time>2016-07-13T14:45:58Z</time>
      </trkpt>
      <trkpt lat="45.48406" lon="14.05133">
        <ele>655</ele>
        <time>2016-07-13T14:47:58Z</time>
      </trkpt>
      <trkpt lat="45.48411" lon="14.05155">
        <ele>657</ele>
        <time>2016-07-13T14:49:58Z</time>
      </trkpt>
      <trkpt lat="45.48413" lon="14.05168">
        <ele>658</ele>
        <time>2016-07-13T14:51:58Z</time>
      </trkpt>
      <trkpt lat="45.48415" lon="14.05179">
        <ele>659</ele>
        <time>2016-07-13T14:53:58Z</time>
      </trkpt>
      <trkpt lat="45.48418" lon="14.05193">
        <ele>660</ele>
        <time>2016-07-13T14:55:58Z</time>
      </trkpt>
      <trkpt lat="45.48419" lon="14.05207">
        <ele>661</ele>
        <time>2016-07-13T14:57:58Z</time>
      </trkpt>
      <trkpt lat="45.4842" lon="14.05216">
        <ele>662</ele>
        <time>2016-07-13T14:59:58Z</time>
      </trkpt>
      <trkpt lat="45.48421" lon="14.05231">
        <ele>663</ele>
        <time>2016-07-13T15:01:58Z</time>
      </trkpt>
      <trkpt lat="45.48422" lon="14.05253">
        <ele>664</ele>
        <time>2016-07-13T15:03:58Z</time>
      </trkpt>
      <trkpt lat="45.48422" lon="14.05253">
        <ele>664</ele>
        <time>2016-07-13T15:05:58Z</time>
      </trkpt>
      <trkpt lat="45.48412" lon="14.05259">
        <ele>664</ele>
        <time>2016-07-13T15:07:58Z</time>
      </trkpt>
      <trkpt lat="45.48408" lon="14.05261">
        <ele>664</ele>
        <time>2016-07-13T15:09:58Z</time>
      </trkpt>
      <trkpt lat="45.48404" lon="14.05264">
        <ele>665</ele>
        <time>2016-07-13T15:11:58Z</time>
      </trkpt>
      <trkpt lat="45.48401" lon="14.05267">
        <ele>665</ele>
        <time>2016-07-13T15:13:58Z</time>
      </trkpt>
      <trkpt lat="45.48389" lon="14.0528">
        <ele>665</ele>
        <time>2016-07-13T15:15:58Z</time>
      </trkpt>
      <trkpt lat="45.48383" lon="14.05286">
        <ele>665</ele>
        <time>2016-07-13T15:17:58Z</time>
      </trkpt>
      <trkpt lat="45.4838" lon="14.05288">
        <ele>665</ele>
        <time>2016-07-13T15:19:58Z</time>
      </trkpt>
      <trkpt lat="45.48378" lon="14.0529">
        <ele>665</ele>
        <time>2016-07-13T15:21:58Z</time>
      </trkpt>
      <trkpt lat="45.48374" lon="14.05293">
        <ele>666</ele>
        <time>2016-07-13T15:23:58Z</time>
      </trkpt>
      <trkpt lat="45.48372" lon="14.05294">
        <ele>666</ele>
        <time>2016-07-13T15:25:58Z</time>
      </trkpt>
      <trkpt lat="45.48367" lon="14.05295">
        <ele>665</ele>
        <time>2016-07-13T15:27:58Z</time>
      </trkpt>
      <trkpt lat="45.48364" lon="14.05295">
        <ele>665</ele>
        <time>2016-07-13T15:29:58Z</time>
      </trkpt>
      <trkpt lat="45.48361" lon="14.05296">
        <ele>665</ele>
        <time>2016-07-13T15:31:58Z</time>
      </trkpt>
      <trkpt lat="45.48356" lon="14.05298">
        <ele>665</ele>
        <time>2016-07-13T15:33:58Z</time>
      </trkpt>
      <trkpt lat="45.48351" lon="14.053">
        <ele>665</ele>
        <time>2016-07-13T15:35:58Z</time>
      </trkpt>
      <trkpt lat="45.48345" lon="14.05303">
        <ele>665</ele>
        <time>2016-07-13T15:37:58Z</time>
      </trkpt>
      <trkpt lat="45.48341" lon="14.05306">
        <ele>665</ele>
        <time>2016-07-13T15:39:58Z</time>
      </trkpt>
      <trkpt lat="45.48338" lon="14.0531">
        <ele>665</ele>
        <time>2016-07-13T15:41:58Z</time>
      </trkpt>
      <trkpt lat="45.48325" lon="14.0533">
        <ele>666</ele>
        <time>2016-07-13T15:43:58Z</time>
      </trkpt>
      <trkpt lat="45.48309" lon="14.05353">
        <ele>666</ele>
        <time>2016-07-13T15:45:58Z</time>
      </trkpt>
      <trkpt lat="45.48292" lon="14.05375">
        <ele>666</ele>
        <time>2016-07-13T15:47:58Z</time>
      </trkpt>
      <trkpt lat="45.48272" lon="14.05402">
        <ele>667</ele>
        <time>2016-07-13T15:49:58Z</time>
      </trkpt>
      <trkpt lat="45.48262" lon="14.05414">
        <ele>667</ele>
        <time>2016-07-13T15:51:58Z</time>
      </trkpt>
      <trkpt lat="45.48255" lon="14.05422">
        <ele>668</ele>
        <time>2016-07-13T15:53:58Z</time>
      </trkpt>
      <trkpt lat="45.48243" lon="14.05431">
        <ele>668</ele>
        <time>2016-07-13T15:55:58Z</time>
      </trkpt>
      <trkpt lat="45.48233" lon="14.0544">
        <ele>668</ele>
        <time>2016-07-13T15:57:58Z</time>
      </trkpt>
      <trkpt lat="45.48218" lon="14.05453">
        <ele>668</ele>
        <time>2016-07-13T15:59:58Z</time>
      </trkpt>
      <trkpt lat="45.48189" lon="14.05478">
        <ele>668</ele>
        <time>2016-07-13T16:01:58Z</time>
      </trkpt>
      <trkpt lat="45.48121" lon="14.05536">
        <ele>667</ele>
        <time>2016-07-13T16:03:58Z</time>
      </trkpt>
      <trkpt lat="45.48096" lon="14.0556">
        <ele>665</ele>
        <time>2016-07-13T16:05:58Z</time>
      </trkpt>
      <trkpt lat="45.48096" lon="14.0556">
        <ele>665</ele>
        <time>2016-07-13T16:07:58Z</time>
      </trkpt>
      <trkpt lat="45.48076" lon="14.05606">
        <ele>668</ele>
        <time>2016-07-13T16:09:58Z</time>
      </trkpt>
      <trkpt lat="45.48072" lon="14.05623">
        <ele>670</ele>
        <time>2016-07-13T16:11:58Z</time>
      </trkpt>
      <trkpt lat="45.48067" lon="14.05636">
        <ele>672</ele>
        <time>2016-07-13T16:13:58Z</time>
      </trkpt>
      <trkpt lat="45.48057" lon="14.05664">
        <ele>674</ele>
        <time>2016-07-13T16:15:58Z</time>
      </trkpt>
      <trkpt lat="45.48039" lon="14.05703">
        <ele>679</ele>
        <time>2016-07-13T16:17:58Z</time>
      </trkpt>
      <trkpt lat="45.48015" lon="14.05749">
        <ele>680</ele>
        <time>2016-07-13T16:19:58Z</time>
      </trkpt>
      <trkpt lat="45.48007" lon="14.05763">
        <ele>680</ele>
        <time>2016-07-13T16:21:58Z</time>
      </trkpt>
      <trkpt lat="45.47999" lon="14.05778">
        <ele>679</ele>
        <time>2016-07-13T16:23:58Z</time>
      </trkpt>
      <trkpt lat="45.4799" lon="14.05799">
        <ele>680</ele>
        <time>2016-07-13T16:25:58Z</time>
      </trkpt>
      <trkpt lat="45.47987" lon="14.05813">
        <ele>681</ele>
        <time>2016-07-13T16:27:58Z</time>
      </trkpt>
      <trkpt lat="45.47984" lon="14.05823">
        <ele>681</ele>
        <time>2016-07-13T16:29:58Z</time>
      </trkpt>
      <trkpt lat="45.47983" lon="14.05831">
        <ele>682</ele>
        <time>2016-07-13T16:31:58Z</time>
      </trkpt>
      <trkpt lat="45.47982" lon="14.05857">
        <ele>683</ele>
        <time>2016-07-13T16:33:58Z</time>
      </trkpt>
      <trkpt lat="45.4798" lon="14.05883">
        <ele>684</ele>
        <time>2016-07-13T16:35:58Z</time>
      </trkpt>
      <trkpt lat="45.47978" lon="14.05927">
        <ele>687</ele>
        <time>2016-07-13T16:37:58Z</time>
      </trkpt>
      <trkpt lat="45.47977" lon="14.05949">
        <ele>688</ele>
        <time>2016-07-13T16:39:58Z</time>
      </trkpt>
      <trkpt lat="45.47973" lon="14.0598">
        <ele>690</ele>
        <time>2016-07-13T16:41:58Z</time>
      </trkpt>
      <trkpt lat="45.4797" lon="14.05996">
        <ele>691</ele>
        <time>2016-07-13T16:43:58Z</time>
      </trkpt>
      <trkpt lat="45.47968" lon="14.06009">
        <ele>692</ele>
        <time>2016-07-13T16:45:58Z</time>
      </trkpt>
      <trkpt lat="45.47961" lon="14.06042">
        <ele>694</ele>
        <time>2016-07-13T16:47:58Z</time>
      </trkpt>
      <trkpt lat="45.47945" lon="14.06115">
        <ele>698</ele>
        <time>2016-07-13T16:49:58Z</time>
      </trkpt>
      <trkpt lat="45.47934" lon="14.0617">
        <ele>700</ele>
        <time>2016-07-13T16:51:58Z</time>
      </trkpt>
      <trkpt lat="45.47907" lon="14.06296">
        <ele>706</ele>
        <time>2016-07-13T16:53:58Z</time>
      </trkpt>
      <trkpt lat="45.47895" lon="14.06351">
        <ele>708</ele>
        <time>2016-07-13T16:55:58Z</time>
      </trkpt>
      <trkpt lat="45.47887" lon="14.06386">
        <ele>709</ele>
        <time>2016-07-13T16:57:58Z</time>
      </trkpt>
      <trkpt lat="45.47879" lon="14.06432">
        <ele>711</ele>
        <time>2016-07-13T16:59:58Z</time>
      </trkpt>
      <trkpt lat="45.47868" lon="14.06475">
        <ele>713</ele>
        <time>2016-07-13T17:01:58Z</time>
      </trkpt>
      <trkpt lat="45.47855" lon="14.06516">
        <ele>715</ele>
        <time>2016-07-13T17:03:58Z</time>
      </trkpt>
      <trkpt lat="45.47842" lon="14.06558">
        <ele>719</ele>
        <time>2016-07-13T17:05:58Z</time>
      </trkpt>
      <trkpt lat="45.47821" lon="14.06629">
        <ele>725</ele>
        <time>2016-07-13T17:07:58Z</time>
      </trkpt>
      <trkpt lat="45.47806" lon="14.06674">
        <ele>727</ele>
        <time>2016-07-13T17:09:58Z</time>
      </trkpt>
      <trkpt lat="45.47797" lon="14.06719">
        <ele>729</ele>
        <time>2016-07-13T17:11:58Z</time>
      </trkpt>
      <trkpt lat="45.47794" lon="14.06749">
        <ele>730</ele>
        <time>2016-07-13T17:13:58Z</time>
      </trkpt>
      <trkpt lat="45.47788" lon="14.06787">
        <ele>731</ele>
        <time>2016-07-13T17:15:58Z</time>
      </trkpt>
      <trkpt lat="45.47774" lon="14.06893">
        <ele>736</ele>
        <time>2016-07-13T17:17:58Z</time>
      </trkpt>
      <trkpt lat="45.47767" lon="14.06941">
        <ele>739</ele>
        <time>2016-07-13T17:19:58Z</time>
      </trkpt>
      <trkpt lat="45.47764" lon="14.0697">
        <ele>740</ele>
        <time>2016-07-13T17:21:58Z</time>
      </trkpt>
      <trkpt lat="45.47763" lon="14.06997">
        <ele>741</ele>
        <time>2016-07-13T17:23:58Z</time>
      </trkpt>
      <trkpt lat="45.47763" lon="14.07015">
        <ele>742</ele>
        <time>2016-07-13T17:25:58Z</time>
      </trkpt>
      <trkpt lat="45.47765" lon="14.07048">
        <ele>744</ele>
        <time>2016-07-13T17:27:58Z</time>
      </trkpt>
      <trkpt lat="45.47768" lon="14.07076">
        <ele>745</ele>
        <time>2016-07-13T17:29:58Z</time>
      </trkpt>
      <trkpt lat="45.47773" lon="14.0711">
        <ele>748</ele>
        <time>2016-07-13T17:31:58Z</time>
      </trkpt>
      <trkpt lat="45.47779" lon="14.0714">
        <ele>751</ele>
        <time>2016-07-13T17:33:58Z</time>
      </trkpt>
      <trkpt lat="45.47782" lon="14.07156">
        <ele>753</ele>
        <time>2016-07-13T17:35:58Z</time>
      </trkpt>
      <trkpt lat="45.47784" lon="14.07167">
        <ele>754</ele>
        <time>2016-07-13T17:37:58Z</time>
      </trkpt>
      <trkpt lat="45.47785" lon="14.07175">
        <ele>755</ele>
        <time>2016-07-13T17:39:58Z</time>
      </trkpt>
      <trkpt lat="45.47785" lon="14.07181">
        <ele>756</ele>
        <time>2016-07-13T17:41:58Z</time>
      </trkpt>
      <trkpt lat="45.47785" lon="14.0719">
        <ele>756</ele>
        <time>2016-07-13T17:43:58Z</time>
      </trkpt>
      <trkpt lat="45.47784" lon="14.07195">
        <ele>757</ele>
        <time>2016-07-13T17:45:58Z</time>
      </trkpt>
      <trkpt lat="45.47783" lon="14.072">
        <ele>757</ele>
        <time>2016-07-13T17:47:58Z</time>
      </trkpt>
      <trkpt lat="45.47781" lon="14.07207">
        <ele>757</ele>
        <time>2016-07-13T17:49:58Z</time>
      </trkpt>
      <trkpt lat="45.47778" lon="14.07214">
        <ele>757</ele>
        <time>2016-07-13T17:51:58Z</time>
      </trkpt>
      <trkpt lat="45.47773" lon="14.07226">
        <ele>758</ele>
        <time>2016-07-13T17:53:58Z</time>
      </trkpt>
      <trkpt lat="45.47764" lon="14.07246">
        <ele>758</ele>
        <time>2016-07-13T17:55:58Z</time>
      </trkpt>
      <trkpt lat="45.47746" lon="14.07287">
        <ele>761</ele>
        <time>2016-07-13T17:57:58Z</time>
      </trkpt>
      <trkpt lat="45.47733" lon="14.07319">
        <ele>765</ele>
        <time>2016-07-13T17:59:58Z</time>
      </trkpt>
      <trkpt lat="45.47728" lon="14.07338">
        <ele>767</ele>
        <time>2016-07-13T18:01:58Z</time>
      </trkpt>
      <trkpt lat="45.47725" lon="14.07353">
        <ele>767</ele>
        <time>2016-07-13T18:03:58Z</time>
      </trkpt>
      <trkpt lat="45.47723" lon="14.07367">
        <ele>768</ele>
        <time>2016-07-13T18:05:58Z</time>
      </trkpt>
      <trkpt lat="45.47722" lon="14.07379">
        <ele>769</ele>
        <time>2016-07-13T18:07:58Z</time>
      </trkpt>
      <trkpt lat="45.47721" lon="14.07396">
        <ele>770</ele>
        <time>2016-07-13T18:09:58Z</time>
      </trkpt>
      <trkpt lat="45.47718" lon="14.0741">
        <ele>771</ele>
        <time>2016-07-13T18:11:58Z</time>
      </trkpt>
      <trkpt lat="45.47716" lon="14.0742">
        <ele>772</ele>
        <time>2016-07-13T18:13:58Z</time>
      </trkpt>
      <trkpt lat="45.47711" lon="14.07436">
        <ele>773</ele>
        <time>2016-07-13T18:15:58Z</time>
      </trkpt>
      <trkpt lat="45.47704" lon="14.07452">
        <ele>774</ele>
        <time>2016-07-13T18:17:58Z</time>
      </trkpt>
      <trkpt lat="45.47687" lon="14.07493">
        <ele>777</ele>
        <time>2016-07-13T18:19:58Z</time>
      </trkpt>
      <trkpt lat="45.47672" lon="14.07531">
        <ele>779</ele>
        <time>2016-07-13T18:21:58Z</time>
      </trkpt>
      <trkpt lat="45.47665" lon="14.07545">
        <ele>779</ele>
        <time>2016-07-13T18:23:58Z</time>
      </trkpt>
      <trkpt lat="45.47658" lon="14.07563">
        <ele>780</ele>
        <time>2016-07-13T18:25:58Z</time>
      </trkpt>
      <trkpt lat="45.47653" lon="14.0758">
        <ele>781</ele>
        <time>2016-07-13T18:27:58Z</time>
      </trkpt>
      <trkpt lat="45.4765" lon="14.076">
        <ele>782</ele>
        <time>2016-07-13T18:29:58Z</time>
      </trkpt>
      <trkpt lat="45.47643" lon="14.07636">
        <ele>783</ele>
        <time>2016-07-13T18:31:58Z</time>
      </trkpt>
      <trkpt lat="45.47631" lon="14.07701">
        <ele>785</ele>
        <time>2016-07-13T18:33:58Z</time>
      </trkpt>
      <trkpt lat="45.4762" lon="14.07768">
        <ele>785</ele>
        <time>2016-07-13T18:35:58Z</time>
      </trkpt>
      <trkpt lat="45.47613" lon="14.07809">
        <ele>784</ele>
        <time>2016-07-13T18:37:58Z</time>
      </trkpt>
      <trkpt lat="45.47599" lon="14.07889">
        <ele>786</ele>
        <time>2016-07-13T18:39:58Z</time>
      </trkpt>
      <trkpt lat="45.47579" lon="14.08006">
        <ele>789</ele>
        <time>2016-07-13T18:41:58Z</time>
      </trkpt>
      <trkpt lat="45.47566" lon="14.08072">
        <ele>787</ele>
        <time>2016-07-13T18:43:58Z</time>
      </trkpt>
      <trkpt lat="45.47546" lon="14.08198">
        <ele>785</ele>
        <time>2016-07-13T18:45:58Z</time>
      </trkpt>
      <trkpt lat="45.47529" lon="14.08292">
        <ele>785</ele>
        <time>2016-07-13T18:47:58Z</time>
      </trkpt>
      <trkpt lat="45.47516" lon="14.08365">
        <ele>786</ele>
        <time>2016-07-13T18:49:58Z</time>
      </trkpt>
      <trkpt lat="45.47503" lon="14.08422">
        <ele>786</ele>
        <time>2016-07-13T18:51:58Z</time>
      </trkpt>
      <trkpt lat="45.47495" lon="14.08466">
        <ele>786</ele>
        <time>2016-07-13T18:53:58Z</time>
      </trkpt>
      <trkpt lat="45.47483" lon="14.08524">
        <ele>785</ele>
        <time>2016-07-13T18:55:58Z</time>
      </trkpt>
      <trkpt lat="45.47473" lon="14.08579">
        <ele>786</ele>
        <time>2016-07-13T18:57:58Z</time>
      </trkpt>
      <trkpt lat="45.47466" lon="14.08616">
        <ele>785</ele>
        <time>2016-07-13T18:59:58Z</time>
      </trkpt>
      <trkpt lat="45.47463" lon="14.08642">
        <ele>785</ele>
        <time>2016-07-13T19:01:58Z</time>
      </trkpt>
      <trkpt lat="45.47462" lon="14.08656">
        <ele>785</ele>
        <time>2016-07-13T19:03:58Z</time>
      </trkpt>
      <trkpt lat="45.47462" lon="14.08663">
        <ele>785</ele>
        <time>2016-07-13T19:05:58Z</time>
      </trkpt>
      <trkpt lat="45.47464" lon="14.08679">
        <ele>785</ele>
        <time>2016-07-13T19:07:58Z</time>
      </trkpt>
      <trkpt lat="45.47467" lon="14.08701">
        <ele>785</ele>
        <time>2016-07-13T19:09:58Z</time>
      </trkpt>
      <trkpt lat="45.47469" lon="14.0872">
        <ele>785</ele>
        <time>2016-07-13T19:11:58Z</time>
      </trkpt>
      <trkpt lat="45.47469" lon="14.08727">
        <ele>785</ele>
        <time>2016-07-13T19:13:58Z</time>
      </trkpt>
      <trkpt lat="45.47469" lon="14.08732">
        <ele>785</ele>
        <time>2016-07-13T19:15:58Z</time>
      </trkpt>
      <trkpt lat="45.47469" lon="14.08738">
        <ele>785</ele>
        <time>2016-07-13T19:17:58Z</time>
      </trkpt>
      <trkpt lat="45.47468" lon="14.08744">
        <ele>785</ele>
        <time>2016-07-13T19:19:58Z</time>
      </trkpt>
      <trkpt lat="45.47468" lon="14.08749">
        <ele>785</ele>
        <time>2016-07-13T19:21:58Z</time>
      </trkpt>
      <trkpt lat="45.47467" lon="14.08753">
        <ele>785</ele>
        <time>2016-07-13T19:23:58Z</time>
      </trkpt>
      <trkpt lat="45.47465" lon="14.08759">
        <ele>785</ele>
        <time>2016-07-13T19:25:58Z</time>
      </trkpt>
      <trkpt lat="45.4746" lon="14.08772">
        <ele>785</ele>
        <time>2016-07-13T19:27:58Z</time>
      </trkpt>
      <trkpt lat="45.47454" lon="14.08782">
        <ele>784</ele>
        <time>2016-07-13T19:29:58Z</time>
      </trkpt>
      <trkpt lat="45.47442" lon="14.08805">
        <ele>784</ele>
        <time>2016-07-13T19:31:58Z</time>
      </trkpt>
      <trkpt lat="45.47428" lon="14.08828">
        <ele>782</ele>
        <time>2016-07-13T19:33:58Z</time>
      </trkpt>
      <trkpt lat="45.47418" lon="14.08845">
        <ele>781</ele>
        <time>2016-07-13T19:35:58Z</time>
      </trkpt>
      <trkpt lat="45.47415" lon="14.08851">
        <ele>781</ele>
        <time>2016-07-13T19:37:58Z</time>
      </trkpt>
      <trkpt lat="45.47413" lon="14.08855">
        <ele>781</ele>
        <time>2016-07-13T19:39:58Z</time>
      </trkpt>
      <trkpt lat="45.47412" lon="14.08861">
        <ele>781</ele>
        <time>2016-07-13T19:41:58Z</time>
      </trkpt>
      <trkpt lat="45.47411" lon="14.08865">
        <ele>780</ele>
        <time>2016-07-13T19:43:58Z</time>
      </trkpt>
      <trkpt lat="45.4741" lon="14.08871">
        <ele>780</ele>
        <time>2016-07-13T19:45:58Z</time>
      </trkpt>
      <trkpt lat="45.47409" lon="14.08883">
        <ele>780</ele>
        <time>2016-07-13T19:47:58Z</time>
      </trkpt>
      <trkpt lat="45.47408" lon="14.08906">
        <ele>780</ele>
        <time>2016-07-13T19:49:58Z</time>
      </trkpt>
      <trkpt lat="45.47407" lon="14.08924">
        <ele>780</ele>
        <time>2016-07-13T19:51:58Z</time>
      </trkpt>
      <trkpt lat="45.47407" lon="14.0893">
        <ele>780</ele>
        <time>2016-07-13T19:53:58Z</time>
      </trkpt>
      <trkpt lat="45.47406" lon="14.08934">
        <ele>780</ele>
        <time>2016-07-13T19:55:58Z</time>
      </trkpt>
      <trkpt lat="45.47405" lon="14.08944">
        <ele>780</ele>
        <time>2016-07-13T19:57:58Z</time>
      </trkpt>
      <trkpt lat="45.47402" lon="14.08953">
        <ele>779</ele>
        <time>2016-07-13T19:59:58Z</time>
      </trkpt>
      <trkpt lat="45.47393" lon="14.08977">
        <ele>778</ele>
        <time>2016-07-13T20:01:58Z</time>
      </trkpt>
      <trkpt lat="45.47377" lon="14.09013">
        <ele>775</ele>
        <time>2016-07-13T20:03:58Z</time>
      </trkpt>
      <trkpt lat="45.47365" lon="14.09043">
        <ele>773</ele>
        <time>2016-07-13T20:05:58Z</time>
      </trkpt>
      <trkpt lat="45.47358" lon="14.09063">
        <ele>772</ele>
        <time>2016-07-13T20:07:58Z</time>
      </trkpt>
      <trkpt lat="45.47353" lon="14.09077">
        <ele>770</ele>
        <time>2016-07-13T20:09:58Z</time>
      </trkpt>
      <trkpt lat="45.47348" lon="14.09098">
        <ele>769</ele>
        <time>2016-07-13T20:11:58Z</time>
      </trkpt>
      <trkpt lat="45.47339" lon="14.09146">
        <ele>766</ele>
        <time>2016-07-13T20:13:58Z</time>
      </trkpt>
      <trkpt lat="45.47334" lon="14.09173">
        <ele>764</ele>
        <time>2016-07-13T20:15:58Z</time>
      </trkpt>
      <trkpt lat="45.47329" lon="14.09198">
        <ele>764</ele>
        <time>2016-07-13T20:17:58Z</time>
      </trkpt>
      <trkpt lat="45.47327" lon="14.09209">
        <ele>763</ele>
        <time>2016-07-13T20:19:58Z</time>
      </trkpt>
      <trkpt lat="45.47323" lon="14.09223">
        <ele>762</ele>
        <time>2016-07-13T20:21:58Z</time>
      </trkpt>
      <trkpt lat="45.47318" lon="14.09241">
        <ele>761</ele>
        <time>2016-07-13T20:23:58Z</time>
      </trkpt>
      <trkpt lat="45.47316" lon="14.09253">
        <ele>761</ele>
        <time>2016-07-13T20:25:58Z</time>
      </trkpt>
      <trkpt lat="45.47313" lon="14.09266">
        <ele>760</ele>
        <time>2016-07-13T20:27:58Z</time>
      </trkpt>
      <trkpt lat="45.4731" lon="14.09297">
        <ele>759</ele>
        <time>2016-07-13T20:29:58Z</time>
      </trkpt>
      <trkpt lat="45.47306" lon="14.09332">
        <ele>757</ele>
        <time>2016-07-13T20:31:58Z</time>
      </trkpt>
      <trkpt lat="45.47302" lon="14.09367">
        <ele>755</ele>
        <time>2016-07-13T20:33:58Z</time>
      </trkpt>
      <trkpt lat="45.47299" lon="14.09397">
        <ele>753</ele>
        <time>2016-07-13T20:35:58Z</time>
      </trkpt>
      <trkpt lat="45.47298" lon="14.09433">
        <ele>751</ele>
        <time>2016-07-13T20:37:58Z</time>
      </trkpt>
      <trkpt lat="45.47297" lon="14.09457">
        <ele>750</ele>
        <time>2016-07-13T20:39:58Z</time>
      </trkpt>
      <trkpt lat="45.47294" lon="14.09485">
        <ele>748</ele>
        <time>2016-07-13T20:41:58Z</time>
      </trkpt>
      <trkpt lat="45.47291" lon="14.09518">
        <ele>747</ele>
        <time>2016-07-13T20:43:58Z</time>
      </trkpt>
      <trkpt lat="45.47288" lon="14.09537">
        <ele>746</ele>
        <time>2016-07-13T20:45:58Z</time>
      </trkpt>
      <trkpt lat="45.47285" lon="14.09558">
        <ele>746</ele>
        <time>2016-07-13T20:47:58Z</time>
      </trkpt>
      <trkpt lat="45.4728" lon="14.09574">
        <ele>744</ele>
        <time>2016-07-13T20:49:58Z</time>
      </trkpt>
      <trkpt lat="45.47275" lon="14.09592">
        <ele>741</ele>
        <time>2016-07-13T20:51:58Z</time>
      </trkpt>
      <trkpt lat="45.47269" lon="14.09611">
        <ele>738</ele>
        <time>2016-07-13T20:53:58Z</time>
      </trkpt>
      <trkpt lat="45.47262" lon="14.09635">
        <ele>733</ele>
        <time>2016-07-13T20:55:58Z</time>
      </trkpt>
      <trkpt lat="45.47259" lon="14.09645">
        <ele>732</ele>
        <time>2016-07-13T20:57:58Z</time>
      </trkpt>
      <trkpt lat="45.47257" lon="14.09655">
        <ele>730</ele>
        <time>2016-07-13T20:59:58Z</time>
      </trkpt>
      <trkpt lat="45.47257" lon="14.09665">
        <ele>730</ele>
        <time>2016-07-13T21:01:58Z</time>
      </trkpt>
      <trkpt lat="45.47257" lon="14.09677">
        <ele>730</ele>
        <time>2016-07-13T21:03:58Z</time>
      </trkpt>
      <trkpt lat="45.47257" lon="14.09687">
        <ele>731</ele>
        <time>2016-07-13T21:05:58Z</time>
      </trkpt>
      <trkpt lat="45.47259" lon="14.09699">
        <ele>732</ele>
        <time>2016-07-13T21:07:58Z</time>
      </trkpt>
      <trkpt lat="45.47261" lon="14.09729">
        <ele>734</ele>
        <time>2016-07-13T21:09:58Z</time>
      </trkpt>
      <trkpt lat="45.4726" lon="14.09757">
        <ele>734</ele>
        <time>2016-07-13T21:11:58Z</time>
      </trkpt>
      <trkpt lat="45.4726" lon="14.09802">
        <ele>732</ele>
        <time>2016-07-13T21:13:58Z</time>
      </trkpt>
      <trkpt lat="45.47257" lon="14.09847">
        <ele>728</ele>
        <time>2016-07-13T21:15:58Z</time>
      </trkpt>
      <trkpt lat="45.47254" lon="14.09886">
        <ele>726</ele>
        <time>2016-07-13T21:17:58Z</time>
      </trkpt>
      <trkpt lat="45.47253" lon="14.09899">
        <ele>725</ele>
        <time>2016-07-13T21:19:58Z</time>
      </trkpt>
      <trkpt lat="45.47251" lon="14.09906">
        <ele>724</ele>
        <time>2016-07-13T21:21:58Z</time>
      </trkpt>
      <trkpt lat="45.47248" lon="14.09915">
        <ele>722</ele>
        <time>2016-07-13T21:23:58Z</time>
      </trkpt>
      <trkpt lat="45.47246" lon="14.09923">
        <ele>721</ele>
        <time>2016-07-13T21:25:58Z</time>
      </trkpt>
      <trkpt lat="45.47244" lon="14.09931">
        <ele>720</ele>
        <time>2016-07-13T21:27:58Z</time>
      </trkpt>
      <trkpt lat="45.47243" lon="14.09943">
        <ele>719</ele>
        <time>2016-07-13T21:29:58Z</time>
      </trkpt>
      <trkpt lat="45.47243" lon="14.09957">
        <ele>719</ele>
        <time>2016-07-13T21:31:58Z</time>
      </trkpt>
      <trkpt lat="45.47243" lon="14.09968">
        <ele>718</ele>
        <time>2016-07-13T21:33:58Z</time>
      </trkpt>
      <trkpt lat="45.47245" lon="14.10001">
        <ele>717</ele>
        <time>2016-07-13T21:35:58Z</time>
      </trkpt>
      <trkpt lat="45.47247" lon="14.10019">
        <ele>717</ele>
        <time>2016-07-13T21:37:58Z</time>
      </trkpt>
      <trkpt lat="45.47249" lon="14.10031">
        <ele>717</ele>
        <time>2016-07-13T21:39:58Z</time>
      </trkpt>
      <trkpt lat="45.47251" lon="14.10045">
        <ele>717</ele>
        <time>2016-07-13T21:41:58Z</time>
      </trkpt>
      <trkpt lat="45.47253" lon="14.10059">
        <ele>717</ele>
        <time>2016-07-13T21:43:58Z</time>
      </trkpt>
      <trkpt lat="45.47256" lon="14.10089">
        <ele>716</ele>
        <time>2016-07-13T21:45:58Z</time>
      </trkpt>
      <trkpt lat="45.47258" lon="14.10106">
        <ele>716</ele>
        <time>2016-07-13T21:47:58Z</time>
      </trkpt>
      <trkpt lat="45.47258" lon="14.10117">
        <ele>716</ele>
        <time>2016-07-13T21:49:58Z</time>
      </trkpt>
      <trkpt lat="45.47258" lon="14.10136">
        <ele>715</ele>
        <time>2016-07-13T21:51:58Z</time>
      </trkpt>
      <trkpt lat="45.47256" lon="14.10167">
        <ele>712</ele>
        <time>2016-07-13T21:53:58Z</time>
      </trkpt>
      <trkpt lat="45.47253" lon="14.10204">
        <ele>711</ele>
        <time>2016-07-13T21:55:58Z</time>
      </trkpt>
      <trkpt lat="45.47249" lon="14.10235">
        <ele>710</ele>
        <time>2016-07-13T21:57:58Z</time>
      </trkpt>
      <trkpt lat="45.47248" lon="14.1025">
        <ele>710</ele>
        <time>2016-07-13T21:59:58Z</time>
      </trkpt>
      <trkpt lat="45.47245" lon="14.10263">
        <ele>709</ele>
        <time>2016-07-13T22:01:58Z</time>
      </trkpt>
      <trkpt lat="45.4724" lon="14.10281">
        <ele>707</ele>
        <time>2016-07-13T22:03:58Z</time>
      </trkpt>
      <trkpt lat="45.47237" lon="14.10297">
        <ele>706</ele>
        <time>2016-07-13T22:05:58Z</time>
      </trkpt>
      <trkpt lat="45.47235" lon="14.10308">
        <ele>705</ele>
        <time>2016-07-13T22:07:58Z</time>
      </trkpt>
      <trkpt lat="45.47234" lon="14.10317">
        <ele>705</ele>
        <time>2016-07-13T22:09:58Z</time>
      </trkpt>
      <trkpt lat="45.47234" lon="14.10324">
        <ele>705</ele>
        <time>2016-07-13T22:11:58Z</time>
      </trkpt>
      <trkpt lat="45.47232" lon="14.10355">
        <ele>704</ele>
        <time>2016-07-13T22:13:58Z</time>
      </trkpt>
      <trkpt lat="45.47232" lon="14.10375">
        <ele>705</ele>
        <time>2016-07-13T22:15:58Z</time>
      </trkpt>
      <trkpt lat="45.47232" lon="14.10396">
        <ele>705</ele>
        <time>2016-07-13T22:17:58Z</time>
      </trkpt>
      <trkpt lat="45.4723" lon="14.10411">
        <ele>705</ele>
        <time>2016-07-13T22:19:58Z</time>
      </trkpt>
      <trkpt lat="45.47229" lon="14.10421">
        <ele>705</ele>
        <time>2016-07-13T22:21:58Z</time>
      </trkpt>
      <trkpt lat="45.47226" lon="14.10431">
        <ele>704</ele>
        <time>2016-07-13T22:23:58Z</time>
      </trkpt>
      <trkpt lat="45.47222" lon="14.10441">
        <ele>702</ele>
        <time>2016-07-13T22:25:58Z</time>
      </trkpt>
      <trkpt lat="45.47216" lon="14.10451">
        <ele>700</ele>
        <time>2016-07-13T22:27:58Z</time>
      </trkpt>
      <trkpt lat="45.47211" lon="14.10461">
        <ele>698</ele>
        <time>2016-07-13T22:29:58Z</time>
      </trkpt>
      <trkpt lat="45.47205" lon="14.10469">
        <ele>696</ele>
        <time>2016-07-13T22:31:58Z</time>
      </trkpt>
      <trkpt lat="45.47199" lon="14.10481">
        <ele>694</ele>
        <time>2016-07-13T22:33:58Z</time>
      </trkpt>
      <trkpt lat="45.47195" lon="14.10492">
        <ele>692</ele>
        <time>2016-07-13T22:35:58Z</time>
      </trkpt>
      <trkpt lat="45.47191" lon="14.10504">
        <ele>691</ele>
        <time>2016-07-13T22:37:58Z</time>
      </trkpt>
      <trkpt lat="45.47185" lon="14.10528">
        <ele>691</ele>
        <time>2016-07-13T22:39:58Z</time>
      </trkpt>
      <trkpt lat="45.47183" lon="14.1054">
        <ele>691</ele>
        <time>2016-07-13T22:41:58Z</time>
      </trkpt>
      <trkpt lat="45.4718" lon="14.10551">
        <ele>691</ele>
        <time>2016-07-13T22:43:58Z</time>
      </trkpt>
      <trkpt lat="45.47177" lon="14.10562">
        <ele>691</ele>
        <time>2016-07-13T22:45:58Z</time>
      </trkpt>
      <trkpt lat="45.47171" lon="14.10582">
        <ele>690</ele>
        <time>2016-07-13T22:47:58Z</time>
      </trkpt>
      <trkpt lat="45.47155" lon="14.10612">
        <ele>688</ele>
        <time>2016-07-13T22:49:58Z</time>
      </trkpt>
      <trkpt lat="45.47137" lon="14.10647">
        <ele>685</ele>
        <time>2016-07-13T22:51:58Z</time>
      </trkpt>
      <trkpt lat="45.47106" lon="14.10712">
        <ele>679</ele>
        <time>2016-07-13T22:53:58Z</time>
      </trkpt>
      <trkpt lat="45.47079" lon="14.1077">
        <ele>674</ele>
        <time>2016-07-13T22:55:58Z</time>
      </trkpt>
      <trkpt lat="45.47076" lon="14.10783">
        <ele>674</ele>
        <time>2016-07-13T22:57:58Z</time>
      </trkpt>
      <trkpt lat="45.47074" lon="14.10793">
        <ele>674</ele>
        <time>2016-07-13T22:59:58Z</time>
      </trkpt>
      <trkpt lat="45.47074" lon="14.10802">
        <ele>674</ele>
        <time>2016-07-13T23:01:58Z</time>
      </trkpt>
      <trkpt lat="45.47076" lon="14.10814">
        <ele>675</ele>
        <time>2016-07-13T23:03:58Z</time>
      </trkpt>
      <trkpt lat="45.47078" lon="14.10824">
        <ele>676</ele>
        <time>2016-07-13T23:05:58Z</time>
      </trkpt>
      <trkpt lat="45.4708" lon="14.10838">
        <ele>677</ele>
        <time>2016-07-13T23:07:58Z</time>
      </trkpt>
      <trkpt lat="45.4708" lon="14.10849">
        <ele>678</ele>
        <time>2016-07-13T23:09:58Z</time>
      </trkpt>
      <trkpt lat="45.47079" lon="14.10861">
        <ele>678</ele>
        <time>2016-07-13T23:11:58Z</time>
      </trkpt>
      <trkpt lat="45.47076" lon="14.10872">
        <ele>678</ele>
        <time>2016-07-13T23:13:58Z</time>
      </trkpt>
      <trkpt lat="45.47072" lon="14.10882">
        <ele>678</ele>
        <time>2016-07-13T23:15:58Z</time>
      </trkpt>
      <trkpt lat="45.47067" lon="14.10894">
        <ele>677</ele>
        <time>2016-07-13T23:17:58Z</time>
      </trkpt>
      <trkpt lat="45.47054" lon="14.10919">
        <ele>674</ele>
        <time>2016-07-13T23:19:58Z</time>
      </trkpt>
      <trkpt lat="45.47023" lon="14.10987">
        <ele>669</ele>
        <time>2016-07-13T23:21:58Z</time>
      </trkpt>
      <trkpt lat="45.46984" lon="14.11061">
        <ele>661</ele>
        <time>2016-07-13T23:23:58Z</time>
      </trkpt>
      <trkpt lat="45.46954" lon="14.11128">
        <ele>656</ele>
        <time>2016-07-13T23:25:58Z</time>
      </trkpt>
      <trkpt lat="45.46943" lon="14.11159">
        <ele>653</ele>
        <time>2016-07-13T23:27:58Z</time>
      </trkpt>
      <trkpt lat="45.46938" lon="14.11174">
        <ele>652</ele>
        <time>2016-07-13T23:29:58Z</time>
      </trkpt>
      <trkpt lat="45.46933" lon="14.11188">
        <ele>652</ele>
        <time>2016-07-13T23:31:58Z</time>
      </trkpt>
      <trkpt lat="45.46928" lon="14.11209">
        <ele>651</ele>
        <time>2016-07-13T23:33:58Z</time>
      </trkpt>
      <trkpt lat="45.46924" lon="14.1122">
        <ele>651</ele>
        <time>2016-07-13T23:35:58Z</time>
      </trkpt>
      <trkpt lat="45.46919" lon="14.11232">
        <ele>650</ele>
        <time>2016-07-13T23:37:58Z</time>
      </trkpt>
      <trkpt lat="45.46914" lon="14.11242">
        <ele>649</ele>
        <time>2016-07-13T23:39:58Z</time>
      </trkpt>
      <trkpt lat="45.4691" lon="14.11252">
        <ele>649</ele>
        <time>2016-07-13T23:41:58Z</time>
      </trkpt>
      <trkpt lat="45.46904" lon="14.11263">
        <ele>649</ele>
        <time>2016-07-13T23:43:58Z</time>
      </trkpt>
      <trkpt lat="45.46896" lon="14.11275">
        <ele>648</ele>
        <time>2016-07-13T23:45:58Z</time>
      </trkpt>
      <trkpt lat="45.46874" lon="14.11317">
        <ele>646</ele>
        <time>2016-07-13T23:47:58Z</time>
      </trkpt>
      <trkpt lat="45.46863" lon="14.11343">
        <ele>645</ele>
        <time>2016-07-13T23:49:58Z</time>
      </trkpt>
      <trkpt lat="45.46859" lon="14.11359">
        <ele>644</ele>
        <time>2016-07-13T23:51:58Z</time>
      </trkpt>
      <trkpt lat="45.46856" lon="14.11374">
        <ele>644</ele>
        <time>2016-07-13T23:53:58Z</time>
      </trkpt>
      <trkpt lat="45.46857" lon="14.11389">
        <ele>644</ele>
        <time>2016-07-13T23:55:58Z</time>
      </trkpt>
      <trkpt lat="45.46858" lon="14.11401">
        <ele>644</ele>
        <time>2016-07-13T23:57:58Z</time>
      </trkpt>
      <trkpt lat="45.46859" lon="14.11418">
        <ele>645</ele>
        <time>2016-07-13T23:59:58Z</time>
      </trkpt>
      <trkpt lat="45.46858" lon="14.11432">
        <ele>645</ele>
        <time>2016-07-14T00:01:58Z</time>
      </trkpt>
      <trkpt lat="45.46856" lon="14.11446">
        <ele>644</ele>
        <time>2016-07-14T00:03:58Z</time>
      </trkpt>
      <trkpt lat="45.46854" lon="14.11458">
        <ele>644</ele>
        <time>2016-07-14T00:05:58Z</time>
      </trkpt>
      <trkpt lat="45.4685" lon="14.1147">
        <ele>643</ele>
        <time>2016-07-14T00:07:58Z</time>
      </trkpt>
      <trkpt lat="45.46848" lon="14.11481">
        <ele>642</ele>
        <time>2016-07-14T00:09:58Z</time>
      </trkpt>
      <trkpt lat="45.46846" lon="14.11493">
        <ele>641</ele>
        <time>2016-07-14T00:11:58Z</time>
      </trkpt>
      <trkpt lat="45.46846" lon="14.11508">
        <ele>641</ele>
        <time>2016-07-14T00:13:58Z</time>
      </trkpt>
      <trkpt lat="45.46846" lon="14.11521">
        <ele>640</ele>
        <time>2016-07-14T00:15:58Z</time>
      </trkpt>
      <trkpt lat="45.46847" lon="14.11549">
        <ele>638</ele>
        <time>2016-07-14T00:17:58Z</time>
      </trkpt>
      <trkpt lat="45.46848" lon="14.11565">
        <ele>637</ele>
        <time>2016-07-14T00:19:58Z</time>
      </trkpt>
      <trkpt lat="45.46855" lon="14.11604">
        <ele>638</ele>
        <time>2016-07-14T00:21:58Z</time>
      </trkpt>
      <trkpt lat="45.46867" lon="14.11672">
        <ele>643</ele>
        <time>2016-07-14T00:23:58Z</time>
      </trkpt>
      <trkpt lat="45.46869" lon="14.11694">
        <ele>646</ele>
        <time>2016-07-14T00:25:58Z</time>
      </trkpt>
      <trkpt lat="45.46869" lon="14.11699">
        <ele>646</ele>
        <time>2016-07-14T00:27:58Z</time>
      </trkpt>
      <trkpt lat="45.46868" lon="14.11705">
        <ele>646</ele>
        <time>2016-07-14T00:29:58Z</time>
      </trkpt>
      <trkpt lat="45.46868" lon="14.1171">
        <ele>646</ele>
        <time>2016-07-14T00:31:58Z</time>
      </trkpt>
      <trkpt lat="45.46867" lon="14.11715">
        <ele>646</ele>
        <time>2016-07-14T00:33:58Z</time>
      </trkpt>
      <trkpt lat="45.46865" lon="14.1172">
        <ele>646</ele>
        <time>2016-07-14T00:35:58Z</time>
      </trkpt>
      <trkpt lat="45.46863" lon="14.11725">
        <ele>646</ele>
        <time>2016-07-14T00:37:58Z</time>
      </trkpt>
      <trkpt lat="45.46861" lon="14.11731">
        <ele>645</ele>
        <time>2016-07-14T00:39:58Z</time>
      </trkpt>
      <trkpt lat="45.46859" lon="14.11736">
        <ele>645</ele>
        <time>2016-07-14T00:41:58Z</time>
      </trkpt>
      <trkpt lat="45.46856" lon="14.11742">
        <ele>644</ele>
        <time>2016-07-14T00:43:58Z</time>
      </trkpt>
      <trkpt lat="45.46852" lon="14.11747">
        <ele>643</ele>
        <time>2016-07-14T00:45:58Z</time>
      </trkpt>
      <trkpt lat="45.46848" lon="14.11751">
        <ele>642</ele>
        <time>2016-07-14T00:47:58Z</time>
      </trkpt>
      <trkpt lat="45.46836" lon="14.11768">
        <ele>640</ele>
        <time>2016-07-14T00:49:58Z</time>
      </trkpt>
      <trkpt lat="45.46831" lon="14.11774">
        <ele>639</ele>
        <time>2016-07-14T00:51:58Z</time>
      </trkpt>
      <trkpt lat="45.46821" lon="14.11784">
        <ele>638</ele>
        <time>2016-07-14T00:53:58Z</time>
      </trkpt>
      <trkpt lat="45.46815" lon="14.1179">
        <ele>637</ele>
        <time>2016-07-14T00:55:58Z</time>
      </trkpt>
      <trkpt lat="45.46808" lon="14.11799">
        <ele>637</ele>
        <time>2016-07-14T00:57:58Z</time>
      </trkpt>
      <trkpt lat="45.46802" lon="14.11808">
        <ele>636</ele>
        <time>2016-07-14T00:59:58Z</time>
      </trkpt>
      <trkpt lat="45.46798" lon="14.11815">
        <ele>636</ele>
        <time>2016-07-14T01:01:58Z</time>
      </trkpt>
      <trkpt lat="45.46792" lon="14.1183">
        <ele>636</ele>
        <time>2016-07-14T01:03:58Z</time>
      </trkpt>
      <trkpt lat="45.46786" lon="14.11844">
        <ele>636</ele>
        <time>2016-07-14T01:05:58Z</time>
      </trkpt>
      <trkpt lat="45.46774" lon="14.1188">
        <ele>636</ele>
        <time>2016-07-14T01:07:58Z</time>
      </trkpt>
      <trkpt lat="45.46759" lon="14.11926">
        <ele>635</ele>
        <time>2016-07-14T01:09:58Z</time>
      </trkpt>
      <trkpt lat="45.46741" lon="14.11995">
        <ele>634</ele>
        <time>2016-07-14T01:11:58Z</time>
      </trkpt>
      <trkpt lat="45.46726" lon="14.12053">
        <ele>630</ele>
        <time>2016-07-14T01:13:58Z</time>
      </trkpt>
      <trkpt lat="45.46718" lon="14.12085">
        <ele>628</ele>
        <time>2016-07-14T01:15:58Z</time>
      </trkpt>
      <trkpt lat="45.46709" lon="14.12125">
        <ele>625</ele>
        <time>2016-07-14T01:17:58Z</time>
      </trkpt>
      <trkpt lat="45.46706" lon="14.12138">
        <ele>625</ele>
        <time>2016-07-14T01:19:58Z</time>
      </trkpt>
      <trkpt lat="45.46701" lon="14.12153">
        <ele>623</ele>
        <time>2016-07-14T01:21:58Z</time>
      </trkpt>
      <trkpt lat="45.46694" lon="14.1217">
        <ele>622</ele>
        <time>2016-07-14T01:23:58Z</time>
      </trkpt>
      <trkpt lat="45.4668" lon="14.12201">
        <ele>620</ele>
        <time>2016-07-14T01:25:58Z</time>
      </trkpt>
      <trkpt lat="45.46654" lon="14.12251">
        <ele>616</ele>
        <time>2016-07-14T01:27:58Z</time>
      </trkpt>
      <trkpt lat="45.46632" lon="14.12292">
        <ele>612</ele>
        <time>2016-07-14T01:29:58Z</time>
      </trkpt>
      <trkpt lat="45.4661" lon="14.12333">
        <ele>608</ele>
        <time>2016-07-14T01:31:58Z</time>
      </trkpt>
      <trkpt lat="45.46547" lon="14.12453">
        <ele>597</ele>
        <time>2016-07-14T01:33:58Z</time>
      </trkpt>
      <trkpt lat="45.4651" lon="14.12521">
        <ele>590</ele>
        <time>2016-07-14T01:35:58Z</time>
      </trkpt>
      <trkpt lat="45.46441" lon="14.12651">
        <ele>589</ele>
        <time>2016-07-14T01:37:58Z</time>
      </trkpt>
      <trkpt lat="45.46422" lon="14.12686">
        <ele>589</ele>
        <time>2016-07-14T01:39:58Z</time>
      </trkpt>
      <trkpt lat="45.4641" lon="14.12706">
        <ele>589</ele>
        <time>2016-07-14T01:41:58Z</time>
      </trkpt>
      <trkpt lat="45.46393" lon="14.12729">
        <ele>590</ele>
        <time>2016-07-14T01:43:58Z</time>
      </trkpt>
      <trkpt lat="45.46369" lon="14.12756">
        <ele>589</ele>
        <time>2016-07-14T01:45:58Z</time>
      </trkpt>
      <trkpt lat="45.46325" lon="14.12807">
        <ele>585</ele>
        <time>2016-07-14T01:47:58Z</time>
      </trkpt>
      <trkpt lat="45.46285" lon="14.12854">
        <ele>587</ele>
        <time>2016-07-14T01:49:58Z</time>
      </trkpt>
      <trkpt lat="45.46269" lon="14.12874">
        <ele>588</ele>
        <time>2016-07-14T01:51:58Z</time>
      </trkpt>
      <trkpt lat="45.4626" lon="14.12886">
        <ele>589</ele>
        <time>2016-07-14T01:53:58Z</time>
      </trkpt>
      <trkpt lat="45.46256" lon="14.12894">
        <ele>590</ele>
        <time>2016-07-14T01:55:58Z</time>
      </trkpt>
      <trkpt lat="45.46253" lon="14.12904">
        <ele>590</ele>
        <time>2016-07-14T01:57:58Z</time>
      </trkpt>
      <trkpt lat="45.46251" lon="14.12911">
        <ele>591</ele>
        <time>2016-07-14T01:59:58Z</time>
      </trkpt>
      <trkpt lat="45.4625" lon="14.12917">
        <ele>591</ele>
        <time>2016-07-14T02:01:58Z</time>
      </trkpt>
      <trkpt lat="45.46248" lon="14.12937">
        <ele>591</ele>
        <time>2016-07-14T02:03:58Z</time>
      </trkpt>
      <trkpt lat="45.46249" lon="14.12956">
        <ele>592</ele>
        <time>2016-07-14T02:05:58Z</time>
      </trkpt>
      <trkpt lat="45.46251" lon="14.12999">
        <ele>593</ele>
        <time>2016-07-14T02:07:58Z</time>
      </trkpt>
      <trkpt lat="45.46254" lon="14.13041">
        <ele>595</ele>
        <time>2016-07-14T02:09:58Z</time>
      </trkpt>
      <trkpt lat="45.46254" lon="14.13066">
        <ele>596</ele>
        <time>2016-07-14T02:11:58Z</time>
      </trkpt>
      <trkpt lat="45.46253" lon="14.1307">
        <ele>596</ele>
        <time>2016-07-14T02:13:58Z</time>
      </trkpt>
      <trkpt lat="45.46252" lon="14.13075">
        <ele>597</ele>
        <time>2016-07-14T02:15:58Z</time>
      </trkpt>
      <trkpt lat="45.46251" lon="14.13079">
        <ele>597</ele>
        <time>2016-07-14T02:17:58Z</time>
      </trkpt>
      <trkpt lat="45.46249" lon="14.13085">
        <ele>597</ele>
        <time>2016-07-14T02:19:58Z</time>
      </trkpt>
      <trkpt lat="45.46247" lon="14.13089">
        <ele>597</ele>
        <time>2016-07-14T02:21:58Z</time>
      </trkpt>
      <trkpt lat="45.46243" lon="14.13094">
        <ele>597</ele>
        <time>2016-07-14T02:23:58Z</time>
      </trkpt>
      <trkpt lat="45.46236" lon="14.13103">
        <ele>598</ele>
        <time>2016-07-14T02:25:58Z</time>
      </trkpt>
      <trkpt lat="45.46224" lon="14.13115">
        <ele>598</ele>
        <time>2016-07-14T02:27:58Z</time>
      </trkpt>
      <trkpt lat="45.46202" lon="14.13135">
        <ele>599</ele>
        <time>2016-07-14T02:29:58Z</time>
      </trkpt>
      <trkpt lat="45.46171" lon="14.13161">
        <ele>600</ele>
        <time>2016-07-14T02:31:58Z</time>
      </trkpt>
      <trkpt lat="45.46149" lon="14.13181">
        <ele>600</ele>
        <time>2016-07-14T02:33:58Z</time>
      </trkpt>
      <trkpt lat="45.46138" lon="14.13191">
        <ele>600</ele>
        <time>2016-07-14T02:35:58Z</time>
      </trkpt>
      <trkpt lat="45.46133" lon="14.13199">
        <ele>600</ele>
        <time>2016-07-14T02:37:58Z</time>
      </trkpt>
      <trkpt lat="45.46125" lon="14.13211">
        <ele>600</ele>
        <time>2016-07-14T02:39:58Z</time>
      </trkpt>
      <trkpt lat="45.46119" lon="14.13225">
        <ele>601</ele>
        <time>2016-07-14T02:41:58Z</time>
      </trkpt>
      <trkpt lat="45.46116" lon="14.13237">
        <ele>602</ele>
        <time>2016-07-14T02:43:58Z</time>
      </trkpt>
      <trkpt lat="45.46113" lon="14.13254">
        <ele>603</ele>
        <time>2016-07-14T02:45:58Z</time>
      </trkpt>
      <trkpt lat="45.46111" lon="14.13271">
        <ele>603</ele>
        <time>2016-07-14T02:47:58Z</time>
      </trkpt>
      <trkpt lat="45.4611" lon="14.13296">
        <ele>604</ele>
        <time>2016-07-14T02:49:58Z</time>
      </trkpt>
      <trkpt lat="45.4611" lon="14.13315">
        <ele>605</ele>
        <time>2016-07-14T02:51:58Z</time>
      </trkpt>
      <trkpt lat="45.4611" lon="14.13373">
        <ele>606</ele>
        <time>2016-07-14T02:53:58Z</time>
      </trkpt>
      <trkpt lat="45.46109" lon="14.13457">
        <ele>607</ele>
        <time>2016-07-14T02:55:58Z</time>
      </trkpt>
      <trkpt lat="45.46108" lon="14.13489">
        <ele>608</ele>
        <time>2016-07-14T02:57:58Z</time>
      </trkpt>
      <trkpt lat="45.46106" lon="14.13512">
        <ele>610</ele>
        <time>2016-07-14T02:59:58Z</time>
      </trkpt>
      <trkpt lat="45.46104" lon="14.13527">
        <ele>611</ele>
        <time>2016-07-14T03:01:58Z</time>
      </trkpt>
      <trkpt lat="45.46102" lon="14.13536">
        <ele>612</ele>
        <time>2016-07-14T03:03:58Z</time>
      </trkpt>
      <trkpt lat="45.46099" lon="14.13546">
        <ele>613</ele>
        <time>2016-07-14T03:05:58Z</time>
      </trkpt>
      <trkpt lat="45.46091" lon="14.13559">
        <ele>614</ele>
        <time>2016-07-14T03:07:58Z</time>
      </trkpt>
      <trkpt lat="45.46085" lon="14.1357">
        <ele>615</ele>
        <time>2016-07-14T03:09:58Z</time>
      </trkpt>
      <trkpt lat="45.46065" lon="14.13596">
        <ele>617</ele>
        <time>2016-07-14T03:11:58Z</time>
      </trkpt>
      <trkpt lat="45.4603" lon="14.1364">
        <ele>618</ele>
        <time>2016-07-14T03:13:58Z</time>
      </trkpt>
      <trkpt lat="45.46004" lon="14.13678">
        <ele>619</ele>
        <time>2016-07-14T03:15:58Z</time>
      </trkpt>
      <trkpt lat="45.45957" lon="14.13745">
        <ele>623</ele>
        <time>2016-07-14T03:17:58Z</time>
      </trkpt>
      <trkpt lat="45.45944" lon="14.13765">
        <ele>624</ele>
        <time>2016-07-14T03:19:58Z</time>
      </trkpt>
      <trkpt lat="45.45933" lon="14.13785">
        <ele>624</ele>
        <time>2016-07-14T03:21:58Z</time>
      </trkpt>
      <trkpt lat="45.45919" lon="14.13817">
        <ele>626</ele>
        <time>2016-07-14T03:23:58Z</time>
      </trkpt>
      <trkpt lat="45.45905" lon="14.1385">
        <ele>626</ele>
        <time>2016-07-14T03:25:58Z</time>
      </trkpt>
      <trkpt lat="45.459" lon="14.13864">
        <ele>626</ele>
        <time>2016-07-14T03:27:58Z</time>
      </trkpt>
      <trkpt lat="45.45898" lon="14.13873">
        <ele>626</ele>
        <time>2016-07-14T03:29:58Z</time>
      </trkpt>
      <trkpt lat="45.45895" lon="14.13885">
        <ele>626</ele>
        <time>2016-07-14T03:31:58Z</time>
      </trkpt>
      <trkpt lat="45.45895" lon="14.1389">
        <ele>626</ele>
        <time>2016-07-14T03:33:58Z</time>
      </trkpt>
      <trkpt lat="45.45894" lon="14.13896">
        <ele>626</ele>
        <time>2016-07-14T03:35:58Z</time>
      </trkpt>
      <trkpt lat="45.45894" lon="14.13902">
        <ele>627</ele>
        <time>2016-07-14T03:37:58Z</time>
      </trkpt>
      <trkpt lat="45.45894" lon="14.13905">
        <ele>627</ele>
        <time>2016-07-14T03:39:58Z</time>
      </trkpt>
      <trkpt lat="45.45895" lon="14.13909">
        <ele>627</ele>
        <time>2016-07-14T03:41:58Z</time>
      </trkpt>
      <trkpt lat="45.45896" lon="14.13919">
        <ele>628</ele>
        <time>2016-07-14T03:43:58Z</time>
      </trkpt>
      <trkpt lat="45.45897" lon="14.13934">
        <ele>628</ele>
        <time>2016-07-14T03:45:58Z</time>
      </trkpt>
      <trkpt lat="45.45898" lon="14.13949">
        <ele>628</ele>
        <time>2016-07-14T03:47:58Z</time>
      </trkpt>
      <trkpt lat="45.45897" lon="14.13964">
        <ele>628</ele>
        <time>2016-07-14T03:49:58Z</time>
      </trkpt>
      <trkpt lat="45.45894" lon="14.13975">
        <ele>628</ele>
        <time>2016-07-14T03:51:58Z</time>
      </trkpt>
      <trkpt lat="45.45889" lon="14.13987">
        <ele>628</ele>
        <time>2016-07-14T03:53:58Z</time>
      </trkpt>
      <trkpt lat="45.45879" lon="14.14005">
        <ele>628</ele>
        <time>2016-07-14T03:55:58Z</time>
      </trkpt>
      <trkpt lat="45.45861" lon="14.14033">
        <ele>628</ele>
        <time>2016-07-14T03:57:58Z</time>
      </trkpt>
      <trkpt lat="45.45847" lon="14.14057">
        <ele>628</ele>
        <time>2016-07-14T03:59:58Z</time>
      </trkpt>
      <trkpt lat="45.4583" lon="14.14084">
        <ele>628</ele>
        <time>2016-07-14T04:01:58Z</time>
      </trkpt>
      <trkpt lat="45.45815" lon="14.1411">
        <ele>628</ele>
        <time>2016-07-14T04:03:58Z</time>
      </trkpt>
      <trkpt lat="45.45792" lon="14.14147">
        <ele>629</ele>
        <time>2016-07-14T04:05:58Z</time>
      </trkpt>
      <trkpt lat="45.45784" lon="14.14162">
        <ele>630</ele>
        <time>2016-07-14T04:07:58Z</time>
      </trkpt>
      <trkpt lat="45.45777" lon="14.14179">
        <ele>630</ele>
        <time>2016-07-14T04:09:58Z</time>
      </trkpt>
      <trkpt lat="45.45772" lon="14.14195">
        <ele>631</ele>
        <time>2016-07-14T04:11:58Z</time>
      </trkpt>
      <trkpt lat="45.45767" lon="14.14212">
        <ele>631</ele>
        <time>2016-07-14T04:13:58Z</time>
      </trkpt>
      <trkpt lat="45.4576" lon="14.14228">
        <ele>632</ele>
        <time>2016-07-14T04:15:58Z</time>
      </trkpt>
      <trkpt lat="45.45757" lon="14.14235">
        <ele>632</ele>
        <time>2016-07-14T04:17:58Z</time>
      </trkpt>
      <trkpt lat="45.45752" lon="14.14241">
        <ele>633</ele>
        <time>2016-07-14T04:19:58Z</time>
      </trkpt>
      <trkpt lat="45.45746" lon="14.14247">
        <ele>633</ele>
        <time>2016-07-14T04:21:58Z</time>
      </trkpt>
      <trkpt lat="45.45728" lon="14.14262">
        <ele>633</ele>
        <time>2016-07-14T04:23:58Z</time>
      </trkpt>
      <trkpt lat="45.45704" lon="14.1428">
        <ele>632</ele>
        <time>2016-07-14T04:25:58Z</time>
      </trkpt>
      <trkpt lat="45.45687" lon="14.14293">
        <ele>632</ele>
        <time>2016-07-14T04:27:58Z</time>
      </trkpt>
      <trkpt lat="45.4566" lon="14.14314">
        <ele>632</ele>
        <time>2016-07-14T04:29:58Z</time>
      </trkpt>
      <trkpt lat="45.45645" lon="14.14327">
        <ele>631</ele>
        <time>2016-07-14T04:31:58Z</time>
      </trkpt>
      <trkpt lat="45.45632" lon="14.14339">
        <ele>631</ele>
        <time>2016-07-14T04:33:58Z</time>
      </trkpt>
      <trkpt lat="45.45626" lon="14.14346">
        <ele>632</ele>
        <time>2016-07-14T04:35:58Z</time>
      </trkpt>
      <trkpt lat="45.45617" lon="14.14359">
        <ele>632</ele>
        <time>2016-07-14T04:37:58Z</time>
      </trkpt>
      <trkpt lat="45.45602" lon="14.14379">
        <ele>634</ele>
        <time>2016-07-14T04:39:58Z</time>
      </trkpt>
      <trkpt lat="45.45584" lon="14.14406">
        <ele>637</ele>
        <time>2016-07-14T04:41:58Z</time>
      </trkpt>
      <trkpt lat="45.45558" lon="14.14446">
        <ele>637</ele>
        <time>2016-07-14T04:43:58Z</time>
      </trkpt>
      <trkpt lat="45.4553" lon="14.14487">
        <ele>635</ele>
        <time>2016-07-14T04:45:58Z</time>
      </trkpt>
      <trkpt lat="45.45501" lon="14.1453">
        <ele>634</ele>
        <time>2016-07-14T04:47:58Z</time>
      </trkpt>
      <trkpt lat="45.45472" lon="14.14572">
        <ele>634</ele>
        <time>2016-07-14T04:49:58Z</time>
      </trkpt>
      <trkpt lat="45.45457" lon="14.14596">
        <ele>633</ele>
        <time>2016-07-14T04:51:58Z</time>
      </trkpt>
      <trkpt lat="45.45447" lon="14.14612">
        <ele>632</ele>
        <time>2016-07-14T04:53:58Z</time>
      </trkpt>
      <trkpt lat="45.45439" lon="14.14632">
        <ele>632</ele>
        <time>2016-07-14T04:55:58Z</time>
      </trkpt>
      <trkpt lat="45.45436" lon="14.14644">
        <ele>632</ele>
        <time>2016-07-14T04:57:58Z</time>
      </trkpt>
      <trkpt lat="45.45434" lon="14.14651">
        <ele>632</ele>
        <time>2016-07-14T04:59:58Z</time>
      </trkpt>
      <trkpt lat="45.45434" lon="14.1466">
        <ele>632</ele>
        <time>2016-07-14T05:01:58Z</time>
      </trkpt>
      <trkpt lat="45.45434" lon="14.14665">
        <ele>632</ele>
        <time>2016-07-14T05:03:58Z</time>
      </trkpt>
      <trkpt lat="45.45434" lon="14.14672">
        <ele>632</ele>
        <time>2016-07-14T05:05:58Z</time>
      </trkpt>
      <trkpt lat="45.45434" lon="14.14679">
        <ele>632</ele>
        <time>2016-07-14T05:07:58Z</time>
      </trkpt>
      <trkpt lat="45.45435" lon="14.14685">
        <ele>632</ele>
        <time>2016-07-14T05:09:58Z</time>
      </trkpt>
      <trkpt lat="45.45436" lon="14.14692">
        <ele>632</ele>
        <time>2016-07-14T05:11:58Z</time>
      </trkpt>
      <trkpt lat="45.4544" lon="14.14708">
        <ele>633</ele>
        <time>2016-07-14T05:13:58Z</time>
      </trkpt>
      <trkpt lat="45.45446" lon="14.14734">
        <ele>633</ele>
        <time>2016-07-14T05:15:58Z</time>
      </trkpt>
      <trkpt lat="45.4545" lon="14.14754">
        <ele>633</ele>
        <time>2016-07-14T05:17:58Z</time>
      </trkpt>
      <trkpt lat="45.45452" lon="14.14763">
        <ele>633</ele>
        <time>2016-07-14T05:19:58Z</time>
      </trkpt>
      <trkpt lat="45.45455" lon="14.14776">
        <ele>633</ele>
        <time>2016-07-14T05:21:58Z</time>
      </trkpt>
      <trkpt lat="45.45457" lon="14.14791">
        <ele>632</ele>
        <time>2016-07-14T05:23:58Z</time>
      </trkpt>
      <trkpt lat="45.45459" lon="14.14811">
        <ele>632</ele>
        <time>2016-07-14T05:25:58Z</time>
      </trkpt>
      <trkpt lat="45.45459" lon="14.14821">
        <ele>631</ele>
        <time>2016-07-14T05:27:58Z</time>
      </trkpt>
      <trkpt lat="45.45459" lon="14.14837">
        <ele>630</ele>
        <time>2016-07-14T05:29:58Z</time>
      </trkpt>
      <trkpt lat="45.45457" lon="14.1487">
        <ele>629</ele>
        <time>2016-07-14T05:31:58Z</time>
      </trkpt>
      <trkpt lat="45.45455" lon="14.14918">
        <ele>626</ele>
        <time>2016-07-14T05:33:58Z</time>
      </trkpt>
      <trkpt lat="45.45452" lon="14.14956">
        <ele>627</ele>
        <time>2016-07-14T05:35:58Z</time>
      </trkpt>
      <trkpt lat="45.45451" lon="14.14978">
        <ele>627</ele>
        <time>2016-07-14T05:37:58Z</time>
      </trkpt>
      <trkpt lat="45.45451" lon="14.14988">
        <ele>627</ele>
        <time>2016-07-14T05:39:58Z</time>
      </trkpt>
      <trkpt lat="45.45452" lon="14.14996">
        <ele>627</ele>
        <time>2016-07-14T05:41:58Z</time>
      </trkpt>
      <trkpt lat="45.45452" lon="14.14999">
        <ele>627</ele>
        <time>2016-07-14T05:43:58Z</time>
      </trkpt>
      <trkpt lat="45.45453" lon="14.15002">
        <ele>627</ele>
        <time>2016-07-14T05:45:58Z</time>
      </trkpt>
      <trkpt lat="45.45453" lon="14.15004">
        <ele>627</ele>
        <time>2016-07-14T05:47:58Z</time>
      </trkpt>
      <trkpt lat="45.45454" lon="14.15007">
        <ele>627</ele>
        <time>2016-07-14T05:49:58Z</time>
      </trkpt>
      <trkpt lat="45.45455" lon="14.15009">
        <ele>627</ele>
        <time>2016-07-14T05:51:58Z</time>
      </trkpt>
      <trkpt lat="45.4546" lon="14.15019">
        <ele>628</ele>
        <time>2016-07-14T05:53:58Z</time>
      </trkpt>
      <trkpt lat="45.45463" lon="14.15026">
        <ele>628</ele>
        <time>2016-07-14T05:55:58Z</time>
      </trkpt>
      <trkpt lat="45.45468" lon="14.15032">
        <ele>628</ele>
        <time>2016-07-14T05:57:58Z</time>
      </trkpt>
      <trkpt lat="45.45476" lon="14.15041">
        <ele>629</ele>
        <time>2016-07-14T05:59:58Z</time>
      </trkpt>
      <trkpt lat="45.45488" lon="14.15056">
        <ele>630</ele>
        <time>2016-07-14T06:01:58Z</time>
      </trkpt>
      <trkpt lat="45.45499" lon="14.1507">
        <ele>631</ele>
        <time>2016-07-14T06:03:58Z</time>
      </trkpt>
      <trkpt lat="45.45503" lon="14.15076">
        <ele>632</ele>
        <time>2016-07-14T06:05:58Z</time>
      </trkpt>
      <trkpt lat="45.45506" lon="14.1508">
        <ele>632</ele>
        <time>2016-07-14T06:07:58Z</time>
      </trkpt>
      <trkpt lat="45.45509" lon="14.15086">
        <ele>632</ele>
        <time>2016-07-14T06:09:58Z</time>
      </trkpt>
      <trkpt lat="45.45513" lon="14.15095">
        <ele>632</ele>
        <time>2016-07-14T06:11:58Z</time>
      </trkpt>
      <trkpt lat="45.45517" lon="14.15105">
        <ele>632</ele>
        <time>2016-07-14T06:13:58Z</time>
      </trkpt>
      <trkpt lat="45.4552" lon="14.15116">
        <ele>632</ele>
        <time>2016-07-14T06:15:58Z</time>
      </trkpt>
      <trkpt lat="45.45524" lon="14.15131">
        <ele>632</ele>
        <time>2016-07-14T06:17:58Z</time>
      </trkpt>
      <trkpt lat="45.45526" lon="14.15147">
        <ele>632</ele>
        <time>2016-07-14T06:19:58Z</time>
      </trkpt>
      <trkpt lat="45.45531" lon="14.15182">
        <ele>631</ele>
        <time>2016-07-14T06:21:58Z</time>
      </trkpt>
      <trkpt lat="45.45534" lon="14.15205">
        <ele>631</ele>
        <time>2016-07-14T06:23:58Z</time>
      </trkpt>
      <trkpt lat="45.45537" lon="14.15223">
        <ele>631</ele>
        <time>2016-07-14T06:25:58Z</time>
      </trkpt>
      <trkpt lat="45.45541" lon="14.15249">
        <ele>631</ele>
        <time>2016-07-14T06:27:58Z</time>
      </trkpt>
      <trkpt lat="45.45546" lon="14.15277">
        <ele>632</ele>
        <time>2016-07-14T06:29:58Z</time>
      </trkpt>
      <trkpt lat="45.45547" lon="14.15291">
        <ele>632</ele>
        <time>2016-07-14T06:31:58Z</time>
      </trkpt>
      <trkpt lat="45.45548" lon="14.15297">
        <ele>632</ele>
        <time>2016-07-14T06:33:58Z</time>
      </trkpt>
      <trkpt lat="45.45547" lon="14.15311">
        <ele>633</ele>
        <time>2016-07-14T06:35:58Z</time>
      </trkpt>
      <trkpt lat="45.45546" lon="14.15323">
        <ele>633</ele>
        <time>2016-07-14T06:37:58Z</time>
      </trkpt>
      <trkpt lat="45.45543" lon="14.15342">
        <ele>634</ele>
        <time>2016-07-14T06:39:58Z</time>
      </trkpt>
      <trkpt lat="45.45537" lon="14.15364">
        <ele>635</ele>
        <time>2016-07-14T06:41:58Z</time>
      </trkpt>
      <trkpt lat="45.45533" lon="14.15381">
        <ele>636</ele>
        <time>2016-07-14T06:43:58Z</time>
      </trkpt>
      <trkpt lat="45.45532" lon="14.15389">
        <ele>636</ele>
        <time>2016-07-14T06:45:58Z</time>
      </trkpt>
      <trkpt lat="45.45531" lon="14.15394">
        <ele>636</ele>
        <time>2016-07-14T06:47:58Z</time>
      </trkpt>
      <trkpt lat="45.4553" lon="14.15399">
        <ele>637</ele>
        <time>2016-07-14T06:49:58Z</time>
      </trkpt>
      <trkpt lat="45.4553" lon="14.15403">
        <ele>637</ele>
        <time>2016-07-14T06:51:58Z</time>
      </trkpt>
      <trkpt lat="45.4553" lon="14.15408">
        <ele>637</ele>
        <time>2016-07-14T06:53:58Z</time>
      </trkpt>
      <trkpt lat="45.45532" lon="14.15417">
        <ele>638</ele>
        <time>2016-07-14T06:55:58Z</time>
      </trkpt>
      <trkpt lat="45.45535" lon="14.1543">
        <ele>638</ele>
        <time>2016-07-14T06:57:58Z</time>
      </trkpt>
      <trkpt lat="45.45538" lon="14.1544">
        <ele>638</ele>
        <time>2016-07-14T06:59:58Z</time>
      </trkpt>
      <trkpt lat="45.45541" lon="14.15448">
        <ele>638</ele>
        <time>2016-07-14T07:01:58Z</time>
      </trkpt>
      <trkpt lat="45.45546" lon="14.15457">
        <ele>638</ele>
        <time>2016-07-14T07:03:58Z</time>
      </trkpt>
      <trkpt lat="45.4556" lon="14.1548">
        <ele>639</ele>
        <time>2016-07-14T07:05:58Z</time>
      </trkpt>
      <trkpt lat="45.45575" lon="14.15506">
        <ele>639</ele>
        <time>2016-07-14T07:07:58Z</time>
      </trkpt>
      <trkpt lat="45.4559" lon="14.15533">
        <ele>640</ele>
        <time>2016-07-14T07:09:58Z</time>
      </trkpt>
      <trkpt lat="45.456" lon="14.15556">
        <ele>641</ele>
        <time>2016-07-14T07:11:58Z</time>
      </trkpt>
      <trkpt lat="45.45609" lon="14.15577">
        <ele>641</ele>
        <time>2016-07-14T07:13:58Z</time>
      </trkpt>
      <trkpt lat="45.45617" lon="14.15598">
        <ele>642</ele>
        <time>2016-07-14T07:15:58Z</time>
      </trkpt>
      <trkpt lat="45.45622" lon="14.15619">
        <ele>643</ele>
        <time>2016-07-14T07:17:58Z</time>
      </trkpt>
      <trkpt lat="45.45627" lon="14.1564">
        <ele>643</ele>
        <time>2016-07-14T07:19:58Z</time>
      </trkpt>
      <trkpt lat="45.45632" lon="14.1566">
        <ele>644</ele>
        <time>2016-07-14T07:21:58Z</time>
      </trkpt>
      <trkpt lat="45.45633" lon="14.15669">
        <ele>644</ele>
        <time>2016-07-14T07:23:58Z</time>
      </trkpt>
      <trkpt lat="45.45633" lon="14.15677">
        <ele>645</ele>
        <time>2016-07-14T07:25:58Z</time>
      </trkpt>
      <trkpt lat="45.45634" lon="14.15685">
        <ele>645</ele>
        <time>2016-07-14T07:27:58Z</time>
      </trkpt>
      <trkpt lat="45.45633" lon="14.15694">
        <ele>645</ele>
        <time>2016-07-14T07:29:58Z</time>
      </trkpt>
      <trkpt lat="45.45632" lon="14.157">
        <ele>645</ele>
        <time>2016-07-14T07:31:58Z</time>
      </trkpt>
      <trkpt lat="45.4563" lon="14.15707">
        <ele>645</ele>
        <time>2016-07-14T07:33:58Z</time>
      </trkpt>
      <trkpt lat="45.45625" lon="14.15723">
        <ele>646</ele>
        <time>2016-07-14T07:35:58Z</time>
      </trkpt>
      <trkpt lat="45.45615" lon="14.15744">
        <ele>646</ele>
        <time>2016-07-14T07:37:58Z</time>
      </trkpt>
      <trkpt lat="45.45603" lon="14.15768">
        <ele>646</ele>
        <time>2016-07-14T07:39:58Z</time>
      </trkpt>
      <trkpt lat="45.4559" lon="14.15794">
        <ele>646</ele>
        <time>2016-07-14T07:41:58Z</time>
      </trkpt>
      <trkpt lat="45.45582" lon="14.1581">
        <ele>647</ele>
        <time>2016-07-14T07:43:58Z</time>
      </trkpt>
      <trkpt lat="45.45577" lon="14.15824">
        <ele>647</ele>
        <time>2016-07-14T07:45:58Z</time>
      </trkpt>
      <trkpt lat="45.45575" lon="14.15829">
        <ele>647</ele>
        <time>2016-07-14T07:47:58Z</time>
      </trkpt>
      <trkpt lat="45.45574" lon="14.15837">
        <ele>647</ele>
        <time>2016-07-14T07:49:58Z</time>
      </trkpt>
      <trkpt lat="45.45573" lon="14.15846">
        <ele>647</ele>
        <time>2016-07-14T07:51:58Z</time>
      </trkpt>
      <trkpt lat="45.45572" lon="14.1586">
        <ele>648</ele>
        <time>2016-07-14T07:53:58Z</time>
      </trkpt>
      <trkpt lat="45.45572" lon="14.15875">
        <ele>648</ele>
        <time>2016-07-14T07:55:58Z</time>
      </trkpt>
      <trkpt lat="45.45572" lon="14.15886">
        <ele>648</ele>
        <time>2016-07-14T07:57:58Z</time>
      </trkpt>
      <trkpt lat="45.45573" lon="14.15906">
        <ele>648</ele>
        <time>2016-07-14T07:59:58Z</time>
      </trkpt>
      <trkpt lat="45.45576" lon="14.15929">
        <ele>648</ele>
        <time>2016-07-14T08:01:58Z</time>
      </trkpt>
      <trkpt lat="45.45579" lon="14.15951">
        <ele>648</ele>
        <time>2016-07-14T08:03:58Z</time>
      </trkpt>
      <trkpt lat="45.45582" lon="14.15972">
        <ele>647</ele>
        <time>2016-07-14T08:05:58Z</time>
      </trkpt>
      <trkpt lat="45.45583" lon="14.15984">
        <ele>647</ele>
        <time>2016-07-14T08:07:58Z</time>
      </trkpt>
      <trkpt lat="45.45586" lon="14.15999">
        <ele>646</ele>
        <time>2016-07-14T08:09:58Z</time>
      </trkpt>
      <trkpt lat="45.45589" lon="14.1602">
        <ele>645</ele>
        <time>2016-07-14T08:11:58Z</time>
      </trkpt>
      <trkpt lat="45.45594" lon="14.16055">
        <ele>644</ele>
        <time>2016-07-14T08:13:58Z</time>
      </trkpt>
      <trkpt lat="45.45601" lon="14.16104">
        <ele>643</ele>
        <time>2016-07-14T08:15:58Z</time>
      </trkpt>
      <trkpt lat="45.45603" lon="14.16124">
        <ele>642</ele>
        <time>2016-07-14T08:17:58Z</time>
      </trkpt>
      <trkpt lat="45.45608" lon="14.16163">
        <ele>641</ele>
        <time>2016-07-14T08:19:58Z</time>
      </trkpt>
      <trkpt lat="45.45612" lon="14.16191">
        <ele>641</ele>
        <time>2016-07-14T08:21:58Z</time>
      </trkpt>
      <trkpt lat="45.45613" lon="14.16208">
        <ele>641</ele>
        <time>2016-07-14T08:23:58Z</time>
      </trkpt>
      <trkpt lat="45.45613" lon="14.16218">
        <ele>641</ele>
        <time>2016-07-14T08:25:58Z</time>
      </trkpt>
      <trkpt lat="45.45613" lon="14.16229">
        <ele>641</ele>
        <time>2016-07-14T08:27:58Z</time>
      </trkpt>
      <trkpt lat="45.45613" lon="14.1624">
        <ele>641</ele>
        <time>2016-07-14T08:29:58Z</time>
      </trkpt>
      <trkpt lat="45.45612" lon="14.16252">
        <ele>641</ele>
        <time>2016-07-14T08:31:58Z</time>
      </trkpt>
      <trkpt lat="45.4561" lon="14.16262">
        <ele>642</ele>
        <time>2016-07-14T08:33:58Z</time>
      </trkpt>
      <trkpt lat="45.45607" lon="14.16276">
        <ele>642</ele>
        <time>2016-07-14T08:35:58Z</time>
      </trkpt>
      <trkpt lat="45.45598" lon="14.16305">
        <ele>642</ele>
        <time>2016-07-14T08:37:58Z</time>
      </trkpt>
      <trkpt lat="45.4559" lon="14.1633">
        <ele>643</ele>
        <time>2016-07-14T08:39:58Z</time>
      </trkpt>
      <trkpt lat="45.45579" lon="14.16363">
        <ele>641</ele>
        <time>2016-07-14T08:41:58Z</time>
      </trkpt>
      <trkpt lat="45.45571" lon="14.16386">
        <ele>640</ele>
        <time>2016-07-14T08:43:58Z</time>
      </trkpt>
      <trkpt lat="45.45565" lon="14.16404">
        <ele>639</ele>
        <time>2016-07-14T08:45:58Z</time>
      </trkpt>
      <trkpt lat="45.45561" lon="14.16419">
        <ele>639</ele>
        <time>2016-07-14T08:47:58Z</time>
      </trkpt>
      <trkpt lat="45.45559" lon="14.16436">
        <ele>639</ele>
        <time>2016-07-14T08:49:58Z</time>
      </trkpt>
      <trkpt lat="45.45559" lon="14.16445">
        <ele>639</ele>
        <time>2016-07-14T08:51:58Z</time>
      </trkpt>
      <trkpt lat="45.45559" lon="14.16459">
        <ele>640</ele>
        <time>2016-07-14T08:53:58Z</time>
      </trkpt>
      <trkpt lat="45.45561" lon="14.16472">
        <ele>640</ele>
        <time>2016-07-14T08:55:58Z</time>
      </trkpt>
      <trkpt lat="45.45564" lon="14.16488">
        <ele>640</ele>
        <time>2016-07-14T08:57:58Z</time>
      </trkpt>
      <trkpt lat="45.45569" lon="14.16509">
        <ele>641</ele>
        <time>2016-07-14T08:59:58Z</time>
      </trkpt>
      <trkpt lat="45.45575" lon="14.1653">
        <ele>642</ele>
        <time>2016-07-14T09:01:58Z</time>
      </trkpt>
      <trkpt lat="45.45578" lon="14.16539">
        <ele>642</ele>
        <time>2016-07-14T09:03:58Z</time>
      </trkpt>
      <trkpt lat="45.45579" lon="14.1655">
        <ele>642</ele>
        <time>2016-07-14T09:05:58Z</time>
      </trkpt>
      <trkpt lat="45.4558" lon="14.16562">
        <ele>642</ele>
        <time>2016-07-14T09:07:58Z</time>
      </trkpt>
      <trkpt lat="45.4558" lon="14.16572">
        <ele>643</ele>
        <time>2016-07-14T09:09:58Z</time>
      </trkpt>
      <trkpt lat="45.45578" lon="14.16598">
        <ele>643</ele>
        <time>2016-07-14T09:11:58Z</time>
      </trkpt>
      <trkpt lat="45.45574" lon="14.16612">
        <ele>643</ele>
        <time>2016-07-14T09:13:58Z</time>
      </trkpt>
      <trkpt lat="45.45572" lon="14.16621">
        <ele>643</ele>
        <time>2016-07-14T09:15:58Z</time>
      </trkpt>
      <trkpt lat="45.45567" lon="14.16632">
        <ele>643</ele>
        <time>2016-07-14T09:17:58Z</time>
      </trkpt>
      <trkpt lat="45.45561" lon="14.16644">
        <ele>644</ele>
        <time>2016-07-14T09:19:58Z</time>
      </trkpt>
      <trkpt lat="45.45549" lon="14.16667">
        <ele>644</ele>
        <time>2016-07-14T09:21:58Z</time>
      </trkpt>
      <trkpt lat="45.45482" lon="14.16799">
        <ele>644</ele>
        <time>2016-07-14T09:23:58Z</time>
      </trkpt>
      <trkpt lat="45.45406" lon="14.16937">
        <ele>641</ele>
        <time>2016-07-14T09:25:58Z</time>
      </trkpt>
      <trkpt lat="45.45377" lon="14.16991">
        <ele>639</ele>
        <time>2016-07-14T09:27:58Z</time>
      </trkpt>
      <trkpt lat="45.45369" lon="14.17014">
        <ele>639</ele>
        <time>2016-07-14T09:29:58Z</time>
      </trkpt>
      <trkpt lat="45.4536" lon="14.17046">
        <ele>639</ele>
        <time>2016-07-14T09:31:58Z</time>
      </trkpt>
      <trkpt lat="45.45354" lon="14.17079">
        <ele>639</ele>
        <time>2016-07-14T09:33:58Z</time>
      </trkpt>
      <trkpt lat="45.45346" lon="14.17128">
        <ele>642</ele>
        <time>2016-07-14T09:35:58Z</time>
      </trkpt>
      <trkpt lat="45.45315" lon="14.17342">
        <ele>640</ele>
        <time>2016-07-14T09:37:58Z</time>
      </trkpt>
      <trkpt lat="45.45298" lon="14.17459">
        <ele>646</ele>
        <time>2016-07-14T09:39:58Z</time>
      </trkpt>
      <trkpt lat="45.45292" lon="14.17508">
        <ele>649</ele>
        <time>2016-07-14T09:41:58Z</time>
      </trkpt>
      <trkpt lat="45.45278" lon="14.17592">
        <ele>652</ele>
        <time>2016-07-14T09:43:58Z</time>
      </trkpt>
      <trkpt lat="45.4527" lon="14.17637">
        <ele>653</ele>
        <time>2016-07-14T09:45:58Z</time>
      </trkpt>
      <trkpt lat="45.45263" lon="14.17691">
        <ele>655</ele>
        <time>2016-07-14T09:47:58Z</time>
      </trkpt>
      <trkpt lat="45.45254" lon="14.17729">
        <ele>654</ele>
        <time>2016-07-14T09:49:58Z</time>
      </trkpt>
      <trkpt lat="45.45247" lon="14.17755">
        <ele>653</ele>
        <time>2016-07-14T09:51:58Z</time>
      </trkpt>
      <trkpt lat="45.45235" lon="14.17782">
        <ele>653</ele>
        <time>2016-07-14T09:53:58Z</time>
      </trkpt>
      <trkpt lat="45.45216" lon="14.17813">
        <ele>652</ele>
        <time>2016-07-14T09:55:58Z</time>
      </trkpt>
      <trkpt lat="45.45192" lon="14.17845">
        <ele>651</ele>
        <time>2016-07-14T09:57:58Z</time>
      </trkpt>
      <trkpt lat="45.4516" lon="14.17882">
        <ele>650</ele>
        <time>2016-07-14T09:59:58Z</time>
      </trkpt>
      <trkpt lat="45.45081" lon="14.17971">
        <ele>649</ele>
        <time>2016-07-14T10:01:58Z</time>
      </trkpt>
      <trkpt lat="45.45071" lon="14.17983">
        <ele>648</ele>
        <time>2016-07-14T10:03:58Z</time>
      </trkpt>
      <trkpt lat="45.45056" lon="14.18005">
        <ele>646</ele>
        <time>2016-07-14T10:05:58Z</time>
      </trkpt>
      <trkpt lat="45.44984" lon="14.18091">
        <ele>640</ele>
        <time>2016-07-14T10:07:58Z</time>
      </trkpt>
      <trkpt lat="45.44913" lon="14.18172">
        <ele>635</ele>
        <time>2016-07-14T10:09:58Z</time>
      </trkpt>
      <trkpt lat="45.4487" lon="14.18225">
        <ele>633</ele>
        <time>2016-07-14T10:11:58Z</time>
      </trkpt>
      <trkpt lat="45.44836" lon="14.18267">
        <ele>630</ele>
        <time>2016-07-14T10:13:58Z</time>
      </trkpt>
      <trkpt lat="45.44695" lon="14.18432">
        <ele>622</ele>
        <time>2016-07-14T10:15:58Z</time>
      </trkpt>
      <trkpt lat="45.44663" lon="14.18474">
        <ele>621</ele>
        <time>2016-07-14T10:17:58Z</time>
      </trkpt>
      <trkpt lat="45.44623" lon="14.18524">
        <ele>617</ele>
        <time>2016-07-14T10:19:58Z</time>
      </trkpt>
      <trkpt lat="45.44565" lon="14.186">
        <ele>619</ele>
        <time>2016-07-14T10:21:58Z</time>
      </trkpt>
      <trkpt lat="45.44532" lon="14.18639">
        <ele>620</ele>
        <time>2016-07-14T10:23:58Z</time>
      </trkpt>
      <trkpt lat="45.4452" lon="14.18654">
        <ele>619</ele>
        <time>2016-07-14T10:25:58Z</time>
      </trkpt>
      <trkpt lat="45.44511" lon="14.18673">
        <ele>619</ele>
        <time>2016-07-14T10:27:58Z</time>
      </trkpt>
      <trkpt lat="45.44503" lon="14.18699">
        <ele>619</ele>
        <time>2016-07-14T10:29:58Z</time>
      </trkpt>
      <trkpt lat="45.44482" lon="14.18793">
        <ele>619</ele>
        <time>2016-07-14T10:31:58Z</time>
      </trkpt>
      <trkpt lat="45.44476" lon="14.18824">
        <ele>618</ele>
        <time>2016-07-14T10:33:58Z</time>
      </trkpt>
      <trkpt lat="45.44465" lon="14.18874">
        <ele>617</ele>
        <time>2016-07-14T10:35:58Z</time>
      </trkpt>
      <trkpt lat="45.44448" lon="14.18968">
        <ele>613</ele>
        <time>2016-07-14T10:37:58Z</time>
      </trkpt>
      <trkpt lat="45.44425" lon="14.19068">
        <ele>610</ele>
        <time>2016-07-14T10:39:58Z</time>
      </trkpt>
      <trkpt lat="45.44415" lon="14.19115">
        <ele>612</ele>
        <time>2016-07-14T10:41:58Z</time>
      </trkpt>
      <trkpt lat="45.44401" lon="14.19156">
        <ele>613</ele>
        <time>2016-07-14T10:43:58Z</time>
      </trkpt>
      <trkpt lat="45.44381" lon="14.19208">
        <ele>615</ele>
        <time>2016-07-14T10:45:58Z</time>
      </trkpt>
      <trkpt lat="45.44363" lon="14.19246">
        <ele>615</ele>
        <time>2016-07-14T10:47:58Z</time>
      </trkpt>
      <trkpt lat="45.44341" lon="14.19286">
        <ele>615</ele>
        <time>2016-07-14T10:49:58Z</time>
      </trkpt>
      <trkpt lat="45.44313" lon="14.19328">
        <ele>616</ele>
        <time>2016-07-14T10:51:58Z</time>
      </trkpt>
      <trkpt lat="45.44281" lon="14.19364">
        <ele>613</ele>
        <time>2016-07-14T10:53:58Z</time>
      </trkpt>
      <trkpt lat="45.44249" lon="14.19395">
        <ele>609</ele>
        <time>2016-07-14T10:55:58Z</time>
      </trkpt>
      <trkpt lat="45.44181" lon="14.19456">
        <ele>607</ele>
        <time>2016-07-14T10:57:58Z</time>
      </trkpt>
      <trkpt lat="45.44178" lon="14.19458">
        <ele>607</ele>
        <time>2016-07-14T10:59:58Z</time>
      </trkpt>
      <trkpt lat="45.44054" lon="14.1957">
        <ele>602</ele>
        <time>2016-07-14T11:01:58Z</time>
      </trkpt>
      <trkpt lat="45.44039" lon="14.19584">
        <ele>602</ele>
        <time>2016-07-14T11:03:58Z</time>
      </trkpt>
      <trkpt lat="45.43881" lon="14.19723">
        <ele>596</ele>
        <time>2016-07-14T11:05:58Z</time>
      </trkpt>
      <trkpt lat="45.43792" lon="14.19809">
        <ele>588</ele>
        <time>2016-07-14T11:07:58Z</time>
      </trkpt>
      <trkpt lat="45.4375" lon="14.19847">
        <ele>584</ele>
        <time>2016-07-14T11:09:58Z</time>
      </trkpt>
      <trkpt lat="45.43682" lon="14.199">
        <ele>584</ele>
        <time>2016-07-14T11:11:58Z</time>
      </trkpt>
      <trkpt lat="45.43618" lon="14.19956">
        <ele>584</ele>
        <time>2016-07-14T11:13:58Z</time>
      </trkpt>
      <trkpt lat="45.43569" lon="14.20002">
        <ele>586</ele>
        <time>2016-07-14T11:15:58Z</time>
      </trkpt>
      <trkpt lat="45.43553" lon="14.20015">
        <ele>587</ele>
        <time>2016-07-14T11:17:58Z</time>
      </trkpt>
      <trkpt lat="45.43532" lon="14.2003">
        <ele>588</ele>
        <time>2016-07-14T11:19:58Z</time>
      </trkpt>
      <trkpt lat="45.43499" lon="14.20039">
        <ele>590</ele>
        <time>2016-07-14T11:21:58Z</time>
      </trkpt>
      <trkpt lat="45.43447" lon="14.2005">
        <ele>588</ele>
        <time>2016-07-14T11:23:58Z</time>
      </trkpt>
      <trkpt lat="45.43399" lon="14.20058">
        <ele>587</ele>
        <time>2016-07-14T11:25:58Z</time>
      </trkpt>
      <trkpt lat="45.43346" lon="14.20057">
        <ele>587</ele>
        <time>2016-07-14T11:27:58Z</time>
      </trkpt>
      <trkpt lat="45.4331" lon="14.20058">
        <ele>586</ele>
        <time>2016-07-14T11:29:58Z</time>
      </trkpt>
      <trkpt lat="45.43296" lon="14.20059">
        <ele>586</ele>
        <time>2016-07-14T11:31:58Z</time>
      </trkpt>
      <trkpt lat="45.43284" lon="14.2006">
        <ele>586</ele>
        <time>2016-07-14T11:33:58Z</time>
      </trkpt>
      <trkpt lat="45.43276" lon="14.20064">
        <ele>586</ele>
        <time>2016-07-14T11:35:58Z</time>
      </trkpt>
      <trkpt lat="45.43266" lon="14.2007">
        <ele>586</ele>
        <time>2016-07-14T11:37:58Z</time>
      </trkpt>
      <trkpt lat="45.43251" lon="14.20087">
        <ele>586</ele>
        <time>2016-07-14T11:39:58Z</time>
      </trkpt>
      <trkpt lat="45.43235" lon="14.20115">
        <ele>588</ele>
        <time>2016-07-14T11:41:58Z</time>
      </trkpt>
      <trkpt lat="45.43202" lon="14.20178">
        <ele>587</ele>
        <time>2016-07-14T11:43:58Z</time>
      </trkpt>
      <trkpt lat="45.43177" lon="14.20223">
        <ele>585</ele>
        <time>2016-07-14T11:45:58Z</time>
      </trkpt>
      <trkpt lat="45.43166" lon="14.2024">
        <ele>583</ele>
        <time>2016-07-14T11:47:58Z</time>
      </trkpt>
      <trkpt lat="45.43157" lon="14.20249">
        <ele>583</ele>
        <time>2016-07-14T11:49:58Z</time>
      </trkpt>
      <trkpt lat="45.4314" lon="14.2026">
        <ele>583</ele>
        <time>2016-07-14T11:51:58Z</time>
      </trkpt>
      <trkpt lat="45.43112" lon="14.20274">
        <ele>583</ele>
        <time>2016-07-14T11:53:58Z</time>
      </trkpt>
      <trkpt lat="45.43085" lon="14.20288">
        <ele>581</ele>
        <time>2016-07-14T11:55:58Z</time>
      </trkpt>
      <trkpt lat="45.43069" lon="14.20296">
        <ele>581</ele>
        <time>2016-07-14T11:57:58Z</time>
      </trkpt>
      <trkpt lat="45.43053" lon="14.20314">
        <ele>579</ele>
        <time>2016-07-14T11:59:58Z</time>
      </trkpt>
      <trkpt lat="45.43044" lon="14.2033">
        <ele>578</ele>
        <time>2016-07-14T12:01:58Z</time>
      </trkpt>
      <trkpt lat="45.43033" lon="14.20354">
        <ele>578</ele>
        <time>2016-07-14T12:03:58Z</time>
      </trkpt>
      <trkpt lat="45.43" lon="14.20438">
        <ele>574</ele>
        <time>2016-07-14T12:05:58Z</time>
      </trkpt>
      <trkpt lat="45.42975" lon="14.20506">
        <ele>571</ele>
        <time>2016-07-14T12:07:58Z</time>
      </trkpt>
      <trkpt lat="45.42944" lon="14.2059">
        <ele>571</ele>
        <time>2016-07-14T12:09:58Z</time>
      </trkpt>
      <trkpt lat="45.4293" lon="14.2063">
        <ele>570</ele>
        <time>2016-07-14T12:11:58Z</time>
      </trkpt>
      <trkpt lat="45.42913" lon="14.20669">
        <ele>569</ele>
        <time>2016-07-14T12:13:58Z</time>
      </trkpt>
      <trkpt lat="45.42896" lon="14.20701">
        <ele>567</ele>
        <time>2016-07-14T12:15:58Z</time>
      </trkpt>
      <trkpt lat="45.42843" lon="14.20778">
        <ele>563</ele>
        <time>2016-07-14T12:17:58Z</time>
      </trkpt>
      <trkpt lat="45.42769" lon="14.20886">
        <ele>559</ele>
        <time>2016-07-14T12:19:58Z</time>
      </trkpt>
      <trkpt lat="45.42723" lon="14.20951">
        <ele>561</ele>
        <time>2016-07-14T12:21:58Z</time>
      </trkpt>
      <trkpt lat="45.42703" lon="14.20982">
        <ele>563</ele>
        <time>2016-07-14T12:23:58Z</time>
      </trkpt>
      <trkpt lat="45.42681" lon="14.21014">
        <ele>564</ele>
        <time>2016-07-14T12:25:58Z</time>
      </trkpt>
      <trkpt lat="45.42673" lon="14.21028">
        <ele>564</ele>
        <time>2016-07-14T12:27:58Z</time>
      </trkpt>
      <trkpt lat="45.4267" lon="14.21037">
        <ele>564</ele>
        <time>2016-07-14T12:29:58Z</time>
      </trkpt>
      <trkpt lat="45.42666" lon="14.2105">
        <ele>565</ele>
        <time>2016-07-14T12:31:58Z</time>
      </trkpt>
      <trkpt lat="45.42664" lon="14.21063">
        <ele>565</ele>
        <time>2016-07-14T12:33:58Z</time>
      </trkpt>
      <trkpt lat="45.42662" lon="14.21078">
        <ele>565</ele>
        <time>2016-07-14T12:35:58Z</time>
      </trkpt>
      <trkpt lat="45.4266" lon="14.2112">
        <ele>568</ele>
        <time>2016-07-14T12:37:58Z</time>
      </trkpt>
      <trkpt lat="45.42659" lon="14.21151">
        <ele>569</ele>
        <time>2016-07-14T12:39:58Z</time>
      </trkpt>
      <trkpt lat="45.42657" lon="14.21178">
        <ele>571</ele>
        <time>2016-07-14T12:41:58Z</time>
      </trkpt>
      <trkpt lat="45.42653" lon="14.21203">
        <ele>572</ele>
        <time>2016-07-14T12:43:58Z</time>
      </trkpt>
      <trkpt lat="45.42648" lon="14.2122">
        <ele>572</ele>
        <time>2016-07-14T12:45:58Z</time>
      </trkpt>
      <trkpt lat="45.42642" lon="14.21235">
        <ele>572</ele>
        <time>2016-07-14T12:47:58Z</time>
      </trkpt>
      <trkpt lat="45.42634" lon="14.21246">
        <ele>572</ele>
        <time>2016-07-14T12:49:58Z</time>
      </trkpt>
      <trkpt lat="45.42623" lon="14.21257">
        <ele>573</ele>
        <time>2016-07-14T12:51:58Z</time>
      </trkpt>
      <trkpt lat="45.42586" lon="14.21278">
        <ele>576</ele>
        <time>2016-07-14T12:53:58Z</time>
      </trkpt>
      <trkpt lat="45.4255" lon="14.21299">
        <ele>580</ele>
        <time>2016-07-14T12:55:58Z</time>
      </trkpt>
      <trkpt lat="45.42532" lon="14.21307">
        <ele>580</ele>
        <time>2016-07-14T12:57:58Z</time>
      </trkpt>
      <trkpt lat="45.42523" lon="14.21314">
        <ele>580</ele>
        <time>2016-07-14T12:59:58Z</time>
      </trkpt>
      <trkpt lat="45.42515" lon="14.21324">
        <ele>580</ele>
        <time>2016-07-14T13:01:58Z</time>
      </trkpt>
      <trkpt lat="45.42508" lon="14.21334">
        <ele>580</ele>
        <time>2016-07-14T13:03:58Z</time>
      </trkpt>
      <trkpt lat="45.42498" lon="14.21353">
        <ele>580</ele>
        <time>2016-07-14T13:05:58Z</time>
      </trkpt>
      <trkpt lat="45.42489" lon="14.21377">
        <ele>581</ele>
        <time>2016-07-14T13:07:58Z</time>
      </trkpt>
      <trkpt lat="45.42466" lon="14.21447">
        <ele>580</ele>
        <time>2016-07-14T13:09:58Z</time>
      </trkpt>
      <trkpt lat="45.42456" lon="14.21483">
        <ele>579</ele>
        <time>2016-07-14T13:11:58Z</time>
      </trkpt>
      <trkpt lat="45.42445" lon="14.21515">
        <ele>580</ele>
        <time>2016-07-14T13:13:58Z</time>
      </trkpt>
      <trkpt lat="45.42447" lon="14.21572">
        <ele>585</ele>
        <time>2016-07-14T13:15:58Z</time>
      </trkpt>
      <trkpt lat="45.42457" lon="14.21675">
        <ele>597</ele>
        <time>2016-07-14T13:17:58Z</time>
      </trkpt>
      <trkpt lat="45.4247" lon="14.21807">
        <ele>593</ele>
        <time>2016-07-14T13:19:58Z</time>
      </trkpt>
      <trkpt lat="45.42481" lon="14.2186">
        <ele>590</ele>
        <time>2016-07-14T13:21:58Z</time>
      </trkpt>
      <trkpt lat="45.4249" lon="14.21894">
        <ele>588</ele>
        <time>2016-07-14T13:23:58Z</time>
      </trkpt>
      <trkpt lat="45.42494" lon="14.21932">
        <ele>587</ele>
        <time>2016-07-14T13:25:58Z</time>
      </trkpt>
      <trkpt lat="45.42493" lon="14.21973">
        <ele>587</ele>
        <time>2016-07-14T13:27:58Z</time>
      </trkpt>
      <trkpt lat="45.42491" lon="14.22007">
        <ele>587</ele>
        <time>2016-07-14T13:29:58Z</time>
      </trkpt>
      <trkpt lat="45.42494" lon="14.22032">
        <ele>588</ele>
        <time>2016-07-14T13:31:58Z</time>
      </trkpt>
      <trkpt lat="45.42497" lon="14.22055">
        <ele>590</ele>
        <time>2016-07-14T13:33:58Z</time>
      </trkpt>
      <trkpt lat="45.42505" lon="14.22079">
        <ele>592</ele>
        <time>2016-07-14T13:35:58Z</time>
      </trkpt>
      <trkpt lat="45.42507" lon="14.22104">
        <ele>593</ele>
        <time>2016-07-14T13:37:58Z</time>
      </trkpt>
      <trkpt lat="45.42508" lon="14.22123">
        <ele>594</ele>
        <time>2016-07-14T13:39:58Z</time>
      </trkpt>
      <trkpt lat="45.42507" lon="14.22147">
        <ele>595</ele>
        <time>2016-07-14T13:41:58Z</time>
      </trkpt>
      <trkpt lat="45.42497" lon="14.22184">
        <ele>594</ele>
        <time>2016-07-14T13:43:58Z</time>
      </trkpt>
      <trkpt lat="45.42486" lon="14.22221">
        <ele>593</ele>
        <time>2016-07-14T13:45:58Z</time>
      </trkpt>
      <trkpt lat="45.42475" lon="14.22254">
        <ele>592</ele>
        <time>2016-07-14T13:47:58Z</time>
      </trkpt>
      <trkpt lat="45.42459" lon="14.223">
        <ele>593</ele>
        <time>2016-07-14T13:49:58Z</time>
      </trkpt>
      <trkpt lat="45.42437" lon="14.22349">
        <ele>594</ele>
        <time>2016-07-14T13:51:58Z</time>
      </trkpt>
      <trkpt lat="45.42423" lon="14.22378">
        <ele>593</ele>
        <time>2016-07-14T13:53:58Z</time>
      </trkpt>
      <trkpt lat="45.42406" lon="14.22408">
        <ele>593</ele>
        <time>2016-07-14T13:55:58Z</time>
      </trkpt>
      <trkpt lat="45.42386" lon="14.22439">
        <ele>595</ele>
        <time>2016-07-14T13:57:58Z</time>
      </trkpt>
      <trkpt lat="45.4237" lon="14.22458">
        <ele>596</ele>
        <time>2016-07-14T13:59:58Z</time>
      </trkpt>
      <trkpt lat="45.42356" lon="14.22468">
        <ele>596</ele>
        <time>2016-07-14T14:01:58Z</time>
      </trkpt>
      <trkpt lat="45.42335" lon="14.2247">
        <ele>594</ele>
        <time>2016-07-14T14:03:58Z</time>
      </trkpt>
      <trkpt lat="45.42316" lon="14.22475">
        <ele>592</ele>
        <time>2016-07-14T14:05:58Z</time>
      </trkpt>
      <trkpt lat="45.423" lon="14.22482">
        <ele>591</ele>
        <time>2016-07-14T14:07:58Z</time>
      </trkpt>
      <trkpt lat="45.42278" lon="14.22498">
        <ele>589</ele>
        <time>2016-07-14T14:09:58Z</time>
      </trkpt>
      <trkpt lat="45.42266" lon="14.22507">
        <ele>589</ele>
        <time>2016-07-14T14:11:58Z</time>
      </trkpt>
      <trkpt lat="45.42251" lon="14.2252">
        <ele>588</ele>
        <time>2016-07-14T14:13:58Z</time>
      </trkpt>
      <trkpt lat="45.42216" lon="14.22542">
        <ele>589</ele>
        <time>2016-07-14T14:15:58Z</time>
      </trkpt>
      <trkpt lat="45.42197" lon="14.22553">
        <ele>590</ele>
        <time>2016-07-14T14:17:58Z</time>
      </trkpt>
      <trkpt lat="45.42178" lon="14.2256">
        <ele>590</ele>
        <time>2016-07-14T14:19:58Z</time>
      </trkpt>
      <trkpt lat="45.42163" lon="14.22564">
        <ele>590</ele>
        <time>2016-07-14T14:21:58Z</time>
      </trkpt>
      <trkpt lat="45.42146" lon="14.2257">
        <ele>592</ele>
        <time>2016-07-14T14:23:58Z</time>
      </trkpt>
      <trkpt lat="45.42128" lon="14.2257">
        <ele>593</ele>
        <time>2016-07-14T14:25:58Z</time>
      </trkpt>
      <trkpt lat="45.42106" lon="14.22568">
        <ele>594</ele>
        <time>2016-07-14T14:27:58Z</time>
      </trkpt>
      <trkpt lat="45.4209" lon="14.22572">
        <ele>595</ele>
        <time>2016-07-14T14:29:58Z</time>
      </trkpt>
      <trkpt lat="45.42078" lon="14.2258">
        <ele>596</ele>
        <time>2016-07-14T14:31:58Z</time>
      </trkpt>
      <trkpt lat="45.42059" lon="14.22602">
        <ele>595</ele>
        <time>2016-07-14T14:33:58Z</time>
      </trkpt>
      <trkpt lat="45.42044" lon="14.22616">
        <ele>594</ele>
        <time>2016-07-14T14:35:58Z</time>
      </trkpt>
      <trkpt lat="45.42031" lon="14.22636">
        <ele>594</ele>
        <time>2016-07-14T14:37:58Z</time>
      </trkpt>
      <trkpt lat="45.42011" lon="14.22655">
        <ele>594</ele>
        <time>2016-07-14T14:39:58Z</time>
      </trkpt>
      <trkpt lat="45.41999" lon="14.22664">
        <ele>594</ele>
        <time>2016-07-14T14:41:58Z</time>
      </trkpt>
      <trkpt lat="45.41984" lon="14.22668">
        <ele>593</ele>
        <time>2016-07-14T14:43:58Z</time>
      </trkpt>
      <trkpt lat="45.41966" lon="14.22671">
        <ele>592</ele>
        <time>2016-07-14T14:45:58Z</time>
      </trkpt>
      <trkpt lat="45.41954" lon="14.22672">
        <ele>592</ele>
        <time>2016-07-14T14:47:58Z</time>
      </trkpt>
      <trkpt lat="45.41944" lon="14.22676">
        <ele>591</ele>
        <time>2016-07-14T14:49:58Z</time>
      </trkpt>
      <trkpt lat="45.41937" lon="14.22681">
        <ele>591</ele>
        <time>2016-07-14T14:51:58Z</time>
      </trkpt>
      <trkpt lat="45.41927" lon="14.22689">
        <ele>591</ele>
        <time>2016-07-14T14:53:58Z</time>
      </trkpt>
      <trkpt lat="45.41916" lon="14.22698">
        <ele>590</ele>
        <time>2016-07-14T14:55:58Z</time>
      </trkpt>
      <trkpt lat="45.41909" lon="14.22711">
        <ele>591</ele>
        <time>2016-07-14T14:57:58Z</time>
      </trkpt>
      <trkpt lat="45.41901" lon="14.22739">
        <ele>591</ele>
        <time>2016-07-14T14:59:58Z</time>
      </trkpt>
      <trkpt lat="45.41891" lon="14.2278">
        <ele>590</ele>
        <time>2016-07-14T15:01:58Z</time>
      </trkpt>
      <trkpt lat="45.41875" lon="14.22827">
        <ele>588</ele>
        <time>2016-07-14T15:03:58Z</time>
      </trkpt>
      <trkpt lat="45.4186" lon="14.22859">
        <ele>585</ele>
        <time>2016-07-14T15:05:58Z</time>
      </trkpt>
      <trkpt lat="45.41849" lon="14.22893">
        <ele>583</ele>
        <time>2016-07-14T15:07:58Z</time>
      </trkpt>
      <trkpt lat="45.41845" lon="14.22912">
        <ele>581</ele>
        <time>2016-07-14T15:09:58Z</time>
      </trkpt>
      <trkpt lat="45.41844" lon="14.22938">
        <ele>582</ele>
        <time>2016-07-14T15:11:58Z</time>
      </trkpt>
      <trkpt lat="45.41847" lon="14.22975">
        <ele>584</ele>
        <time>2016-07-14T15:13:58Z</time>
      </trkpt>
      <trkpt lat="45.41849" lon="14.23012">
        <ele>585</ele>
        <time>2016-07-14T15:15:58Z</time>
      </trkpt>
      <trkpt lat="45.4185" lon="14.2305">
        <ele>587</ele>
        <time>2016-07-14T15:17:58Z</time>
      </trkpt>
      <trkpt lat="45.41852" lon="14.23077">
        <ele>589</ele>
        <time>2016-07-14T15:19:58Z</time>
      </trkpt>
      <trkpt lat="45.41852" lon="14.23102">
        <ele>589</ele>
        <time>2016-07-14T15:21:58Z</time>
      </trkpt>
      <trkpt lat="45.41852" lon="14.23126">
        <ele>589</ele>
        <time>2016-07-14T15:23:58Z</time>
      </trkpt>
      <trkpt lat="45.41848" lon="14.23149">
        <ele>588</ele>
        <time>2016-07-14T15:25:58Z</time>
      </trkpt>
      <trkpt lat="45.41842" lon="14.23174">
        <ele>588</ele>
        <time>2016-07-14T15:27:58Z</time>
      </trkpt>
      <trkpt lat="45.41818" lon="14.2322">
        <ele>586</ele>
        <time>2016-07-14T15:29:58Z</time>
      </trkpt>
      <trkpt lat="45.41798" lon="14.23264">
        <ele>586</ele>
        <time>2016-07-14T15:31:58Z</time>
      </trkpt>
      <trkpt lat="45.41765" lon="14.23373">
        <ele>585</ele>
        <time>2016-07-14T15:33:58Z</time>
      </trkpt>
      <trkpt lat="45.41746" lon="14.23439">
        <ele>583</ele>
        <time>2016-07-14T15:35:58Z</time>
      </trkpt>
      <trkpt lat="45.41739" lon="14.23462">
        <ele>583</ele>
        <time>2016-07-14T15:37:58Z</time>
      </trkpt>
      <trkpt lat="45.41733" lon="14.23488">
        <ele>582</ele>
        <time>2016-07-14T15:39:58Z</time>
      </trkpt>
      <trkpt lat="45.41726" lon="14.23509">
        <ele>582</ele>
        <time>2016-07-14T15:41:58Z</time>
      </trkpt>
      <trkpt lat="45.41716" lon="14.23528">
        <ele>581</ele>
        <time>2016-07-14T15:43:58Z</time>
      </trkpt>
      <trkpt lat="45.41632" lon="14.23636">
        <ele>578</ele>
        <time>2016-07-14T15:45:58Z</time>
      </trkpt>
      <trkpt lat="45.41614" lon="14.2366">
        <ele>577</ele>
        <time>2016-07-14T15:47:58Z</time>
      </trkpt>
      <trkpt lat="45.41607" lon="14.2367">
        <ele>577</ele>
        <time>2016-07-14T15:49:58Z</time>
      </trkpt>
      <trkpt lat="45.41601" lon="14.23682">
        <ele>575</ele>
        <time>2016-07-14T15:51:58Z</time>
      </trkpt>
      <trkpt lat="45.41597" lon="14.23695">
        <ele>574</ele>
        <time>2016-07-14T15:53:58Z</time>
      </trkpt>
      <trkpt lat="45.41595" lon="14.2371">
        <ele>574</ele>
        <time>2016-07-14T15:55:58Z</time>
      </trkpt>
      <trkpt lat="45.41594" lon="14.23733">
        <ele>573</ele>
        <time>2016-07-14T15:57:58Z</time>
      </trkpt>
      <trkpt lat="45.41597" lon="14.23767">
        <ele>574</ele>
        <time>2016-07-14T15:59:58Z</time>
      </trkpt>
      <trkpt lat="45.41603" lon="14.23793">
        <ele>574</ele>
        <time>2016-07-14T16:01:58Z</time>
      </trkpt>
      <trkpt lat="45.41606" lon="14.23814">
        <ele>575</ele>
        <time>2016-07-14T16:03:58Z</time>
      </trkpt>
      <trkpt lat="45.41607" lon="14.23832">
        <ele>575</ele>
        <time>2016-07-14T16:05:58Z</time>
      </trkpt>
      <trkpt lat="45.41608" lon="14.23851">
        <ele>576</ele>
        <time>2016-07-14T16:07:58Z</time>
      </trkpt>
      <trkpt lat="45.41602" lon="14.23914">
        <ele>577</ele>
        <time>2016-07-14T16:09:58Z</time>
      </trkpt>
      <trkpt lat="45.41598" lon="14.2396">
        <ele>577</ele>
        <time>2016-07-14T16:11:58Z</time>
      </trkpt>
      <trkpt lat="45.41593" lon="14.23986">
        <ele>576</ele>
        <time>2016-07-14T16:13:58Z</time>
      </trkpt>
      <trkpt lat="45.4159" lon="14.24003">
        <ele>576</ele>
        <time>2016-07-14T16:15:58Z</time>
      </trkpt>
      <trkpt lat="45.41591" lon="14.24022">
        <ele>578</ele>
        <time>2016-07-14T16:17:58Z</time>
      </trkpt>
      <trkpt lat="45.4159" lon="14.24039">
        <ele>579</ele>
        <time>2016-07-14T16:19:58Z</time>
      </trkpt>
      <trkpt lat="45.41586" lon="14.2406">
        <ele>579</ele>
        <time>2016-07-14T16:21:58Z</time>
      </trkpt>
      <trkpt lat="45.4157" lon="14.2415">
        <ele>580</ele>
        <time>2016-07-14T16:23:58Z</time>
      </trkpt>
      <trkpt lat="45.41556" lon="14.24226">
        <ele>578</ele>
        <time>2016-07-14T16:25:58Z</time>
      </trkpt>
      <trkpt lat="45.41547" lon="14.24265">
        <ele>578</ele>
        <time>2016-07-14T16:27:58Z</time>
      </trkpt>
      <trkpt lat="45.41541" lon="14.24295">
        <ele>579</ele>
        <time>2016-07-14T16:29:58Z</time>
      </trkpt>
      <trkpt lat="45.41536" lon="14.24313">
        <ele>579</ele>
        <time>2016-07-14T16:31:58Z</time>
      </trkpt>
      <trkpt lat="45.41532" lon="14.24328">
        <ele>580</ele>
        <time>2016-07-14T16:33:58Z</time>
      </trkpt>
      <trkpt lat="45.41529" lon="14.24339">
        <ele>580</ele>
        <time>2016-07-14T16:35:58Z</time>
      </trkpt>
      <trkpt lat="45.41523" lon="14.2435">
        <ele>580</ele>
        <time>2016-07-14T16:37:58Z</time>
      </trkpt>
      <trkpt lat="45.41505" lon="14.24368">
        <ele>577</ele>
        <time>2016-07-14T16:39:58Z</time>
      </trkpt>
      <trkpt lat="45.41484" lon="14.24397">
        <ele>575</ele>
        <time>2016-07-14T16:41:58Z</time>
      </trkpt>
      <trkpt lat="45.41462" lon="14.24433">
        <ele>576</ele>
        <time>2016-07-14T16:43:58Z</time>
      </trkpt>
      <trkpt lat="45.4144" lon="14.24469">
        <ele>576</ele>
        <time>2016-07-14T16:45:58Z</time>
      </trkpt>
      <trkpt lat="45.41405" lon="14.24537">
        <ele>577</ele>
        <time>2016-07-14T16:47:58Z</time>
      </trkpt>
      <trkpt lat="45.41376" lon="14.24595">
        <ele>578</ele>
        <time>2016-07-14T16:49:58Z</time>
      </trkpt>
      <trkpt lat="45.41359" lon="14.24624">
        <ele>578</ele>
        <time>2016-07-14T16:51:58Z</time>
      </trkpt>
      <trkpt lat="45.4135" lon="14.24638">
        <ele>578</ele>
        <time>2016-07-14T16:53:58Z</time>
      </trkpt>
      <trkpt lat="45.41338" lon="14.24654">
        <ele>577</ele>
        <time>2016-07-14T16:55:58Z</time>
      </trkpt>
      <trkpt lat="45.41305" lon="14.24693">
        <ele>576</ele>
        <time>2016-07-14T16:57:58Z</time>
      </trkpt>
      <trkpt lat="45.41274" lon="14.24722">
        <ele>573</ele>
        <time>2016-07-14T16:59:58Z</time>
      </trkpt>
      <trkpt lat="45.41203" lon="14.24806">
        <ele>568</ele>
        <time>2016-07-14T17:01:58Z</time>
      </trkpt>
      <trkpt lat="45.41198" lon="14.24811">
        <ele>568</ele>
        <time>2016-07-14T17:03:58Z</time>
      </trkpt>
      <trkpt lat="45.41192" lon="14.2482">
        <ele>567</ele>
        <time>2016-07-14T17:05:58Z</time>
      </trkpt>
      <trkpt lat="45.41187" lon="14.24829">
        <ele>567</ele>
        <time>2016-07-14T17:07:58Z</time>
      </trkpt>
      <trkpt lat="45.41182" lon="14.24839">
        <ele>566</ele>
        <time>2016-07-14T17:09:58Z</time>
      </trkpt>
      <trkpt lat="45.41177" lon="14.24852">
        <ele>565</ele>
        <time>2016-07-14T17:11:58Z</time>
      </trkpt>
      <trkpt lat="45.41175" lon="14.24863">
        <ele>565</ele>
        <time>2016-07-14T17:13:58Z</time>
      </trkpt>
      <trkpt lat="45.41173" lon="14.24877">
        <ele>564</ele>
        <time>2016-07-14T17:15:58Z</time>
      </trkpt>
      <trkpt lat="45.41172" lon="14.24892">
        <ele>563</ele>
        <time>2016-07-14T17:17:58Z</time>
      </trkpt>
      <trkpt lat="45.4117" lon="14.24909">
        <ele>562</ele>
        <time>2016-07-14T17:19:58Z</time>
      </trkpt>
      <trkpt lat="45.41168" lon="14.24927">
        <ele>562</ele>
        <time>2016-07-14T17:21:58Z</time>
      </trkpt>
      <trkpt lat="45.41166" lon="14.24939">
        <ele>561</ele>
        <time>2016-07-14T17:23:58Z</time>
      </trkpt>
      <trkpt lat="45.41165" lon="14.24948">
        <ele>562</ele>
        <time>2016-07-14T17:25:58Z</time>
      </trkpt>
      <trkpt lat="45.41162" lon="14.24958">
        <ele>561</ele>
        <time>2016-07-14T17:27:58Z</time>
      </trkpt>
      <trkpt lat="45.41158" lon="14.24969">
        <ele>561</ele>
        <time>2016-07-14T17:29:58Z</time>
      </trkpt>
      <trkpt lat="45.41152" lon="14.24984">
        <ele>560</ele>
        <time>2016-07-14T17:31:58Z</time>
      </trkpt>
      <trkpt lat="45.41144" lon="14.25002">
        <ele>559</ele>
        <time>2016-07-14T17:33:58Z</time>
      </trkpt>
      <trkpt lat="45.41136" lon="14.25012">
        <ele>558</ele>
        <time>2016-07-14T17:35:58Z</time>
      </trkpt>
      <trkpt lat="45.4113" lon="14.25021">
        <ele>557</ele>
        <time>2016-07-14T17:37:58Z</time>
      </trkpt>
      <trkpt lat="45.41122" lon="14.25029">
        <ele>556</ele>
        <time>2016-07-14T17:39:58Z</time>
      </trkpt>
      <trkpt lat="45.41112" lon="14.25036">
        <ele>554</ele>
        <time>2016-07-14T17:41:58Z</time>
      </trkpt>
      <trkpt lat="45.41092" lon="14.25045">
        <ele>550</ele>
        <time>2016-07-14T17:43:58Z</time>
      </trkpt>
      <trkpt lat="45.41071" lon="14.25051">
        <ele>550</ele>
        <time>2016-07-14T17:45:58Z</time>
      </trkpt>
      <trkpt lat="45.41058" lon="14.25053">
        <ele>551</ele>
        <time>2016-07-14T17:47:58Z</time>
      </trkpt>
      <trkpt lat="45.41048" lon="14.25055">
        <ele>552</ele>
        <time>2016-07-14T17:49:58Z</time>
      </trkpt>
      <trkpt lat="45.41042" lon="14.25058">
        <ele>553</ele>
        <time>2016-07-14T17:51:58Z</time>
      </trkpt>
      <trkpt lat="45.41037" lon="14.25061">
        <ele>553</ele>
        <time>2016-07-14T17:53:58Z</time>
      </trkpt>
      <trkpt lat="45.41033" lon="14.25065">
        <ele>553</ele>
        <time>2016-07-14T17:55:58Z</time>
      </trkpt>
      <trkpt lat="45.41028" lon="14.25069">
        <ele>553</ele>
        <time>2016-07-14T17:57:58Z</time>
      </trkpt>
      <trkpt lat="45.41023" lon="14.25077">
        <ele>553</ele>
        <time>2016-07-14T17:59:58Z</time>
      </trkpt>
      <trkpt lat="45.41017" lon="14.25086">
        <ele>553</ele>
        <time>2016-07-14T18:01:58Z</time>
      </trkpt>
      <trkpt lat="45.41012" lon="14.25099">
        <ele>552</ele>
        <time>2016-07-14T18:03:58Z</time>
      </trkpt>
      <trkpt lat="45.41002" lon="14.25125">
        <ele>549</ele>
        <time>2016-07-14T18:05:58Z</time>
      </trkpt>
      <trkpt lat="45.40996" lon="14.2514">
        <ele>547</ele>
        <time>2016-07-14T18:07:58Z</time>
      </trkpt>
      <trkpt lat="45.4099" lon="14.25155">
        <ele>546</ele>
        <time>2016-07-14T18:09:58Z</time>
      </trkpt>
      <trkpt lat="45.40987" lon="14.25161">
        <ele>546</ele>
        <time>2016-07-14T18:11:58Z</time>
      </trkpt>
      <trkpt lat="45.40983" lon="14.25168">
        <ele>546</ele>
        <time>2016-07-14T18:13:58Z</time>
      </trkpt>
      <trkpt lat="45.4098" lon="14.25173">
        <ele>546</ele>
        <time>2016-07-14T18:15:58Z</time>
      </trkpt>
      <trkpt lat="45.40973" lon="14.25181">
        <ele>546</ele>
        <time>2016-07-14T18:17:58Z</time>
      </trkpt>
      <trkpt lat="45.40958" lon="14.25197">
        <ele>548</ele>
        <time>2016-07-14T18:19:58Z</time>
      </trkpt>
      <trkpt lat="45.40942" lon="14.25212">
        <ele>548</ele>
        <time>2016-07-14T18:21:58Z</time>
      </trkpt>
      <trkpt lat="45.40937" lon="14.25218">
        <ele>548</ele>
        <time>2016-07-14T18:23:58Z</time>
      </trkpt>
      <trkpt lat="45.40932" lon="14.25223">
        <ele>548</ele>
        <time>2016-07-14T18:25:58Z</time>
      </trkpt>
      <trkpt lat="45.40927" lon="14.25229">
        <ele>548</ele>
        <time>2016-07-14T18:27:58Z</time>
      </trkpt>
      <trkpt lat="45.40923" lon="14.25236">
        <ele>548</ele>
        <time>2016-07-14T18:29:58Z</time>
      </trkpt>
      <trkpt lat="45.40918" lon="14.25244">
        <ele>548</ele>
        <time>2016-07-14T18:31:58Z</time>
      </trkpt>
      <trkpt lat="45.40914" lon="14.25254">
        <ele>547</ele>
        <time>2016-07-14T18:33:58Z</time>
      </trkpt>
      <trkpt lat="45.4091" lon="14.25265">
        <ele>547</ele>
        <time>2016-07-14T18:35:58Z</time>
      </trkpt>
      <trkpt lat="45.40906" lon="14.25274">
        <ele>546</ele>
        <time>2016-07-14T18:37:58Z</time>
      </trkpt>
      <trkpt lat="45.40904" lon="14.2528">
        <ele>546</ele>
        <time>2016-07-14T18:39:58Z</time>
      </trkpt>
      <trkpt lat="45.40902" lon="14.25286">
        <ele>546</ele>
        <time>2016-07-14T18:41:58Z</time>
      </trkpt>
      <trkpt lat="45.40899" lon="14.25291">
        <ele>545</ele>
        <time>2016-07-14T18:43:58Z</time>
      </trkpt>
      <trkpt lat="45.40895" lon="14.25298">
        <ele>545</ele>
        <time>2016-07-14T18:45:58Z</time>
      </trkpt>
      <trkpt lat="45.40891" lon="14.25303">
        <ele>545</ele>
        <time>2016-07-14T18:47:58Z</time>
      </trkpt>
      <trkpt lat="45.40887" lon="14.25308">
        <ele>545</ele>
        <time>2016-07-14T18:49:58Z</time>
      </trkpt>
      <trkpt lat="45.40881" lon="14.25313">
        <ele>545</ele>
        <time>2016-07-14T18:51:58Z</time>
      </trkpt>
      <trkpt lat="45.4086" lon="14.25326">
        <ele>546</ele>
        <time>2016-07-14T18:53:58Z</time>
      </trkpt>
      <trkpt lat="45.40854" lon="14.25329">
        <ele>546</ele>
        <time>2016-07-14T18:55:58Z</time>
      </trkpt>
      <trkpt lat="45.4085" lon="14.25333">
        <ele>545</ele>
        <time>2016-07-14T18:57:58Z</time>
      </trkpt>
      <trkpt lat="45.40846" lon="14.25337">
        <ele>545</ele>
        <time>2016-07-14T18:59:58Z</time>
      </trkpt>
      <trkpt lat="45.40843" lon="14.25342">
        <ele>544</ele>
        <time>2016-07-14T19:01:58Z</time>
      </trkpt>
      <trkpt lat="45.40838" lon="14.25349">
        <ele>543</ele>
        <time>2016-07-14T19:03:58Z</time>
      </trkpt>
      <trkpt lat="45.40832" lon="14.25358">
        <ele>542</ele>
        <time>2016-07-14T19:05:58Z</time>
      </trkpt>
      <trkpt lat="45.40828" lon="14.25366">
        <ele>540</ele>
        <time>2016-07-14T19:07:58Z</time>
      </trkpt>
      <trkpt lat="45.40824" lon="14.25375">
        <ele>539</ele>
        <time>2016-07-14T19:09:58Z</time>
      </trkpt>
      <trkpt lat="45.4082" lon="14.25385">
        <ele>537</ele>
        <time>2016-07-14T19:11:58Z</time>
      </trkpt>
      <trkpt lat="45.40817" lon="14.25392">
        <ele>536</ele>
        <time>2016-07-14T19:13:58Z</time>
      </trkpt>
      <trkpt lat="45.40812" lon="14.25399">
        <ele>535</ele>
        <time>2016-07-14T19:15:58Z</time>
      </trkpt>
      <trkpt lat="45.40809" lon="14.25404">
        <ele>534</ele>
        <time>2016-07-14T19:17:58Z</time>
      </trkpt>
      <trkpt lat="45.40803" lon="14.25408">
        <ele>534</ele>
        <time>2016-07-14T19:19:58Z</time>
      </trkpt>
      <trkpt lat="45.40796" lon="14.25413">
        <ele>534</ele>
        <time>2016-07-14T19:21:58Z</time>
      </trkpt>
      <trkpt lat="45.40783" lon="14.2542">
        <ele>534</ele>
        <time>2016-07-14T19:23:58Z</time>
      </trkpt>
      <trkpt lat="45.40771" lon="14.25428">
        <ele>534</ele>
        <time>2016-07-14T19:25:58Z</time>
      </trkpt>
      <trkpt lat="45.40763" lon="14.25435">
        <ele>534</ele>
        <time>2016-07-14T19:27:58Z</time>
      </trkpt>
      <trkpt lat="45.40754" lon="14.25444">
        <ele>533</ele>
        <time>2016-07-14T19:29:58Z</time>
      </trkpt>
      <trkpt lat="45.40744" lon="14.25456">
        <ele>531</ele>
        <time>2016-07-14T19:31:58Z</time>
      </trkpt>
      <trkpt lat="45.4072" lon="14.25484">
        <ele>526</ele>
        <time>2016-07-14T19:33:58Z</time>
      </trkpt>
      <trkpt lat="45.40698" lon="14.25511">
        <ele>523</ele>
        <time>2016-07-14T19:35:58Z</time>
      </trkpt>
      <trkpt lat="45.40681" lon="14.25533">
        <ele>522</ele>
        <time>2016-07-14T19:37:58Z</time>
      </trkpt>
      <trkpt lat="45.40675" lon="14.25545">
        <ele>521</ele>
        <time>2016-07-14T19:39:58Z</time>
      </trkpt>
      <trkpt lat="45.40668" lon="14.25557">
        <ele>520</ele>
        <time>2016-07-14T19:41:58Z</time>
      </trkpt>
      <trkpt lat="45.40664" lon="14.25572">
        <ele>519</ele>
        <time>2016-07-14T19:43:58Z</time>
      </trkpt>
      <trkpt lat="45.4066" lon="14.25585">
        <ele>519</ele>
        <time>2016-07-14T19:45:58Z</time>
      </trkpt>
      <trkpt lat="45.40659" lon="14.25596">
        <ele>519</ele>
        <time>2016-07-14T19:47:58Z</time>
      </trkpt>
      <trkpt lat="45.40658" lon="14.25608">
        <ele>520</ele>
        <time>2016-07-14T19:49:58Z</time>
      </trkpt>
      <trkpt lat="45.4066" lon="14.25621">
        <ele>520</ele>
        <time>2016-07-14T19:51:58Z</time>
      </trkpt>
      <trkpt lat="45.40664" lon="14.25635">
        <ele>520</ele>
        <time>2016-07-14T19:53:58Z</time>
      </trkpt>
      <trkpt lat="45.40669" lon="14.25649">
        <ele>519</ele>
        <time>2016-07-14T19:55:58Z</time>
      </trkpt>
      <trkpt lat="45.40673" lon="14.25657">
        <ele>518</ele>
        <time>2016-07-14T19:57:58Z</time>
      </trkpt>
      <trkpt lat="45.40678" lon="14.25664">
        <ele>518</ele>
        <time>2016-07-14T19:59:58Z</time>
      </trkpt>
      <trkpt lat="45.40687" lon="14.25673">
        <ele>516</ele>
        <time>2016-07-14T20:01:58Z</time>
      </trkpt>
      <trkpt lat="45.40709" lon="14.25692">
        <ele>512</ele>
        <time>2016-07-14T20:03:58Z</time>
      </trkpt>
      <trkpt lat="45.40719" lon="14.25701">
        <ele>510</ele>
        <time>2016-07-14T20:05:58Z</time>
      </trkpt>
      <trkpt lat="45.40725" lon="14.25708">
        <ele>509</ele>
        <time>2016-07-14T20:07:58Z</time>
      </trkpt>
      <trkpt lat="45.40732" lon="14.25716">
        <ele>507</ele>
        <time>2016-07-14T20:09:58Z</time>
      </trkpt>
      <trkpt lat="45.40737" lon="14.25726">
        <ele>505</ele>
        <time>2016-07-14T20:11:58Z</time>
      </trkpt>
      <trkpt lat="45.4074" lon="14.25735">
        <ele>504</ele>
        <time>2016-07-14T20:13:58Z</time>
      </trkpt>
      <trkpt lat="45.40741" lon="14.25742">
        <ele>504</ele>
        <time>2016-07-14T20:15:58Z</time>
      </trkpt>
      <trkpt lat="45.40742" lon="14.2575">
        <ele>503</ele>
        <time>2016-07-14T20:17:58Z</time>
      </trkpt>
      <trkpt lat="45.40743" lon="14.25761">
        <ele>503</ele>
        <time>2016-07-14T20:19:58Z</time>
      </trkpt>
      <trkpt lat="45.40743" lon="14.25771">
        <ele>502</ele>
        <time>2016-07-14T20:21:58Z</time>
      </trkpt>
      <trkpt lat="45.40742" lon="14.25782">
        <ele>502</ele>
        <time>2016-07-14T20:23:58Z</time>
      </trkpt>
      <trkpt lat="45.40741" lon="14.25792">
        <ele>502</ele>
        <time>2016-07-14T20:25:58Z</time>
      </trkpt>
      <trkpt lat="45.40741" lon="14.25801">
        <ele>501</ele>
        <time>2016-07-14T20:27:58Z</time>
      </trkpt>
      <trkpt lat="45.4074" lon="14.25808">
        <ele>501</ele>
        <time>2016-07-14T20:29:58Z</time>
      </trkpt>
      <trkpt lat="45.4074" lon="14.25815">
        <ele>501</ele>
        <time>2016-07-14T20:31:58Z</time>
      </trkpt>
      <trkpt lat="45.40741" lon="14.25823">
        <ele>500</ele>
        <time>2016-07-14T20:33:58Z</time>
      </trkpt>
      <trkpt lat="45.40742" lon="14.25831">
        <ele>500</ele>
        <time>2016-07-14T20:35:58Z</time>
      </trkpt>
      <trkpt lat="45.40747" lon="14.25853">
        <ele>495</ele>
        <time>2016-07-14T20:37:58Z</time>
      </trkpt>
      <trkpt lat="45.40748" lon="14.25864">
        <ele>493</ele>
        <time>2016-07-14T20:39:58Z</time>
      </trkpt>
      <trkpt lat="45.40749" lon="14.25874">
        <ele>491</ele>
        <time>2016-07-14T20:41:58Z</time>
      </trkpt>
      <trkpt lat="45.40748" lon="14.25882">
        <ele>491</ele>
        <time>2016-07-14T20:43:58Z</time>
      </trkpt>
      <trkpt lat="45.40748" lon="14.25889">
        <ele>490</ele>
        <time>2016-07-14T20:45:58Z</time>
      </trkpt>
      <trkpt lat="45.40747" lon="14.25895">
        <ele>489</ele>
        <time>2016-07-14T20:47:58Z</time>
      </trkpt>
      <trkpt lat="45.40744" lon="14.25903">
        <ele>489</ele>
        <time>2016-07-14T20:49:58Z</time>
      </trkpt>
      <trkpt lat="45.40738" lon="14.2592">
        <ele>489</ele>
        <time>2016-07-14T20:51:58Z</time>
      </trkpt>
      <trkpt lat="45.40731" lon="14.25938">
        <ele>489</ele>
        <time>2016-07-14T20:53:58Z</time>
      </trkpt>
      <trkpt lat="45.40713" lon="14.2598">
        <ele>489</ele>
        <time>2016-07-14T20:55:58Z</time>
      </trkpt>
      <trkpt lat="45.40702" lon="14.26005">
        <ele>489</ele>
        <time>2016-07-14T20:57:58Z</time>
      </trkpt>
      <trkpt lat="45.40694" lon="14.26026">
        <ele>488</ele>
        <time>2016-07-14T20:59:58Z</time>
      </trkpt>
      <trkpt lat="45.40674" lon="14.26075">
        <ele>487</ele>
        <time>2016-07-14T21:01:58Z</time>
      </trkpt>
      <trkpt lat="45.40659" lon="14.26107">
        <ele>486</ele>
        <time>2016-07-14T21:03:58Z</time>
      </trkpt>
      <trkpt lat="45.40648" lon="14.26129">
        <ele>486</ele>
        <time>2016-07-14T21:05:58Z</time>
      </trkpt>
      <trkpt lat="45.40646" lon="14.26134">
        <ele>486</ele>
        <time>2016-07-14T21:07:58Z</time>
      </trkpt>
      <trkpt lat="45.40637" lon="14.26172">
        <ele>483</ele>
        <time>2016-07-14T21:09:58Z</time>
      </trkpt>
      <trkpt lat="45.40635" lon="14.26185">
        <ele>482</ele>
        <time>2016-07-14T21:11:58Z</time>
      </trkpt>
      <trkpt lat="45.40634" lon="14.26196">
        <ele>480</ele>
        <time>2016-07-14T21:13:58Z</time>
      </trkpt>
      <trkpt lat="45.40633" lon="14.26211">
        <ele>478</ele>
        <time>2016-07-14T21:15:58Z</time>
      </trkpt>
      <trkpt lat="45.40633" lon="14.26224">
        <ele>476</ele>
        <time>2016-07-14T21:17:58Z</time>
      </trkpt>
      <trkpt lat="45.40633" lon="14.2624">
        <ele>473</ele>
        <time>2016-07-14T21:19:58Z</time>
      </trkpt>
      <trkpt lat="45.40635" lon="14.26261">
        <ele>469</ele>
        <time>2016-07-14T21:21:58Z</time>
      </trkpt>
      <trkpt lat="45.40636" lon="14.26277">
        <ele>467</ele>
        <time>2016-07-14T21:23:58Z</time>
      </trkpt>
      <trkpt lat="45.40638" lon="14.26291">
        <ele>465</ele>
        <time>2016-07-14T21:25:58Z</time>
      </trkpt>
      <trkpt lat="45.40643" lon="14.26322">
        <ele>460</ele>
        <time>2016-07-14T21:27:58Z</time>
      </trkpt>
      <trkpt lat="45.40644" lon="14.26337">
        <ele>458</ele>
        <time>2016-07-14T21:29:58Z</time>
      </trkpt>
      <trkpt lat="45.40644" lon="14.26348">
        <ele>458</ele>
        <time>2016-07-14T21:31:58Z</time>
      </trkpt>
      <trkpt lat="45.40643" lon="14.2636">
        <ele>457</ele>
        <time>2016-07-14T21:33:58Z</time>
      </trkpt>
      <trkpt lat="45.40641" lon="14.26372">
        <ele>456</ele>
        <time>2016-07-14T21:35:58Z</time>
      </trkpt>
      <trkpt lat="45.40639" lon="14.26385">
        <ele>456</ele>
        <time>2016-07-14T21:37:58Z</time>
      </trkpt>
      <trkpt lat="45.40636" lon="14.26397">
        <ele>456</ele>
        <time>2016-07-14T21:39:58Z</time>
      </trkpt>
      <trkpt lat="45.40632" lon="14.26411">
        <ele>456</ele>
        <time>2016-07-14T21:41:58Z</time>
      </trkpt>
      <trkpt lat="45.40628" lon="14.26424">
        <ele>456</ele>
        <time>2016-07-14T21:43:58Z</time>
      </trkpt>
      <trkpt lat="45.40624" lon="14.26438">
        <ele>455</ele>
        <time>2016-07-14T21:45:58Z</time>
      </trkpt>
      <trkpt lat="45.40619" lon="14.2645">
        <ele>455</ele>
        <time>2016-07-14T21:47:58Z</time>
      </trkpt>
      <trkpt lat="45.40613" lon="14.26471">
        <ele>454</ele>
        <time>2016-07-14T21:49:58Z</time>
      </trkpt>
      <trkpt lat="45.40609" lon="14.26489">
        <ele>453</ele>
        <time>2016-07-14T21:51:58Z</time>
      </trkpt>
      <trkpt lat="45.40605" lon="14.26502">
        <ele>452</ele>
        <time>2016-07-14T21:53:58Z</time>
      </trkpt>
      <trkpt lat="45.40601" lon="14.26513">
        <ele>452</ele>
        <time>2016-07-14T21:55:58Z</time>
      </trkpt>
      <trkpt lat="45.40598" lon="14.26522">
        <ele>451</ele>
        <time>2016-07-14T21:57:58Z</time>
      </trkpt>
      <trkpt lat="45.40593" lon="14.26532">
        <ele>451</ele>
        <time>2016-07-14T21:59:58Z</time>
      </trkpt>
      <trkpt lat="45.40588" lon="14.26542">
        <ele>450</ele>
        <time>2016-07-14T22:01:58Z</time>
      </trkpt>
      <trkpt lat="45.40581" lon="14.26554">
        <ele>450</ele>
        <time>2016-07-14T22:03:58Z</time>
      </trkpt>
      <trkpt lat="45.40575" lon="14.26563">
        <ele>450</ele>
        <time>2016-07-14T22:05:58Z</time>
      </trkpt>
      <trkpt lat="45.40565" lon="14.26579">
        <ele>450</ele>
        <time>2016-07-14T22:07:58Z</time>
      </trkpt>
      <trkpt lat="45.4056" lon="14.26586">
        <ele>450</ele>
        <time>2016-07-14T22:09:58Z</time>
      </trkpt>
      <trkpt lat="45.40555" lon="14.26594">
        <ele>451</ele>
        <time>2016-07-14T22:11:58Z</time>
      </trkpt>
      <trkpt lat="45.4055" lon="14.26602">
        <ele>452</ele>
        <time>2016-07-14T22:13:58Z</time>
      </trkpt>
      <trkpt lat="45.40547" lon="14.26608">
        <ele>452</ele>
        <time>2016-07-14T22:15:58Z</time>
      </trkpt>
      <trkpt lat="45.40545" lon="14.26615">
        <ele>451</ele>
        <time>2016-07-14T22:17:58Z</time>
      </trkpt>
      <trkpt lat="45.40543" lon="14.26625">
        <ele>451</ele>
        <time>2016-07-14T22:19:58Z</time>
      </trkpt>
      <trkpt lat="45.40539" lon="14.26645">
        <ele>449</ele>
        <time>2016-07-14T22:21:58Z</time>
      </trkpt>
      <trkpt lat="45.40534" lon="14.26665">
        <ele>448</ele>
        <time>2016-07-14T22:23:58Z</time>
      </trkpt>
      <trkpt lat="45.40531" lon="14.26679">
        <ele>446</ele>
        <time>2016-07-14T22:25:58Z</time>
      </trkpt>
      <trkpt lat="45.40527" lon="14.26692">
        <ele>445</ele>
        <time>2016-07-14T22:27:58Z</time>
      </trkpt>
      <trkpt lat="45.40524" lon="14.26703">
        <ele>444</ele>
        <time>2016-07-14T22:29:58Z</time>
      </trkpt>
      <trkpt lat="45.4052" lon="14.26711">
        <ele>443</ele>
        <time>2016-07-14T22:31:58Z</time>
      </trkpt>
      <trkpt lat="45.40515" lon="14.2672">
        <ele>443</ele>
        <time>2016-07-14T22:33:58Z</time>
      </trkpt>
      <trkpt lat="45.40511" lon="14.26727">
        <ele>442</ele>
        <time>2016-07-14T22:35:58Z</time>
      </trkpt>
      <trkpt lat="45.40505" lon="14.26734">
        <ele>442</ele>
        <time>2016-07-14T22:37:58Z</time>
      </trkpt>
      <trkpt lat="45.40499" lon="14.26744">
        <ele>442</ele>
        <time>2016-07-14T22:39:58Z</time>
      </trkpt>
      <trkpt lat="45.40495" lon="14.26752">
        <ele>441</ele>
        <time>2016-07-14T22:41:58Z</time>
      </trkpt>
      <trkpt lat="45.40491" lon="14.26759">
        <ele>441</ele>
        <time>2016-07-14T22:43:58Z</time>
      </trkpt>
      <trkpt lat="45.40487" lon="14.2677">
        <ele>439</ele>
        <time>2016-07-14T22:45:58Z</time>
      </trkpt>
      <trkpt lat="45.40485" lon="14.26775">
        <ele>439</ele>
        <time>2016-07-14T22:47:58Z</time>
      </trkpt>
      <trkpt lat="45.40484" lon="14.2678">
        <ele>438</ele>
        <time>2016-07-14T22:49:58Z</time>
      </trkpt>
      <trkpt lat="45.4048" lon="14.26791">
        <ele>437</ele>
        <time>2016-07-14T22:51:58Z</time>
      </trkpt>
      <trkpt lat="45.40476" lon="14.26805">
        <ele>435</ele>
        <time>2016-07-14T22:53:58Z</time>
      </trkpt>
      <trkpt lat="45.40473" lon="14.26819">
        <ele>433</ele>
        <time>2016-07-14T22:55:58Z</time>
      </trkpt>
      <trkpt lat="45.40469" lon="14.26836">
        <ele>430</ele>
        <time>2016-07-14T22:57:58Z</time>
      </trkpt>
      <trkpt lat="45.40461" lon="14.26871">
        <ele>428</ele>
        <time>2016-07-14T22:59:58Z</time>
      </trkpt>
      <trkpt lat="45.40459" lon="14.26883">
        <ele>426</ele>
        <time>2016-07-14T23:01:58Z</time>
      </trkpt>
      <trkpt lat="45.40458" lon="14.26893">
        <ele>425</ele>
        <time>2016-07-14T23:03:58Z</time>
      </trkpt>
      <trkpt lat="45.40458" lon="14.26901">
        <ele>424</ele>
        <time>2016-07-14T23:05:58Z</time>
      </trkpt>
      <trkpt lat="45.40458" lon="14.26909">
        <ele>423</ele>
        <time>2016-07-14T23:07:58Z</time>
      </trkpt>
      <trkpt lat="45.40459" lon="14.26917">
        <ele>421</ele>
        <time>2016-07-14T23:09:58Z</time>
      </trkpt>
      <trkpt lat="45.40461" lon="14.26925">
        <ele>421</ele>
        <time>2016-07-14T23:11:58Z</time>
      </trkpt>
      <trkpt lat="45.40464" lon="14.26936">
        <ele>421</ele>
        <time>2016-07-14T23:13:58Z</time>
      </trkpt>
      <trkpt lat="45.40468" lon="14.26949">
        <ele>420</ele>
        <time>2016-07-14T23:15:58Z</time>
      </trkpt>
      <trkpt lat="45.40473" lon="14.26961">
        <ele>420</ele>
        <time>2016-07-14T23:17:58Z</time>
      </trkpt>
      <trkpt lat="45.40473" lon="14.26961">
        <ele>420</ele>
        <time>2016-07-14T23:19:58Z</time>
      </trkpt>
      <trkpt lat="45.40465" lon="14.26968">
        <ele>421</ele>
        <time>2016-07-14T23:21:58Z</time>
      </trkpt>
      <trkpt lat="45.40462" lon="14.26971">
        <ele>421</ele>
        <time>2016-07-14T23:23:58Z</time>
      </trkpt>
      <trkpt lat="45.40459" lon="14.26977">
        <ele>421</ele>
        <time>2016-07-14T23:25:58Z</time>
      </trkpt>
      <trkpt lat="45.40454" lon="14.26985">
        <ele>421</ele>
        <time>2016-07-14T23:27:58Z</time>
      </trkpt>
      <trkpt lat="45.40448" lon="14.26993">
        <ele>422</ele>
        <time>2016-07-14T23:29:58Z</time>
      </trkpt>
      <trkpt lat="45.40439" lon="14.27006">
        <ele>422</ele>
        <time>2016-07-14T23:31:58Z</time>
      </trkpt>
      <trkpt lat="45.40434" lon="14.27014">
        <ele>423</ele>
        <time>2016-07-14T23:33:58Z</time>
      </trkpt>
      <trkpt lat="45.4043" lon="14.2702">
        <ele>423</ele>
        <time>2016-07-14T23:35:58Z</time>
      </trkpt>
      <trkpt lat="45.40426" lon="14.27025">
        <ele>423</ele>
        <time>2016-07-14T23:37:58Z</time>
      </trkpt>
      <trkpt lat="45.40423" lon="14.27029">
        <ele>423</ele>
        <time>2016-07-14T23:39:58Z</time>
      </trkpt>
      <trkpt lat="45.40418" lon="14.27033">
        <ele>423</ele>
        <time>2016-07-14T23:41:58Z</time>
      </trkpt>
      <trkpt lat="45.40413" lon="14.27036">
        <ele>423</ele>
        <time>2016-07-14T23:43:58Z</time>
      </trkpt>
      <trkpt lat="45.40406" lon="14.27037">
        <ele>424</ele>
        <time>2016-07-14T23:45:58Z</time>
      </trkpt>
      <trkpt lat="45.40401" lon="14.27037">
        <ele>424</ele>
        <time>2016-07-14T23:47:58Z</time>
      </trkpt>
      <trkpt lat="45.40396" lon="14.27036">
        <ele>425</ele>
        <time>2016-07-14T23:49:58Z</time>
      </trkpt>
      <trkpt lat="45.40392" lon="14.27036">
        <ele>425</ele>
        <time>2016-07-14T23:51:58Z</time>
      </trkpt>
      <trkpt lat="45.40389" lon="14.27036">
        <ele>426</ele>
        <time>2016-07-14T23:53:58Z</time>
      </trkpt>
      <trkpt lat="45.40384" lon="14.27036">
        <ele>426</ele>
        <time>2016-07-14T23:55:58Z</time>
      </trkpt>
      <trkpt lat="45.40378" lon="14.27037">
        <ele>427</ele>
        <time>2016-07-14T23:57:58Z</time>
      </trkpt>
      <trkpt lat="45.40368" lon="14.27041">
        <ele>427</ele>
        <time>2016-07-14T23:59:58Z</time>
      </trkpt>
      <trkpt lat="45.40362" lon="14.27043">
        <ele>428</ele>
        <time>2016-07-15T00:01:58Z</time>
      </trkpt>
      <trkpt lat="45.40362" lon="14.27043">
        <ele>428</ele>
        <time>2016-07-15T00:03:58Z</time>
      </trkpt>
      <trkpt lat="45.40364" lon="14.27051">
        <ele>428</ele>
        <time>2016-07-15T00:05:58Z</time>
      </trkpt>
      <trkpt lat="45.40366" lon="14.27058">
        <ele>427</ele>
        <time>2016-07-15T00:07:58Z</time>
      </trkpt>
      <trkpt lat="45.40366" lon="14.27064">
        <ele>427</ele>
        <time>2016-07-15T00:09:58Z</time>
      </trkpt>
      <trkpt lat="45.40367" lon="14.2707">
        <ele>427</ele>
        <time>2016-07-15T00:11:58Z</time>
      </trkpt>
      <trkpt lat="45.40368" lon="14.27075">
        <ele>427</ele>
        <time>2016-07-15T00:13:58Z</time>
      </trkpt>
      <trkpt lat="45.40369" lon="14.27082">
        <ele>427</ele>
        <time>2016-07-15T00:15:58Z</time>
      </trkpt>
      <trkpt lat="45.4037" lon="14.27089">
        <ele>427</ele>
        <time>2016-07-15T00:17:58Z</time>
      </trkpt>
      <trkpt lat="45.40372" lon="14.27096">
        <ele>427</ele>
        <time>2016-07-15T00:19:58Z</time>
      </trkpt>
      <trkpt lat="45.40374" lon="14.27103">
        <ele>427</ele>
        <time>2016-07-15T00:21:58Z</time>
      </trkpt>
      <trkpt lat="45.40375" lon="14.27108">
        <ele>427</ele>
        <time>2016-07-15T00:23:58Z</time>
      </trkpt>
      <trkpt lat="45.40376" lon="14.27113">
        <ele>427</ele>
        <time>2016-07-15T00:25:58Z</time>
      </trkpt>
      <trkpt lat="45.40376" lon="14.27117">
        <ele>428</ele>
        <time>2016-07-15T00:27:58Z</time>
      </trkpt>
      <trkpt lat="45.40376" lon="14.27121">
        <ele>428</ele>
        <time>2016-07-15T00:29:58Z</time>
      </trkpt>
      <trkpt lat="45.40375" lon="14.27124">
        <ele>428</ele>
        <time>2016-07-15T00:31:58Z</time>
      </trkpt>
      <trkpt lat="45.40374" lon="14.27128">
        <ele>428</ele>
        <time>2016-07-15T00:33:58Z</time>
      </trkpt>
      <trkpt lat="45.40373" lon="14.27131">
        <ele>428</ele>
        <time>2016-07-15T00:35:58Z</time>
      </trkpt>
      <trkpt lat="45.40372" lon="14.27135">
        <ele>429</ele>
        <time>2016-07-15T00:37:58Z</time>
      </trkpt>
      <trkpt lat="45.4037" lon="14.27138">
        <ele>429</ele>
        <time>2016-07-15T00:39:58Z</time>
      </trkpt>
      <trkpt lat="45.40369" lon="14.2714">
        <ele>429</ele>
        <time>2016-07-15T00:41:58Z</time>
      </trkpt>
      <trkpt lat="45.40367" lon="14.27141">
        <ele>429</ele>
        <time>2016-07-15T00:43:58Z</time>
      </trkpt>
      <trkpt lat="45.40362" lon="14.27149">
        <ele>430</ele>
        <time>2016-07-15T00:45:58Z</time>
      </trkpt>
      <trkpt lat="45.40357" lon="14.27155">
        <ele>430</ele>
        <time>2016-07-15T00:47:58Z</time>
      </trkpt>
      <trkpt lat="45.40351" lon="14.27165">
        <ele>431</ele>
        <time>2016-07-15T00:49:58Z</time>
      </trkpt>
      <trkpt lat="45.40343" lon="14.27177">
        <ele>432</ele>
        <time>2016-07-15T00:51:58Z</time>
      </trkpt>
      <trkpt lat="45.40341" lon="14.27181">
        <ele>432</ele>
        <time>2016-07-15T00:53:58Z</time>
      </trkpt>
      <trkpt lat="45.40339" lon="14.27184">
        <ele>432</ele>
        <time>2016-07-15T00:55:58Z</time>
      </trkpt>
      <trkpt lat="45.40337" lon="14.27188">
        <ele>432</ele>
        <time>2016-07-15T00:57:58Z</time>
      </trkpt>
      <trkpt lat="45.40335" lon="14.27191">
        <ele>432</ele>
        <time>2016-07-15T00:59:58Z</time>
      </trkpt>
      <trkpt lat="45.40334" lon="14.27194">
        <ele>432</ele>
        <time>2016-07-15T01:01:58Z</time>
      </trkpt>
      <trkpt lat="45.40332" lon="14.27198">
        <ele>432</ele>
        <time>2016-07-15T01:03:58Z</time>
      </trkpt>
      <trkpt lat="45.40329" lon="14.27209">
        <ele>432</ele>
        <time>2016-07-15T01:05:58Z</time>
      </trkpt>
      <trkpt lat="45.40325" lon="14.27221">
        <ele>432</ele>
        <time>2016-07-15T01:07:58Z</time>
      </trkpt>
      <trkpt lat="45.40322" lon="14.27231">
        <ele>433</ele>
        <time>2016-07-15T01:09:58Z</time>
      </trkpt>
      <trkpt lat="45.40321" lon="14.27238">
        <ele>433</ele>
        <time>2016-07-15T01:11:58Z</time>
      </trkpt>
      <trkpt lat="45.40319" lon="14.27242">
        <ele>433</ele>
        <time>2016-07-15T01:13:58Z</time>
      </trkpt>
      <trkpt lat="45.40318" lon="14.27245">
        <ele>433</ele>
        <time>2016-07-15T01:15:58Z</time>
      </trkpt>
      <trkpt lat="45.40316" lon="14.27248">
        <ele>433</ele>
        <time>2016-07-15T01:17:58Z</time>
      </trkpt>
      <trkpt lat="45.40315" lon="14.2725">
        <ele>433</ele>
        <time>2016-07-15T01:19:58Z</time>
      </trkpt>
      <trkpt lat="45.40314" lon="14.2725">
        <ele>433</ele>
        <time>2016-07-15T01:21:58Z</time>
      </trkpt>
      <trkpt lat="45.40312" lon="14.27253">
        <ele>433</ele>
        <time>2016-07-15T01:23:58Z</time>
      </trkpt>
      <trkpt lat="45.4031" lon="14.27255">
        <ele>433</ele>
        <time>2016-07-15T01:25:58Z</time>
      </trkpt>
      <trkpt lat="45.40305" lon="14.2726">
        <ele>433</ele>
        <time>2016-07-15T01:27:58Z</time>
      </trkpt>
      <trkpt lat="45.40299" lon="14.27267">
        <ele>433</ele>
        <time>2016-07-15T01:29:58Z</time>
      </trkpt>
      <trkpt lat="45.40294" lon="14.27272">
        <ele>433</ele>
        <time>2016-07-15T01:31:58Z</time>
      </trkpt>
      <trkpt lat="45.40286" lon="14.2728">
        <ele>433</ele>
        <time>2016-07-15T01:33:58Z</time>
      </trkpt>
      <trkpt lat="45.40281" lon="14.27283">
        <ele>434</ele>
        <time>2016-07-15T01:35:58Z</time>
      </trkpt>
      <trkpt lat="45.40277" lon="14.27286">
        <ele>434</ele>
        <time>2016-07-15T01:37:58Z</time>
      </trkpt>
      <trkpt lat="45.40274" lon="14.27288">
        <ele>434</ele>
        <time>2016-07-15T01:39:58Z</time>
      </trkpt>
      <trkpt lat="45.40271" lon="14.2729">
        <ele>434</ele>
        <time>2016-07-15T01:41:58Z</time>
      </trkpt>
      <trkpt lat="45.40269" lon="14.27291">
        <ele>434</ele>
        <time>2016-07-15T01:43:58Z</time>
      </trkpt>
      <trkpt lat="45.40266" lon="14.27291">
        <ele>434</ele>
        <time>2016-07-15T01:45:58Z</time>
      </trkpt>
      <trkpt lat="45.40261" lon="14.27293">
        <ele>434</ele>
        <time>2016-07-15T01:47:58Z</time>
      </trkpt>
      <trkpt lat="45.40255" lon="14.27294">
        <ele>434</ele>
        <time>2016-07-15T01:49:58Z</time>
      </trkpt>
      <trkpt lat="45.40248" lon="14.27295">
        <ele>434</ele>
        <time>2016-07-15T01:51:58Z</time>
      </trkpt>
      <trkpt lat="45.40244" lon="14.27295">
        <ele>434</ele>
        <time>2016-07-15T01:53:58Z</time>
      </trkpt>
      <trkpt lat="45.4024" lon="14.27296">
        <ele>434</ele>
        <time>2016-07-15T01:55:58Z</time>
      </trkpt>
      <trkpt lat="45.40236" lon="14.27298">
        <ele>434</ele>
        <time>2016-07-15T01:57:58Z</time>
      </trkpt>
      <trkpt lat="45.40232" lon="14.273">
        <ele>435</ele>
        <time>2016-07-15T01:59:58Z</time>
      </trkpt>
      <trkpt lat="45.40226" lon="14.27302">
        <ele>435</ele>
        <time>2016-07-15T02:01:58Z</time>
      </trkpt>
      <trkpt lat="45.40223" lon="14.27304">
        <ele>435</ele>
        <time>2016-07-15T02:03:58Z</time>
      </trkpt>
      <trkpt lat="45.40219" lon="14.27304">
        <ele>435</ele>
        <time>2016-07-15T02:05:58Z</time>
      </trkpt>
      <trkpt lat="45.40215" lon="14.27305">
        <ele>435</ele>
        <time>2016-07-15T02:07:58Z</time>
      </trkpt>
      <trkpt lat="45.40211" lon="14.27305">
        <ele>435</ele>
        <time>2016-07-15T02:09:58Z</time>
      </trkpt>
      <trkpt lat="45.40205" lon="14.27305">
        <ele>435</ele>
        <time>2016-07-15T02:11:58Z</time>
      </trkpt>
      <trkpt lat="45.40201" lon="14.27304">
        <ele>435</ele>
        <time>2016-07-15T02:13:58Z</time>
      </trkpt>
      <trkpt lat="45.40196" lon="14.27302">
        <ele>435</ele>
        <time>2016-07-15T02:15:58Z</time>
      </trkpt>
      <trkpt lat="45.40194" lon="14.27303">
        <ele>435</ele>
        <time>2016-07-15T02:17:58Z</time>
      </trkpt>
      <trkpt lat="45.40193" lon="14.27303">
        <ele>435</ele>
        <time>2016-07-15T02:19:58Z</time>
      </trkpt>
      <trkpt lat="45.4019" lon="14.27303">
        <ele>435</ele>
        <time>2016-07-15T02:21:58Z</time>
      </trkpt>
      <trkpt lat="45.40187" lon="14.27305">
        <ele>435</ele>
        <time>2016-07-15T02:23:58Z</time>
      </trkpt>
      <trkpt lat="45.40182" lon="14.27306">
        <ele>435</ele>
        <time>2016-07-15T02:25:58Z</time>
      </trkpt>
      <trkpt lat="45.40177" lon="14.27309">
        <ele>435</ele>
        <time>2016-07-15T02:27:58Z</time>
      </trkpt>
      <trkpt lat="45.40173" lon="14.2731">
        <ele>435</ele>
        <time>2016-07-15T02:29:58Z</time>
      </trkpt>
      <trkpt lat="45.40168" lon="14.27313">
        <ele>435</ele>
        <time>2016-07-15T02:31:58Z</time>
      </trkpt>
      <trkpt lat="45.40164" lon="14.27315">
        <ele>435</ele>
        <time>2016-07-15T02:33:58Z</time>
      </trkpt>
      <trkpt lat="45.40162" lon="14.27318">
        <ele>435</ele>
        <time>2016-07-15T02:35:58Z</time>
      </trkpt>
      <trkpt lat="45.4016" lon="14.27321">
        <ele>435</ele>
        <time>2016-07-15T02:37:58Z</time>
      </trkpt>
      <trkpt lat="45.40159" lon="14.27324">
        <ele>435</ele>
        <time>2016-07-15T02:39:58Z</time>
      </trkpt>
      <trkpt lat="45.40158" lon="14.2733">
        <ele>435</ele>
        <time>2016-07-15T02:41:58Z</time>
      </trkpt>
      <trkpt lat="45.40156" lon="14.27335">
        <ele>435</ele>
        <time>2016-07-15T02:43:58Z</time>
      </trkpt>
      <trkpt lat="45.40155" lon="14.2734">
        <ele>436</ele>
        <time>2016-07-15T02:45:58Z</time>
      </trkpt>
      <trkpt lat="45.40153" lon="14.27346">
        <ele>437</ele>
        <time>2016-07-15T02:47:58Z</time>
      </trkpt>
      <trkpt lat="45.40151" lon="14.27351">
        <ele>437</ele>
        <time>2016-07-15T02:49:58Z</time>
      </trkpt>
      <trkpt lat="45.40149" lon="14.27355">
        <ele>438</ele>
        <time>2016-07-15T02:51:58Z</time>
      </trkpt>
      <trkpt lat="45.40147" lon="14.27361">
        <ele>439</ele>
        <time>2016-07-15T02:53:58Z</time>
      </trkpt>
      <trkpt lat="45.40143" lon="14.27366">
        <ele>439</ele>
        <time>2016-07-15T02:55:58Z</time>
      </trkpt>
      <trkpt lat="45.4014" lon="14.2737">
        <ele>440</ele>
        <time>2016-07-15T02:57:58Z</time>
      </trkpt>
      <trkpt lat="45.40136" lon="14.27374">
        <ele>440</ele>
        <time>2016-07-15T02:59:58Z</time>
      </trkpt>
      <trkpt lat="45.40131" lon="14.27376">
        <ele>440</ele>
        <time>2016-07-15T03:01:58Z</time>
      </trkpt>
      <trkpt lat="45.40126" lon="14.27376">
        <ele>440</ele>
        <time>2016-07-15T03:03:58Z</time>
      </trkpt>
      <trkpt lat="45.40123" lon="14.27375">
        <ele>440</ele>
        <time>2016-07-15T03:05:58Z</time>
      </trkpt>
      <trkpt lat="45.40119" lon="14.27373">
        <ele>440</ele>
        <time>2016-07-15T03:07:58Z</time>
      </trkpt>
      <trkpt lat="45.40113" lon="14.2737">
        <ele>440</ele>
        <time>2016-07-15T03:09:58Z</time>
      </trkpt>
      <trkpt lat="45.40109" lon="14.27368">
        <ele>439</ele>
        <time>2016-07-15T03:11:58Z</time>
      </trkpt>
      <trkpt lat="45.40105" lon="14.27365">
        <ele>439</ele>
        <time>2016-07-15T03:13:58Z</time>
      </trkpt>
      <trkpt lat="45.40101" lon="14.27364">
        <ele>439</ele>
        <time>2016-07-15T03:15:58Z</time>
      </trkpt>
      <trkpt lat="45.40098" lon="14.27363">
        <ele>439</ele>
        <time>2016-07-15T03:17:58Z</time>
      </trkpt>
      <trkpt lat="45.40095" lon="14.27363">
        <ele>439</ele>
        <time>2016-07-15T03:19:58Z</time>
      </trkpt>
      <trkpt lat="45.40092" lon="14.27363">
        <ele>439</ele>
        <time>2016-07-15T03:21:58Z</time>
      </trkpt>
      <trkpt lat="45.40088" lon="14.27364">
        <ele>439</ele>
        <time>2016-07-15T03:23:58Z</time>
      </trkpt>
      <trkpt lat="45.40083" lon="14.27366">
        <ele>439</ele>
        <time>2016-07-15T03:25:58Z</time>
      </trkpt>
      <trkpt lat="45.40076" lon="14.27369">
        <ele>440</ele>
        <time>2016-07-15T03:27:58Z</time>
      </trkpt>
      <trkpt lat="45.40071" lon="14.27372">
        <ele>440</ele>
        <time>2016-07-15T03:29:58Z</time>
      </trkpt>
      <trkpt lat="45.40057" lon="14.27378">
        <ele>442</ele>
        <time>2016-07-15T03:31:58Z</time>
      </trkpt>
      <trkpt lat="45.4005" lon="14.27382">
        <ele>442</ele>
        <time>2016-07-15T03:33:58Z</time>
      </trkpt>
      <trkpt lat="45.40046" lon="14.27385">
        <ele>443</ele>
        <time>2016-07-15T03:35:58Z</time>
      </trkpt>
      <trkpt lat="45.40043" lon="14.27388">
        <ele>443</ele>
        <time>2016-07-15T03:37:58Z</time>
      </trkpt>
      <trkpt lat="45.40041" lon="14.27392">
        <ele>443</ele>
        <time>2016-07-15T03:39:58Z</time>
      </trkpt>
      <trkpt lat="45.40039" lon="14.27395">
        <ele>444</ele>
        <time>2016-07-15T03:41:58Z</time>
      </trkpt>
      <trkpt lat="45.40037" lon="14.274">
        <ele>444</ele>
        <time>2016-07-15T03:43:58Z</time>
      </trkpt>
      <trkpt lat="45.40035" lon="14.27404">
        <ele>444</ele>
        <time>2016-07-15T03:45:58Z</time>
      </trkpt>
      <trkpt lat="45.40033" lon="14.27407">
        <ele>445</ele>
        <time>2016-07-15T03:47:58Z</time>
      </trkpt>
      <trkpt lat="45.4003" lon="14.2741">
        <ele>445</ele>
        <time>2016-07-15T03:49:58Z</time>
      </trkpt>
      <trkpt lat="45.40028" lon="14.27413">
        <ele>445</ele>
        <time>2016-07-15T03:51:58Z</time>
      </trkpt>
      <trkpt lat="45.40025" lon="14.27416">
        <ele>445</ele>
        <time>2016-07-15T03:53:58Z</time>
      </trkpt>
      <trkpt lat="45.40023" lon="14.27419">
        <ele>446</ele>
        <time>2016-07-15T03:55:58Z</time>
      </trkpt>
      <trkpt lat="45.40021" lon="14.27422">
        <ele>446</ele>
        <time>2016-07-15T03:57:58Z</time>
      </trkpt>
      <trkpt lat="45.40018" lon="14.27424">
        <ele>447</ele>
        <time>2016-07-15T03:59:58Z</time>
      </trkpt>
      <trkpt lat="45.40016" lon="14.27425">
        <ele>447</ele>
        <time>2016-07-15T04:01:58Z</time>
      </trkpt>
      <trkpt lat="45.40013" lon="14.27427">
        <ele>447</ele>
        <time>2016-07-15T04:03:58Z</time>
      </trkpt>
      <trkpt lat="45.40011" lon="14.27428">
        <ele>448</ele>
        <time>2016-07-15T04:05:58Z</time>
      </trkpt>
      <trkpt lat="45.40008" lon="14.27429">
        <ele>448</ele>
        <time>2016-07-15T04:07:58Z</time>
      </trkpt>
      <trkpt lat="45.40002" lon="14.27431">
        <ele>448</ele>
        <time>2016-07-15T04:09:58Z</time>
      </trkpt>
      <trkpt lat="45.39997" lon="14.27431">
        <ele>449</ele>
        <time>2016-07-15T04:11:58Z</time>
      </trkpt>
      <trkpt lat="45.39992" lon="14.27432">
        <ele>449</ele>
        <time>2016-07-15T04:13:58Z</time>
      </trkpt>
      <trkpt lat="45.39985" lon="14.27432">
        <ele>449</ele>
        <time>2016-07-15T04:15:58Z</time>
      </trkpt>
      <trkpt lat="45.39978" lon="14.27431">
        <ele>449</ele>
        <time>2016-07-15T04:17:58Z</time>
      </trkpt>
      <trkpt lat="45.39973" lon="14.27431">
        <ele>449</ele>
        <time>2016-07-15T04:19:58Z</time>
      </trkpt>
      <trkpt lat="45.39969" lon="14.2743">
        <ele>449</ele>
        <time>2016-07-15T04:21:58Z</time>
      </trkpt>
      <trkpt lat="45.39965" lon="14.27428">
        <ele>449</ele>
        <time>2016-07-15T04:23:58Z</time>
      </trkpt>
      <trkpt lat="45.3996" lon="14.27424">
        <ele>449</ele>
        <time>2016-07-15T04:25:58Z</time>
      </trkpt>
      <trkpt lat="45.39953" lon="14.2742">
        <ele>449</ele>
        <time>2016-07-15T04:27:58Z</time>
      </trkpt>
      <trkpt lat="45.39949" lon="14.27418">
        <ele>449</ele>
        <time>2016-07-15T04:29:58Z</time>
      </trkpt>
      <trkpt lat="45.39943" lon="14.27415">
        <ele>449</ele>
        <time>2016-07-15T04:31:58Z</time>
      </trkpt>
      <trkpt lat="45.39934" lon="14.27414">
        <ele>449</ele>
        <time>2016-07-15T04:33:58Z</time>
      </trkpt>
      <trkpt lat="45.39928" lon="14.27413">
        <ele>449</ele>
        <time>2016-07-15T04:35:58Z</time>
      </trkpt>
      <trkpt lat="45.3992" lon="14.27413">
        <ele>450</ele>
        <time>2016-07-15T04:37:58Z</time>
      </trkpt>
      <trkpt lat="45.39907" lon="14.27417">
        <ele>449</ele>
        <time>2016-07-15T04:39:58Z</time>
      </trkpt>
      <trkpt lat="45.39894" lon="14.27424">
        <ele>447</ele>
        <time>2016-07-15T04:41:58Z</time>
      </trkpt>
      <trkpt lat="45.39877" lon="14.27437">
        <ele>446</ele>
        <time>2016-07-15T04:43:58Z</time>
      </trkpt>
      <trkpt lat="45.39835" lon="14.27467">
        <ele>443</ele>
        <time>2016-07-15T04:45:58Z</time>
      </trkpt>
      <trkpt lat="45.39806" lon="14.27489">
        <ele>443</ele>
        <time>2016-07-15T04:47:58Z</time>
      </trkpt>
      <trkpt lat="45.39789" lon="14.27502">
        <ele>442</ele>
        <time>2016-07-15T04:49:58Z</time>
      </trkpt>
      <trkpt lat="45.39779" lon="14.27511">
        <ele>441</ele>
        <time>2016-07-15T04:51:58Z</time>
      </trkpt>
      <trkpt lat="45.39773" lon="14.27518">
        <ele>440</ele>
        <time>2016-07-15T04:53:58Z</time>
      </trkpt>
      <trkpt lat="45.39768" lon="14.27522">
        <ele>439</ele>
        <time>2016-07-15T04:55:58Z</time>
      </trkpt>
      <trkpt lat="45.39765" lon="14.27524">
        <ele>439</ele>
        <time>2016-07-15T04:57:58Z</time>
      </trkpt>
      <trkpt lat="45.39761" lon="14.27525">
        <ele>438</ele>
        <time>2016-07-15T04:59:58Z</time>
      </trkpt>
      <trkpt lat="45.39758" lon="14.27525">
        <ele>438</ele>
        <time>2016-07-15T05:01:58Z</time>
      </trkpt>
      <trkpt lat="45.39755" lon="14.27524">
        <ele>437</ele>
        <time>2016-07-15T05:03:58Z</time>
      </trkpt>
      <trkpt lat="45.39745" lon="14.27518">
        <ele>437</ele>
        <time>2016-07-15T05:05:58Z</time>
      </trkpt>
      <trkpt lat="45.39724" lon="14.27504">
        <ele>437</ele>
        <time>2016-07-15T05:07:58Z</time>
      </trkpt>
      <trkpt lat="45.39722" lon="14.27502">
        <ele>438</ele>
        <time>2016-07-15T05:09:58Z</time>
      </trkpt>
      <trkpt lat="45.39716" lon="14.27499">
        <ele>438</ele>
        <time>2016-07-15T05:11:58Z</time>
      </trkpt>
      <trkpt lat="45.39706" lon="14.27494">
        <ele>439</ele>
        <time>2016-07-15T05:13:58Z</time>
      </trkpt>
      <trkpt lat="45.397" lon="14.27491">
        <ele>439</ele>
        <time>2016-07-15T05:15:58Z</time>
      </trkpt>
      <trkpt lat="45.39696" lon="14.27491">
        <ele>439</ele>
        <time>2016-07-15T05:17:58Z</time>
      </trkpt>
      <trkpt lat="45.39693" lon="14.2749">
        <ele>439</ele>
        <time>2016-07-15T05:19:58Z</time>
      </trkpt>
      <trkpt lat="45.39692" lon="14.2749">
        <ele>439</ele>
        <time>2016-07-15T05:21:58Z</time>
      </trkpt>
      <trkpt lat="45.39688" lon="14.27491">
        <ele>439</ele>
        <time>2016-07-15T05:23:58Z</time>
      </trkpt>
      <trkpt lat="45.39676" lon="14.27492">
        <ele>440</ele>
        <time>2016-07-15T05:25:58Z</time>
      </trkpt>
      <trkpt lat="45.39672" lon="14.27493">
        <ele>440</ele>
        <time>2016-07-15T05:27:58Z</time>
      </trkpt>
      <trkpt lat="45.39669" lon="14.27493">
        <ele>440</ele>
        <time>2016-07-15T05:29:58Z</time>
      </trkpt>
      <trkpt lat="45.39666" lon="14.27493">
        <ele>440</ele>
        <time>2016-07-15T05:31:58Z</time>
      </trkpt>
      <trkpt lat="45.39663" lon="14.27493">
        <ele>440</ele>
        <time>2016-07-15T05:33:58Z</time>
      </trkpt>
      <trkpt lat="45.3966" lon="14.27492">
        <ele>441</ele>
        <time>2016-07-15T05:35:58Z</time>
      </trkpt>
      <trkpt lat="45.39652" lon="14.27488">
        <ele>442</ele>
        <time>2016-07-15T05:37:58Z</time>
      </trkpt>
      <trkpt lat="45.39644" lon="14.27482">
        <ele>443</ele>
        <time>2016-07-15T05:39:58Z</time>
      </trkpt>
      <trkpt lat="45.39642" lon="14.2748">
        <ele>444</ele>
        <time>2016-07-15T05:41:58Z</time>
      </trkpt>
      <trkpt lat="45.39639" lon="14.27478">
        <ele>444</ele>
        <time>2016-07-15T05:43:58Z</time>
      </trkpt>
      <trkpt lat="45.39636" lon="14.27477">
        <ele>445</ele>
        <time>2016-07-15T05:45:58Z</time>
      </trkpt>
      <trkpt lat="45.39633" lon="14.27476">
        <ele>445</ele>
        <time>2016-07-15T05:47:58Z</time>
      </trkpt>
      <trkpt lat="45.39629" lon="14.27475">
        <ele>446</ele>
        <time>2016-07-15T05:49:58Z</time>
      </trkpt>
      <trkpt lat="45.39624" lon="14.27475">
        <ele>446</ele>
        <time>2016-07-15T05:51:58Z</time>
      </trkpt>
      <trkpt lat="45.39611" lon="14.27477">
        <ele>447</ele>
        <time>2016-07-15T05:53:58Z</time>
      </trkpt>
      <trkpt lat="45.39587" lon="14.27483">
        <ele>448</ele>
        <time>2016-07-15T05:55:58Z</time>
      </trkpt>
      <trkpt lat="45.39561" lon="14.27491">
        <ele>450</ele>
        <time>2016-07-15T05:57:58Z</time>
      </trkpt>
      <trkpt lat="45.39552" lon="14.27491">
        <ele>451</ele>
        <time>2016-07-15T05:59:58Z</time>
      </trkpt>
      <trkpt lat="45.39548" lon="14.27491">
        <ele>452</ele>
        <time>2016-07-15T06:01:58Z</time>
      </trkpt>
      <trkpt lat="45.39544" lon="14.27491">
        <ele>452</ele>
        <time>2016-07-15T06:03:58Z</time>
      </trkpt>
      <trkpt lat="45.39541" lon="14.27491">
        <ele>452</ele>
        <time>2016-07-15T06:05:58Z</time>
      </trkpt>
      <trkpt lat="45.39538" lon="14.27491">
        <ele>453</ele>
        <time>2016-07-15T06:07:58Z</time>
      </trkpt>
      <trkpt lat="45.39536" lon="14.27491">
        <ele>453</ele>
        <time>2016-07-15T06:09:58Z</time>
      </trkpt>
      <trkpt lat="45.39533" lon="14.27491">
        <ele>453</ele>
        <time>2016-07-15T06:11:58Z</time>
      </trkpt>
      <trkpt lat="45.39531" lon="14.27492">
        <ele>453</ele>
        <time>2016-07-15T06:13:58Z</time>
      </trkpt>
      <trkpt lat="45.39528" lon="14.27493">
        <ele>454</ele>
        <time>2016-07-15T06:15:58Z</time>
      </trkpt>
      <trkpt lat="45.39524" lon="14.27494">
        <ele>454</ele>
        <time>2016-07-15T06:17:58Z</time>
      </trkpt>
      <trkpt lat="45.3952" lon="14.27498">
        <ele>454</ele>
        <time>2016-07-15T06:19:58Z</time>
      </trkpt>
      <trkpt lat="45.39515" lon="14.27502">
        <ele>454</ele>
        <time>2016-07-15T06:21:58Z</time>
      </trkpt>
      <trkpt lat="45.3951" lon="14.27506">
        <ele>454</ele>
        <time>2016-07-15T06:23:58Z</time>
      </trkpt>
      <trkpt lat="45.39506" lon="14.2751">
        <ele>454</ele>
        <time>2016-07-15T06:25:58Z</time>
      </trkpt>
      <trkpt lat="45.39502" lon="14.27513">
        <ele>454</ele>
        <time>2016-07-15T06:27:58Z</time>
      </trkpt>
      <trkpt lat="45.39498" lon="14.27515">
        <ele>454</ele>
        <time>2016-07-15T06:29:58Z</time>
      </trkpt>
      <trkpt lat="45.39495" lon="14.27516">
        <ele>454</ele>
        <time>2016-07-15T06:31:58Z</time>
      </trkpt>
      <trkpt lat="45.39491" lon="14.27517">
        <ele>454</ele>
        <time>2016-07-15T06:33:58Z</time>
      </trkpt>
      <trkpt lat="45.3948" lon="14.27518">
        <ele>456</ele>
        <time>2016-07-15T06:35:58Z</time>
      </trkpt>
      <trkpt lat="45.39473" lon="14.27519">
        <ele>457</ele>
        <time>2016-07-15T06:37:58Z</time>
      </trkpt>
      <trkpt lat="45.39467" lon="14.2752">
        <ele>457</ele>
        <time>2016-07-15T06:39:58Z</time>
      </trkpt>
      <trkpt lat="45.3946" lon="14.27522">
        <ele>458</ele>
        <time>2016-07-15T06:41:58Z</time>
      </trkpt>
      <trkpt lat="45.39453" lon="14.27525">
        <ele>459</ele>
        <time>2016-07-15T06:43:58Z</time>
      </trkpt>
      <trkpt lat="45.39437" lon="14.2753">
        <ele>460</ele>
        <time>2016-07-15T06:45:58Z</time>
      </trkpt>
      <trkpt lat="45.3942" lon="14.27537">
        <ele>462</ele>
        <time>2016-07-15T06:47:58Z</time>
      </trkpt>
      <trkpt lat="45.39408" lon="14.27543">
        <ele>463</ele>
        <time>2016-07-15T06:49:58Z</time>
      </trkpt>
      <trkpt lat="45.39403" lon="14.27544">
        <ele>463</ele>
        <time>2016-07-15T06:51:58Z</time>
      </trkpt>
      <trkpt lat="45.39399" lon="14.27546">
        <ele>464</ele>
        <time>2016-07-15T06:53:58Z</time>
      </trkpt>
      <trkpt lat="45.39395" lon="14.27546">
        <ele>464</ele>
        <time>2016-07-15T06:55:58Z</time>
      </trkpt>
      <trkpt lat="45.39391" lon="14.27546">
        <ele>465</ele>
        <time>2016-07-15T06:57:58Z</time>
      </trkpt>
      <trkpt lat="45.39388" lon="14.27546">
        <ele>465</ele>
        <time>2016-07-15T06:59:58Z</time>
      </trkpt>
      <trkpt lat="45.39384" lon="14.27547">
        <ele>466</ele>
        <time>2016-07-15T07:01:58Z</time>
      </trkpt>
      <trkpt lat="45.3938" lon="14.2755">
        <ele>466</ele>
        <time>2016-07-15T07:03:58Z</time>
      </trkpt>
      <trkpt lat="45.39369" lon="14.27555">
        <ele>467</ele>
        <time>2016-07-15T07:05:58Z</time>
      </trkpt>
      <trkpt lat="45.39347" lon="14.27567">
        <ele>468</ele>
        <time>2016-07-15T07:07:58Z</time>
      </trkpt>
      <trkpt lat="45.39342" lon="14.27571">
        <ele>469</ele>
        <time>2016-07-15T07:09:58Z</time>
      </trkpt>
      <trkpt lat="45.39337" lon="14.27575">
        <ele>469</ele>
        <time>2016-07-15T07:11:58Z</time>
      </trkpt>
      <trkpt lat="45.39333" lon="14.27582">
        <ele>468</ele>
        <time>2016-07-15T07:13:58Z</time>
      </trkpt>
      <trkpt lat="45.39329" lon="14.27589">
        <ele>468</ele>
        <time>2016-07-15T07:15:58Z</time>
      </trkpt>
      <trkpt lat="45.39327" lon="14.27593">
        <ele>468</ele>
        <time>2016-07-15T07:17:58Z</time>
      </trkpt>
      <trkpt lat="45.39323" lon="14.27597">
        <ele>468</ele>
        <time>2016-07-15T07:19:58Z</time>
      </trkpt>
      <trkpt lat="45.39321" lon="14.27599">
        <ele>468</ele>
        <time>2016-07-15T07:21:58Z</time>
      </trkpt>
      <trkpt lat="45.39319" lon="14.276">
        <ele>468</ele>
        <time>2016-07-15T07:23:58Z</time>
      </trkpt>
      <trkpt lat="45.39314" lon="14.276">
        <ele>469</ele>
        <time>2016-07-15T07:25:58Z</time>
      </trkpt>
      <trkpt lat="45.39307" lon="14.27598">
        <ele>470</ele>
        <time>2016-07-15T07:27:58Z</time>
      </trkpt>
      <trkpt lat="45.39301" lon="14.27594">
        <ele>472</ele>
        <time>2016-07-15T07:29:58Z</time>
      </trkpt>
      <trkpt lat="45.39296" lon="14.27591">
        <ele>473</ele>
        <time>2016-07-15T07:31:58Z</time>
      </trkpt>
      <trkpt lat="45.39291" lon="14.2759">
        <ele>474</ele>
        <time>2016-07-15T07:33:58Z</time>
      </trkpt>
      <trkpt lat="45.39289" lon="14.2759">
        <ele>474</ele>
        <time>2016-07-15T07:35:58Z</time>
      </trkpt>
      <trkpt lat="45.39286" lon="14.2759">
        <ele>475</ele>
        <time>2016-07-15T07:37:58Z</time>
      </trkpt>
      <trkpt lat="45.39285" lon="14.27591">
        <ele>475</ele>
        <time>2016-07-15T07:39:58Z</time>
      </trkpt>
      <trkpt lat="45.39269" lon="14.27603">
        <ele>476</ele>
        <time>2016-07-15T07:41:58Z</time>
      </trkpt>
      <trkpt lat="45.39254" lon="14.27615">
        <ele>476</ele>
        <time>2016-07-15T07:43:58Z</time>
      </trkpt>
      <trkpt lat="45.3925" lon="14.27618">
        <ele>477</ele>
        <time>2016-07-15T07:45:58Z</time>
      </trkpt>
      <trkpt lat="45.39245" lon="14.27622">
        <ele>477</ele>
        <time>2016-07-15T07:47:58Z</time>
      </trkpt>
      <trkpt lat="45.39242" lon="14.27624">
        <ele>478</ele>
        <time>2016-07-15T07:49:58Z</time>
      </trkpt>
      <trkpt lat="45.39237" lon="14.27624">
        <ele>479</ele>
        <time>2016-07-15T07:51:58Z</time>
      </trkpt>
      <trkpt lat="45.39231" lon="14.27623">
        <ele>481</ele>
        <time>2016-07-15T07:53:58Z</time>
      </trkpt>
      <trkpt lat="45.39216" lon="14.27622">
        <ele>484</ele>
        <time>2016-07-15T07:55:58Z</time>
      </trkpt>
      <trkpt lat="45.3921" lon="14.27623">
        <ele>486</ele>
        <time>2016-07-15T07:57:58Z</time>
      </trkpt>
      <trkpt lat="45.39206" lon="14.27625">
        <ele>487</ele>
        <time>2016-07-15T07:59:58Z</time>
      </trkpt>
      <trkpt lat="45.39202" lon="14.27626">
        <ele>487</ele>
        <time>2016-07-15T08:01:58Z</time>
      </trkpt>
      <trkpt lat="45.39198" lon="14.27629">
        <ele>488</ele>
        <time>2016-07-15T08:03:58Z</time>
      </trkpt>
      <trkpt lat="45.39195" lon="14.27632">
        <ele>488</ele>
        <time>2016-07-15T08:05:58Z</time>
      </trkpt>
      <trkpt lat="45.39191" lon="14.27637">
        <ele>489</ele>
        <time>2016-07-15T08:07:58Z</time>
      </trkpt>
      <trkpt lat="45.39189" lon="14.27641">
        <ele>489</ele>
        <time>2016-07-15T08:09:58Z</time>
      </trkpt>
      <trkpt lat="45.39187" lon="14.27646">
        <ele>489</ele>
        <time>2016-07-15T08:11:58Z</time>
      </trkpt>
      <trkpt lat="45.39186" lon="14.27651">
        <ele>489</ele>
        <time>2016-07-15T08:13:58Z</time>
      </trkpt>
      <trkpt lat="45.39187" lon="14.27656">
        <ele>488</ele>
        <time>2016-07-15T08:15:58Z</time>
      </trkpt>
      <trkpt lat="45.39188" lon="14.27661">
        <ele>487</ele>
        <time>2016-07-15T08:17:58Z</time>
      </trkpt>
      <trkpt lat="45.39189" lon="14.27669">
        <ele>486</ele>
        <time>2016-07-15T08:19:58Z</time>
      </trkpt>
      <trkpt lat="45.3919" lon="14.27676">
        <ele>485</ele>
        <time>2016-07-15T08:21:58Z</time>
      </trkpt>
      <trkpt lat="45.39191" lon="14.27683">
        <ele>485</ele>
        <time>2016-07-15T08:23:58Z</time>
      </trkpt>
      <trkpt lat="45.3919" lon="14.27691">
        <ele>485</ele>
        <time>2016-07-15T08:25:58Z</time>
      </trkpt>
      <trkpt lat="45.39189" lon="14.27699">
        <ele>485</ele>
        <time>2016-07-15T08:27:58Z</time>
      </trkpt>
      <trkpt lat="45.39188" lon="14.27704">
        <ele>485</ele>
        <time>2016-07-15T08:29:58Z</time>
      </trkpt>
      <trkpt lat="45.39187" lon="14.27708">
        <ele>485</ele>
        <time>2016-07-15T08:31:58Z</time>
      </trkpt>
      <trkpt lat="45.39185" lon="14.27711">
        <ele>485</ele>
        <time>2016-07-15T08:33:58Z</time>
      </trkpt>
      <trkpt lat="45.39182" lon="14.27715">
        <ele>486</ele>
        <time>2016-07-15T08:35:58Z</time>
      </trkpt>
      <trkpt lat="45.39169" lon="14.27725">
        <ele>488</ele>
        <time>2016-07-15T08:37:58Z</time>
      </trkpt>
      <trkpt lat="45.39165" lon="14.27728">
        <ele>489</ele>
        <time>2016-07-15T08:39:58Z</time>
      </trkpt>
      <trkpt lat="45.39161" lon="14.27732">
        <ele>490</ele>
        <time>2016-07-15T08:41:58Z</time>
      </trkpt>
      <trkpt lat="45.39157" lon="14.27737">
        <ele>490</ele>
        <time>2016-07-15T08:43:58Z</time>
      </trkpt>
      <trkpt lat="45.39155" lon="14.27742">
        <ele>491</ele>
        <time>2016-07-15T08:45:58Z</time>
      </trkpt>
      <trkpt lat="45.39152" lon="14.27748">
        <ele>491</ele>
        <time>2016-07-15T08:47:58Z</time>
      </trkpt>
      <trkpt lat="45.3915" lon="14.27755">
        <ele>492</ele>
        <time>2016-07-15T08:49:58Z</time>
      </trkpt>
      <trkpt lat="45.39147" lon="14.27762">
        <ele>493</ele>
        <time>2016-07-15T08:51:58Z</time>
      </trkpt>
      <trkpt lat="45.39145" lon="14.27771">
        <ele>493</ele>
        <time>2016-07-15T08:53:58Z</time>
      </trkpt>
      <trkpt lat="45.39143" lon="14.27778">
        <ele>494</ele>
        <time>2016-07-15T08:55:58Z</time>
      </trkpt>
      <trkpt lat="45.39142" lon="14.27783">
        <ele>494</ele>
        <time>2016-07-15T08:57:58Z</time>
      </trkpt>
      <trkpt lat="45.39139" lon="14.27788">
        <ele>495</ele>
        <time>2016-07-15T08:59:58Z</time>
      </trkpt>
      <trkpt lat="45.39129" lon="14.27807">
        <ele>497</ele>
        <time>2016-07-15T09:01:58Z</time>
      </trkpt>
      <trkpt lat="45.39126" lon="14.27814">
        <ele>498</ele>
        <time>2016-07-15T09:03:58Z</time>
      </trkpt>
      <trkpt lat="45.39123" lon="14.27821">
        <ele>498</ele>
        <time>2016-07-15T09:05:58Z</time>
      </trkpt>
      <trkpt lat="45.3912" lon="14.27828">
        <ele>498</ele>
        <time>2016-07-15T09:07:58Z</time>
      </trkpt>
      <trkpt lat="45.39118" lon="14.27836">
        <ele>499</ele>
        <time>2016-07-15T09:09:58Z</time>
      </trkpt>
      <trkpt lat="45.39117" lon="14.27844">
        <ele>499</ele>
        <time>2016-07-15T09:11:58Z</time>
      </trkpt>
      <trkpt lat="45.39116" lon="14.27847">
        <ele>500</ele>
        <time>2016-07-15T09:13:58Z</time>
      </trkpt>
      <trkpt lat="45.39116" lon="14.27851">
        <ele>500</ele>
        <time>2016-07-15T09:15:58Z</time>
      </trkpt>
      <trkpt lat="45.39116" lon="14.27855">
        <ele>500</ele>
        <time>2016-07-15T09:17:58Z</time>
      </trkpt>
      <trkpt lat="45.39115" lon="14.27859">
        <ele>501</ele>
        <time>2016-07-15T09:19:58Z</time>
      </trkpt>
      <trkpt lat="45.39113" lon="14.27863">
        <ele>501</ele>
        <time>2016-07-15T09:21:58Z</time>
      </trkpt>
      <trkpt lat="45.39111" lon="14.27868">
        <ele>502</ele>
        <time>2016-07-15T09:23:58Z</time>
      </trkpt>
      <trkpt lat="45.39107" lon="14.27872">
        <ele>502</ele>
        <time>2016-07-15T09:25:58Z</time>
      </trkpt>
      <trkpt lat="45.39092" lon="14.27911">
        <ele>505</ele>
        <time>2016-07-15T09:27:58Z</time>
      </trkpt>
      <trkpt lat="45.39086" lon="14.27926">
        <ele>506</ele>
        <time>2016-07-15T09:29:58Z</time>
      </trkpt>
      <trkpt lat="45.39084" lon="14.27931">
        <ele>507</ele>
        <time>2016-07-15T09:31:58Z</time>
      </trkpt>
      <trkpt lat="45.39079" lon="14.27938">
        <ele>507</ele>
        <time>2016-07-15T09:33:58Z</time>
      </trkpt>
      <trkpt lat="45.39075" lon="14.27944">
        <ele>507</ele>
        <time>2016-07-15T09:35:58Z</time>
      </trkpt>
      <trkpt lat="45.39073" lon="14.27951">
        <ele>507</ele>
        <time>2016-07-15T09:37:58Z</time>
      </trkpt>
      <trkpt lat="45.39072" lon="14.27971">
        <ele>508</ele>
        <time>2016-07-15T09:39:58Z</time>
      </trkpt>
      <trkpt lat="45.3907" lon="14.2798">
        <ele>508</ele>
        <time>2016-07-15T09:41:58Z</time>
      </trkpt>
      <trkpt lat="45.3907" lon="14.27985">
        <ele>508</ele>
        <time>2016-07-15T09:43:58Z</time>
      </trkpt>
      <trkpt lat="45.39066" lon="14.27996">
        <ele>508</ele>
        <time>2016-07-15T09:45:58Z</time>
      </trkpt>
      <trkpt lat="45.39061" lon="14.2801">
        <ele>506</ele>
        <time>2016-07-15T09:47:58Z</time>
      </trkpt>
      <trkpt lat="45.39054" lon="14.28026">
        <ele>504</ele>
        <time>2016-07-15T09:49:58Z</time>
      </trkpt>
      <trkpt lat="45.39049" lon="14.28032">
        <ele>503</ele>
        <time>2016-07-15T09:51:58Z</time>
      </trkpt>
      <trkpt lat="45.39042" lon="14.28041">
        <ele>502</ele>
        <time>2016-07-15T09:53:58Z</time>
      </trkpt>
      <trkpt lat="45.39033" lon="14.28048">
        <ele>500</ele>
        <time>2016-07-15T09:55:58Z</time>
      </trkpt>
      <trkpt lat="45.39023" lon="14.28055">
        <ele>498</ele>
        <time>2016-07-15T09:57:58Z</time>
      </trkpt>
      <trkpt lat="45.39018" lon="14.28062">
        <ele>497</ele>
        <time>2016-07-15T09:59:58Z</time>
      </trkpt>
      <trkpt lat="45.3901" lon="14.28072">
        <ele>496</ele>
        <time>2016-07-15T10:01:58Z</time>
      </trkpt>
      <trkpt lat="45.39002" lon="14.28085">
        <ele>494</ele>
        <time>2016-07-15T10:03:58Z</time>
      </trkpt>
      <trkpt lat="45.38998" lon="14.28093">
        <ele>493</ele>
        <time>2016-07-15T10:05:58Z</time>
      </trkpt>
      <trkpt lat="45.38995" lon="14.28099">
        <ele>492</ele>
        <time>2016-07-15T10:07:58Z</time>
      </trkpt>
      <trkpt lat="45.38991" lon="14.28105">
        <ele>492</ele>
        <time>2016-07-15T10:09:58Z</time>
      </trkpt>
      <trkpt lat="45.38986" lon="14.2811">
        <ele>492</ele>
        <time>2016-07-15T10:11:58Z</time>
      </trkpt>
      <trkpt lat="45.38979" lon="14.28117">
        <ele>491</ele>
        <time>2016-07-15T10:13:58Z</time>
      </trkpt>
      <trkpt lat="45.3897" lon="14.28127">
        <ele>491</ele>
        <time>2016-07-15T10:15:58Z</time>
      </trkpt>
      <trkpt lat="45.38951" lon="14.28148">
        <ele>489</ele>
        <time>2016-07-15T10:17:58Z</time>
      </trkpt>
      <trkpt lat="45.38935" lon="14.28166">
        <ele>488</ele>
        <time>2016-07-15T10:19:58Z</time>
      </trkpt>
      <trkpt lat="45.38919" lon="14.28187">
        <ele>487</ele>
        <time>2016-07-15T10:21:58Z</time>
      </trkpt>
      <trkpt lat="45.38914" lon="14.28195">
        <ele>487</ele>
        <time>2016-07-15T10:23:58Z</time>
      </trkpt>
      <trkpt lat="45.3891" lon="14.282">
        <ele>487</ele>
        <time>2016-07-15T10:25:58Z</time>
      </trkpt>
      <trkpt lat="45.38908" lon="14.28207">
        <ele>487</ele>
        <time>2016-07-15T10:27:58Z</time>
      </trkpt>
      <trkpt lat="45.38905" lon="14.28214">
        <ele>487</ele>
        <time>2016-07-15T10:29:58Z</time>
      </trkpt>
      <trkpt lat="45.38901" lon="14.28223">
        <ele>487</ele>
        <time>2016-07-15T10:31:58Z</time>
      </trkpt>
      <trkpt lat="45.38886" lon="14.28272">
        <ele>487</ele>
        <time>2016-07-15T10:33:58Z</time>
      </trkpt>
      <trkpt lat="45.38875" lon="14.28311">
        <ele>487</ele>
        <time>2016-07-15T10:35:58Z</time>
      </trkpt>
      <trkpt lat="45.38872" lon="14.28326">
        <ele>487</ele>
        <time>2016-07-15T10:37:58Z</time>
      </trkpt>
      <trkpt lat="45.3887" lon="14.28335">
        <ele>487</ele>
        <time>2016-07-15T10:39:58Z</time>
      </trkpt>
      <trkpt lat="45.38867" lon="14.28352">
        <ele>486</ele>
        <time>2016-07-15T10:41:58Z</time>
      </trkpt>
      <trkpt lat="45.38865" lon="14.28362">
        <ele>486</ele>
        <time>2016-07-15T10:43:58Z</time>
      </trkpt>
      <trkpt lat="45.38864" lon="14.28372">
        <ele>485</ele>
        <time>2016-07-15T10:45:58Z</time>
      </trkpt>
      <trkpt lat="45.38864" lon="14.28385">
        <ele>484</ele>
        <time>2016-07-15T10:47:58Z</time>
      </trkpt>
      <trkpt lat="45.38865" lon="14.28395">
        <ele>483</ele>
        <time>2016-07-15T10:49:58Z</time>
      </trkpt>
      <trkpt lat="45.38865" lon="14.28402">
        <ele>483</ele>
        <time>2016-07-15T10:51:58Z</time>
      </trkpt>
      <trkpt lat="45.38865" lon="14.28409">
        <ele>482</ele>
        <time>2016-07-15T10:53:58Z</time>
      </trkpt>
      <trkpt lat="45.38864" lon="14.28416">
        <ele>482</ele>
        <time>2016-07-15T10:55:58Z</time>
      </trkpt>
      <trkpt lat="45.38861" lon="14.2843">
        <ele>481</ele>
        <time>2016-07-15T10:57:58Z</time>
      </trkpt>
      <trkpt lat="45.38857" lon="14.28443">
        <ele>481</ele>
        <time>2016-07-15T10:59:58Z</time>
      </trkpt>
      <trkpt lat="45.38854" lon="14.28449">
        <ele>481</ele>
        <time>2016-07-15T11:01:58Z</time>
      </trkpt>
      <trkpt lat="45.38852" lon="14.28456">
        <ele>481</ele>
        <time>2016-07-15T11:03:58Z</time>
      </trkpt>
      <trkpt lat="45.38847" lon="14.28467">
        <ele>480</ele>
        <time>2016-07-15T11:05:58Z</time>
      </trkpt>
      <trkpt lat="45.38842" lon="14.28476">
        <ele>480</ele>
        <time>2016-07-15T11:07:58Z</time>
      </trkpt>
      <trkpt lat="45.38834" lon="14.28486">
        <ele>480</ele>
        <time>2016-07-15T11:09:58Z</time>
      </trkpt>
      <trkpt lat="45.38825" lon="14.28499">
        <ele>481</ele>
        <time>2016-07-15T11:11:58Z</time>
      </trkpt>
      <trkpt lat="45.38822" lon="14.28505">
        <ele>481</ele>
        <time>2016-07-15T11:13:58Z</time>
      </trkpt>
      <trkpt lat="45.38819" lon="14.28511">
        <ele>482</ele>
        <time>2016-07-15T11:15:58Z</time>
      </trkpt>
      <trkpt lat="45.38813" lon="14.28528">
        <ele>481</ele>
        <time>2016-07-15T11:17:58Z</time>
      </trkpt>
      <trkpt lat="45.38809" lon="14.28539">
        <ele>481</ele>
        <time>2016-07-15T11:19:58Z</time>
      </trkpt>
      <trkpt lat="45.38806" lon="14.28548">
        <ele>481</ele>
        <time>2016-07-15T11:21:58Z</time>
      </trkpt>
      <trkpt lat="45.38806" lon="14.28552">
        <ele>481</ele>
        <time>2016-07-15T11:23:58Z</time>
      </trkpt>
      <trkpt lat="45.38805" lon="14.28559">
        <ele>480</ele>
        <time>2016-07-15T11:25:58Z</time>
      </trkpt>
      <trkpt lat="45.38805" lon="14.28564">
        <ele>480</ele>
        <time>2016-07-15T11:27:58Z</time>
      </trkpt>
      <trkpt lat="45.38804" lon="14.28569">
        <ele>479</ele>
        <time>2016-07-15T11:29:58Z</time>
      </trkpt>
      <trkpt lat="45.38803" lon="14.28574">
        <ele>479</ele>
        <time>2016-07-15T11:31:58Z</time>
      </trkpt>
      <trkpt lat="45.38802" lon="14.28578">
        <ele>479</ele>
        <time>2016-07-15T11:33:58Z</time>
      </trkpt>
      <trkpt lat="45.38799" lon="14.28582">
        <ele>479</ele>
        <time>2016-07-15T11:35:58Z</time>
      </trkpt>
      <trkpt lat="45.38796" lon="14.28587">
        <ele>479</ele>
        <time>2016-07-15T11:37:58Z</time>
      </trkpt>
      <trkpt lat="45.38794" lon="14.28592">
        <ele>479</ele>
        <time>2016-07-15T11:39:58Z</time>
      </trkpt>
      <trkpt lat="45.38792" lon="14.28599">
        <ele>478</ele>
        <time>2016-07-15T11:41:58Z</time>
      </trkpt>
      <trkpt lat="45.38792" lon="14.28604">
        <ele>478</ele>
        <time>2016-07-15T11:43:58Z</time>
      </trkpt>
      <trkpt lat="45.38791" lon="14.2861">
        <ele>477</ele>
        <time>2016-07-15T11:45:58Z</time>
      </trkpt>
      <trkpt lat="45.38791" lon="14.28621">
        <ele>476</ele>
        <time>2016-07-15T11:47:58Z</time>
      </trkpt>
      <trkpt lat="45.38791" lon="14.2863">
        <ele>474</ele>
        <time>2016-07-15T11:49:58Z</time>
      </trkpt>
      <trkpt lat="45.38792" lon="14.28662">
        <ele>470</ele>
        <time>2016-07-15T11:51:58Z</time>
      </trkpt>
      <trkpt lat="45.38792" lon="14.28676">
        <ele>468</ele>
        <time>2016-07-15T11:53:58Z</time>
      </trkpt>
      <trkpt lat="45.38792" lon="14.28685">
        <ele>467</ele>
        <time>2016-07-15T11:55:58Z</time>
      </trkpt>
      <trkpt lat="45.38792" lon="14.28698">
        <ele>466</ele>
        <time>2016-07-15T11:57:58Z</time>
      </trkpt>
      <trkpt lat="45.38792" lon="14.28706">
        <ele>465</ele>
        <time>2016-07-15T11:59:58Z</time>
      </trkpt>
      <trkpt lat="45.38792" lon="14.28716">
        <ele>464</ele>
        <time>2016-07-15T12:01:58Z</time>
      </trkpt>
      <trkpt lat="45.38791" lon="14.28723">
        <ele>463</ele>
        <time>2016-07-15T12:03:58Z</time>
      </trkpt>
      <trkpt lat="45.3879" lon="14.28731">
        <ele>462</ele>
        <time>2016-07-15T12:05:58Z</time>
      </trkpt>
      <trkpt lat="45.38787" lon="14.2874">
        <ele>462</ele>
        <time>2016-07-15T12:07:58Z</time>
      </trkpt>
      <trkpt lat="45.38782" lon="14.28754">
        <ele>461</ele>
        <time>2016-07-15T12:09:58Z</time>
      </trkpt>
      <trkpt lat="45.38777" lon="14.28766">
        <ele>459</ele>
        <time>2016-07-15T12:11:58Z</time>
      </trkpt>
      <trkpt lat="45.38773" lon="14.28773">
        <ele>458</ele>
        <time>2016-07-15T12:13:58Z</time>
      </trkpt>
      <trkpt lat="45.38766" lon="14.28782">
        <ele>458</ele>
        <time>2016-07-15T12:15:58Z</time>
      </trkpt>
      <trkpt lat="45.38759" lon="14.2879">
        <ele>457</ele>
        <time>2016-07-15T12:17:58Z</time>
      </trkpt>
      <trkpt lat="45.38735" lon="14.28817">
        <ele>455</ele>
        <time>2016-07-15T12:19:58Z</time>
      </trkpt>
      <trkpt lat="45.38718" lon="14.28835">
        <ele>453</ele>
        <time>2016-07-15T12:21:58Z</time>
      </trkpt>
      <trkpt lat="45.38711" lon="14.28842">
        <ele>452</ele>
        <time>2016-07-15T12:23:58Z</time>
      </trkpt>
      <trkpt lat="45.38702" lon="14.2885">
        <ele>452</ele>
        <time>2016-07-15T12:25:58Z</time>
      </trkpt>
      <trkpt lat="45.38675" lon="14.2887">
        <ele>449</ele>
        <time>2016-07-15T12:27:58Z</time>
      </trkpt>
      <trkpt lat="45.38596" lon="14.2894">
        <ele>443</ele>
        <time>2016-07-15T12:29:58Z</time>
      </trkpt>
      <trkpt lat="45.38564" lon="14.28974">
        <ele>438</ele>
        <time>2016-07-15T12:31:58Z</time>
      </trkpt>
      <trkpt lat="45.38552" lon="14.28987">
        <ele>436</ele>
        <time>2016-07-15T12:33:58Z</time>
      </trkpt>
      <trkpt lat="45.38534" lon="14.29003">
        <ele>434</ele>
        <time>2016-07-15T12:35:58Z</time>
      </trkpt>
      <trkpt lat="45.38527" lon="14.2901">
        <ele>433</ele>
        <time>2016-07-15T12:37:58Z</time>
      </trkpt>
      <trkpt lat="45.3852" lon="14.29015">
        <ele>432</ele>
        <time>2016-07-15T12:39:58Z</time>
      </trkpt>
      <trkpt lat="45.38514" lon="14.29019">
        <ele>432</ele>
        <time>2016-07-15T12:41:58Z</time>
      </trkpt>
      <trkpt lat="45.38511" lon="14.29021">
        <ele>432</ele>
        <time>2016-07-15T12:43:58Z</time>
      </trkpt>
      <trkpt lat="45.38507" lon="14.29022">
        <ele>432</ele>
        <time>2016-07-15T12:45:58Z</time>
      </trkpt>
      <trkpt lat="45.38502" lon="14.29023">
        <ele>433</ele>
        <time>2016-07-15T12:47:58Z</time>
      </trkpt>
      <trkpt lat="45.38497" lon="14.29022">
        <ele>433</ele>
        <time>2016-07-15T12:49:58Z</time>
      </trkpt>
      <trkpt lat="45.38492" lon="14.29021">
        <ele>433</ele>
        <time>2016-07-15T12:51:58Z</time>
      </trkpt>
      <trkpt lat="45.38488" lon="14.29021">
        <ele>434</ele>
        <time>2016-07-15T12:53:58Z</time>
      </trkpt>
      <trkpt lat="45.38482" lon="14.29023">
        <ele>433</ele>
        <time>2016-07-15T12:55:58Z</time>
      </trkpt>
      <trkpt lat="45.38474" lon="14.29029">
        <ele>432</ele>
        <time>2016-07-15T12:57:58Z</time>
      </trkpt>
      <trkpt lat="45.38467" lon="14.29036">
        <ele>431</ele>
        <time>2016-07-15T12:59:58Z</time>
      </trkpt>
      <trkpt lat="45.38459" lon="14.29044">
        <ele>429</ele>
        <time>2016-07-15T13:01:58Z</time>
      </trkpt>
      <trkpt lat="45.38452" lon="14.29052">
        <ele>428</ele>
        <time>2016-07-15T13:03:58Z</time>
      </trkpt>
      <trkpt lat="45.38443" lon="14.29058">
        <ele>427</ele>
        <time>2016-07-15T13:05:58Z</time>
      </trkpt>
      <trkpt lat="45.38435" lon="14.29064">
        <ele>426</ele>
        <time>2016-07-15T13:07:58Z</time>
      </trkpt>
      <trkpt lat="45.38429" lon="14.29066">
        <ele>426</ele>
        <time>2016-07-15T13:09:58Z</time>
      </trkpt>
      <trkpt lat="45.38419" lon="14.29069">
        <ele>425</ele>
        <time>2016-07-15T13:11:58Z</time>
      </trkpt>
      <trkpt lat="45.38405" lon="14.29072">
        <ele>424</ele>
        <time>2016-07-15T13:13:58Z</time>
      </trkpt>
      <trkpt lat="45.38391" lon="14.29074">
        <ele>424</ele>
        <time>2016-07-15T13:15:58Z</time>
      </trkpt>
      <trkpt lat="45.38383" lon="14.29076">
        <ele>423</ele>
        <time>2016-07-15T13:17:58Z</time>
      </trkpt>
      <trkpt lat="45.38378" lon="14.29078">
        <ele>423</ele>
        <time>2016-07-15T13:19:58Z</time>
      </trkpt>
      <trkpt lat="45.38373" lon="14.29081">
        <ele>422</ele>
        <time>2016-07-15T13:21:58Z</time>
      </trkpt>
      <trkpt lat="45.38364" lon="14.29087">
        <ele>421</ele>
        <time>2016-07-15T13:23:58Z</time>
      </trkpt>
      <trkpt lat="45.3836" lon="14.29091">
        <ele>420</ele>
        <time>2016-07-15T13:25:58Z</time>
      </trkpt>
      <trkpt lat="45.38356" lon="14.29094">
        <ele>420</ele>
        <time>2016-07-15T13:27:58Z</time>
      </trkpt>
      <trkpt lat="45.38352" lon="14.29097">
        <ele>420</ele>
        <time>2016-07-15T13:29:58Z</time>
      </trkpt>
      <trkpt lat="45.38347" lon="14.29102">
        <ele>419</ele>
        <time>2016-07-15T13:31:58Z</time>
      </trkpt>
      <trkpt lat="45.38342" lon="14.29105">
        <ele>419</ele>
        <time>2016-07-15T13:33:58Z</time>
      </trkpt>
      <trkpt lat="45.3834" lon="14.29109">
        <ele>418</ele>
        <time>2016-07-15T13:35:58Z</time>
      </trkpt>
      <trkpt lat="45.38336" lon="14.29114">
        <ele>418</ele>
        <time>2016-07-15T13:37:58Z</time>
      </trkpt>
      <trkpt lat="45.38332" lon="14.2912">
        <ele>418</ele>
        <time>2016-07-15T13:39:58Z</time>
      </trkpt>
      <trkpt lat="45.3833" lon="14.29127">
        <ele>417</ele>
        <time>2016-07-15T13:41:58Z</time>
      </trkpt>
      <trkpt lat="45.38329" lon="14.29133">
        <ele>417</ele>
        <time>2016-07-15T13:43:58Z</time>
      </trkpt>
      <trkpt lat="45.38328" lon="14.29137">
        <ele>417</ele>
        <time>2016-07-15T13:45:58Z</time>
      </trkpt>
      <trkpt lat="45.38328" lon="14.29145">
        <ele>416</ele>
        <time>2016-07-15T13:47:58Z</time>
      </trkpt>
      <trkpt lat="45.38328" lon="14.29149">
        <ele>416</ele>
        <time>2016-07-15T13:49:58Z</time>
      </trkpt>
      <trkpt lat="45.38328" lon="14.29155">
        <ele>415</ele>
        <time>2016-07-15T13:51:58Z</time>
      </trkpt>
      <trkpt lat="45.38328" lon="14.2916">
        <ele>415</ele>
        <time>2016-07-15T13:53:58Z</time>
      </trkpt>
      <trkpt lat="45.38331" lon="14.29174">
        <ele>414</ele>
        <time>2016-07-15T13:55:58Z</time>
      </trkpt>
      <trkpt lat="45.38331" lon="14.29178">
        <ele>414</ele>
        <time>2016-07-15T13:57:58Z</time>
      </trkpt>
      <trkpt lat="45.38332" lon="14.29186">
        <ele>414</ele>
        <time>2016-07-15T13:59:58Z</time>
      </trkpt>
      <trkpt lat="45.38333" lon="14.29193">
        <ele>413</ele>
        <time>2016-07-15T14:01:58Z</time>
      </trkpt>
      <trkpt lat="45.38334" lon="14.29205">
        <ele>413</ele>
        <time>2016-07-15T14:03:58Z</time>
      </trkpt>
      <trkpt lat="45.38335" lon="14.29216">
        <ele>413</ele>
        <time>2016-07-15T14:05:58Z</time>
      </trkpt>
      <trkpt lat="45.38335" lon="14.29228">
        <ele>413</ele>
        <time>2016-07-15T14:07:58Z</time>
      </trkpt>
      <trkpt lat="45.38338" lon="14.29246">
        <ele>413</ele>
        <time>2016-07-15T14:09:58Z</time>
      </trkpt>
      <trkpt lat="45.38342" lon="14.29267">
        <ele>411</ele>
        <time>2016-07-15T14:11:58Z</time>
      </trkpt>
      <trkpt lat="45.38344" lon="14.29272">
        <ele>410</ele>
        <time>2016-07-15T14:13:58Z</time>
      </trkpt>
      <trkpt lat="45.38348" lon="14.29285">
        <ele>408</ele>
        <time>2016-07-15T14:15:58Z</time>
      </trkpt>
      <trkpt lat="45.38351" lon="14.29297">
        <ele>406</ele>
        <time>2016-07-15T14:17:58Z</time>
      </trkpt>
      <trkpt lat="45.38354" lon="14.29306">
        <ele>405</ele>
        <time>2016-07-15T14:19:58Z</time>
      </trkpt>
      <trkpt lat="45.38357" lon="14.29323">
        <ele>403</ele>
        <time>2016-07-15T14:21:58Z</time>
      </trkpt>
      <trkpt lat="45.3836" lon="14.29339">
        <ele>401</ele>
        <time>2016-07-15T14:23:58Z</time>
      </trkpt>
      <trkpt lat="45.38362" lon="14.29357">
        <ele>399</ele>
        <time>2016-07-15T14:25:58Z</time>
      </trkpt>
      <trkpt lat="45.38362" lon="14.29375">
        <ele>398</ele>
        <time>2016-07-15T14:27:58Z</time>
      </trkpt>
      <trkpt lat="45.38362" lon="14.29389">
        <ele>398</ele>
        <time>2016-07-15T14:29:58Z</time>
      </trkpt>
      <trkpt lat="45.38362" lon="14.29411">
        <ele>396</ele>
        <time>2016-07-15T14:31:58Z</time>
      </trkpt>
      <trkpt lat="45.3836" lon="14.29438">
        <ele>395</ele>
        <time>2016-07-15T14:33:58Z</time>
      </trkpt>
      <trkpt lat="45.38359" lon="14.29459">
        <ele>394</ele>
        <time>2016-07-15T14:35:58Z</time>
      </trkpt>
      <trkpt lat="45.38358" lon="14.29475">
        <ele>393</ele>
        <time>2016-07-15T14:37:58Z</time>
      </trkpt>
      <trkpt lat="45.38358" lon="14.29489">
        <ele>391</ele>
        <time>2016-07-15T14:39:58Z</time>
      </trkpt>
      <trkpt lat="45.38358" lon="14.29501">
        <ele>391</ele>
        <time>2016-07-15T14:41:58Z</time>
      </trkpt>
      <trkpt lat="45.38359" lon="14.29514">
        <ele>390</ele>
        <time>2016-07-15T14:43:58Z</time>
      </trkpt>
      <trkpt lat="45.38362" lon="14.29536">
        <ele>387</ele>
        <time>2016-07-15T14:45:58Z</time>
      </trkpt>
      <trkpt lat="45.38364" lon="14.29556">
        <ele>386</ele>
        <time>2016-07-15T14:47:58Z</time>
      </trkpt>
      <trkpt lat="45.38366" lon="14.29582">
        <ele>383</ele>
        <time>2016-07-15T14:49:58Z</time>
      </trkpt>
      <trkpt lat="45.38366" lon="14.29608">
        <ele>381</ele>
        <time>2016-07-15T14:51:58Z</time>
      </trkpt>
      <trkpt lat="45.38366" lon="14.29625">
        <ele>379</ele>
        <time>2016-07-15T14:53:58Z</time>
      </trkpt>
      <trkpt lat="45.38364" lon="14.29638">
        <ele>378</ele>
        <time>2016-07-15T14:55:58Z</time>
      </trkpt>
      <trkpt lat="45.38361" lon="14.29656">
        <ele>377</ele>
        <time>2016-07-15T14:57:58Z</time>
      </trkpt>
      <trkpt lat="45.38346" lon="14.29712">
        <ele>376</ele>
        <time>2016-07-15T14:59:58Z</time>
      </trkpt>
      <trkpt lat="45.3834" lon="14.29733">
        <ele>376</ele>
        <time>2016-07-15T15:01:58Z</time>
      </trkpt>
      <trkpt lat="45.38332" lon="14.29765">
        <ele>375</ele>
        <time>2016-07-15T15:03:58Z</time>
      </trkpt>
      <trkpt lat="45.38326" lon="14.2978">
        <ele>375</ele>
        <time>2016-07-15T15:05:58Z</time>
      </trkpt>
      <trkpt lat="45.38325" lon="14.29784">
        <ele>375</ele>
        <time>2016-07-15T15:07:58Z</time>
      </trkpt>
      <trkpt lat="45.3832" lon="14.29801">
        <ele>374</ele>
        <time>2016-07-15T15:09:58Z</time>
      </trkpt>
      <trkpt lat="45.38318" lon="14.29811">
        <ele>373</ele>
        <time>2016-07-15T15:11:58Z</time>
      </trkpt>
      <trkpt lat="45.38316" lon="14.29826">
        <ele>372</ele>
        <time>2016-07-15T15:13:58Z</time>
      </trkpt>
      <trkpt lat="45.38313" lon="14.29838">
        <ele>371</ele>
        <time>2016-07-15T15:15:58Z</time>
      </trkpt>
      <trkpt lat="45.38307" lon="14.29856">
        <ele>371</ele>
        <time>2016-07-15T15:17:58Z</time>
      </trkpt>
      <trkpt lat="45.38302" lon="14.29868">
        <ele>371</ele>
        <time>2016-07-15T15:19:58Z</time>
      </trkpt>
      <trkpt lat="45.38295" lon="14.29881">
        <ele>371</ele>
        <time>2016-07-15T15:21:58Z</time>
      </trkpt>
      <trkpt lat="45.38288" lon="14.29897">
        <ele>371</ele>
        <time>2016-07-15T15:23:58Z</time>
      </trkpt>
      <trkpt lat="45.38283" lon="14.29914">
        <ele>370</ele>
        <time>2016-07-15T15:25:58Z</time>
      </trkpt>
      <trkpt lat="45.3828" lon="14.29927">
        <ele>369</ele>
        <time>2016-07-15T15:27:58Z</time>
      </trkpt>
      <trkpt lat="45.38279" lon="14.29932">
        <ele>369</ele>
        <time>2016-07-15T15:29:58Z</time>
      </trkpt>
      <trkpt lat="45.38278" lon="14.29939">
        <ele>368</ele>
        <time>2016-07-15T15:31:58Z</time>
      </trkpt>
      <trkpt lat="45.38278" lon="14.29949">
        <ele>366</ele>
        <time>2016-07-15T15:33:58Z</time>
      </trkpt>
      <trkpt lat="45.38278" lon="14.2996">
        <ele>365</ele>
        <time>2016-07-15T15:35:58Z</time>
      </trkpt>
      <trkpt lat="45.38277" lon="14.29969">
        <ele>364</ele>
        <time>2016-07-15T15:37:58Z</time>
      </trkpt>
      <trkpt lat="45.38276" lon="14.29976">
        <ele>363</ele>
        <time>2016-07-15T15:39:58Z</time>
      </trkpt>
      <trkpt lat="45.38274" lon="14.29981">
        <ele>363</ele>
        <time>2016-07-15T15:41:58Z</time>
      </trkpt>
      <trkpt lat="45.38272" lon="14.29985">
        <ele>362</ele>
        <time>2016-07-15T15:43:58Z</time>
      </trkpt>
      <trkpt lat="45.38268" lon="14.2999">
        <ele>362</ele>
        <time>2016-07-15T15:45:58Z</time>
      </trkpt>
      <trkpt lat="45.38264" lon="14.29996">
        <ele>362</ele>
        <time>2016-07-15T15:47:58Z</time>
      </trkpt>
      <trkpt lat="45.38259" lon="14.30002">
        <ele>362</ele>
        <time>2016-07-15T15:49:58Z</time>
      </trkpt>
      <trkpt lat="45.38256" lon="14.30005">
        <ele>362</ele>
        <time>2016-07-15T15:51:58Z</time>
      </trkpt>
      <trkpt lat="45.38255" lon="14.30007">
        <ele>362</ele>
        <time>2016-07-15T15:53:58Z</time>
      </trkpt>
      <trkpt lat="45.38252" lon="14.3001">
        <ele>362</ele>
        <time>2016-07-15T15:55:58Z</time>
      </trkpt>
      <trkpt lat="45.38251" lon="14.30012">
        <ele>362</ele>
        <time>2016-07-15T15:57:58Z</time>
      </trkpt>
      <trkpt lat="45.3825" lon="14.30016">
        <ele>362</ele>
        <time>2016-07-15T15:59:58Z</time>
      </trkpt>
      <trkpt lat="45.38249" lon="14.30021">
        <ele>361</ele>
        <time>2016-07-15T16:01:58Z</time>
      </trkpt>
      <trkpt lat="45.38248" lon="14.30028">
        <ele>361</ele>
        <time>2016-07-15T16:03:58Z</time>
      </trkpt>
      <trkpt lat="45.38246" lon="14.30036">
        <ele>360</ele>
        <time>2016-07-15T16:05:58Z</time>
      </trkpt>
      <trkpt lat="45.38243" lon="14.30047">
        <ele>359</ele>
        <time>2016-07-15T16:07:58Z</time>
      </trkpt>
      <trkpt lat="45.38241" lon="14.30055">
        <ele>358</ele>
        <time>2016-07-15T16:09:58Z</time>
      </trkpt>
      <trkpt lat="45.3824" lon="14.30064">
        <ele>357</ele>
        <time>2016-07-15T16:11:58Z</time>
      </trkpt>
      <trkpt lat="45.38237" lon="14.30075">
        <ele>355</ele>
        <time>2016-07-15T16:13:58Z</time>
      </trkpt>
      <trkpt lat="45.38234" lon="14.30084">
        <ele>354</ele>
        <time>2016-07-15T16:15:58Z</time>
      </trkpt>
      <trkpt lat="45.38233" lon="14.30091">
        <ele>354</ele>
        <time>2016-07-15T16:17:58Z</time>
      </trkpt>
      <trkpt lat="45.38232" lon="14.30099">
        <ele>353</ele>
        <time>2016-07-15T16:19:58Z</time>
      </trkpt>
      <trkpt lat="45.38232" lon="14.30109">
        <ele>352</ele>
        <time>2016-07-15T16:21:58Z</time>
      </trkpt>
      <trkpt lat="45.38231" lon="14.30119">
        <ele>351</ele>
        <time>2016-07-15T16:23:58Z</time>
      </trkpt>
      <trkpt lat="45.38231" lon="14.30129">
        <ele>350</ele>
        <time>2016-07-15T16:25:58Z</time>
      </trkpt>
      <trkpt lat="45.38231" lon="14.30135">
        <ele>349</ele>
        <time>2016-07-15T16:27:58Z</time>
      </trkpt>
      <trkpt lat="45.38229" lon="14.30145">
        <ele>348</ele>
        <time>2016-07-15T16:29:58Z</time>
      </trkpt>
      <trkpt lat="45.38226" lon="14.30154">
        <ele>347</ele>
        <time>2016-07-15T16:31:58Z</time>
      </trkpt>
      <trkpt lat="45.38225" lon="14.30158">
        <ele>346</ele>
        <time>2016-07-15T16:33:58Z</time>
      </trkpt>
      <trkpt lat="45.38221" lon="14.30166">
        <ele>345</ele>
        <time>2016-07-15T16:35:58Z</time>
      </trkpt>
      <trkpt lat="45.38217" lon="14.30174">
        <ele>345</ele>
        <time>2016-07-15T16:37:58Z</time>
      </trkpt>
      <trkpt lat="45.38212" lon="14.30182">
        <ele>344</ele>
        <time>2016-07-15T16:39:58Z</time>
      </trkpt>
      <trkpt lat="45.38208" lon="14.30188">
        <ele>344</ele>
        <time>2016-07-15T16:41:58Z</time>
      </trkpt>
      <trkpt lat="45.38204" lon="14.30197">
        <ele>343</ele>
        <time>2016-07-15T16:43:58Z</time>
      </trkpt>
      <trkpt lat="45.38196" lon="14.30212">
        <ele>342</ele>
        <time>2016-07-15T16:45:58Z</time>
      </trkpt>
      <trkpt lat="45.38193" lon="14.30218">
        <ele>342</ele>
        <time>2016-07-15T16:47:58Z</time>
      </trkpt>
      <trkpt lat="45.38186" lon="14.30234">
        <ele>341</ele>
        <time>2016-07-15T16:49:58Z</time>
      </trkpt>
      <trkpt lat="45.3818" lon="14.30248">
        <ele>339</ele>
        <time>2016-07-15T16:51:58Z</time>
      </trkpt>
      <trkpt lat="45.38176" lon="14.30256">
        <ele>339</ele>
        <time>2016-07-15T16:53:58Z</time>
      </trkpt>
      <trkpt lat="45.38172" lon="14.30264">
        <ele>338</ele>
        <time>2016-07-15T16:55:58Z</time>
      </trkpt>
      <trkpt lat="45.38168" lon="14.30272">
        <ele>337</ele>
        <time>2016-07-15T16:57:58Z</time>
      </trkpt>
      <trkpt lat="45.38164" lon="14.30279">
        <ele>337</ele>
        <time>2016-07-15T16:59:58Z</time>
      </trkpt>
      <trkpt lat="45.3816" lon="14.30285">
        <ele>336</ele>
        <time>2016-07-15T17:01:58Z</time>
      </trkpt>
      <trkpt lat="45.38157" lon="14.3029">
        <ele>336</ele>
        <time>2016-07-15T17:03:58Z</time>
      </trkpt>
      <trkpt lat="45.38152" lon="14.30296">
        <ele>336</ele>
        <time>2016-07-15T17:05:58Z</time>
      </trkpt>
      <trkpt lat="45.38148" lon="14.30301">
        <ele>335</ele>
        <time>2016-07-15T17:07:58Z</time>
      </trkpt>
      <trkpt lat="45.38143" lon="14.30308">
        <ele>335</ele>
        <time>2016-07-15T17:09:58Z</time>
      </trkpt>
      <trkpt lat="45.38139" lon="14.30313">
        <ele>335</ele>
        <time>2016-07-15T17:11:58Z</time>
      </trkpt>
      <trkpt lat="45.38134" lon="14.30318">
        <ele>334</ele>
        <time>2016-07-15T17:13:58Z</time>
      </trkpt>
      <trkpt lat="45.38129" lon="14.30323">
        <ele>334</ele>
        <time>2016-07-15T17:15:58Z</time>
      </trkpt>
      <trkpt lat="45.38123" lon="14.30327">
        <ele>334</ele>
        <time>2016-07-15T17:17:58Z</time>
      </trkpt>
      <trkpt lat="45.38116" lon="14.30332">
        <ele>334</ele>
        <time>2016-07-15T17:19:58Z</time>
      </trkpt>
      <trkpt lat="45.38109" lon="14.30336">
        <ele>334</ele>
        <time>2016-07-15T17:21:58Z</time>
      </trkpt>
      <trkpt lat="45.38104" lon="14.30341">
        <ele>334</ele>
        <time>2016-07-15T17:23:58Z</time>
      </trkpt>
      <trkpt lat="45.38099" lon="14.30345">
        <ele>334</ele>
        <time>2016-07-15T17:25:58Z</time>
      </trkpt>
      <trkpt lat="45.38094" lon="14.30351">
        <ele>334</ele>
        <time>2016-07-15T17:27:58Z</time>
      </trkpt>
      <trkpt lat="45.38091" lon="14.30357">
        <ele>333</ele>
        <time>2016-07-15T17:29:58Z</time>
      </trkpt>
      <trkpt lat="45.38087" lon="14.30366">
        <ele>333</ele>
        <time>2016-07-15T17:31:58Z</time>
      </trkpt>
      <trkpt lat="45.38083" lon="14.30375">
        <ele>333</ele>
        <time>2016-07-15T17:33:58Z</time>
      </trkpt>
      <trkpt lat="45.38081" lon="14.30381">
        <ele>333</ele>
        <time>2016-07-15T17:35:58Z</time>
      </trkpt>
      <trkpt lat="45.38076" lon="14.30396">
        <ele>332</ele>
        <time>2016-07-15T17:37:58Z</time>
      </trkpt>
      <trkpt lat="45.38074" lon="14.30403">
        <ele>332</ele>
        <time>2016-07-15T17:39:58Z</time>
      </trkpt>
      <trkpt lat="45.38071" lon="14.30411">
        <ele>331</ele>
        <time>2016-07-15T17:41:58Z</time>
      </trkpt>
      <trkpt lat="45.38068" lon="14.3042">
        <ele>331</ele>
        <time>2016-07-15T17:43:58Z</time>
      </trkpt>
      <trkpt lat="45.38067" lon="14.30423">
        <ele>331</ele>
        <time>2016-07-15T17:45:58Z</time>
      </trkpt>
      <trkpt lat="45.38065" lon="14.30425">
        <ele>331</ele>
        <time>2016-07-15T17:47:58Z</time>
      </trkpt>
      <trkpt lat="45.38063" lon="14.30428">
        <ele>331</ele>
        <time>2016-07-15T17:49:58Z</time>
      </trkpt>
      <trkpt lat="45.38061" lon="14.3043">
        <ele>331</ele>
        <time>2016-07-15T17:51:58Z</time>
      </trkpt>
      <trkpt lat="45.38057" lon="14.30432">
        <ele>331</ele>
        <time>2016-07-15T17:53:58Z</time>
      </trkpt>
      <trkpt lat="45.38053" lon="14.30434">
        <ele>331</ele>
        <time>2016-07-15T17:55:58Z</time>
      </trkpt>
      <trkpt lat="45.38047" lon="14.30436">
        <ele>331</ele>
        <time>2016-07-15T17:57:58Z</time>
      </trkpt>
      <trkpt lat="45.38038" lon="14.30439">
        <ele>330</ele>
        <time>2016-07-15T17:59:58Z</time>
      </trkpt>
      <trkpt lat="45.38032" lon="14.30441">
        <ele>330</ele>
        <time>2016-07-15T18:01:58Z</time>
      </trkpt>
      <trkpt lat="45.38029" lon="14.30443">
        <ele>330</ele>
        <time>2016-07-15T18:03:58Z</time>
      </trkpt>
      <trkpt lat="45.38026" lon="14.30445">
        <ele>330</ele>
        <time>2016-07-15T18:05:58Z</time>
      </trkpt>
      <trkpt lat="45.38024" lon="14.30447">
        <ele>330</ele>
        <time>2016-07-15T18:07:58Z</time>
      </trkpt>
      <trkpt lat="45.38022" lon="14.30451">
        <ele>330</ele>
        <time>2016-07-15T18:09:58Z</time>
      </trkpt>
      <trkpt lat="45.38021" lon="14.30454">
        <ele>330</ele>
        <time>2016-07-15T18:11:58Z</time>
      </trkpt>
      <trkpt lat="45.3802" lon="14.30461">
        <ele>331</ele>
        <time>2016-07-15T18:13:58Z</time>
      </trkpt>
      <trkpt lat="45.38018" lon="14.30467">
        <ele>331</ele>
        <time>2016-07-15T18:15:58Z</time>
      </trkpt>
      <trkpt lat="45.38017" lon="14.30474">
        <ele>331</ele>
        <time>2016-07-15T18:17:58Z</time>
      </trkpt>
      <trkpt lat="45.38016" lon="14.3048">
        <ele>332</ele>
        <time>2016-07-15T18:19:58Z</time>
      </trkpt>
      <trkpt lat="45.38014" lon="14.30487">
        <ele>332</ele>
        <time>2016-07-15T18:21:58Z</time>
      </trkpt>
      <trkpt lat="45.38012" lon="14.30492">
        <ele>332</ele>
        <time>2016-07-15T18:23:58Z</time>
      </trkpt>
      <trkpt lat="45.38011" lon="14.30497">
        <ele>333</ele>
        <time>2016-07-15T18:25:58Z</time>
      </trkpt>
      <trkpt lat="45.3801" lon="14.30501">
        <ele>333</ele>
        <time>2016-07-15T18:27:58Z</time>
      </trkpt>
      <trkpt lat="45.38009" lon="14.30505">
        <ele>333</ele>
        <time>2016-07-15T18:29:58Z</time>
      </trkpt>
      <trkpt lat="45.38008" lon="14.3051">
        <ele>333</ele>
        <time>2016-07-15T18:31:58Z</time>
      </trkpt>
      <trkpt lat="45.38005" lon="14.30516">
        <ele>333</ele>
        <time>2016-07-15T18:33:58Z</time>
      </trkpt>
      <trkpt lat="45.38003" lon="14.30521">
        <ele>333</ele>
        <time>2016-07-15T18:35:58Z</time>
      </trkpt>
      <trkpt lat="45.37999" lon="14.30528">
        <ele>333</ele>
        <time>2016-07-15T18:37:58Z</time>
      </trkpt>
      <trkpt lat="45.37997" lon="14.30531">
        <ele>333</ele>
        <time>2016-07-15T18:39:58Z</time>
      </trkpt>
      <trkpt lat="45.37995" lon="14.30536">
        <ele>333</ele>
        <time>2016-07-15T18:41:58Z</time>
      </trkpt>
      <trkpt lat="45.37994" lon="14.30539">
        <ele>333</ele>
        <time>2016-07-15T18:43:58Z</time>
      </trkpt>
      <trkpt lat="45.37993" lon="14.30542">
        <ele>333</ele>
        <time>2016-07-15T18:45:58Z</time>
      </trkpt>
      <trkpt lat="45.37992" lon="14.30546">
        <ele>333</ele>
        <time>2016-07-15T18:47:58Z</time>
      </trkpt>
      <trkpt lat="45.37992" lon="14.3055">
        <ele>333</ele>
        <time>2016-07-15T18:49:58Z</time>
      </trkpt>
      <trkpt lat="45.37991" lon="14.30554">
        <ele>333</ele>
        <time>2016-07-15T18:51:58Z</time>
      </trkpt>
      <trkpt lat="45.37992" lon="14.30557">
        <ele>334</ele>
        <time>2016-07-15T18:53:58Z</time>
      </trkpt>
      <trkpt lat="45.37992" lon="14.30565">
        <ele>334</ele>
        <time>2016-07-15T18:55:58Z</time>
      </trkpt>
      <trkpt lat="45.37992" lon="14.30571">
        <ele>334</ele>
        <time>2016-07-15T18:57:58Z</time>
      </trkpt>
      <trkpt lat="45.37992" lon="14.30579">
        <ele>334</ele>
        <time>2016-07-15T18:59:58Z</time>
      </trkpt>
      <trkpt lat="45.37993" lon="14.30587">
        <ele>335</ele>
        <time>2016-07-15T19:01:58Z</time>
      </trkpt>
      <trkpt lat="45.37992" lon="14.30591">
        <ele>335</ele>
        <time>2016-07-15T19:03:58Z</time>
      </trkpt>
      <trkpt lat="45.37992" lon="14.30599">
        <ele>335</ele>
        <time>2016-07-15T19:05:58Z</time>
      </trkpt>
      <trkpt lat="45.37991" lon="14.30607">
        <ele>335</ele>
        <time>2016-07-15T19:07:58Z</time>
      </trkpt>
      <trkpt lat="45.3799" lon="14.30613">
        <ele>335</ele>
        <time>2016-07-15T19:09:58Z</time>
      </trkpt>
      <trkpt lat="45.37988" lon="14.30619">
        <ele>335</ele>
        <time>2016-07-15T19:11:58Z</time>
      </trkpt>
      <trkpt lat="45.37986" lon="14.30624">
        <ele>335</ele>
        <time>2016-07-15T19:13:58Z</time>
      </trkpt>
      <trkpt lat="45.37983" lon="14.30629">
        <ele>335</ele>
        <time>2016-07-15T19:15:58Z</time>
      </trkpt>
      <trkpt lat="45.37981" lon="14.30633">
        <ele>335</ele>
        <time>2016-07-15T19:17:58Z</time>
      </trkpt>
      <trkpt lat="45.37977" lon="14.30637">
        <ele>335</ele>
        <time>2016-07-15T19:19:58Z</time>
      </trkpt>
      <trkpt lat="45.37974" lon="14.3064">
        <ele>335</ele>
        <time>2016-07-15T19:21:58Z</time>
      </trkpt>
      <trkpt lat="45.37971" lon="14.30643">
        <ele>335</ele>
        <time>2016-07-15T19:23:58Z</time>
      </trkpt>
      <trkpt lat="45.37965" lon="14.30647">
        <ele>334</ele>
        <time>2016-07-15T19:25:58Z</time>
      </trkpt>
      <trkpt lat="45.37962" lon="14.30649">
        <ele>334</ele>
        <time>2016-07-15T19:27:58Z</time>
      </trkpt>
      <trkpt lat="45.37959" lon="14.30652">
        <ele>334</ele>
        <time>2016-07-15T19:29:58Z</time>
      </trkpt>
      <trkpt lat="45.37955" lon="14.30655">
        <ele>334</ele>
        <time>2016-07-15T19:31:58Z</time>
      </trkpt>
      <trkpt lat="45.37953" lon="14.30657">
        <ele>334</ele>
        <time>2016-07-15T19:33:58Z</time>
      </trkpt>
      <trkpt lat="45.37952" lon="14.3066">
        <ele>334</ele>
        <time>2016-07-15T19:35:58Z</time>
      </trkpt>
      <trkpt lat="45.3795" lon="14.30663">
        <ele>334</ele>
        <time>2016-07-15T19:37:58Z</time>
      </trkpt>
      <trkpt lat="45.37948" lon="14.30667">
        <ele>334</ele>
        <time>2016-07-15T19:39:58Z</time>
      </trkpt>
      <trkpt lat="45.37946" lon="14.30673">
        <ele>334</ele>
        <time>2016-07-15T19:41:58Z</time>
      </trkpt>
      <trkpt lat="45.37944" lon="14.30678">
        <ele>333</ele>
        <time>2016-07-15T19:43:58Z</time>
      </trkpt>
      <trkpt lat="45.37943" lon="14.30684">
        <ele>333</ele>
        <time>2016-07-15T19:45:58Z</time>
      </trkpt>
      <trkpt lat="45.37942" lon="14.30692">
        <ele>333</ele>
        <time>2016-07-15T19:47:58Z</time>
      </trkpt>
      <trkpt lat="45.37941" lon="14.30698">
        <ele>333</ele>
        <time>2016-07-15T19:49:58Z</time>
      </trkpt>
      <trkpt lat="45.3794" lon="14.30703">
        <ele>333</ele>
        <time>2016-07-15T19:51:58Z</time>
      </trkpt>
      <trkpt lat="45.37939" lon="14.30711">
        <ele>333</ele>
        <time>2016-07-15T19:53:58Z</time>
      </trkpt>
      <trkpt lat="45.37938" lon="14.30717">
        <ele>333</ele>
        <time>2016-07-15T19:55:58Z</time>
      </trkpt>
      <trkpt lat="45.37937" lon="14.30725">
        <ele>332</ele>
        <time>2016-07-15T19:57:58Z</time>
      </trkpt>
      <trkpt lat="45.37936" lon="14.30731">
        <ele>332</ele>
        <time>2016-07-15T19:59:58Z</time>
      </trkpt>
      <trkpt lat="45.37934" lon="14.3074">
        <ele>332</ele>
        <time>2016-07-15T20:01:58Z</time>
      </trkpt>
      <trkpt lat="45.37932" lon="14.30747">
        <ele>332</ele>
        <time>2016-07-15T20:03:58Z</time>
      </trkpt>
      <trkpt lat="45.37931" lon="14.30756">
        <ele>332</ele>
        <time>2016-07-15T20:05:58Z</time>
      </trkpt>
      <trkpt lat="45.37929" lon="14.30763">
        <ele>332</ele>
        <time>2016-07-15T20:07:58Z</time>
      </trkpt>
      <trkpt lat="45.37927" lon="14.30769">
        <ele>332</ele>
        <time>2016-07-15T20:09:58Z</time>
      </trkpt>
      <trkpt lat="45.37925" lon="14.30775">
        <ele>332</ele>
        <time>2016-07-15T20:11:58Z</time>
      </trkpt>
      <trkpt lat="45.37922" lon="14.30782">
        <ele>332</ele>
        <time>2016-07-15T20:13:58Z</time>
      </trkpt>
      <trkpt lat="45.37918" lon="14.30789">
        <ele>332</ele>
        <time>2016-07-15T20:15:58Z</time>
      </trkpt>
      <trkpt lat="45.37915" lon="14.30795">
        <ele>332</ele>
        <time>2016-07-15T20:17:58Z</time>
      </trkpt>
      <trkpt lat="45.37908" lon="14.3081">
        <ele>331</ele>
        <time>2016-07-15T20:19:58Z</time>
      </trkpt>
      <trkpt lat="45.37902" lon="14.30823">
        <ele>330</ele>
        <time>2016-07-15T20:21:58Z</time>
      </trkpt>
      <trkpt lat="45.37895" lon="14.30839">
        <ele>329</ele>
        <time>2016-07-15T20:23:58Z</time>
      </trkpt>
      <trkpt lat="45.37889" lon="14.30851">
        <ele>328</ele>
        <time>2016-07-15T20:25:58Z</time>
      </trkpt>
      <trkpt lat="45.37885" lon="14.30857">
        <ele>328</ele>
        <time>2016-07-15T20:27:58Z</time>
      </trkpt>
      <trkpt lat="45.37879" lon="14.30867">
        <ele>327</ele>
        <time>2016-07-15T20:29:58Z</time>
      </trkpt>
      <trkpt lat="45.37876" lon="14.30872">
        <ele>327</ele>
        <time>2016-07-15T20:31:58Z</time>
      </trkpt>
      <trkpt lat="45.37873" lon="14.30879">
        <ele>326</ele>
        <time>2016-07-15T20:33:58Z</time>
      </trkpt>
      <trkpt lat="45.37871" lon="14.30882">
        <ele>326</ele>
        <time>2016-07-15T20:35:58Z</time>
      </trkpt>
      <trkpt lat="45.37869" lon="14.30886">
        <ele>326</ele>
        <time>2016-07-15T20:37:58Z</time>
      </trkpt>
      <trkpt lat="45.37868" lon="14.3089">
        <ele>326</ele>
        <time>2016-07-15T20:39:58Z</time>
      </trkpt>
      <trkpt lat="45.37866" lon="14.30895">
        <ele>326</ele>
        <time>2016-07-15T20:41:58Z</time>
      </trkpt>
      <trkpt lat="45.37865" lon="14.30902">
        <ele>326</ele>
        <time>2016-07-15T20:43:58Z</time>
      </trkpt>
      <trkpt lat="45.37864" lon="14.30908">
        <ele>326</ele>
        <time>2016-07-15T20:45:58Z</time>
      </trkpt>
      <trkpt lat="45.37863" lon="14.30915">
        <ele>326</ele>
        <time>2016-07-15T20:47:58Z</time>
      </trkpt>
      <trkpt lat="45.37862" lon="14.30925">
        <ele>326</ele>
        <time>2016-07-15T20:49:58Z</time>
      </trkpt>
      <trkpt lat="45.37862" lon="14.30935">
        <ele>326</ele>
        <time>2016-07-15T20:51:58Z</time>
      </trkpt>
      <trkpt lat="45.37862" lon="14.30943">
        <ele>326</ele>
        <time>2016-07-15T20:53:58Z</time>
      </trkpt>
      <trkpt lat="45.3786" lon="14.30952">
        <ele>326</ele>
        <time>2016-07-15T20:55:58Z</time>
      </trkpt>
      <trkpt lat="45.3786" lon="14.30956">
        <ele>326</ele>
        <time>2016-07-15T20:57:58Z</time>
      </trkpt>
      <trkpt lat="45.37859" lon="14.30961">
        <ele>326</ele>
        <time>2016-07-15T20:59:58Z</time>
      </trkpt>
      <trkpt lat="45.37857" lon="14.30968">
        <ele>326</ele>
        <time>2016-07-15T21:01:58Z</time>
      </trkpt>
      <trkpt lat="45.37855" lon="14.30973">
        <ele>325</ele>
        <time>2016-07-15T21:03:58Z</time>
      </trkpt>
      <trkpt lat="45.37853" lon="14.30978">
        <ele>325</ele>
        <time>2016-07-15T21:05:58Z</time>
      </trkpt>
      <trkpt lat="45.37849" lon="14.30983">
        <ele>325</ele>
        <time>2016-07-15T21:07:58Z</time>
      </trkpt>
      <trkpt lat="45.37844" lon="14.3099">
        <ele>324</ele>
        <time>2016-07-15T21:09:58Z</time>
      </trkpt>
      <trkpt lat="45.37838" lon="14.30997">
        <ele>323</ele>
        <time>2016-07-15T21:11:58Z</time>
      </trkpt>
      <trkpt lat="45.37833" lon="14.31002">
        <ele>322</ele>
        <time>2016-07-15T21:13:58Z</time>
      </trkpt>
      <trkpt lat="45.37827" lon="14.31008">
        <ele>321</ele>
        <time>2016-07-15T21:15:58Z</time>
      </trkpt>
      <trkpt lat="45.37819" lon="14.31015">
        <ele>321</ele>
        <time>2016-07-15T21:17:58Z</time>
      </trkpt>
      <trkpt lat="45.3781" lon="14.31023">
        <ele>320</ele>
        <time>2016-07-15T21:19:58Z</time>
      </trkpt>
      <trkpt lat="45.37803" lon="14.3103">
        <ele>319</ele>
        <time>2016-07-15T21:21:58Z</time>
      </trkpt>
      <trkpt lat="45.37799" lon="14.31034">
        <ele>319</ele>
        <time>2016-07-15T21:23:58Z</time>
      </trkpt>
      <trkpt lat="45.37795" lon="14.31039">
        <ele>319</ele>
        <time>2016-07-15T21:25:58Z</time>
      </trkpt>
      <trkpt lat="45.37789" lon="14.31047">
        <ele>318</ele>
        <time>2016-07-15T21:27:58Z</time>
      </trkpt>
      <trkpt lat="45.37783" lon="14.31055">
        <ele>317</ele>
        <time>2016-07-15T21:29:58Z</time>
      </trkpt>
      <trkpt lat="45.37776" lon="14.31064">
        <ele>317</ele>
        <time>2016-07-15T21:31:58Z</time>
      </trkpt>
      <trkpt lat="45.37772" lon="14.3107">
        <ele>316</ele>
        <time>2016-07-15T21:33:58Z</time>
      </trkpt>
      <trkpt lat="45.37768" lon="14.31077">
        <ele>316</ele>
        <time>2016-07-15T21:35:58Z</time>
      </trkpt>
      <trkpt lat="45.37768" lon="14.31077">
        <ele>316</ele>
        <time>2016-07-15T21:37:58Z</time>
      </trkpt>
      <trkpt lat="45.3777" lon="14.31085">
        <ele>316</ele>
        <time>2016-07-15T21:39:58Z</time>
      </trkpt>
      <trkpt lat="45.37771" lon="14.31092">
        <ele>316</ele>
        <time>2016-07-15T21:41:58Z</time>
      </trkpt>
      <trkpt lat="45.37772" lon="14.311">
        <ele>316</ele>
        <time>2016-07-15T21:43:58Z</time>
      </trkpt>
      <trkpt lat="45.37773" lon="14.31108">
        <ele>316</ele>
        <time>2016-07-15T21:45:58Z</time>
      </trkpt>
      <trkpt lat="45.37773" lon="14.31115">
        <ele>316</ele>
        <time>2016-07-15T21:47:58Z</time>
      </trkpt>
      <trkpt lat="45.37773" lon="14.31123">
        <ele>316</ele>
        <time>2016-07-15T21:49:58Z</time>
      </trkpt>
      <trkpt lat="45.37772" lon="14.3113">
        <ele>316</ele>
        <time>2016-07-15T21:51:58Z</time>
      </trkpt>
      <trkpt lat="45.37771" lon="14.31139">
        <ele>316</ele>
        <time>2016-07-15T21:53:58Z</time>
      </trkpt>
      <trkpt lat="45.37772" lon="14.3115">
        <ele>316</ele>
        <time>2016-07-15T21:55:58Z</time>
      </trkpt>
      <trkpt lat="45.37773" lon="14.31159">
        <ele>316</ele>
        <time>2016-07-15T21:57:58Z</time>
      </trkpt>
      <trkpt lat="45.37773" lon="14.31159">
        <ele>316</ele>
        <time>2016-07-15T21:59:58Z</time>
      </trkpt>
      <trkpt lat="45.37768" lon="14.31165">
        <ele>316</ele>
        <time>2016-07-15T22:01:58Z</time>
      </trkpt>
      <trkpt lat="45.37761" lon="14.31173">
        <ele>315</ele>
        <time>2016-07-15T22:03:58Z</time>
      </trkpt>
      <trkpt lat="45.37756" lon="14.31181">
        <ele>315</ele>
        <time>2016-07-15T22:05:58Z</time>
      </trkpt>
      <trkpt lat="45.37751" lon="14.31188">
        <ele>316</ele>
        <time>2016-07-15T22:07:58Z</time>
      </trkpt>
      <trkpt lat="45.37743" lon="14.312">
        <ele>316</ele>
        <time>2016-07-15T22:09:58Z</time>
      </trkpt>
      <trkpt lat="45.37717" lon="14.31236">
        <ele>315</ele>
        <time>2016-07-15T22:11:58Z</time>
      </trkpt>
      <trkpt lat="45.37706" lon="14.31253">
        <ele>316</ele>
        <time>2016-07-15T22:13:58Z</time>
      </trkpt>
      <trkpt lat="45.377" lon="14.31262">
        <ele>316</ele>
        <time>2016-07-15T22:15:58Z</time>
      </trkpt>
      <trkpt lat="45.37693" lon="14.3127">
        <ele>316</ele>
        <time>2016-07-15T22:17:58Z</time>
      </trkpt>
      <trkpt lat="45.37688" lon="14.31274">
        <ele>315</ele>
        <time>2016-07-15T22:19:58Z</time>
      </trkpt>
      <trkpt lat="45.37683" lon="14.31276">
        <ele>315</ele>
        <time>2016-07-15T22:21:58Z</time>
      </trkpt>
      <trkpt lat="45.37673" lon="14.31283">
        <ele>314</ele>
        <time>2016-07-15T22:23:58Z</time>
      </trkpt>
      <trkpt lat="45.37658" lon="14.31297">
        <ele>312</ele>
        <time>2016-07-15T22:25:58Z</time>
      </trkpt>
      <trkpt lat="45.37652" lon="14.31303">
        <ele>312</ele>
        <time>2016-07-15T22:27:58Z</time>
      </trkpt>
      <trkpt lat="45.37648" lon="14.31307">
        <ele>311</ele>
        <time>2016-07-15T22:29:58Z</time>
      </trkpt>
      <trkpt lat="45.37648" lon="14.31307">
        <ele>311</ele>
        <time>2016-07-15T22:31:58Z</time>
      </trkpt>
      <trkpt lat="45.37642" lon="14.31323">
        <ele>310</ele>
        <time>2016-07-15T22:33:58Z</time>
      </trkpt>
      <trkpt lat="45.37641" lon="14.31329">
        <ele>311</ele>
        <time>2016-07-15T22:35:58Z</time>
      </trkpt>
      <trkpt lat="45.37641" lon="14.31334">
        <ele>311</ele>
        <time>2016-07-15T22:37:58Z</time>
      </trkpt>
      <trkpt lat="45.37641" lon="14.31349">
        <ele>311</ele>
        <time>2016-07-15T22:39:58Z</time>
      </trkpt>
      <trkpt lat="45.37642" lon="14.31367">
        <ele>311</ele>
        <time>2016-07-15T22:41:58Z</time>
      </trkpt>
      <trkpt lat="45.37642" lon="14.31392">
        <ele>311</ele>
        <time>2016-07-15T22:43:58Z</time>
      </trkpt>
      <trkpt lat="45.37641" lon="14.31407">
        <ele>311</ele>
        <time>2016-07-15T22:45:58Z</time>
      </trkpt>
      <trkpt lat="45.37636" lon="14.31446">
        <ele>311</ele>
        <time>2016-07-15T22:47:58Z</time>
      </trkpt>
      <trkpt lat="45.37636" lon="14.31454">
        <ele>311</ele>
        <time>2016-07-15T22:49:58Z</time>
      </trkpt>
      <trkpt lat="45.37637" lon="14.31473">
        <ele>312</ele>
        <time>2016-07-15T22:51:58Z</time>
      </trkpt>
      <trkpt lat="45.37637" lon="14.31476">
        <ele>312</ele>
        <time>2016-07-15T22:53:58Z</time>
      </trkpt>
      <trkpt lat="45.37638" lon="14.31484">
        <ele>312</ele>
        <time>2016-07-15T22:55:58Z</time>
      </trkpt>
      <trkpt lat="45.37641" lon="14.31495">
        <ele>313</ele>
        <time>2016-07-15T22:57:58Z</time>
      </trkpt>
      <trkpt lat="45.37654" lon="14.31529">
        <ele>316</ele>
        <time>2016-07-15T22:59:58Z</time>
      </trkpt>
      <trkpt lat="45.37656" lon="14.31534">
        <ele>316</ele>
        <time>2016-07-15T23:01:58Z</time>
      </trkpt>
      <trkpt lat="45.37657" lon="14.31538">
        <ele>316</ele>
        <time>2016-07-15T23:03:58Z</time>
      </trkpt>
      <trkpt lat="45.37657" lon="14.31541">
        <ele>316</ele>
        <time>2016-07-15T23:05:58Z</time>
      </trkpt>
      <trkpt lat="45.37656" lon="14.31545">
        <ele>316</ele>
        <time>2016-07-15T23:07:58Z</time>
      </trkpt>
      <trkpt lat="45.37654" lon="14.31548">
        <ele>315</ele>
        <time>2016-07-15T23:09:58Z</time>
      </trkpt>
      <trkpt lat="45.37653" lon="14.31549">
        <ele>315</ele>
        <time>2016-07-15T23:11:58Z</time>
      </trkpt>
      <trkpt lat="45.3765" lon="14.31551">
        <ele>314</ele>
        <time>2016-07-15T23:13:58Z</time>
      </trkpt>
      <trkpt lat="45.37646" lon="14.31554">
        <ele>313</ele>
        <time>2016-07-15T23:15:58Z</time>
      </trkpt>
      <trkpt lat="45.37645" lon="14.31555">
        <ele>313</ele>
        <time>2016-07-15T23:17:58Z</time>
      </trkpt>
      <trkpt lat="45.37643" lon="14.31556">
        <ele>313</ele>
        <time>2016-07-15T23:19:58Z</time>
      </trkpt>
      <trkpt lat="45.37642" lon="14.31558">
        <ele>312</ele>
        <time>2016-07-15T23:21:58Z</time>
      </trkpt>
      <trkpt lat="45.37642" lon="14.31561">
        <ele>312</ele>
        <time>2016-07-15T23:23:58Z</time>
      </trkpt>
      <trkpt lat="45.37642" lon="14.31564">
        <ele>312</ele>
        <time>2016-07-15T23:25:58Z</time>
      </trkpt>
      <trkpt lat="45.37642" lon="14.31573">
        <ele>312</ele>
        <time>2016-07-15T23:27:58Z</time>
      </trkpt>
      <trkpt lat="45.37646" lon="14.31603">
        <ele>311</ele>
        <time>2016-07-15T23:29:58Z</time>
      </trkpt>
      <trkpt lat="45.37648" lon="14.31612">
        <ele>311</ele>
        <time>2016-07-15T23:31:58Z</time>
      </trkpt>
      <trkpt lat="45.37652" lon="14.31624">
        <ele>311</ele>
        <time>2016-07-15T23:33:58Z</time>
      </trkpt>
      <trkpt lat="45.37656" lon="14.31635">
        <ele>311</ele>
        <time>2016-07-15T23:35:58Z</time>
      </trkpt>
      <trkpt lat="45.3768" lon="14.3168">
        <ele>310</ele>
        <time>2016-07-15T23:37:58Z</time>
      </trkpt>
      <trkpt lat="45.37689" lon="14.31696">
        <ele>309</ele>
        <time>2016-07-15T23:39:58Z</time>
      </trkpt>
      <trkpt lat="45.37694" lon="14.31703">
        <ele>308</ele>
        <time>2016-07-15T23:41:58Z</time>
      </trkpt>
      <trkpt lat="45.37699" lon="14.31708">
        <ele>308</ele>
        <time>2016-07-15T23:43:58Z</time>
      </trkpt>
      <trkpt lat="45.37704" lon="14.31713">
        <ele>308</ele>
        <time>2016-07-15T23:45:58Z</time>
      </trkpt>
      <trkpt lat="45.37712" lon="14.31716">
        <ele>308</ele>
        <time>2016-07-15T23:47:58Z</time>
      </trkpt>
      <trkpt lat="45.37719" lon="14.31718">
        <ele>308</ele>
        <time>2016-07-15T23:49:58Z</time>
      </trkpt>
      <trkpt lat="45.37727" lon="14.3172">
        <ele>308</ele>
        <time>2016-07-15T23:51:58Z</time>
      </trkpt>
      <trkpt lat="45.37738" lon="14.31722">
        <ele>309</ele>
        <time>2016-07-15T23:53:58Z</time>
      </trkpt>
      <trkpt lat="45.37746" lon="14.31725">
        <ele>309</ele>
        <time>2016-07-15T23:55:58Z</time>
      </trkpt>
      <trkpt lat="45.37749" lon="14.31726">
        <ele>309</ele>
        <time>2016-07-15T23:57:58Z</time>
      </trkpt>
      <trkpt lat="45.37751" lon="14.31727">
        <ele>309</ele>
        <time>2016-07-15T23:59:58Z</time>
      </trkpt>
      <trkpt lat="45.37754" lon="14.31729">
        <ele>309</ele>
        <time>2016-07-16T00:01:58Z</time>
      </trkpt>
      <trkpt lat="45.37758" lon="14.31731">
        <ele>309</ele>
        <time>2016-07-16T00:03:58Z</time>
      </trkpt>
      <trkpt lat="45.3776" lon="14.31733">
        <ele>308</ele>
        <time>2016-07-16T00:05:58Z</time>
      </trkpt>
      <trkpt lat="45.37761" lon="14.31735">
        <ele>308</ele>
        <time>2016-07-16T00:07:58Z</time>
      </trkpt>
      <trkpt lat="45.37762" lon="14.31737">
        <ele>308</ele>
        <time>2016-07-16T00:09:58Z</time>
      </trkpt>
      <trkpt lat="45.37762" lon="14.31739">
        <ele>308</ele>
        <time>2016-07-16T00:11:58Z</time>
      </trkpt>
      <trkpt lat="45.37762" lon="14.3174">
        <ele>308</ele>
        <time>2016-07-16T00:13:58Z</time>
      </trkpt>
      <trkpt lat="45.37761" lon="14.31746">
        <ele>308</ele>
        <time>2016-07-16T00:15:58Z</time>
      </trkpt>
      <trkpt lat="45.37761" lon="14.31746">
        <ele>308</ele>
        <time>2016-07-16T00:17:58Z</time>
      </trkpt>
      <trkpt lat="45.37766" lon="14.31746">
        <ele>308</ele>
        <time>2016-07-16T00:19:58Z</time>
      </trkpt>
      <trkpt lat="45.37767" lon="14.31746">
        <ele>308</ele>
        <time>2016-07-16T00:21:58Z</time>
      </trkpt>
      <trkpt lat="45.37768" lon="14.31747">
        <ele>308</ele>
        <time>2016-07-16T00:23:58Z</time>
      </trkpt>
      <trkpt lat="45.37773" lon="14.31747">
        <ele>308</ele>
        <time>2016-07-16T00:25:58Z</time>
      </trkpt>
      <trkpt lat="45.37793" lon="14.3175">
        <ele>309</ele>
        <time>2016-07-16T00:27:58Z</time>
      </trkpt>
      <trkpt lat="45.37825" lon="14.31755">
        <ele>310</ele>
        <time>2016-07-16T00:29:58Z</time>
      </trkpt>
      <trkpt lat="45.37849" lon="14.31758">
        <ele>311</ele>
        <time>2016-07-16T00:31:58Z</time>
      </trkpt>
      <trkpt lat="45.37874" lon="14.3176">
        <ele>312</ele>
        <time>2016-07-16T00:33:58Z</time>
      </trkpt>
      <trkpt lat="45.37911" lon="14.31756">
        <ele>314</ele>
        <time>2016-07-16T00:35:58Z</time>
      </trkpt>
      <trkpt lat="45.37911" lon="14.31756">
        <ele>314</ele>
        <time>2016-07-16T00:37:58Z</time>
      </trkpt>
      <trkpt lat="45.37912" lon="14.3176">
        <ele>314</ele>
        <time>2016-07-16T00:39:58Z</time>
      </trkpt>
      <trkpt lat="45.37913" lon="14.31764">
        <ele>315</ele>
        <time>2016-07-16T00:41:58Z</time>
      </trkpt>
      <trkpt lat="45.37913" lon="14.31767">
        <ele>315</ele>
        <time>2016-07-16T00:43:58Z</time>
      </trkpt>
      <trkpt lat="45.37913" lon="14.31769">
        <ele>315</ele>
        <time>2016-07-16T00:45:58Z</time>
      </trkpt>
      <trkpt lat="45.37913" lon="14.31771">
        <ele>315</ele>
        <time>2016-07-16T00:47:58Z</time>
      </trkpt>
      <trkpt lat="45.37912" lon="14.31774">
        <ele>315</ele>
        <time>2016-07-16T00:49:58Z</time>
      </trkpt>
      <trkpt lat="45.37903" lon="14.31792">
        <ele>316</ele>
        <time>2016-07-16T00:51:58Z</time>
      </trkpt>
      <trkpt lat="45.37896" lon="14.31802">
        <ele>316</ele>
        <time>2016-07-16T00:53:58Z</time>
      </trkpt>
      <trkpt lat="45.37884" lon="14.31819">
        <ele>316</ele>
        <time>2016-07-16T00:55:58Z</time>
      </trkpt>
      <trkpt lat="45.37874" lon="14.31835">
        <ele>315</ele>
        <time>2016-07-16T00:57:58Z</time>
      </trkpt>
      <trkpt lat="45.3787" lon="14.31841">
        <ele>315</ele>
        <time>2016-07-16T00:59:58Z</time>
      </trkpt>
      <trkpt lat="45.37861" lon="14.31854">
        <ele>315</ele>
        <time>2016-07-16T01:01:58Z</time>
      </trkpt>
      <trkpt lat="45.37857" lon="14.31861">
        <ele>315</ele>
        <time>2016-07-16T01:03:58Z</time>
      </trkpt>
      <trkpt lat="45.37846" lon="14.31878">
        <ele>314</ele>
        <time>2016-07-16T01:05:58Z</time>
      </trkpt>
      <trkpt lat="45.37835" lon="14.31894">
        <ele>313</ele>
        <time>2016-07-16T01:07:58Z</time>
      </trkpt>
      <trkpt lat="45.37822" lon="14.31909">
        <ele>312</ele>
        <time>2016-07-16T01:09:58Z</time>
      </trkpt>
      <trkpt lat="45.37814" lon="14.31918">
        <ele>311</ele>
        <time>2016-07-16T01:11:58Z</time>
      </trkpt>
      <trkpt lat="45.37805" lon="14.31927">
        <ele>311</ele>
        <time>2016-07-16T01:13:58Z</time>
      </trkpt>
      <trkpt lat="45.37796" lon="14.31934">
        <ele>311</ele>
        <time>2016-07-16T01:15:58Z</time>
      </trkpt>
      <trkpt lat="45.37782" lon="14.31945">
        <ele>310</ele>
        <time>2016-07-16T01:17:58Z</time>
      </trkpt>
      <trkpt lat="45.37768" lon="14.31954">
        <ele>309</ele>
        <time>2016-07-16T01:19:58Z</time>
      </trkpt>
      <trkpt lat="45.37725" lon="14.31984">
        <ele>307</ele>
        <time>2016-07-16T01:21:58Z</time>
      </trkpt>
      <trkpt lat="45.37715" lon="14.31991">
        <ele>307</ele>
        <time>2016-07-16T01:23:58Z</time>
      </trkpt>
      <trkpt lat="45.37702" lon="14.32003">
        <ele>306</ele>
        <time>2016-07-16T01:25:58Z</time>
      </trkpt>
      <trkpt lat="45.37694" lon="14.32015">
        <ele>306</ele>
        <time>2016-07-16T01:27:58Z</time>
      </trkpt>
      <trkpt lat="45.37686" lon="14.32027">
        <ele>305</ele>
        <time>2016-07-16T01:29:58Z</time>
      </trkpt>
      <trkpt lat="45.3768" lon="14.3204">
        <ele>305</ele>
        <time>2016-07-16T01:31:58Z</time>
      </trkpt>
      <trkpt lat="45.37677" lon="14.32048">
        <ele>305</ele>
        <time>2016-07-16T01:33:58Z</time>
      </trkpt>
      <trkpt lat="45.37673" lon="14.32057">
        <ele>305</ele>
        <time>2016-07-16T01:35:58Z</time>
      </trkpt>
      <trkpt lat="45.3767" lon="14.32066">
        <ele>305</ele>
        <time>2016-07-16T01:37:58Z</time>
      </trkpt>
      <trkpt lat="45.37666" lon="14.32074">
        <ele>305</ele>
        <time>2016-07-16T01:39:58Z</time>
      </trkpt>
      <trkpt lat="45.37661" lon="14.32082">
        <ele>304</ele>
        <time>2016-07-16T01:41:58Z</time>
      </trkpt>
      <trkpt lat="45.37657" lon="14.3209">
        <ele>304</ele>
        <time>2016-07-16T01:43:58Z</time>
      </trkpt>
      <trkpt lat="45.37649" lon="14.321">
        <ele>303</ele>
        <time>2016-07-16T01:45:58Z</time>
      </trkpt>
      <trkpt lat="45.37643" lon="14.32107">
        <ele>303</ele>
        <time>2016-07-16T01:47:58Z</time>
      </trkpt>
      <trkpt lat="45.37637" lon="14.32112">
        <ele>302</ele>
        <time>2016-07-16T01:49:58Z</time>
      </trkpt>
      <trkpt lat="45.37627" lon="14.32125">
        <ele>301</ele>
        <time>2016-07-16T01:51:58Z</time>
      </trkpt>
      <trkpt lat="45.37619" lon="14.32137">
        <ele>301</ele>
        <time>2016-07-16T01:53:58Z</time>
      </trkpt>
      <trkpt lat="45.37613" lon="14.3215">
        <ele>300</ele>
        <time>2016-07-16T01:55:58Z</time>
      </trkpt>
      <trkpt lat="45.37609" lon="14.32161">
        <ele>300</ele>
        <time>2016-07-16T01:57:58Z</time>
      </trkpt>
      <trkpt lat="45.37604" lon="14.3218">
        <ele>299</ele>
        <time>2016-07-16T01:59:58Z</time>
      </trkpt>
      <trkpt lat="45.376" lon="14.32195">
        <ele>299</ele>
        <time>2016-07-16T02:01:58Z</time>
      </trkpt>
      <trkpt lat="45.37596" lon="14.32216">
        <ele>299</ele>
        <time>2016-07-16T02:03:58Z</time>
      </trkpt>
      <trkpt lat="45.37593" lon="14.32231">
        <ele>298</ele>
        <time>2016-07-16T02:05:58Z</time>
      </trkpt>
      <trkpt lat="45.37594" lon="14.32249">
        <ele>299</ele>
        <time>2016-07-16T02:07:58Z</time>
      </trkpt>
      <trkpt lat="45.37595" lon="14.32264">
        <ele>299</ele>
        <time>2016-07-16T02:09:58Z</time>
      </trkpt>
      <trkpt lat="45.37595" lon="14.32269">
        <ele>299</ele>
        <time>2016-07-16T02:11:58Z</time>
      </trkpt>
      <trkpt lat="45.37595" lon="14.32269">
        <ele>299</ele>
        <time>2016-07-16T02:13:58Z</time>
      </trkpt>
      <trkpt lat="45.37597" lon="14.32281">
        <ele>300</ele>
        <time>2016-07-16T02:15:58Z</time>
      </trkpt>
      <trkpt lat="45.37598" lon="14.32294">
        <ele>300</ele>
        <time>2016-07-16T02:17:58Z</time>
      </trkpt>
      <trkpt lat="45.37598" lon="14.3231">
        <ele>300</ele>
        <time>2016-07-16T02:19:58Z</time>
      </trkpt>
      <trkpt lat="45.37597" lon="14.32324">
        <ele>300</ele>
        <time>2016-07-16T02:21:58Z</time>
      </trkpt>
      <trkpt lat="45.37594" lon="14.32343">
        <ele>300</ele>
        <time>2016-07-16T02:23:58Z</time>
      </trkpt>
      <trkpt lat="45.37587" lon="14.32369">
        <ele>298</ele>
        <time>2016-07-16T02:25:58Z</time>
      </trkpt>
      <trkpt lat="45.37582" lon="14.32388">
        <ele>297</ele>
        <time>2016-07-16T02:27:58Z</time>
      </trkpt>
      <trkpt lat="45.37579" lon="14.32409">
        <ele>296</ele>
        <time>2016-07-16T02:29:58Z</time>
      </trkpt>
      <trkpt lat="45.37576" lon="14.32453">
        <ele>296</ele>
        <time>2016-07-16T02:31:58Z</time>
      </trkpt>
      <trkpt lat="45.37576" lon="14.32474">
        <ele>296</ele>
        <time>2016-07-16T02:33:58Z</time>
      </trkpt>
      <trkpt lat="45.37575" lon="14.32483">
        <ele>296</ele>
        <time>2016-07-16T02:35:58Z</time>
      </trkpt>
      <trkpt lat="45.37574" lon="14.3249">
        <ele>296</ele>
        <time>2016-07-16T02:37:58Z</time>
      </trkpt>
      <trkpt lat="45.37573" lon="14.32495">
        <ele>296</ele>
        <time>2016-07-16T02:39:58Z</time>
      </trkpt>
      <trkpt lat="45.37571" lon="14.32502">
        <ele>296</ele>
        <time>2016-07-16T02:41:58Z</time>
      </trkpt>
      <trkpt lat="45.37568" lon="14.32508">
        <ele>296</ele>
        <time>2016-07-16T02:43:58Z</time>
      </trkpt>
      <trkpt lat="45.37564" lon="14.32517">
        <ele>297</ele>
        <time>2016-07-16T02:45:58Z</time>
      </trkpt>
      <trkpt lat="45.3756" lon="14.32523">
        <ele>297</ele>
        <time>2016-07-16T02:47:58Z</time>
      </trkpt>
      <trkpt lat="45.37546" lon="14.3254">
        <ele>297</ele>
        <time>2016-07-16T02:49:58Z</time>
      </trkpt>
      <trkpt lat="45.3754" lon="14.32552">
        <ele>297</ele>
        <time>2016-07-16T02:51:58Z</time>
      </trkpt>
      <trkpt lat="45.37535" lon="14.32562">
        <ele>297</ele>
        <time>2016-07-16T02:53:58Z</time>
      </trkpt>
      <trkpt lat="45.37533" lon="14.32575">
        <ele>297</ele>
        <time>2016-07-16T02:55:58Z</time>
      </trkpt>
      <trkpt lat="45.37532" lon="14.32587">
        <ele>297</ele>
        <time>2016-07-16T02:57:58Z</time>
      </trkpt>
      <trkpt lat="45.37532" lon="14.32595">
        <ele>297</ele>
        <time>2016-07-16T02:59:58Z</time>
      </trkpt>
      <trkpt lat="45.37534" lon="14.32606">
        <ele>298</ele>
        <time>2016-07-16T03:01:58Z</time>
      </trkpt>
      <trkpt lat="45.37537" lon="14.32617">
        <ele>299</ele>
        <time>2016-07-16T03:03:58Z</time>
      </trkpt>
      <trkpt lat="45.37543" lon="14.32633">
        <ele>301</ele>
        <time>2016-07-16T03:05:58Z</time>
      </trkpt>
      <trkpt lat="45.37545" lon="14.32643">
        <ele>302</ele>
        <time>2016-07-16T03:07:58Z</time>
      </trkpt>
      <trkpt lat="45.37546" lon="14.32658">
        <ele>303</ele>
        <time>2016-07-16T03:09:58Z</time>
      </trkpt>
      <trkpt lat="45.37546" lon="14.32668">
        <ele>303</ele>
        <time>2016-07-16T03:11:58Z</time>
      </trkpt>
      <trkpt lat="45.37545" lon="14.32677">
        <ele>303</ele>
        <time>2016-07-16T03:13:58Z</time>
      </trkpt>
      <trkpt lat="45.37545" lon="14.32679">
        <ele>303</ele>
        <time>2016-07-16T03:15:58Z</time>
      </trkpt>
      <trkpt lat="45.37544" lon="14.32688">
        <ele>304</ele>
        <time>2016-07-16T03:17:58Z</time>
      </trkpt>
      <trkpt lat="45.37542" lon="14.32698">
        <ele>304</ele>
        <time>2016-07-16T03:19:58Z</time>
      </trkpt>
      <trkpt lat="45.37538" lon="14.32709">
        <ele>303</ele>
        <time>2016-07-16T03:21:58Z</time>
      </trkpt>
      <trkpt lat="45.37536" lon="14.32713">
        <ele>303</ele>
        <time>2016-07-16T03:23:58Z</time>
      </trkpt>
      <trkpt lat="45.37536" lon="14.32713">
        <ele>303</ele>
        <time>2016-07-16T03:25:58Z</time>
      </trkpt>
      <trkpt lat="45.37531" lon="14.32724">
        <ele>302</ele>
        <time>2016-07-16T03:27:58Z</time>
      </trkpt>
      <trkpt lat="45.37524" lon="14.32736">
        <ele>301</ele>
        <time>2016-07-16T03:29:58Z</time>
      </trkpt>
      <trkpt lat="45.37508" lon="14.32759">
        <ele>298</ele>
        <time>2016-07-16T03:31:58Z</time>
      </trkpt>
      <trkpt lat="45.37495" lon="14.3278">
        <ele>297</ele>
        <time>2016-07-16T03:33:58Z</time>
      </trkpt>
      <trkpt lat="45.37489" lon="14.32794">
        <ele>297</ele>
        <time>2016-07-16T03:35:58Z</time>
      </trkpt>
      <trkpt lat="45.37485" lon="14.32814">
        <ele>299</ele>
        <time>2016-07-16T03:37:58Z</time>
      </trkpt>
      <trkpt lat="45.37483" lon="14.32829">
        <ele>299</ele>
        <time>2016-07-16T03:39:58Z</time>
      </trkpt>
      <trkpt lat="45.37483" lon="14.32846">
        <ele>300</ele>
        <time>2016-07-16T03:41:58Z</time>
      </trkpt>
      <trkpt lat="45.37485" lon="14.32879">
        <ele>301</ele>
        <time>2016-07-16T03:43:58Z</time>
      </trkpt>
      <trkpt lat="45.37484" lon="14.32924">
        <ele>302</ele>
        <time>2016-07-16T03:45:58Z</time>
      </trkpt>
      <trkpt lat="45.37484" lon="14.32938">
        <ele>302</ele>
        <time>2016-07-16T03:47:58Z</time>
      </trkpt>
      <trkpt lat="45.37483" lon="14.32949">
        <ele>302</ele>
        <time>2016-07-16T03:49:58Z</time>
      </trkpt>
      <trkpt lat="45.3748" lon="14.32969">
        <ele>302</ele>
        <time>2016-07-16T03:51:58Z</time>
      </trkpt>
      <trkpt lat="45.37474" lon="14.32992">
        <ele>301</ele>
        <time>2016-07-16T03:53:58Z</time>
      </trkpt>
      <trkpt lat="45.37473" lon="14.32998">
        <ele>301</ele>
        <time>2016-07-16T03:55:58Z</time>
      </trkpt>
      <trkpt lat="45.37473" lon="14.32999">
        <ele>301</ele>
        <time>2016-07-16T03:57:58Z</time>
      </trkpt>
      <trkpt lat="45.37472" lon="14.33008">
        <ele>300</ele>
        <time>2016-07-16T03:59:58Z</time>
      </trkpt>
      <trkpt lat="45.37472" lon="14.33008">
        <ele>300</ele>
        <time>2016-07-16T04:01:58Z</time>
      </trkpt>
      <trkpt lat="45.37471" lon="14.33022">
        <ele>300</ele>
        <time>2016-07-16T04:03:58Z</time>
      </trkpt>
      <trkpt lat="45.37471" lon="14.33032">
        <ele>299</ele>
        <time>2016-07-16T04:05:58Z</time>
      </trkpt>
      <trkpt lat="45.37475" lon="14.33062">
        <ele>298</ele>
        <time>2016-07-16T04:07:58Z</time>
      </trkpt>
      <trkpt lat="45.37478" lon="14.33082">
        <ele>298</ele>
        <time>2016-07-16T04:09:58Z</time>
      </trkpt>
      <trkpt lat="45.37481" lon="14.33099">
        <ele>297</ele>
        <time>2016-07-16T04:11:58Z</time>
      </trkpt>
      <trkpt lat="45.37484" lon="14.33116">
        <ele>297</ele>
        <time>2016-07-16T04:13:58Z</time>
      </trkpt>
      <trkpt lat="45.37485" lon="14.33124">
        <ele>297</ele>
        <time>2016-07-16T04:15:58Z</time>
      </trkpt>
      <trkpt lat="45.37488" lon="14.3314">
        <ele>296</ele>
        <time>2016-07-16T04:17:58Z</time>
      </trkpt>
      <trkpt lat="45.37489" lon="14.33148">
        <ele>296</ele>
        <time>2016-07-16T04:19:58Z</time>
      </trkpt>
      <trkpt lat="45.37489" lon="14.33157">
        <ele>296</ele>
        <time>2016-07-16T04:21:58Z</time>
      </trkpt>
      <trkpt lat="45.37488" lon="14.33166">
        <ele>296</ele>
        <time>2016-07-16T04:23:58Z</time>
      </trkpt>
      <trkpt lat="45.37488" lon="14.33173">
        <ele>295</ele>
        <time>2016-07-16T04:25:58Z</time>
      </trkpt>
      <trkpt lat="45.37487" lon="14.33175">
        <ele>295</ele>
        <time>2016-07-16T04:27:58Z</time>
      </trkpt>
      <trkpt lat="45.37486" lon="14.33187">
        <ele>295</ele>
        <time>2016-07-16T04:29:58Z</time>
      </trkpt>
      <trkpt lat="45.37484" lon="14.33193">
        <ele>295</ele>
        <time>2016-07-16T04:31:58Z</time>
      </trkpt>
      <trkpt lat="45.37482" lon="14.332">
        <ele>294</ele>
        <time>2016-07-16T04:33:58Z</time>
      </trkpt>
      <trkpt lat="45.37477" lon="14.33218">
        <ele>293</ele>
        <time>2016-07-16T04:35:58Z</time>
      </trkpt>
      <trkpt lat="45.37474" lon="14.33227">
        <ele>293</ele>
        <time>2016-07-16T04:37:58Z</time>
      </trkpt>
      <trkpt lat="45.37471" lon="14.33235">
        <ele>292</ele>
        <time>2016-07-16T04:39:58Z</time>
      </trkpt>
      <trkpt lat="45.37468" lon="14.33246">
        <ele>292</ele>
        <time>2016-07-16T04:41:58Z</time>
      </trkpt>
      <trkpt lat="45.37466" lon="14.33256">
        <ele>292</ele>
        <time>2016-07-16T04:43:58Z</time>
      </trkpt>
      <trkpt lat="45.37465" lon="14.3327">
        <ele>292</ele>
        <time>2016-07-16T04:45:58Z</time>
      </trkpt>
      <trkpt lat="45.3746" lon="14.33315">
        <ele>291</ele>
        <time>2016-07-16T04:47:58Z</time>
      </trkpt>
      <trkpt lat="45.37457" lon="14.33329">
        <ele>291</ele>
        <time>2016-07-16T04:49:58Z</time>
      </trkpt>
      <trkpt lat="45.37457" lon="14.33331">
        <ele>291</ele>
        <time>2016-07-16T04:51:58Z</time>
      </trkpt>
      <trkpt lat="45.37454" lon="14.33345">
        <ele>291</ele>
        <time>2016-07-16T04:53:58Z</time>
      </trkpt>
      <trkpt lat="45.37452" lon="14.3335">
        <ele>291</ele>
        <time>2016-07-16T04:55:58Z</time>
      </trkpt>
      <trkpt lat="45.37449" lon="14.33356">
        <ele>291</ele>
        <time>2016-07-16T04:57:58Z</time>
      </trkpt>
      <trkpt lat="45.37445" lon="14.33364">
        <ele>290</ele>
        <time>2016-07-16T04:59:58Z</time>
      </trkpt>
      <trkpt lat="45.37433" lon="14.33388">
        <ele>289</ele>
        <time>2016-07-16T05:01:58Z</time>
      </trkpt>
      <trkpt lat="45.37417" lon="14.33413">
        <ele>287</ele>
        <time>2016-07-16T05:03:58Z</time>
      </trkpt>
      <trkpt lat="45.37407" lon="14.33428">
        <ele>287</ele>
        <time>2016-07-16T05:05:58Z</time>
      </trkpt>
      <trkpt lat="45.37402" lon="14.33439">
        <ele>287</ele>
        <time>2016-07-16T05:07:58Z</time>
      </trkpt>
      <trkpt lat="45.37399" lon="14.33443">
        <ele>287</ele>
        <time>2016-07-16T05:09:58Z</time>
      </trkpt>
      <trkpt lat="45.37389" lon="14.33463">
        <ele>287</ele>
        <time>2016-07-16T05:11:58Z</time>
      </trkpt>
      <trkpt lat="45.37384" lon="14.33475">
        <ele>287</ele>
        <time>2016-07-16T05:13:58Z</time>
      </trkpt>
      <trkpt lat="45.37374" lon="14.33499">
        <ele>287</ele>
        <time>2016-07-16T05:15:58Z</time>
      </trkpt>
      <trkpt lat="45.37355" lon="14.33558">
        <ele>286</ele>
        <time>2016-07-16T05:17:58Z</time>
      </trkpt>
      <trkpt lat="45.37354" lon="14.33561">
        <ele>286</ele>
        <time>2016-07-16T05:19:58Z</time>
      </trkpt>
      <trkpt lat="45.37352" lon="14.33567">
        <ele>286</ele>
        <time>2016-07-16T05:21:58Z</time>
      </trkpt>
      <trkpt lat="45.3735" lon="14.33577">
        <ele>286</ele>
        <time>2016-07-16T05:23:58Z</time>
      </trkpt>
      <trkpt lat="45.37348" lon="14.33588">
        <ele>286</ele>
        <time>2016-07-16T05:25:58Z</time>
      </trkpt>
      <trkpt lat="45.37348" lon="14.33607">
        <ele>285</ele>
        <time>2016-07-16T05:27:58Z</time>
      </trkpt>
      <trkpt lat="45.3735" lon="14.33635">
        <ele>284</ele>
        <time>2016-07-16T05:29:58Z</time>
      </trkpt>
      <trkpt lat="45.3735" lon="14.33643">
        <ele>284</ele>
        <time>2016-07-16T05:31:58Z</time>
      </trkpt>
      <trkpt lat="45.3735" lon="14.33655">
        <ele>284</ele>
        <time>2016-07-16T05:33:58Z</time>
      </trkpt>
      <trkpt lat="45.3735" lon="14.33663">
        <ele>284</ele>
        <time>2016-07-16T05:35:58Z</time>
      </trkpt>
      <trkpt lat="45.37349" lon="14.33673">
        <ele>284</ele>
        <time>2016-07-16T05:37:58Z</time>
      </trkpt>
      <trkpt lat="45.37347" lon="14.33683">
        <ele>284</ele>
        <time>2016-07-16T05:39:58Z</time>
      </trkpt>
      <trkpt lat="45.37346" lon="14.33692">
        <ele>284</ele>
        <time>2016-07-16T05:41:58Z</time>
      </trkpt>
      <trkpt lat="45.37345" lon="14.33698">
        <ele>284</ele>
        <time>2016-07-16T05:43:58Z</time>
      </trkpt>
      <trkpt lat="45.37341" lon="14.33711">
        <ele>284</ele>
        <time>2016-07-16T05:45:58Z</time>
      </trkpt>
      <trkpt lat="45.37338" lon="14.33722">
        <ele>284</ele>
        <time>2016-07-16T05:47:58Z</time>
      </trkpt>
      <trkpt lat="45.37328" lon="14.33751">
        <ele>284</ele>
        <time>2016-07-16T05:49:58Z</time>
      </trkpt>
      <trkpt lat="45.37304" lon="14.33818">
        <ele>287</ele>
        <time>2016-07-16T05:51:58Z</time>
      </trkpt>
      <trkpt lat="45.37293" lon="14.33849">
        <ele>287</ele>
        <time>2016-07-16T05:53:58Z</time>
      </trkpt>
      <trkpt lat="45.37286" lon="14.33869">
        <ele>287</ele>
        <time>2016-07-16T05:55:58Z</time>
      </trkpt>
      <trkpt lat="45.37284" lon="14.33877">
        <ele>287</ele>
        <time>2016-07-16T05:57:58Z</time>
      </trkpt>
      <trkpt lat="45.37282" lon="14.33882">
        <ele>287</ele>
        <time>2016-07-16T05:59:58Z</time>
      </trkpt>
      <trkpt lat="45.37279" lon="14.33897">
        <ele>287</ele>
        <time>2016-07-16T06:01:58Z</time>
      </trkpt>
      <trkpt lat="45.37276" lon="14.33913">
        <ele>287</ele>
        <time>2016-07-16T06:03:58Z</time>
      </trkpt>
      <trkpt lat="45.37276" lon="14.33923">
        <ele>287</ele>
        <time>2016-07-16T06:05:58Z</time>
      </trkpt>
      <trkpt lat="45.37276" lon="14.33925">
        <ele>287</ele>
        <time>2016-07-16T06:07:58Z</time>
      </trkpt>
      <trkpt lat="45.37276" lon="14.33935">
        <ele>287</ele>
        <time>2016-07-16T06:09:58Z</time>
      </trkpt>
      <trkpt lat="45.37276" lon="14.33935">
        <ele>287</ele>
        <time>2016-07-16T06:11:58Z</time>
      </trkpt>
      <trkpt lat="45.37279" lon="14.33949">
        <ele>288</ele>
        <time>2016-07-16T06:13:58Z</time>
      </trkpt>
      <trkpt lat="45.37283" lon="14.33961">
        <ele>289</ele>
        <time>2016-07-16T06:15:58Z</time>
      </trkpt>
      <trkpt lat="45.37289" lon="14.33973">
        <ele>290</ele>
        <time>2016-07-16T06:17:58Z</time>
      </trkpt>
      <trkpt lat="45.37296" lon="14.33982">
        <ele>291</ele>
        <time>2016-07-16T06:19:58Z</time>
      </trkpt>
      <trkpt lat="45.37304" lon="14.33989">
        <ele>292</ele>
        <time>2016-07-16T06:21:58Z</time>
      </trkpt>
      <trkpt lat="45.37332" lon="14.34004">
        <ele>296</ele>
        <time>2016-07-16T06:23:58Z</time>
      </trkpt>
      <trkpt lat="45.37342" lon="14.3401">
        <ele>297</ele>
        <time>2016-07-16T06:25:58Z</time>
      </trkpt>
      <trkpt lat="45.37347" lon="14.34014">
        <ele>298</ele>
        <time>2016-07-16T06:27:58Z</time>
      </trkpt>
      <trkpt lat="45.37351" lon="14.34018">
        <ele>299</ele>
        <time>2016-07-16T06:29:58Z</time>
      </trkpt>
      <trkpt lat="45.37357" lon="14.34028">
        <ele>300</ele>
        <time>2016-07-16T06:31:58Z</time>
      </trkpt>
      <trkpt lat="45.37361" lon="14.34037">
        <ele>300</ele>
        <time>2016-07-16T06:33:58Z</time>
      </trkpt>
      <trkpt lat="45.37363" lon="14.34042">
        <ele>300</ele>
        <time>2016-07-16T06:35:58Z</time>
      </trkpt>
      <trkpt lat="45.37365" lon="14.34048">
        <ele>301</ele>
        <time>2016-07-16T06:37:58Z</time>
      </trkpt>
      <trkpt lat="45.37366" lon="14.34054">
        <ele>301</ele>
        <time>2016-07-16T06:39:58Z</time>
      </trkpt>
      <trkpt lat="45.37367" lon="14.34061">
        <ele>301</ele>
        <time>2016-07-16T06:41:58Z</time>
      </trkpt>
      <trkpt lat="45.37367" lon="14.34073">
        <ele>300</ele>
        <time>2016-07-16T06:43:58Z</time>
      </trkpt>
      <trkpt lat="45.37367" lon="14.3408">
        <ele>300</ele>
        <time>2016-07-16T06:45:58Z</time>
      </trkpt>
      <trkpt lat="45.37366" lon="14.34099">
        <ele>300</ele>
        <time>2016-07-16T06:47:58Z</time>
      </trkpt>
      <trkpt lat="45.37364" lon="14.34122">
        <ele>299</ele>
        <time>2016-07-16T06:49:58Z</time>
      </trkpt>
      <trkpt lat="45.37362" lon="14.34167">
        <ele>299</ele>
        <time>2016-07-16T06:51:58Z</time>
      </trkpt>
      <trkpt lat="45.37362" lon="14.34206">
        <ele>300</ele>
        <time>2016-07-16T06:53:58Z</time>
      </trkpt>
      <trkpt lat="45.37362" lon="14.34209">
        <ele>300</ele>
        <time>2016-07-16T06:55:58Z</time>
      </trkpt>
      <trkpt lat="45.3736" lon="14.34287">
        <ele>301</ele>
        <time>2016-07-16T06:57:58Z</time>
      </trkpt>
      <trkpt lat="45.37359" lon="14.343">
        <ele>302</ele>
        <time>2016-07-16T06:59:58Z</time>
      </trkpt>
      <trkpt lat="45.37357" lon="14.34309">
        <ele>301</ele>
        <time>2016-07-16T07:01:58Z</time>
      </trkpt>
      <trkpt lat="45.37354" lon="14.34317">
        <ele>301</ele>
        <time>2016-07-16T07:03:58Z</time>
      </trkpt>
      <trkpt lat="45.37351" lon="14.34325">
        <ele>300</ele>
        <time>2016-07-16T07:05:58Z</time>
      </trkpt>
      <trkpt lat="45.37349" lon="14.3433">
        <ele>300</ele>
        <time>2016-07-16T07:07:58Z</time>
      </trkpt>
      <trkpt lat="45.37347" lon="14.34334">
        <ele>299</ele>
        <time>2016-07-16T07:09:58Z</time>
      </trkpt>
      <trkpt lat="45.37337" lon="14.34351">
        <ele>298</ele>
        <time>2016-07-16T07:11:58Z</time>
      </trkpt>
      <trkpt lat="45.3732" lon="14.34373">
        <ele>297</ele>
        <time>2016-07-16T07:13:58Z</time>
      </trkpt>
      <trkpt lat="45.3729" lon="14.34411">
        <ele>298</ele>
        <time>2016-07-16T07:15:58Z</time>
      </trkpt>
      <trkpt lat="45.37279" lon="14.34424">
        <ele>298</ele>
        <time>2016-07-16T07:17:58Z</time>
      </trkpt>
      <trkpt lat="45.37274" lon="14.34431">
        <ele>298</ele>
        <time>2016-07-16T07:19:58Z</time>
      </trkpt>
      <trkpt lat="45.37269" lon="14.34437">
        <ele>298</ele>
        <time>2016-07-16T07:21:58Z</time>
      </trkpt>
      <trkpt lat="45.37247" lon="14.34465">
        <ele>297</ele>
        <time>2016-07-16T07:23:58Z</time>
      </trkpt>
      <trkpt lat="45.37237" lon="14.34489">
        <ele>298</ele>
        <time>2016-07-16T07:25:58Z</time>
      </trkpt>
      <trkpt lat="45.37237" lon="14.34489">
        <ele>298</ele>
        <time>2016-07-16T07:27:58Z</time>
      </trkpt>
      <trkpt lat="45.3724" lon="14.34497">
        <ele>299</ele>
        <time>2016-07-16T07:29:58Z</time>
      </trkpt>
      <trkpt lat="45.37242" lon="14.34502">
        <ele>299</ele>
        <time>2016-07-16T07:31:58Z</time>
      </trkpt>
      <trkpt lat="45.37244" lon="14.34507">
        <ele>300</ele>
        <time>2016-07-16T07:33:58Z</time>
      </trkpt>
      <trkpt lat="45.37246" lon="14.34514">
        <ele>301</ele>
        <time>2016-07-16T07:35:58Z</time>
      </trkpt>
      <trkpt lat="45.37248" lon="14.34522">
        <ele>301</ele>
        <time>2016-07-16T07:37:58Z</time>
      </trkpt>
      <trkpt lat="45.37248" lon="14.3453">
        <ele>302</ele>
        <time>2016-07-16T07:39:58Z</time>
      </trkpt>
      <trkpt lat="45.37248" lon="14.34541">
        <ele>303</ele>
        <time>2016-07-16T07:41:58Z</time>
      </trkpt>
      <trkpt lat="45.37245" lon="14.34556">
        <ele>304</ele>
        <time>2016-07-16T07:43:58Z</time>
      </trkpt>
      <trkpt lat="45.37241" lon="14.3457">
        <ele>305</ele>
        <time>2016-07-16T07:45:58Z</time>
      </trkpt>
      <trkpt lat="45.37233" lon="14.34586">
        <ele>306</ele>
        <time>2016-07-16T07:47:58Z</time>
      </trkpt>
      <trkpt lat="45.37225" lon="14.34601">
        <ele>308</ele>
        <time>2016-07-16T07:49:58Z</time>
      </trkpt>
      <trkpt lat="45.37217" lon="14.34612">
        <ele>309</ele>
        <time>2016-07-16T07:51:58Z</time>
      </trkpt>
      <trkpt lat="45.37207" lon="14.34621">
        <ele>309</ele>
        <time>2016-07-16T07:53:58Z</time>
      </trkpt>
      <trkpt lat="45.37196" lon="14.34633">
        <ele>310</ele>
        <time>2016-07-16T07:55:58Z</time>
      </trkpt>
      <trkpt lat="45.37182" lon="14.34646">
        <ele>310</ele>
        <time>2016-07-16T07:57:58Z</time>
      </trkpt>
      <trkpt lat="45.37176" lon="14.34652">
        <ele>309</ele>
        <time>2016-07-16T07:59:58Z</time>
      </trkpt>
      <trkpt lat="45.37175" lon="14.34658">
        <ele>310</ele>
        <time>2016-07-16T08:01:58Z</time>
      </trkpt>
      <trkpt lat="45.37174" lon="14.34665">
        <ele>310</ele>
        <time>2016-07-16T08:03:58Z</time>
      </trkpt>
      <trkpt lat="45.37175" lon="14.34671">
        <ele>310</ele>
        <time>2016-07-16T08:05:58Z</time>
      </trkpt>
      <trkpt lat="45.37175" lon="14.34678">
        <ele>311</ele>
        <time>2016-07-16T08:07:58Z</time>
      </trkpt>
      <trkpt lat="45.37175" lon="14.34685">
        <ele>312</ele>
        <time>2016-07-16T08:09:58Z</time>
      </trkpt>
      <trkpt lat="45.37175" lon="14.34693">
        <ele>312</ele>
        <time>2016-07-16T08:11:58Z</time>
      </trkpt>
      <trkpt lat="45.37176" lon="14.34701">
        <ele>313</ele>
        <time>2016-07-16T08:13:58Z</time>
      </trkpt>
      <trkpt lat="45.37177" lon="14.34706">
        <ele>314</ele>
        <time>2016-07-16T08:15:58Z</time>
      </trkpt>
      <trkpt lat="45.37177" lon="14.34711">
        <ele>314</ele>
        <time>2016-07-16T08:17:58Z</time>
      </trkpt>
      <trkpt lat="45.37177" lon="14.34716">
        <ele>315</ele>
        <time>2016-07-16T08:19:58Z</time>
      </trkpt>
      <trkpt lat="45.37177" lon="14.34723">
        <ele>316</ele>
        <time>2016-07-16T08:21:58Z</time>
      </trkpt>
      <trkpt lat="45.37176" lon="14.34728">
        <ele>316</ele>
        <time>2016-07-16T08:23:58Z</time>
      </trkpt>
      <trkpt lat="45.37175" lon="14.34735">
        <ele>316</ele>
        <time>2016-07-16T08:25:58Z</time>
      </trkpt>
      <trkpt lat="45.37173" lon="14.34741">
        <ele>316</ele>
        <time>2016-07-16T08:27:58Z</time>
      </trkpt>
      <trkpt lat="45.37172" lon="14.34745">
        <ele>316</ele>
        <time>2016-07-16T08:29:58Z</time>
      </trkpt>
      <trkpt lat="45.37167" lon="14.34756">
        <ele>316</ele>
        <time>2016-07-16T08:31:58Z</time>
      </trkpt>
      <trkpt lat="45.37165" lon="14.34763">
        <ele>316</ele>
        <time>2016-07-16T08:33:58Z</time>
      </trkpt>
      <trkpt lat="45.37163" lon="14.34771">
        <ele>317</ele>
        <time>2016-07-16T08:35:58Z</time>
      </trkpt>
      <trkpt lat="45.37161" lon="14.34783">
        <ele>318</ele>
        <time>2016-07-16T08:37:58Z</time>
      </trkpt>
      <trkpt lat="45.37161" lon="14.3479">
        <ele>318</ele>
        <time>2016-07-16T08:39:58Z</time>
      </trkpt>
      <trkpt lat="45.37161" lon="14.34799">
        <ele>319</ele>
        <time>2016-07-16T08:41:58Z</time>
      </trkpt>
      <trkpt lat="45.37161" lon="14.34815">
        <ele>321</ele>
        <time>2016-07-16T08:43:58Z</time>
      </trkpt>
      <trkpt lat="45.37161" lon="14.34836">
        <ele>323</ele>
        <time>2016-07-16T08:45:58Z</time>
      </trkpt>
      <trkpt lat="45.3716" lon="14.34856">
        <ele>325</ele>
        <time>2016-07-16T08:47:58Z</time>
      </trkpt>
      <trkpt lat="45.37157" lon="14.34883">
        <ele>327</ele>
        <time>2016-07-16T08:49:58Z</time>
      </trkpt>
      <trkpt lat="45.37154" lon="14.34897">
        <ele>328</ele>
        <time>2016-07-16T08:51:58Z</time>
      </trkpt>
      <trkpt lat="45.37148" lon="14.34928">
        <ele>329</ele>
        <time>2016-07-16T08:53:58Z</time>
      </trkpt>
      <trkpt lat="45.37143" lon="14.34976">
        <ele>332</ele>
        <time>2016-07-16T08:55:58Z</time>
      </trkpt>
      <trkpt lat="45.37141" lon="14.35007">
        <ele>334</ele>
        <time>2016-07-16T08:57:58Z</time>
      </trkpt>
      <trkpt lat="45.3714" lon="14.35039">
        <ele>331</ele>
        <time>2016-07-16T08:59:58Z</time>
      </trkpt>
      <trkpt lat="45.3714" lon="14.35044">
        <ele>331</ele>
        <time>2016-07-16T09:01:58Z</time>
      </trkpt>
      <trkpt lat="45.37141" lon="14.3505">
        <ele>331</ele>
        <time>2016-07-16T09:03:58Z</time>
      </trkpt>
      <trkpt lat="45.37142" lon="14.35055">
        <ele>331</ele>
        <time>2016-07-16T09:05:58Z</time>
      </trkpt>
      <trkpt lat="45.37143" lon="14.3506">
        <ele>330</ele>
        <time>2016-07-16T09:07:58Z</time>
      </trkpt>
      <trkpt lat="45.37144" lon="14.35063">
        <ele>330</ele>
        <time>2016-07-16T09:09:58Z</time>
      </trkpt>
      <trkpt lat="45.37146" lon="14.35069">
        <ele>330</ele>
        <time>2016-07-16T09:11:58Z</time>
      </trkpt>
      <trkpt lat="45.3716" lon="14.35094">
        <ele>329</ele>
        <time>2016-07-16T09:13:58Z</time>
      </trkpt>
      <trkpt lat="45.37171" lon="14.35114">
        <ele>329</ele>
        <time>2016-07-16T09:15:58Z</time>
      </trkpt>
      <trkpt lat="45.37172" lon="14.3512">
        <ele>328</ele>
        <time>2016-07-16T09:17:58Z</time>
      </trkpt>
      <trkpt lat="45.37173" lon="14.35124">
        <ele>328</ele>
        <time>2016-07-16T09:19:58Z</time>
      </trkpt>
      <trkpt lat="45.37174" lon="14.35128">
        <ele>328</ele>
        <time>2016-07-16T09:21:58Z</time>
      </trkpt>
      <trkpt lat="45.37175" lon="14.35132">
        <ele>328</ele>
        <time>2016-07-16T09:23:58Z</time>
      </trkpt>
      <trkpt lat="45.37175" lon="14.35137">
        <ele>327</ele>
        <time>2016-07-16T09:25:58Z</time>
      </trkpt>
      <trkpt lat="45.37175" lon="14.35143">
        <ele>327</ele>
        <time>2016-07-16T09:27:58Z</time>
      </trkpt>
      <trkpt lat="45.37174" lon="14.3515">
        <ele>326</ele>
        <time>2016-07-16T09:29:58Z</time>
      </trkpt>
      <trkpt lat="45.37174" lon="14.35155">
        <ele>326</ele>
        <time>2016-07-16T09:31:58Z</time>
      </trkpt>
      <trkpt lat="45.37173" lon="14.35159">
        <ele>325</ele>
        <time>2016-07-16T09:33:58Z</time>
      </trkpt>
      <trkpt lat="45.37171" lon="14.35166">
        <ele>324</ele>
        <time>2016-07-16T09:35:58Z</time>
      </trkpt>
      <trkpt lat="45.37146" lon="14.35245">
        <ele>320</ele>
        <time>2016-07-16T09:37:58Z</time>
      </trkpt>
      <trkpt lat="45.37143" lon="14.35253">
        <ele>320</ele>
        <time>2016-07-16T09:39:58Z</time>
      </trkpt>
      <trkpt lat="45.3714" lon="14.35262">
        <ele>319</ele>
        <time>2016-07-16T09:41:58Z</time>
      </trkpt>
      <trkpt lat="45.37139" lon="14.35265">
        <ele>319</ele>
        <time>2016-07-16T09:43:58Z</time>
      </trkpt>
      <trkpt lat="45.37129" lon="14.35287">
        <ele>318</ele>
        <time>2016-07-16T09:45:58Z</time>
      </trkpt>
      <trkpt lat="45.37129" lon="14.35287">
        <ele>318</ele>
        <time>2016-07-16T09:47:58Z</time>
      </trkpt>
      <trkpt lat="45.37128" lon="14.35286">
        <ele>318</ele>
        <time>2016-07-16T09:49:58Z</time>
      </trkpt>
      <trkpt lat="45.37128" lon="14.35285">
        <ele>318</ele>
        <time>2016-07-16T09:51:58Z</time>
      </trkpt>
      <trkpt lat="45.37127" lon="14.35284">
        <ele>318</ele>
        <time>2016-07-16T09:53:58Z</time>
      </trkpt>
      <trkpt lat="45.37127" lon="14.35283">
        <ele>318</ele>
        <time>2016-07-16T09:55:58Z</time>
      </trkpt>
      <trkpt lat="45.37126" lon="14.35283">
        <ele>318</ele>
        <time>2016-07-16T09:57:58Z</time>
      </trkpt>
      <trkpt lat="45.37126" lon="14.35282">
        <ele>318</ele>
        <time>2016-07-16T09:59:58Z</time>
      </trkpt>
      <trkpt lat="45.37125" lon="14.35282">
        <ele>318</ele>
        <time>2016-07-16T10:01:58Z</time>
      </trkpt>
      <trkpt lat="45.37124" lon="14.35281">
        <ele>318</ele>
        <time>2016-07-16T10:03:58Z</time>
      </trkpt>
      <trkpt lat="45.37123" lon="14.35281">
        <ele>318</ele>
        <time>2016-07-16T10:05:58Z</time>
      </trkpt>
      <trkpt lat="45.37122" lon="14.3528">
        <ele>318</ele>
        <time>2016-07-16T10:07:58Z</time>
      </trkpt>
      <trkpt lat="45.37121" lon="14.3528">
        <ele>318</ele>
        <time>2016-07-16T10:09:58Z</time>
      </trkpt>
      <trkpt lat="45.3712" lon="14.3528">
        <ele>318</ele>
        <time>2016-07-16T10:11:58Z</time>
      </trkpt>
      <trkpt lat="45.37119" lon="14.3528">
        <ele>318</ele>
        <time>2016-07-16T10:13:58Z</time>
      </trkpt>
      <trkpt lat="45.37118" lon="14.35281">
        <ele>318</ele>
        <time>2016-07-16T10:15:58Z</time>
      </trkpt>
      <trkpt lat="45.37117" lon="14.35281">
        <ele>318</ele>
        <time>2016-07-16T10:17:58Z</time>
      </trkpt>
      <trkpt lat="45.37116" lon="14.35281">
        <ele>318</ele>
        <time>2016-07-16T10:19:58Z</time>
      </trkpt>
      <trkpt lat="45.37116" lon="14.35282">
        <ele>318</ele>
        <time>2016-07-16T10:21:58Z</time>
      </trkpt>
      <trkpt lat="45.37115" lon="14.35282">
        <ele>318</ele>
        <time>2016-07-16T10:23:58Z</time>
      </trkpt>
      <trkpt lat="45.37115" lon="14.35283">
        <ele>318</ele>
        <time>2016-07-16T10:25:58Z</time>
      </trkpt>
      <trkpt lat="45.37114" lon="14.35283">
        <ele>318</ele>
        <time>2016-07-16T10:27:58Z</time>
      </trkpt>
      <trkpt lat="45.37114" lon="14.35284">
        <ele>318</ele>
        <time>2016-07-16T10:29:58Z</time>
      </trkpt>
      <trkpt lat="45.37113" lon="14.35285">
        <ele>318</ele>
        <time>2016-07-16T10:31:58Z</time>
      </trkpt>
      <trkpt lat="45.37113" lon="14.35286">
        <ele>318</ele>
        <time>2016-07-16T10:33:58Z</time>
      </trkpt>
      <trkpt lat="45.37112" lon="14.35286">
        <ele>318</ele>
        <time>2016-07-16T10:35:58Z</time>
      </trkpt>
      <trkpt lat="45.37112" lon="14.35287">
        <ele>318</ele>
        <time>2016-07-16T10:37:58Z</time>
      </trkpt>
      <trkpt lat="45.37112" lon="14.35288">
        <ele>318</ele>
        <time>2016-07-16T10:39:58Z</time>
      </trkpt>
      <trkpt lat="45.37112" lon="14.35289">
        <ele>318</ele>
        <time>2016-07-16T10:41:58Z</time>
      </trkpt>
      <trkpt lat="45.37111" lon="14.35289">
        <ele>318</ele>
        <time>2016-07-16T10:43:58Z</time>
      </trkpt>
      <trkpt lat="45.37111" lon="14.3529">
        <ele>318</ele>
        <time>2016-07-16T10:45:58Z</time>
      </trkpt>
      <trkpt lat="45.37111" lon="14.35291">
        <ele>318</ele>
        <time>2016-07-16T10:47:58Z</time>
      </trkpt>
      <trkpt lat="45.37111" lon="14.35292">
        <ele>317</ele>
        <time>2016-07-16T10:49:58Z</time>
      </trkpt>
      <trkpt lat="45.37111" lon="14.35293">
        <ele>317</ele>
        <time>2016-07-16T10:51:58Z</time>
      </trkpt>
      <trkpt lat="45.37111" lon="14.35294">
        <ele>317</ele>
        <time>2016-07-16T10:53:58Z</time>
      </trkpt>
      <trkpt lat="45.37111" lon="14.35295">
        <ele>317</ele>
        <time>2016-07-16T10:55:58Z</time>
      </trkpt>
      <trkpt lat="45.37111" lon="14.35296">
        <ele>317</ele>
        <time>2016-07-16T10:57:58Z</time>
      </trkpt>
      <trkpt lat="45.37111" lon="14.35297">
        <ele>317</ele>
        <time>2016-07-16T10:59:58Z</time>
      </trkpt>
      <trkpt lat="45.37111" lon="14.35298">
        <ele>317</ele>
        <time>2016-07-16T11:01:58Z</time>
      </trkpt>
      <trkpt lat="45.37111" lon="14.35299">
        <ele>317</ele>
        <time>2016-07-16T11:03:58Z</time>
      </trkpt>
      <trkpt lat="45.37112" lon="14.353">
        <ele>317</ele>
        <time>2016-07-16T11:05:58Z</time>
      </trkpt>
      <trkpt lat="45.37112" lon="14.35301">
        <ele>317</ele>
        <time>2016-07-16T11:07:58Z</time>
      </trkpt>
      <trkpt lat="45.37113" lon="14.35302">
        <ele>317</ele>
        <time>2016-07-16T11:09:58Z</time>
      </trkpt>
      <trkpt lat="45.37113" lon="14.35303">
        <ele>317</ele>
        <time>2016-07-16T11:11:58Z</time>
      </trkpt>
      <trkpt lat="45.37114" lon="14.35304">
        <ele>317</ele>
        <time>2016-07-16T11:13:58Z</time>
      </trkpt>
      <trkpt lat="45.37114" lon="14.35305">
        <ele>317</ele>
        <time>2016-07-16T11:15:58Z</time>
      </trkpt>
      <trkpt lat="45.37115" lon="14.35305">
        <ele>317</ele>
        <time>2016-07-16T11:17:58Z</time>
      </trkpt>
      <trkpt lat="45.37115" lon="14.35306">
        <ele>317</ele>
        <time>2016-07-16T11:19:58Z</time>
      </trkpt>
      <trkpt lat="45.37116" lon="14.35306">
        <ele>317</ele>
        <time>2016-07-16T11:21:58Z</time>
      </trkpt>
      <trkpt lat="45.37117" lon="14.35307">
        <ele>317</ele>
        <time>2016-07-16T11:23:58Z</time>
      </trkpt>
      <trkpt lat="45.37118" lon="14.35307">
        <ele>317</ele>
        <time>2016-07-16T11:25:58Z</time>
      </trkpt>
      <trkpt lat="45.37114" lon="14.35375">
        <ele>315</ele>
        <time>2016-07-16T11:27:58Z</time>
      </trkpt>
      <trkpt lat="45.37112" lon="14.35391">
        <ele>315</ele>
        <time>2016-07-16T11:29:58Z</time>
      </trkpt>
      <trkpt lat="45.37112" lon="14.35391">
        <ele>315</ele>
        <time>2016-07-16T11:31:58Z</time>
      </trkpt>
      <trkpt lat="45.37103" lon="14.35396">
        <ele>315</ele>
        <time>2016-07-16T11:33:58Z</time>
      </trkpt>
      <trkpt lat="45.37093" lon="14.35402">
        <ele>315</ele>
        <time>2016-07-16T11:35:58Z</time>
      </trkpt>
      <trkpt lat="45.37085" lon="14.35407">
        <ele>315</ele>
        <time>2016-07-16T11:37:58Z</time>
      </trkpt>
      <trkpt lat="45.37078" lon="14.3541">
        <ele>315</ele>
        <time>2016-07-16T11:39:58Z</time>
      </trkpt>
      <trkpt lat="45.37073" lon="14.35413">
        <ele>316</ele>
        <time>2016-07-16T11:41:58Z</time>
      </trkpt>
      <trkpt lat="45.37064" lon="14.35416">
        <ele>316</ele>
        <time>2016-07-16T11:43:58Z</time>
      </trkpt>
      <trkpt lat="45.37051" lon="14.35418">
        <ele>317</ele>
        <time>2016-07-16T11:45:58Z</time>
      </trkpt>
      <trkpt lat="45.37051" lon="14.35418">
        <ele>317</ele>
        <time>2016-07-16T11:47:58Z</time>
      </trkpt>
      <trkpt lat="45.3705" lon="14.35424">
        <ele>317</ele>
        <time>2016-07-16T11:49:58Z</time>
      </trkpt>
      <trkpt lat="45.37048" lon="14.35429">
        <ele>317</ele>
        <time>2016-07-16T11:51:58Z</time>
      </trkpt>
      <trkpt lat="45.37047" lon="14.35434">
        <ele>317</ele>
        <time>2016-07-16T11:53:58Z</time>
      </trkpt>
      <trkpt lat="45.37045" lon="14.35438">
        <ele>317</ele>
        <time>2016-07-16T11:55:58Z</time>
      </trkpt>
      <trkpt lat="45.37041" lon="14.35448">
        <ele>317</ele>
        <time>2016-07-16T11:57:58Z</time>
      </trkpt>
      <trkpt lat="45.37035" lon="14.35463">
        <ele>318</ele>
        <time>2016-07-16T11:59:58Z</time>
      </trkpt>
      <trkpt lat="45.37027" lon="14.35486">
        <ele>318</ele>
        <time>2016-07-16T12:01:58Z</time>
      </trkpt>
      <trkpt lat="45.37022" lon="14.35497">
        <ele>318</ele>
        <time>2016-07-16T12:03:58Z</time>
      </trkpt>
      <trkpt lat="45.37017" lon="14.35508">
        <ele>318</ele>
        <time>2016-07-16T12:05:58Z</time>
      </trkpt>
      <trkpt lat="45.37013" lon="14.35516">
        <ele>318</ele>
        <time>2016-07-16T12:07:58Z</time>
      </trkpt>
      <trkpt lat="45.37006" lon="14.35525">
        <ele>318</ele>
        <time>2016-07-16T12:09:58Z</time>
      </trkpt>
      <trkpt lat="45.36999" lon="14.35533">
        <ele>318</ele>
        <time>2016-07-16T12:11:58Z</time>
      </trkpt>
      <trkpt lat="45.3699" lon="14.35543">
        <ele>318</ele>
        <time>2016-07-16T12:13:58Z</time>
      </trkpt>
      <trkpt lat="45.36985" lon="14.35551">
        <ele>317</ele>
        <time>2016-07-16T12:15:58Z</time>
      </trkpt>
      <trkpt lat="45.36979" lon="14.35562">
        <ele>317</ele>
        <time>2016-07-16T12:17:58Z</time>
      </trkpt>
      <trkpt lat="45.36977" lon="14.35567">
        <ele>317</ele>
        <time>2016-07-16T12:19:58Z</time>
      </trkpt>
      <trkpt lat="45.36976" lon="14.35571">
        <ele>317</ele>
        <time>2016-07-16T12:21:58Z</time>
      </trkpt>
      <trkpt lat="45.36974" lon="14.35576">
        <ele>317</ele>
        <time>2016-07-16T12:23:58Z</time>
      </trkpt>
      <trkpt lat="45.36973" lon="14.35584">
        <ele>316</ele>
        <time>2016-07-16T12:25:58Z</time>
      </trkpt>
      <trkpt lat="45.36972" lon="14.35594">
        <ele>316</ele>
        <time>2016-07-16T12:27:58Z</time>
      </trkpt>
      <trkpt lat="45.36973" lon="14.35601">
        <ele>316</ele>
        <time>2016-07-16T12:29:58Z</time>
      </trkpt>
      <trkpt lat="45.36974" lon="14.35608">
        <ele>316</ele>
        <time>2016-07-16T12:31:58Z</time>
      </trkpt>
      <trkpt lat="45.36976" lon="14.35615">
        <ele>315</ele>
        <time>2016-07-16T12:33:58Z</time>
      </trkpt>
      <trkpt lat="45.36979" lon="14.35624">
        <ele>315</ele>
        <time>2016-07-16T12:35:58Z</time>
      </trkpt>
      <trkpt lat="45.36981" lon="14.35631">
        <ele>315</ele>
        <time>2016-07-16T12:37:58Z</time>
      </trkpt>
      <trkpt lat="45.36982" lon="14.3564">
        <ele>315</ele>
        <time>2016-07-16T12:39:58Z</time>
      </trkpt>
      <trkpt lat="45.36982" lon="14.3565">
        <ele>314</ele>
        <time>2016-07-16T12:41:58Z</time>
      </trkpt>
      <trkpt lat="45.36981" lon="14.35661">
        <ele>314</ele>
        <time>2016-07-16T12:43:58Z</time>
      </trkpt>
      <trkpt lat="45.36979" lon="14.35671">
        <ele>314</ele>
        <time>2016-07-16T12:45:58Z</time>
      </trkpt>
      <trkpt lat="45.36976" lon="14.35683">
        <ele>313</ele>
        <time>2016-07-16T12:47:58Z</time>
      </trkpt>
      <trkpt lat="45.3697" lon="14.35696">
        <ele>312</ele>
        <time>2016-07-16T12:49:58Z</time>
      </trkpt>
      <trkpt lat="45.36963" lon="14.35709">
        <ele>312</ele>
        <time>2016-07-16T12:51:58Z</time>
      </trkpt>
      <trkpt lat="45.36957" lon="14.35721">
        <ele>311</ele>
        <time>2016-07-16T12:53:58Z</time>
      </trkpt>
      <trkpt lat="45.36952" lon="14.35732">
        <ele>311</ele>
        <time>2016-07-16T12:55:58Z</time>
      </trkpt>
      <trkpt lat="45.36948" lon="14.35742">
        <ele>311</ele>
        <time>2016-07-16T12:57:58Z</time>
      </trkpt>
      <trkpt lat="45.36946" lon="14.3575">
        <ele>310</ele>
        <time>2016-07-16T12:59:58Z</time>
      </trkpt>
      <trkpt lat="45.36946" lon="14.35751">
        <ele>310</ele>
        <time>2016-07-16T13:01:58Z</time>
      </trkpt>
      <trkpt lat="45.36945" lon="14.35759">
        <ele>310</ele>
        <time>2016-07-16T13:03:58Z</time>
      </trkpt>
      <trkpt lat="45.36945" lon="14.3577">
        <ele>310</ele>
        <time>2016-07-16T13:05:58Z</time>
      </trkpt>
      <trkpt lat="45.36945" lon="14.35778">
        <ele>310</ele>
        <time>2016-07-16T13:07:58Z</time>
      </trkpt>
      <trkpt lat="45.36947" lon="14.35787">
        <ele>310</ele>
        <time>2016-07-16T13:09:58Z</time>
      </trkpt>
      <trkpt lat="45.36951" lon="14.35802">
        <ele>310</ele>
        <time>2016-07-16T13:11:58Z</time>
      </trkpt>
      <trkpt lat="45.36954" lon="14.35814">
        <ele>310</ele>
        <time>2016-07-16T13:13:58Z</time>
      </trkpt>
      <trkpt lat="45.36956" lon="14.35825">
        <ele>310</ele>
        <time>2016-07-16T13:15:58Z</time>
      </trkpt>
      <trkpt lat="45.36957" lon="14.35834">
        <ele>310</ele>
        <time>2016-07-16T13:17:58Z</time>
      </trkpt>
      <trkpt lat="45.36956" lon="14.35847">
        <ele>309</ele>
        <time>2016-07-16T13:19:58Z</time>
      </trkpt>
      <trkpt lat="45.36954" lon="14.35866">
        <ele>309</ele>
        <time>2016-07-16T13:21:58Z</time>
      </trkpt>
      <trkpt lat="45.36944" lon="14.3593">
        <ele>307</ele>
        <time>2016-07-16T13:23:58Z</time>
      </trkpt>
      <trkpt lat="45.36943" lon="14.35943">
        <ele>307</ele>
        <time>2016-07-16T13:25:58Z</time>
      </trkpt>
      <trkpt lat="45.36941" lon="14.35956">
        <ele>307</ele>
        <time>2016-07-16T13:27:58Z</time>
      </trkpt>
      <trkpt lat="45.3694" lon="14.35965">
        <ele>307</ele>
        <time>2016-07-16T13:29:58Z</time>
      </trkpt>
      <trkpt lat="45.36939" lon="14.35974">
        <ele>306</ele>
        <time>2016-07-16T13:31:58Z</time>
      </trkpt>
      <trkpt lat="45.36935" lon="14.35988">
        <ele>306</ele>
        <time>2016-07-16T13:33:58Z</time>
      </trkpt>
      <trkpt lat="45.36929" lon="14.36013">
        <ele>306</ele>
        <time>2016-07-16T13:35:58Z</time>
      </trkpt>
      <trkpt lat="45.36923" lon="14.36034">
        <ele>307</ele>
        <time>2016-07-16T13:37:58Z</time>
      </trkpt>
      <trkpt lat="45.36915" lon="14.36059">
        <ele>307</ele>
        <time>2016-07-16T13:39:58Z</time>
      </trkpt>
      <trkpt lat="45.36912" lon="14.36073">
        <ele>307</ele>
        <time>2016-07-16T13:41:58Z</time>
      </trkpt>
      <trkpt lat="45.36909" lon="14.36086">
        <ele>308</ele>
        <time>2016-07-16T13:43:58Z</time>
      </trkpt>
      <trkpt lat="45.36906" lon="14.36103">
        <ele>308</ele>
        <time>2016-07-16T13:45:58Z</time>
      </trkpt>
      <trkpt lat="45.36902" lon="14.36118">
        <ele>308</ele>
        <time>2016-07-16T13:47:58Z</time>
      </trkpt>
      <trkpt lat="45.36896" lon="14.36141">
        <ele>308</ele>
        <time>2016-07-16T13:49:58Z</time>
      </trkpt>
      <trkpt lat="45.36889" lon="14.36157">
        <ele>308</ele>
        <time>2016-07-16T13:51:58Z</time>
      </trkpt>
      <trkpt lat="45.36886" lon="14.36164">
        <ele>308</ele>
        <time>2016-07-16T13:53:58Z</time>
      </trkpt>
      <trkpt lat="45.36879" lon="14.36186">
        <ele>307</ele>
        <time>2016-07-16T13:55:58Z</time>
      </trkpt>
      <trkpt lat="45.36869" lon="14.36217">
        <ele>307</ele>
        <time>2016-07-16T13:57:58Z</time>
      </trkpt>
      <trkpt lat="45.36862" lon="14.36249">
        <ele>306</ele>
        <time>2016-07-16T13:59:58Z</time>
      </trkpt>
      <trkpt lat="45.36859" lon="14.3626">
        <ele>306</ele>
        <time>2016-07-16T14:01:58Z</time>
      </trkpt>
      <trkpt lat="45.36857" lon="14.36267">
        <ele>305</ele>
        <time>2016-07-16T14:03:58Z</time>
      </trkpt>
      <trkpt lat="45.36855" lon="14.36274">
        <ele>305</ele>
        <time>2016-07-16T14:05:58Z</time>
      </trkpt>
      <trkpt lat="45.36852" lon="14.36283">
        <ele>305</ele>
        <time>2016-07-16T14:07:58Z</time>
      </trkpt>
      <trkpt lat="45.36845" lon="14.36301">
        <ele>305</ele>
        <time>2016-07-16T14:09:58Z</time>
      </trkpt>
      <trkpt lat="45.36839" lon="14.36318">
        <ele>304</ele>
        <time>2016-07-16T14:11:58Z</time>
      </trkpt>
      <trkpt lat="45.36834" lon="14.36337">
        <ele>304</ele>
        <time>2016-07-16T14:13:58Z</time>
      </trkpt>
      <trkpt lat="45.36831" lon="14.36346">
        <ele>305</ele>
        <time>2016-07-16T14:15:58Z</time>
      </trkpt>
      <trkpt lat="45.36829" lon="14.36356">
        <ele>305</ele>
        <time>2016-07-16T14:17:58Z</time>
      </trkpt>
      <trkpt lat="45.36828" lon="14.36366">
        <ele>306</ele>
        <time>2016-07-16T14:19:58Z</time>
      </trkpt>
      <trkpt lat="45.36827" lon="14.36373">
        <ele>306</ele>
        <time>2016-07-16T14:21:58Z</time>
      </trkpt>
      <trkpt lat="45.36827" lon="14.36385">
        <ele>307</ele>
        <time>2016-07-16T14:23:58Z</time>
      </trkpt>
      <trkpt lat="45.36827" lon="14.36409">
        <ele>308</ele>
        <time>2016-07-16T14:25:58Z</time>
      </trkpt>
      <trkpt lat="45.36828" lon="14.36424">
        <ele>308</ele>
        <time>2016-07-16T14:27:58Z</time>
      </trkpt>
      <trkpt lat="45.36828" lon="14.36429">
        <ele>308</ele>
        <time>2016-07-16T14:29:58Z</time>
      </trkpt>
      <trkpt lat="45.3683" lon="14.36445">
        <ele>308</ele>
        <time>2016-07-16T14:31:58Z</time>
      </trkpt>
      <trkpt lat="45.36832" lon="14.36463">
        <ele>308</ele>
        <time>2016-07-16T14:33:58Z</time>
      </trkpt>
      <trkpt lat="45.36834" lon="14.36476">
        <ele>308</ele>
        <time>2016-07-16T14:35:58Z</time>
      </trkpt>
      <trkpt lat="45.36835" lon="14.36481">
        <ele>308</ele>
        <time>2016-07-16T14:37:58Z</time>
      </trkpt>
      <trkpt lat="45.36835" lon="14.36485">
        <ele>308</ele>
        <time>2016-07-16T14:39:58Z</time>
      </trkpt>
      <trkpt lat="45.36833" lon="14.36491">
        <ele>308</ele>
        <time>2016-07-16T14:41:58Z</time>
      </trkpt>
      <trkpt lat="45.36832" lon="14.36499">
        <ele>308</ele>
        <time>2016-07-16T14:43:58Z</time>
      </trkpt>
      <trkpt lat="45.36825" lon="14.36515">
        <ele>308</ele>
        <time>2016-07-16T14:45:58Z</time>
      </trkpt>
      <trkpt lat="45.36821" lon="14.36524">
        <ele>307</ele>
        <time>2016-07-16T14:47:58Z</time>
      </trkpt>
      <trkpt lat="45.36819" lon="14.36531">
        <ele>307</ele>
        <time>2016-07-16T14:49:58Z</time>
      </trkpt>
      <trkpt lat="45.36816" lon="14.36536">
        <ele>307</ele>
        <time>2016-07-16T14:51:58Z</time>
      </trkpt>
      <trkpt lat="45.36809" lon="14.3655">
        <ele>307</ele>
        <time>2016-07-16T14:53:58Z</time>
      </trkpt>
      <trkpt lat="45.36804" lon="14.36558">
        <ele>307</ele>
        <time>2016-07-16T14:55:58Z</time>
      </trkpt>
      <trkpt lat="45.36788" lon="14.36586">
        <ele>307</ele>
        <time>2016-07-16T14:57:58Z</time>
      </trkpt>
      <trkpt lat="45.36783" lon="14.36596">
        <ele>306</ele>
        <time>2016-07-16T14:59:58Z</time>
      </trkpt>
      <trkpt lat="45.36781" lon="14.36602">
        <ele>306</ele>
        <time>2016-07-16T15:01:58Z</time>
      </trkpt>
      <trkpt lat="45.3678" lon="14.36605">
        <ele>306</ele>
        <time>2016-07-16T15:03:58Z</time>
      </trkpt>
      <trkpt lat="45.3678" lon="14.36609">
        <ele>306</ele>
        <time>2016-07-16T15:05:58Z</time>
      </trkpt>
      <trkpt lat="45.36779" lon="14.36613">
        <ele>306</ele>
        <time>2016-07-16T15:07:58Z</time>
      </trkpt>
      <trkpt lat="45.36779" lon="14.36615">
        <ele>306</ele>
        <time>2016-07-16T15:09:58Z</time>
      </trkpt>
      <trkpt lat="45.36778" lon="14.36618">
        <ele>306</ele>
        <time>2016-07-16T15:11:58Z</time>
      </trkpt>
      <trkpt lat="45.36777" lon="14.36621">
        <ele>306</ele>
        <time>2016-07-16T15:13:58Z</time>
      </trkpt>
      <trkpt lat="45.36775" lon="14.36624">
        <ele>305</ele>
        <time>2016-07-16T15:15:58Z</time>
      </trkpt>
      <trkpt lat="45.36772" lon="14.3663">
        <ele>305</ele>
        <time>2016-07-16T15:17:58Z</time>
      </trkpt>
      <trkpt lat="45.36769" lon="14.36637">
        <ele>305</ele>
        <time>2016-07-16T15:19:58Z</time>
      </trkpt>
      <trkpt lat="45.36768" lon="14.3664">
        <ele>305</ele>
        <time>2016-07-16T15:21:58Z</time>
      </trkpt>
      <trkpt lat="45.36766" lon="14.36645">
        <ele>305</ele>
        <time>2016-07-16T15:23:58Z</time>
      </trkpt>
      <trkpt lat="45.36763" lon="14.36655">
        <ele>304</ele>
        <time>2016-07-16T15:25:58Z</time>
      </trkpt>
      <trkpt lat="45.36762" lon="14.3666">
        <ele>304</ele>
        <time>2016-07-16T15:27:58Z</time>
      </trkpt>
      <trkpt lat="45.36761" lon="14.36667">
        <ele>304</ele>
        <time>2016-07-16T15:29:58Z</time>
      </trkpt>
      <trkpt lat="45.3676" lon="14.36675">
        <ele>303</ele>
        <time>2016-07-16T15:31:58Z</time>
      </trkpt>
      <trkpt lat="45.3676" lon="14.36682">
        <ele>303</ele>
        <time>2016-07-16T15:33:58Z</time>
      </trkpt>
      <trkpt lat="45.36762" lon="14.36697">
        <ele>302</ele>
        <time>2016-07-16T15:35:58Z</time>
      </trkpt>
      <trkpt lat="45.36765" lon="14.36716">
        <ele>302</ele>
        <time>2016-07-16T15:37:58Z</time>
      </trkpt>
      <trkpt lat="45.36769" lon="14.36736">
        <ele>301</ele>
        <time>2016-07-16T15:39:58Z</time>
      </trkpt>
      <trkpt lat="45.3677" lon="14.36747">
        <ele>300</ele>
        <time>2016-07-16T15:41:58Z</time>
      </trkpt>
      <trkpt lat="45.3677" lon="14.36756">
        <ele>300</ele>
        <time>2016-07-16T15:43:58Z</time>
      </trkpt>
      <trkpt lat="45.36769" lon="14.36767">
        <ele>300</ele>
        <time>2016-07-16T15:45:58Z</time>
      </trkpt>
      <trkpt lat="45.36767" lon="14.36778">
        <ele>300</ele>
        <time>2016-07-16T15:47:58Z</time>
      </trkpt>
      <trkpt lat="45.36765" lon="14.36787">
        <ele>299</ele>
        <time>2016-07-16T15:49:58Z</time>
      </trkpt>
      <trkpt lat="45.36761" lon="14.36799">
        <ele>299</ele>
        <time>2016-07-16T15:51:58Z</time>
      </trkpt>
      <trkpt lat="45.36756" lon="14.36812">
        <ele>299</ele>
        <time>2016-07-16T15:53:58Z</time>
      </trkpt>
      <trkpt lat="45.36752" lon="14.36825">
        <ele>299</ele>
        <time>2016-07-16T15:55:58Z</time>
      </trkpt>
      <trkpt lat="45.3675" lon="14.36835">
        <ele>299</ele>
        <time>2016-07-16T15:57:58Z</time>
      </trkpt>
      <trkpt lat="45.36748" lon="14.36851">
        <ele>299</ele>
        <time>2016-07-16T15:59:58Z</time>
      </trkpt>
      <trkpt lat="45.36747" lon="14.36914">
        <ele>297</ele>
        <time>2016-07-16T16:01:58Z</time>
      </trkpt>
      <trkpt lat="45.36746" lon="14.36932">
        <ele>297</ele>
        <time>2016-07-16T16:03:58Z</time>
      </trkpt>
      <trkpt lat="45.36743" lon="14.36955">
        <ele>296</ele>
        <time>2016-07-16T16:05:58Z</time>
      </trkpt>
      <trkpt lat="45.36742" lon="14.36975">
        <ele>296</ele>
        <time>2016-07-16T16:07:58Z</time>
      </trkpt>
      <trkpt lat="45.36741" lon="14.36989">
        <ele>295</ele>
        <time>2016-07-16T16:09:58Z</time>
      </trkpt>
      <trkpt lat="45.36741" lon="14.37">
        <ele>295</ele>
        <time>2016-07-16T16:11:58Z</time>
      </trkpt>
      <trkpt lat="45.36741" lon="14.37005">
        <ele>295</ele>
        <time>2016-07-16T16:13:58Z</time>
      </trkpt>
      <trkpt lat="45.3674" lon="14.37011">
        <ele>294</ele>
        <time>2016-07-16T16:15:58Z</time>
      </trkpt>
      <trkpt lat="45.36739" lon="14.37016">
        <ele>294</ele>
        <time>2016-07-16T16:17:58Z</time>
      </trkpt>
      <trkpt lat="45.36738" lon="14.37019">
        <ele>293</ele>
        <time>2016-07-16T16:19:58Z</time>
      </trkpt>
      <trkpt lat="45.36737" lon="14.37021">
        <ele>293</ele>
        <time>2016-07-16T16:21:58Z</time>
      </trkpt>
      <trkpt lat="45.36731" lon="14.37033">
        <ele>292</ele>
        <time>2016-07-16T16:23:58Z</time>
      </trkpt>
      <trkpt lat="45.36722" lon="14.37048">
        <ele>291</ele>
        <time>2016-07-16T16:25:58Z</time>
      </trkpt>
      <trkpt lat="45.36712" lon="14.37064">
        <ele>290</ele>
        <time>2016-07-16T16:27:58Z</time>
      </trkpt>
      <trkpt lat="45.36702" lon="14.37079">
        <ele>289</ele>
        <time>2016-07-16T16:29:58Z</time>
      </trkpt>
      <trkpt lat="45.36684" lon="14.37106">
        <ele>288</ele>
        <time>2016-07-16T16:31:58Z</time>
      </trkpt>
      <trkpt lat="45.36665" lon="14.37135">
        <ele>285</ele>
        <time>2016-07-16T16:33:58Z</time>
      </trkpt>
      <trkpt lat="45.36657" lon="14.37148">
        <ele>285</ele>
        <time>2016-07-16T16:35:58Z</time>
      </trkpt>
      <trkpt lat="45.3664" lon="14.37173">
        <ele>285</ele>
        <time>2016-07-16T16:37:58Z</time>
      </trkpt>
      <trkpt lat="45.36626" lon="14.37204">
        <ele>286</ele>
        <time>2016-07-16T16:39:58Z</time>
      </trkpt>
      <trkpt lat="45.36623" lon="14.3721">
        <ele>287</ele>
        <time>2016-07-16T16:41:58Z</time>
      </trkpt>
      <trkpt lat="45.36618" lon="14.37229">
        <ele>287</ele>
        <time>2016-07-16T16:43:58Z</time>
      </trkpt>
      <trkpt lat="45.36617" lon="14.37255">
        <ele>287</ele>
        <time>2016-07-16T16:45:58Z</time>
      </trkpt>
      <trkpt lat="45.36618" lon="14.37277">
        <ele>288</ele>
        <time>2016-07-16T16:47:58Z</time>
      </trkpt>
      <trkpt lat="45.3662" lon="14.37296">
        <ele>288</ele>
        <time>2016-07-16T16:49:58Z</time>
      </trkpt>
      <trkpt lat="45.36626" lon="14.37318">
        <ele>288</ele>
        <time>2016-07-16T16:51:58Z</time>
      </trkpt>
      <trkpt lat="45.36631" lon="14.37331">
        <ele>288</ele>
        <time>2016-07-16T16:53:58Z</time>
      </trkpt>
      <trkpt lat="45.36642" lon="14.37389">
        <ele>289</ele>
        <time>2016-07-16T16:55:58Z</time>
      </trkpt>
      <trkpt lat="45.36643" lon="14.37406">
        <ele>289</ele>
        <time>2016-07-16T16:57:58Z</time>
      </trkpt>
      <trkpt lat="45.36644" lon="14.37419">
        <ele>290</ele>
        <time>2016-07-16T16:59:58Z</time>
      </trkpt>
      <trkpt lat="45.36644" lon="14.37427">
        <ele>290</ele>
        <time>2016-07-16T17:01:58Z</time>
      </trkpt>
      <trkpt lat="45.36644" lon="14.37434">
        <ele>290</ele>
        <time>2016-07-16T17:03:58Z</time>
      </trkpt>
      <trkpt lat="45.36642" lon="14.3744">
        <ele>290</ele>
        <time>2016-07-16T17:05:58Z</time>
      </trkpt>
      <trkpt lat="45.3664" lon="14.37447">
        <ele>291</ele>
        <time>2016-07-16T17:07:58Z</time>
      </trkpt>
      <trkpt lat="45.36636" lon="14.37456">
        <ele>291</ele>
        <time>2016-07-16T17:09:58Z</time>
      </trkpt>
      <trkpt lat="45.36632" lon="14.37465">
        <ele>292</ele>
        <time>2016-07-16T17:11:58Z</time>
      </trkpt>
      <trkpt lat="45.36626" lon="14.37476">
        <ele>292</ele>
        <time>2016-07-16T17:13:58Z</time>
      </trkpt>
      <trkpt lat="45.36623" lon="14.37485">
        <ele>293</ele>
        <time>2016-07-16T17:15:58Z</time>
      </trkpt>
      <trkpt lat="45.36621" lon="14.37491">
        <ele>293</ele>
        <time>2016-07-16T17:17:58Z</time>
      </trkpt>
      <trkpt lat="45.3662" lon="14.37495">
        <ele>293</ele>
        <time>2016-07-16T17:19:58Z</time>
      </trkpt>
      <trkpt lat="45.3662" lon="14.37498">
        <ele>293</ele>
        <time>2016-07-16T17:21:58Z</time>
      </trkpt>
      <trkpt lat="45.3662" lon="14.37502">
        <ele>293</ele>
        <time>2016-07-16T17:23:58Z</time>
      </trkpt>
      <trkpt lat="45.36622" lon="14.37509">
        <ele>293</ele>
        <time>2016-07-16T17:25:58Z</time>
      </trkpt>
      <trkpt lat="45.36625" lon="14.37515">
        <ele>293</ele>
        <time>2016-07-16T17:27:58Z</time>
      </trkpt>
      <trkpt lat="45.36629" lon="14.37523">
        <ele>293</ele>
        <time>2016-07-16T17:29:58Z</time>
      </trkpt>
      <trkpt lat="45.36631" lon="14.3753">
        <ele>293</ele>
        <time>2016-07-16T17:31:58Z</time>
      </trkpt>
      <trkpt lat="45.36632" lon="14.37536">
        <ele>292</ele>
        <time>2016-07-16T17:33:58Z</time>
      </trkpt>
      <trkpt lat="45.36633" lon="14.37542">
        <ele>292</ele>
        <time>2016-07-16T17:35:58Z</time>
      </trkpt>
      <trkpt lat="45.36633" lon="14.37549">
        <ele>292</ele>
        <time>2016-07-16T17:37:58Z</time>
      </trkpt>
      <trkpt lat="45.36633" lon="14.37557">
        <ele>292</ele>
        <time>2016-07-16T17:39:58Z</time>
      </trkpt>
      <trkpt lat="45.36633" lon="14.37561">
        <ele>292</ele>
        <time>2016-07-16T17:41:58Z</time>
      </trkpt>
      <trkpt lat="45.36632" lon="14.37567">
        <ele>292</ele>
        <time>2016-07-16T17:43:58Z</time>
      </trkpt>
      <trkpt lat="45.36629" lon="14.37576">
        <ele>292</ele>
        <time>2016-07-16T17:45:58Z</time>
      </trkpt>
      <trkpt lat="45.36624" lon="14.37587">
        <ele>293</ele>
        <time>2016-07-16T17:47:58Z</time>
      </trkpt>
      <trkpt lat="45.36617" lon="14.37602">
        <ele>293</ele>
        <time>2016-07-16T17:49:58Z</time>
      </trkpt>
      <trkpt lat="45.36606" lon="14.37628">
        <ele>294</ele>
        <time>2016-07-16T17:51:58Z</time>
      </trkpt>
      <trkpt lat="45.366" lon="14.37642">
        <ele>294</ele>
        <time>2016-07-16T17:53:58Z</time>
      </trkpt>
      <trkpt lat="45.36593" lon="14.37658">
        <ele>294</ele>
        <time>2016-07-16T17:55:58Z</time>
      </trkpt>
      <trkpt lat="45.36589" lon="14.37665">
        <ele>294</ele>
        <time>2016-07-16T17:57:58Z</time>
      </trkpt>
      <trkpt lat="45.36583" lon="14.37677">
        <ele>294</ele>
        <time>2016-07-16T17:59:58Z</time>
      </trkpt>
      <trkpt lat="45.36574" lon="14.37689">
        <ele>294</ele>
        <time>2016-07-16T18:01:58Z</time>
      </trkpt>
      <trkpt lat="45.36568" lon="14.377">
        <ele>294</ele>
        <time>2016-07-16T18:03:58Z</time>
      </trkpt>
      <trkpt lat="45.36561" lon="14.37709">
        <ele>294</ele>
        <time>2016-07-16T18:05:58Z</time>
      </trkpt>
      <trkpt lat="45.36557" lon="14.37717">
        <ele>294</ele>
        <time>2016-07-16T18:07:58Z</time>
      </trkpt>
      <trkpt lat="45.36555" lon="14.37723">
        <ele>294</ele>
        <time>2016-07-16T18:09:58Z</time>
      </trkpt>
      <trkpt lat="45.36553" lon="14.37736">
        <ele>294</ele>
        <time>2016-07-16T18:11:58Z</time>
      </trkpt>
      <trkpt lat="45.36551" lon="14.3775">
        <ele>294</ele>
        <time>2016-07-16T18:13:58Z</time>
      </trkpt>
      <trkpt lat="45.36548" lon="14.37771">
        <ele>294</ele>
        <time>2016-07-16T18:15:58Z</time>
      </trkpt>
      <trkpt lat="45.36545" lon="14.37784">
        <ele>294</ele>
        <time>2016-07-16T18:17:58Z</time>
      </trkpt>
      <trkpt lat="45.36541" lon="14.37801">
        <ele>294</ele>
        <time>2016-07-16T18:19:58Z</time>
      </trkpt>
      <trkpt lat="45.36536" lon="14.37812">
        <ele>294</ele>
        <time>2016-07-16T18:21:58Z</time>
      </trkpt>
      <trkpt lat="45.36534" lon="14.37817">
        <ele>294</ele>
        <time>2016-07-16T18:23:58Z</time>
      </trkpt>
      <trkpt lat="45.36531" lon="14.37822">
        <ele>294</ele>
        <time>2016-07-16T18:25:58Z</time>
      </trkpt>
      <trkpt lat="45.36528" lon="14.37826">
        <ele>294</ele>
        <time>2016-07-16T18:27:58Z</time>
      </trkpt>
      <trkpt lat="45.36528" lon="14.37826">
        <ele>294</ele>
        <time>2016-07-16T18:29:58Z</time>
      </trkpt>
      <trkpt lat="45.36519" lon="14.37838">
        <ele>293</ele>
        <time>2016-07-16T18:31:58Z</time>
      </trkpt>
      <trkpt lat="45.36497" lon="14.37866">
        <ele>292</ele>
        <time>2016-07-16T18:33:58Z</time>
      </trkpt>
      <trkpt lat="45.36493" lon="14.37871">
        <ele>292</ele>
        <time>2016-07-16T18:35:58Z</time>
      </trkpt>
      <trkpt lat="45.36491" lon="14.37878">
        <ele>292</ele>
        <time>2016-07-16T18:37:58Z</time>
      </trkpt>
      <trkpt lat="45.36489" lon="14.37884">
        <ele>293</ele>
        <time>2016-07-16T18:39:58Z</time>
      </trkpt>
      <trkpt lat="45.36487" lon="14.3789">
        <ele>293</ele>
        <time>2016-07-16T18:41:58Z</time>
      </trkpt>
      <trkpt lat="45.36486" lon="14.37897">
        <ele>293</ele>
        <time>2016-07-16T18:43:58Z</time>
      </trkpt>
      <trkpt lat="45.36483" lon="14.3791">
        <ele>293</ele>
        <time>2016-07-16T18:45:58Z</time>
      </trkpt>
      <trkpt lat="45.3648" lon="14.37918">
        <ele>293</ele>
        <time>2016-07-16T18:47:58Z</time>
      </trkpt>
      <trkpt lat="45.36469" lon="14.37968">
        <ele>293</ele>
        <time>2016-07-16T18:49:58Z</time>
      </trkpt>
      <trkpt lat="45.36461" lon="14.38004">
        <ele>293</ele>
        <time>2016-07-16T18:51:58Z</time>
      </trkpt>
      <trkpt lat="45.36457" lon="14.3803">
        <ele>293</ele>
        <time>2016-07-16T18:53:58Z</time>
      </trkpt>
      <trkpt lat="45.36456" lon="14.38044">
        <ele>293</ele>
        <time>2016-07-16T18:55:58Z</time>
      </trkpt>
      <trkpt lat="45.36455" lon="14.38046">
        <ele>293</ele>
        <time>2016-07-16T18:57:58Z</time>
      </trkpt>
      <trkpt lat="45.36455" lon="14.38051">
        <ele>293</ele>
        <time>2016-07-16T18:59:58Z</time>
      </trkpt>
      <trkpt lat="45.36455" lon="14.38051">
        <ele>293</ele>
        <time>2016-07-16T19:01:58Z</time>
      </trkpt>
      <trkpt lat="45.36444" lon="14.38061">
        <ele>292</ele>
        <time>2016-07-16T19:03:58Z</time>
      </trkpt>
      <trkpt lat="45.36427" lon="14.38075">
        <ele>291</ele>
        <time>2016-07-16T19:05:58Z</time>
      </trkpt>
      <trkpt lat="45.36411" lon="14.38086">
        <ele>290</ele>
        <time>2016-07-16T19:07:58Z</time>
      </trkpt>
      <trkpt lat="45.36405" lon="14.3809">
        <ele>289</ele>
        <time>2016-07-16T19:09:58Z</time>
      </trkpt>
      <trkpt lat="45.36398" lon="14.38097">
        <ele>289</ele>
        <time>2016-07-16T19:11:58Z</time>
      </trkpt>
      <trkpt lat="45.36394" lon="14.38103">
        <ele>289</ele>
        <time>2016-07-16T19:13:58Z</time>
      </trkpt>
      <trkpt lat="45.36389" lon="14.38108">
        <ele>289</ele>
        <time>2016-07-16T19:15:58Z</time>
      </trkpt>
      <trkpt lat="45.36379" lon="14.38128">
        <ele>289</ele>
        <time>2016-07-16T19:17:58Z</time>
      </trkpt>
      <trkpt lat="45.36378" lon="14.3813">
        <ele>289</ele>
        <time>2016-07-16T19:19:58Z</time>
      </trkpt>
      <trkpt lat="45.36364" lon="14.38162">
        <ele>290</ele>
        <time>2016-07-16T19:21:58Z</time>
      </trkpt>
      <trkpt lat="45.36356" lon="14.38184">
        <ele>290</ele>
        <time>2016-07-16T19:23:58Z</time>
      </trkpt>
      <trkpt lat="45.3635" lon="14.38194">
        <ele>289</ele>
        <time>2016-07-16T19:25:58Z</time>
      </trkpt>
      <trkpt lat="45.36328" lon="14.38234">
        <ele>286</ele>
        <time>2016-07-16T19:27:58Z</time>
      </trkpt>
      <trkpt lat="45.36281" lon="14.38326">
        <ele>279</ele>
        <time>2016-07-16T19:29:58Z</time>
      </trkpt>
      <trkpt lat="45.36254" lon="14.38374">
        <ele>278</ele>
        <time>2016-07-16T19:31:58Z</time>
      </trkpt>
      <trkpt lat="45.36254" lon="14.38374">
        <ele>278</ele>
        <time>2016-07-16T19:33:58Z</time>
      </trkpt>
      <trkpt lat="45.36218" lon="14.3844">
        <ele>281</ele>
        <time>2016-07-16T19:35:58Z</time>
      </trkpt>
      <trkpt lat="45.36202" lon="14.38467">
        <ele>282</ele>
        <time>2016-07-16T19:37:58Z</time>
      </trkpt>
      <trkpt lat="45.36182" lon="14.38498">
        <ele>282</ele>
        <time>2016-07-16T19:39:58Z</time>
      </trkpt>
      <trkpt lat="45.36164" lon="14.38528">
        <ele>284</ele>
        <time>2016-07-16T19:41:58Z</time>
      </trkpt>
      <trkpt lat="45.36154" lon="14.38544">
        <ele>285</ele>
        <time>2016-07-16T19:43:58Z</time>
      </trkpt>
      <trkpt lat="45.36122" lon="14.38581">
        <ele>286</ele>
        <time>2016-07-16T19:45:58Z</time>
      </trkpt>
      <trkpt lat="45.3612" lon="14.38583">
        <ele>286</ele>
        <time>2016-07-16T19:47:58Z</time>
      </trkpt>
      <trkpt lat="45.36118" lon="14.38585">
        <ele>286</ele>
        <time>2016-07-16T19:49:58Z</time>
      </trkpt>
      <trkpt lat="45.36116" lon="14.38588">
        <ele>287</ele>
        <time>2016-07-16T19:51:58Z</time>
      </trkpt>
      <trkpt lat="45.36114" lon="14.3859">
        <ele>287</ele>
        <time>2016-07-16T19:53:58Z</time>
      </trkpt>
      <trkpt lat="45.36112" lon="14.38592">
        <ele>287</ele>
        <time>2016-07-16T19:55:58Z</time>
      </trkpt>
      <trkpt lat="45.3611" lon="14.38594">
        <ele>287</ele>
        <time>2016-07-16T19:57:58Z</time>
      </trkpt>
      <trkpt lat="45.36108" lon="14.38596">
        <ele>287</ele>
        <time>2016-07-16T19:59:58Z</time>
      </trkpt>
      <trkpt lat="45.36106" lon="14.38599">
        <ele>287</ele>
        <time>2016-07-16T20:01:58Z</time>
      </trkpt>
      <trkpt lat="45.36104" lon="14.386">
        <ele>287</ele>
        <time>2016-07-16T20:03:58Z</time>
      </trkpt>
      <trkpt lat="45.36101" lon="14.38602">
        <ele>287</ele>
        <time>2016-07-16T20:05:58Z</time>
      </trkpt>
      <trkpt lat="45.36099" lon="14.38604">
        <ele>287</ele>
        <time>2016-07-16T20:07:58Z</time>
      </trkpt>
      <trkpt lat="45.36097" lon="14.38606">
        <ele>287</ele>
        <time>2016-07-16T20:09:58Z</time>
      </trkpt>
      <trkpt lat="45.36095" lon="14.38607">
        <ele>287</ele>
        <time>2016-07-16T20:11:58Z</time>
      </trkpt>
      <trkpt lat="45.36095" lon="14.38607">
        <ele>287</ele>
        <time>2016-07-16T20:13:58Z</time>
      </trkpt>
      <trkpt lat="45.36095" lon="14.38608">
        <ele>287</ele>
        <time>2016-07-16T20:15:58Z</time>
      </trkpt>
      <trkpt lat="45.36093" lon="14.38609">
        <ele>287</ele>
        <time>2016-07-16T20:17:58Z</time>
      </trkpt>
      <trkpt lat="45.36093" lon="14.38609">
        <ele>287</ele>
        <time>2016-07-16T20:19:58Z</time>
      </trkpt>
      <trkpt lat="45.36093" lon="14.3861">
        <ele>287</ele>
        <time>2016-07-16T20:21:58Z</time>
      </trkpt>
      <trkpt lat="45.36094" lon="14.38611">
        <ele>287</ele>
        <time>2016-07-16T20:23:58Z</time>
      </trkpt>
      <trkpt lat="45.36094" lon="14.38612">
        <ele>288</ele>
        <time>2016-07-16T20:25:58Z</time>
      </trkpt>
      <trkpt lat="45.36094" lon="14.38613">
        <ele>288</ele>
        <time>2016-07-16T20:27:58Z</time>
      </trkpt>
      <trkpt lat="45.36094" lon="14.38614">
        <ele>288</ele>
        <time>2016-07-16T20:29:58Z</time>
      </trkpt>
      <trkpt lat="45.36094" lon="14.38615">
        <ele>288</ele>
        <time>2016-07-16T20:31:58Z</time>
      </trkpt>
      <trkpt lat="45.36094" lon="14.38616">
        <ele>288</ele>
        <time>2016-07-16T20:33:58Z</time>
      </trkpt>
      <trkpt lat="45.36094" lon="14.38617">
        <ele>288</ele>
        <time>2016-07-16T20:35:58Z</time>
      </trkpt>
      <trkpt lat="45.36094" lon="14.38618">
        <ele>288</ele>
        <time>2016-07-16T20:37:58Z</time>
      </trkpt>
      <trkpt lat="45.36094" lon="14.38619">
        <ele>288</ele>
        <time>2016-07-16T20:39:58Z</time>
      </trkpt>
      <trkpt lat="45.36085" lon="14.38648">
        <ele>290</ele>
        <time>2016-07-16T20:41:58Z</time>
      </trkpt>
      <trkpt lat="45.36057" lon="14.38722">
        <ele>293</ele>
        <time>2016-07-16T20:43:58Z</time>
      </trkpt>
      <trkpt lat="45.36052" lon="14.38733">
        <ele>293</ele>
        <time>2016-07-16T20:45:58Z</time>
      </trkpt>
      <trkpt lat="45.36032" lon="14.38784">
        <ele>292</ele>
        <time>2016-07-16T20:47:58Z</time>
      </trkpt>
      <trkpt lat="45.36031" lon="14.38787">
        <ele>292</ele>
        <time>2016-07-16T20:49:58Z</time>
      </trkpt>
      <trkpt lat="45.36029" lon="14.38792">
        <ele>292</ele>
        <time>2016-07-16T20:51:58Z</time>
      </trkpt>
      <trkpt lat="45.36028" lon="14.38796">
        <ele>292</ele>
        <time>2016-07-16T20:53:58Z</time>
      </trkpt>
      <trkpt lat="45.36026" lon="14.38803">
        <ele>291</ele>
        <time>2016-07-16T20:55:58Z</time>
      </trkpt>
      <trkpt lat="45.36025" lon="14.38807">
        <ele>291</ele>
        <time>2016-07-16T20:57:58Z</time>
      </trkpt>
      <trkpt lat="45.36025" lon="14.38811">
        <ele>291</ele>
        <time>2016-07-16T20:59:58Z</time>
      </trkpt>
      <trkpt lat="45.36025" lon="14.38815">
        <ele>291</ele>
        <time>2016-07-16T21:01:58Z</time>
      </trkpt>
      <trkpt lat="45.36025" lon="14.38822">
        <ele>291</ele>
        <time>2016-07-16T21:03:58Z</time>
      </trkpt>
      <trkpt lat="45.36026" lon="14.38827">
        <ele>292</ele>
        <time>2016-07-16T21:05:58Z</time>
      </trkpt>
      <trkpt lat="45.36027" lon="14.38832">
        <ele>292</ele>
        <time>2016-07-16T21:07:58Z</time>
      </trkpt>
      <trkpt lat="45.36029" lon="14.3884">
        <ele>292</ele>
        <time>2016-07-16T21:09:58Z</time>
      </trkpt>
      <trkpt lat="45.36031" lon="14.38846">
        <ele>292</ele>
        <time>2016-07-16T21:11:58Z</time>
      </trkpt>
      <trkpt lat="45.36034" lon="14.38854">
        <ele>292</ele>
        <time>2016-07-16T21:13:58Z</time>
      </trkpt>
      <trkpt lat="45.36038" lon="14.38863">
        <ele>293</ele>
        <time>2016-07-16T21:15:58Z</time>
      </trkpt>
      <trkpt lat="45.3604" lon="14.38869">
        <ele>293</ele>
        <time>2016-07-16T21:17:58Z</time>
      </trkpt>
      <trkpt lat="45.36043" lon="14.38877">
        <ele>293</ele>
        <time>2016-07-16T21:19:58Z</time>
      </trkpt>
      <trkpt lat="45.36043" lon="14.38877">
        <ele>293</ele>
        <time>2016-07-16T21:21:58Z</time>
      </trkpt>
      <trkpt lat="45.36067" lon="14.38953">
        <ele>293</ele>
        <time>2016-07-16T21:23:58Z</time>
      </trkpt>
      <trkpt lat="45.36085" lon="14.39012">
        <ele>292</ele>
        <time>2016-07-16T21:25:58Z</time>
      </trkpt>
      <trkpt lat="45.36088" lon="14.39019">
        <ele>293</ele>
        <time>2016-07-16T21:27:58Z</time>
      </trkpt>
      <trkpt lat="45.36089" lon="14.39024">
        <ele>293</ele>
        <time>2016-07-16T21:29:58Z</time>
      </trkpt>
      <trkpt lat="45.36091" lon="14.39036">
        <ele>293</ele>
        <time>2016-07-16T21:31:58Z</time>
      </trkpt>
      <trkpt lat="45.36092" lon="14.3905">
        <ele>294</ele>
        <time>2016-07-16T21:33:58Z</time>
      </trkpt>
      <trkpt lat="45.36094" lon="14.39069">
        <ele>294</ele>
        <time>2016-07-16T21:35:58Z</time>
      </trkpt>
      <trkpt lat="45.361" lon="14.39078">
        <ele>295</ele>
        <time>2016-07-16T21:37:58Z</time>
      </trkpt>
      <trkpt lat="45.36103" lon="14.39082">
        <ele>295</ele>
        <time>2016-07-16T21:39:58Z</time>
      </trkpt>
      <trkpt lat="45.36107" lon="14.39088">
        <ele>296</ele>
        <time>2016-07-16T21:41:58Z</time>
      </trkpt>
      <trkpt lat="45.36112" lon="14.39095">
        <ele>296</ele>
        <time>2016-07-16T21:43:58Z</time>
      </trkpt>
      <trkpt lat="45.36117" lon="14.39102">
        <ele>297</ele>
        <time>2016-07-16T21:45:58Z</time>
      </trkpt>
      <trkpt lat="45.36123" lon="14.3911">
        <ele>298</ele>
        <time>2016-07-16T21:47:58Z</time>
      </trkpt>
      <trkpt lat="45.36129" lon="14.3912">
        <ele>299</ele>
        <time>2016-07-16T21:49:58Z</time>
      </trkpt>
      <trkpt lat="45.36135" lon="14.39135">
        <ele>300</ele>
        <time>2016-07-16T21:51:58Z</time>
      </trkpt>
      <trkpt lat="45.36142" lon="14.39155">
        <ele>301</ele>
        <time>2016-07-16T21:53:58Z</time>
      </trkpt>
      <trkpt lat="45.36142" lon="14.39155">
        <ele>301</ele>
        <time>2016-07-16T21:55:58Z</time>
      </trkpt>
      <trkpt lat="45.36145" lon="14.39162">
        <ele>302</ele>
        <time>2016-07-16T21:57:58Z</time>
      </trkpt>
      <trkpt lat="45.3615" lon="14.39178">
        <ele>303</ele>
        <time>2016-07-16T21:59:58Z</time>
      </trkpt>
      <trkpt lat="45.36155" lon="14.39188">
        <ele>304</ele>
        <time>2016-07-16T22:01:58Z</time>
      </trkpt>
      <trkpt lat="45.36159" lon="14.39196">
        <ele>304</ele>
        <time>2016-07-16T22:03:58Z</time>
      </trkpt>
      <trkpt lat="45.36164" lon="14.39203">
        <ele>305</ele>
        <time>2016-07-16T22:05:58Z</time>
      </trkpt>
      <trkpt lat="45.36172" lon="14.3921">
        <ele>305</ele>
        <time>2016-07-16T22:07:58Z</time>
      </trkpt>
      <trkpt lat="45.36182" lon="14.39217">
        <ele>306</ele>
        <time>2016-07-16T22:09:58Z</time>
      </trkpt>
      <trkpt lat="45.36192" lon="14.39223">
        <ele>306</ele>
        <time>2016-07-16T22:11:58Z</time>
      </trkpt>
      <trkpt lat="45.36204" lon="14.39229">
        <ele>306</ele>
        <time>2016-07-16T22:13:58Z</time>
      </trkpt>
      <trkpt lat="45.36225" lon="14.39239">
        <ele>307</ele>
        <time>2016-07-16T22:15:58Z</time>
      </trkpt>
      <trkpt lat="45.36245" lon="14.3925">
        <ele>307</ele>
        <time>2016-07-16T22:17:58Z</time>
      </trkpt>
      <trkpt lat="45.36253" lon="14.39252">
        <ele>307</ele>
        <time>2016-07-16T22:19:58Z</time>
      </trkpt>
      <trkpt lat="45.36258" lon="14.39256">
        <ele>308</ele>
        <time>2016-07-16T22:21:58Z</time>
      </trkpt>
      <trkpt lat="45.36263" lon="14.39259">
        <ele>308</ele>
        <time>2016-07-16T22:23:58Z</time>
      </trkpt>
      <trkpt lat="45.36266" lon="14.39262">
        <ele>308</ele>
        <time>2016-07-16T22:25:58Z</time>
      </trkpt>
      <trkpt lat="45.36269" lon="14.39267">
        <ele>308</ele>
        <time>2016-07-16T22:27:58Z</time>
      </trkpt>
      <trkpt lat="45.36277" lon="14.39276">
        <ele>309</ele>
        <time>2016-07-16T22:29:58Z</time>
      </trkpt>
      <trkpt lat="45.36277" lon="14.39276">
        <ele>309</ele>
        <time>2016-07-16T22:31:58Z</time>
      </trkpt>
      <trkpt lat="45.3624" lon="14.39302">
        <ele>309</ele>
        <time>2016-07-16T22:33:58Z</time>
      </trkpt>
      <trkpt lat="45.36208" lon="14.39322">
        <ele>308</ele>
        <time>2016-07-16T22:35:58Z</time>
      </trkpt>
      <trkpt lat="45.36177" lon="14.39342">
        <ele>306</ele>
        <time>2016-07-16T22:37:58Z</time>
      </trkpt>
      <trkpt lat="45.36131" lon="14.39379">
        <ele>301</ele>
        <time>2016-07-16T22:39:58Z</time>
      </trkpt>
      <trkpt lat="45.36124" lon="14.39384">
        <ele>300</ele>
        <time>2016-07-16T22:41:58Z</time>
      </trkpt>
      <trkpt lat="45.36124" lon="14.39384">
        <ele>300</ele>
        <time>2016-07-16T22:43:58Z</time>
      </trkpt>
      <trkpt lat="45.36115" lon="14.39393">
        <ele>299</ele>
        <time>2016-07-16T22:45:58Z</time>
      </trkpt>
      <trkpt lat="45.36082" lon="14.39426">
        <ele>296</ele>
        <time>2016-07-16T22:47:58Z</time>
      </trkpt>
      <trkpt lat="45.36065" lon="14.39447">
        <ele>293</ele>
        <time>2016-07-16T22:49:58Z</time>
      </trkpt>
      <trkpt lat="45.36055" lon="14.39463">
        <ele>293</ele>
        <time>2016-07-16T22:51:58Z</time>
      </trkpt>
      <trkpt lat="45.36053" lon="14.39469">
        <ele>292</ele>
        <time>2016-07-16T22:53:58Z</time>
      </trkpt>
      <trkpt lat="45.36051" lon="14.39478">
        <ele>293</ele>
        <time>2016-07-16T22:55:58Z</time>
      </trkpt>
      <trkpt lat="45.36048" lon="14.39488">
        <ele>293</ele>
        <time>2016-07-16T22:57:58Z</time>
      </trkpt>
      <trkpt lat="45.36042" lon="14.39502">
        <ele>293</ele>
        <time>2016-07-16T22:59:58Z</time>
      </trkpt>
      <trkpt lat="45.36037" lon="14.39512">
        <ele>293</ele>
        <time>2016-07-16T23:01:58Z</time>
      </trkpt>
      <trkpt lat="45.36034" lon="14.39519">
        <ele>292</ele>
        <time>2016-07-16T23:03:58Z</time>
      </trkpt>
      <trkpt lat="45.36031" lon="14.39524">
        <ele>292</ele>
        <time>2016-07-16T23:05:58Z</time>
      </trkpt>
      <trkpt lat="45.36028" lon="14.39529">
        <ele>292</ele>
        <time>2016-07-16T23:07:58Z</time>
      </trkpt>
      <trkpt lat="45.3602" lon="14.39539">
        <ele>292</ele>
        <time>2016-07-16T23:09:58Z</time>
      </trkpt>
      <trkpt lat="45.36001" lon="14.39565">
        <ele>292</ele>
        <time>2016-07-16T23:11:58Z</time>
      </trkpt>
      <trkpt lat="45.35992" lon="14.39576">
        <ele>291</ele>
        <time>2016-07-16T23:13:58Z</time>
      </trkpt>
      <trkpt lat="45.35984" lon="14.39587">
        <ele>290</ele>
        <time>2016-07-16T23:15:58Z</time>
      </trkpt>
      <trkpt lat="45.35976" lon="14.396">
        <ele>290</ele>
        <time>2016-07-16T23:17:58Z</time>
      </trkpt>
      <trkpt lat="45.3597" lon="14.3961">
        <ele>289</ele>
        <time>2016-07-16T23:19:58Z</time>
      </trkpt>
      <trkpt lat="45.35966" lon="14.39618">
        <ele>289</ele>
        <time>2016-07-16T23:21:58Z</time>
      </trkpt>
      <trkpt lat="45.35962" lon="14.39631">
        <ele>289</ele>
        <time>2016-07-16T23:23:58Z</time>
      </trkpt>
      <trkpt lat="45.3596" lon="14.39634">
        <ele>289</ele>
        <time>2016-07-16T23:25:58Z</time>
      </trkpt>
      <trkpt lat="45.35952" lon="14.39655">
        <ele>288</ele>
        <time>2016-07-16T23:27:58Z</time>
      </trkpt>
      <trkpt lat="45.35947" lon="14.39667">
        <ele>288</ele>
        <time>2016-07-16T23:29:58Z</time>
      </trkpt>
      <trkpt lat="45.35946" lon="14.39668">
        <ele>288</ele>
        <time>2016-07-16T23:31:58Z</time>
      </trkpt>
      <trkpt lat="45.35941" lon="14.3968">
        <ele>288</ele>
        <time>2016-07-16T23:33:58Z</time>
      </trkpt>
      <trkpt lat="45.35937" lon="14.3969">
        <ele>288</ele>
        <time>2016-07-16T23:35:58Z</time>
      </trkpt>
      <trkpt lat="45.35933" lon="14.397">
        <ele>288</ele>
        <time>2016-07-16T23:37:58Z</time>
      </trkpt>
      <trkpt lat="45.35926" lon="14.39715">
        <ele>287</ele>
        <time>2016-07-16T23:39:58Z</time>
      </trkpt>
      <trkpt lat="45.35923" lon="14.39721">
        <ele>287</ele>
        <time>2016-07-16T23:41:58Z</time>
      </trkpt>
      <trkpt lat="45.35919" lon="14.39729">
        <ele>287</ele>
        <time>2016-07-16T23:43:58Z</time>
      </trkpt>
      <trkpt lat="45.35917" lon="14.39734">
        <ele>287</ele>
        <time>2016-07-16T23:45:58Z</time>
      </trkpt>
      <trkpt lat="45.3591" lon="14.3975">
        <ele>286</ele>
        <time>2016-07-16T23:47:58Z</time>
      </trkpt>
      <trkpt lat="45.35908" lon="14.39754">
        <ele>286</ele>
        <time>2016-07-16T23:49:58Z</time>
      </trkpt>
      <trkpt lat="45.35897" lon="14.39772">
        <ele>285</ele>
        <time>2016-07-16T23:51:58Z</time>
      </trkpt>
      <trkpt lat="45.35877" lon="14.3981">
        <ele>283</ele>
        <time>2016-07-16T23:53:58Z</time>
      </trkpt>
      <trkpt lat="45.3587" lon="14.39826">
        <ele>283</ele>
        <time>2016-07-16T23:55:58Z</time>
      </trkpt>
      <trkpt lat="45.35857" lon="14.39852">
        <ele>283</ele>
        <time>2016-07-16T23:57:58Z</time>
      </trkpt>
      <trkpt lat="45.35815" lon="14.39903">
        <ele>281</ele>
        <time>2016-07-16T23:59:58Z</time>
      </trkpt>
      <trkpt lat="45.35805" lon="14.39913">
        <ele>281</ele>
        <time>2016-07-17T00:01:58Z</time>
      </trkpt>
      <trkpt lat="45.35781" lon="14.39936">
        <ele>279</ele>
        <time>2016-07-17T00:03:58Z</time>
      </trkpt>
      <trkpt lat="45.35735" lon="14.39978">
        <ele>274</ele>
        <time>2016-07-17T00:05:58Z</time>
      </trkpt>
      <trkpt lat="45.35706" lon="14.40007">
        <ele>271</ele>
        <time>2016-07-17T00:07:58Z</time>
      </trkpt>
      <trkpt lat="45.35668" lon="14.40054">
        <ele>268</ele>
        <time>2016-07-17T00:09:58Z</time>
      </trkpt>
      <trkpt lat="45.35648" lon="14.40075">
        <ele>266</ele>
        <time>2016-07-17T00:11:58Z</time>
      </trkpt>
      <trkpt lat="45.35648" lon="14.40075">
        <ele>266</ele>
        <time>2016-07-17T00:13:58Z</time>
      </trkpt>
      <trkpt lat="45.35608" lon="14.40124">
        <ele>261</ele>
        <time>2016-07-17T00:15:58Z</time>
      </trkpt>
      <trkpt lat="45.35595" lon="14.40139">
        <ele>260</ele>
        <time>2016-07-17T00:17:58Z</time>
      </trkpt>
      <trkpt lat="45.35549" lon="14.40199">
        <ele>255</ele>
        <time>2016-07-17T00:19:58Z</time>
      </trkpt>
      <trkpt lat="45.3549" lon="14.40268">
        <ele>250</ele>
        <time>2016-07-17T00:21:58Z</time>
      </trkpt>
      <trkpt lat="45.3546" lon="14.40298">
        <ele>248</ele>
        <time>2016-07-17T00:23:58Z</time>
      </trkpt>
      <trkpt lat="45.35434" lon="14.40335">
        <ele>247</ele>
        <time>2016-07-17T00:25:58Z</time>
      </trkpt>
      <trkpt lat="45.3542" lon="14.40353">
        <ele>247</ele>
        <time>2016-07-17T00:27:58Z</time>
      </trkpt>
      <trkpt lat="45.35415" lon="14.40359">
        <ele>246</ele>
        <time>2016-07-17T00:29:58Z</time>
      </trkpt>
      <trkpt lat="45.3538" lon="14.40402">
        <ele>244</ele>
        <time>2016-07-17T00:31:58Z</time>
      </trkpt>
      <trkpt lat="45.35319" lon="14.40456">
        <ele>241</ele>
        <time>2016-07-17T00:33:58Z</time>
      </trkpt>
      <trkpt lat="45.35289" lon="14.40486">
        <ele>240</ele>
        <time>2016-07-17T00:35:58Z</time>
      </trkpt>
      <trkpt lat="45.35276" lon="14.40495">
        <ele>239</ele>
        <time>2016-07-17T00:37:58Z</time>
      </trkpt>
      <trkpt lat="45.35254" lon="14.40505">
        <ele>237</ele>
        <time>2016-07-17T00:39:58Z</time>
      </trkpt>
      <trkpt lat="45.35244" lon="14.4051">
        <ele>236</ele>
        <time>2016-07-17T00:41:58Z</time>
      </trkpt>
      <trkpt lat="45.35221" lon="14.40526">
        <ele>234</ele>
        <time>2016-07-17T00:43:58Z</time>
      </trkpt>
      <trkpt lat="45.3519" lon="14.40558">
        <ele>232</ele>
        <time>2016-07-17T00:45:58Z</time>
      </trkpt>
      <trkpt lat="45.35185" lon="14.40565">
        <ele>232</ele>
        <time>2016-07-17T00:47:58Z</time>
      </trkpt>
      <trkpt lat="45.35161" lon="14.40602">
        <ele>232</ele>
        <time>2016-07-17T00:49:58Z</time>
      </trkpt>
      <trkpt lat="45.35155" lon="14.4061">
        <ele>231</ele>
        <time>2016-07-17T00:51:58Z</time>
      </trkpt>
      <trkpt lat="45.35135" lon="14.40638">
        <ele>230</ele>
        <time>2016-07-17T00:53:58Z</time>
      </trkpt>
      <trkpt lat="45.35114" lon="14.40667">
        <ele>229</ele>
        <time>2016-07-17T00:55:58Z</time>
      </trkpt>
      <trkpt lat="45.35105" lon="14.40679">
        <ele>228</ele>
        <time>2016-07-17T00:57:58Z</time>
      </trkpt>
      <trkpt lat="45.35102" lon="14.40684">
        <ele>228</ele>
        <time>2016-07-17T00:59:58Z</time>
      </trkpt>
      <trkpt lat="45.35098" lon="14.40693">
        <ele>227</ele>
        <time>2016-07-17T01:01:58Z</time>
      </trkpt>
      <trkpt lat="45.35075" lon="14.40745">
        <ele>224</ele>
        <time>2016-07-17T01:03:58Z</time>
      </trkpt>
      <trkpt lat="45.35034" lon="14.40848">
        <ele>219</ele>
        <time>2016-07-17T01:05:58Z</time>
      </trkpt>
      <trkpt lat="45.35009" lon="14.40908">
        <ele>218</ele>
        <time>2016-07-17T01:07:58Z</time>
      </trkpt>
      <trkpt lat="45.34999" lon="14.40933">
        <ele>217</ele>
        <time>2016-07-17T01:09:58Z</time>
      </trkpt>
      <trkpt lat="45.34981" lon="14.40971">
        <ele>215</ele>
        <time>2016-07-17T01:11:58Z</time>
      </trkpt>
      <trkpt lat="45.34957" lon="14.41029">
        <ele>212</ele>
        <time>2016-07-17T01:13:58Z</time>
      </trkpt>
      <trkpt lat="45.34947" lon="14.41043">
        <ele>211</ele>
        <time>2016-07-17T01:15:58Z</time>
      </trkpt>
      <trkpt lat="45.34943" lon="14.41049">
        <ele>210</ele>
        <time>2016-07-17T01:17:58Z</time>
      </trkpt>
      <trkpt lat="45.34926" lon="14.41064">
        <ele>208</ele>
        <time>2016-07-17T01:19:58Z</time>
      </trkpt>
      <trkpt lat="45.34926" lon="14.41065">
        <ele>208</ele>
        <time>2016-07-17T01:21:58Z</time>
      </trkpt>
      <trkpt lat="45.34913" lon="14.41075">
        <ele>206</ele>
        <time>2016-07-17T01:23:58Z</time>
      </trkpt>
      <trkpt lat="45.34901" lon="14.4108">
        <ele>204</ele>
        <time>2016-07-17T01:25:58Z</time>
      </trkpt>
      <trkpt lat="45.34895" lon="14.41083">
        <ele>204</ele>
        <time>2016-07-17T01:27:58Z</time>
      </trkpt>
      <trkpt lat="45.34883" lon="14.41087">
        <ele>202</ele>
        <time>2016-07-17T01:29:58Z</time>
      </trkpt>
      <trkpt lat="45.3487" lon="14.4109">
        <ele>200</ele>
        <time>2016-07-17T01:31:58Z</time>
      </trkpt>
      <trkpt lat="45.34857" lon="14.41091">
        <ele>198</ele>
        <time>2016-07-17T01:33:58Z</time>
      </trkpt>
      <trkpt lat="45.34832" lon="14.41089">
        <ele>194</ele>
        <time>2016-07-17T01:35:58Z</time>
      </trkpt>
      <trkpt lat="45.34819" lon="14.41088">
        <ele>193</ele>
        <time>2016-07-17T01:37:58Z</time>
      </trkpt>
      <trkpt lat="45.34795" lon="14.41084">
        <ele>189</ele>
        <time>2016-07-17T01:39:58Z</time>
      </trkpt>
      <trkpt lat="45.34774" lon="14.4108">
        <ele>187</ele>
        <time>2016-07-17T01:41:58Z</time>
      </trkpt>
      <trkpt lat="45.34772" lon="14.4108">
        <ele>186</ele>
        <time>2016-07-17T01:43:58Z</time>
      </trkpt>
      <trkpt lat="45.34739" lon="14.41072">
        <ele>182</ele>
        <time>2016-07-17T01:45:58Z</time>
      </trkpt>
      <trkpt lat="45.34725" lon="14.4107">
        <ele>180</ele>
        <time>2016-07-17T01:47:58Z</time>
      </trkpt>
      <trkpt lat="45.34683" lon="14.41061">
        <ele>175</ele>
        <time>2016-07-17T01:49:58Z</time>
      </trkpt>
      <trkpt lat="45.34677" lon="14.4106">
        <ele>175</ele>
        <time>2016-07-17T01:51:58Z</time>
      </trkpt>
      <trkpt lat="45.34659" lon="14.41057">
        <ele>172</ele>
        <time>2016-07-17T01:53:58Z</time>
      </trkpt>
      <trkpt lat="45.34659" lon="14.41057">
        <ele>172</ele>
        <time>2016-07-17T01:55:58Z</time>
      </trkpt>
      <trkpt lat="45.34649" lon="14.41061">
        <ele>171</ele>
        <time>2016-07-17T01:57:58Z</time>
      </trkpt>
      <trkpt lat="45.34644" lon="14.41062">
        <ele>170</ele>
        <time>2016-07-17T01:59:58Z</time>
      </trkpt>
      <trkpt lat="45.3463" lon="14.41069">
        <ele>168</ele>
        <time>2016-07-17T02:01:58Z</time>
      </trkpt>
      <trkpt lat="45.34584" lon="14.41107">
        <ele>162</ele>
        <time>2016-07-17T02:03:58Z</time>
      </trkpt>
      <trkpt lat="45.34551" lon="14.41133">
        <ele>157</ele>
        <time>2016-07-17T02:05:58Z</time>
      </trkpt>
      <trkpt lat="45.34518" lon="14.41169">
        <ele>153</ele>
        <time>2016-07-17T02:07:58Z</time>
      </trkpt>
      <trkpt lat="45.34506" lon="14.41182">
        <ele>152</ele>
        <time>2016-07-17T02:09:58Z</time>
      </trkpt>
      <trkpt lat="45.34495" lon="14.41194">
        <ele>152</ele>
        <time>2016-07-17T02:11:58Z</time>
      </trkpt>
      <trkpt lat="45.34454" lon="14.41245">
        <ele>149</ele>
        <time>2016-07-17T02:13:58Z</time>
      </trkpt>
      <trkpt lat="45.34434" lon="14.41269">
        <ele>148</ele>
        <time>2016-07-17T02:15:58Z</time>
      </trkpt>
      <trkpt lat="45.34429" lon="14.41274">
        <ele>148</ele>
        <time>2016-07-17T02:17:58Z</time>
      </trkpt>
      <trkpt lat="45.3441" lon="14.41291">
        <ele>146</ele>
        <time>2016-07-17T02:19:58Z</time>
      </trkpt>
      <trkpt lat="45.34368" lon="14.41328">
        <ele>141</ele>
        <time>2016-07-17T02:21:58Z</time>
      </trkpt>
      <trkpt lat="45.3435" lon="14.41339">
        <ele>138</ele>
        <time>2016-07-17T02:23:58Z</time>
      </trkpt>
      <trkpt lat="45.34336" lon="14.41347">
        <ele>136</ele>
        <time>2016-07-17T02:25:58Z</time>
      </trkpt>
      <trkpt lat="45.34324" lon="14.41355">
        <ele>134</ele>
        <time>2016-07-17T02:27:58Z</time>
      </trkpt>
      <trkpt lat="45.34253" lon="14.41395">
        <ele>123</ele>
        <time>2016-07-17T02:29:58Z</time>
      </trkpt>
      <trkpt lat="45.34245" lon="14.41399">
        <ele>122</ele>
        <time>2016-07-17T02:31:58Z</time>
      </trkpt>
      <trkpt lat="45.3424" lon="14.41402">
        <ele>122</ele>
        <time>2016-07-17T02:33:58Z</time>
      </trkpt>
      <trkpt lat="45.34226" lon="14.41411">
        <ele>121</ele>
        <time>2016-07-17T02:35:58Z</time>
      </trkpt>
      <trkpt lat="45.3422" lon="14.41417">
        <ele>121</ele>
        <time>2016-07-17T02:37:58Z</time>
      </trkpt>
      <trkpt lat="45.34209" lon="14.41432">
        <ele>121</ele>
        <time>2016-07-17T02:39:58Z</time>
      </trkpt>
      <trkpt lat="45.34194" lon="14.41455">
        <ele>120</ele>
        <time>2016-07-17T02:41:58Z</time>
      </trkpt>
      <trkpt lat="45.34182" lon="14.41472">
        <ele>119</ele>
        <time>2016-07-17T02:43:58Z</time>
      </trkpt>
      <trkpt lat="45.34182" lon="14.41472">
        <ele>119</ele>
        <time>2016-07-17T02:45:58Z</time>
      </trkpt>
      <trkpt lat="45.34169" lon="14.41489">
        <ele>117</ele>
        <time>2016-07-17T02:47:58Z</time>
      </trkpt>
      <trkpt lat="45.34167" lon="14.41489">
        <ele>117</ele>
        <time>2016-07-17T02:49:58Z</time>
      </trkpt>
      <trkpt lat="45.34165" lon="14.41489">
        <ele>117</ele>
        <time>2016-07-17T02:51:58Z</time>
      </trkpt>
      <trkpt lat="45.34164" lon="14.4149">
        <ele>116</ele>
        <time>2016-07-17T02:53:58Z</time>
      </trkpt>
      <trkpt lat="45.34162" lon="14.4149">
        <ele>116</ele>
        <time>2016-07-17T02:55:58Z</time>
      </trkpt>
      <trkpt lat="45.3416" lon="14.4149">
        <ele>116</ele>
        <time>2016-07-17T02:57:58Z</time>
      </trkpt>
      <trkpt lat="45.34159" lon="14.4149">
        <ele>115</ele>
        <time>2016-07-17T02:59:58Z</time>
      </trkpt>
      <trkpt lat="45.34157" lon="14.4149">
        <ele>115</ele>
        <time>2016-07-17T03:01:58Z</time>
      </trkpt>
      <trkpt lat="45.34156" lon="14.41489">
        <ele>115</ele>
        <time>2016-07-17T03:03:58Z</time>
      </trkpt>
      <trkpt lat="45.34154" lon="14.41489">
        <ele>114</ele>
        <time>2016-07-17T03:05:58Z</time>
      </trkpt>
      <trkpt lat="45.34153" lon="14.41489">
        <ele>114</ele>
        <time>2016-07-17T03:07:58Z</time>
      </trkpt>
      <trkpt lat="45.34151" lon="14.41488">
        <ele>114</ele>
        <time>2016-07-17T03:09:58Z</time>
      </trkpt>
      <trkpt lat="45.3415" lon="14.41488">
        <ele>114</ele>
        <time>2016-07-17T03:11:58Z</time>
      </trkpt>
      <trkpt lat="45.34149" lon="14.41487">
        <ele>113</ele>
        <time>2016-07-17T03:13:58Z</time>
      </trkpt>
      <trkpt lat="45.34148" lon="14.41487">
        <ele>113</ele>
        <time>2016-07-17T03:15:58Z</time>
      </trkpt>
      <trkpt lat="45.34147" lon="14.41486">
        <ele>113</ele>
        <time>2016-07-17T03:17:58Z</time>
      </trkpt>
      <trkpt lat="45.34146" lon="14.41485">
        <ele>113</ele>
        <time>2016-07-17T03:19:58Z</time>
      </trkpt>
      <trkpt lat="45.34145" lon="14.41484">
        <ele>112</ele>
        <time>2016-07-17T03:21:58Z</time>
      </trkpt>
      <trkpt lat="45.34144" lon="14.41484">
        <ele>112</ele>
        <time>2016-07-17T03:23:58Z</time>
      </trkpt>
      <trkpt lat="45.34144" lon="14.41484">
        <ele>112</ele>
        <time>2016-07-17T03:25:58Z</time>
      </trkpt>
      <trkpt lat="45.34134" lon="14.41534">
        <ele>111</ele>
        <time>2016-07-17T03:27:58Z</time>
      </trkpt>
      <trkpt lat="45.34126" lon="14.41554">
        <ele>110</ele>
        <time>2016-07-17T03:29:58Z</time>
      </trkpt>
      <trkpt lat="45.34121" lon="14.41566">
        <ele>110</ele>
        <time>2016-07-17T03:31:58Z</time>
      </trkpt>
      <trkpt lat="45.34119" lon="14.41572">
        <ele>109</ele>
        <time>2016-07-17T03:33:58Z</time>
      </trkpt>
      <trkpt lat="45.34117" lon="14.41578">
        <ele>109</ele>
        <time>2016-07-17T03:35:58Z</time>
      </trkpt>
      <trkpt lat="45.34115" lon="14.41584">
        <ele>109</ele>
        <time>2016-07-17T03:37:58Z</time>
      </trkpt>
      <trkpt lat="45.34113" lon="14.4159">
        <ele>109</ele>
        <time>2016-07-17T03:39:58Z</time>
      </trkpt>
      <trkpt lat="45.34111" lon="14.41596">
        <ele>108</ele>
        <time>2016-07-17T03:41:58Z</time>
      </trkpt>
      <trkpt lat="45.34108" lon="14.41602">
        <ele>108</ele>
        <time>2016-07-17T03:43:58Z</time>
      </trkpt>
      <trkpt lat="45.34106" lon="14.41608">
        <ele>107</ele>
        <time>2016-07-17T03:45:58Z</time>
      </trkpt>
      <trkpt lat="45.34103" lon="14.41614">
        <ele>107</ele>
        <time>2016-07-17T03:47:58Z</time>
      </trkpt>
      <trkpt lat="45.34102" lon="14.41618">
        <ele>106</ele>
        <time>2016-07-17T03:49:58Z</time>
      </trkpt>
      <trkpt lat="45.341" lon="14.41622">
        <ele>106</ele>
        <time>2016-07-17T03:51:58Z</time>
      </trkpt>
      <trkpt lat="45.34098" lon="14.41626">
        <ele>106</ele>
        <time>2016-07-17T03:53:58Z</time>
      </trkpt>
      <trkpt lat="45.34082" lon="14.41658">
        <ele>102</ele>
        <time>2016-07-17T03:55:58Z</time>
      </trkpt>
      <trkpt lat="45.34068" lon="14.41684">
        <ele>100</ele>
        <time>2016-07-17T03:57:58Z</time>
      </trkpt>
      <trkpt lat="45.34055" lon="14.41706">
        <ele>98</ele>
        <time>2016-07-17T03:59:58Z</time>
      </trkpt>
      <trkpt lat="45.34043" lon="14.41724">
        <ele>95</ele>
        <time>2016-07-17T04:01:58Z</time>
      </trkpt>
      <trkpt lat="45.3402" lon="14.41763">
        <ele>89</ele>
        <time>2016-07-17T04:03:58Z</time>
      </trkpt>
      <trkpt lat="45.34012" lon="14.41782">
        <ele>88</ele>
        <time>2016-07-17T04:05:58Z</time>
      </trkpt>
      <trkpt lat="45.3394" lon="14.41963">
        <ele>81</ele>
        <time>2016-07-17T04:07:58Z</time>
      </trkpt>
      <trkpt lat="45.33928" lon="14.41992">
        <ele>79</ele>
        <time>2016-07-17T04:09:58Z</time>
      </trkpt>
      <trkpt lat="45.33917" lon="14.42026">
        <ele>78</ele>
        <time>2016-07-17T04:11:58Z</time>
      </trkpt>
      <trkpt lat="45.33879" lon="14.42121">
        <ele>72</ele>
        <time>2016-07-17T04:13:58Z</time>
      </trkpt>
      <trkpt lat="45.33866" lon="14.4215">
        <ele>69</ele>
        <time>2016-07-17T04:15:58Z</time>
      </trkpt>
      <trkpt lat="45.33828" lon="14.42219">
        <ele>65</ele>
        <time>2016-07-17T04:17:58Z</time>
      </trkpt>
      <trkpt lat="45.3382" lon="14.42235">
        <ele>65</ele>
        <time>2016-07-17T04:19:58Z</time>
      </trkpt>
      <trkpt lat="45.33798" lon="14.42272">
        <ele>64</ele>
        <time>2016-07-17T04:21:58Z</time>
      </trkpt>
      <trkpt lat="45.33778" lon="14.42306">
        <ele>62</ele>
        <time>2016-07-17T04:23:58Z</time>
      </trkpt>
      <trkpt lat="45.33765" lon="14.42327">
        <ele>61</ele>
        <time>2016-07-17T04:25:58Z</time>
      </trkpt>
      <trkpt lat="45.33739" lon="14.42372">
        <ele>59</ele>
        <time>2016-07-17T04:27:58Z</time>
      </trkpt>
      <trkpt lat="45.33732" lon="14.42383">
        <ele>59</ele>
        <time>2016-07-17T04:29:58Z</time>
      </trkpt>
      <trkpt lat="45.33728" lon="14.42389">
        <ele>59</ele>
        <time>2016-07-17T04:31:58Z</time>
      </trkpt>
      <trkpt lat="45.33723" lon="14.42396">
        <ele>59</ele>
        <time>2016-07-17T04:33:58Z</time>
      </trkpt>
      <trkpt lat="45.33715" lon="14.42405">
        <ele>58</ele>
        <time>2016-07-17T04:35:58Z</time>
      </trkpt>
      <trkpt lat="45.33708" lon="14.42413">
        <ele>57</ele>
        <time>2016-07-17T04:37:58Z</time>
      </trkpt>
      <trkpt lat="45.33696" lon="14.42426">
        <ele>56</ele>
        <time>2016-07-17T04:39:58Z</time>
      </trkpt>
      <trkpt lat="45.33626" lon="14.42507">
        <ele>51</ele>
        <time>2016-07-17T04:41:58Z</time>
      </trkpt>
      <trkpt lat="45.33621" lon="14.42512">
        <ele>50</ele>
        <time>2016-07-17T04:43:58Z</time>
      </trkpt>
      <trkpt lat="45.33616" lon="14.42517">
        <ele>50</ele>
        <time>2016-07-17T04:45:58Z</time>
      </trkpt>
      <trkpt lat="45.33568" lon="14.42573">
        <ele>44</ele>
        <time>2016-07-17T04:47:58Z</time>
      </trkpt>
      <trkpt lat="45.33544" lon="14.42599">
        <ele>42</ele>
        <time>2016-07-17T04:49:58Z</time>
      </trkpt>
      <trkpt lat="45.33544" lon="14.426">
        <ele>42</ele>
        <time>2016-07-17T04:51:58Z</time>
      </trkpt>
      <trkpt lat="45.33528" lon="14.42618">
        <ele>41</ele>
        <time>2016-07-17T04:53:58Z</time>
      </trkpt>
      <trkpt lat="45.33524" lon="14.42623">
        <ele>41</ele>
        <time>2016-07-17T04:55:58Z</time>
      </trkpt>
      <trkpt lat="45.3352" lon="14.42627">
        <ele>41</ele>
        <time>2016-07-17T04:57:58Z</time>
      </trkpt>
      <trkpt lat="45.33511" lon="14.42635">
        <ele>40</ele>
        <time>2016-07-17T04:59:58Z</time>
      </trkpt>
      <trkpt lat="45.33504" lon="14.42639">
        <ele>40</ele>
        <time>2016-07-17T05:01:58Z</time>
      </trkpt>
      <trkpt lat="45.33489" lon="14.42647">
        <ele>39</ele>
        <time>2016-07-17T05:03:58Z</time>
      </trkpt>
      <trkpt lat="45.3348" lon="14.42652">
        <ele>38</ele>
        <time>2016-07-17T05:05:58Z</time>
      </trkpt>
      <trkpt lat="45.33451" lon="14.42676">
        <ele>35</ele>
        <time>2016-07-17T05:07:58Z</time>
      </trkpt>
      <trkpt lat="45.33403" lon="14.42727">
        <ele>34</ele>
        <time>2016-07-17T05:09:58Z</time>
      </trkpt>
      <trkpt lat="45.33399" lon="14.42731">
        <ele>34</ele>
        <time>2016-07-17T05:11:58Z</time>
      </trkpt>
      <trkpt lat="45.33392" lon="14.4274">
        <ele>34</ele>
        <time>2016-07-17T05:13:58Z</time>
      </trkpt>
      <trkpt lat="45.33389" lon="14.42746">
        <ele>34</ele>
        <time>2016-07-17T05:15:58Z</time>
      </trkpt>
      <trkpt lat="45.33384" lon="14.42755">
        <ele>34</ele>
        <time>2016-07-17T05:17:58Z</time>
      </trkpt>
      <trkpt lat="45.33382" lon="14.42763">
        <ele>33</ele>
        <time>2016-07-17T05:19:58Z</time>
      </trkpt>
      <trkpt lat="45.3338" lon="14.42774">
        <ele>33</ele>
        <time>2016-07-17T05:21:58Z</time>
      </trkpt>
      <trkpt lat="45.33378" lon="14.42784">
        <ele>33</ele>
        <time>2016-07-17T05:23:58Z</time>
      </trkpt>
      <trkpt lat="45.33374" lon="14.42803">
        <ele>32</ele>
        <time>2016-07-17T05:25:58Z</time>
      </trkpt>
      <trkpt lat="45.33369" lon="14.42836">
        <ele>31</ele>
        <time>2016-07-17T05:27:58Z</time>
      </trkpt>
      <trkpt lat="45.33365" lon="14.42864">
        <ele>29</ele>
        <time>2016-07-17T05:29:58Z</time>
      </trkpt>
      <trkpt lat="45.33359" lon="14.4293">
        <ele>24</ele>
        <time>2016-07-17T05:31:58Z</time>
      </trkpt>
      <trkpt lat="45.3335" lon="14.43001">
        <ele>17</ele>
        <time>2016-07-17T05:33:58Z</time>
      </trkpt>
      <trkpt lat="45.3335" lon="14.43001">
        <ele>17</ele>
        <time>2016-07-17T05:35:58Z</time>
      </trkpt>
      <trkpt lat="45.33346" lon="14.43012">
        <ele>16</ele>
        <time>2016-07-17T05:37:58Z</time>
      </trkpt>
      <trkpt lat="45.33298" lon="14.43097">
        <ele>13</ele>
        <time>2016-07-17T05:39:58Z</time>
      </trkpt>
      <trkpt lat="45.33247" lon="14.43179">
        <ele>13</ele>
        <time>2016-07-17T05:41:58Z</time>
      </trkpt>
      <trkpt lat="45.33233" lon="14.43181">
        <ele>13</ele>
        <time>2016-07-17T05:43:58Z</time>
      </trkpt>
      <trkpt lat="45.3323" lon="14.43186">
        <ele>13</ele>
        <time>2016-07-17T05:45:58Z</time>
      </trkpt>
      <trkpt lat="45.33208" lon="14.43224">
        <ele>12</ele>
        <time>2016-07-17T05:47:58Z</time>
      </trkpt>
      <trkpt lat="45.33192" lon="14.43252">
        <ele>11</ele>
        <time>2016-07-17T05:49:58Z</time>
      </trkpt>
      <trkpt lat="45.33187" lon="14.43261">
        <ele>12</ele>
        <time>2016-07-17T05:51:58Z</time>
      </trkpt>
      <trkpt lat="45.33183" lon="14.43268">
        <ele>13</ele>
        <time>2016-07-17T05:53:58Z</time>
      </trkpt>
      <trkpt lat="45.33179" lon="14.43276">
        <ele>13</ele>
        <time>2016-07-17T05:55:58Z</time>
      </trkpt>
      <trkpt lat="45.33174" lon="14.43283">
        <ele>13</ele>
        <time>2016-07-17T05:57:58Z</time>
      </trkpt>
      <trkpt lat="45.33169" lon="14.43291">
        <ele>14</ele>
        <time>2016-07-17T05:59:58Z</time>
      </trkpt>
      <trkpt lat="45.33165" lon="14.43296">
        <ele>14</ele>
        <time>2016-07-17T06:01:58Z</time>
      </trkpt>
      <trkpt lat="45.33162" lon="14.433">
        <ele>15</ele>
        <time>2016-07-17T06:03:58Z</time>
      </trkpt>
      <trkpt lat="45.33159" lon="14.43303">
        <ele>15</ele>
        <time>2016-07-17T06:05:58Z</time>
      </trkpt>
      <trkpt lat="45.33156" lon="14.43307">
        <ele>15</ele>
        <time>2016-07-17T06:07:58Z</time>
      </trkpt>
      <trkpt lat="45.3314" lon="14.43319">
        <ele>15</ele>
        <time>2016-07-17T06:09:58Z</time>
      </trkpt>
      <trkpt lat="45.3314" lon="14.43319">
        <ele>15</ele>
        <time>2016-07-17T06:11:58Z</time>
      </trkpt>
      <trkpt lat="45.33135" lon="14.43318">
        <ele>15</ele>
        <time>2016-07-17T06:13:58Z</time>
      </trkpt>
      <trkpt lat="45.33131" lon="14.43318">
        <ele>15</ele>
        <time>2016-07-17T06:15:58Z</time>
      </trkpt>
      <trkpt lat="45.33128" lon="14.43318">
        <ele>15</ele>
        <time>2016-07-17T06:17:58Z</time>
      </trkpt>
      <trkpt lat="45.33124" lon="14.43319">
        <ele>15</ele>
        <time>2016-07-17T06:19:58Z</time>
      </trkpt>
      <trkpt lat="45.3312" lon="14.43321">
        <ele>15</ele>
        <time>2016-07-17T06:21:58Z</time>
      </trkpt>
      <trkpt lat="45.33112" lon="14.43325">
        <ele>15</ele>
        <time>2016-07-17T06:23:58Z</time>
      </trkpt>
      <trkpt lat="45.33106" lon="14.43331">
        <ele>15</ele>
        <time>2016-07-17T06:25:58Z</time>
      </trkpt>
      <trkpt lat="45.33102" lon="14.43335">
        <ele>16</ele>
        <time>2016-07-17T06:27:58Z</time>
      </trkpt>
      <trkpt lat="45.33099" lon="14.4334">
        <ele>16</ele>
        <time>2016-07-17T06:29:58Z</time>
      </trkpt>
      <trkpt lat="45.33097" lon="14.43344">
        <ele>16</ele>
        <time>2016-07-17T06:31:58Z</time>
      </trkpt>
      <trkpt lat="45.33095" lon="14.43349">
        <ele>16</ele>
        <time>2016-07-17T06:33:58Z</time>
      </trkpt>
      <trkpt lat="45.33093" lon="14.43356">
        <ele>17</ele>
        <time>2016-07-17T06:35:58Z</time>
      </trkpt>
      <trkpt lat="45.33066" lon="14.4345">
        <ele>20</ele>
        <time>2016-07-17T06:37:58Z</time>
      </trkpt>
      <trkpt lat="45.33051" lon="14.43497">
        <ele>21</ele>
        <time>2016-07-17T06:39:58Z</time>
      </trkpt>
      <trkpt lat="45.33036" lon="14.43546">
        <ele>23</ele>
        <time>2016-07-17T06:41:58Z</time>
      </trkpt>
      <trkpt lat="45.33033" lon="14.43554">
        <ele>23</ele>
        <time>2016-07-17T06:43:58Z</time>
      </trkpt>
      <trkpt lat="45.3303" lon="14.43562">
        <ele>23</ele>
        <time>2016-07-17T06:45:58Z</time>
      </trkpt>
      <trkpt lat="45.33025" lon="14.43575">
        <ele>24</ele>
        <time>2016-07-17T06:47:58Z</time>
      </trkpt>
      <trkpt lat="45.33025" lon="14.43575">
        <ele>24</ele>
        <time>2016-07-17T06:49:58Z</time>
      </trkpt>
      <trkpt lat="45.33019" lon="14.43598">
        <ele>24</ele>
        <time>2016-07-17T06:51:58Z</time>
      </trkpt>
      <trkpt lat="45.33016" lon="14.43609">
        <ele>24</ele>
        <time>2016-07-17T06:53:58Z</time>
      </trkpt>
      <trkpt lat="45.33015" lon="14.43617">
        <ele>24</ele>
        <time>2016-07-17T06:55:58Z</time>
      </trkpt>
      <trkpt lat="45.33014" lon="14.43617">
        <ele>24</ele>
        <time>2016-07-17T06:57:58Z</time>
      </trkpt>
      <trkpt lat="45.33014" lon="14.43623">
        <ele>24</ele>
        <time>2016-07-17T06:59:58Z</time>
      </trkpt>
      <trkpt lat="45.33015" lon="14.43626">
        <ele>24</ele>
        <time>2016-07-17T07:01:58Z</time>
      </trkpt>
      <trkpt lat="45.33016" lon="14.4363">
        <ele>24</ele>
        <time>2016-07-17T07:03:58Z</time>
      </trkpt>
      <trkpt lat="45.33019" lon="14.43636">
        <ele>25</ele>
        <time>2016-07-17T07:05:58Z</time>
      </trkpt>
      <trkpt lat="45.33021" lon="14.43644">
        <ele>25</ele>
        <time>2016-07-17T07:07:58Z</time>
      </trkpt>
      <trkpt lat="45.33021" lon="14.43658">
        <ele>25</ele>
        <time>2016-07-17T07:09:58Z</time>
      </trkpt>
      <trkpt lat="45.33024" lon="14.43746">
        <ele>31</ele>
        <time>2016-07-17T07:11:58Z</time>
      </trkpt>
      <trkpt lat="45.33024" lon="14.43793">
        <ele>30</ele>
        <time>2016-07-17T07:13:58Z</time>
      </trkpt>
      <trkpt lat="45.33023" lon="14.43827">
        <ele>29</ele>
        <time>2016-07-17T07:15:58Z</time>
      </trkpt>
      <trkpt lat="45.33027" lon="14.43848">
        <ele>30</ele>
        <time>2016-07-17T07:17:58Z</time>
      </trkpt>
      <trkpt lat="45.33029" lon="14.43856">
        <ele>30</ele>
        <time>2016-07-17T07:19:58Z</time>
      </trkpt>
      <trkpt lat="45.33032" lon="14.4387">
        <ele>30</ele>
        <time>2016-07-17T07:21:58Z</time>
      </trkpt>
      <trkpt lat="45.33035" lon="14.43891">
        <ele>31</ele>
        <time>2016-07-17T07:23:58Z</time>
      </trkpt>
      <trkpt lat="45.33037" lon="14.43903">
        <ele>31</ele>
        <time>2016-07-17T07:25:58Z</time>
      </trkpt>
      <trkpt lat="45.33037" lon="14.43909">
        <ele>31</ele>
        <time>2016-07-17T07:27:58Z</time>
      </trkpt>
      <trkpt lat="45.33036" lon="14.43916">
        <ele>30</ele>
        <time>2016-07-17T07:29:58Z</time>
      </trkpt>
      <trkpt lat="45.33033" lon="14.43927">
        <ele>31</ele>
        <time>2016-07-17T07:31:58Z</time>
      </trkpt>
      <trkpt lat="45.33028" lon="14.43944">
        <ele>32</ele>
        <time>2016-07-17T07:33:58Z</time>
      </trkpt>
      <trkpt lat="45.3302" lon="14.43971">
        <ele>34</ele>
        <time>2016-07-17T07:35:58Z</time>
      </trkpt>
      <trkpt lat="45.33006" lon="14.44005">
        <ele>37</ele>
        <time>2016-07-17T07:37:58Z</time>
      </trkpt>
      <trkpt lat="45.32989" lon="14.4406">
        <ele>37</ele>
        <time>2016-07-17T07:39:58Z</time>
      </trkpt>
      <trkpt lat="45.32981" lon="14.44084">
        <ele>37</ele>
        <time>2016-07-17T07:41:58Z</time>
      </trkpt>
      <trkpt lat="45.32959" lon="14.44154">
        <ele>37</ele>
        <time>2016-07-17T07:43:58Z</time>
      </trkpt>
      <trkpt lat="45.32957" lon="14.44158">
        <ele>36</ele>
        <time>2016-07-17T07:45:58Z</time>
      </trkpt>
      <trkpt lat="45.32952" lon="14.44166">
        <ele>36</ele>
        <time>2016-07-17T07:47:58Z</time>
      </trkpt>
      <trkpt lat="45.32952" lon="14.44166">
        <ele>36</ele>
        <time>2016-07-17T07:49:58Z</time>
      </trkpt>
      <trkpt lat="45.32948" lon="14.44171">
        <ele>36</ele>
        <time>2016-07-17T07:51:58Z</time>
      </trkpt>
      <trkpt lat="45.32946" lon="14.44173">
        <ele>36</ele>
        <time>2016-07-17T07:53:58Z</time>
      </trkpt>
      <trkpt lat="45.32941" lon="14.44178">
        <ele>35</ele>
        <time>2016-07-17T07:55:58Z</time>
      </trkpt>
      <trkpt lat="45.32937" lon="14.44182">
        <ele>35</ele>
        <time>2016-07-17T07:57:58Z</time>
      </trkpt>
      <trkpt lat="45.32934" lon="14.44185">
        <ele>35</ele>
        <time>2016-07-17T07:59:58Z</time>
      </trkpt>
      <trkpt lat="45.32925" lon="14.44196">
        <ele>34</ele>
        <time>2016-07-17T08:01:58Z</time>
      </trkpt>
      <trkpt lat="45.32919" lon="14.44207">
        <ele>34</ele>
        <time>2016-07-17T08:03:58Z</time>
      </trkpt>
      <trkpt lat="45.32913" lon="14.44219">
        <ele>33</ele>
        <time>2016-07-17T08:05:58Z</time>
      </trkpt>
      <trkpt lat="45.32905" lon="14.44231">
        <ele>33</ele>
        <time>2016-07-17T08:07:58Z</time>
      </trkpt>
      <trkpt lat="45.32897" lon="14.44265">
        <ele>32</ele>
        <time>2016-07-17T08:09:58Z</time>
      </trkpt>
      <trkpt lat="45.32887" lon="14.44299">
        <ele>29</ele>
        <time>2016-07-17T08:11:58Z</time>
      </trkpt>
      <trkpt lat="45.32874" lon="14.44347">
        <ele>27</ele>
        <time>2016-07-17T08:13:58Z</time>
      </trkpt>
      <trkpt lat="45.32871" lon="14.44359">
        <ele>27</ele>
        <time>2016-07-17T08:15:58Z</time>
      </trkpt>
      <trkpt lat="45.32865" lon="14.44381">
        <ele>27</ele>
        <time>2016-07-17T08:17:58Z</time>
      </trkpt>
      <trkpt lat="45.3286" lon="14.44393">
        <ele>26</ele>
        <time>2016-07-17T08:19:58Z</time>
      </trkpt>
      <trkpt lat="45.32852" lon="14.44412">
        <ele>26</ele>
        <time>2016-07-17T08:21:58Z</time>
      </trkpt>
      <trkpt lat="45.32845" lon="14.44425">
        <ele>24</ele>
        <time>2016-07-17T08:23:58Z</time>
      </trkpt>
      <trkpt lat="45.32834" lon="14.44442">
        <ele>21</ele>
        <time>2016-07-17T08:25:58Z</time>
      </trkpt>
      <trkpt lat="45.32819" lon="14.44467">
        <ele>18</ele>
        <time>2016-07-17T08:27:58Z</time>
      </trkpt>
      <trkpt lat="45.32803" lon="14.44497">
        <ele>15</ele>
        <time>2016-07-17T08:29:58Z</time>
      </trkpt>
      <trkpt lat="45.32782" lon="14.44549">
        <ele>12</ele>
        <time>2016-07-17T08:31:58Z</time>
      </trkpt>
      <trkpt lat="45.32735" lon="14.44676">
        <ele>6</ele>
        <time>2016-07-17T08:33:58Z</time>
      </trkpt>
      <trkpt lat="45.32718" lon="14.44722">
        <ele>4</ele>
        <time>2016-07-17T08:35:58Z</time>
      </trkpt>
      <trkpt lat="45.32716" lon="14.44727">
        <ele>4</ele>
        <time>2016-07-17T08:37:58Z</time>
      </trkpt>
      <trkpt lat="45.3271" lon="14.4474">
        <ele>4</ele>
        <time>2016-07-17T08:39:58Z</time>
      </trkpt>
      <trkpt lat="45.32703" lon="14.44752">
        <ele>3</ele>
        <time>2016-07-17T08:41:58Z</time>
      </trkpt>
      <trkpt lat="45.32703" lon="14.44752">
        <ele>3</ele>
        <time>2016-07-17T08:43:58Z</time>
      </trkpt>
      <trkpt lat="45.32699" lon="14.44761">
        <ele>4</ele>
        <time>2016-07-17T08:45:58Z</time>
      </trkpt>
      <trkpt lat="45.32688" lon="14.4478">
        <ele>4</ele>
        <time>2016-07-17T08:47:58Z</time>
      </trkpt>
      <trkpt lat="45.32671" lon="14.44806">
        <ele>4</ele>
        <time>2016-07-17T08:49:58Z</time>
      </trkpt>
      <trkpt lat="45.32663" lon="14.44824">
        <ele>4</ele>
        <time>2016-07-17T08:51:58Z</time>
      </trkpt>
      <trkpt lat="45.32662" lon="14.44825">
        <ele>4</ele>
        <time>2016-07-17T08:53:58Z</time>
      </trkpt>
      <trkpt lat="45.32658" lon="14.44839">
        <ele>4</ele>
        <time>2016-07-17T08:55:58Z</time>
      </trkpt>
      <trkpt lat="45.3265" lon="14.44863">
        <ele>7</ele>
        <time>2016-07-17T08:57:58Z</time>
      </trkpt>
      <trkpt lat="45.32646" lon="14.44876">
        <ele>9</ele>
        <time>2016-07-17T08:59:58Z</time>
      </trkpt>
      <trkpt lat="45.32646" lon="14.44876">
        <ele>9</ele>
        <time>2016-07-17T09:01:58Z</time>
      </trkpt>
      <trkpt lat="45.32624" lon="14.44879">
        <ele>7</ele>
        <time>2016-07-17T09:03:58Z</time>
      </trkpt>
      <trkpt lat="45.32568" lon="14.4488">
        <ele>3</ele>
        <time>2016-07-17T09:05:58Z</time>
      </trkpt>
      <trkpt lat="45.32541" lon="14.44877">
        <ele>3</ele>
        <time>2016-07-17T09:07:58Z</time>
      </trkpt>
      <trkpt lat="45.32534" lon="14.44877">
        <ele>3</ele>
        <time>2016-07-17T09:09:58Z</time>
      </trkpt>
      <trkpt lat="45.32525" lon="14.44877">
        <ele>3</ele>
        <time>2016-07-17T09:11:58Z</time>
      </trkpt>
      <trkpt lat="45.32517" lon="14.44877">
        <ele>3</ele>
        <time>2016-07-17T09:13:58Z</time>
      </trkpt>
      <trkpt lat="45.32511" lon="14.44878">
        <ele>3</ele>
        <time>2016-07-17T09:15:58Z</time>
      </trkpt>
      <trkpt lat="45.32487" lon="14.44887">
        <ele>3</ele>
        <time>2016-07-17T09:17:58Z</time>
      </trkpt>
      <trkpt lat="45.32486" lon="14.44887">
        <ele>3</ele>
        <time>2016-07-17T09:19:58Z</time>
      </trkpt>
      <trkpt lat="45.32447" lon="14.44913">
        <ele>3</ele>
        <time>2016-07-17T09:21:58Z</time>
      </trkpt>
      <trkpt lat="45.32354" lon="14.44974">
        <ele>3</ele>
        <time>2016-07-17T09:23:58Z</time>
      </trkpt>
      <trkpt lat="45.32354" lon="14.44974">
        <ele>3</ele>
        <time>2016-07-17T09:25:58Z</time>
      </trkpt>
      <trkpt lat="45.32354" lon="14.44935">
        <ele>3</ele>
        <time>2016-07-17T09:27:58Z</time>
      </trkpt>
      <trkpt lat="45.32357" lon="14.44872">
        <ele>2</ele>
        <time>2016-07-17T09:29:58Z</time>
      </trkpt>
      <trkpt lat="45.32363" lon="14.44826">
        <ele>2</ele>
        <time>2016-07-17T09:31:58Z</time>
      </trkpt>
      <trkpt lat="45.32368" lon="14.44802">
        <ele>2</ele>
        <time>2016-07-17T09:33:58Z</time>
      </trkpt>
      <trkpt lat="45.32391" lon="14.44715">
        <ele>3</ele>
        <time>2016-07-17T09:35:58Z</time>
      </trkpt>
      <trkpt lat="45.32402" lon="14.44684">
        <ele>3</ele>
        <time>2016-07-17T09:37:58Z</time>
      </trkpt>
      <trkpt lat="45.32413" lon="14.44647">
        <ele>4</ele>
        <time>2016-07-17T09:39:58Z</time>
      </trkpt>
      <trkpt lat="45.32413" lon="14.44647">
        <ele>4</ele>
        <time>2016-07-17T09:41:58Z</time>
      </trkpt>
      <trkpt lat="45.32421" lon="14.44655">
        <ele>3</ele>
        <time>2016-07-17T09:43:58Z</time>
      </trkpt>
      <trkpt lat="45.32432" lon="14.44661">
        <ele>3</ele>
        <time>2016-07-17T09:45:58Z</time>
      </trkpt>
      <trkpt lat="45.32437" lon="14.44666">
        <ele>3</ele>
        <time>2016-07-17T09:47:58Z</time>
      </trkpt>
      <trkpt lat="45.32445" lon="14.44673">
        <ele>2</ele>
        <time>2016-07-17T09:49:58Z</time>
      </trkpt>
      <trkpt lat="45.32452" lon="14.44681">
        <ele>2</ele>
        <time>2016-07-17T09:51:58Z</time>
      </trkpt>
      <trkpt lat="45.32461" lon="14.44688">
        <ele>2</ele>
        <time>2016-07-17T09:53:58Z</time>
      </trkpt>
      <trkpt lat="45.32482" lon="14.44714">
        <ele>1</ele>
        <time>2016-07-17T09:55:58Z</time>
      </trkpt>
      <trkpt lat="45.32488" lon="14.44721">
        <ele>1</ele>
        <time>2016-07-17T09:57:58Z</time>
      </trkpt>
      <trkpt lat="45.32491" lon="14.44727">
        <ele>1</ele>
        <time>2016-07-17T09:59:58Z</time>
      </trkpt>
      <trkpt lat="45.32498" lon="14.44737">
        <ele>1</ele>
        <time>2016-07-17T10:01:58Z</time>
      </trkpt>
      <trkpt lat="45.32503" lon="14.44751">
        <ele>1</ele>
        <time>2016-07-17T10:03:58Z</time>
      </trkpt>
      <trkpt lat="45.32505" lon="14.44756">
        <ele>1</ele>
        <time>2016-07-17T10:05:58Z</time>
      </trkpt>
      <trkpt lat="45.32509" lon="14.44769">
        <ele>1</ele>
        <time>2016-07-17T10:07:58Z</time>
      </trkpt>
      <trkpt lat="45.3251" lon="14.44778">
        <ele>1</ele>
        <time>2016-07-17T10:09:58Z</time>
      </trkpt>
      <trkpt lat="45.32511" lon="14.44795">
        <ele>1</ele>
        <time>2016-07-17T10:11:58Z</time>
      </trkpt>
      <trkpt lat="45.32512" lon="14.448">
        <ele>1</ele>
        <time>2016-07-17T10:13:58Z</time>
      </trkpt>
      <trkpt lat="45.32512" lon="14.4481">
        <ele>1</ele>
        <time>2016-07-17T10:15:58Z</time>
      </trkpt>
      <trkpt lat="45.32512" lon="14.44827">
        <ele>1</ele>
        <time>2016-07-17T10:17:58Z</time>
      </trkpt>
      <trkpt lat="45.32512" lon="14.44863">
        <ele>3</ele>
        <time>2016-07-17T10:19:58Z</time>
      </trkpt>
      <trkpt lat="45.32511" lon="14.44878">
        <ele>3</ele>
        <time>2016-07-17T10:21:58Z</time>
      </trkpt>
      <trkpt lat="45.32511" lon="14.449">
        <ele>3</ele>
        <time>2016-07-17T10:23:58Z</time>
      </trkpt>
      <trkpt lat="45.32511" lon="14.449">
        <ele>3</ele>
        <time>2016-07-17T10:25:58Z</time>
      </trkpt>
      <trkpt lat="45.32511" lon="14.44931">
        <ele>3</ele>
        <time>2016-07-17T10:27:58Z</time>
      </trkpt>
      <trkpt lat="45.32511" lon="14.45013">
        <ele>8</ele>
        <time>2016-07-17T10:29:58Z</time>
      </trkpt>
      <trkpt lat="45.3251" lon="14.45024">
        <ele>9</ele>
        <time>2016-07-17T10:31:58Z</time>
      </trkpt>
      <trkpt lat="45.32508" lon="14.45035">
        <ele>9</ele>
        <time>2016-07-17T10:33:58Z</time>
      </trkpt>
      <trkpt lat="45.32505" lon="14.4505">
        <ele>9</ele>
        <time>2016-07-17T10:35:58Z</time>
      </trkpt>
      <trkpt lat="45.32503" lon="14.45061">
        <ele>9</ele>
        <time>2016-07-17T10:37:58Z</time>
      </trkpt>
      <trkpt lat="45.325" lon="14.45072">
        <ele>10</ele>
        <time>2016-07-17T10:39:58Z</time>
      </trkpt>
      <trkpt lat="45.32499" lon="14.45077">
        <ele>10</ele>
        <time>2016-07-17T10:41:58Z</time>
      </trkpt>
      <trkpt lat="45.32496" lon="14.45084">
        <ele>10</ele>
        <time>2016-07-17T10:43:58Z</time>
      </trkpt>
      <trkpt lat="45.32461" lon="14.45213">
        <ele>13</ele>
        <time>2016-07-17T10:45:58Z</time>
      </trkpt>
      <trkpt lat="45.32453" lon="14.4524">
        <ele>13</ele>
        <time>2016-07-17T10:47:58Z</time>
      </trkpt>
      <trkpt lat="45.32453" lon="14.4524">
        <ele>13</ele>
        <time>2016-07-17T10:49:58Z</time>
      </trkpt>
      <trkpt lat="45.32441" lon="14.45293">
        <ele>14</ele>
        <time>2016-07-17T10:51:58Z</time>
      </trkpt>
      <trkpt lat="45.32439" lon="14.45304">
        <ele>14</ele>
        <time>2016-07-17T10:53:58Z</time>
      </trkpt>
      <trkpt lat="45.32439" lon="14.45316">
        <ele>14</ele>
        <time>2016-07-17T10:55:58Z</time>
      </trkpt>
      <trkpt lat="45.32441" lon="14.45326">
        <ele>15</ele>
        <time>2016-07-17T10:57:58Z</time>
      </trkpt>
      <trkpt lat="45.32442" lon="14.45331">
        <ele>16</ele>
        <time>2016-07-17T10:59:58Z</time>
      </trkpt>
      <trkpt lat="45.32444" lon="14.45337">
        <ele>17</ele>
        <time>2016-07-17T11:01:58Z</time>
      </trkpt>
      <trkpt lat="45.3245" lon="14.45356">
        <ele>19</ele>
        <time>2016-07-17T11:03:58Z</time>
      </trkpt>
      <trkpt lat="45.32452" lon="14.45362">
        <ele>20</ele>
        <time>2016-07-17T11:05:58Z</time>
      </trkpt>
      <trkpt lat="45.32454" lon="14.4537">
        <ele>21</ele>
        <time>2016-07-17T11:07:58Z</time>
      </trkpt>
      <trkpt lat="45.32456" lon="14.45382">
        <ele>23</ele>
        <time>2016-07-17T11:09:58Z</time>
      </trkpt>
      <trkpt lat="45.32456" lon="14.45382">
        <ele>23</ele>
        <time>2016-07-17T11:11:58Z</time>
      </trkpt>
      <trkpt lat="45.32452" lon="14.45397">
        <ele>23</ele>
        <time>2016-07-17T11:13:58Z</time>
      </trkpt>
      <trkpt lat="45.32443" lon="14.45427">
        <ele>24</ele>
        <time>2016-07-17T11:15:58Z</time>
      </trkpt>
      <trkpt lat="45.32427" lon="14.45481">
        <ele>28</ele>
        <time>2016-07-17T11:17:58Z</time>
      </trkpt>
      <trkpt lat="45.32421" lon="14.45506">
        <ele>30</ele>
        <time>2016-07-17T11:19:58Z</time>
      </trkpt>
      <trkpt lat="45.32418" lon="14.45524">
        <ele>31</ele>
        <time>2016-07-17T11:21:58Z</time>
      </trkpt>
      <trkpt lat="45.32415" lon="14.45542">
        <ele>31</ele>
        <time>2016-07-17T11:23:58Z</time>
      </trkpt>
      <trkpt lat="45.32413" lon="14.4555">
        <ele>31</ele>
        <time>2016-07-17T11:25:58Z</time>
      </trkpt>
      <trkpt lat="45.32409" lon="14.45564">
        <ele>31</ele>
        <time>2016-07-17T11:27:58Z</time>
      </trkpt>
      <trkpt lat="45.32404" lon="14.45579">
        <ele>31</ele>
        <time>2016-07-17T11:29:58Z</time>
      </trkpt>
      <trkpt lat="45.32396" lon="14.456">
        <ele>31</ele>
        <time>2016-07-17T11:31:58Z</time>
      </trkpt>
      <trkpt lat="45.32393" lon="14.4561">
        <ele>31</ele>
        <time>2016-07-17T11:33:58Z</time>
      </trkpt>
      <trkpt lat="45.32391" lon="14.45618">
        <ele>31</ele>
        <time>2016-07-17T11:35:58Z</time>
      </trkpt>
      <trkpt lat="45.3239" lon="14.45623">
        <ele>31</ele>
        <time>2016-07-17T11:37:58Z</time>
      </trkpt>
      <trkpt lat="45.32389" lon="14.45629">
        <ele>31</ele>
        <time>2016-07-17T11:39:58Z</time>
      </trkpt>
      <trkpt lat="45.32388" lon="14.45643">
        <ele>32</ele>
        <time>2016-07-17T11:41:58Z</time>
      </trkpt>
      <trkpt lat="45.32388" lon="14.45651">
        <ele>32</ele>
        <time>2016-07-17T11:43:58Z</time>
      </trkpt>
      <trkpt lat="45.32386" lon="14.4567">
        <ele>33</ele>
        <time>2016-07-17T11:45:58Z</time>
      </trkpt>
      <trkpt lat="45.3238" lon="14.45689">
        <ele>34</ele>
        <time>2016-07-17T11:47:58Z</time>
      </trkpt>
      <trkpt lat="45.32366" lon="14.45722">
        <ele>35</ele>
        <time>2016-07-17T11:49:58Z</time>
      </trkpt>
      <trkpt lat="45.32355" lon="14.45745">
        <ele>36</ele>
        <time>2016-07-17T11:51:58Z</time>
      </trkpt>
      <trkpt lat="45.32345" lon="14.45768">
        <ele>37</ele>
        <time>2016-07-17T11:53:58Z</time>
      </trkpt>
      <trkpt lat="45.32338" lon="14.45786">
        <ele>38</ele>
        <time>2016-07-17T11:55:58Z</time>
      </trkpt>
      <trkpt lat="45.32337" lon="14.45789">
        <ele>38</ele>
        <time>2016-07-17T11:57:58Z</time>
      </trkpt>
      <trkpt lat="45.32336" lon="14.45793">
        <ele>39</ele>
        <time>2016-07-17T11:59:58Z</time>
      </trkpt>
      <trkpt lat="45.32332" lon="14.45804">
        <ele>40</ele>
        <time>2016-07-17T12:01:58Z</time>
      </trkpt>
      <trkpt lat="45.32328" lon="14.45813">
        <ele>40</ele>
        <time>2016-07-17T12:03:58Z</time>
      </trkpt>
      <trkpt lat="45.32322" lon="14.45838">
        <ele>42</ele>
        <time>2016-07-17T12:05:58Z</time>
      </trkpt>
      <trkpt lat="45.32318" lon="14.45856">
        <ele>43</ele>
        <time>2016-07-17T12:07:58Z</time>
      </trkpt>
      <trkpt lat="45.32314" lon="14.45873">
        <ele>44</ele>
        <time>2016-07-17T12:09:58Z</time>
      </trkpt>
      <trkpt lat="45.32313" lon="14.45879">
        <ele>44</ele>
        <time>2016-07-17T12:11:58Z</time>
      </trkpt>
      <trkpt lat="45.32307" lon="14.45911">
        <ele>46</ele>
        <time>2016-07-17T12:13:58Z</time>
      </trkpt>
      <trkpt lat="45.32304" lon="14.4593">
        <ele>48</ele>
        <time>2016-07-17T12:15:58Z</time>
      </trkpt>
      <trkpt lat="45.323" lon="14.45949">
        <ele>50</ele>
        <time>2016-07-17T12:17:58Z</time>
      </trkpt>
      <trkpt lat="45.32295" lon="14.45963">
        <ele>51</ele>
        <time>2016-07-17T12:19:58Z</time>
      </trkpt>
      <trkpt lat="45.32281" lon="14.4601">
        <ele>55</ele>
        <time>2016-07-17T12:21:58Z</time>
      </trkpt>
      <trkpt lat="45.3227" lon="14.46042">
        <ele>59</ele>
        <time>2016-07-17T12:23:58Z</time>
      </trkpt>
      <trkpt lat="45.32262" lon="14.46066">
        <ele>61</ele>
        <time>2016-07-17T12:25:58Z</time>
      </trkpt>
      <trkpt lat="45.32255" lon="14.46094">
        <ele>64</ele>
        <time>2016-07-17T12:27:58Z</time>
      </trkpt>
      <trkpt lat="45.32247" lon="14.4613">
        <ele>65</ele>
        <time>2016-07-17T12:29:58Z</time>
      </trkpt>
      <trkpt lat="45.32245" lon="14.46143">
        <ele>65</ele>
        <time>2016-07-17T12:31:58Z</time>
      </trkpt>
      <trkpt lat="45.32243" lon="14.4616">
        <ele>66</ele>
        <time>2016-07-17T12:33:58Z</time>
      </trkpt>
      <trkpt lat="45.32241" lon="14.46184">
        <ele>67</ele>
        <time>2016-07-17T12:35:58Z</time>
      </trkpt>
      <trkpt lat="45.3224" lon="14.46203">
        <ele>69</ele>
        <time>2016-07-17T12:37:58Z</time>
      </trkpt>
      <trkpt lat="45.3224" lon="14.46218">
        <ele>71</ele>
        <time>2016-07-17T12:39:58Z</time>
      </trkpt>
      <trkpt lat="45.32241" lon="14.46229">
        <ele>72</ele>
        <time>2016-07-17T12:41:58Z</time>
      </trkpt>
      <trkpt lat="45.32242" lon="14.46264">
        <ele>75</ele>
        <time>2016-07-17T12:43:58Z</time>
      </trkpt>
      <trkpt lat="45.32242" lon="14.46287">
        <ele>75</ele>
        <time>2016-07-17T12:45:58Z</time>
      </trkpt>
      <trkpt lat="45.32243" lon="14.4633">
        <ele>77</ele>
        <time>2016-07-17T12:47:58Z</time>
      </trkpt>
      <trkpt lat="45.32239" lon="14.46403">
        <ele>82</ele>
        <time>2016-07-17T12:49:58Z</time>
      </trkpt>
      <trkpt lat="45.32239" lon="14.46404">
        <ele>82</ele>
        <time>2016-07-17T12:51:58Z</time>
      </trkpt>
      <trkpt lat="45.32238" lon="14.46436">
        <ele>84</ele>
        <time>2016-07-17T12:53:58Z</time>
      </trkpt>
      <trkpt lat="45.32239" lon="14.4646">
        <ele>85</ele>
        <time>2016-07-17T12:55:58Z</time>
      </trkpt>
      <trkpt lat="45.32241" lon="14.46484">
        <ele>86</ele>
        <time>2016-07-17T12:57:58Z</time>
      </trkpt>
      <trkpt lat="45.32245" lon="14.46519">
        <ele>88</ele>
        <time>2016-07-17T12:59:58Z</time>
      </trkpt>
      <trkpt lat="45.32247" lon="14.46534">
        <ele>89</ele>
        <time>2016-07-17T13:01:58Z</time>
      </trkpt>
      <trkpt lat="45.32248" lon="14.46542">
        <ele>90</ele>
        <time>2016-07-17T13:03:58Z</time>
      </trkpt>
      <trkpt lat="45.32249" lon="14.46559">
        <ele>91</ele>
        <time>2016-07-17T13:05:58Z</time>
      </trkpt>
      <trkpt lat="45.32253" lon="14.46575">
        <ele>92</ele>
        <time>2016-07-17T13:07:58Z</time>
      </trkpt>
      <trkpt lat="45.32256" lon="14.46591">
        <ele>93</ele>
        <time>2016-07-17T13:09:58Z</time>
      </trkpt>
      <trkpt lat="45.32261" lon="14.46603">
        <ele>94</ele>
        <time>2016-07-17T13:11:58Z</time>
      </trkpt>
      <trkpt lat="45.32266" lon="14.46613">
        <ele>95</ele>
        <time>2016-07-17T13:13:58Z</time>
      </trkpt>
      <trkpt lat="45.32268" lon="14.46617">
        <ele>95</ele>
        <time>2016-07-17T13:15:58Z</time>
      </trkpt>
      <trkpt lat="45.32277" lon="14.4663">
        <ele>96</ele>
        <time>2016-07-17T13:17:58Z</time>
      </trkpt>
      <trkpt lat="45.3228" lon="14.46635">
        <ele>97</ele>
        <time>2016-07-17T13:19:58Z</time>
      </trkpt>
      <trkpt lat="45.32293" lon="14.46654">
        <ele>98</ele>
        <time>2016-07-17T13:21:58Z</time>
      </trkpt>
      <trkpt lat="45.32297" lon="14.46659">
        <ele>99</ele>
        <time>2016-07-17T13:23:58Z</time>
      </trkpt>
      <trkpt lat="45.32309" lon="14.46674">
        <ele>100</ele>
        <time>2016-07-17T13:25:58Z</time>
      </trkpt>
      <trkpt lat="45.3232" lon="14.46685">
        <ele>101</ele>
        <time>2016-07-17T13:27:58Z</time>
      </trkpt>
      <trkpt lat="45.32322" lon="14.46687">
        <ele>101</ele>
        <time>2016-07-17T13:29:58Z</time>
      </trkpt>
      <trkpt lat="45.32326" lon="14.46691">
        <ele>101</ele>
        <time>2016-07-17T13:31:58Z</time>
      </trkpt>
      <trkpt lat="45.32337" lon="14.46701">
        <ele>102</ele>
        <time>2016-07-17T13:33:58Z</time>
      </trkpt>
      <trkpt lat="45.32343" lon="14.46705">
        <ele>103</ele>
        <time>2016-07-17T13:35:58Z</time>
      </trkpt>
      <trkpt lat="45.32355" lon="14.46715">
        <ele>104</ele>
        <time>2016-07-17T13:37:58Z</time>
      </trkpt>
      <trkpt lat="45.32371" lon="14.46728">
        <ele>107</ele>
        <time>2016-07-17T13:39:58Z</time>
      </trkpt>
      <trkpt lat="45.32376" lon="14.46735">
        <ele>108</ele>
        <time>2016-07-17T13:41:58Z</time>
      </trkpt>
      <trkpt lat="45.32404" lon="14.46788">
        <ele>110</ele>
        <time>2016-07-17T13:43:58Z</time>
      </trkpt>
      <trkpt lat="45.32425" lon="14.46825">
        <ele>108</ele>
        <time>2016-07-17T13:45:58Z</time>
      </trkpt>
      <trkpt lat="45.3244" lon="14.46853">
        <ele>108</ele>
        <time>2016-07-17T13:47:58Z</time>
      </trkpt>
      <trkpt lat="45.32445" lon="14.46864">
        <ele>108</ele>
        <time>2016-07-17T13:49:58Z</time>
      </trkpt>
      <trkpt lat="45.32445" lon="14.46864">
        <ele>108</ele>
        <time>2016-07-17T13:51:58Z</time>
      </trkpt>
      <trkpt lat="45.32487" lon="14.46973">
        <ele>115</ele>
        <time>2016-07-17T13:53:58Z</time>
      </trkpt>
      <trkpt lat="45.32512" lon="14.47038">
        <ele>121</ele>
        <time>2016-07-17T13:55:58Z</time>
      </trkpt>
      <trkpt lat="45.32537" lon="14.47105">
        <ele>124</ele>
        <time>2016-07-17T13:57:58Z</time>
      </trkpt>
      <trkpt lat="45.32542" lon="14.47119">
        <ele>125</ele>
        <time>2016-07-17T13:59:58Z</time>
      </trkpt>
      <trkpt lat="45.32545" lon="14.47132">
        <ele>125</ele>
        <time>2016-07-17T14:01:58Z</time>
      </trkpt>
      <trkpt lat="45.32546" lon="14.47141">
        <ele>125</ele>
        <time>2016-07-17T14:03:58Z</time>
      </trkpt>
      <trkpt lat="45.32548" lon="14.47154">
        <ele>125</ele>
        <time>2016-07-17T14:05:58Z</time>
      </trkpt>
      <trkpt lat="45.32549" lon="14.47162">
        <ele>125</ele>
        <time>2016-07-17T14:07:58Z</time>
      </trkpt>
      <trkpt lat="45.32549" lon="14.47175">
        <ele>124</ele>
        <time>2016-07-17T14:09:58Z</time>
      </trkpt>
      <trkpt lat="45.32549" lon="14.47188">
        <ele>124</ele>
        <time>2016-07-17T14:11:58Z</time>
      </trkpt>
      <trkpt lat="45.32547" lon="14.47243">
        <ele>123</ele>
        <time>2016-07-17T14:13:58Z</time>
      </trkpt>
      <trkpt lat="45.32546" lon="14.47257">
        <ele>122</ele>
        <time>2016-07-17T14:15:58Z</time>
      </trkpt>
      <trkpt lat="45.32546" lon="14.47267">
        <ele>122</ele>
        <time>2016-07-17T14:17:58Z</time>
      </trkpt>
      <trkpt lat="45.32547" lon="14.4728">
        <ele>121</ele>
        <time>2016-07-17T14:19:58Z</time>
      </trkpt>
      <trkpt lat="45.32549" lon="14.47293">
        <ele>121</ele>
        <time>2016-07-17T14:21:58Z</time>
      </trkpt>
      <trkpt lat="45.32553" lon="14.47323">
        <ele>120</ele>
        <time>2016-07-17T14:23:58Z</time>
      </trkpt>
      <trkpt lat="45.32557" lon="14.4735">
        <ele>120</ele>
        <time>2016-07-17T14:25:58Z</time>
      </trkpt>
      <trkpt lat="45.3256" lon="14.47368">
        <ele>120</ele>
        <time>2016-07-17T14:27:58Z</time>
      </trkpt>
      <trkpt lat="45.32563" lon="14.47378">
        <ele>120</ele>
        <time>2016-07-17T14:29:58Z</time>
      </trkpt>
      <trkpt lat="45.32574" lon="14.47414">
        <ele>121</ele>
        <time>2016-07-17T14:31:58Z</time>
      </trkpt>
      <trkpt lat="45.32589" lon="14.47464">
        <ele>122</ele>
        <time>2016-07-17T14:33:58Z</time>
      </trkpt>
      <trkpt lat="45.32591" lon="14.4747">
        <ele>122</ele>
        <time>2016-07-17T14:35:58Z</time>
      </trkpt>
      <trkpt lat="45.32593" lon="14.47478">
        <ele>122</ele>
        <time>2016-07-17T14:37:58Z</time>
      </trkpt>
      <trkpt lat="45.32593" lon="14.47478">
        <ele>122</ele>
        <time>2016-07-17T14:39:58Z</time>
      </trkpt>
      <trkpt lat="45.32594" lon="14.47483">
        <ele>122</ele>
        <time>2016-07-17T14:41:58Z</time>
      </trkpt>
      <trkpt lat="45.32594" lon="14.4749">
        <ele>122</ele>
        <time>2016-07-17T14:43:58Z</time>
      </trkpt>
      <trkpt lat="45.32592" lon="14.475">
        <ele>122</ele>
        <time>2016-07-17T14:45:58Z</time>
      </trkpt>
      <trkpt lat="45.32588" lon="14.47511">
        <ele>121</ele>
        <time>2016-07-17T14:47:58Z</time>
      </trkpt>
      <trkpt lat="45.32584" lon="14.47523">
        <ele>121</ele>
        <time>2016-07-17T14:49:58Z</time>
      </trkpt>
      <trkpt lat="45.32575" lon="14.47547">
        <ele>121</ele>
        <time>2016-07-17T14:51:58Z</time>
      </trkpt>
      <trkpt lat="45.32572" lon="14.47555">
        <ele>121</ele>
        <time>2016-07-17T14:53:58Z</time>
      </trkpt>
      <trkpt lat="45.32569" lon="14.47565">
        <ele>121</ele>
        <time>2016-07-17T14:55:58Z</time>
      </trkpt>
      <trkpt lat="45.32566" lon="14.47573">
        <ele>121</ele>
        <time>2016-07-17T14:57:58Z</time>
      </trkpt>
      <trkpt lat="45.32566" lon="14.47577">
        <ele>121</ele>
        <time>2016-07-17T14:59:58Z</time>
      </trkpt>
      <trkpt lat="45.32564" lon="14.4759">
        <ele>121</ele>
        <time>2016-07-17T15:01:58Z</time>
      </trkpt>
      <trkpt lat="45.32563" lon="14.47601">
        <ele>122</ele>
        <time>2016-07-17T15:03:58Z</time>
      </trkpt>
      <trkpt lat="45.32581" lon="14.47653">
        <ele>124</ele>
        <time>2016-07-17T15:05:58Z</time>
      </trkpt>
      <trkpt lat="45.32581" lon="14.47653">
        <ele>124</ele>
        <time>2016-07-17T15:07:58Z</time>
      </trkpt>
      <trkpt lat="45.32585" lon="14.47666">
        <ele>125</ele>
        <time>2016-07-17T15:09:58Z</time>
      </trkpt>
      <trkpt lat="45.32588" lon="14.47672">
        <ele>126</ele>
        <time>2016-07-17T15:11:58Z</time>
      </trkpt>
      <trkpt lat="45.32591" lon="14.47678">
        <ele>127</ele>
        <time>2016-07-17T15:13:58Z</time>
      </trkpt>
      <trkpt lat="45.32597" lon="14.47688">
        <ele>128</ele>
        <time>2016-07-17T15:15:58Z</time>
      </trkpt>
      <trkpt lat="45.32606" lon="14.47699">
        <ele>129</ele>
        <time>2016-07-17T15:17:58Z</time>
      </trkpt>
      <trkpt lat="45.32609" lon="14.47701">
        <ele>130</ele>
        <time>2016-07-17T15:19:58Z</time>
      </trkpt>
      <trkpt lat="45.32611" lon="14.47702">
        <ele>130</ele>
        <time>2016-07-17T15:21:58Z</time>
      </trkpt>
      <trkpt lat="45.32614" lon="14.47704">
        <ele>130</ele>
        <time>2016-07-17T15:23:58Z</time>
      </trkpt>
      <trkpt lat="45.32616" lon="14.47705">
        <ele>130</ele>
        <time>2016-07-17T15:25:58Z</time>
      </trkpt>
      <trkpt lat="45.32619" lon="14.47706">
        <ele>131</ele>
        <time>2016-07-17T15:27:58Z</time>
      </trkpt>
      <trkpt lat="45.32622" lon="14.47706">
        <ele>131</ele>
        <time>2016-07-17T15:29:58Z</time>
      </trkpt>
      <trkpt lat="45.32625" lon="14.47706">
        <ele>131</ele>
        <time>2016-07-17T15:31:58Z</time>
      </trkpt>
      <trkpt lat="45.3263" lon="14.47706">
        <ele>131</ele>
        <time>2016-07-17T15:33:58Z</time>
      </trkpt>
      <trkpt lat="45.32634" lon="14.47705">
        <ele>131</ele>
        <time>2016-07-17T15:35:58Z</time>
      </trkpt>
      <trkpt lat="45.3264" lon="14.47703">
        <ele>131</ele>
        <time>2016-07-17T15:37:58Z</time>
      </trkpt>
      <trkpt lat="45.32645" lon="14.477">
        <ele>131</ele>
        <time>2016-07-17T15:39:58Z</time>
      </trkpt>
      <trkpt lat="45.3265" lon="14.47697">
        <ele>131</ele>
        <time>2016-07-17T15:41:58Z</time>
      </trkpt>
      <trkpt lat="45.32661" lon="14.4769">
        <ele>131</ele>
        <time>2016-07-17T15:43:58Z</time>
      </trkpt>
      <trkpt lat="45.32668" lon="14.47686">
        <ele>130</ele>
        <time>2016-07-17T15:45:58Z</time>
      </trkpt>
      <trkpt lat="45.3268" lon="14.47679">
        <ele>129</ele>
        <time>2016-07-17T15:47:58Z</time>
      </trkpt>
      <trkpt lat="45.32684" lon="14.47677">
        <ele>129</ele>
        <time>2016-07-17T15:49:58Z</time>
      </trkpt>
      <trkpt lat="45.32689" lon="14.47675">
        <ele>129</ele>
        <time>2016-07-17T15:51:58Z</time>
      </trkpt>
      <trkpt lat="45.32691" lon="14.47674">
        <ele>129</ele>
        <time>2016-07-17T15:53:58Z</time>
      </trkpt>
      <trkpt lat="45.32693" lon="14.47674">
        <ele>129</ele>
        <time>2016-07-17T15:55:58Z</time>
      </trkpt>
      <trkpt lat="45.32696" lon="14.47673">
        <ele>129</ele>
        <time>2016-07-17T15:57:58Z</time>
      </trkpt>
      <trkpt lat="45.327" lon="14.47674">
        <ele>129</ele>
        <time>2016-07-17T15:59:58Z</time>
      </trkpt>
      <trkpt lat="45.32703" lon="14.47674">
        <ele>129</ele>
        <time>2016-07-17T16:01:58Z</time>
      </trkpt>
      <trkpt lat="45.32707" lon="14.47675">
        <ele>129</ele>
        <time>2016-07-17T16:03:58Z</time>
      </trkpt>
      <trkpt lat="45.32712" lon="14.47678">
        <ele>129</ele>
        <time>2016-07-17T16:05:58Z</time>
      </trkpt>
      <trkpt lat="45.32714" lon="14.47679">
        <ele>129</ele>
        <time>2016-07-17T16:07:58Z</time>
      </trkpt>
      <trkpt lat="45.3272" lon="14.47685">
        <ele>128</ele>
        <time>2016-07-17T16:09:58Z</time>
      </trkpt>
      <trkpt lat="45.32721" lon="14.47685">
        <ele>128</ele>
        <time>2016-07-17T16:11:58Z</time>
      </trkpt>
      <trkpt lat="45.32722" lon="14.47686">
        <ele>128</ele>
        <time>2016-07-17T16:13:58Z</time>
      </trkpt>
      <trkpt lat="45.32727" lon="14.47691">
        <ele>128</ele>
        <time>2016-07-17T16:15:58Z</time>
      </trkpt>
      <trkpt lat="45.32729" lon="14.47695">
        <ele>128</ele>
        <time>2016-07-17T16:17:58Z</time>
      </trkpt>
      <trkpt lat="45.32732" lon="14.47701">
        <ele>127</ele>
        <time>2016-07-17T16:19:58Z</time>
      </trkpt>
      <trkpt lat="45.32734" lon="14.47705">
        <ele>127</ele>
        <time>2016-07-17T16:21:58Z</time>
      </trkpt>
      <trkpt lat="45.32735" lon="14.47707">
        <ele>127</ele>
        <time>2016-07-17T16:23:58Z</time>
      </trkpt>
      <trkpt lat="45.32736" lon="14.47713">
        <ele>126</ele>
        <time>2016-07-17T16:25:58Z</time>
      </trkpt>
      <trkpt lat="45.32737" lon="14.47719">
        <ele>126</ele>
        <time>2016-07-17T16:27:58Z</time>
      </trkpt>
      <trkpt lat="45.32738" lon="14.47727">
        <ele>125</ele>
        <time>2016-07-17T16:29:58Z</time>
      </trkpt>
      <trkpt lat="45.32738" lon="14.47735">
        <ele>124</ele>
        <time>2016-07-17T16:31:58Z</time>
      </trkpt>
      <trkpt lat="45.32737" lon="14.47743">
        <ele>124</ele>
        <time>2016-07-17T16:33:58Z</time>
      </trkpt>
      <trkpt lat="45.32736" lon="14.47751">
        <ele>124</ele>
        <time>2016-07-17T16:35:58Z</time>
      </trkpt>
      <trkpt lat="45.32732" lon="14.47766">
        <ele>123</ele>
        <time>2016-07-17T16:37:58Z</time>
      </trkpt>
      <trkpt lat="45.32722" lon="14.47797">
        <ele>124</ele>
        <time>2016-07-17T16:39:58Z</time>
      </trkpt>
      <trkpt lat="45.32712" lon="14.47827">
        <ele>125</ele>
        <time>2016-07-17T16:41:58Z</time>
      </trkpt>
      <trkpt lat="45.32705" lon="14.47842">
        <ele>127</ele>
        <time>2016-07-17T16:43:58Z</time>
      </trkpt>
      <trkpt lat="45.327" lon="14.47859">
        <ele>128</ele>
        <time>2016-07-17T16:45:58Z</time>
      </trkpt>
      <trkpt lat="45.32698" lon="14.4787">
        <ele>128</ele>
        <time>2016-07-17T16:47:58Z</time>
      </trkpt>
      <trkpt lat="45.32695" lon="14.47881">
        <ele>129</ele>
        <time>2016-07-17T16:49:58Z</time>
      </trkpt>
      <trkpt lat="45.32694" lon="14.47893">
        <ele>129</ele>
        <time>2016-07-17T16:51:58Z</time>
      </trkpt>
      <trkpt lat="45.32693" lon="14.47904">
        <ele>128</ele>
        <time>2016-07-17T16:53:58Z</time>
      </trkpt>
      <trkpt lat="45.32693" lon="14.47916">
        <ele>128</ele>
        <time>2016-07-17T16:55:58Z</time>
      </trkpt>
      <trkpt lat="45.32693" lon="14.47928">
        <ele>127</ele>
        <time>2016-07-17T16:57:58Z</time>
      </trkpt>
      <trkpt lat="45.32694" lon="14.47941">
        <ele>126</ele>
        <time>2016-07-17T16:59:58Z</time>
      </trkpt>
      <trkpt lat="45.32695" lon="14.47945">
        <ele>125</ele>
        <time>2016-07-17T17:01:58Z</time>
      </trkpt>
      <trkpt lat="45.32699" lon="14.47958">
        <ele>123</ele>
        <time>2016-07-17T17:03:58Z</time>
      </trkpt>
      <trkpt lat="45.32708" lon="14.47989">
        <ele>118</ele>
        <time>2016-07-17T17:05:58Z</time>
      </trkpt>
      <trkpt lat="45.32708" lon="14.4799">
        <ele>118</ele>
        <time>2016-07-17T17:07:58Z</time>
      </trkpt>
      <trkpt lat="45.32716" lon="14.48011">
        <ele>114</ele>
        <time>2016-07-17T17:09:58Z</time>
      </trkpt>
      <trkpt lat="45.32719" lon="14.48019">
        <ele>113</ele>
        <time>2016-07-17T17:11:58Z</time>
      </trkpt>
      <trkpt lat="45.32721" lon="14.48027">
        <ele>112</ele>
        <time>2016-07-17T17:13:58Z</time>
      </trkpt>
      <trkpt lat="45.32723" lon="14.48038">
        <ele>110</ele>
        <time>2016-07-17T17:15:58Z</time>
      </trkpt>
      <trkpt lat="45.32724" lon="14.48046">
        <ele>110</ele>
        <time>2016-07-17T17:17:58Z</time>
      </trkpt>
      <trkpt lat="45.32724" lon="14.48053">
        <ele>109</ele>
        <time>2016-07-17T17:19:58Z</time>
      </trkpt>
      <trkpt lat="45.32724" lon="14.48064">
        <ele>109</ele>
        <time>2016-07-17T17:21:58Z</time>
      </trkpt>
      <trkpt lat="45.32721" lon="14.48097">
        <ele>108</ele>
        <time>2016-07-17T17:23:58Z</time>
      </trkpt>
      <trkpt lat="45.32717" lon="14.48131">
        <ele>109</ele>
        <time>2016-07-17T17:25:58Z</time>
      </trkpt>
      <trkpt lat="45.32717" lon="14.48131">
        <ele>109</ele>
        <time>2016-07-17T17:27:58Z</time>
      </trkpt>
      <trkpt lat="45.32716" lon="14.48137">
        <ele>109</ele>
        <time>2016-07-17T17:29:58Z</time>
      </trkpt>
      <trkpt lat="45.32713" lon="14.48162">
        <ele>110</ele>
        <time>2016-07-17T17:31:58Z</time>
      </trkpt>
      <trkpt lat="45.32707" lon="14.48222">
        <ele>110</ele>
        <time>2016-07-17T17:33:58Z</time>
      </trkpt>
      <trkpt lat="45.32706" lon="14.48267">
        <ele>109</ele>
        <time>2016-07-17T17:35:58Z</time>
      </trkpt>
      <trkpt lat="45.32703" lon="14.48323">
        <ele>109</ele>
        <time>2016-07-17T17:37:58Z</time>
      </trkpt>
      <trkpt lat="45.32702" lon="14.48346">
        <ele>109</ele>
        <time>2016-07-17T17:39:58Z</time>
      </trkpt>
      <trkpt lat="45.32701" lon="14.48362">
        <ele>108</ele>
        <time>2016-07-17T17:41:58Z</time>
      </trkpt>
      <trkpt lat="45.32701" lon="14.48367">
        <ele>108</ele>
        <time>2016-07-17T17:43:58Z</time>
      </trkpt>
      <trkpt lat="45.32701" lon="14.48374">
        <ele>108</ele>
        <time>2016-07-17T17:45:58Z</time>
      </trkpt>
      <trkpt lat="45.32702" lon="14.48382">
        <ele>107</ele>
        <time>2016-07-17T17:47:58Z</time>
      </trkpt>
      <trkpt lat="45.32704" lon="14.48389">
        <ele>107</ele>
        <time>2016-07-17T17:49:58Z</time>
      </trkpt>
      <trkpt lat="45.32706" lon="14.48399">
        <ele>106</ele>
        <time>2016-07-17T17:51:58Z</time>
      </trkpt>
      <trkpt lat="45.32707" lon="14.48405">
        <ele>106</ele>
        <time>2016-07-17T17:53:58Z</time>
      </trkpt>
      <trkpt lat="45.32708" lon="14.48412">
        <ele>105</ele>
        <time>2016-07-17T17:55:58Z</time>
      </trkpt>
      <trkpt lat="45.32711" lon="14.48423">
        <ele>104</ele>
        <time>2016-07-17T17:57:58Z</time>
      </trkpt>
      <trkpt lat="45.32711" lon="14.48429">
        <ele>104</ele>
        <time>2016-07-17T17:59:58Z</time>
      </trkpt>
      <trkpt lat="45.32712" lon="14.48437">
        <ele>104</ele>
        <time>2016-07-17T18:01:58Z</time>
      </trkpt>
      <trkpt lat="45.32712" lon="14.48444">
        <ele>103</ele>
        <time>2016-07-17T18:03:58Z</time>
      </trkpt>
      <trkpt lat="45.32712" lon="14.4845">
        <ele>103</ele>
        <time>2016-07-17T18:05:58Z</time>
      </trkpt>
      <trkpt lat="45.32712" lon="14.48457">
        <ele>103</ele>
        <time>2016-07-17T18:07:58Z</time>
      </trkpt>
      <trkpt lat="45.3271" lon="14.48465">
        <ele>103</ele>
        <time>2016-07-17T18:09:58Z</time>
      </trkpt>
      <trkpt lat="45.32705" lon="14.48489">
        <ele>102</ele>
        <time>2016-07-17T18:11:58Z</time>
      </trkpt>
      <trkpt lat="45.32698" lon="14.48517">
        <ele>101</ele>
        <time>2016-07-17T18:13:58Z</time>
      </trkpt>
      <trkpt lat="45.32695" lon="14.48533">
        <ele>101</ele>
        <time>2016-07-17T18:15:58Z</time>
      </trkpt>
      <trkpt lat="45.32691" lon="14.48553">
        <ele>101</ele>
        <time>2016-07-17T18:17:58Z</time>
      </trkpt>
      <trkpt lat="45.32688" lon="14.4857">
        <ele>100</ele>
        <time>2016-07-17T18:19:58Z</time>
      </trkpt>
      <trkpt lat="45.32686" lon="14.48579">
        <ele>100</ele>
        <time>2016-07-17T18:21:58Z</time>
      </trkpt>
      <trkpt lat="45.32684" lon="14.48589">
        <ele>100</ele>
        <time>2016-07-17T18:23:58Z</time>
      </trkpt>
      <trkpt lat="45.3268" lon="14.48601">
        <ele>99</ele>
        <time>2016-07-17T18:25:58Z</time>
      </trkpt>
      <trkpt lat="45.32675" lon="14.48614">
        <ele>98</ele>
        <time>2016-07-17T18:27:58Z</time>
      </trkpt>
      <trkpt lat="45.3267" lon="14.48624">
        <ele>97</ele>
        <time>2016-07-17T18:29:58Z</time>
      </trkpt>
      <trkpt lat="45.32665" lon="14.48633">
        <ele>97</ele>
        <time>2016-07-17T18:31:58Z</time>
      </trkpt>
      <trkpt lat="45.32663" lon="14.48636">
        <ele>97</ele>
        <time>2016-07-17T18:33:58Z</time>
      </trkpt>
      <trkpt lat="45.32659" lon="14.48644">
        <ele>97</ele>
        <time>2016-07-17T18:35:58Z</time>
      </trkpt>
      <trkpt lat="45.32655" lon="14.48651">
        <ele>97</ele>
        <time>2016-07-17T18:37:58Z</time>
      </trkpt>
      <trkpt lat="45.32649" lon="14.48663">
        <ele>97</ele>
        <time>2016-07-17T18:39:58Z</time>
      </trkpt>
      <trkpt lat="45.32642" lon="14.48678">
        <ele>98</ele>
        <time>2016-07-17T18:41:58Z</time>
      </trkpt>
      <trkpt lat="45.32636" lon="14.48693">
        <ele>98</ele>
        <time>2016-07-17T18:43:58Z</time>
      </trkpt>
      <trkpt lat="45.32631" lon="14.48711">
        <ele>98</ele>
        <time>2016-07-17T18:45:58Z</time>
      </trkpt>
      <trkpt lat="45.32625" lon="14.48728">
        <ele>97</ele>
        <time>2016-07-17T18:47:58Z</time>
      </trkpt>
      <trkpt lat="45.32615" lon="14.48762">
        <ele>95</ele>
        <time>2016-07-17T18:49:58Z</time>
      </trkpt>
      <trkpt lat="45.3261" lon="14.48782">
        <ele>94</ele>
        <time>2016-07-17T18:51:58Z</time>
      </trkpt>
      <trkpt lat="45.32607" lon="14.48795">
        <ele>94</ele>
        <time>2016-07-17T18:53:58Z</time>
      </trkpt>
      <trkpt lat="45.32606" lon="14.48798">
        <ele>93</ele>
        <time>2016-07-17T18:55:58Z</time>
      </trkpt>
      <trkpt lat="45.32602" lon="14.48814">
        <ele>92</ele>
        <time>2016-07-17T18:57:58Z</time>
      </trkpt>
      <trkpt lat="45.32598" lon="14.48828">
        <ele>91</ele>
        <time>2016-07-17T18:59:58Z</time>
      </trkpt>
      <trkpt lat="45.32595" lon="14.48838">
        <ele>90</ele>
        <time>2016-07-17T19:01:58Z</time>
      </trkpt>
      <trkpt lat="45.32591" lon="14.48848">
        <ele>90</ele>
        <time>2016-07-17T19:03:58Z</time>
      </trkpt>
      <trkpt lat="45.32587" lon="14.4886">
        <ele>90</ele>
        <time>2016-07-17T19:05:58Z</time>
      </trkpt>
      <trkpt lat="45.32583" lon="14.48868">
        <ele>90</ele>
        <time>2016-07-17T19:07:58Z</time>
      </trkpt>
      <trkpt lat="45.32578" lon="14.48879">
        <ele>91</ele>
        <time>2016-07-17T19:09:58Z</time>
      </trkpt>
      <trkpt lat="45.32573" lon="14.48889">
        <ele>91</ele>
        <time>2016-07-17T19:11:58Z</time>
      </trkpt>
      <trkpt lat="45.32568" lon="14.48902">
        <ele>91</ele>
        <time>2016-07-17T19:13:58Z</time>
      </trkpt>
      <trkpt lat="45.32563" lon="14.48918">
        <ele>91</ele>
        <time>2016-07-17T19:15:58Z</time>
      </trkpt>
      <trkpt lat="45.32558" lon="14.48935">
        <ele>91</ele>
        <time>2016-07-17T19:17:58Z</time>
      </trkpt>
      <trkpt lat="45.32551" lon="14.4896">
        <ele>90</ele>
        <time>2016-07-17T19:19:58Z</time>
      </trkpt>
      <trkpt lat="45.32546" lon="14.4898">
        <ele>89</ele>
        <time>2016-07-17T19:21:58Z</time>
      </trkpt>
      <trkpt lat="45.32544" lon="14.48993">
        <ele>88</ele>
        <time>2016-07-17T19:23:58Z</time>
      </trkpt>
      <trkpt lat="45.32544" lon="14.48993">
        <ele>88</ele>
        <time>2016-07-17T19:25:58Z</time>
      </trkpt>
      <trkpt lat="45.32536" lon="14.49032">
        <ele>89</ele>
        <time>2016-07-17T19:27:58Z</time>
      </trkpt>
      <trkpt lat="45.32533" lon="14.49048">
        <ele>89</ele>
        <time>2016-07-17T19:29:58Z</time>
      </trkpt>
      <trkpt lat="45.3253" lon="14.49066">
        <ele>89</ele>
        <time>2016-07-17T19:31:58Z</time>
      </trkpt>
      <trkpt lat="45.32528" lon="14.49079">
        <ele>90</ele>
        <time>2016-07-17T19:33:58Z</time>
      </trkpt>
      <trkpt lat="45.32527" lon="14.49094">
        <ele>90</ele>
        <time>2016-07-17T19:35:58Z</time>
      </trkpt>
      <trkpt lat="45.32525" lon="14.49108">
        <ele>90</ele>
        <time>2016-07-17T19:37:58Z</time>
      </trkpt>
      <trkpt lat="45.32525" lon="14.49122">
        <ele>91</ele>
        <time>2016-07-17T19:39:58Z</time>
      </trkpt>
      <trkpt lat="45.32525" lon="14.49132">
        <ele>91</ele>
        <time>2016-07-17T19:41:58Z</time>
      </trkpt>
      <trkpt lat="45.32524" lon="14.49148">
        <ele>92</ele>
        <time>2016-07-17T19:43:58Z</time>
      </trkpt>
      <trkpt lat="45.32523" lon="14.4916">
        <ele>92</ele>
        <time>2016-07-17T19:45:58Z</time>
      </trkpt>
      <trkpt lat="45.32521" lon="14.49175">
        <ele>92</ele>
        <time>2016-07-17T19:47:58Z</time>
      </trkpt>
      <trkpt lat="45.32519" lon="14.49185">
        <ele>93</ele>
        <time>2016-07-17T19:49:58Z</time>
      </trkpt>
      <trkpt lat="45.32516" lon="14.49194">
        <ele>92</ele>
        <time>2016-07-17T19:51:58Z</time>
      </trkpt>
      <trkpt lat="45.32514" lon="14.49202">
        <ele>92</ele>
        <time>2016-07-17T19:53:58Z</time>
      </trkpt>
      <trkpt lat="45.32511" lon="14.49211">
        <ele>92</ele>
        <time>2016-07-17T19:55:58Z</time>
      </trkpt>
      <trkpt lat="45.32507" lon="14.49224">
        <ele>92</ele>
        <time>2016-07-17T19:57:58Z</time>
      </trkpt>
      <trkpt lat="45.32503" lon="14.49235">
        <ele>91</ele>
        <time>2016-07-17T19:59:58Z</time>
      </trkpt>
      <trkpt lat="45.325" lon="14.49244">
        <ele>91</ele>
        <time>2016-07-17T20:01:58Z</time>
      </trkpt>
      <trkpt lat="45.32494" lon="14.4926">
        <ele>91</ele>
        <time>2016-07-17T20:03:58Z</time>
      </trkpt>
      <trkpt lat="45.32489" lon="14.49272">
        <ele>91</ele>
        <time>2016-07-17T20:05:58Z</time>
      </trkpt>
      <trkpt lat="45.32485" lon="14.49282">
        <ele>92</ele>
        <time>2016-07-17T20:07:58Z</time>
      </trkpt>
      <trkpt lat="45.32483" lon="14.49287">
        <ele>92</ele>
        <time>2016-07-17T20:09:58Z</time>
      </trkpt>
      <trkpt lat="45.32482" lon="14.49292">
        <ele>92</ele>
        <time>2016-07-17T20:11:58Z</time>
      </trkpt>
      <trkpt lat="45.3248" lon="14.49302">
        <ele>93</ele>
        <time>2016-07-17T20:13:58Z</time>
      </trkpt>
      <trkpt lat="45.32478" lon="14.49311">
        <ele>93</ele>
        <time>2016-07-17T20:15:58Z</time>
      </trkpt>
      <trkpt lat="45.32475" lon="14.49322">
        <ele>93</ele>
        <time>2016-07-17T20:17:58Z</time>
      </trkpt>
      <trkpt lat="45.32472" lon="14.49332">
        <ele>94</ele>
        <time>2016-07-17T20:19:58Z</time>
      </trkpt>
      <trkpt lat="45.32469" lon="14.49347">
        <ele>95</ele>
        <time>2016-07-17T20:21:58Z</time>
      </trkpt>
      <trkpt lat="45.32466" lon="14.49359">
        <ele>96</ele>
        <time>2016-07-17T20:23:58Z</time>
      </trkpt>
      <trkpt lat="45.32463" lon="14.49368">
        <ele>97</ele>
        <time>2016-07-17T20:25:58Z</time>
      </trkpt>
      <trkpt lat="45.32462" lon="14.49374">
        <ele>97</ele>
        <time>2016-07-17T20:27:58Z</time>
      </trkpt>
      <trkpt lat="45.32459" lon="14.49383">
        <ele>98</ele>
        <time>2016-07-17T20:29:58Z</time>
      </trkpt>
      <trkpt lat="45.32455" lon="14.49392">
        <ele>98</ele>
        <time>2016-07-17T20:31:58Z</time>
      </trkpt>
      <trkpt lat="45.32451" lon="14.49399">
        <ele>99</ele>
        <time>2016-07-17T20:33:58Z</time>
      </trkpt>
      <trkpt lat="45.32446" lon="14.49407">
        <ele>99</ele>
        <time>2016-07-17T20:35:58Z</time>
      </trkpt>
      <trkpt lat="45.32436" lon="14.49422">
        <ele>99</ele>
        <time>2016-07-17T20:37:58Z</time>
      </trkpt>
      <trkpt lat="45.32424" lon="14.49437">
        <ele>99</ele>
        <time>2016-07-17T20:39:58Z</time>
      </trkpt>
      <trkpt lat="45.32422" lon="14.49439">
        <ele>99</ele>
        <time>2016-07-17T20:41:58Z</time>
      </trkpt>
      <trkpt lat="45.32413" lon="14.49447">
        <ele>98</ele>
        <time>2016-07-17T20:43:58Z</time>
      </trkpt>
      <trkpt lat="45.32404" lon="14.49455">
        <ele>99</ele>
        <time>2016-07-17T20:45:58Z</time>
      </trkpt>
      <trkpt lat="45.32388" lon="14.49462">
        <ele>99</ele>
        <time>2016-07-17T20:47:58Z</time>
      </trkpt>
      <trkpt lat="45.32376" lon="14.49469">
        <ele>99</ele>
        <time>2016-07-17T20:49:58Z</time>
      </trkpt>
      <trkpt lat="45.32365" lon="14.49476">
        <ele>100</ele>
        <time>2016-07-17T20:51:58Z</time>
      </trkpt>
      <trkpt lat="45.32359" lon="14.49482">
        <ele>101</ele>
        <time>2016-07-17T20:53:58Z</time>
      </trkpt>
      <trkpt lat="45.3235" lon="14.4949">
        <ele>102</ele>
        <time>2016-07-17T20:55:58Z</time>
      </trkpt>
      <trkpt lat="45.32341" lon="14.49499">
        <ele>104</ele>
        <time>2016-07-17T20:57:58Z</time>
      </trkpt>
      <trkpt lat="45.3233" lon="14.4951">
        <ele>105</ele>
        <time>2016-07-17T20:59:58Z</time>
      </trkpt>
      <trkpt lat="45.32321" lon="14.4952">
        <ele>106</ele>
        <time>2016-07-17T21:01:58Z</time>
      </trkpt>
      <trkpt lat="45.32312" lon="14.4953">
        <ele>106</ele>
        <time>2016-07-17T21:03:58Z</time>
      </trkpt>
      <trkpt lat="45.32308" lon="14.49537">
        <ele>107</ele>
        <time>2016-07-17T21:05:58Z</time>
      </trkpt>
      <trkpt lat="45.32306" lon="14.49541">
        <ele>107</ele>
        <time>2016-07-17T21:07:58Z</time>
      </trkpt>
      <trkpt lat="45.323" lon="14.49551">
        <ele>108</ele>
        <time>2016-07-17T21:09:58Z</time>
      </trkpt>
      <trkpt lat="45.32288" lon="14.49572">
        <ele>110</ele>
        <time>2016-07-17T21:11:58Z</time>
      </trkpt>
      <trkpt lat="45.32284" lon="14.49583">
        <ele>111</ele>
        <time>2016-07-17T21:13:58Z</time>
      </trkpt>
      <trkpt lat="45.32277" lon="14.49596">
        <ele>113</ele>
        <time>2016-07-17T21:15:58Z</time>
      </trkpt>
      <trkpt lat="45.32273" lon="14.49603">
        <ele>114</ele>
        <time>2016-07-17T21:17:58Z</time>
      </trkpt>
      <trkpt lat="45.32269" lon="14.49609">
        <ele>115</ele>
        <time>2016-07-17T21:19:58Z</time>
      </trkpt>
      <trkpt lat="45.32264" lon="14.49614">
        <ele>115</ele>
        <time>2016-07-17T21:21:58Z</time>
      </trkpt>
      <trkpt lat="45.32258" lon="14.49619">
        <ele>115</ele>
        <time>2016-07-17T21:23:58Z</time>
      </trkpt>
      <trkpt lat="45.32252" lon="14.49625">
        <ele>116</ele>
        <time>2016-07-17T21:25:58Z</time>
      </trkpt>
      <trkpt lat="45.32246" lon="14.49631">
        <ele>116</ele>
        <time>2016-07-17T21:27:58Z</time>
      </trkpt>
      <trkpt lat="45.3224" lon="14.49636">
        <ele>116</ele>
        <time>2016-07-17T21:29:58Z</time>
      </trkpt>
      <trkpt lat="45.32233" lon="14.49641">
        <ele>116</ele>
        <time>2016-07-17T21:31:58Z</time>
      </trkpt>
      <trkpt lat="45.32225" lon="14.49648">
        <ele>115</ele>
        <time>2016-07-17T21:33:58Z</time>
      </trkpt>
      <trkpt lat="45.32221" lon="14.49653">
        <ele>115</ele>
        <time>2016-07-17T21:35:58Z</time>
      </trkpt>
      <trkpt lat="45.32217" lon="14.49659">
        <ele>116</ele>
        <time>2016-07-17T21:37:58Z</time>
      </trkpt>
      <trkpt lat="45.3221" lon="14.49673">
        <ele>117</ele>
        <time>2016-07-17T21:39:58Z</time>
      </trkpt>
      <trkpt lat="45.32204" lon="14.49684">
        <ele>117</ele>
        <time>2016-07-17T21:41:58Z</time>
      </trkpt>
      <trkpt lat="45.32198" lon="14.49694">
        <ele>118</ele>
        <time>2016-07-17T21:43:58Z</time>
      </trkpt>
      <trkpt lat="45.32191" lon="14.49706">
        <ele>119</ele>
        <time>2016-07-17T21:45:58Z</time>
      </trkpt>
      <trkpt lat="45.32182" lon="14.49718">
        <ele>120</ele>
        <time>2016-07-17T21:47:58Z</time>
      </trkpt>
      <trkpt lat="45.32176" lon="14.49728">
        <ele>121</ele>
        <time>2016-07-17T21:49:58Z</time>
      </trkpt>
      <trkpt lat="45.32171" lon="14.49737">
        <ele>122</ele>
        <time>2016-07-17T21:51:58Z</time>
      </trkpt>
      <trkpt lat="45.32171" lon="14.49737">
        <ele>122</ele>
        <time>2016-07-17T21:53:58Z</time>
      </trkpt>
      <trkpt lat="45.32144" lon="14.49801">
        <ele>127</ele>
        <time>2016-07-17T21:55:58Z</time>
      </trkpt>
      <trkpt lat="45.32132" lon="14.49846">
        <ele>130</ele>
        <time>2016-07-17T21:57:58Z</time>
      </trkpt>
      <trkpt lat="45.32127" lon="14.49885">
        <ele>134</ele>
        <time>2016-07-17T21:59:58Z</time>
      </trkpt>
      <trkpt lat="45.32124" lon="14.49914">
        <ele>137</ele>
        <time>2016-07-17T22:01:58Z</time>
      </trkpt>
      <trkpt lat="45.32112" lon="14.49968">
        <ele>141</ele>
        <time>2016-07-17T22:03:58Z</time>
      </trkpt>
      <trkpt lat="45.32106" lon="14.49989">
        <ele>143</ele>
        <time>2016-07-17T22:05:58Z</time>
      </trkpt>
      <trkpt lat="45.32102" lon="14.5">
        <ele>144</ele>
        <time>2016-07-17T22:07:58Z</time>
      </trkpt>
      <trkpt lat="45.32101" lon="14.50004">
        <ele>144</ele>
        <time>2016-07-17T22:09:58Z</time>
      </trkpt>
      <trkpt lat="45.321" lon="14.50007">
        <ele>144</ele>
        <time>2016-07-17T22:11:58Z</time>
      </trkpt>
      <trkpt lat="45.32096" lon="14.50013">
        <ele>144</ele>
        <time>2016-07-17T22:13:58Z</time>
      </trkpt>
      <trkpt lat="45.32091" lon="14.50018">
        <ele>144</ele>
        <time>2016-07-17T22:15:58Z</time>
      </trkpt>
      <trkpt lat="45.32085" lon="14.50025">
        <ele>144</ele>
        <time>2016-07-17T22:17:58Z</time>
      </trkpt>
      <trkpt lat="45.32081" lon="14.50028">
        <ele>143</ele>
        <time>2016-07-17T22:19:58Z</time>
      </trkpt>
      <trkpt lat="45.32076" lon="14.50034">
        <ele>143</ele>
        <time>2016-07-17T22:21:58Z</time>
      </trkpt>
      <trkpt lat="45.32074" lon="14.50038">
        <ele>142</ele>
        <time>2016-07-17T22:23:58Z</time>
      </trkpt>
      <trkpt lat="45.3207" lon="14.50042">
        <ele>142</ele>
        <time>2016-07-17T22:25:58Z</time>
      </trkpt>
      <trkpt lat="45.32068" lon="14.50046">
        <ele>142</ele>
        <time>2016-07-17T22:27:58Z</time>
      </trkpt>
      <trkpt lat="45.32067" lon="14.5005">
        <ele>142</ele>
        <time>2016-07-17T22:29:58Z</time>
      </trkpt>
      <trkpt lat="45.32065" lon="14.50057">
        <ele>142</ele>
        <time>2016-07-17T22:31:58Z</time>
      </trkpt>
      <trkpt lat="45.32065" lon="14.50064">
        <ele>143</ele>
        <time>2016-07-17T22:33:58Z</time>
      </trkpt>
      <trkpt lat="45.32065" lon="14.50071">
        <ele>144</ele>
        <time>2016-07-17T22:35:58Z</time>
      </trkpt>
      <trkpt lat="45.32065" lon="14.50082">
        <ele>145</ele>
        <time>2016-07-17T22:37:58Z</time>
      </trkpt>
      <trkpt lat="45.32065" lon="14.50092">
        <ele>147</ele>
        <time>2016-07-17T22:39:58Z</time>
      </trkpt>
      <trkpt lat="45.32064" lon="14.50103">
        <ele>148</ele>
        <time>2016-07-17T22:41:58Z</time>
      </trkpt>
      <trkpt lat="45.32064" lon="14.50115">
        <ele>150</ele>
        <time>2016-07-17T22:43:58Z</time>
      </trkpt>
      <trkpt lat="45.32064" lon="14.50115">
        <ele>150</ele>
        <time>2016-07-17T22:45:58Z</time>
      </trkpt>
      <trkpt lat="45.3206" lon="14.50125">
        <ele>150</ele>
        <time>2016-07-17T22:47:58Z</time>
      </trkpt>
      <trkpt lat="45.32055" lon="14.50136">
        <ele>151</ele>
        <time>2016-07-17T22:49:58Z</time>
      </trkpt>
      <trkpt lat="45.32052" lon="14.50144">
        <ele>152</ele>
        <time>2016-07-17T22:51:58Z</time>
      </trkpt>
      <trkpt lat="45.32048" lon="14.50151">
        <ele>152</ele>
        <time>2016-07-17T22:53:58Z</time>
      </trkpt>
      <trkpt lat="45.32044" lon="14.50158">
        <ele>152</ele>
        <time>2016-07-17T22:55:58Z</time>
      </trkpt>
      <trkpt lat="45.3204" lon="14.50164">
        <ele>153</ele>
        <time>2016-07-17T22:57:58Z</time>
      </trkpt>
      <trkpt lat="45.32034" lon="14.50184">
        <ele>154</ele>
        <time>2016-07-17T22:59:58Z</time>
      </trkpt>
      <trkpt lat="45.32031" lon="14.50196">
        <ele>155</ele>
        <time>2016-07-17T23:01:58Z</time>
      </trkpt>
      <trkpt lat="45.32027" lon="14.50209">
        <ele>155</ele>
        <time>2016-07-17T23:03:58Z</time>
      </trkpt>
      <trkpt lat="45.32023" lon="14.5023">
        <ele>156</ele>
        <time>2016-07-17T23:05:58Z</time>
      </trkpt>
      <trkpt lat="45.3202" lon="14.50242">
        <ele>157</ele>
        <time>2016-07-17T23:07:58Z</time>
      </trkpt>
      <trkpt lat="45.32014" lon="14.50261">
        <ele>157</ele>
        <time>2016-07-17T23:09:58Z</time>
      </trkpt>
      <trkpt lat="45.3201" lon="14.50277">
        <ele>158</ele>
        <time>2016-07-17T23:11:58Z</time>
      </trkpt>
      <trkpt lat="45.32006" lon="14.5029">
        <ele>159</ele>
        <time>2016-07-17T23:13:58Z</time>
      </trkpt>
      <trkpt lat="45.31997" lon="14.50315">
        <ele>160</ele>
        <time>2016-07-17T23:15:58Z</time>
      </trkpt>
      <trkpt lat="45.31994" lon="14.50329">
        <ele>161</ele>
        <time>2016-07-17T23:17:58Z</time>
      </trkpt>
      <trkpt lat="45.3199" lon="14.50344">
        <ele>162</ele>
        <time>2016-07-17T23:19:58Z</time>
      </trkpt>
      <trkpt lat="45.31986" lon="14.50361">
        <ele>163</ele>
        <time>2016-07-17T23:21:58Z</time>
      </trkpt>
      <trkpt lat="45.31981" lon="14.50377">
        <ele>163</ele>
        <time>2016-07-17T23:23:58Z</time>
      </trkpt>
      <trkpt lat="45.31977" lon="14.50391">
        <ele>164</ele>
        <time>2016-07-17T23:25:58Z</time>
      </trkpt>
      <trkpt lat="45.31973" lon="14.50401">
        <ele>164</ele>
        <time>2016-07-17T23:27:58Z</time>
      </trkpt>
      <trkpt lat="45.31969" lon="14.50408">
        <ele>164</ele>
        <time>2016-07-17T23:29:58Z</time>
      </trkpt>
      <trkpt lat="45.31961" lon="14.50421">
        <ele>163</ele>
        <time>2016-07-17T23:31:58Z</time>
      </trkpt>
      <trkpt lat="45.31951" lon="14.50435">
        <ele>163</ele>
        <time>2016-07-17T23:33:58Z</time>
      </trkpt>
      <trkpt lat="45.31944" lon="14.50445">
        <ele>162</ele>
        <time>2016-07-17T23:35:58Z</time>
      </trkpt>
      <trkpt lat="45.31937" lon="14.50456">
        <ele>161</ele>
        <time>2016-07-17T23:37:58Z</time>
      </trkpt>
      <trkpt lat="45.31933" lon="14.50464">
        <ele>161</ele>
        <time>2016-07-17T23:39:58Z</time>
      </trkpt>
      <trkpt lat="45.31929" lon="14.50475">
        <ele>161</ele>
        <time>2016-07-17T23:41:58Z</time>
      </trkpt>
      <trkpt lat="45.31928" lon="14.50477">
        <ele>161</ele>
        <time>2016-07-17T23:43:58Z</time>
      </trkpt>
      <trkpt lat="45.31927" lon="14.50485">
        <ele>161</ele>
        <time>2016-07-17T23:45:58Z</time>
      </trkpt>
      <trkpt lat="45.31926" lon="14.50495">
        <ele>161</ele>
        <time>2016-07-17T23:47:58Z</time>
      </trkpt>
      <trkpt lat="45.31925" lon="14.50501">
        <ele>161</ele>
        <time>2016-07-17T23:49:58Z</time>
      </trkpt>
      <trkpt lat="45.31925" lon="14.50512">
        <ele>162</ele>
        <time>2016-07-17T23:51:58Z</time>
      </trkpt>
      <trkpt lat="45.31926" lon="14.5052">
        <ele>162</ele>
        <time>2016-07-17T23:53:58Z</time>
      </trkpt>
      <trkpt lat="45.31926" lon="14.50524">
        <ele>163</ele>
        <time>2016-07-17T23:55:58Z</time>
      </trkpt>
      <trkpt lat="45.31925" lon="14.50527">
        <ele>162</ele>
        <time>2016-07-17T23:57:58Z</time>
      </trkpt>
      <trkpt lat="45.31925" lon="14.50533">
        <ele>163</ele>
        <time>2016-07-17T23:59:58Z</time>
      </trkpt>
      <trkpt lat="45.31924" lon="14.5054">
        <ele>163</ele>
        <time>2016-07-18T00:01:58Z</time>
      </trkpt>
      <trkpt lat="45.31923" lon="14.50546">
        <ele>163</ele>
        <time>2016-07-18T00:03:58Z</time>
      </trkpt>
      <trkpt lat="45.31922" lon="14.5055">
        <ele>162</ele>
        <time>2016-07-18T00:05:58Z</time>
      </trkpt>
      <trkpt lat="45.31917" lon="14.50568">
        <ele>162</ele>
        <time>2016-07-18T00:07:58Z</time>
      </trkpt>
      <trkpt lat="45.31913" lon="14.50587">
        <ele>161</ele>
        <time>2016-07-18T00:09:58Z</time>
      </trkpt>
      <trkpt lat="45.31907" lon="14.50613">
        <ele>162</ele>
        <time>2016-07-18T00:11:58Z</time>
      </trkpt>
      <trkpt lat="45.31905" lon="14.50632">
        <ele>163</ele>
        <time>2016-07-18T00:13:58Z</time>
      </trkpt>
      <trkpt lat="45.31904" lon="14.50644">
        <ele>163</ele>
        <time>2016-07-18T00:15:58Z</time>
      </trkpt>
      <trkpt lat="45.31903" lon="14.50658">
        <ele>164</ele>
        <time>2016-07-18T00:17:58Z</time>
      </trkpt>
      <trkpt lat="45.31902" lon="14.50668">
        <ele>165</ele>
        <time>2016-07-18T00:19:58Z</time>
      </trkpt>
      <trkpt lat="45.31901" lon="14.50679">
        <ele>166</ele>
        <time>2016-07-18T00:21:58Z</time>
      </trkpt>
      <trkpt lat="45.31898" lon="14.5069">
        <ele>166</ele>
        <time>2016-07-18T00:23:58Z</time>
      </trkpt>
      <trkpt lat="45.31895" lon="14.50701">
        <ele>166</ele>
        <time>2016-07-18T00:25:58Z</time>
      </trkpt>
      <trkpt lat="45.31892" lon="14.50709">
        <ele>167</ele>
        <time>2016-07-18T00:27:58Z</time>
      </trkpt>
      <trkpt lat="45.31889" lon="14.50716">
        <ele>167</ele>
        <time>2016-07-18T00:29:58Z</time>
      </trkpt>
      <trkpt lat="45.31882" lon="14.50729">
        <ele>166</ele>
        <time>2016-07-18T00:31:58Z</time>
      </trkpt>
      <trkpt lat="45.31875" lon="14.50742">
        <ele>166</ele>
        <time>2016-07-18T00:33:58Z</time>
      </trkpt>
      <trkpt lat="45.31863" lon="14.5076">
        <ele>166</ele>
        <time>2016-07-18T00:35:58Z</time>
      </trkpt>
      <trkpt lat="45.31853" lon="14.50772">
        <ele>165</ele>
        <time>2016-07-18T00:37:58Z</time>
      </trkpt>
      <trkpt lat="45.31848" lon="14.50779">
        <ele>164</ele>
        <time>2016-07-18T00:39:58Z</time>
      </trkpt>
      <trkpt lat="45.31846" lon="14.50782">
        <ele>164</ele>
        <time>2016-07-18T00:41:58Z</time>
      </trkpt>
      <trkpt lat="45.31844" lon="14.50786">
        <ele>164</ele>
        <time>2016-07-18T00:43:58Z</time>
      </trkpt>
      <trkpt lat="45.31839" lon="14.50796">
        <ele>164</ele>
        <time>2016-07-18T00:45:58Z</time>
      </trkpt>
      <trkpt lat="45.31827" lon="14.50826">
        <ele>163</ele>
        <time>2016-07-18T00:47:58Z</time>
      </trkpt>
      <trkpt lat="45.318" lon="14.50902">
        <ele>159</ele>
        <time>2016-07-18T00:49:58Z</time>
      </trkpt>
      <trkpt lat="45.31776" lon="14.50962">
        <ele>159</ele>
        <time>2016-07-18T00:51:58Z</time>
      </trkpt>
      <trkpt lat="45.31773" lon="14.50967">
        <ele>158</ele>
        <time>2016-07-18T00:53:58Z</time>
      </trkpt>
      <trkpt lat="45.31773" lon="14.50967">
        <ele>158</ele>
        <time>2016-07-18T00:55:58Z</time>
      </trkpt>
      <trkpt lat="45.31735" lon="14.51026">
        <ele>154</ele>
        <time>2016-07-18T00:57:58Z</time>
      </trkpt>
      <trkpt lat="45.31724" lon="14.51071">
        <ele>155</ele>
        <time>2016-07-18T00:59:58Z</time>
      </trkpt>
      <trkpt lat="45.31721" lon="14.51141">
        <ele>160</ele>
        <time>2016-07-18T01:01:58Z</time>
      </trkpt>
      <trkpt lat="45.31717" lon="14.51188">
        <ele>165</ele>
        <time>2016-07-18T01:03:58Z</time>
      </trkpt>
      <trkpt lat="45.31706" lon="14.5123">
        <ele>169</ele>
        <time>2016-07-18T01:05:58Z</time>
      </trkpt>
      <trkpt lat="45.317" lon="14.51248">
        <ele>169</ele>
        <time>2016-07-18T01:07:58Z</time>
      </trkpt>
      <trkpt lat="45.31693" lon="14.51266">
        <ele>168</ele>
        <time>2016-07-18T01:09:58Z</time>
      </trkpt>
      <trkpt lat="45.31691" lon="14.51277">
        <ele>169</ele>
        <time>2016-07-18T01:11:58Z</time>
      </trkpt>
      <trkpt lat="45.31689" lon="14.51288">
        <ele>169</ele>
        <time>2016-07-18T01:13:58Z</time>
      </trkpt>
      <trkpt lat="45.31686" lon="14.51309">
        <ele>170</ele>
        <time>2016-07-18T01:15:58Z</time>
      </trkpt>
      <trkpt lat="45.31684" lon="14.51325">
        <ele>170</ele>
        <time>2016-07-18T01:17:58Z</time>
      </trkpt>
      <trkpt lat="45.31681" lon="14.51361">
        <ele>172</ele>
        <time>2016-07-18T01:19:58Z</time>
      </trkpt>
      <trkpt lat="45.31681" lon="14.51373">
        <ele>173</ele>
        <time>2016-07-18T01:21:58Z</time>
      </trkpt>
      <trkpt lat="45.3168" lon="14.51383">
        <ele>174</ele>
        <time>2016-07-18T01:23:58Z</time>
      </trkpt>
      <trkpt lat="45.31674" lon="14.51411">
        <ele>173</ele>
        <time>2016-07-18T01:25:58Z</time>
      </trkpt>
      <trkpt lat="45.3167" lon="14.51429">
        <ele>174</ele>
        <time>2016-07-18T01:27:58Z</time>
      </trkpt>
      <trkpt lat="45.31669" lon="14.51441">
        <ele>175</ele>
        <time>2016-07-18T01:29:58Z</time>
      </trkpt>
      <trkpt lat="45.31668" lon="14.5145">
        <ele>176</ele>
        <time>2016-07-18T01:31:58Z</time>
      </trkpt>
      <trkpt lat="45.31667" lon="14.51459">
        <ele>177</ele>
        <time>2016-07-18T01:33:58Z</time>
      </trkpt>
      <trkpt lat="45.31666" lon="14.51478">
        <ele>180</ele>
        <time>2016-07-18T01:35:58Z</time>
      </trkpt>
      <trkpt lat="45.31666" lon="14.515">
        <ele>184</ele>
        <time>2016-07-18T01:37:58Z</time>
      </trkpt>
      <trkpt lat="45.31668" lon="14.51511">
        <ele>186</ele>
        <time>2016-07-18T01:39:58Z</time>
      </trkpt>
      <trkpt lat="45.31668" lon="14.5152">
        <ele>187</ele>
        <time>2016-07-18T01:41:58Z</time>
      </trkpt>
      <trkpt lat="45.31667" lon="14.51531">
        <ele>188</ele>
        <time>2016-07-18T01:43:58Z</time>
      </trkpt>
      <trkpt lat="45.31664" lon="14.51561">
        <ele>190</ele>
        <time>2016-07-18T01:45:58Z</time>
      </trkpt>
      <trkpt lat="45.31663" lon="14.51575">
        <ele>191</ele>
        <time>2016-07-18T01:47:58Z</time>
      </trkpt>
      <trkpt lat="45.31661" lon="14.51585">
        <ele>191</ele>
        <time>2016-07-18T01:49:58Z</time>
      </trkpt>
      <trkpt lat="45.31659" lon="14.51594">
        <ele>191</ele>
        <time>2016-07-18T01:51:58Z</time>
      </trkpt>
      <trkpt lat="45.31657" lon="14.51604">
        <ele>191</ele>
        <time>2016-07-18T01:53:58Z</time>
      </trkpt>
      <trkpt lat="45.31655" lon="14.51615">
        <ele>191</ele>
        <time>2016-07-18T01:55:58Z</time>
      </trkpt>
      <trkpt lat="45.31653" lon="14.51639">
        <ele>192</ele>
        <time>2016-07-18T01:57:58Z</time>
      </trkpt>
      <trkpt lat="45.31653" lon="14.51655">
        <ele>193</ele>
        <time>2016-07-18T01:59:58Z</time>
      </trkpt>
      <trkpt lat="45.31651" lon="14.51663">
        <ele>193</ele>
        <time>2016-07-18T02:01:58Z</time>
      </trkpt>
      <trkpt lat="45.3165" lon="14.51672">
        <ele>193</ele>
        <time>2016-07-18T02:03:58Z</time>
      </trkpt>
      <trkpt lat="45.31644" lon="14.51687">
        <ele>192</ele>
        <time>2016-07-18T02:05:58Z</time>
      </trkpt>
      <trkpt lat="45.31632" lon="14.51712">
        <ele>190</ele>
        <time>2016-07-18T02:07:58Z</time>
      </trkpt>
      <trkpt lat="45.31621" lon="14.51732">
        <ele>188</ele>
        <time>2016-07-18T02:09:58Z</time>
      </trkpt>
      <trkpt lat="45.31617" lon="14.51742">
        <ele>187</ele>
        <time>2016-07-18T02:11:58Z</time>
      </trkpt>
      <trkpt lat="45.31615" lon="14.51751">
        <ele>187</ele>
        <time>2016-07-18T02:13:58Z</time>
      </trkpt>
      <trkpt lat="45.31613" lon="14.51763">
        <ele>188</ele>
        <time>2016-07-18T02:15:58Z</time>
      </trkpt>
      <trkpt lat="45.31608" lon="14.51798">
        <ele>190</ele>
        <time>2016-07-18T02:17:58Z</time>
      </trkpt>
      <trkpt lat="45.31601" lon="14.5186">
        <ele>194</ele>
        <time>2016-07-18T02:19:58Z</time>
      </trkpt>
      <trkpt lat="45.316" lon="14.51877">
        <ele>195</ele>
        <time>2016-07-18T02:21:58Z</time>
      </trkpt>
      <trkpt lat="45.31599" lon="14.51886">
        <ele>195</ele>
        <time>2016-07-18T02:23:58Z</time>
      </trkpt>
      <trkpt lat="45.31596" lon="14.519">
        <ele>195</ele>
        <time>2016-07-18T02:25:58Z</time>
      </trkpt>
      <trkpt lat="45.31593" lon="14.51923">
        <ele>196</ele>
        <time>2016-07-18T02:27:58Z</time>
      </trkpt>
      <trkpt lat="45.3159" lon="14.51937">
        <ele>197</ele>
        <time>2016-07-18T02:29:58Z</time>
      </trkpt>
      <trkpt lat="45.31586" lon="14.5195">
        <ele>197</ele>
        <time>2016-07-18T02:31:58Z</time>
      </trkpt>
      <trkpt lat="45.31582" lon="14.51962">
        <ele>198</ele>
        <time>2016-07-18T02:33:58Z</time>
      </trkpt>
      <trkpt lat="45.31574" lon="14.51983">
        <ele>198</ele>
        <time>2016-07-18T02:35:58Z</time>
      </trkpt>
      <trkpt lat="45.31569" lon="14.51997">
        <ele>199</ele>
        <time>2016-07-18T02:37:58Z</time>
      </trkpt>
      <trkpt lat="45.31564" lon="14.52009">
        <ele>199</ele>
        <time>2016-07-18T02:39:58Z</time>
      </trkpt>
      <trkpt lat="45.31553" lon="14.52032">
        <ele>200</ele>
        <time>2016-07-18T02:41:58Z</time>
      </trkpt>
      <trkpt lat="45.31543" lon="14.5205">
        <ele>201</ele>
        <time>2016-07-18T02:43:58Z</time>
      </trkpt>
      <trkpt lat="45.31533" lon="14.52066">
        <ele>202</ele>
        <time>2016-07-18T02:45:58Z</time>
      </trkpt>
      <trkpt lat="45.31526" lon="14.52078">
        <ele>202</ele>
        <time>2016-07-18T02:47:58Z</time>
      </trkpt>
      <trkpt lat="45.31507" lon="14.52103">
        <ele>203</ele>
        <time>2016-07-18T02:49:58Z</time>
      </trkpt>
      <trkpt lat="45.31494" lon="14.52118">
        <ele>204</ele>
        <time>2016-07-18T02:51:58Z</time>
      </trkpt>
      <trkpt lat="45.31484" lon="14.52131">
        <ele>206</ele>
        <time>2016-07-18T02:53:58Z</time>
      </trkpt>
      <trkpt lat="45.31465" lon="14.52154">
        <ele>208</ele>
        <time>2016-07-18T02:55:58Z</time>
      </trkpt>
      <trkpt lat="45.31436" lon="14.52192">
        <ele>209</ele>
        <time>2016-07-18T02:57:58Z</time>
      </trkpt>
      <trkpt lat="45.31411" lon="14.52226">
        <ele>212</ele>
        <time>2016-07-18T02:59:58Z</time>
      </trkpt>
      <trkpt lat="45.31396" lon="14.52247">
        <ele>214</ele>
        <time>2016-07-18T03:01:58Z</time>
      </trkpt>
      <trkpt lat="45.31386" lon="14.52264">
        <ele>215</ele>
        <time>2016-07-18T03:03:58Z</time>
      </trkpt>
      <trkpt lat="45.31382" lon="14.52274">
        <ele>216</ele>
        <time>2016-07-18T03:05:58Z</time>
      </trkpt>
      <trkpt lat="45.31377" lon="14.5228">
        <ele>216</ele>
        <time>2016-07-18T03:07:58Z</time>
      </trkpt>
      <trkpt lat="45.31373" lon="14.52285">
        <ele>217</ele>
        <time>2016-07-18T03:09:58Z</time>
      </trkpt>
      <trkpt lat="45.31367" lon="14.52289">
        <ele>217</ele>
        <time>2016-07-18T03:11:58Z</time>
      </trkpt>
      <trkpt lat="45.31355" lon="14.52295">
        <ele>217</ele>
        <time>2016-07-18T03:13:58Z</time>
      </trkpt>
      <trkpt lat="45.31354" lon="14.52296">
        <ele>217</ele>
        <time>2016-07-18T03:15:58Z</time>
      </trkpt>
      <trkpt lat="45.31354" lon="14.52296">
        <ele>217</ele>
        <time>2016-07-18T03:17:58Z</time>
      </trkpt>
      <trkpt lat="45.31349" lon="14.52298">
        <ele>217</ele>
        <time>2016-07-18T03:19:58Z</time>
      </trkpt>
      <trkpt lat="45.31346" lon="14.52302">
        <ele>218</ele>
        <time>2016-07-18T03:21:58Z</time>
      </trkpt>
      <trkpt lat="45.31341" lon="14.5231">
        <ele>219</ele>
        <time>2016-07-18T03:23:58Z</time>
      </trkpt>
      <trkpt lat="45.31341" lon="14.5231">
        <ele>219</ele>
        <time>2016-07-18T03:25:58Z</time>
      </trkpt>
      <trkpt lat="45.31345" lon="14.52312">
        <ele>220</ele>
        <time>2016-07-18T03:27:58Z</time>
      </trkpt>
      <trkpt lat="45.31348" lon="14.52313">
        <ele>220</ele>
        <time>2016-07-18T03:29:58Z</time>
      </trkpt>
      <trkpt lat="45.31351" lon="14.52313">
        <ele>220</ele>
        <time>2016-07-18T03:31:58Z</time>
      </trkpt>
      <trkpt lat="45.31355" lon="14.52313">
        <ele>220</ele>
        <time>2016-07-18T03:33:58Z</time>
      </trkpt>
      <trkpt lat="45.3136" lon="14.52313">
        <ele>220</ele>
        <time>2016-07-18T03:35:58Z</time>
      </trkpt>
      <trkpt lat="45.31368" lon="14.52312">
        <ele>220</ele>
        <time>2016-07-18T03:37:58Z</time>
      </trkpt>
      <trkpt lat="45.31374" lon="14.52313">
        <ele>221</ele>
        <time>2016-07-18T03:39:58Z</time>
      </trkpt>
      <trkpt lat="45.3138" lon="14.52315">
        <ele>221</ele>
        <time>2016-07-18T03:41:58Z</time>
      </trkpt>
      <trkpt lat="45.31384" lon="14.52317">
        <ele>222</ele>
        <time>2016-07-18T03:43:58Z</time>
      </trkpt>
      <trkpt lat="45.31392" lon="14.52321">
        <ele>222</ele>
        <time>2016-07-18T03:45:58Z</time>
      </trkpt>
      <trkpt lat="45.31399" lon="14.52324">
        <ele>223</ele>
        <time>2016-07-18T03:47:58Z</time>
      </trkpt>
      <trkpt lat="45.31406" lon="14.52333">
        <ele>224</ele>
        <time>2016-07-18T03:49:58Z</time>
      </trkpt>
      <trkpt lat="45.31428" lon="14.5235">
        <ele>225</ele>
        <time>2016-07-18T03:51:58Z</time>
      </trkpt>
      <trkpt lat="45.3145" lon="14.52357">
        <ele>225</ele>
        <time>2016-07-18T03:53:58Z</time>
      </trkpt>
      <trkpt lat="45.31467" lon="14.52361">
        <ele>225</ele>
        <time>2016-07-18T03:55:58Z</time>
      </trkpt>
      <trkpt lat="45.31489" lon="14.52362">
        <ele>225</ele>
        <time>2016-07-18T03:57:58Z</time>
      </trkpt>
      <trkpt lat="45.31511" lon="14.52362">
        <ele>226</ele>
        <time>2016-07-18T03:59:58Z</time>
      </trkpt>
      <trkpt lat="45.31531" lon="14.52366">
        <ele>226</ele>
        <time>2016-07-18T04:01:58Z</time>
      </trkpt>
      <trkpt lat="45.31546" lon="14.52375">
        <ele>227</ele>
        <time>2016-07-18T04:03:58Z</time>
      </trkpt>
      <trkpt lat="45.31562" lon="14.52387">
        <ele>228</ele>
        <time>2016-07-18T04:05:58Z</time>
      </trkpt>
      <trkpt lat="45.31573" lon="14.52401">
        <ele>228</ele>
        <time>2016-07-18T04:07:58Z</time>
      </trkpt>
      <trkpt lat="45.31573" lon="14.52401">
        <ele>228</ele>
        <time>2016-07-18T04:09:58Z</time>
      </trkpt>
      <trkpt lat="45.31586" lon="14.52423">
        <ele>228</ele>
        <time>2016-07-18T04:11:58Z</time>
      </trkpt>
      <trkpt lat="45.31594" lon="14.52446">
        <ele>229</ele>
        <time>2016-07-18T04:13:58Z</time>
      </trkpt>
      <trkpt lat="45.31597" lon="14.52455">
        <ele>229</ele>
        <time>2016-07-18T04:15:58Z</time>
      </trkpt>
      <trkpt lat="45.31642" lon="14.52592">
        <ele>233</ele>
        <time>2016-07-18T04:17:58Z</time>
      </trkpt>
      <trkpt lat="45.3165" lon="14.52617">
        <ele>235</ele>
        <time>2016-07-18T04:19:58Z</time>
      </trkpt>
      <trkpt lat="45.31657" lon="14.52644">
        <ele>236</ele>
        <time>2016-07-18T04:21:58Z</time>
      </trkpt>
      <trkpt lat="45.31668" lon="14.52674">
        <ele>238</ele>
        <time>2016-07-18T04:23:58Z</time>
      </trkpt>
      <trkpt lat="45.3167" lon="14.52684">
        <ele>238</ele>
        <time>2016-07-18T04:25:58Z</time>
      </trkpt>
      <trkpt lat="45.31679" lon="14.52717">
        <ele>239</ele>
        <time>2016-07-18T04:27:58Z</time>
      </trkpt>
      <trkpt lat="45.31685" lon="14.52748">
        <ele>240</ele>
        <time>2016-07-18T04:29:58Z</time>
      </trkpt>
      <trkpt lat="45.31692" lon="14.52783">
        <ele>241</ele>
        <time>2016-07-18T04:31:58Z</time>
      </trkpt>
      <trkpt lat="45.31692" lon="14.52783">
        <ele>241</ele>
        <time>2016-07-18T04:33:58Z</time>
      </trkpt>
      <trkpt lat="45.31731" lon="14.52966">
        <ele>247</ele>
        <time>2016-07-18T04:35:58Z</time>
      </trkpt>
      <trkpt lat="45.31732" lon="14.52972">
        <ele>247</ele>
        <time>2016-07-18T04:37:58Z</time>
      </trkpt>
      <trkpt lat="45.31734" lon="14.52979">
        <ele>248</ele>
        <time>2016-07-18T04:39:58Z</time>
      </trkpt>
      <trkpt lat="45.31735" lon="14.52985">
        <ele>248</ele>
        <time>2016-07-18T04:41:58Z</time>
      </trkpt>
      <trkpt lat="45.31737" lon="14.52992">
        <ele>248</ele>
        <time>2016-07-18T04:43:58Z</time>
      </trkpt>
      <trkpt lat="45.31739" lon="14.52998">
        <ele>248</ele>
        <time>2016-07-18T04:45:58Z</time>
      </trkpt>
      <trkpt lat="45.3174" lon="14.53004">
        <ele>248</ele>
        <time>2016-07-18T04:47:58Z</time>
      </trkpt>
      <trkpt lat="45.31742" lon="14.5301">
        <ele>248</ele>
        <time>2016-07-18T04:49:58Z</time>
      </trkpt>
      <trkpt lat="45.31744" lon="14.53017">
        <ele>248</ele>
        <time>2016-07-18T04:51:58Z</time>
      </trkpt>
      <trkpt lat="45.31746" lon="14.53023">
        <ele>248</ele>
        <time>2016-07-18T04:53:58Z</time>
      </trkpt>
      <trkpt lat="45.31748" lon="14.53029">
        <ele>248</ele>
        <time>2016-07-18T04:55:58Z</time>
      </trkpt>
      <trkpt lat="45.3175" lon="14.53034">
        <ele>248</ele>
        <time>2016-07-18T04:57:58Z</time>
      </trkpt>
      <trkpt lat="45.31752" lon="14.5304">
        <ele>248</ele>
        <time>2016-07-18T04:59:58Z</time>
      </trkpt>
      <trkpt lat="45.31754" lon="14.53046">
        <ele>248</ele>
        <time>2016-07-18T05:01:58Z</time>
      </trkpt>
      <trkpt lat="45.31754" lon="14.53046">
        <ele>248</ele>
        <time>2016-07-18T05:03:58Z</time>
      </trkpt>
      <trkpt lat="45.31752" lon="14.53047">
        <ele>247</ele>
        <time>2016-07-18T05:05:58Z</time>
      </trkpt>
      <trkpt lat="45.3175" lon="14.53049">
        <ele>247</ele>
        <time>2016-07-18T05:07:58Z</time>
      </trkpt>
      <trkpt lat="45.31748" lon="14.53051">
        <ele>247</ele>
        <time>2016-07-18T05:09:58Z</time>
      </trkpt>
      <trkpt lat="45.31747" lon="14.53053">
        <ele>247</ele>
        <time>2016-07-18T05:11:58Z</time>
      </trkpt>
      <trkpt lat="45.31745" lon="14.53055">
        <ele>247</ele>
        <time>2016-07-18T05:13:58Z</time>
      </trkpt>
      <trkpt lat="45.31743" lon="14.53057">
        <ele>247</ele>
        <time>2016-07-18T05:15:58Z</time>
      </trkpt>
      <trkpt lat="45.31741" lon="14.5306">
        <ele>247</ele>
        <time>2016-07-18T05:17:58Z</time>
      </trkpt>
      <trkpt lat="45.31739" lon="14.53062">
        <ele>247</ele>
        <time>2016-07-18T05:19:58Z</time>
      </trkpt>
      <trkpt lat="45.31738" lon="14.53065">
        <ele>247</ele>
        <time>2016-07-18T05:21:58Z</time>
      </trkpt>
      <trkpt lat="45.31736" lon="14.53067">
        <ele>247</ele>
        <time>2016-07-18T05:23:58Z</time>
      </trkpt>
      <trkpt lat="45.31734" lon="14.5307">
        <ele>247</ele>
        <time>2016-07-18T05:25:58Z</time>
      </trkpt>
      <trkpt lat="45.31733" lon="14.53072">
        <ele>247</ele>
        <time>2016-07-18T05:27:58Z</time>
      </trkpt>
      <trkpt lat="45.31731" lon="14.53075">
        <ele>247</ele>
        <time>2016-07-18T05:29:58Z</time>
      </trkpt>
      <trkpt lat="45.3173" lon="14.53078">
        <ele>247</ele>
        <time>2016-07-18T05:31:58Z</time>
      </trkpt>
      <trkpt lat="45.31728" lon="14.53081">
        <ele>247</ele>
        <time>2016-07-18T05:33:58Z</time>
      </trkpt>
      <trkpt lat="45.31727" lon="14.53084">
        <ele>247</ele>
        <time>2016-07-18T05:35:58Z</time>
      </trkpt>
      <trkpt lat="45.31725" lon="14.53087">
        <ele>247</ele>
        <time>2016-07-18T05:37:58Z</time>
      </trkpt>
      <trkpt lat="45.31725" lon="14.53089">
        <ele>247</ele>
        <time>2016-07-18T05:39:58Z</time>
      </trkpt>
      <trkpt lat="45.31722" lon="14.53096">
        <ele>247</ele>
        <time>2016-07-18T05:41:58Z</time>
      </trkpt>
      <trkpt lat="45.31721" lon="14.53102">
        <ele>247</ele>
        <time>2016-07-18T05:43:58Z</time>
      </trkpt>
      <trkpt lat="45.3172" lon="14.53109">
        <ele>247</ele>
        <time>2016-07-18T05:45:58Z</time>
      </trkpt>
      <trkpt lat="45.31719" lon="14.53119">
        <ele>247</ele>
        <time>2016-07-18T05:47:58Z</time>
      </trkpt>
      <trkpt lat="45.31719" lon="14.5313">
        <ele>247</ele>
        <time>2016-07-18T05:49:58Z</time>
      </trkpt>
      <trkpt lat="45.3172" lon="14.53136">
        <ele>247</ele>
        <time>2016-07-18T05:51:58Z</time>
      </trkpt>
      <trkpt lat="45.31722" lon="14.53143">
        <ele>247</ele>
        <time>2016-07-18T05:53:58Z</time>
      </trkpt>
      <trkpt lat="45.31726" lon="14.53154">
        <ele>247</ele>
        <time>2016-07-18T05:55:58Z</time>
      </trkpt>
      <trkpt lat="45.3173" lon="14.53165">
        <ele>247</ele>
        <time>2016-07-18T05:57:58Z</time>
      </trkpt>
      <trkpt lat="45.31755" lon="14.53215">
        <ele>247</ele>
        <time>2016-07-18T05:59:58Z</time>
      </trkpt>
      <trkpt lat="45.31793" lon="14.53297">
        <ele>250</ele>
        <time>2016-07-18T06:01:58Z</time>
      </trkpt>
      <trkpt lat="45.31818" lon="14.53348">
        <ele>252</ele>
        <time>2016-07-18T06:03:58Z</time>
      </trkpt>
      <trkpt lat="45.31827" lon="14.53365">
        <ele>254</ele>
        <time>2016-07-18T06:05:58Z</time>
      </trkpt>
      <trkpt lat="45.31838" lon="14.53391">
        <ele>255</ele>
        <time>2016-07-18T06:07:58Z</time>
      </trkpt>
      <trkpt lat="45.31848" lon="14.53417">
        <ele>256</ele>
        <time>2016-07-18T06:09:58Z</time>
      </trkpt>
      <trkpt lat="45.31854" lon="14.53435">
        <ele>256</ele>
        <time>2016-07-18T06:11:58Z</time>
      </trkpt>
      <trkpt lat="45.31863" lon="14.53463">
        <ele>257</ele>
        <time>2016-07-18T06:13:58Z</time>
      </trkpt>
      <trkpt lat="45.31867" lon="14.53474">
        <ele>257</ele>
        <time>2016-07-18T06:15:58Z</time>
      </trkpt>
      <trkpt lat="45.31886" lon="14.53537">
        <ele>256</ele>
        <time>2016-07-18T06:17:58Z</time>
      </trkpt>
      <trkpt lat="45.31889" lon="14.53543">
        <ele>256</ele>
        <time>2016-07-18T06:19:58Z</time>
      </trkpt>
      <trkpt lat="45.31897" lon="14.53571">
        <ele>255</ele>
        <time>2016-07-18T06:21:58Z</time>
      </trkpt>
      <trkpt lat="45.31906" lon="14.53599">
        <ele>255</ele>
        <time>2016-07-18T06:23:58Z</time>
      </trkpt>
      <trkpt lat="45.31912" lon="14.53623">
        <ele>255</ele>
        <time>2016-07-18T06:25:58Z</time>
      </trkpt>
      <trkpt lat="45.31915" lon="14.53637">
        <ele>255</ele>
        <time>2016-07-18T06:27:58Z</time>
      </trkpt>
      <trkpt lat="45.31916" lon="14.53646">
        <ele>255</ele>
        <time>2016-07-18T06:29:58Z</time>
      </trkpt>
      <trkpt lat="45.31917" lon="14.53655">
        <ele>255</ele>
        <time>2016-07-18T06:31:58Z</time>
      </trkpt>
      <trkpt lat="45.31917" lon="14.5367">
        <ele>255</ele>
        <time>2016-07-18T06:33:58Z</time>
      </trkpt>
      <trkpt lat="45.31917" lon="14.53679">
        <ele>254</ele>
        <time>2016-07-18T06:35:58Z</time>
      </trkpt>
      <trkpt lat="45.31916" lon="14.53688">
        <ele>254</ele>
        <time>2016-07-18T06:37:58Z</time>
      </trkpt>
      <trkpt lat="45.31914" lon="14.53698">
        <ele>254</ele>
        <time>2016-07-18T06:39:58Z</time>
      </trkpt>
      <trkpt lat="45.31911" lon="14.53711">
        <ele>253</ele>
        <time>2016-07-18T06:41:58Z</time>
      </trkpt>
      <trkpt lat="45.31907" lon="14.53724">
        <ele>252</ele>
        <time>2016-07-18T06:43:58Z</time>
      </trkpt>
      <trkpt lat="45.31902" lon="14.53736">
        <ele>252</ele>
        <time>2016-07-18T06:45:58Z</time>
      </trkpt>
      <trkpt lat="45.31897" lon="14.53744">
        <ele>252</ele>
        <time>2016-07-18T06:47:58Z</time>
      </trkpt>
      <trkpt lat="45.31886" lon="14.53766">
        <ele>251</ele>
        <time>2016-07-18T06:49:58Z</time>
      </trkpt>
      <trkpt lat="45.3188" lon="14.53779">
        <ele>251</ele>
        <time>2016-07-18T06:51:58Z</time>
      </trkpt>
      <trkpt lat="45.31863" lon="14.5381">
        <ele>251</ele>
        <time>2016-07-18T06:53:58Z</time>
      </trkpt>
      <trkpt lat="45.31858" lon="14.5382">
        <ele>251</ele>
        <time>2016-07-18T06:55:58Z</time>
      </trkpt>
      <trkpt lat="45.31851" lon="14.5383">
        <ele>251</ele>
        <time>2016-07-18T06:57:58Z</time>
      </trkpt>
      <trkpt lat="45.31845" lon="14.53841">
        <ele>251</ele>
        <time>2016-07-18T06:59:58Z</time>
      </trkpt>
      <trkpt lat="45.31833" lon="14.53863">
        <ele>250</ele>
        <time>2016-07-18T07:01:58Z</time>
      </trkpt>
      <trkpt lat="45.31821" lon="14.53886">
        <ele>248</ele>
        <time>2016-07-18T07:03:58Z</time>
      </trkpt>
      <trkpt lat="45.3181" lon="14.53909">
        <ele>247</ele>
        <time>2016-07-18T07:05:58Z</time>
      </trkpt>
      <trkpt lat="45.31799" lon="14.53932">
        <ele>245</ele>
        <time>2016-07-18T07:07:58Z</time>
      </trkpt>
      <trkpt lat="45.31789" lon="14.53954">
        <ele>244</ele>
        <time>2016-07-18T07:09:58Z</time>
      </trkpt>
      <trkpt lat="45.3178" lon="14.53976">
        <ele>243</ele>
        <time>2016-07-18T07:11:58Z</time>
      </trkpt>
      <trkpt lat="45.31771" lon="14.54">
        <ele>241</ele>
        <time>2016-07-18T07:13:58Z</time>
      </trkpt>
      <trkpt lat="45.31763" lon="14.54027">
        <ele>240</ele>
        <time>2016-07-18T07:15:58Z</time>
      </trkpt>
      <trkpt lat="45.31755" lon="14.54053">
        <ele>240</ele>
        <time>2016-07-18T07:17:58Z</time>
      </trkpt>
      <trkpt lat="45.3175" lon="14.54074">
        <ele>239</ele>
        <time>2016-07-18T07:19:58Z</time>
      </trkpt>
      <trkpt lat="45.31742" lon="14.54102">
        <ele>237</ele>
        <time>2016-07-18T07:21:58Z</time>
      </trkpt>
      <trkpt lat="45.3173" lon="14.54148">
        <ele>232</ele>
        <time>2016-07-18T07:23:58Z</time>
      </trkpt>
      <trkpt lat="45.31712" lon="14.54214">
        <ele>227</ele>
        <time>2016-07-18T07:25:58Z</time>
      </trkpt>
      <trkpt lat="45.31707" lon="14.54235">
        <ele>225</ele>
        <time>2016-07-18T07:27:58Z</time>
      </trkpt>
      <trkpt lat="45.31701" lon="14.54261">
        <ele>223</ele>
        <time>2016-07-18T07:29:58Z</time>
      </trkpt>
      <trkpt lat="45.31699" lon="14.54269">
        <ele>222</ele>
        <time>2016-07-18T07:31:58Z</time>
      </trkpt>
      <trkpt lat="45.31688" lon="14.54294">
        <ele>219</ele>
        <time>2016-07-18T07:33:58Z</time>
      </trkpt>
      <trkpt lat="45.31683" lon="14.54307">
        <ele>218</ele>
        <time>2016-07-18T07:35:58Z</time>
      </trkpt>
      <trkpt lat="45.31673" lon="14.54325">
        <ele>216</ele>
        <time>2016-07-18T07:37:58Z</time>
      </trkpt>
      <trkpt lat="45.31663" lon="14.54342">
        <ele>214</ele>
        <time>2016-07-18T07:39:58Z</time>
      </trkpt>
      <trkpt lat="45.31652" lon="14.54357">
        <ele>212</ele>
        <time>2016-07-18T07:41:58Z</time>
      </trkpt>
      <trkpt lat="45.31641" lon="14.54371">
        <ele>211</ele>
        <time>2016-07-18T07:43:58Z</time>
      </trkpt>
      <trkpt lat="45.31629" lon="14.54384">
        <ele>210</ele>
        <time>2016-07-18T07:45:58Z</time>
      </trkpt>
      <trkpt lat="45.31618" lon="14.54393">
        <ele>209</ele>
        <time>2016-07-18T07:47:58Z</time>
      </trkpt>
      <trkpt lat="45.31605" lon="14.54403">
        <ele>209</ele>
        <time>2016-07-18T07:49:58Z</time>
      </trkpt>
      <trkpt lat="45.31591" lon="14.54413">
        <ele>208</ele>
        <time>2016-07-18T07:51:58Z</time>
      </trkpt>
      <trkpt lat="45.3157" lon="14.54431">
        <ele>207</ele>
        <time>2016-07-18T07:53:58Z</time>
      </trkpt>
      <trkpt lat="45.31562" lon="14.54441">
        <ele>206</ele>
        <time>2016-07-18T07:55:58Z</time>
      </trkpt>
      <trkpt lat="45.31555" lon="14.54451">
        <ele>205</ele>
        <time>2016-07-18T07:57:58Z</time>
      </trkpt>
      <trkpt lat="45.31543" lon="14.54469">
        <ele>203</ele>
        <time>2016-07-18T07:59:58Z</time>
      </trkpt>
      <trkpt lat="45.31538" lon="14.54478">
        <ele>202</ele>
        <time>2016-07-18T08:01:58Z</time>
      </trkpt>
      <trkpt lat="45.31533" lon="14.54487">
        <ele>201</ele>
        <time>2016-07-18T08:03:58Z</time>
      </trkpt>
      <trkpt lat="45.31527" lon="14.54497">
        <ele>200</ele>
        <time>2016-07-18T08:05:58Z</time>
      </trkpt>
      <trkpt lat="45.31522" lon="14.5451">
        <ele>199</ele>
        <time>2016-07-18T08:07:58Z</time>
      </trkpt>
      <trkpt lat="45.31514" lon="14.5454">
        <ele>196</ele>
        <time>2016-07-18T08:09:58Z</time>
      </trkpt>
      <trkpt lat="45.31509" lon="14.54559">
        <ele>195</ele>
        <time>2016-07-18T08:11:58Z</time>
      </trkpt>
      <trkpt lat="45.31503" lon="14.54588">
        <ele>192</ele>
        <time>2016-07-18T08:13:58Z</time>
      </trkpt>
      <trkpt lat="45.315" lon="14.54607">
        <ele>192</ele>
        <time>2016-07-18T08:15:58Z</time>
      </trkpt>
      <trkpt lat="45.31494" lon="14.54644">
        <ele>192</ele>
        <time>2016-07-18T08:17:58Z</time>
      </trkpt>
      <trkpt lat="45.31489" lon="14.54671">
        <ele>192</ele>
        <time>2016-07-18T08:19:58Z</time>
      </trkpt>
      <trkpt lat="45.31482" lon="14.54709">
        <ele>194</ele>
        <time>2016-07-18T08:21:58Z</time>
      </trkpt>
      <trkpt lat="45.3148" lon="14.54721">
        <ele>195</ele>
        <time>2016-07-18T08:23:58Z</time>
      </trkpt>
      <trkpt lat="45.31478" lon="14.54726">
        <ele>195</ele>
        <time>2016-07-18T08:25:58Z</time>
      </trkpt>
      <trkpt lat="45.31478" lon="14.54726">
        <ele>195</ele>
        <time>2016-07-18T08:27:58Z</time>
      </trkpt>
      <trkpt lat="45.3147" lon="14.5475">
        <ele>196</ele>
        <time>2016-07-18T08:29:58Z</time>
      </trkpt>
      <trkpt lat="45.31468" lon="14.54754">
        <ele>196</ele>
        <time>2016-07-18T08:31:58Z</time>
      </trkpt>
      <trkpt lat="45.31467" lon="14.54757">
        <ele>196</ele>
        <time>2016-07-18T08:33:58Z</time>
      </trkpt>
      <trkpt lat="45.3146" lon="14.54774">
        <ele>197</ele>
        <time>2016-07-18T08:35:58Z</time>
      </trkpt>
      <trkpt lat="45.31435" lon="14.54809">
        <ele>197</ele>
        <time>2016-07-18T08:37:58Z</time>
      </trkpt>
      <trkpt lat="45.31409" lon="14.54842">
        <ele>198</ele>
        <time>2016-07-18T08:39:58Z</time>
      </trkpt>
      <trkpt lat="45.31395" lon="14.54857">
        <ele>197</ele>
        <time>2016-07-18T08:41:58Z</time>
      </trkpt>
      <trkpt lat="45.3138" lon="14.54872">
        <ele>197</ele>
        <time>2016-07-18T08:43:58Z</time>
      </trkpt>
      <trkpt lat="45.31366" lon="14.54886">
        <ele>196</ele>
        <time>2016-07-18T08:45:58Z</time>
      </trkpt>
      <trkpt lat="45.31352" lon="14.54903">
        <ele>195</ele>
        <time>2016-07-18T08:47:58Z</time>
      </trkpt>
      <trkpt lat="45.31331" lon="14.54932">
        <ele>195</ele>
        <time>2016-07-18T08:49:58Z</time>
      </trkpt>
      <trkpt lat="45.31311" lon="14.5496">
        <ele>195</ele>
        <time>2016-07-18T08:51:58Z</time>
      </trkpt>
      <trkpt lat="45.31293" lon="14.54987">
        <ele>195</ele>
        <time>2016-07-18T08:53:58Z</time>
      </trkpt>
      <trkpt lat="45.31281" lon="14.55007">
        <ele>195</ele>
        <time>2016-07-18T08:55:58Z</time>
      </trkpt>
      <trkpt lat="45.31257" lon="14.5504">
        <ele>195</ele>
        <time>2016-07-18T08:57:58Z</time>
      </trkpt>
      <trkpt lat="45.3123" lon="14.55073">
        <ele>195</ele>
        <time>2016-07-18T08:59:58Z</time>
      </trkpt>
      <trkpt lat="45.31167" lon="14.55163">
        <ele>193</ele>
        <time>2016-07-18T09:01:58Z</time>
      </trkpt>
      <trkpt lat="45.31081" lon="14.55295">
        <ele>188</ele>
        <time>2016-07-18T09:03:58Z</time>
      </trkpt>
      <trkpt lat="45.31052" lon="14.55346">
        <ele>187</ele>
        <time>2016-07-18T09:05:58Z</time>
      </trkpt>
      <trkpt lat="45.31029" lon="14.55384">
        <ele>186</ele>
        <time>2016-07-18T09:07:58Z</time>
      </trkpt>
      <trkpt lat="45.31016" lon="14.55405">
        <ele>185</ele>
        <time>2016-07-18T09:09:58Z</time>
      </trkpt>
      <trkpt lat="45.31004" lon="14.55418">
        <ele>184</ele>
        <time>2016-07-18T09:11:58Z</time>
      </trkpt>
      <trkpt lat="45.31003" lon="14.5542">
        <ele>184</ele>
        <time>2016-07-18T09:13:58Z</time>
      </trkpt>
      <trkpt lat="45.30986" lon="14.55446">
        <ele>185</ele>
        <time>2016-07-18T09:15:58Z</time>
      </trkpt>
      <trkpt lat="45.3096" lon="14.55484">
        <ele>186</ele>
        <time>2016-07-18T09:17:58Z</time>
      </trkpt>
      <trkpt lat="45.30933" lon="14.55522">
        <ele>186</ele>
        <time>2016-07-18T09:19:58Z</time>
      </trkpt>
      <trkpt lat="45.30924" lon="14.55534">
        <ele>186</ele>
        <time>2016-07-18T09:21:58Z</time>
      </trkpt>
      <trkpt lat="45.30912" lon="14.55549">
        <ele>186</ele>
        <time>2016-07-18T09:23:58Z</time>
      </trkpt>
      <trkpt lat="45.30901" lon="14.55562">
        <ele>186</ele>
        <time>2016-07-18T09:25:58Z</time>
      </trkpt>
      <trkpt lat="45.30889" lon="14.55575">
        <ele>186</ele>
        <time>2016-07-18T09:27:58Z</time>
      </trkpt>
      <trkpt lat="45.30876" lon="14.55588">
        <ele>187</ele>
        <time>2016-07-18T09:29:58Z</time>
      </trkpt>
      <trkpt lat="45.30861" lon="14.55602">
        <ele>187</ele>
        <time>2016-07-18T09:31:58Z</time>
      </trkpt>
      <trkpt lat="45.30856" lon="14.55608">
        <ele>187</ele>
        <time>2016-07-18T09:33:58Z</time>
      </trkpt>
      <trkpt lat="45.30852" lon="14.55614">
        <ele>187</ele>
        <time>2016-07-18T09:35:58Z</time>
      </trkpt>
      <trkpt lat="45.30845" lon="14.55624">
        <ele>186</ele>
        <time>2016-07-18T09:37:58Z</time>
      </trkpt>
      <trkpt lat="45.30841" lon="14.55632">
        <ele>186</ele>
        <time>2016-07-18T09:39:58Z</time>
      </trkpt>
      <trkpt lat="45.30828" lon="14.55653">
        <ele>185</ele>
        <time>2016-07-18T09:41:58Z</time>
      </trkpt>
      <trkpt lat="45.30807" lon="14.55685">
        <ele>183</ele>
        <time>2016-07-18T09:43:58Z</time>
      </trkpt>
      <trkpt lat="45.30793" lon="14.55705">
        <ele>182</ele>
        <time>2016-07-18T09:45:58Z</time>
      </trkpt>
      <trkpt lat="45.30771" lon="14.55736">
        <ele>181</ele>
        <time>2016-07-18T09:47:58Z</time>
      </trkpt>
      <trkpt lat="45.30756" lon="14.55757">
        <ele>180</ele>
        <time>2016-07-18T09:49:58Z</time>
      </trkpt>
      <trkpt lat="45.30734" lon="14.55789">
        <ele>179</ele>
        <time>2016-07-18T09:51:58Z</time>
      </trkpt>
      <trkpt lat="45.30726" lon="14.55801">
        <ele>178</ele>
        <time>2016-07-18T09:53:58Z</time>
      </trkpt>
      <trkpt lat="45.30718" lon="14.55814">
        <ele>178</ele>
        <time>2016-07-18T09:55:58Z</time>
      </trkpt>
      <trkpt lat="45.30709" lon="14.55826">
        <ele>177</ele>
        <time>2016-07-18T09:57:58Z</time>
      </trkpt>
      <trkpt lat="45.307" lon="14.55838">
        <ele>176</ele>
        <time>2016-07-18T09:59:58Z</time>
      </trkpt>
      <trkpt lat="45.30686" lon="14.55854">
        <ele>175</ele>
        <time>2016-07-18T10:01:58Z</time>
      </trkpt>
      <trkpt lat="45.30676" lon="14.55864">
        <ele>174</ele>
        <time>2016-07-18T10:03:58Z</time>
      </trkpt>
      <trkpt lat="45.30668" lon="14.55872">
        <ele>174</ele>
        <time>2016-07-18T10:05:58Z</time>
      </trkpt>
      <trkpt lat="45.3066" lon="14.55879">
        <ele>173</ele>
        <time>2016-07-18T10:07:58Z</time>
      </trkpt>
      <trkpt lat="45.30647" lon="14.55887">
        <ele>173</ele>
        <time>2016-07-18T10:09:58Z</time>
      </trkpt>
      <trkpt lat="45.30627" lon="14.55899">
        <ele>172</ele>
        <time>2016-07-18T10:11:58Z</time>
      </trkpt>
      <trkpt lat="45.30609" lon="14.55908">
        <ele>171</ele>
        <time>2016-07-18T10:13:58Z</time>
      </trkpt>
      <trkpt lat="45.30597" lon="14.55913">
        <ele>170</ele>
        <time>2016-07-18T10:15:58Z</time>
      </trkpt>
      <trkpt lat="45.3058" lon="14.55919">
        <ele>169</ele>
        <time>2016-07-18T10:17:58Z</time>
      </trkpt>
      <trkpt lat="45.30556" lon="14.55928">
        <ele>170</ele>
        <time>2016-07-18T10:19:58Z</time>
      </trkpt>
      <trkpt lat="45.30534" lon="14.55938">
        <ele>170</ele>
        <time>2016-07-18T10:21:58Z</time>
      </trkpt>
      <trkpt lat="45.30525" lon="14.55943">
        <ele>171</ele>
        <time>2016-07-18T10:23:58Z</time>
      </trkpt>
      <trkpt lat="45.30517" lon="14.5595">
        <ele>170</ele>
        <time>2016-07-18T10:25:58Z</time>
      </trkpt>
      <trkpt lat="45.30509" lon="14.55959">
        <ele>170</ele>
        <time>2016-07-18T10:27:58Z</time>
      </trkpt>
      <trkpt lat="45.30502" lon="14.55969">
        <ele>170</ele>
        <time>2016-07-18T10:29:58Z</time>
      </trkpt>
      <trkpt lat="45.30495" lon="14.55979">
        <ele>170</ele>
        <time>2016-07-18T10:31:58Z</time>
      </trkpt>
      <trkpt lat="45.30487" lon="14.55997">
        <ele>170</ele>
        <time>2016-07-18T10:33:58Z</time>
      </trkpt>
      <trkpt lat="45.30475" lon="14.56025">
        <ele>171</ele>
        <time>2016-07-18T10:35:58Z</time>
      </trkpt>
      <trkpt lat="45.30463" lon="14.56053">
        <ele>171</ele>
        <time>2016-07-18T10:37:58Z</time>
      </trkpt>
      <trkpt lat="45.30452" lon="14.56082">
        <ele>172</ele>
        <time>2016-07-18T10:39:58Z</time>
      </trkpt>
      <trkpt lat="45.30436" lon="14.56126">
        <ele>172</ele>
        <time>2016-07-18T10:41:58Z</time>
      </trkpt>
      <trkpt lat="45.30426" lon="14.56153">
        <ele>173</ele>
        <time>2016-07-18T10:43:58Z</time>
      </trkpt>
      <trkpt lat="45.30417" lon="14.56179">
        <ele>174</ele>
        <time>2016-07-18T10:45:58Z</time>
      </trkpt>
      <trkpt lat="45.30414" lon="14.56193">
        <ele>174</ele>
        <time>2016-07-18T10:47:58Z</time>
      </trkpt>
      <trkpt lat="45.30414" lon="14.56203">
        <ele>174</ele>
        <time>2016-07-18T10:49:58Z</time>
      </trkpt>
      <trkpt lat="45.30413" lon="14.5622">
        <ele>173</ele>
        <time>2016-07-18T10:51:58Z</time>
      </trkpt>
      <trkpt lat="45.30412" lon="14.56238">
        <ele>173</ele>
        <time>2016-07-18T10:53:58Z</time>
      </trkpt>
      <trkpt lat="45.30411" lon="14.56253">
        <ele>173</ele>
        <time>2016-07-18T10:55:58Z</time>
      </trkpt>
      <trkpt lat="45.30409" lon="14.56277">
        <ele>175</ele>
        <time>2016-07-18T10:57:58Z</time>
      </trkpt>
      <trkpt lat="45.30403" lon="14.56304">
        <ele>176</ele>
        <time>2016-07-18T10:59:58Z</time>
      </trkpt>
      <trkpt lat="45.30398" lon="14.56321">
        <ele>177</ele>
        <time>2016-07-18T11:01:58Z</time>
      </trkpt>
      <trkpt lat="45.30393" lon="14.56339">
        <ele>178</ele>
        <time>2016-07-18T11:03:58Z</time>
      </trkpt>
      <trkpt lat="45.30386" lon="14.56357">
        <ele>179</ele>
        <time>2016-07-18T11:05:58Z</time>
      </trkpt>
      <trkpt lat="45.30379" lon="14.56381">
        <ele>179</ele>
        <time>2016-07-18T11:07:58Z</time>
      </trkpt>
      <trkpt lat="45.30366" lon="14.56425">
        <ele>180</ele>
        <time>2016-07-18T11:09:58Z</time>
      </trkpt>
      <trkpt lat="45.30358" lon="14.56453">
        <ele>181</ele>
        <time>2016-07-18T11:11:58Z</time>
      </trkpt>
      <trkpt lat="45.30351" lon="14.56477">
        <ele>181</ele>
        <time>2016-07-18T11:13:58Z</time>
      </trkpt>
      <trkpt lat="45.30337" lon="14.56513">
        <ele>182</ele>
        <time>2016-07-18T11:15:58Z</time>
      </trkpt>
      <trkpt lat="45.30326" lon="14.56537">
        <ele>182</ele>
        <time>2016-07-18T11:17:58Z</time>
      </trkpt>
      <trkpt lat="45.30318" lon="14.56561">
        <ele>183</ele>
        <time>2016-07-18T11:19:58Z</time>
      </trkpt>
      <trkpt lat="45.30308" lon="14.56585">
        <ele>183</ele>
        <time>2016-07-18T11:21:58Z</time>
      </trkpt>
      <trkpt lat="45.30293" lon="14.5662">
        <ele>184</ele>
        <time>2016-07-18T11:23:58Z</time>
      </trkpt>
      <trkpt lat="45.30281" lon="14.56649">
        <ele>184</ele>
        <time>2016-07-18T11:25:58Z</time>
      </trkpt>
      <trkpt lat="45.30275" lon="14.56658">
        <ele>184</ele>
        <time>2016-07-18T11:27:58Z</time>
      </trkpt>
      <trkpt lat="45.3027" lon="14.56667">
        <ele>184</ele>
        <time>2016-07-18T11:29:58Z</time>
      </trkpt>
      <trkpt lat="45.30263" lon="14.56677">
        <ele>185</ele>
        <time>2016-07-18T11:31:58Z</time>
      </trkpt>
      <trkpt lat="45.30255" lon="14.56685">
        <ele>185</ele>
        <time>2016-07-18T11:33:58Z</time>
      </trkpt>
      <trkpt lat="45.30247" lon="14.56692">
        <ele>186</ele>
        <time>2016-07-18T11:35:58Z</time>
      </trkpt>
      <trkpt lat="45.30238" lon="14.56699">
        <ele>187</ele>
        <time>2016-07-18T11:37:58Z</time>
      </trkpt>
      <trkpt lat="45.30228" lon="14.56706">
        <ele>188</ele>
        <time>2016-07-18T11:39:58Z</time>
      </trkpt>
      <trkpt lat="45.30205" lon="14.56718">
        <ele>191</ele>
        <time>2016-07-18T11:41:58Z</time>
      </trkpt>
      <trkpt lat="45.30189" lon="14.56726">
        <ele>193</ele>
        <time>2016-07-18T11:43:58Z</time>
      </trkpt>
      <trkpt lat="45.30173" lon="14.56732">
        <ele>195</ele>
        <time>2016-07-18T11:45:58Z</time>
      </trkpt>
      <trkpt lat="45.30153" lon="14.5674">
        <ele>196</ele>
        <time>2016-07-18T11:47:58Z</time>
      </trkpt>
      <trkpt lat="45.30148" lon="14.56743">
        <ele>196</ele>
        <time>2016-07-18T11:49:58Z</time>
      </trkpt>
      <trkpt lat="45.3014" lon="14.5675">
        <ele>197</ele>
        <time>2016-07-18T11:51:58Z</time>
      </trkpt>
      <trkpt lat="45.30125" lon="14.56766">
        <ele>200</ele>
        <time>2016-07-18T11:53:58Z</time>
      </trkpt>
      <trkpt lat="45.30111" lon="14.56783">
        <ele>202</ele>
        <time>2016-07-18T11:55:58Z</time>
      </trkpt>
      <trkpt lat="45.30088" lon="14.56811">
        <ele>205</ele>
        <time>2016-07-18T11:57:58Z</time>
      </trkpt>
      <trkpt lat="45.30078" lon="14.56829">
        <ele>207</ele>
        <time>2016-07-18T11:59:58Z</time>
      </trkpt>
      <trkpt lat="45.30068" lon="14.56847">
        <ele>209</ele>
        <time>2016-07-18T12:01:58Z</time>
      </trkpt>
      <trkpt lat="45.30059" lon="14.56865">
        <ele>210</ele>
        <time>2016-07-18T12:03:58Z</time>
      </trkpt>
      <trkpt lat="45.30045" lon="14.56893">
        <ele>212</ele>
        <time>2016-07-18T12:05:58Z</time>
      </trkpt>
      <trkpt lat="45.30037" lon="14.56911">
        <ele>213</ele>
        <time>2016-07-18T12:07:58Z</time>
      </trkpt>
      <trkpt lat="45.30024" lon="14.56943">
        <ele>216</ele>
        <time>2016-07-18T12:09:58Z</time>
      </trkpt>
      <trkpt lat="45.30012" lon="14.56976">
        <ele>218</ele>
        <time>2016-07-18T12:11:58Z</time>
      </trkpt>
      <trkpt lat="45.30004" lon="14.56998">
        <ele>219</ele>
        <time>2016-07-18T12:13:58Z</time>
      </trkpt>
      <trkpt lat="45.29994" lon="14.5703">
        <ele>221</ele>
        <time>2016-07-18T12:15:58Z</time>
      </trkpt>
      <trkpt lat="45.29991" lon="14.57045">
        <ele>222</ele>
        <time>2016-07-18T12:17:58Z</time>
      </trkpt>
      <trkpt lat="45.29988" lon="14.5706">
        <ele>223</ele>
        <time>2016-07-18T12:19:58Z</time>
      </trkpt>
      <trkpt lat="45.29982" lon="14.57081">
        <ele>223</ele>
        <time>2016-07-18T12:21:58Z</time>
      </trkpt>
      <trkpt lat="45.29978" lon="14.57095">
        <ele>224</ele>
        <time>2016-07-18T12:23:58Z</time>
      </trkpt>
      <trkpt lat="45.29973" lon="14.57109">
        <ele>223</ele>
        <time>2016-07-18T12:25:58Z</time>
      </trkpt>
      <trkpt lat="45.29968" lon="14.57123">
        <ele>223</ele>
        <time>2016-07-18T12:27:58Z</time>
      </trkpt>
      <trkpt lat="45.29964" lon="14.57134">
        <ele>223</ele>
        <time>2016-07-18T12:29:58Z</time>
      </trkpt>
      <trkpt lat="45.29956" lon="14.57151">
        <ele>222</ele>
        <time>2016-07-18T12:31:58Z</time>
      </trkpt>
      <trkpt lat="45.2995" lon="14.57167">
        <ele>222</ele>
        <time>2016-07-18T12:33:58Z</time>
      </trkpt>
      <trkpt lat="45.29944" lon="14.57185">
        <ele>221</ele>
        <time>2016-07-18T12:35:58Z</time>
      </trkpt>
      <trkpt lat="45.2994" lon="14.57199">
        <ele>220</ele>
        <time>2016-07-18T12:37:58Z</time>
      </trkpt>
      <trkpt lat="45.29933" lon="14.57221">
        <ele>220</ele>
        <time>2016-07-18T12:39:58Z</time>
      </trkpt>
      <trkpt lat="45.29927" lon="14.57243">
        <ele>219</ele>
        <time>2016-07-18T12:41:58Z</time>
      </trkpt>
      <trkpt lat="45.29917" lon="14.57276">
        <ele>218</ele>
        <time>2016-07-18T12:43:58Z</time>
      </trkpt>
      <trkpt lat="45.29912" lon="14.57297">
        <ele>216</ele>
        <time>2016-07-18T12:45:58Z</time>
      </trkpt>
      <trkpt lat="45.29907" lon="14.57334">
        <ele>214</ele>
        <time>2016-07-18T12:47:58Z</time>
      </trkpt>
      <trkpt lat="45.299" lon="14.57372">
        <ele>215</ele>
        <time>2016-07-18T12:49:58Z</time>
      </trkpt>
      <trkpt lat="45.29896" lon="14.57398">
        <ele>215</ele>
        <time>2016-07-18T12:51:58Z</time>
      </trkpt>
      <trkpt lat="45.29893" lon="14.57407">
        <ele>215</ele>
        <time>2016-07-18T12:53:58Z</time>
      </trkpt>
      <trkpt lat="45.2989" lon="14.57414">
        <ele>215</ele>
        <time>2016-07-18T12:55:58Z</time>
      </trkpt>
      <trkpt lat="45.29883" lon="14.57426">
        <ele>215</ele>
        <time>2016-07-18T12:57:58Z</time>
      </trkpt>
      <trkpt lat="45.29874" lon="14.57437">
        <ele>215</ele>
        <time>2016-07-18T12:59:58Z</time>
      </trkpt>
      <trkpt lat="45.29863" lon="14.5745">
        <ele>215</ele>
        <time>2016-07-18T13:01:58Z</time>
      </trkpt>
      <trkpt lat="45.29855" lon="14.57461">
        <ele>214</ele>
        <time>2016-07-18T13:03:58Z</time>
      </trkpt>
      <trkpt lat="45.29847" lon="14.57472">
        <ele>214</ele>
        <time>2016-07-18T13:05:58Z</time>
      </trkpt>
      <trkpt lat="45.29836" lon="14.57489">
        <ele>213</ele>
        <time>2016-07-18T13:07:58Z</time>
      </trkpt>
      <trkpt lat="45.29824" lon="14.5751">
        <ele>212</ele>
        <time>2016-07-18T13:09:58Z</time>
      </trkpt>
      <trkpt lat="45.2982" lon="14.57522">
        <ele>212</ele>
        <time>2016-07-18T13:11:58Z</time>
      </trkpt>
      <trkpt lat="45.29813" lon="14.5754">
        <ele>211</ele>
        <time>2016-07-18T13:13:58Z</time>
      </trkpt>
      <trkpt lat="45.29809" lon="14.57553">
        <ele>211</ele>
        <time>2016-07-18T13:15:58Z</time>
      </trkpt>
      <trkpt lat="45.29806" lon="14.57566">
        <ele>211</ele>
        <time>2016-07-18T13:17:58Z</time>
      </trkpt>
      <trkpt lat="45.29802" lon="14.57587">
        <ele>212</ele>
        <time>2016-07-18T13:19:58Z</time>
      </trkpt>
      <trkpt lat="45.29796" lon="14.5763">
        <ele>217</ele>
        <time>2016-07-18T13:21:58Z</time>
      </trkpt>
      <trkpt lat="45.29792" lon="14.57672">
        <ele>222</ele>
        <time>2016-07-18T13:23:58Z</time>
      </trkpt>
      <trkpt lat="45.2979" lon="14.57677">
        <ele>222</ele>
        <time>2016-07-18T13:25:58Z</time>
      </trkpt>
      <trkpt lat="45.29784" lon="14.57689">
        <ele>222</ele>
        <time>2016-07-18T13:27:58Z</time>
      </trkpt>
      <trkpt lat="45.29779" lon="14.57696">
        <ele>222</ele>
        <time>2016-07-18T13:29:58Z</time>
      </trkpt>
      <trkpt lat="45.29775" lon="14.57703">
        <ele>222</ele>
        <time>2016-07-18T13:31:58Z</time>
      </trkpt>
      <trkpt lat="45.29768" lon="14.57711">
        <ele>222</ele>
        <time>2016-07-18T13:33:58Z</time>
      </trkpt>
      <trkpt lat="45.29762" lon="14.57719">
        <ele>221</ele>
        <time>2016-07-18T13:35:58Z</time>
      </trkpt>
      <trkpt lat="45.29751" lon="14.57735">
        <ele>221</ele>
        <time>2016-07-18T13:37:58Z</time>
      </trkpt>
      <trkpt lat="45.2974" lon="14.57751">
        <ele>222</ele>
        <time>2016-07-18T13:39:58Z</time>
      </trkpt>
      <trkpt lat="45.29723" lon="14.57778">
        <ele>225</ele>
        <time>2016-07-18T13:41:58Z</time>
      </trkpt>
      <trkpt lat="45.29695" lon="14.57813">
        <ele>227</ele>
        <time>2016-07-18T13:43:58Z</time>
      </trkpt>
      <trkpt lat="45.29681" lon="14.57831">
        <ele>227</ele>
        <time>2016-07-18T13:45:58Z</time>
      </trkpt>
      <trkpt lat="45.29668" lon="14.5785">
        <ele>227</ele>
        <time>2016-07-18T13:47:58Z</time>
      </trkpt>
      <trkpt lat="45.29657" lon="14.57868">
        <ele>227</ele>
        <time>2016-07-18T13:49:58Z</time>
      </trkpt>
      <trkpt lat="45.29647" lon="14.57887">
        <ele>227</ele>
        <time>2016-07-18T13:51:58Z</time>
      </trkpt>
      <trkpt lat="45.29633" lon="14.57916">
        <ele>228</ele>
        <time>2016-07-18T13:53:58Z</time>
      </trkpt>
      <trkpt lat="45.29615" lon="14.57954">
        <ele>229</ele>
        <time>2016-07-18T13:55:58Z</time>
      </trkpt>
      <trkpt lat="45.29607" lon="14.57974">
        <ele>230</ele>
        <time>2016-07-18T13:57:58Z</time>
      </trkpt>
      <trkpt lat="45.29599" lon="14.57994">
        <ele>230</ele>
        <time>2016-07-18T13:59:58Z</time>
      </trkpt>
      <trkpt lat="45.29587" lon="14.5803">
        <ele>229</ele>
        <time>2016-07-18T14:01:58Z</time>
      </trkpt>
      <trkpt lat="45.29576" lon="14.58066">
        <ele>227</ele>
        <time>2016-07-18T14:03:58Z</time>
      </trkpt>
      <trkpt lat="45.29559" lon="14.58125">
        <ele>226</ele>
        <time>2016-07-18T14:05:58Z</time>
      </trkpt>
      <trkpt lat="45.29555" lon="14.58141">
        <ele>226</ele>
        <time>2016-07-18T14:07:58Z</time>
      </trkpt>
      <trkpt lat="45.29552" lon="14.58157">
        <ele>226</ele>
        <time>2016-07-18T14:09:58Z</time>
      </trkpt>
      <trkpt lat="45.29548" lon="14.58181">
        <ele>226</ele>
        <time>2016-07-18T14:11:58Z</time>
      </trkpt>
      <trkpt lat="45.29545" lon="14.58205">
        <ele>226</ele>
        <time>2016-07-18T14:13:58Z</time>
      </trkpt>
      <trkpt lat="45.29543" lon="14.58232">
        <ele>225</ele>
        <time>2016-07-18T14:15:58Z</time>
      </trkpt>
      <trkpt lat="45.2954" lon="14.58258">
        <ele>225</ele>
        <time>2016-07-18T14:17:58Z</time>
      </trkpt>
      <trkpt lat="45.29539" lon="14.58269">
        <ele>225</ele>
        <time>2016-07-18T14:19:58Z</time>
      </trkpt>
      <trkpt lat="45.29538" lon="14.5828">
        <ele>226</ele>
        <time>2016-07-18T14:21:58Z</time>
      </trkpt>
      <trkpt lat="45.29536" lon="14.58291">
        <ele>226</ele>
        <time>2016-07-18T14:23:58Z</time>
      </trkpt>
      <trkpt lat="45.29534" lon="14.58302">
        <ele>226</ele>
        <time>2016-07-18T14:25:58Z</time>
      </trkpt>
      <trkpt lat="45.29533" lon="14.58307">
        <ele>227</ele>
        <time>2016-07-18T14:27:58Z</time>
      </trkpt>
      <trkpt lat="45.29532" lon="14.58311">
        <ele>227</ele>
        <time>2016-07-18T14:29:58Z</time>
      </trkpt>
      <trkpt lat="45.29527" lon="14.58322">
        <ele>226</ele>
        <time>2016-07-18T14:31:58Z</time>
      </trkpt>
      <trkpt lat="45.29521" lon="14.58332">
        <ele>226</ele>
        <time>2016-07-18T14:33:58Z</time>
      </trkpt>
      <trkpt lat="45.29514" lon="14.58342">
        <ele>226</ele>
        <time>2016-07-18T14:35:58Z</time>
      </trkpt>
      <trkpt lat="45.29509" lon="14.58348">
        <ele>225</ele>
        <time>2016-07-18T14:37:58Z</time>
      </trkpt>
      <trkpt lat="45.29501" lon="14.58356">
        <ele>225</ele>
        <time>2016-07-18T14:39:58Z</time>
      </trkpt>
      <trkpt lat="45.29492" lon="14.58363">
        <ele>226</ele>
        <time>2016-07-18T14:41:58Z</time>
      </trkpt>
      <trkpt lat="45.29454" lon="14.58396">
        <ele>229</ele>
        <time>2016-07-18T14:43:58Z</time>
      </trkpt>
      <trkpt lat="45.2944" lon="14.58408">
        <ele>230</ele>
        <time>2016-07-18T14:45:58Z</time>
      </trkpt>
      <trkpt lat="45.29425" lon="14.58421">
        <ele>231</ele>
        <time>2016-07-18T14:47:58Z</time>
      </trkpt>
      <trkpt lat="45.29411" lon="14.58435">
        <ele>232</ele>
        <time>2016-07-18T14:49:58Z</time>
      </trkpt>
      <trkpt lat="45.29392" lon="14.58453">
        <ele>235</ele>
        <time>2016-07-18T14:51:58Z</time>
      </trkpt>
      <trkpt lat="45.29386" lon="14.5846">
        <ele>235</ele>
        <time>2016-07-18T14:53:58Z</time>
      </trkpt>
      <trkpt lat="45.29374" lon="14.58472">
        <ele>237</ele>
        <time>2016-07-18T14:55:58Z</time>
      </trkpt>
      <trkpt lat="45.29358" lon="14.58491">
        <ele>239</ele>
        <time>2016-07-18T14:57:58Z</time>
      </trkpt>
      <trkpt lat="45.29342" lon="14.58511">
        <ele>240</ele>
        <time>2016-07-18T14:59:58Z</time>
      </trkpt>
      <trkpt lat="45.29336" lon="14.58519">
        <ele>240</ele>
        <time>2016-07-18T15:01:58Z</time>
      </trkpt>
      <trkpt lat="45.29336" lon="14.58519">
        <ele>240</ele>
        <time>2016-07-18T15:03:58Z</time>
      </trkpt>
      <trkpt lat="45.29321" lon="14.58537">
        <ele>240</ele>
        <time>2016-07-18T15:05:58Z</time>
      </trkpt>
      <trkpt lat="45.29306" lon="14.58556">
        <ele>240</ele>
        <time>2016-07-18T15:07:58Z</time>
      </trkpt>
      <trkpt lat="45.29287" lon="14.58581">
        <ele>240</ele>
        <time>2016-07-18T15:09:58Z</time>
      </trkpt>
      <trkpt lat="45.29278" lon="14.58593">
        <ele>240</ele>
        <time>2016-07-18T15:11:58Z</time>
      </trkpt>
      <trkpt lat="45.29249" lon="14.58628">
        <ele>238</ele>
        <time>2016-07-18T15:13:58Z</time>
      </trkpt>
      <trkpt lat="45.29233" lon="14.58644">
        <ele>236</ele>
        <time>2016-07-18T15:15:58Z</time>
      </trkpt>
      <trkpt lat="45.29207" lon="14.58673">
        <ele>233</ele>
        <time>2016-07-18T15:17:58Z</time>
      </trkpt>
      <trkpt lat="45.2917" lon="14.5871">
        <ele>230</ele>
        <time>2016-07-18T15:19:58Z</time>
      </trkpt>
      <trkpt lat="45.29133" lon="14.58749">
        <ele>228</ele>
        <time>2016-07-18T15:21:58Z</time>
      </trkpt>
      <trkpt lat="45.29125" lon="14.58758">
        <ele>228</ele>
        <time>2016-07-18T15:23:58Z</time>
      </trkpt>
      <trkpt lat="45.29116" lon="14.58766">
        <ele>227</ele>
        <time>2016-07-18T15:25:58Z</time>
      </trkpt>
      <trkpt lat="45.29109" lon="14.58773">
        <ele>227</ele>
        <time>2016-07-18T15:27:58Z</time>
      </trkpt>
      <trkpt lat="45.29083" lon="14.58801">
        <ele>226</ele>
        <time>2016-07-18T15:29:58Z</time>
      </trkpt>
      <trkpt lat="45.2898" lon="14.58898">
        <ele>225</ele>
        <time>2016-07-18T15:31:58Z</time>
      </trkpt>
      <trkpt lat="45.2897" lon="14.58909">
        <ele>225</ele>
        <time>2016-07-18T15:33:58Z</time>
      </trkpt>
      <trkpt lat="45.28961" lon="14.58921">
        <ele>225</ele>
        <time>2016-07-18T15:35:58Z</time>
      </trkpt>
      <trkpt lat="45.28951" lon="14.58936">
        <ele>224</ele>
        <time>2016-07-18T15:37:58Z</time>
      </trkpt>
      <trkpt lat="45.28936" lon="14.58967">
        <ele>223</ele>
        <time>2016-07-18T15:39:58Z</time>
      </trkpt>
      <trkpt lat="45.28927" lon="14.58982">
        <ele>222</ele>
        <time>2016-07-18T15:41:58Z</time>
      </trkpt>
      <trkpt lat="45.28921" lon="14.58991">
        <ele>222</ele>
        <time>2016-07-18T15:43:58Z</time>
      </trkpt>
      <trkpt lat="45.28911" lon="14.59003">
        <ele>223</ele>
        <time>2016-07-18T15:45:58Z</time>
      </trkpt>
      <trkpt lat="45.28901" lon="14.59014">
        <ele>223</ele>
        <time>2016-07-18T15:47:58Z</time>
      </trkpt>
      <trkpt lat="45.28893" lon="14.59022">
        <ele>223</ele>
        <time>2016-07-18T15:49:58Z</time>
      </trkpt>
      <trkpt lat="45.28891" lon="14.59024">
        <ele>224</ele>
        <time>2016-07-18T15:51:58Z</time>
      </trkpt>
      <trkpt lat="45.28879" lon="14.59034">
        <ele>224</ele>
        <time>2016-07-18T15:53:58Z</time>
      </trkpt>
      <trkpt lat="45.28866" lon="14.59044">
        <ele>225</ele>
        <time>2016-07-18T15:55:58Z</time>
      </trkpt>
      <trkpt lat="45.28857" lon="14.59051">
        <ele>225</ele>
        <time>2016-07-18T15:57:58Z</time>
      </trkpt>
      <trkpt lat="45.28847" lon="14.59057">
        <ele>225</ele>
        <time>2016-07-18T15:59:58Z</time>
      </trkpt>
      <trkpt lat="45.28834" lon="14.59064">
        <ele>226</ele>
        <time>2016-07-18T16:01:58Z</time>
      </trkpt>
      <trkpt lat="45.28757" lon="14.59101">
        <ele>226</ele>
        <time>2016-07-18T16:03:58Z</time>
      </trkpt>
      <trkpt lat="45.28748" lon="14.59106">
        <ele>226</ele>
        <time>2016-07-18T16:05:58Z</time>
      </trkpt>
      <trkpt lat="45.2873" lon="14.59114">
        <ele>226</ele>
        <time>2016-07-18T16:07:58Z</time>
      </trkpt>
      <trkpt lat="45.28667" lon="14.59143">
        <ele>225</ele>
        <time>2016-07-18T16:09:58Z</time>
      </trkpt>
      <trkpt lat="45.28661" lon="14.59146">
        <ele>225</ele>
        <time>2016-07-18T16:11:58Z</time>
      </trkpt>
      <trkpt lat="45.28639" lon="14.59156">
        <ele>225</ele>
        <time>2016-07-18T16:13:58Z</time>
      </trkpt>
      <trkpt lat="45.28613" lon="14.5917">
        <ele>224</ele>
        <time>2016-07-18T16:15:58Z</time>
      </trkpt>
      <trkpt lat="45.28592" lon="14.59182">
        <ele>224</ele>
        <time>2016-07-18T16:17:58Z</time>
      </trkpt>
      <trkpt lat="45.28571" lon="14.59193">
        <ele>225</ele>
        <time>2016-07-18T16:19:58Z</time>
      </trkpt>
      <trkpt lat="45.28551" lon="14.59203">
        <ele>226</ele>
        <time>2016-07-18T16:21:58Z</time>
      </trkpt>
      <trkpt lat="45.2853" lon="14.59215">
        <ele>227</ele>
        <time>2016-07-18T16:23:58Z</time>
      </trkpt>
      <trkpt lat="45.28522" lon="14.5922">
        <ele>227</ele>
        <time>2016-07-18T16:25:58Z</time>
      </trkpt>
      <trkpt lat="45.28521" lon="14.5922">
        <ele>227</ele>
        <time>2016-07-18T16:27:58Z</time>
      </trkpt>
      <trkpt lat="45.28513" lon="14.59224">
        <ele>228</ele>
        <time>2016-07-18T16:29:58Z</time>
      </trkpt>
      <trkpt lat="45.285" lon="14.5923">
        <ele>228</ele>
        <time>2016-07-18T16:31:58Z</time>
      </trkpt>
      <trkpt lat="45.28492" lon="14.59233">
        <ele>229</ele>
        <time>2016-07-18T16:33:58Z</time>
      </trkpt>
      <trkpt lat="45.28488" lon="14.59234">
        <ele>229</ele>
        <time>2016-07-18T16:35:58Z</time>
      </trkpt>
      <trkpt lat="45.28446" lon="14.59237">
        <ele>233</ele>
        <time>2016-07-18T16:37:58Z</time>
      </trkpt>
      <trkpt lat="45.28424" lon="14.59239">
        <ele>234</ele>
        <time>2016-07-18T16:39:58Z</time>
      </trkpt>
      <trkpt lat="45.28415" lon="14.59242">
        <ele>235</ele>
        <time>2016-07-18T16:41:58Z</time>
      </trkpt>
      <trkpt lat="45.28407" lon="14.59245">
        <ele>236</ele>
        <time>2016-07-18T16:43:58Z</time>
      </trkpt>
      <trkpt lat="45.28373" lon="14.5926">
        <ele>239</ele>
        <time>2016-07-18T16:45:58Z</time>
      </trkpt>
      <trkpt lat="45.28367" lon="14.59262">
        <ele>240</ele>
        <time>2016-07-18T16:47:58Z</time>
      </trkpt>
      <trkpt lat="45.28332" lon="14.59279">
        <ele>244</ele>
        <time>2016-07-18T16:49:58Z</time>
      </trkpt>
      <trkpt lat="45.28314" lon="14.59292">
        <ele>246</ele>
        <time>2016-07-18T16:51:58Z</time>
      </trkpt>
      <trkpt lat="45.28304" lon="14.59299">
        <ele>247</ele>
        <time>2016-07-18T16:53:58Z</time>
      </trkpt>
      <trkpt lat="45.28288" lon="14.59313">
        <ele>248</ele>
        <time>2016-07-18T16:55:58Z</time>
      </trkpt>
      <trkpt lat="45.28277" lon="14.59323">
        <ele>249</ele>
        <time>2016-07-18T16:57:58Z</time>
      </trkpt>
      <trkpt lat="45.28273" lon="14.59328">
        <ele>249</ele>
        <time>2016-07-18T16:59:58Z</time>
      </trkpt>
      <trkpt lat="45.28264" lon="14.59339">
        <ele>250</ele>
        <time>2016-07-18T17:01:58Z</time>
      </trkpt>
      <trkpt lat="45.28259" lon="14.59346">
        <ele>251</ele>
        <time>2016-07-18T17:03:58Z</time>
      </trkpt>
      <trkpt lat="45.2825" lon="14.59357">
        <ele>252</ele>
        <time>2016-07-18T17:05:58Z</time>
      </trkpt>
      <trkpt lat="45.28244" lon="14.59363">
        <ele>252</ele>
        <time>2016-07-18T17:07:58Z</time>
      </trkpt>
      <trkpt lat="45.28237" lon="14.59371">
        <ele>253</ele>
        <time>2016-07-18T17:09:58Z</time>
      </trkpt>
      <trkpt lat="45.28231" lon="14.59373">
        <ele>253</ele>
        <time>2016-07-18T17:11:58Z</time>
      </trkpt>
      <trkpt lat="45.28227" lon="14.59374">
        <ele>253</ele>
        <time>2016-07-18T17:13:58Z</time>
      </trkpt>
      <trkpt lat="45.28224" lon="14.59374">
        <ele>253</ele>
        <time>2016-07-18T17:15:58Z</time>
      </trkpt>
      <trkpt lat="45.28206" lon="14.59372">
        <ele>254</ele>
        <time>2016-07-18T17:17:58Z</time>
      </trkpt>
      <trkpt lat="45.28201" lon="14.59371">
        <ele>254</ele>
        <time>2016-07-18T17:19:58Z</time>
      </trkpt>
      <trkpt lat="45.28194" lon="14.59372">
        <ele>255</ele>
        <time>2016-07-18T17:21:58Z</time>
      </trkpt>
      <trkpt lat="45.28188" lon="14.59374">
        <ele>255</ele>
        <time>2016-07-18T17:23:58Z</time>
      </trkpt>
      <trkpt lat="45.28187" lon="14.59374">
        <ele>255</ele>
        <time>2016-07-18T17:25:58Z</time>
      </trkpt>
      <trkpt lat="45.28181" lon="14.59378">
        <ele>255</ele>
        <time>2016-07-18T17:27:58Z</time>
      </trkpt>
      <trkpt lat="45.28177" lon="14.59381">
        <ele>255</ele>
        <time>2016-07-18T17:29:58Z</time>
      </trkpt>
      <trkpt lat="45.28165" lon="14.59392">
        <ele>255</ele>
        <time>2016-07-18T17:31:58Z</time>
      </trkpt>
      <trkpt lat="45.28134" lon="14.5942">
        <ele>256</ele>
        <time>2016-07-18T17:33:58Z</time>
      </trkpt>
      <trkpt lat="45.28103" lon="14.59449">
        <ele>255</ele>
        <time>2016-07-18T17:35:58Z</time>
      </trkpt>
      <trkpt lat="45.28076" lon="14.59473">
        <ele>253</ele>
        <time>2016-07-18T17:37:58Z</time>
      </trkpt>
      <trkpt lat="45.28063" lon="14.59486">
        <ele>250</ele>
        <time>2016-07-18T17:39:58Z</time>
      </trkpt>
      <trkpt lat="45.28051" lon="14.59501">
        <ele>246</ele>
        <time>2016-07-18T17:41:58Z</time>
      </trkpt>
      <trkpt lat="45.2804" lon="14.59519">
        <ele>244</ele>
        <time>2016-07-18T17:43:58Z</time>
      </trkpt>
      <trkpt lat="45.28033" lon="14.59532">
        <ele>243</ele>
        <time>2016-07-18T17:45:58Z</time>
      </trkpt>
      <trkpt lat="45.28028" lon="14.59546">
        <ele>242</ele>
        <time>2016-07-18T17:47:58Z</time>
      </trkpt>
      <trkpt lat="45.28022" lon="14.59566">
        <ele>240</ele>
        <time>2016-07-18T17:49:58Z</time>
      </trkpt>
      <trkpt lat="45.2801" lon="14.59619">
        <ele>237</ele>
        <time>2016-07-18T17:51:58Z</time>
      </trkpt>
      <trkpt lat="45.28004" lon="14.59644">
        <ele>236</ele>
        <time>2016-07-18T17:53:58Z</time>
      </trkpt>
      <trkpt lat="45.27997" lon="14.59674">
        <ele>235</ele>
        <time>2016-07-18T17:55:58Z</time>
      </trkpt>
      <trkpt lat="45.27992" lon="14.59695">
        <ele>235</ele>
        <time>2016-07-18T17:57:58Z</time>
      </trkpt>
      <trkpt lat="45.27985" lon="14.59724">
        <ele>236</ele>
        <time>2016-07-18T17:59:58Z</time>
      </trkpt>
      <trkpt lat="45.27968" lon="14.59801">
        <ele>239</ele>
        <time>2016-07-18T18:01:58Z</time>
      </trkpt>
      <trkpt lat="45.27965" lon="14.59814">
        <ele>239</ele>
        <time>2016-07-18T18:03:58Z</time>
      </trkpt>
      <trkpt lat="45.27964" lon="14.5982">
        <ele>239</ele>
        <time>2016-07-18T18:05:58Z</time>
      </trkpt>
      <trkpt lat="45.27965" lon="14.59826">
        <ele>240</ele>
        <time>2016-07-18T18:07:58Z</time>
      </trkpt>
      <trkpt lat="45.27965" lon="14.59834">
        <ele>240</ele>
        <time>2016-07-18T18:09:58Z</time>
      </trkpt>
      <trkpt lat="45.27967" lon="14.59841">
        <ele>241</ele>
        <time>2016-07-18T18:11:58Z</time>
      </trkpt>
      <trkpt lat="45.27969" lon="14.59848">
        <ele>241</ele>
        <time>2016-07-18T18:13:58Z</time>
      </trkpt>
      <trkpt lat="45.27973" lon="14.59855">
        <ele>242</ele>
        <time>2016-07-18T18:15:58Z</time>
      </trkpt>
      <trkpt lat="45.27981" lon="14.5987">
        <ele>243</ele>
        <time>2016-07-18T18:17:58Z</time>
      </trkpt>
      <trkpt lat="45.27987" lon="14.59878">
        <ele>244</ele>
        <time>2016-07-18T18:19:58Z</time>
      </trkpt>
      <trkpt lat="45.27991" lon="14.59889">
        <ele>244</ele>
        <time>2016-07-18T18:21:58Z</time>
      </trkpt>
      <trkpt lat="45.27993" lon="14.59894">
        <ele>245</ele>
        <time>2016-07-18T18:23:58Z</time>
      </trkpt>
      <trkpt lat="45.27994" lon="14.59898">
        <ele>245</ele>
        <time>2016-07-18T18:25:58Z</time>
      </trkpt>
      <trkpt lat="45.27995" lon="14.59905">
        <ele>245</ele>
        <time>2016-07-18T18:27:58Z</time>
      </trkpt>
      <trkpt lat="45.27995" lon="14.59913">
        <ele>245</ele>
        <time>2016-07-18T18:29:58Z</time>
      </trkpt>
      <trkpt lat="45.27995" lon="14.59919">
        <ele>245</ele>
        <time>2016-07-18T18:31:58Z</time>
      </trkpt>
      <trkpt lat="45.27994" lon="14.59926">
        <ele>247</ele>
        <time>2016-07-18T18:33:58Z</time>
      </trkpt>
      <trkpt lat="45.27992" lon="14.59935">
        <ele>249</ele>
        <time>2016-07-18T18:35:58Z</time>
      </trkpt>
      <trkpt lat="45.27989" lon="14.59942">
        <ele>250</ele>
        <time>2016-07-18T18:37:58Z</time>
      </trkpt>
      <trkpt lat="45.27985" lon="14.59947">
        <ele>251</ele>
        <time>2016-07-18T18:39:58Z</time>
      </trkpt>
      <trkpt lat="45.27983" lon="14.5995">
        <ele>252</ele>
        <time>2016-07-18T18:41:58Z</time>
      </trkpt>
      <trkpt lat="45.27977" lon="14.59953">
        <ele>252</ele>
        <time>2016-07-18T18:43:58Z</time>
      </trkpt>
      <trkpt lat="45.27971" lon="14.59956">
        <ele>253</ele>
        <time>2016-07-18T18:45:58Z</time>
      </trkpt>
      <trkpt lat="45.27964" lon="14.59958">
        <ele>253</ele>
        <time>2016-07-18T18:47:58Z</time>
      </trkpt>
      <trkpt lat="45.27959" lon="14.59958">
        <ele>252</ele>
        <time>2016-07-18T18:49:58Z</time>
      </trkpt>
      <trkpt lat="45.2795" lon="14.59957">
        <ele>252</ele>
        <time>2016-07-18T18:51:58Z</time>
      </trkpt>
      <trkpt lat="45.27942" lon="14.59954">
        <ele>251</ele>
        <time>2016-07-18T18:53:58Z</time>
      </trkpt>
      <trkpt lat="45.27935" lon="14.5995">
        <ele>250</ele>
        <time>2016-07-18T18:55:58Z</time>
      </trkpt>
      <trkpt lat="45.27926" lon="14.59943">
        <ele>248</ele>
        <time>2016-07-18T18:57:58Z</time>
      </trkpt>
      <trkpt lat="45.27911" lon="14.59931">
        <ele>245</ele>
        <time>2016-07-18T18:59:58Z</time>
      </trkpt>
      <trkpt lat="45.27902" lon="14.59924">
        <ele>244</ele>
        <time>2016-07-18T19:01:58Z</time>
      </trkpt>
      <trkpt lat="45.27892" lon="14.59916">
        <ele>243</ele>
        <time>2016-07-18T19:03:58Z</time>
      </trkpt>
      <trkpt lat="45.27885" lon="14.59912">
        <ele>243</ele>
        <time>2016-07-18T19:05:58Z</time>
      </trkpt>
      <trkpt lat="45.27879" lon="14.59908">
        <ele>243</ele>
        <time>2016-07-18T19:07:58Z</time>
      </trkpt>
      <trkpt lat="45.27869" lon="14.59906">
        <ele>243</ele>
        <time>2016-07-18T19:09:58Z</time>
      </trkpt>
      <trkpt lat="45.27854" lon="14.59905">
        <ele>243</ele>
        <time>2016-07-18T19:11:58Z</time>
      </trkpt>
      <trkpt lat="45.27843" lon="14.59908">
        <ele>244</ele>
        <time>2016-07-18T19:13:58Z</time>
      </trkpt>
      <trkpt lat="45.2784" lon="14.5991">
        <ele>244</ele>
        <time>2016-07-18T19:15:58Z</time>
      </trkpt>
      <trkpt lat="45.27833" lon="14.59914">
        <ele>245</ele>
        <time>2016-07-18T19:17:58Z</time>
      </trkpt>
      <trkpt lat="45.27822" lon="14.59923">
        <ele>243</ele>
        <time>2016-07-18T19:19:58Z</time>
      </trkpt>
      <trkpt lat="45.27816" lon="14.59931">
        <ele>243</ele>
        <time>2016-07-18T19:21:58Z</time>
      </trkpt>
      <trkpt lat="45.27809" lon="14.59943">
        <ele>243</ele>
        <time>2016-07-18T19:23:58Z</time>
      </trkpt>
      <trkpt lat="45.27805" lon="14.5995">
        <ele>242</ele>
        <time>2016-07-18T19:25:58Z</time>
      </trkpt>
      <trkpt lat="45.27803" lon="14.59962">
        <ele>243</ele>
        <time>2016-07-18T19:27:58Z</time>
      </trkpt>
      <trkpt lat="45.27801" lon="14.59985">
        <ele>245</ele>
        <time>2016-07-18T19:29:58Z</time>
      </trkpt>
      <trkpt lat="45.278" lon="14.59992">
        <ele>245</ele>
        <time>2016-07-18T19:31:58Z</time>
      </trkpt>
      <trkpt lat="45.27799" lon="14.59996">
        <ele>245</ele>
        <time>2016-07-18T19:33:58Z</time>
      </trkpt>
      <trkpt lat="45.27797" lon="14.6">
        <ele>245</ele>
        <time>2016-07-18T19:35:58Z</time>
      </trkpt>
      <trkpt lat="45.27795" lon="14.60005">
        <ele>245</ele>
        <time>2016-07-18T19:37:58Z</time>
      </trkpt>
      <trkpt lat="45.2779" lon="14.60012">
        <ele>245</ele>
        <time>2016-07-18T19:39:58Z</time>
      </trkpt>
      <trkpt lat="45.27787" lon="14.60015">
        <ele>245</ele>
        <time>2016-07-18T19:41:58Z</time>
      </trkpt>
      <trkpt lat="45.27778" lon="14.60019">
        <ele>243</ele>
        <time>2016-07-18T19:43:58Z</time>
      </trkpt>
      <trkpt lat="45.27776" lon="14.60019">
        <ele>243</ele>
        <time>2016-07-18T19:45:58Z</time>
      </trkpt>
      <trkpt lat="45.27766" lon="14.6002">
        <ele>241</ele>
        <time>2016-07-18T19:47:58Z</time>
      </trkpt>
      <trkpt lat="45.27761" lon="14.60023">
        <ele>240</ele>
        <time>2016-07-18T19:49:58Z</time>
      </trkpt>
      <trkpt lat="45.27755" lon="14.60026">
        <ele>239</ele>
        <time>2016-07-18T19:51:58Z</time>
      </trkpt>
      <trkpt lat="45.27751" lon="14.6003">
        <ele>239</ele>
        <time>2016-07-18T19:53:58Z</time>
      </trkpt>
      <trkpt lat="45.27746" lon="14.60035">
        <ele>239</ele>
        <time>2016-07-18T19:55:58Z</time>
      </trkpt>
      <trkpt lat="45.27741" lon="14.60044">
        <ele>239</ele>
        <time>2016-07-18T19:57:58Z</time>
      </trkpt>
      <trkpt lat="45.27736" lon="14.60052">
        <ele>239</ele>
        <time>2016-07-18T19:59:58Z</time>
      </trkpt>
      <trkpt lat="45.27732" lon="14.60059">
        <ele>238</ele>
        <time>2016-07-18T20:01:58Z</time>
      </trkpt>
      <trkpt lat="45.27731" lon="14.60061">
        <ele>238</ele>
        <time>2016-07-18T20:03:58Z</time>
      </trkpt>
      <trkpt lat="45.27727" lon="14.60066">
        <ele>238</ele>
        <time>2016-07-18T20:05:58Z</time>
      </trkpt>
      <trkpt lat="45.27725" lon="14.60068">
        <ele>238</ele>
        <time>2016-07-18T20:07:58Z</time>
      </trkpt>
      <trkpt lat="45.27716" lon="14.60081">
        <ele>237</ele>
        <time>2016-07-18T20:09:58Z</time>
      </trkpt>
      <trkpt lat="45.27701" lon="14.601">
        <ele>235</ele>
        <time>2016-07-18T20:11:58Z</time>
      </trkpt>
      <trkpt lat="45.27697" lon="14.60107">
        <ele>234</ele>
        <time>2016-07-18T20:13:58Z</time>
      </trkpt>
      <trkpt lat="45.27694" lon="14.60113">
        <ele>234</ele>
        <time>2016-07-18T20:15:58Z</time>
      </trkpt>
      <trkpt lat="45.27691" lon="14.60121">
        <ele>234</ele>
        <time>2016-07-18T20:17:58Z</time>
      </trkpt>
      <trkpt lat="45.27688" lon="14.60131">
        <ele>234</ele>
        <time>2016-07-18T20:19:58Z</time>
      </trkpt>
      <trkpt lat="45.27687" lon="14.60147">
        <ele>236</ele>
        <time>2016-07-18T20:21:58Z</time>
      </trkpt>
      <trkpt lat="45.27686" lon="14.60161">
        <ele>238</ele>
        <time>2016-07-18T20:23:58Z</time>
      </trkpt>
      <trkpt lat="45.27686" lon="14.60175">
        <ele>240</ele>
        <time>2016-07-18T20:25:58Z</time>
      </trkpt>
      <trkpt lat="45.27685" lon="14.60199">
        <ele>244</ele>
        <time>2016-07-18T20:27:58Z</time>
      </trkpt>
      <trkpt lat="45.27685" lon="14.60202">
        <ele>245</ele>
        <time>2016-07-18T20:29:58Z</time>
      </trkpt>
      <trkpt lat="45.27684" lon="14.60214">
        <ele>247</ele>
        <time>2016-07-18T20:31:58Z</time>
      </trkpt>
      <trkpt lat="45.27682" lon="14.60223">
        <ele>248</ele>
        <time>2016-07-18T20:33:58Z</time>
      </trkpt>
      <trkpt lat="45.27679" lon="14.60235">
        <ele>249</ele>
        <time>2016-07-18T20:35:58Z</time>
      </trkpt>
      <trkpt lat="45.27675" lon="14.60243">
        <ele>249</ele>
        <time>2016-07-18T20:37:58Z</time>
      </trkpt>
      <trkpt lat="45.27666" lon="14.60258">
        <ele>250</ele>
        <time>2016-07-18T20:39:58Z</time>
      </trkpt>
      <trkpt lat="45.27648" lon="14.60278">
        <ele>255</ele>
        <time>2016-07-18T20:41:58Z</time>
      </trkpt>
      <trkpt lat="45.2764" lon="14.60286">
        <ele>256</ele>
        <time>2016-07-18T20:43:58Z</time>
      </trkpt>
      <trkpt lat="45.27595" lon="14.60319">
        <ele>256</ele>
        <time>2016-07-18T20:45:58Z</time>
      </trkpt>
      <trkpt lat="45.27576" lon="14.60334">
        <ele>259</ele>
        <time>2016-07-18T20:47:58Z</time>
      </trkpt>
      <trkpt lat="45.27571" lon="14.60337">
        <ele>261</ele>
        <time>2016-07-18T20:49:58Z</time>
      </trkpt>
      <trkpt lat="45.27568" lon="14.60337">
        <ele>262</ele>
        <time>2016-07-18T20:51:58Z</time>
      </trkpt>
      <trkpt lat="45.27566" lon="14.60335">
        <ele>263</ele>
        <time>2016-07-18T20:53:58Z</time>
      </trkpt>
      <trkpt lat="45.27564" lon="14.60333">
        <ele>263</ele>
        <time>2016-07-18T20:55:58Z</time>
      </trkpt>
      <trkpt lat="45.27563" lon="14.6033">
        <ele>263</ele>
        <time>2016-07-18T20:57:58Z</time>
      </trkpt>
      <trkpt lat="45.27562" lon="14.60323">
        <ele>263</ele>
        <time>2016-07-18T20:59:58Z</time>
      </trkpt>
      <trkpt lat="45.27563" lon="14.60315">
        <ele>262</ele>
        <time>2016-07-18T21:01:58Z</time>
      </trkpt>
      <trkpt lat="45.27564" lon="14.60297">
        <ele>260</ele>
        <time>2016-07-18T21:03:58Z</time>
      </trkpt>
      <trkpt lat="45.27566" lon="14.60282">
        <ele>257</ele>
        <time>2016-07-18T21:05:58Z</time>
      </trkpt>
      <trkpt lat="45.27569" lon="14.60262">
        <ele>254</ele>
        <time>2016-07-18T21:07:58Z</time>
      </trkpt>
      <trkpt lat="45.2757" lon="14.60244">
        <ele>251</ele>
        <time>2016-07-18T21:09:58Z</time>
      </trkpt>
      <trkpt lat="45.2757" lon="14.60233">
        <ele>248</ele>
        <time>2016-07-18T21:11:58Z</time>
      </trkpt>
      <trkpt lat="45.2757" lon="14.60224">
        <ele>247</ele>
        <time>2016-07-18T21:13:58Z</time>
      </trkpt>
      <trkpt lat="45.27568" lon="14.60216">
        <ele>246</ele>
        <time>2016-07-18T21:15:58Z</time>
      </trkpt>
      <trkpt lat="45.27564" lon="14.602">
        <ele>245</ele>
        <time>2016-07-18T21:17:58Z</time>
      </trkpt>
      <trkpt lat="45.27559" lon="14.60182">
        <ele>245</ele>
        <time>2016-07-18T21:19:58Z</time>
      </trkpt>
      <trkpt lat="45.27552" lon="14.60166">
        <ele>246</ele>
        <time>2016-07-18T21:21:58Z</time>
      </trkpt>
      <trkpt lat="45.27546" lon="14.60154">
        <ele>245</ele>
        <time>2016-07-18T21:23:58Z</time>
      </trkpt>
      <trkpt lat="45.27539" lon="14.60142">
        <ele>244</ele>
        <time>2016-07-18T21:25:58Z</time>
      </trkpt>
      <trkpt lat="45.27529" lon="14.60126">
        <ele>242</ele>
        <time>2016-07-18T21:27:58Z</time>
      </trkpt>
      <trkpt lat="45.27522" lon="14.60114">
        <ele>240</ele>
        <time>2016-07-18T21:29:58Z</time>
      </trkpt>
      <trkpt lat="45.27515" lon="14.60104">
        <ele>238</ele>
        <time>2016-07-18T21:31:58Z</time>
      </trkpt>
      <trkpt lat="45.27506" lon="14.60091">
        <ele>236</ele>
        <time>2016-07-18T21:33:58Z</time>
      </trkpt>
      <trkpt lat="45.27502" lon="14.60088">
        <ele>236</ele>
        <time>2016-07-18T21:35:58Z</time>
      </trkpt>
      <trkpt lat="45.27497" lon="14.60084">
        <ele>235</ele>
        <time>2016-07-18T21:37:58Z</time>
      </trkpt>
      <trkpt lat="45.2749" lon="14.60081">
        <ele>234</ele>
        <time>2016-07-18T21:39:58Z</time>
      </trkpt>
      <trkpt lat="45.27486" lon="14.6008">
        <ele>234</ele>
        <time>2016-07-18T21:41:58Z</time>
      </trkpt>
      <trkpt lat="45.27477" lon="14.60077">
        <ele>233</ele>
        <time>2016-07-18T21:43:58Z</time>
      </trkpt>
      <trkpt lat="45.27469" lon="14.6007">
        <ele>231</ele>
        <time>2016-07-18T21:45:58Z</time>
      </trkpt>
      <trkpt lat="45.27464" lon="14.60066">
        <ele>230</ele>
        <time>2016-07-18T21:47:58Z</time>
      </trkpt>
      <trkpt lat="45.2746" lon="14.60062">
        <ele>228</ele>
        <time>2016-07-18T21:49:58Z</time>
      </trkpt>
      <trkpt lat="45.27459" lon="14.6006">
        <ele>228</ele>
        <time>2016-07-18T21:51:58Z</time>
      </trkpt>
      <trkpt lat="45.27455" lon="14.60053">
        <ele>225</ele>
        <time>2016-07-18T21:53:58Z</time>
      </trkpt>
      <trkpt lat="45.27453" lon="14.60051">
        <ele>224</ele>
        <time>2016-07-18T21:55:58Z</time>
      </trkpt>
      <trkpt lat="45.2745" lon="14.6005">
        <ele>224</ele>
        <time>2016-07-18T21:57:58Z</time>
      </trkpt>
      <trkpt lat="45.27447" lon="14.60049">
        <ele>224</ele>
        <time>2016-07-18T21:59:58Z</time>
      </trkpt>
      <trkpt lat="45.27445" lon="14.60049">
        <ele>224</ele>
        <time>2016-07-18T22:01:58Z</time>
      </trkpt>
      <trkpt lat="45.2744" lon="14.6005">
        <ele>225</ele>
        <time>2016-07-18T22:03:58Z</time>
      </trkpt>
      <trkpt lat="45.27425" lon="14.6006">
        <ele>230</ele>
        <time>2016-07-18T22:05:58Z</time>
      </trkpt>
      <trkpt lat="45.27384" lon="14.60094">
        <ele>234</ele>
        <time>2016-07-18T22:07:58Z</time>
      </trkpt>
      <trkpt lat="45.27366" lon="14.60112">
        <ele>236</ele>
        <time>2016-07-18T22:09:58Z</time>
      </trkpt>
      <trkpt lat="45.27339" lon="14.60139">
        <ele>239</ele>
        <time>2016-07-18T22:11:58Z</time>
      </trkpt>
      <trkpt lat="45.27311" lon="14.60164">
        <ele>241</ele>
        <time>2016-07-18T22:13:58Z</time>
      </trkpt>
      <trkpt lat="45.27302" lon="14.60172">
        <ele>241</ele>
        <time>2016-07-18T22:15:58Z</time>
      </trkpt>
      <trkpt lat="45.27251" lon="14.60206">
        <ele>238</ele>
        <time>2016-07-18T22:17:58Z</time>
      </trkpt>
      <trkpt lat="45.27212" lon="14.60233">
        <ele>234</ele>
        <time>2016-07-18T22:19:58Z</time>
      </trkpt>
      <trkpt lat="45.27189" lon="14.60252">
        <ele>233</ele>
        <time>2016-07-18T22:21:58Z</time>
      </trkpt>
      <trkpt lat="45.27165" lon="14.60275">
        <ele>232</ele>
        <time>2016-07-18T22:23:58Z</time>
      </trkpt>
      <trkpt lat="45.27156" lon="14.60284">
        <ele>231</ele>
        <time>2016-07-18T22:25:58Z</time>
      </trkpt>
      <trkpt lat="45.27151" lon="14.60289">
        <ele>230</ele>
        <time>2016-07-18T22:27:58Z</time>
      </trkpt>
      <trkpt lat="45.27145" lon="14.60297">
        <ele>230</ele>
        <time>2016-07-18T22:29:58Z</time>
      </trkpt>
      <trkpt lat="45.27141" lon="14.60304">
        <ele>230</ele>
        <time>2016-07-18T22:31:58Z</time>
      </trkpt>
      <trkpt lat="45.27132" lon="14.60321">
        <ele>231</ele>
        <time>2016-07-18T22:33:58Z</time>
      </trkpt>
      <trkpt lat="45.27104" lon="14.60371">
        <ele>232</ele>
        <time>2016-07-18T22:35:58Z</time>
      </trkpt>
      <trkpt lat="45.27087" lon="14.604">
        <ele>230</ele>
        <time>2016-07-18T22:37:58Z</time>
      </trkpt>
      <trkpt lat="45.27007" lon="14.60531">
        <ele>232</ele>
        <time>2016-07-18T22:39:58Z</time>
      </trkpt>
      <trkpt lat="45.26982" lon="14.60568">
        <ele>233</ele>
        <time>2016-07-18T22:41:58Z</time>
      </trkpt>
      <trkpt lat="45.2697" lon="14.60582">
        <ele>233</ele>
        <time>2016-07-18T22:43:58Z</time>
      </trkpt>
      <trkpt lat="45.26959" lon="14.60596">
        <ele>234</ele>
        <time>2016-07-18T22:45:58Z</time>
      </trkpt>
      <trkpt lat="45.2695" lon="14.60605">
        <ele>234</ele>
        <time>2016-07-18T22:47:58Z</time>
      </trkpt>
      <trkpt lat="45.26939" lon="14.60613">
        <ele>233</ele>
        <time>2016-07-18T22:49:58Z</time>
      </trkpt>
      <trkpt lat="45.2693" lon="14.6062">
        <ele>232</ele>
        <time>2016-07-18T22:51:58Z</time>
      </trkpt>
      <trkpt lat="45.26829" lon="14.60675">
        <ele>222</ele>
        <time>2016-07-18T22:53:58Z</time>
      </trkpt>
      <trkpt lat="45.26788" lon="14.60695">
        <ele>221</ele>
        <time>2016-07-18T22:55:58Z</time>
      </trkpt>
      <trkpt lat="45.26767" lon="14.60713">
        <ele>222</ele>
        <time>2016-07-18T22:57:58Z</time>
      </trkpt>
      <trkpt lat="45.26709" lon="14.60755">
        <ele>220</ele>
        <time>2016-07-18T22:59:58Z</time>
      </trkpt>
      <trkpt lat="45.26527" lon="14.60892">
        <ele>221</ele>
        <time>2016-07-18T23:01:58Z</time>
      </trkpt>
      <trkpt lat="45.26504" lon="14.60908">
        <ele>220</ele>
        <time>2016-07-18T23:03:58Z</time>
      </trkpt>
      <trkpt lat="45.26469" lon="14.6093">
        <ele>222</ele>
        <time>2016-07-18T23:05:58Z</time>
      </trkpt>
      <trkpt lat="45.26457" lon="14.60936">
        <ele>223</ele>
        <time>2016-07-18T23:07:58Z</time>
      </trkpt>
      <trkpt lat="45.26422" lon="14.60956">
        <ele>225</ele>
        <time>2016-07-18T23:09:58Z</time>
      </trkpt>
      <trkpt lat="45.26239" lon="14.61052">
        <ele>226</ele>
        <time>2016-07-18T23:11:58Z</time>
      </trkpt>
      <trkpt lat="45.2623" lon="14.61057">
        <ele>227</ele>
        <time>2016-07-18T23:13:58Z</time>
      </trkpt>
      <trkpt lat="45.26209" lon="14.61069">
        <ele>229</ele>
        <time>2016-07-18T23:15:58Z</time>
      </trkpt>
      <trkpt lat="45.26189" lon="14.61084">
        <ele>231</ele>
        <time>2016-07-18T23:17:58Z</time>
      </trkpt>
      <trkpt lat="45.26169" lon="14.61099">
        <ele>233</ele>
        <time>2016-07-18T23:19:58Z</time>
      </trkpt>
      <trkpt lat="45.2615" lon="14.61115">
        <ele>234</ele>
        <time>2016-07-18T23:21:58Z</time>
      </trkpt>
      <trkpt lat="45.26136" lon="14.61123">
        <ele>233</ele>
        <time>2016-07-18T23:23:58Z</time>
      </trkpt>
      <trkpt lat="45.2613" lon="14.61126">
        <ele>233</ele>
        <time>2016-07-18T23:25:58Z</time>
      </trkpt>
      <trkpt lat="45.26123" lon="14.6113">
        <ele>233</ele>
        <time>2016-07-18T23:27:58Z</time>
      </trkpt>
      <trkpt lat="45.26116" lon="14.61132">
        <ele>233</ele>
        <time>2016-07-18T23:29:58Z</time>
      </trkpt>
      <trkpt lat="45.2611" lon="14.61133">
        <ele>232</ele>
        <time>2016-07-18T23:31:58Z</time>
      </trkpt>
      <trkpt lat="45.26098" lon="14.61133">
        <ele>231</ele>
        <time>2016-07-18T23:33:58Z</time>
      </trkpt>
      <trkpt lat="45.26088" lon="14.61133">
        <ele>230</ele>
        <time>2016-07-18T23:35:58Z</time>
      </trkpt>
      <trkpt lat="45.26082" lon="14.61132">
        <ele>230</ele>
        <time>2016-07-18T23:37:58Z</time>
      </trkpt>
      <trkpt lat="45.26079" lon="14.61131">
        <ele>230</ele>
        <time>2016-07-18T23:39:58Z</time>
      </trkpt>
      <trkpt lat="45.26074" lon="14.61129">
        <ele>230</ele>
        <time>2016-07-18T23:41:58Z</time>
      </trkpt>
      <trkpt lat="45.26074" lon="14.61129">
        <ele>230</ele>
        <time>2016-07-18T23:43:58Z</time>
      </trkpt>
      <trkpt lat="45.26063" lon="14.61232">
        <ele>235</ele>
        <time>2016-07-18T23:45:58Z</time>
      </trkpt>
      <trkpt lat="45.26061" lon="14.61245">
        <ele>235</ele>
        <time>2016-07-18T23:47:58Z</time>
      </trkpt>
      <trkpt lat="45.26058" lon="14.61257">
        <ele>236</ele>
        <time>2016-07-18T23:49:58Z</time>
      </trkpt>
      <trkpt lat="45.26054" lon="14.6127">
        <ele>237</ele>
        <time>2016-07-18T23:51:58Z</time>
      </trkpt>
      <trkpt lat="45.2605" lon="14.61281">
        <ele>238</ele>
        <time>2016-07-18T23:53:58Z</time>
      </trkpt>
      <trkpt lat="45.26045" lon="14.61293">
        <ele>239</ele>
        <time>2016-07-18T23:55:58Z</time>
      </trkpt>
      <trkpt lat="45.26032" lon="14.61313">
        <ele>240</ele>
        <time>2016-07-18T23:57:58Z</time>
      </trkpt>
      <trkpt lat="45.26027" lon="14.6132">
        <ele>241</ele>
        <time>2016-07-18T23:59:58Z</time>
      </trkpt>
      <trkpt lat="45.26025" lon="14.61322">
        <ele>241</ele>
        <time>2016-07-19T00:01:58Z</time>
      </trkpt>
      <trkpt lat="45.26017" lon="14.61331">
        <ele>241</ele>
        <time>2016-07-19T00:03:58Z</time>
      </trkpt>
      <trkpt lat="45.26013" lon="14.61335">
        <ele>241</ele>
        <time>2016-07-19T00:05:58Z</time>
      </trkpt>
      <trkpt lat="45.26009" lon="14.61338">
        <ele>241</ele>
        <time>2016-07-19T00:07:58Z</time>
      </trkpt>
      <trkpt lat="45.26" lon="14.61342">
        <ele>240</ele>
        <time>2016-07-19T00:09:58Z</time>
      </trkpt>
      <trkpt lat="45.25988" lon="14.61349">
        <ele>238</ele>
        <time>2016-07-19T00:11:58Z</time>
      </trkpt>
      <trkpt lat="45.2598" lon="14.61356">
        <ele>237</ele>
        <time>2016-07-19T00:13:58Z</time>
      </trkpt>
      <trkpt lat="45.25969" lon="14.61369">
        <ele>236</ele>
        <time>2016-07-19T00:15:58Z</time>
      </trkpt>
      <trkpt lat="45.25964" lon="14.61379">
        <ele>236</ele>
        <time>2016-07-19T00:17:58Z</time>
      </trkpt>
      <trkpt lat="45.25959" lon="14.61393">
        <ele>237</ele>
        <time>2016-07-19T00:19:58Z</time>
      </trkpt>
      <trkpt lat="45.25956" lon="14.61408">
        <ele>238</ele>
        <time>2016-07-19T00:21:58Z</time>
      </trkpt>
      <trkpt lat="45.25956" lon="14.6142">
        <ele>239</ele>
        <time>2016-07-19T00:23:58Z</time>
      </trkpt>
      <trkpt lat="45.25959" lon="14.61433">
        <ele>240</ele>
        <time>2016-07-19T00:25:58Z</time>
      </trkpt>
      <trkpt lat="45.25961" lon="14.61439">
        <ele>240</ele>
        <time>2016-07-19T00:27:58Z</time>
      </trkpt>
      <trkpt lat="45.25961" lon="14.61439">
        <ele>240</ele>
        <time>2016-07-19T00:29:58Z</time>
      </trkpt>
      <trkpt lat="45.25952" lon="14.61454">
        <ele>239</ele>
        <time>2016-07-19T00:31:58Z</time>
      </trkpt>
      <trkpt lat="45.25941" lon="14.61467">
        <ele>238</ele>
        <time>2016-07-19T00:33:58Z</time>
      </trkpt>
      <trkpt lat="45.25927" lon="14.61481">
        <ele>236</ele>
        <time>2016-07-19T00:35:58Z</time>
      </trkpt>
      <trkpt lat="45.25923" lon="14.61485">
        <ele>235</ele>
        <time>2016-07-19T00:37:58Z</time>
      </trkpt>
      <trkpt lat="45.25907" lon="14.61512">
        <ele>233</ele>
        <time>2016-07-19T00:39:58Z</time>
      </trkpt>
      <trkpt lat="45.25897" lon="14.61529">
        <ele>232</ele>
        <time>2016-07-19T00:41:58Z</time>
      </trkpt>
      <trkpt lat="45.25894" lon="14.61536">
        <ele>231</ele>
        <time>2016-07-19T00:43:58Z</time>
      </trkpt>
      <trkpt lat="45.25891" lon="14.61539">
        <ele>231</ele>
        <time>2016-07-19T00:45:58Z</time>
      </trkpt>
      <trkpt lat="45.25888" lon="14.61542">
        <ele>230</ele>
        <time>2016-07-19T00:47:58Z</time>
      </trkpt>
      <trkpt lat="45.25881" lon="14.61549">
        <ele>229</ele>
        <time>2016-07-19T00:49:58Z</time>
      </trkpt>
      <trkpt lat="45.25872" lon="14.61559">
        <ele>228</ele>
        <time>2016-07-19T00:51:58Z</time>
      </trkpt>
      <trkpt lat="45.2586" lon="14.6157">
        <ele>227</ele>
        <time>2016-07-19T00:53:58Z</time>
      </trkpt>
      <trkpt lat="45.2585" lon="14.61578">
        <ele>226</ele>
        <time>2016-07-19T00:55:58Z</time>
      </trkpt>
      <trkpt lat="45.25839" lon="14.61584">
        <ele>225</ele>
        <time>2016-07-19T00:57:58Z</time>
      </trkpt>
      <trkpt lat="45.25828" lon="14.61594">
        <ele>224</ele>
        <time>2016-07-19T00:59:58Z</time>
      </trkpt>
      <trkpt lat="45.25816" lon="14.61605">
        <ele>222</ele>
        <time>2016-07-19T01:01:58Z</time>
      </trkpt>
      <trkpt lat="45.25793" lon="14.61629">
        <ele>220</ele>
        <time>2016-07-19T01:03:58Z</time>
      </trkpt>
      <trkpt lat="45.25781" lon="14.61643">
        <ele>219</ele>
        <time>2016-07-19T01:05:58Z</time>
      </trkpt>
      <trkpt lat="45.25772" lon="14.61658">
        <ele>219</ele>
        <time>2016-07-19T01:07:58Z</time>
      </trkpt>
      <trkpt lat="45.25765" lon="14.61673">
        <ele>219</ele>
        <time>2016-07-19T01:09:58Z</time>
      </trkpt>
      <trkpt lat="45.25757" lon="14.61691">
        <ele>218</ele>
        <time>2016-07-19T01:11:58Z</time>
      </trkpt>
      <trkpt lat="45.25747" lon="14.61717">
        <ele>216</ele>
        <time>2016-07-19T01:13:58Z</time>
      </trkpt>
      <trkpt lat="45.25738" lon="14.61744">
        <ele>215</ele>
        <time>2016-07-19T01:15:58Z</time>
      </trkpt>
      <trkpt lat="45.25731" lon="14.61759">
        <ele>214</ele>
        <time>2016-07-19T01:17:58Z</time>
      </trkpt>
      <trkpt lat="45.25722" lon="14.61774">
        <ele>214</ele>
        <time>2016-07-19T01:19:58Z</time>
      </trkpt>
      <trkpt lat="45.25716" lon="14.61782">
        <ele>214</ele>
        <time>2016-07-19T01:21:58Z</time>
      </trkpt>
      <trkpt lat="45.25709" lon="14.61787">
        <ele>213</ele>
        <time>2016-07-19T01:23:58Z</time>
      </trkpt>
      <trkpt lat="45.25702" lon="14.61795">
        <ele>212</ele>
        <time>2016-07-19T01:25:58Z</time>
      </trkpt>
      <trkpt lat="45.25696" lon="14.61804">
        <ele>211</ele>
        <time>2016-07-19T01:27:58Z</time>
      </trkpt>
      <trkpt lat="45.25685" lon="14.61827">
        <ele>211</ele>
        <time>2016-07-19T01:29:58Z</time>
      </trkpt>
      <trkpt lat="45.25674" lon="14.61846">
        <ele>210</ele>
        <time>2016-07-19T01:31:58Z</time>
      </trkpt>
      <trkpt lat="45.25665" lon="14.61858">
        <ele>209</ele>
        <time>2016-07-19T01:33:58Z</time>
      </trkpt>
      <trkpt lat="45.25653" lon="14.61879">
        <ele>209</ele>
        <time>2016-07-19T01:35:58Z</time>
      </trkpt>
      <trkpt lat="45.2564" lon="14.61902">
        <ele>209</ele>
        <time>2016-07-19T01:37:58Z</time>
      </trkpt>
      <trkpt lat="45.2563" lon="14.61916">
        <ele>208</ele>
        <time>2016-07-19T01:39:58Z</time>
      </trkpt>
      <trkpt lat="45.25624" lon="14.61923">
        <ele>208</ele>
        <time>2016-07-19T01:41:58Z</time>
      </trkpt>
      <trkpt lat="45.2562" lon="14.61927">
        <ele>207</ele>
        <time>2016-07-19T01:43:58Z</time>
      </trkpt>
      <trkpt lat="45.25614" lon="14.6193">
        <ele>207</ele>
        <time>2016-07-19T01:45:58Z</time>
      </trkpt>
      <trkpt lat="45.25603" lon="14.61937">
        <ele>205</ele>
        <time>2016-07-19T01:47:58Z</time>
      </trkpt>
      <trkpt lat="45.25587" lon="14.61948">
        <ele>202</ele>
        <time>2016-07-19T01:49:58Z</time>
      </trkpt>
      <trkpt lat="45.25576" lon="14.61955">
        <ele>200</ele>
        <time>2016-07-19T01:51:58Z</time>
      </trkpt>
      <trkpt lat="45.25558" lon="14.61969">
        <ele>198</ele>
        <time>2016-07-19T01:53:58Z</time>
      </trkpt>
      <trkpt lat="45.25536" lon="14.61983">
        <ele>194</ele>
        <time>2016-07-19T01:55:58Z</time>
      </trkpt>
      <trkpt lat="45.25536" lon="14.61983">
        <ele>194</ele>
        <time>2016-07-19T01:57:58Z</time>
      </trkpt>
      <trkpt lat="45.25536" lon="14.62005">
        <ele>195</ele>
        <time>2016-07-19T01:59:58Z</time>
      </trkpt>
      <trkpt lat="45.25536" lon="14.62012">
        <ele>196</ele>
        <time>2016-07-19T02:01:58Z</time>
      </trkpt>
      <trkpt lat="45.25534" lon="14.62022">
        <ele>196</ele>
        <time>2016-07-19T02:03:58Z</time>
      </trkpt>
      <trkpt lat="45.25529" lon="14.6204">
        <ele>196</ele>
        <time>2016-07-19T02:05:58Z</time>
      </trkpt>
      <trkpt lat="45.25524" lon="14.62057">
        <ele>197</ele>
        <time>2016-07-19T02:07:58Z</time>
      </trkpt>
      <trkpt lat="45.25502" lon="14.62121">
        <ele>197</ele>
        <time>2016-07-19T02:09:58Z</time>
      </trkpt>
      <trkpt lat="45.25498" lon="14.62129">
        <ele>197</ele>
        <time>2016-07-19T02:11:58Z</time>
      </trkpt>
      <trkpt lat="45.25494" lon="14.62138">
        <ele>197</ele>
        <time>2016-07-19T02:13:58Z</time>
      </trkpt>
      <trkpt lat="45.25489" lon="14.62146">
        <ele>197</ele>
        <time>2016-07-19T02:15:58Z</time>
      </trkpt>
      <trkpt lat="45.25483" lon="14.62153">
        <ele>197</ele>
        <time>2016-07-19T02:17:58Z</time>
      </trkpt>
      <trkpt lat="45.25478" lon="14.62159">
        <ele>197</ele>
        <time>2016-07-19T02:19:58Z</time>
      </trkpt>
      <trkpt lat="45.2546" lon="14.62177">
        <ele>196</ele>
        <time>2016-07-19T02:21:58Z</time>
      </trkpt>
      <trkpt lat="45.25447" lon="14.62188">
        <ele>195</ele>
        <time>2016-07-19T02:23:58Z</time>
      </trkpt>
      <trkpt lat="45.25432" lon="14.62206">
        <ele>194</ele>
        <time>2016-07-19T02:25:58Z</time>
      </trkpt>
      <trkpt lat="45.25414" lon="14.62229">
        <ele>193</ele>
        <time>2016-07-19T02:27:58Z</time>
      </trkpt>
      <trkpt lat="45.2539" lon="14.62258">
        <ele>192</ele>
        <time>2016-07-19T02:29:58Z</time>
      </trkpt>
      <trkpt lat="45.25372" lon="14.62282">
        <ele>191</ele>
        <time>2016-07-19T02:31:58Z</time>
      </trkpt>
      <trkpt lat="45.25357" lon="14.62306">
        <ele>190</ele>
        <time>2016-07-19T02:33:58Z</time>
      </trkpt>
      <trkpt lat="45.2535" lon="14.62318">
        <ele>189</ele>
        <time>2016-07-19T02:35:58Z</time>
      </trkpt>
      <trkpt lat="45.25344" lon="14.62329">
        <ele>189</ele>
        <time>2016-07-19T02:37:58Z</time>
      </trkpt>
      <trkpt lat="45.25325" lon="14.62362">
        <ele>188</ele>
        <time>2016-07-19T02:39:58Z</time>
      </trkpt>
      <trkpt lat="45.2532" lon="14.62372">
        <ele>188</ele>
        <time>2016-07-19T02:41:58Z</time>
      </trkpt>
      <trkpt lat="45.25313" lon="14.62382">
        <ele>187</ele>
        <time>2016-07-19T02:43:58Z</time>
      </trkpt>
      <trkpt lat="45.25307" lon="14.62392">
        <ele>187</ele>
        <time>2016-07-19T02:45:58Z</time>
      </trkpt>
      <trkpt lat="45.253" lon="14.62401">
        <ele>187</ele>
        <time>2016-07-19T02:47:58Z</time>
      </trkpt>
      <trkpt lat="45.25294" lon="14.6241">
        <ele>187</ele>
        <time>2016-07-19T02:49:58Z</time>
      </trkpt>
      <trkpt lat="45.25287" lon="14.62419">
        <ele>187</ele>
        <time>2016-07-19T02:51:58Z</time>
      </trkpt>
      <trkpt lat="45.2528" lon="14.62427">
        <ele>187</ele>
        <time>2016-07-19T02:53:58Z</time>
      </trkpt>
      <trkpt lat="45.25272" lon="14.62435">
        <ele>186</ele>
        <time>2016-07-19T02:55:58Z</time>
      </trkpt>
      <trkpt lat="45.25258" lon="14.6245">
        <ele>186</ele>
        <time>2016-07-19T02:57:58Z</time>
      </trkpt>
      <trkpt lat="45.25243" lon="14.62463">
        <ele>186</ele>
        <time>2016-07-19T02:59:58Z</time>
      </trkpt>
      <trkpt lat="45.25236" lon="14.62469">
        <ele>186</ele>
        <time>2016-07-19T03:01:58Z</time>
      </trkpt>
      <trkpt lat="45.25225" lon="14.62477">
        <ele>186</ele>
        <time>2016-07-19T03:03:58Z</time>
      </trkpt>
      <trkpt lat="45.25215" lon="14.62486">
        <ele>186</ele>
        <time>2016-07-19T03:05:58Z</time>
      </trkpt>
      <trkpt lat="45.25205" lon="14.62497">
        <ele>186</ele>
        <time>2016-07-19T03:07:58Z</time>
      </trkpt>
      <trkpt lat="45.25195" lon="14.62508">
        <ele>187</ele>
        <time>2016-07-19T03:09:58Z</time>
      </trkpt>
      <trkpt lat="45.25188" lon="14.62519">
        <ele>187</ele>
        <time>2016-07-19T03:11:58Z</time>
      </trkpt>
      <trkpt lat="45.25181" lon="14.62531">
        <ele>187</ele>
        <time>2016-07-19T03:13:58Z</time>
      </trkpt>
      <trkpt lat="45.25178" lon="14.62536">
        <ele>187</ele>
        <time>2016-07-19T03:15:58Z</time>
      </trkpt>
      <trkpt lat="45.25174" lon="14.62545">
        <ele>187</ele>
        <time>2016-07-19T03:17:58Z</time>
      </trkpt>
      <trkpt lat="45.25167" lon="14.62561">
        <ele>187</ele>
        <time>2016-07-19T03:19:58Z</time>
      </trkpt>
      <trkpt lat="45.25159" lon="14.62577">
        <ele>187</ele>
        <time>2016-07-19T03:21:58Z</time>
      </trkpt>
      <trkpt lat="45.25152" lon="14.6259">
        <ele>187</ele>
        <time>2016-07-19T03:23:58Z</time>
      </trkpt>
      <trkpt lat="45.25147" lon="14.62597">
        <ele>187</ele>
        <time>2016-07-19T03:25:58Z</time>
      </trkpt>
      <trkpt lat="45.25138" lon="14.62611">
        <ele>187</ele>
        <time>2016-07-19T03:27:58Z</time>
      </trkpt>
      <trkpt lat="45.25127" lon="14.62623">
        <ele>187</ele>
        <time>2016-07-19T03:29:58Z</time>
      </trkpt>
      <trkpt lat="45.25126" lon="14.62624">
        <ele>187</ele>
        <time>2016-07-19T03:31:58Z</time>
      </trkpt>
      <trkpt lat="45.25116" lon="14.62635">
        <ele>187</ele>
        <time>2016-07-19T03:33:58Z</time>
      </trkpt>
      <trkpt lat="45.25111" lon="14.6264">
        <ele>187</ele>
        <time>2016-07-19T03:35:58Z</time>
      </trkpt>
      <trkpt lat="45.25099" lon="14.62647">
        <ele>186</ele>
        <time>2016-07-19T03:37:58Z</time>
      </trkpt>
      <trkpt lat="45.25084" lon="14.62657">
        <ele>186</ele>
        <time>2016-07-19T03:39:58Z</time>
      </trkpt>
      <trkpt lat="45.25056" lon="14.62677">
        <ele>186</ele>
        <time>2016-07-19T03:41:58Z</time>
      </trkpt>
      <trkpt lat="45.25043" lon="14.62684">
        <ele>186</ele>
        <time>2016-07-19T03:43:58Z</time>
      </trkpt>
      <trkpt lat="45.25029" lon="14.62697">
        <ele>187</ele>
        <time>2016-07-19T03:45:58Z</time>
      </trkpt>
      <trkpt lat="45.25013" lon="14.62714">
        <ele>188</ele>
        <time>2016-07-19T03:47:58Z</time>
      </trkpt>
      <trkpt lat="45.25006" lon="14.62723">
        <ele>188</ele>
        <time>2016-07-19T03:49:58Z</time>
      </trkpt>
      <trkpt lat="45.25" lon="14.6273">
        <ele>189</ele>
        <time>2016-07-19T03:51:58Z</time>
      </trkpt>
      <trkpt lat="45.24996" lon="14.62736">
        <ele>189</ele>
        <time>2016-07-19T03:53:58Z</time>
      </trkpt>
      <trkpt lat="45.24989" lon="14.62741">
        <ele>190</ele>
        <time>2016-07-19T03:55:58Z</time>
      </trkpt>
      <trkpt lat="45.2498" lon="14.62746">
        <ele>190</ele>
        <time>2016-07-19T03:57:58Z</time>
      </trkpt>
      <trkpt lat="45.24966" lon="14.6275">
        <ele>190</ele>
        <time>2016-07-19T03:59:58Z</time>
      </trkpt>
      <trkpt lat="45.24954" lon="14.62754">
        <ele>190</ele>
        <time>2016-07-19T04:01:58Z</time>
      </trkpt>
      <trkpt lat="45.24948" lon="14.62757">
        <ele>190</ele>
        <time>2016-07-19T04:03:58Z</time>
      </trkpt>
      <trkpt lat="45.24933" lon="14.62763">
        <ele>190</ele>
        <time>2016-07-19T04:05:58Z</time>
      </trkpt>
      <trkpt lat="45.24918" lon="14.6277">
        <ele>190</ele>
        <time>2016-07-19T04:07:58Z</time>
      </trkpt>
      <trkpt lat="45.2491" lon="14.62772">
        <ele>190</ele>
        <time>2016-07-19T04:09:58Z</time>
      </trkpt>
      <trkpt lat="45.24903" lon="14.62775">
        <ele>189</ele>
        <time>2016-07-19T04:11:58Z</time>
      </trkpt>
      <trkpt lat="45.24896" lon="14.6278">
        <ele>189</ele>
        <time>2016-07-19T04:13:58Z</time>
      </trkpt>
      <trkpt lat="45.24894" lon="14.62782">
        <ele>189</ele>
        <time>2016-07-19T04:15:58Z</time>
      </trkpt>
      <trkpt lat="45.24893" lon="14.62783">
        <ele>189</ele>
        <time>2016-07-19T04:17:58Z</time>
      </trkpt>
      <trkpt lat="45.2489" lon="14.62787">
        <ele>189</ele>
        <time>2016-07-19T04:19:58Z</time>
      </trkpt>
      <trkpt lat="45.24889" lon="14.62789">
        <ele>189</ele>
        <time>2016-07-19T04:21:58Z</time>
      </trkpt>
      <trkpt lat="45.24887" lon="14.62792">
        <ele>189</ele>
        <time>2016-07-19T04:23:58Z</time>
      </trkpt>
      <trkpt lat="45.24886" lon="14.62796">
        <ele>189</ele>
        <time>2016-07-19T04:25:58Z</time>
      </trkpt>
      <trkpt lat="45.24885" lon="14.62801">
        <ele>190</ele>
        <time>2016-07-19T04:27:58Z</time>
      </trkpt>
      <trkpt lat="45.24884" lon="14.62807">
        <ele>190</ele>
        <time>2016-07-19T04:29:58Z</time>
      </trkpt>
      <trkpt lat="45.24881" lon="14.62818">
        <ele>191</ele>
        <time>2016-07-19T04:31:58Z</time>
      </trkpt>
      <trkpt lat="45.24877" lon="14.62832">
        <ele>191</ele>
        <time>2016-07-19T04:33:58Z</time>
      </trkpt>
      <trkpt lat="45.24872" lon="14.62843">
        <ele>191</ele>
        <time>2016-07-19T04:35:58Z</time>
      </trkpt>
      <trkpt lat="45.24863" lon="14.62863">
        <ele>191</ele>
        <time>2016-07-19T04:37:58Z</time>
      </trkpt>
      <trkpt lat="45.24858" lon="14.62875">
        <ele>190</ele>
        <time>2016-07-19T04:39:58Z</time>
      </trkpt>
      <trkpt lat="45.24855" lon="14.6288">
        <ele>190</ele>
        <time>2016-07-19T04:41:58Z</time>
      </trkpt>
      <trkpt lat="45.24853" lon="14.62885">
        <ele>190</ele>
        <time>2016-07-19T04:43:58Z</time>
      </trkpt>
      <trkpt lat="45.24852" lon="14.62887">
        <ele>190</ele>
        <time>2016-07-19T04:45:58Z</time>
      </trkpt>
      <trkpt lat="45.24852" lon="14.62887">
        <ele>190</ele>
        <time>2016-07-19T04:47:58Z</time>
      </trkpt>
      <trkpt lat="45.24852" lon="14.62895">
        <ele>190</ele>
        <time>2016-07-19T04:49:58Z</time>
      </trkpt>
      <trkpt lat="45.2485" lon="14.62916">
        <ele>191</ele>
        <time>2016-07-19T04:51:58Z</time>
      </trkpt>
      <trkpt lat="45.24846" lon="14.62929">
        <ele>191</ele>
        <time>2016-07-19T04:53:58Z</time>
      </trkpt>
      <trkpt lat="45.24837" lon="14.62946">
        <ele>191</ele>
        <time>2016-07-19T04:55:58Z</time>
      </trkpt>
      <trkpt lat="45.24827" lon="14.62959">
        <ele>191</ele>
        <time>2016-07-19T04:57:58Z</time>
      </trkpt>
      <trkpt lat="45.24819" lon="14.62971">
        <ele>191</ele>
        <time>2016-07-19T04:59:58Z</time>
      </trkpt>
      <trkpt lat="45.24816" lon="14.62977">
        <ele>191</ele>
        <time>2016-07-19T05:01:58Z</time>
      </trkpt>
      <trkpt lat="45.24812" lon="14.62981">
        <ele>190</ele>
        <time>2016-07-19T05:03:58Z</time>
      </trkpt>
      <trkpt lat="45.24807" lon="14.62992">
        <ele>190</ele>
        <time>2016-07-19T05:05:58Z</time>
      </trkpt>
      <trkpt lat="45.24801" lon="14.63002">
        <ele>190</ele>
        <time>2016-07-19T05:07:58Z</time>
      </trkpt>
      <trkpt lat="45.24795" lon="14.6301">
        <ele>190</ele>
        <time>2016-07-19T05:09:58Z</time>
      </trkpt>
      <trkpt lat="45.2479" lon="14.63015">
        <ele>189</ele>
        <time>2016-07-19T05:11:58Z</time>
      </trkpt>
      <trkpt lat="45.24783" lon="14.63021">
        <ele>189</ele>
        <time>2016-07-19T05:13:58Z</time>
      </trkpt>
      <trkpt lat="45.24777" lon="14.63027">
        <ele>188</ele>
        <time>2016-07-19T05:15:58Z</time>
      </trkpt>
      <trkpt lat="45.24776" lon="14.63028">
        <ele>188</ele>
        <time>2016-07-19T05:17:58Z</time>
      </trkpt>
      <trkpt lat="45.24769" lon="14.63037">
        <ele>187</ele>
        <time>2016-07-19T05:19:58Z</time>
      </trkpt>
      <trkpt lat="45.24766" lon="14.63042">
        <ele>187</ele>
        <time>2016-07-19T05:21:58Z</time>
      </trkpt>
      <trkpt lat="45.24763" lon="14.63047">
        <ele>187</ele>
        <time>2016-07-19T05:23:58Z</time>
      </trkpt>
      <trkpt lat="45.24761" lon="14.63055">
        <ele>187</ele>
        <time>2016-07-19T05:25:58Z</time>
      </trkpt>
      <trkpt lat="45.24756" lon="14.63068">
        <ele>187</ele>
        <time>2016-07-19T05:27:58Z</time>
      </trkpt>
      <trkpt lat="45.24753" lon="14.63077">
        <ele>187</ele>
        <time>2016-07-19T05:29:58Z</time>
      </trkpt>
      <trkpt lat="45.24746" lon="14.63089">
        <ele>186</ele>
        <time>2016-07-19T05:31:58Z</time>
      </trkpt>
      <trkpt lat="45.24738" lon="14.63102">
        <ele>184</ele>
        <time>2016-07-19T05:33:58Z</time>
      </trkpt>
      <trkpt lat="45.24731" lon="14.6311">
        <ele>182</ele>
        <time>2016-07-19T05:35:58Z</time>
      </trkpt>
      <trkpt lat="45.24724" lon="14.63121">
        <ele>180</ele>
        <time>2016-07-19T05:37:58Z</time>
      </trkpt>
      <trkpt lat="45.24719" lon="14.6313">
        <ele>179</ele>
        <time>2016-07-19T05:39:58Z</time>
      </trkpt>
      <trkpt lat="45.24716" lon="14.63136">
        <ele>178</ele>
        <time>2016-07-19T05:41:58Z</time>
      </trkpt>
      <trkpt lat="45.24716" lon="14.63141">
        <ele>178</ele>
        <time>2016-07-19T05:43:58Z</time>
      </trkpt>
      <trkpt lat="45.24715" lon="14.63147">
        <ele>178</ele>
        <time>2016-07-19T05:45:58Z</time>
      </trkpt>
      <trkpt lat="45.24713" lon="14.63158">
        <ele>177</ele>
        <time>2016-07-19T05:47:58Z</time>
      </trkpt>
      <trkpt lat="45.24712" lon="14.63166">
        <ele>177</ele>
        <time>2016-07-19T05:49:58Z</time>
      </trkpt>
      <trkpt lat="45.2471" lon="14.63173">
        <ele>177</ele>
        <time>2016-07-19T05:51:58Z</time>
      </trkpt>
      <trkpt lat="45.24707" lon="14.63182">
        <ele>176</ele>
        <time>2016-07-19T05:53:58Z</time>
      </trkpt>
      <trkpt lat="45.24704" lon="14.63188">
        <ele>176</ele>
        <time>2016-07-19T05:55:58Z</time>
      </trkpt>
      <trkpt lat="45.24702" lon="14.63191">
        <ele>176</ele>
        <time>2016-07-19T05:57:58Z</time>
      </trkpt>
      <trkpt lat="45.24697" lon="14.63196">
        <ele>175</ele>
        <time>2016-07-19T05:59:58Z</time>
      </trkpt>
      <trkpt lat="45.2469" lon="14.63215">
        <ele>174</ele>
        <time>2016-07-19T06:01:58Z</time>
      </trkpt>
      <trkpt lat="45.24675" lon="14.63256">
        <ele>172</ele>
        <time>2016-07-19T06:03:58Z</time>
      </trkpt>
      <trkpt lat="45.24662" lon="14.63296">
        <ele>170</ele>
        <time>2016-07-19T06:05:58Z</time>
      </trkpt>
      <trkpt lat="45.24655" lon="14.63316">
        <ele>170</ele>
        <time>2016-07-19T06:07:58Z</time>
      </trkpt>
      <trkpt lat="45.24646" lon="14.63348">
        <ele>169</ele>
        <time>2016-07-19T06:09:58Z</time>
      </trkpt>
      <trkpt lat="45.24642" lon="14.63365">
        <ele>168</ele>
        <time>2016-07-19T06:11:58Z</time>
      </trkpt>
      <trkpt lat="45.24637" lon="14.63375">
        <ele>168</ele>
        <time>2016-07-19T06:13:58Z</time>
      </trkpt>
      <trkpt lat="45.24636" lon="14.63378">
        <ele>167</ele>
        <time>2016-07-19T06:15:58Z</time>
      </trkpt>
      <trkpt lat="45.24625" lon="14.634">
        <ele>166</ele>
        <time>2016-07-19T06:17:58Z</time>
      </trkpt>
      <trkpt lat="45.24623" lon="14.63406">
        <ele>166</ele>
        <time>2016-07-19T06:19:58Z</time>
      </trkpt>
      <trkpt lat="45.24622" lon="14.63408">
        <ele>166</ele>
        <time>2016-07-19T06:21:58Z</time>
      </trkpt>
      <trkpt lat="45.24621" lon="14.63412">
        <ele>166</ele>
        <time>2016-07-19T06:23:58Z</time>
      </trkpt>
      <trkpt lat="45.2462" lon="14.63417">
        <ele>166</ele>
        <time>2016-07-19T06:25:58Z</time>
      </trkpt>
      <trkpt lat="45.24619" lon="14.63421">
        <ele>166</ele>
        <time>2016-07-19T06:27:58Z</time>
      </trkpt>
      <trkpt lat="45.24619" lon="14.63425">
        <ele>165</ele>
        <time>2016-07-19T06:29:58Z</time>
      </trkpt>
      <trkpt lat="45.2462" lon="14.6343">
        <ele>166</ele>
        <time>2016-07-19T06:31:58Z</time>
      </trkpt>
      <trkpt lat="45.24622" lon="14.6345">
        <ele>166</ele>
        <time>2016-07-19T06:33:58Z</time>
      </trkpt>
      <trkpt lat="45.24625" lon="14.63469">
        <ele>166</ele>
        <time>2016-07-19T06:35:58Z</time>
      </trkpt>
      <trkpt lat="45.24627" lon="14.63484">
        <ele>167</ele>
        <time>2016-07-19T06:37:58Z</time>
      </trkpt>
      <trkpt lat="45.24628" lon="14.63505">
        <ele>167</ele>
        <time>2016-07-19T06:39:58Z</time>
      </trkpt>
      <trkpt lat="45.24628" lon="14.6352">
        <ele>167</ele>
        <time>2016-07-19T06:41:58Z</time>
      </trkpt>
      <trkpt lat="45.24628" lon="14.63553">
        <ele>167</ele>
        <time>2016-07-19T06:43:58Z</time>
      </trkpt>
      <trkpt lat="45.24628" lon="14.63578">
        <ele>167</ele>
        <time>2016-07-19T06:45:58Z</time>
      </trkpt>
      <trkpt lat="45.24628" lon="14.63595">
        <ele>167</ele>
        <time>2016-07-19T06:47:58Z</time>
      </trkpt>
      <trkpt lat="45.24628" lon="14.63615">
        <ele>168</ele>
        <time>2016-07-19T06:49:58Z</time>
      </trkpt>
      <trkpt lat="45.24628" lon="14.6362">
        <ele>169</ele>
        <time>2016-07-19T06:51:58Z</time>
      </trkpt>
      <trkpt lat="45.24627" lon="14.63624">
        <ele>169</ele>
        <time>2016-07-19T06:53:58Z</time>
      </trkpt>
      <trkpt lat="45.24626" lon="14.63629">
        <ele>169</ele>
        <time>2016-07-19T06:55:58Z</time>
      </trkpt>
      <trkpt lat="45.24625" lon="14.63633">
        <ele>169</ele>
        <time>2016-07-19T06:57:58Z</time>
      </trkpt>
      <trkpt lat="45.24623" lon="14.63638">
        <ele>169</ele>
        <time>2016-07-19T06:59:58Z</time>
      </trkpt>
      <trkpt lat="45.24622" lon="14.63642">
        <ele>168</ele>
        <time>2016-07-19T07:01:58Z</time>
      </trkpt>
      <trkpt lat="45.24622" lon="14.63642">
        <ele>168</ele>
        <time>2016-07-19T07:03:58Z</time>
      </trkpt>
      <trkpt lat="45.2462" lon="14.63646">
        <ele>168</ele>
        <time>2016-07-19T07:05:58Z</time>
      </trkpt>
      <trkpt lat="45.24618" lon="14.63649">
        <ele>168</ele>
        <time>2016-07-19T07:07:58Z</time>
      </trkpt>
      <trkpt lat="45.24615" lon="14.63653">
        <ele>168</ele>
        <time>2016-07-19T07:09:58Z</time>
      </trkpt>
      <trkpt lat="45.24613" lon="14.63656">
        <ele>167</ele>
        <time>2016-07-19T07:11:58Z</time>
      </trkpt>
      <trkpt lat="45.2461" lon="14.63659">
        <ele>167</ele>
        <time>2016-07-19T07:13:58Z</time>
      </trkpt>
      <trkpt lat="45.24607" lon="14.63661">
        <ele>166</ele>
        <time>2016-07-19T07:15:58Z</time>
      </trkpt>
      <trkpt lat="45.24604" lon="14.63664">
        <ele>166</ele>
        <time>2016-07-19T07:17:58Z</time>
      </trkpt>
      <trkpt lat="45.24586" lon="14.6367">
        <ele>162</ele>
        <time>2016-07-19T07:19:58Z</time>
      </trkpt>
      <trkpt lat="45.2456" lon="14.63679">
        <ele>159</ele>
        <time>2016-07-19T07:21:58Z</time>
      </trkpt>
      <trkpt lat="45.24548" lon="14.63685">
        <ele>158</ele>
        <time>2016-07-19T07:23:58Z</time>
      </trkpt>
      <trkpt lat="45.24529" lon="14.63696">
        <ele>156</ele>
        <time>2016-07-19T07:25:58Z</time>
      </trkpt>
      <trkpt lat="45.24496" lon="14.63716">
        <ele>153</ele>
        <time>2016-07-19T07:27:58Z</time>
      </trkpt>
      <trkpt lat="45.24476" lon="14.63734">
        <ele>152</ele>
        <time>2016-07-19T07:29:58Z</time>
      </trkpt>
      <trkpt lat="45.24467" lon="14.63746">
        <ele>152</ele>
        <time>2016-07-19T07:31:58Z</time>
      </trkpt>
      <trkpt lat="45.24457" lon="14.63765">
        <ele>152</ele>
        <time>2016-07-19T07:33:58Z</time>
      </trkpt>
      <trkpt lat="45.2445" lon="14.63787">
        <ele>152</ele>
        <time>2016-07-19T07:35:58Z</time>
      </trkpt>
      <trkpt lat="45.24445" lon="14.63803">
        <ele>152</ele>
        <time>2016-07-19T07:37:58Z</time>
      </trkpt>
      <trkpt lat="45.24441" lon="14.63811">
        <ele>152</ele>
        <time>2016-07-19T07:39:58Z</time>
      </trkpt>
      <trkpt lat="45.24439" lon="14.63819">
        <ele>152</ele>
        <time>2016-07-19T07:41:58Z</time>
      </trkpt>
      <trkpt lat="45.24435" lon="14.63826">
        <ele>151</ele>
        <time>2016-07-19T07:43:58Z</time>
      </trkpt>
      <trkpt lat="45.24426" lon="14.63838">
        <ele>150</ele>
        <time>2016-07-19T07:45:58Z</time>
      </trkpt>
      <trkpt lat="45.24402" lon="14.63871">
        <ele>149</ele>
        <time>2016-07-19T07:47:58Z</time>
      </trkpt>
      <trkpt lat="45.24378" lon="14.63906">
        <ele>148</ele>
        <time>2016-07-19T07:49:58Z</time>
      </trkpt>
      <trkpt lat="45.2437" lon="14.63917">
        <ele>147</ele>
        <time>2016-07-19T07:51:58Z</time>
      </trkpt>
      <trkpt lat="45.24354" lon="14.6394">
        <ele>146</ele>
        <time>2016-07-19T07:53:58Z</time>
      </trkpt>
      <trkpt lat="45.24337" lon="14.63966">
        <ele>144</ele>
        <time>2016-07-19T07:55:58Z</time>
      </trkpt>
      <trkpt lat="45.24329" lon="14.63983">
        <ele>143</ele>
        <time>2016-07-19T07:57:58Z</time>
      </trkpt>
      <trkpt lat="45.24317" lon="14.64004">
        <ele>142</ele>
        <time>2016-07-19T07:59:58Z</time>
      </trkpt>
      <trkpt lat="45.24305" lon="14.64022">
        <ele>141</ele>
        <time>2016-07-19T08:01:58Z</time>
      </trkpt>
      <trkpt lat="45.24293" lon="14.6404">
        <ele>139</ele>
        <time>2016-07-19T08:03:58Z</time>
      </trkpt>
      <trkpt lat="45.24284" lon="14.64055">
        <ele>138</ele>
        <time>2016-07-19T08:05:58Z</time>
      </trkpt>
      <trkpt lat="45.24278" lon="14.64068">
        <ele>138</ele>
        <time>2016-07-19T08:07:58Z</time>
      </trkpt>
      <trkpt lat="45.24276" lon="14.64074">
        <ele>137</ele>
        <time>2016-07-19T08:09:58Z</time>
      </trkpt>
      <trkpt lat="45.24275" lon="14.64082">
        <ele>137</ele>
        <time>2016-07-19T08:11:58Z</time>
      </trkpt>
      <trkpt lat="45.24273" lon="14.64095">
        <ele>137</ele>
        <time>2016-07-19T08:13:58Z</time>
      </trkpt>
      <trkpt lat="45.24272" lon="14.64113">
        <ele>136</ele>
        <time>2016-07-19T08:15:58Z</time>
      </trkpt>
      <trkpt lat="45.24273" lon="14.64146">
        <ele>136</ele>
        <time>2016-07-19T08:17:58Z</time>
      </trkpt>
      <trkpt lat="45.24273" lon="14.64172">
        <ele>136</ele>
        <time>2016-07-19T08:19:58Z</time>
      </trkpt>
      <trkpt lat="45.24272" lon="14.64192">
        <ele>135</ele>
        <time>2016-07-19T08:21:58Z</time>
      </trkpt>
      <trkpt lat="45.24272" lon="14.64211">
        <ele>134</ele>
        <time>2016-07-19T08:23:58Z</time>
      </trkpt>
      <trkpt lat="45.24272" lon="14.64222">
        <ele>134</ele>
        <time>2016-07-19T08:25:58Z</time>
      </trkpt>
      <trkpt lat="45.2427" lon="14.64243">
        <ele>132</ele>
        <time>2016-07-19T08:27:58Z</time>
      </trkpt>
      <trkpt lat="45.24269" lon="14.64263">
        <ele>132</ele>
        <time>2016-07-19T08:29:58Z</time>
      </trkpt>
      <trkpt lat="45.24268" lon="14.64272">
        <ele>133</ele>
        <time>2016-07-19T08:31:58Z</time>
      </trkpt>
      <trkpt lat="45.24266" lon="14.64291">
        <ele>133</ele>
        <time>2016-07-19T08:33:58Z</time>
      </trkpt>
      <trkpt lat="45.24264" lon="14.64301">
        <ele>133</ele>
        <time>2016-07-19T08:35:58Z</time>
      </trkpt>
      <trkpt lat="45.2426" lon="14.64319">
        <ele>133</ele>
        <time>2016-07-19T08:37:58Z</time>
      </trkpt>
      <trkpt lat="45.24258" lon="14.64329">
        <ele>133</ele>
        <time>2016-07-19T08:39:58Z</time>
      </trkpt>
      <trkpt lat="45.24255" lon="14.64339">
        <ele>133</ele>
        <time>2016-07-19T08:41:58Z</time>
      </trkpt>
      <trkpt lat="45.24252" lon="14.64349">
        <ele>133</ele>
        <time>2016-07-19T08:43:58Z</time>
      </trkpt>
      <trkpt lat="45.24244" lon="14.64372">
        <ele>132</ele>
        <time>2016-07-19T08:45:58Z</time>
      </trkpt>
      <trkpt lat="45.24214" lon="14.64479">
        <ele>129</ele>
        <time>2016-07-19T08:47:58Z</time>
      </trkpt>
      <trkpt lat="45.24205" lon="14.64525">
        <ele>127</ele>
        <time>2016-07-19T08:49:58Z</time>
      </trkpt>
      <trkpt lat="45.24196" lon="14.64593">
        <ele>125</ele>
        <time>2016-07-19T08:51:58Z</time>
      </trkpt>
      <trkpt lat="45.24189" lon="14.64655">
        <ele>125</ele>
        <time>2016-07-19T08:53:58Z</time>
      </trkpt>
      <trkpt lat="45.24187" lon="14.64666">
        <ele>124</ele>
        <time>2016-07-19T08:55:58Z</time>
      </trkpt>
      <trkpt lat="45.24184" lon="14.6469">
        <ele>125</ele>
        <time>2016-07-19T08:57:58Z</time>
      </trkpt>
      <trkpt lat="45.24182" lon="14.64696">
        <ele>125</ele>
        <time>2016-07-19T08:59:58Z</time>
      </trkpt>
      <trkpt lat="45.24179" lon="14.64712">
        <ele>125</ele>
        <time>2016-07-19T09:01:58Z</time>
      </trkpt>
      <trkpt lat="45.24173" lon="14.64734">
        <ele>124</ele>
        <time>2016-07-19T09:03:58Z</time>
      </trkpt>
      <trkpt lat="45.24169" lon="14.64746">
        <ele>124</ele>
        <time>2016-07-19T09:05:58Z</time>
      </trkpt>
      <trkpt lat="45.24165" lon="14.64757">
        <ele>125</ele>
        <time>2016-07-19T09:07:58Z</time>
      </trkpt>
      <trkpt lat="45.24161" lon="14.64769">
        <ele>125</ele>
        <time>2016-07-19T09:09:58Z</time>
      </trkpt>
      <trkpt lat="45.24157" lon="14.6478">
        <ele>126</ele>
        <time>2016-07-19T09:11:58Z</time>
      </trkpt>
      <trkpt lat="45.24152" lon="14.64791">
        <ele>127</ele>
        <time>2016-07-19T09:13:58Z</time>
      </trkpt>
      <trkpt lat="45.24145" lon="14.64805">
        <ele>128</ele>
        <time>2016-07-19T09:15:58Z</time>
      </trkpt>
      <trkpt lat="45.24143" lon="14.64814">
        <ele>128</ele>
        <time>2016-07-19T09:17:58Z</time>
      </trkpt>
      <trkpt lat="45.24133" lon="14.64839">
        <ele>130</ele>
        <time>2016-07-19T09:19:58Z</time>
      </trkpt>
      <trkpt lat="45.24127" lon="14.64852">
        <ele>130</ele>
        <time>2016-07-19T09:21:58Z</time>
      </trkpt>
      <trkpt lat="45.24121" lon="14.64866">
        <ele>130</ele>
        <time>2016-07-19T09:23:58Z</time>
      </trkpt>
      <trkpt lat="45.24116" lon="14.64879">
        <ele>130</ele>
        <time>2016-07-19T09:25:58Z</time>
      </trkpt>
      <trkpt lat="45.24111" lon="14.64893">
        <ele>130</ele>
        <time>2016-07-19T09:27:58Z</time>
      </trkpt>
      <trkpt lat="45.24108" lon="14.649">
        <ele>130</ele>
        <time>2016-07-19T09:29:58Z</time>
      </trkpt>
      <trkpt lat="45.24102" lon="14.64916">
        <ele>130</ele>
        <time>2016-07-19T09:31:58Z</time>
      </trkpt>
      <trkpt lat="45.24093" lon="14.64934">
        <ele>129</ele>
        <time>2016-07-19T09:33:58Z</time>
      </trkpt>
      <trkpt lat="45.24086" lon="14.64944">
        <ele>129</ele>
        <time>2016-07-19T09:35:58Z</time>
      </trkpt>
      <trkpt lat="45.24077" lon="14.64953">
        <ele>129</ele>
        <time>2016-07-19T09:37:58Z</time>
      </trkpt>
      <trkpt lat="45.24067" lon="14.6496">
        <ele>129</ele>
        <time>2016-07-19T09:39:58Z</time>
      </trkpt>
      <trkpt lat="45.24061" lon="14.64968">
        <ele>129</ele>
        <time>2016-07-19T09:41:58Z</time>
      </trkpt>
      <trkpt lat="45.24052" lon="14.6498">
        <ele>129</ele>
        <time>2016-07-19T09:43:58Z</time>
      </trkpt>
      <trkpt lat="45.24047" lon="14.64991">
        <ele>129</ele>
        <time>2016-07-19T09:45:58Z</time>
      </trkpt>
      <trkpt lat="45.24041" lon="14.65004">
        <ele>128</ele>
        <time>2016-07-19T09:47:58Z</time>
      </trkpt>
      <trkpt lat="45.24033" lon="14.65019">
        <ele>128</ele>
        <time>2016-07-19T09:49:58Z</time>
      </trkpt>
      <trkpt lat="45.24027" lon="14.65035">
        <ele>128</ele>
        <time>2016-07-19T09:51:58Z</time>
      </trkpt>
      <trkpt lat="45.2402" lon="14.65059">
        <ele>128</ele>
        <time>2016-07-19T09:53:58Z</time>
      </trkpt>
      <trkpt lat="45.24018" lon="14.65078">
        <ele>127</ele>
        <time>2016-07-19T09:55:58Z</time>
      </trkpt>
      <trkpt lat="45.24017" lon="14.65101">
        <ele>126</ele>
        <time>2016-07-19T09:57:58Z</time>
      </trkpt>
      <trkpt lat="45.24018" lon="14.65132">
        <ele>125</ele>
        <time>2016-07-19T09:59:58Z</time>
      </trkpt>
      <trkpt lat="45.24019" lon="14.65159">
        <ele>124</ele>
        <time>2016-07-19T10:01:58Z</time>
      </trkpt>
      <trkpt lat="45.24018" lon="14.65179">
        <ele>124</ele>
        <time>2016-07-19T10:03:58Z</time>
      </trkpt>
      <trkpt lat="45.24015" lon="14.65194">
        <ele>123</ele>
        <time>2016-07-19T10:05:58Z</time>
      </trkpt>
      <trkpt lat="45.24009" lon="14.65211">
        <ele>122</ele>
        <time>2016-07-19T10:07:58Z</time>
      </trkpt>
      <trkpt lat="45.23998" lon="14.65238">
        <ele>119</ele>
        <time>2016-07-19T10:09:58Z</time>
      </trkpt>
      <trkpt lat="45.23985" lon="14.65268">
        <ele>117</ele>
        <time>2016-07-19T10:11:58Z</time>
      </trkpt>
      <trkpt lat="45.23974" lon="14.65288">
        <ele>115</ele>
        <time>2016-07-19T10:13:58Z</time>
      </trkpt>
      <trkpt lat="45.23962" lon="14.65309">
        <ele>113</ele>
        <time>2016-07-19T10:15:58Z</time>
      </trkpt>
      <trkpt lat="45.2394" lon="14.65337">
        <ele>110</ele>
        <time>2016-07-19T10:17:58Z</time>
      </trkpt>
      <trkpt lat="45.23931" lon="14.65352">
        <ele>109</ele>
        <time>2016-07-19T10:19:58Z</time>
      </trkpt>
      <trkpt lat="45.23917" lon="14.65373">
        <ele>108</ele>
        <time>2016-07-19T10:21:58Z</time>
      </trkpt>
      <trkpt lat="45.23888" lon="14.65415">
        <ele>105</ele>
        <time>2016-07-19T10:23:58Z</time>
      </trkpt>
      <trkpt lat="45.23882" lon="14.65423">
        <ele>104</ele>
        <time>2016-07-19T10:25:58Z</time>
      </trkpt>
      <trkpt lat="45.23872" lon="14.65439">
        <ele>103</ele>
        <time>2016-07-19T10:27:58Z</time>
      </trkpt>
      <trkpt lat="45.23872" lon="14.6544">
        <ele>103</ele>
        <time>2016-07-19T10:29:58Z</time>
      </trkpt>
      <trkpt lat="45.23845" lon="14.65475">
        <ele>99</ele>
        <time>2016-07-19T10:31:58Z</time>
      </trkpt>
      <trkpt lat="45.23839" lon="14.65481">
        <ele>99</ele>
        <time>2016-07-19T10:33:58Z</time>
      </trkpt>
      <trkpt lat="45.23826" lon="14.65493">
        <ele>98</ele>
        <time>2016-07-19T10:35:58Z</time>
      </trkpt>
      <trkpt lat="45.23812" lon="14.65505">
        <ele>97</ele>
        <time>2016-07-19T10:37:58Z</time>
      </trkpt>
      <trkpt lat="45.23805" lon="14.6551">
        <ele>97</ele>
        <time>2016-07-19T10:39:58Z</time>
      </trkpt>
      <trkpt lat="45.23797" lon="14.65516">
        <ele>96</ele>
        <time>2016-07-19T10:41:58Z</time>
      </trkpt>
      <trkpt lat="45.23788" lon="14.6552">
        <ele>96</ele>
        <time>2016-07-19T10:43:58Z</time>
      </trkpt>
      <trkpt lat="45.2377" lon="14.6553">
        <ele>95</ele>
        <time>2016-07-19T10:45:58Z</time>
      </trkpt>
      <trkpt lat="45.23754" lon="14.6554">
        <ele>94</ele>
        <time>2016-07-19T10:47:58Z</time>
      </trkpt>
      <trkpt lat="45.23746" lon="14.65545">
        <ele>94</ele>
        <time>2016-07-19T10:49:58Z</time>
      </trkpt>
      <trkpt lat="45.23741" lon="14.6555">
        <ele>94</ele>
        <time>2016-07-19T10:51:58Z</time>
      </trkpt>
      <trkpt lat="45.23735" lon="14.65556">
        <ele>94</ele>
        <time>2016-07-19T10:53:58Z</time>
      </trkpt>
      <trkpt lat="45.23731" lon="14.65561">
        <ele>93</ele>
        <time>2016-07-19T10:55:58Z</time>
      </trkpt>
      <trkpt lat="45.23723" lon="14.65574">
        <ele>93</ele>
        <time>2016-07-19T10:57:58Z</time>
      </trkpt>
      <trkpt lat="45.23719" lon="14.65581">
        <ele>93</ele>
        <time>2016-07-19T10:59:58Z</time>
      </trkpt>
      <trkpt lat="45.23712" lon="14.65595">
        <ele>93</ele>
        <time>2016-07-19T11:01:58Z</time>
      </trkpt>
      <trkpt lat="45.23706" lon="14.6561">
        <ele>93</ele>
        <time>2016-07-19T11:03:58Z</time>
      </trkpt>
      <trkpt lat="45.237" lon="14.65625">
        <ele>92</ele>
        <time>2016-07-19T11:05:58Z</time>
      </trkpt>
      <trkpt lat="45.23698" lon="14.65633">
        <ele>92</ele>
        <time>2016-07-19T11:07:58Z</time>
      </trkpt>
      <trkpt lat="45.23692" lon="14.65658">
        <ele>92</ele>
        <time>2016-07-19T11:09:58Z</time>
      </trkpt>
      <trkpt lat="45.23687" lon="14.65677">
        <ele>91</ele>
        <time>2016-07-19T11:11:58Z</time>
      </trkpt>
      <trkpt lat="45.23685" lon="14.6568">
        <ele>91</ele>
        <time>2016-07-19T11:13:58Z</time>
      </trkpt>
      <trkpt lat="45.2368" lon="14.65695">
        <ele>90</ele>
        <time>2016-07-19T11:15:58Z</time>
      </trkpt>
      <trkpt lat="45.23671" lon="14.6572">
        <ele>89</ele>
        <time>2016-07-19T11:17:58Z</time>
      </trkpt>
      <trkpt lat="45.23662" lon="14.65744">
        <ele>89</ele>
        <time>2016-07-19T11:19:58Z</time>
      </trkpt>
      <trkpt lat="45.23654" lon="14.65762">
        <ele>89</ele>
        <time>2016-07-19T11:21:58Z</time>
      </trkpt>
      <trkpt lat="45.23647" lon="14.65778">
        <ele>89</ele>
        <time>2016-07-19T11:23:58Z</time>
      </trkpt>
      <trkpt lat="45.23643" lon="14.65785">
        <ele>89</ele>
        <time>2016-07-19T11:25:58Z</time>
      </trkpt>
      <trkpt lat="45.23639" lon="14.65792">
        <ele>89</ele>
        <time>2016-07-19T11:27:58Z</time>
      </trkpt>
      <trkpt lat="45.23632" lon="14.65805">
        <ele>89</ele>
        <time>2016-07-19T11:29:58Z</time>
      </trkpt>
      <trkpt lat="45.23627" lon="14.65811">
        <ele>89</ele>
        <time>2016-07-19T11:31:58Z</time>
      </trkpt>
      <trkpt lat="45.23618" lon="14.65823">
        <ele>88</ele>
        <time>2016-07-19T11:33:58Z</time>
      </trkpt>
      <trkpt lat="45.23614" lon="14.6583">
        <ele>88</ele>
        <time>2016-07-19T11:35:58Z</time>
      </trkpt>
      <trkpt lat="45.23582" lon="14.65878">
        <ele>86</ele>
        <time>2016-07-19T11:37:58Z</time>
      </trkpt>
      <trkpt lat="45.2351" lon="14.65974">
        <ele>81</ele>
        <time>2016-07-19T11:39:58Z</time>
      </trkpt>
      <trkpt lat="45.23435" lon="14.66078">
        <ele>80</ele>
        <time>2016-07-19T11:41:58Z</time>
      </trkpt>
      <trkpt lat="45.23427" lon="14.6609">
        <ele>80</ele>
        <time>2016-07-19T11:43:58Z</time>
      </trkpt>
      <trkpt lat="45.23392" lon="14.66147">
        <ele>78</ele>
        <time>2016-07-19T11:45:58Z</time>
      </trkpt>
      <trkpt lat="45.23366" lon="14.66188">
        <ele>75</ele>
        <time>2016-07-19T11:47:58Z</time>
      </trkpt>
      <trkpt lat="45.23344" lon="14.6622">
        <ele>74</ele>
        <time>2016-07-19T11:49:58Z</time>
      </trkpt>
      <trkpt lat="45.23323" lon="14.66251">
        <ele>73</ele>
        <time>2016-07-19T11:51:58Z</time>
      </trkpt>
      <trkpt lat="45.23305" lon="14.66276">
        <ele>73</ele>
        <time>2016-07-19T11:53:58Z</time>
      </trkpt>
      <trkpt lat="45.23295" lon="14.66288">
        <ele>73</ele>
        <time>2016-07-19T11:55:58Z</time>
      </trkpt>
      <trkpt lat="45.23282" lon="14.66303">
        <ele>73</ele>
        <time>2016-07-19T11:57:58Z</time>
      </trkpt>
      <trkpt lat="45.23273" lon="14.66312">
        <ele>73</ele>
        <time>2016-07-19T11:59:58Z</time>
      </trkpt>
      <trkpt lat="45.23266" lon="14.66318">
        <ele>73</ele>
        <time>2016-07-19T12:01:58Z</time>
      </trkpt>
      <trkpt lat="45.23253" lon="14.66326">
        <ele>73</ele>
        <time>2016-07-19T12:03:58Z</time>
      </trkpt>
      <trkpt lat="45.23244" lon="14.6633">
        <ele>72</ele>
        <time>2016-07-19T12:05:58Z</time>
      </trkpt>
      <trkpt lat="45.23238" lon="14.66334">
        <ele>72</ele>
        <time>2016-07-19T12:07:58Z</time>
      </trkpt>
      <trkpt lat="45.23231" lon="14.66337">
        <ele>72</ele>
        <time>2016-07-19T12:09:58Z</time>
      </trkpt>
      <trkpt lat="45.23217" lon="14.66345">
        <ele>72</ele>
        <time>2016-07-19T12:11:58Z</time>
      </trkpt>
      <trkpt lat="45.23205" lon="14.66354">
        <ele>72</ele>
        <time>2016-07-19T12:13:58Z</time>
      </trkpt>
      <trkpt lat="45.232" lon="14.66359">
        <ele>72</ele>
        <time>2016-07-19T12:15:58Z</time>
      </trkpt>
      <trkpt lat="45.23188" lon="14.6637">
        <ele>72</ele>
        <time>2016-07-19T12:17:58Z</time>
      </trkpt>
      <trkpt lat="45.23178" lon="14.66382">
        <ele>72</ele>
        <time>2016-07-19T12:19:58Z</time>
      </trkpt>
      <trkpt lat="45.23167" lon="14.66397">
        <ele>72</ele>
        <time>2016-07-19T12:21:58Z</time>
      </trkpt>
      <trkpt lat="45.23157" lon="14.66412">
        <ele>73</ele>
        <time>2016-07-19T12:23:58Z</time>
      </trkpt>
      <trkpt lat="45.23142" lon="14.66428">
        <ele>73</ele>
        <time>2016-07-19T12:25:58Z</time>
      </trkpt>
      <trkpt lat="45.23126" lon="14.66444">
        <ele>74</ele>
        <time>2016-07-19T12:27:58Z</time>
      </trkpt>
      <trkpt lat="45.23107" lon="14.6646">
        <ele>74</ele>
        <time>2016-07-19T12:29:58Z</time>
      </trkpt>
      <trkpt lat="45.23096" lon="14.66468">
        <ele>74</ele>
        <time>2016-07-19T12:31:58Z</time>
      </trkpt>
      <trkpt lat="45.23086" lon="14.66476">
        <ele>74</ele>
        <time>2016-07-19T12:33:58Z</time>
      </trkpt>
      <trkpt lat="45.23083" lon="14.66479">
        <ele>74</ele>
        <time>2016-07-19T12:35:58Z</time>
      </trkpt>
      <trkpt lat="45.23074" lon="14.66487">
        <ele>73</ele>
        <time>2016-07-19T12:37:58Z</time>
      </trkpt>
      <trkpt lat="45.23053" lon="14.66512">
        <ele>71</ele>
        <time>2016-07-19T12:39:58Z</time>
      </trkpt>
      <trkpt lat="45.23043" lon="14.66523">
        <ele>70</ele>
        <time>2016-07-19T12:41:58Z</time>
      </trkpt>
      <trkpt lat="45.23035" lon="14.66535">
        <ele>69</ele>
        <time>2016-07-19T12:43:58Z</time>
      </trkpt>
      <trkpt lat="45.23022" lon="14.66561">
        <ele>68</ele>
        <time>2016-07-19T12:45:58Z</time>
      </trkpt>
      <trkpt lat="45.23007" lon="14.66595">
        <ele>67</ele>
        <time>2016-07-19T12:47:58Z</time>
      </trkpt>
      <trkpt lat="45.22993" lon="14.6663">
        <ele>65</ele>
        <time>2016-07-19T12:49:58Z</time>
      </trkpt>
      <trkpt lat="45.22964" lon="14.66687">
        <ele>64</ele>
        <time>2016-07-19T12:51:58Z</time>
      </trkpt>
      <trkpt lat="45.22956" lon="14.66707">
        <ele>64</ele>
        <time>2016-07-19T12:53:58Z</time>
      </trkpt>
      <trkpt lat="45.22943" lon="14.66738">
        <ele>64</ele>
        <time>2016-07-19T12:55:58Z</time>
      </trkpt>
      <trkpt lat="45.22937" lon="14.66753">
        <ele>64</ele>
        <time>2016-07-19T12:57:58Z</time>
      </trkpt>
      <trkpt lat="45.22927" lon="14.66782">
        <ele>63</ele>
        <time>2016-07-19T12:59:58Z</time>
      </trkpt>
      <trkpt lat="45.2291" lon="14.6683">
        <ele>62</ele>
        <time>2016-07-19T13:01:58Z</time>
      </trkpt>
      <trkpt lat="45.22908" lon="14.66836">
        <ele>62</ele>
        <time>2016-07-19T13:03:58Z</time>
      </trkpt>
      <trkpt lat="45.22899" lon="14.66862">
        <ele>62</ele>
        <time>2016-07-19T13:05:58Z</time>
      </trkpt>
      <trkpt lat="45.22887" lon="14.66892">
        <ele>63</ele>
        <time>2016-07-19T13:07:58Z</time>
      </trkpt>
      <trkpt lat="45.22875" lon="14.66919">
        <ele>64</ele>
        <time>2016-07-19T13:09:58Z</time>
      </trkpt>
      <trkpt lat="45.22833" lon="14.66981">
        <ele>61</ele>
        <time>2016-07-19T13:11:58Z</time>
      </trkpt>
      <trkpt lat="45.22827" lon="14.6699">
        <ele>60</ele>
        <time>2016-07-19T13:13:58Z</time>
      </trkpt>
      <trkpt lat="45.22812" lon="14.67013">
        <ele>59</ele>
        <time>2016-07-19T13:15:58Z</time>
      </trkpt>
      <trkpt lat="45.2279" lon="14.67045">
        <ele>59</ele>
        <time>2016-07-19T13:17:58Z</time>
      </trkpt>
      <trkpt lat="45.22785" lon="14.67052">
        <ele>59</ele>
        <time>2016-07-19T13:19:58Z</time>
      </trkpt>
      <trkpt lat="45.2277" lon="14.67074">
        <ele>59</ele>
        <time>2016-07-19T13:21:58Z</time>
      </trkpt>
      <trkpt lat="45.22726" lon="14.67152">
        <ele>61</ele>
        <time>2016-07-19T13:23:58Z</time>
      </trkpt>
      <trkpt lat="45.22716" lon="14.67169">
        <ele>62</ele>
        <time>2016-07-19T13:25:58Z</time>
      </trkpt>
      <trkpt lat="45.22706" lon="14.6719">
        <ele>62</ele>
        <time>2016-07-19T13:27:58Z</time>
      </trkpt>
      <trkpt lat="45.22706" lon="14.6719">
        <ele>62</ele>
        <time>2016-07-19T13:29:58Z</time>
      </trkpt>
      <trkpt lat="45.22713" lon="14.67239">
        <ele>64</ele>
        <time>2016-07-19T13:31:58Z</time>
      </trkpt>
      <trkpt lat="45.22727" lon="14.67312">
        <ele>68</ele>
        <time>2016-07-19T13:33:58Z</time>
      </trkpt>
      <trkpt lat="45.2273" lon="14.67354">
        <ele>71</ele>
        <time>2016-07-19T13:35:58Z</time>
      </trkpt>
      <trkpt lat="45.22734" lon="14.67394">
        <ele>75</ele>
        <time>2016-07-19T13:37:58Z</time>
      </trkpt>
      <trkpt lat="45.22735" lon="14.67474">
        <ele>77</ele>
        <time>2016-07-19T13:39:58Z</time>
      </trkpt>
      <trkpt lat="45.22736" lon="14.67499">
        <ele>77</ele>
        <time>2016-07-19T13:41:58Z</time>
      </trkpt>
      <trkpt lat="45.22741" lon="14.67532">
        <ele>78</ele>
        <time>2016-07-19T13:43:58Z</time>
      </trkpt>
      <trkpt lat="45.22747" lon="14.67559">
        <ele>79</ele>
        <time>2016-07-19T13:45:58Z</time>
      </trkpt>
      <trkpt lat="45.22755" lon="14.67586">
        <ele>82</ele>
        <time>2016-07-19T13:47:58Z</time>
      </trkpt>
      <trkpt lat="45.22759" lon="14.67603">
        <ele>84</ele>
        <time>2016-07-19T13:49:58Z</time>
      </trkpt>
      <trkpt lat="45.22761" lon="14.67614">
        <ele>85</ele>
        <time>2016-07-19T13:51:58Z</time>
      </trkpt>
      <trkpt lat="45.22764" lon="14.67626">
        <ele>86</ele>
        <time>2016-07-19T13:53:58Z</time>
      </trkpt>
      <trkpt lat="45.22766" lon="14.67639">
        <ele>88</ele>
        <time>2016-07-19T13:55:58Z</time>
      </trkpt>
      <trkpt lat="45.22765" lon="14.67651">
        <ele>88</ele>
        <time>2016-07-19T13:57:58Z</time>
      </trkpt>
      <trkpt lat="45.22762" lon="14.67665">
        <ele>87</ele>
        <time>2016-07-19T13:59:58Z</time>
      </trkpt>
      <trkpt lat="45.22757" lon="14.67674">
        <ele>87</ele>
        <time>2016-07-19T14:01:58Z</time>
      </trkpt>
      <trkpt lat="45.2273" lon="14.6773">
        <ele>92</ele>
        <time>2016-07-19T14:03:58Z</time>
      </trkpt>
      <trkpt lat="45.22715" lon="14.67759">
        <ele>92</ele>
        <time>2016-07-19T14:05:58Z</time>
      </trkpt>
      <trkpt lat="45.22707" lon="14.67774">
        <ele>92</ele>
        <time>2016-07-19T14:07:58Z</time>
      </trkpt>
      <trkpt lat="45.227" lon="14.67788">
        <ele>92</ele>
        <time>2016-07-19T14:09:58Z</time>
      </trkpt>
      <trkpt lat="45.2269" lon="14.67819">
        <ele>93</ele>
        <time>2016-07-19T14:11:58Z</time>
      </trkpt>
      <trkpt lat="45.22685" lon="14.6783">
        <ele>93</ele>
        <time>2016-07-19T14:13:58Z</time>
      </trkpt>
      <trkpt lat="45.22679" lon="14.67844">
        <ele>93</ele>
        <time>2016-07-19T14:15:58Z</time>
      </trkpt>
      <trkpt lat="45.22671" lon="14.67862">
        <ele>93</ele>
        <time>2016-07-19T14:17:58Z</time>
      </trkpt>
      <trkpt lat="45.22659" lon="14.67882">
        <ele>92</ele>
        <time>2016-07-19T14:19:58Z</time>
      </trkpt>
      <trkpt lat="45.22654" lon="14.67892">
        <ele>92</ele>
        <time>2016-07-19T14:21:58Z</time>
      </trkpt>
      <trkpt lat="45.22646" lon="14.67905">
        <ele>91</ele>
        <time>2016-07-19T14:23:58Z</time>
      </trkpt>
      <trkpt lat="45.22639" lon="14.67923">
        <ele>92</ele>
        <time>2016-07-19T14:25:58Z</time>
      </trkpt>
      <trkpt lat="45.22632" lon="14.67941">
        <ele>93</ele>
        <time>2016-07-19T14:27:58Z</time>
      </trkpt>
      <trkpt lat="45.22628" lon="14.67958">
        <ele>94</ele>
        <time>2016-07-19T14:29:58Z</time>
      </trkpt>
      <trkpt lat="45.22624" lon="14.6797">
        <ele>95</ele>
        <time>2016-07-19T14:31:58Z</time>
      </trkpt>
      <trkpt lat="45.22619" lon="14.67982">
        <ele>96</ele>
        <time>2016-07-19T14:33:58Z</time>
      </trkpt>
      <trkpt lat="45.22612" lon="14.67994">
        <ele>96</ele>
        <time>2016-07-19T14:35:58Z</time>
      </trkpt>
      <trkpt lat="45.22606" lon="14.68001">
        <ele>95</ele>
        <time>2016-07-19T14:37:58Z</time>
      </trkpt>
      <trkpt lat="45.22603" lon="14.68007">
        <ele>95</ele>
        <time>2016-07-19T14:39:58Z</time>
      </trkpt>
      <trkpt lat="45.22596" lon="14.68016">
        <ele>95</ele>
        <time>2016-07-19T14:41:58Z</time>
      </trkpt>
      <trkpt lat="45.22591" lon="14.68028">
        <ele>95</ele>
        <time>2016-07-19T14:43:58Z</time>
      </trkpt>
      <trkpt lat="45.22585" lon="14.68055">
        <ele>97</ele>
        <time>2016-07-19T14:45:58Z</time>
      </trkpt>
      <trkpt lat="45.22581" lon="14.6807">
        <ele>98</ele>
        <time>2016-07-19T14:47:58Z</time>
      </trkpt>
      <trkpt lat="45.22579" lon="14.68076">
        <ele>98</ele>
        <time>2016-07-19T14:49:58Z</time>
      </trkpt>
      <trkpt lat="45.22574" lon="14.68081">
        <ele>98</ele>
        <time>2016-07-19T14:51:58Z</time>
      </trkpt>
      <trkpt lat="45.22569" lon="14.68088">
        <ele>98</ele>
        <time>2016-07-19T14:53:58Z</time>
      </trkpt>
      <trkpt lat="45.22556" lon="14.68095">
        <ele>95</ele>
        <time>2016-07-19T14:55:58Z</time>
      </trkpt>
      <trkpt lat="45.22549" lon="14.681">
        <ele>94</ele>
        <time>2016-07-19T14:57:58Z</time>
      </trkpt>
      <trkpt lat="45.22544" lon="14.68107">
        <ele>94</ele>
        <time>2016-07-19T14:59:58Z</time>
      </trkpt>
      <trkpt lat="45.22541" lon="14.68113">
        <ele>94</ele>
        <time>2016-07-19T15:01:58Z</time>
      </trkpt>
      <trkpt lat="45.22538" lon="14.68118">
        <ele>93</ele>
        <time>2016-07-19T15:03:58Z</time>
      </trkpt>
      <trkpt lat="45.22534" lon="14.68128">
        <ele>93</ele>
        <time>2016-07-19T15:05:58Z</time>
      </trkpt>
      <trkpt lat="45.22502" lon="14.68298">
        <ele>99</ele>
        <time>2016-07-19T15:07:58Z</time>
      </trkpt>
      <trkpt lat="45.22495" lon="14.68317">
        <ele>101</ele>
        <time>2016-07-19T15:09:58Z</time>
      </trkpt>
      <trkpt lat="45.2249" lon="14.68328">
        <ele>102</ele>
        <time>2016-07-19T15:11:58Z</time>
      </trkpt>
      <trkpt lat="45.22478" lon="14.68346">
        <ele>103</ele>
        <time>2016-07-19T15:13:58Z</time>
      </trkpt>
      <trkpt lat="45.22477" lon="14.68348">
        <ele>103</ele>
        <time>2016-07-19T15:15:58Z</time>
      </trkpt>
      <trkpt lat="45.22469" lon="14.6836">
        <ele>104</ele>
        <time>2016-07-19T15:17:58Z</time>
      </trkpt>
      <trkpt lat="45.22448" lon="14.68387">
        <ele>104</ele>
        <time>2016-07-19T15:19:58Z</time>
      </trkpt>
      <trkpt lat="45.22421" lon="14.68422">
        <ele>103</ele>
        <time>2016-07-19T15:21:58Z</time>
      </trkpt>
      <trkpt lat="45.22418" lon="14.68426">
        <ele>103</ele>
        <time>2016-07-19T15:23:58Z</time>
      </trkpt>
      <trkpt lat="45.22362" lon="14.68508">
        <ele>109</ele>
        <time>2016-07-19T15:25:58Z</time>
      </trkpt>
      <trkpt lat="45.2232" lon="14.68566">
        <ele>112</ele>
        <time>2016-07-19T15:27:58Z</time>
      </trkpt>
      <trkpt lat="45.22299" lon="14.68595">
        <ele>114</ele>
        <time>2016-07-19T15:29:58Z</time>
      </trkpt>
      <trkpt lat="45.22292" lon="14.68606">
        <ele>115</ele>
        <time>2016-07-19T15:31:58Z</time>
      </trkpt>
      <trkpt lat="45.22286" lon="14.6862">
        <ele>117</ele>
        <time>2016-07-19T15:33:58Z</time>
      </trkpt>
      <trkpt lat="45.2228" lon="14.68637">
        <ele>119</ele>
        <time>2016-07-19T15:35:58Z</time>
      </trkpt>
      <trkpt lat="45.22275" lon="14.68653">
        <ele>121</ele>
        <time>2016-07-19T15:37:58Z</time>
      </trkpt>
      <trkpt lat="45.2227" lon="14.6867">
        <ele>122</ele>
        <time>2016-07-19T15:39:58Z</time>
      </trkpt>
      <trkpt lat="45.22267" lon="14.68677">
        <ele>123</ele>
        <time>2016-07-19T15:41:58Z</time>
      </trkpt>
      <trkpt lat="45.22256" lon="14.68704">
        <ele>126</ele>
        <time>2016-07-19T15:43:58Z</time>
      </trkpt>
      <trkpt lat="45.22247" lon="14.68717">
        <ele>126</ele>
        <time>2016-07-19T15:45:58Z</time>
      </trkpt>
      <trkpt lat="45.22242" lon="14.68722">
        <ele>126</ele>
        <time>2016-07-19T15:47:58Z</time>
      </trkpt>
      <trkpt lat="45.22221" lon="14.68734">
        <ele>125</ele>
        <time>2016-07-19T15:49:58Z</time>
      </trkpt>
      <trkpt lat="45.22203" lon="14.6875">
        <ele>125</ele>
        <time>2016-07-19T15:51:58Z</time>
      </trkpt>
      <trkpt lat="45.22169" lon="14.68781">
        <ele>126</ele>
        <time>2016-07-19T15:53:58Z</time>
      </trkpt>
      <trkpt lat="45.2216" lon="14.68787">
        <ele>126</ele>
        <time>2016-07-19T15:55:58Z</time>
      </trkpt>
      <trkpt lat="45.22153" lon="14.68795">
        <ele>126</ele>
        <time>2016-07-19T15:57:58Z</time>
      </trkpt>
      <trkpt lat="45.22142" lon="14.68807">
        <ele>126</ele>
        <time>2016-07-19T15:59:58Z</time>
      </trkpt>
      <trkpt lat="45.2213" lon="14.68823">
        <ele>127</ele>
        <time>2016-07-19T16:01:58Z</time>
      </trkpt>
      <trkpt lat="45.22117" lon="14.68839">
        <ele>126</ele>
        <time>2016-07-19T16:03:58Z</time>
      </trkpt>
      <trkpt lat="45.22111" lon="14.68847">
        <ele>126</ele>
        <time>2016-07-19T16:05:58Z</time>
      </trkpt>
      <trkpt lat="45.221" lon="14.68861">
        <ele>126</ele>
        <time>2016-07-19T16:07:58Z</time>
      </trkpt>
      <trkpt lat="45.22096" lon="14.68867">
        <ele>126</ele>
        <time>2016-07-19T16:09:58Z</time>
      </trkpt>
      <trkpt lat="45.22085" lon="14.68882">
        <ele>126</ele>
        <time>2016-07-19T16:11:58Z</time>
      </trkpt>
      <trkpt lat="45.22069" lon="14.68899">
        <ele>128</ele>
        <time>2016-07-19T16:13:58Z</time>
      </trkpt>
      <trkpt lat="45.22065" lon="14.68904">
        <ele>128</ele>
        <time>2016-07-19T16:15:58Z</time>
      </trkpt>
      <trkpt lat="45.22062" lon="14.68909">
        <ele>129</ele>
        <time>2016-07-19T16:17:58Z</time>
      </trkpt>
      <trkpt lat="45.22054" lon="14.68921">
        <ele>130</ele>
        <time>2016-07-19T16:19:58Z</time>
      </trkpt>
      <trkpt lat="45.22051" lon="14.68927">
        <ele>130</ele>
        <time>2016-07-19T16:21:58Z</time>
      </trkpt>
      <trkpt lat="45.22043" lon="14.68941">
        <ele>132</ele>
        <time>2016-07-19T16:23:58Z</time>
      </trkpt>
      <trkpt lat="45.2203" lon="14.68964">
        <ele>133</ele>
        <time>2016-07-19T16:25:58Z</time>
      </trkpt>
      <trkpt lat="45.22018" lon="14.68983">
        <ele>133</ele>
        <time>2016-07-19T16:27:58Z</time>
      </trkpt>
      <trkpt lat="45.21991" lon="14.69017">
        <ele>133</ele>
        <time>2016-07-19T16:29:58Z</time>
      </trkpt>
      <trkpt lat="45.21975" lon="14.69039">
        <ele>134</ele>
        <time>2016-07-19T16:31:58Z</time>
      </trkpt>
      <trkpt lat="45.21968" lon="14.69054">
        <ele>136</ele>
        <time>2016-07-19T16:33:58Z</time>
      </trkpt>
      <trkpt lat="45.21959" lon="14.69074">
        <ele>137</ele>
        <time>2016-07-19T16:35:58Z</time>
      </trkpt>
      <trkpt lat="45.21954" lon="14.69086">
        <ele>138</ele>
        <time>2016-07-19T16:37:58Z</time>
      </trkpt>
      <trkpt lat="45.21925" lon="14.69156">
        <ele>144</ele>
        <time>2016-07-19T16:39:58Z</time>
      </trkpt>
      <trkpt lat="45.21902" lon="14.69211">
        <ele>145</ele>
        <time>2016-07-19T16:41:58Z</time>
      </trkpt>
      <trkpt lat="45.219" lon="14.69216">
        <ele>145</ele>
        <time>2016-07-19T16:43:58Z</time>
      </trkpt>
      <trkpt lat="45.21898" lon="14.69221">
        <ele>145</ele>
        <time>2016-07-19T16:45:58Z</time>
      </trkpt>
      <trkpt lat="45.21897" lon="14.69227">
        <ele>145</ele>
        <time>2016-07-19T16:47:58Z</time>
      </trkpt>
      <trkpt lat="45.21896" lon="14.69232">
        <ele>146</ele>
        <time>2016-07-19T16:49:58Z</time>
      </trkpt>
      <trkpt lat="45.21894" lon="14.69238">
        <ele>146</ele>
        <time>2016-07-19T16:51:58Z</time>
      </trkpt>
      <trkpt lat="45.21893" lon="14.69243">
        <ele>146</ele>
        <time>2016-07-19T16:53:58Z</time>
      </trkpt>
      <trkpt lat="45.21892" lon="14.69249">
        <ele>146</ele>
        <time>2016-07-19T16:55:58Z</time>
      </trkpt>
      <trkpt lat="45.21891" lon="14.69254">
        <ele>146</ele>
        <time>2016-07-19T16:57:58Z</time>
      </trkpt>
      <trkpt lat="45.2189" lon="14.6926">
        <ele>147</ele>
        <time>2016-07-19T16:59:58Z</time>
      </trkpt>
      <trkpt lat="45.2189" lon="14.69266">
        <ele>147</ele>
        <time>2016-07-19T17:01:58Z</time>
      </trkpt>
      <trkpt lat="45.21889" lon="14.69271">
        <ele>147</ele>
        <time>2016-07-19T17:03:58Z</time>
      </trkpt>
      <trkpt lat="45.21889" lon="14.69277">
        <ele>148</ele>
        <time>2016-07-19T17:05:58Z</time>
      </trkpt>
      <trkpt lat="45.21888" lon="14.69283">
        <ele>148</ele>
        <time>2016-07-19T17:07:58Z</time>
      </trkpt>
      <trkpt lat="45.21888" lon="14.69289">
        <ele>148</ele>
        <time>2016-07-19T17:09:58Z</time>
      </trkpt>
      <trkpt lat="45.21888" lon="14.69295">
        <ele>149</ele>
        <time>2016-07-19T17:11:58Z</time>
      </trkpt>
      <trkpt lat="45.21888" lon="14.69301">
        <ele>149</ele>
        <time>2016-07-19T17:13:58Z</time>
      </trkpt>
      <trkpt lat="45.21888" lon="14.69307">
        <ele>150</ele>
        <time>2016-07-19T17:15:58Z</time>
      </trkpt>
      <trkpt lat="45.21888" lon="14.69313">
        <ele>150</ele>
        <time>2016-07-19T17:17:58Z</time>
      </trkpt>
      <trkpt lat="45.21888" lon="14.69318">
        <ele>151</ele>
        <time>2016-07-19T17:19:58Z</time>
      </trkpt>
      <trkpt lat="45.21889" lon="14.69324">
        <ele>151</ele>
        <time>2016-07-19T17:21:58Z</time>
      </trkpt>
      <trkpt lat="45.21889" lon="14.6933">
        <ele>152</ele>
        <time>2016-07-19T17:23:58Z</time>
      </trkpt>
      <trkpt lat="45.21891" lon="14.69336">
        <ele>153</ele>
        <time>2016-07-19T17:25:58Z</time>
      </trkpt>
      <trkpt lat="45.21893" lon="14.69343">
        <ele>153</ele>
        <time>2016-07-19T17:27:58Z</time>
      </trkpt>
      <trkpt lat="45.21895" lon="14.69349">
        <ele>154</ele>
        <time>2016-07-19T17:29:58Z</time>
      </trkpt>
      <trkpt lat="45.21896" lon="14.69356">
        <ele>155</ele>
        <time>2016-07-19T17:31:58Z</time>
      </trkpt>
      <trkpt lat="45.21898" lon="14.69362">
        <ele>155</ele>
        <time>2016-07-19T17:33:58Z</time>
      </trkpt>
      <trkpt lat="45.219" lon="14.69368">
        <ele>156</ele>
        <time>2016-07-19T17:35:58Z</time>
      </trkpt>
      <trkpt lat="45.21901" lon="14.69376">
        <ele>157</ele>
        <time>2016-07-19T17:37:58Z</time>
      </trkpt>
      <trkpt lat="45.21903" lon="14.69383">
        <ele>157</ele>
        <time>2016-07-19T17:39:58Z</time>
      </trkpt>
      <trkpt lat="45.21904" lon="14.6939">
        <ele>158</ele>
        <time>2016-07-19T17:41:58Z</time>
      </trkpt>
      <trkpt lat="45.21904" lon="14.69392">
        <ele>158</ele>
        <time>2016-07-19T17:43:58Z</time>
      </trkpt>
      <trkpt lat="45.21903" lon="14.69394">
        <ele>158</ele>
        <time>2016-07-19T17:45:58Z</time>
      </trkpt>
      <trkpt lat="45.21903" lon="14.69396">
        <ele>158</ele>
        <time>2016-07-19T17:47:58Z</time>
      </trkpt>
      <trkpt lat="45.21903" lon="14.69397">
        <ele>158</ele>
        <time>2016-07-19T17:49:58Z</time>
      </trkpt>
      <trkpt lat="45.21902" lon="14.69398">
        <ele>158</ele>
        <time>2016-07-19T17:51:58Z</time>
      </trkpt>
      <trkpt lat="45.21901" lon="14.694">
        <ele>158</ele>
        <time>2016-07-19T17:53:58Z</time>
      </trkpt>
      <trkpt lat="45.21901" lon="14.69401">
        <ele>158</ele>
        <time>2016-07-19T17:55:58Z</time>
      </trkpt>
      <trkpt lat="45.219" lon="14.69402">
        <ele>158</ele>
        <time>2016-07-19T17:57:58Z</time>
      </trkpt>
      <trkpt lat="45.21899" lon="14.69403">
        <ele>158</ele>
        <time>2016-07-19T17:59:58Z</time>
      </trkpt>
      <trkpt lat="45.21898" lon="14.69404">
        <ele>158</ele>
        <time>2016-07-19T18:01:58Z</time>
      </trkpt>
      <trkpt lat="45.21897" lon="14.69405">
        <ele>158</ele>
        <time>2016-07-19T18:03:58Z</time>
      </trkpt>
      <trkpt lat="45.21895" lon="14.69407">
        <ele>158</ele>
        <time>2016-07-19T18:05:58Z</time>
      </trkpt>
      <trkpt lat="45.21892" lon="14.69409">
        <ele>158</ele>
        <time>2016-07-19T18:07:58Z</time>
      </trkpt>
      <trkpt lat="45.2189" lon="14.6941">
        <ele>158</ele>
        <time>2016-07-19T18:09:58Z</time>
      </trkpt>
      <trkpt lat="45.21887" lon="14.69411">
        <ele>158</ele>
        <time>2016-07-19T18:11:58Z</time>
      </trkpt>
      <trkpt lat="45.21885" lon="14.69413">
        <ele>158</ele>
        <time>2016-07-19T18:13:58Z</time>
      </trkpt>
      <trkpt lat="45.21882" lon="14.69414">
        <ele>157</ele>
        <time>2016-07-19T18:15:58Z</time>
      </trkpt>
      <trkpt lat="45.2188" lon="14.69414">
        <ele>157</ele>
        <time>2016-07-19T18:17:58Z</time>
      </trkpt>
      <trkpt lat="45.21877" lon="14.69415">
        <ele>157</ele>
        <time>2016-07-19T18:19:58Z</time>
      </trkpt>
      <trkpt lat="45.21874" lon="14.69416">
        <ele>157</ele>
        <time>2016-07-19T18:21:58Z</time>
      </trkpt>
      <trkpt lat="45.21872" lon="14.69416">
        <ele>157</ele>
        <time>2016-07-19T18:23:58Z</time>
      </trkpt>
      <trkpt lat="45.21869" lon="14.69417">
        <ele>156</ele>
        <time>2016-07-19T18:25:58Z</time>
      </trkpt>
      <trkpt lat="45.21866" lon="14.69419">
        <ele>156</ele>
        <time>2016-07-19T18:27:58Z</time>
      </trkpt>
      <trkpt lat="45.21863" lon="14.6942">
        <ele>156</ele>
        <time>2016-07-19T18:29:58Z</time>
      </trkpt>
      <trkpt lat="45.2186" lon="14.69421">
        <ele>156</ele>
        <time>2016-07-19T18:31:58Z</time>
      </trkpt>
      <trkpt lat="45.21856" lon="14.69423">
        <ele>156</ele>
        <time>2016-07-19T18:33:58Z</time>
      </trkpt>
      <trkpt lat="45.21853" lon="14.69425">
        <ele>156</ele>
        <time>2016-07-19T18:35:58Z</time>
      </trkpt>
      <trkpt lat="45.2185" lon="14.69427">
        <ele>156</ele>
        <time>2016-07-19T18:37:58Z</time>
      </trkpt>
      <trkpt lat="45.21847" lon="14.69429">
        <ele>156</ele>
        <time>2016-07-19T18:39:58Z</time>
      </trkpt>
      <trkpt lat="45.21843" lon="14.69431">
        <ele>156</ele>
        <time>2016-07-19T18:41:58Z</time>
      </trkpt>
      <trkpt lat="45.2184" lon="14.69434">
        <ele>156</ele>
        <time>2016-07-19T18:43:58Z</time>
      </trkpt>
      <trkpt lat="45.21837" lon="14.69436">
        <ele>156</ele>
        <time>2016-07-19T18:45:58Z</time>
      </trkpt>
      <trkpt lat="45.21819" lon="14.69448">
        <ele>158</ele>
        <time>2016-07-19T18:47:58Z</time>
      </trkpt>
      <trkpt lat="45.21812" lon="14.69453">
        <ele>159</ele>
        <time>2016-07-19T18:49:58Z</time>
      </trkpt>
      <trkpt lat="45.21807" lon="14.69455">
        <ele>159</ele>
        <time>2016-07-19T18:51:58Z</time>
      </trkpt>
      <trkpt lat="45.21798" lon="14.69456">
        <ele>160</ele>
        <time>2016-07-19T18:53:58Z</time>
      </trkpt>
      <trkpt lat="45.21789" lon="14.69455">
        <ele>160</ele>
        <time>2016-07-19T18:55:58Z</time>
      </trkpt>
      <trkpt lat="45.21785" lon="14.69454">
        <ele>160</ele>
        <time>2016-07-19T18:57:58Z</time>
      </trkpt>
      <trkpt lat="45.21777" lon="14.69451">
        <ele>161</ele>
        <time>2016-07-19T18:59:58Z</time>
      </trkpt>
      <trkpt lat="45.21772" lon="14.69449">
        <ele>161</ele>
        <time>2016-07-19T19:01:58Z</time>
      </trkpt>
      <trkpt lat="45.21765" lon="14.69445">
        <ele>161</ele>
        <time>2016-07-19T19:03:58Z</time>
      </trkpt>
      <trkpt lat="45.21758" lon="14.6944">
        <ele>161</ele>
        <time>2016-07-19T19:05:58Z</time>
      </trkpt>
      <trkpt lat="45.21755" lon="14.69436">
        <ele>161</ele>
        <time>2016-07-19T19:07:58Z</time>
      </trkpt>
      <trkpt lat="45.21749" lon="14.69429">
        <ele>160</ele>
        <time>2016-07-19T19:09:58Z</time>
      </trkpt>
      <trkpt lat="45.21715" lon="14.6939">
        <ele>156</ele>
        <time>2016-07-19T19:11:58Z</time>
      </trkpt>
      <trkpt lat="45.21707" lon="14.69384">
        <ele>156</ele>
        <time>2016-07-19T19:13:58Z</time>
      </trkpt>
      <trkpt lat="45.21703" lon="14.69382">
        <ele>155</ele>
        <time>2016-07-19T19:15:58Z</time>
      </trkpt>
      <trkpt lat="45.21695" lon="14.6938">
        <ele>156</ele>
        <time>2016-07-19T19:17:58Z</time>
      </trkpt>
      <trkpt lat="45.21695" lon="14.6938">
        <ele>156</ele>
        <time>2016-07-19T19:19:58Z</time>
      </trkpt>
      <trkpt lat="45.21691" lon="14.69383">
        <ele>156</ele>
        <time>2016-07-19T19:21:58Z</time>
      </trkpt>
      <trkpt lat="45.21688" lon="14.69385">
        <ele>156</ele>
        <time>2016-07-19T19:23:58Z</time>
      </trkpt>
      <trkpt lat="45.21685" lon="14.69388">
        <ele>157</ele>
        <time>2016-07-19T19:25:58Z</time>
      </trkpt>
      <trkpt lat="45.21682" lon="14.69394">
        <ele>157</ele>
        <time>2016-07-19T19:27:58Z</time>
      </trkpt>
      <trkpt lat="45.21679" lon="14.694">
        <ele>158</ele>
        <time>2016-07-19T19:29:58Z</time>
      </trkpt>
      <trkpt lat="45.21677" lon="14.69408">
        <ele>158</ele>
        <time>2016-07-19T19:31:58Z</time>
      </trkpt>
      <trkpt lat="45.21668" lon="14.6947">
        <ele>162</ele>
        <time>2016-07-19T19:33:58Z</time>
      </trkpt>
      <trkpt lat="45.21665" lon="14.69483">
        <ele>162</ele>
        <time>2016-07-19T19:35:58Z</time>
      </trkpt>
      <trkpt lat="45.21662" lon="14.69497">
        <ele>162</ele>
        <time>2016-07-19T19:37:58Z</time>
      </trkpt>
      <trkpt lat="45.21656" lon="14.69518">
        <ele>163</ele>
        <time>2016-07-19T19:39:58Z</time>
      </trkpt>
      <trkpt lat="45.21635" lon="14.69576">
        <ele>164</ele>
        <time>2016-07-19T19:41:58Z</time>
      </trkpt>
      <trkpt lat="45.21632" lon="14.69582">
        <ele>164</ele>
        <time>2016-07-19T19:43:58Z</time>
      </trkpt>
      <trkpt lat="45.2163" lon="14.69604">
        <ele>166</ele>
        <time>2016-07-19T19:45:58Z</time>
      </trkpt>
      <trkpt lat="45.2163" lon="14.69615">
        <ele>167</ele>
        <time>2016-07-19T19:47:58Z</time>
      </trkpt>
      <trkpt lat="45.21629" lon="14.69625">
        <ele>168</ele>
        <time>2016-07-19T19:49:58Z</time>
      </trkpt>
      <trkpt lat="45.21627" lon="14.69632">
        <ele>168</ele>
        <time>2016-07-19T19:51:58Z</time>
      </trkpt>
      <trkpt lat="45.21624" lon="14.69639">
        <ele>169</ele>
        <time>2016-07-19T19:53:58Z</time>
      </trkpt>
      <trkpt lat="45.21621" lon="14.69644">
        <ele>169</ele>
        <time>2016-07-19T19:55:58Z</time>
      </trkpt>
      <trkpt lat="45.21606" lon="14.69668">
        <ele>169</ele>
        <time>2016-07-19T19:57:58Z</time>
      </trkpt>
      <trkpt lat="45.216" lon="14.69678">
        <ele>170</ele>
        <time>2016-07-19T19:59:58Z</time>
      </trkpt>
      <trkpt lat="45.21598" lon="14.69685">
        <ele>170</ele>
        <time>2016-07-19T20:01:58Z</time>
      </trkpt>
      <trkpt lat="45.21594" lon="14.69696">
        <ele>171</ele>
        <time>2016-07-19T20:03:58Z</time>
      </trkpt>
      <trkpt lat="45.21592" lon="14.69703">
        <ele>171</ele>
        <time>2016-07-19T20:05:58Z</time>
      </trkpt>
      <trkpt lat="45.21586" lon="14.69722">
        <ele>173</ele>
        <time>2016-07-19T20:07:58Z</time>
      </trkpt>
      <trkpt lat="45.21581" lon="14.69742">
        <ele>174</ele>
        <time>2016-07-19T20:09:58Z</time>
      </trkpt>
      <trkpt lat="45.2158" lon="14.69748">
        <ele>174</ele>
        <time>2016-07-19T20:11:58Z</time>
      </trkpt>
      <trkpt lat="45.21577" lon="14.69762">
        <ele>175</ele>
        <time>2016-07-19T20:13:58Z</time>
      </trkpt>
      <trkpt lat="45.21568" lon="14.69805">
        <ele>178</ele>
        <time>2016-07-19T20:15:58Z</time>
      </trkpt>
      <trkpt lat="45.21563" lon="14.69827">
        <ele>180</ele>
        <time>2016-07-19T20:17:58Z</time>
      </trkpt>
      <trkpt lat="45.21559" lon="14.6985">
        <ele>181</ele>
        <time>2016-07-19T20:19:58Z</time>
      </trkpt>
      <trkpt lat="45.21554" lon="14.69873">
        <ele>182</ele>
        <time>2016-07-19T20:21:58Z</time>
      </trkpt>
      <trkpt lat="45.21553" lon="14.69882">
        <ele>182</ele>
        <time>2016-07-19T20:23:58Z</time>
      </trkpt>
      <trkpt lat="45.21553" lon="14.69891">
        <ele>183</ele>
        <time>2016-07-19T20:25:58Z</time>
      </trkpt>
      <trkpt lat="45.21553" lon="14.699">
        <ele>184</ele>
        <time>2016-07-19T20:27:58Z</time>
      </trkpt>
      <trkpt lat="45.21554" lon="14.69916">
        <ele>185</ele>
        <time>2016-07-19T20:29:58Z</time>
      </trkpt>
      <trkpt lat="45.21555" lon="14.69927">
        <ele>186</ele>
        <time>2016-07-19T20:31:58Z</time>
      </trkpt>
      <trkpt lat="45.21556" lon="14.69935">
        <ele>187</ele>
        <time>2016-07-19T20:33:58Z</time>
      </trkpt>
      <trkpt lat="45.21558" lon="14.69943">
        <ele>188</ele>
        <time>2016-07-19T20:35:58Z</time>
      </trkpt>
      <trkpt lat="45.2156" lon="14.69949">
        <ele>188</ele>
        <time>2016-07-19T20:37:58Z</time>
      </trkpt>
      <trkpt lat="45.21564" lon="14.6996">
        <ele>190</ele>
        <time>2016-07-19T20:39:58Z</time>
      </trkpt>
      <trkpt lat="45.21566" lon="14.69969">
        <ele>191</ele>
        <time>2016-07-19T20:41:58Z</time>
      </trkpt>
      <trkpt lat="45.21567" lon="14.69979">
        <ele>192</ele>
        <time>2016-07-19T20:43:58Z</time>
      </trkpt>
      <trkpt lat="45.21567" lon="14.69988">
        <ele>193</ele>
        <time>2016-07-19T20:45:58Z</time>
      </trkpt>
      <trkpt lat="45.21566" lon="14.69998">
        <ele>193</ele>
        <time>2016-07-19T20:47:58Z</time>
      </trkpt>
      <trkpt lat="45.21565" lon="14.70006">
        <ele>194</ele>
        <time>2016-07-19T20:49:58Z</time>
      </trkpt>
      <trkpt lat="45.21563" lon="14.70013">
        <ele>195</ele>
        <time>2016-07-19T20:51:58Z</time>
      </trkpt>
      <trkpt lat="45.21561" lon="14.70018">
        <ele>195</ele>
        <time>2016-07-19T20:53:58Z</time>
      </trkpt>
      <trkpt lat="45.21547" lon="14.70037">
        <ele>196</ele>
        <time>2016-07-19T20:55:58Z</time>
      </trkpt>
      <trkpt lat="45.2151" lon="14.70089">
        <ele>197</ele>
        <time>2016-07-19T20:57:58Z</time>
      </trkpt>
      <trkpt lat="45.21505" lon="14.70105">
        <ele>197</ele>
        <time>2016-07-19T20:59:58Z</time>
      </trkpt>
      <trkpt lat="45.21502" lon="14.70121">
        <ele>198</ele>
        <time>2016-07-19T21:01:58Z</time>
      </trkpt>
      <trkpt lat="45.215" lon="14.70139">
        <ele>200</ele>
        <time>2016-07-19T21:03:58Z</time>
      </trkpt>
      <trkpt lat="45.21499" lon="14.70148">
        <ele>200</ele>
        <time>2016-07-19T21:05:58Z</time>
      </trkpt>
      <trkpt lat="45.21497" lon="14.70159">
        <ele>201</ele>
        <time>2016-07-19T21:07:58Z</time>
      </trkpt>
      <trkpt lat="45.21496" lon="14.70168">
        <ele>202</ele>
        <time>2016-07-19T21:09:58Z</time>
      </trkpt>
      <trkpt lat="45.21493" lon="14.70179">
        <ele>202</ele>
        <time>2016-07-19T21:11:58Z</time>
      </trkpt>
      <trkpt lat="45.21491" lon="14.70189">
        <ele>202</ele>
        <time>2016-07-19T21:13:58Z</time>
      </trkpt>
      <trkpt lat="45.21485" lon="14.70209">
        <ele>203</ele>
        <time>2016-07-19T21:15:58Z</time>
      </trkpt>
      <trkpt lat="45.21481" lon="14.70218">
        <ele>203</ele>
        <time>2016-07-19T21:17:58Z</time>
      </trkpt>
      <trkpt lat="45.21474" lon="14.70236">
        <ele>204</ele>
        <time>2016-07-19T21:19:58Z</time>
      </trkpt>
      <trkpt lat="45.21472" lon="14.70242">
        <ele>204</ele>
        <time>2016-07-19T21:21:58Z</time>
      </trkpt>
      <trkpt lat="45.21469" lon="14.70256">
        <ele>205</ele>
        <time>2016-07-19T21:23:58Z</time>
      </trkpt>
      <trkpt lat="45.21466" lon="14.7027">
        <ele>206</ele>
        <time>2016-07-19T21:25:58Z</time>
      </trkpt>
      <trkpt lat="45.21465" lon="14.70277">
        <ele>206</ele>
        <time>2016-07-19T21:27:58Z</time>
      </trkpt>
      <trkpt lat="45.21464" lon="14.70291">
        <ele>208</ele>
        <time>2016-07-19T21:29:58Z</time>
      </trkpt>
      <trkpt lat="45.21464" lon="14.70306">
        <ele>209</ele>
        <time>2016-07-19T21:31:58Z</time>
      </trkpt>
      <trkpt lat="45.21464" lon="14.70313">
        <ele>210</ele>
        <time>2016-07-19T21:33:58Z</time>
      </trkpt>
      <trkpt lat="45.21466" lon="14.70328">
        <ele>211</ele>
        <time>2016-07-19T21:35:58Z</time>
      </trkpt>
      <trkpt lat="45.21476" lon="14.70347">
        <ele>214</ele>
        <time>2016-07-19T21:37:58Z</time>
      </trkpt>
      <trkpt lat="45.2148" lon="14.70359">
        <ele>216</ele>
        <time>2016-07-19T21:39:58Z</time>
      </trkpt>
      <trkpt lat="45.21481" lon="14.70363">
        <ele>217</ele>
        <time>2016-07-19T21:41:58Z</time>
      </trkpt>
      <trkpt lat="45.21482" lon="14.70374">
        <ele>218</ele>
        <time>2016-07-19T21:43:58Z</time>
      </trkpt>
      <trkpt lat="45.21481" lon="14.70382">
        <ele>219</ele>
        <time>2016-07-19T21:45:58Z</time>
      </trkpt>
      <trkpt lat="45.21478" lon="14.70389">
        <ele>219</ele>
        <time>2016-07-19T21:47:58Z</time>
      </trkpt>
      <trkpt lat="45.21437" lon="14.70435">
        <ele>219</ele>
        <time>2016-07-19T21:49:58Z</time>
      </trkpt>
      <trkpt lat="45.21432" lon="14.70442">
        <ele>220</ele>
        <time>2016-07-19T21:51:58Z</time>
      </trkpt>
      <trkpt lat="45.21429" lon="14.70452">
        <ele>220</ele>
        <time>2016-07-19T21:53:58Z</time>
      </trkpt>
      <trkpt lat="45.21422" lon="14.70465">
        <ele>221</ele>
        <time>2016-07-19T21:55:58Z</time>
      </trkpt>
      <trkpt lat="45.21421" lon="14.70469">
        <ele>222</ele>
        <time>2016-07-19T21:57:58Z</time>
      </trkpt>
      <trkpt lat="45.2142" lon="14.70473">
        <ele>222</ele>
        <time>2016-07-19T21:59:58Z</time>
      </trkpt>
      <trkpt lat="45.21419" lon="14.70477">
        <ele>222</ele>
        <time>2016-07-19T22:01:58Z</time>
      </trkpt>
      <trkpt lat="45.21418" lon="14.70481">
        <ele>223</ele>
        <time>2016-07-19T22:03:58Z</time>
      </trkpt>
      <trkpt lat="45.21416" lon="14.70485">
        <ele>223</ele>
        <time>2016-07-19T22:05:58Z</time>
      </trkpt>
      <trkpt lat="45.21415" lon="14.70488">
        <ele>223</ele>
        <time>2016-07-19T22:07:58Z</time>
      </trkpt>
      <trkpt lat="45.21413" lon="14.70492">
        <ele>224</ele>
        <time>2016-07-19T22:09:58Z</time>
      </trkpt>
      <trkpt lat="45.21411" lon="14.70496">
        <ele>224</ele>
        <time>2016-07-19T22:11:58Z</time>
      </trkpt>
      <trkpt lat="45.21409" lon="14.70499">
        <ele>224</ele>
        <time>2016-07-19T22:13:58Z</time>
      </trkpt>
      <trkpt lat="45.21407" lon="14.70502">
        <ele>224</ele>
        <time>2016-07-19T22:15:58Z</time>
      </trkpt>
      <trkpt lat="45.21405" lon="14.70505">
        <ele>225</ele>
        <time>2016-07-19T22:17:58Z</time>
      </trkpt>
      <trkpt lat="45.21403" lon="14.70508">
        <ele>225</ele>
        <time>2016-07-19T22:19:58Z</time>
      </trkpt>
      <trkpt lat="45.21401" lon="14.70511">
        <ele>225</ele>
        <time>2016-07-19T22:21:58Z</time>
      </trkpt>
      <trkpt lat="45.21399" lon="14.70513">
        <ele>225</ele>
        <time>2016-07-19T22:23:58Z</time>
      </trkpt>
      <trkpt lat="45.21396" lon="14.70515">
        <ele>225</ele>
        <time>2016-07-19T22:25:58Z</time>
      </trkpt>
      <trkpt lat="45.21394" lon="14.70518">
        <ele>225</ele>
        <time>2016-07-19T22:27:58Z</time>
      </trkpt>
      <trkpt lat="45.21374" lon="14.70531">
        <ele>225</ele>
        <time>2016-07-19T22:29:58Z</time>
      </trkpt>
      <trkpt lat="45.21364" lon="14.7054">
        <ele>225</ele>
        <time>2016-07-19T22:31:58Z</time>
      </trkpt>
      <trkpt lat="45.2135" lon="14.70551">
        <ele>225</ele>
        <time>2016-07-19T22:33:58Z</time>
      </trkpt>
      <trkpt lat="45.21337" lon="14.70567">
        <ele>226</ele>
        <time>2016-07-19T22:35:58Z</time>
      </trkpt>
      <trkpt lat="45.21327" lon="14.70578">
        <ele>226</ele>
        <time>2016-07-19T22:37:58Z</time>
      </trkpt>
      <trkpt lat="45.21323" lon="14.70583">
        <ele>225</ele>
        <time>2016-07-19T22:39:58Z</time>
      </trkpt>
      <trkpt lat="45.21314" lon="14.70594">
        <ele>226</ele>
        <time>2016-07-19T22:41:58Z</time>
      </trkpt>
      <trkpt lat="45.21305" lon="14.70609">
        <ele>226</ele>
        <time>2016-07-19T22:43:58Z</time>
      </trkpt>
      <trkpt lat="45.21296" lon="14.70626">
        <ele>227</ele>
        <time>2016-07-19T22:45:58Z</time>
      </trkpt>
      <trkpt lat="45.21288" lon="14.70643">
        <ele>228</ele>
        <time>2016-07-19T22:47:58Z</time>
      </trkpt>
      <trkpt lat="45.21281" lon="14.7066">
        <ele>229</ele>
        <time>2016-07-19T22:49:58Z</time>
      </trkpt>
      <trkpt lat="45.21275" lon="14.70679">
        <ele>231</ele>
        <time>2016-07-19T22:51:58Z</time>
      </trkpt>
      <trkpt lat="45.2127" lon="14.70696">
        <ele>232</ele>
        <time>2016-07-19T22:53:58Z</time>
      </trkpt>
      <trkpt lat="45.21266" lon="14.70713">
        <ele>233</ele>
        <time>2016-07-19T22:55:58Z</time>
      </trkpt>
      <trkpt lat="45.21261" lon="14.70727">
        <ele>234</ele>
        <time>2016-07-19T22:57:58Z</time>
      </trkpt>
      <trkpt lat="45.21259" lon="14.70733">
        <ele>234</ele>
        <time>2016-07-19T22:59:58Z</time>
      </trkpt>
      <trkpt lat="45.21253" lon="14.70746">
        <ele>235</ele>
        <time>2016-07-19T23:01:58Z</time>
      </trkpt>
      <trkpt lat="45.21247" lon="14.70758">
        <ele>236</ele>
        <time>2016-07-19T23:03:58Z</time>
      </trkpt>
      <trkpt lat="45.2124" lon="14.70768">
        <ele>236</ele>
        <time>2016-07-19T23:05:58Z</time>
      </trkpt>
      <trkpt lat="45.21233" lon="14.70776">
        <ele>237</ele>
        <time>2016-07-19T23:07:58Z</time>
      </trkpt>
      <trkpt lat="45.21225" lon="14.70784">
        <ele>237</ele>
        <time>2016-07-19T23:09:58Z</time>
      </trkpt>
      <trkpt lat="45.21222" lon="14.70787">
        <ele>237</ele>
        <time>2016-07-19T23:11:58Z</time>
      </trkpt>
      <trkpt lat="45.21213" lon="14.70796">
        <ele>237</ele>
        <time>2016-07-19T23:13:58Z</time>
      </trkpt>
      <trkpt lat="45.21206" lon="14.70806">
        <ele>237</ele>
        <time>2016-07-19T23:15:58Z</time>
      </trkpt>
      <trkpt lat="45.21199" lon="14.70817">
        <ele>238</ele>
        <time>2016-07-19T23:17:58Z</time>
      </trkpt>
      <trkpt lat="45.21196" lon="14.70823">
        <ele>238</ele>
        <time>2016-07-19T23:19:58Z</time>
      </trkpt>
      <trkpt lat="45.2119" lon="14.70835">
        <ele>238</ele>
        <time>2016-07-19T23:21:58Z</time>
      </trkpt>
      <trkpt lat="45.21186" lon="14.70847">
        <ele>239</ele>
        <time>2016-07-19T23:23:58Z</time>
      </trkpt>
      <trkpt lat="45.21182" lon="14.70861">
        <ele>240</ele>
        <time>2016-07-19T23:25:58Z</time>
      </trkpt>
      <trkpt lat="45.21179" lon="14.70874">
        <ele>241</ele>
        <time>2016-07-19T23:27:58Z</time>
      </trkpt>
      <trkpt lat="45.21178" lon="14.70881">
        <ele>242</ele>
        <time>2016-07-19T23:29:58Z</time>
      </trkpt>
      <trkpt lat="45.21178" lon="14.70892">
        <ele>243</ele>
        <time>2016-07-19T23:31:58Z</time>
      </trkpt>
      <trkpt lat="45.21177" lon="14.70912">
        <ele>246</ele>
        <time>2016-07-19T23:33:58Z</time>
      </trkpt>
      <trkpt lat="45.21177" lon="14.70922">
        <ele>247</ele>
        <time>2016-07-19T23:35:58Z</time>
      </trkpt>
      <trkpt lat="45.21175" lon="14.70942">
        <ele>248</ele>
        <time>2016-07-19T23:37:58Z</time>
      </trkpt>
      <trkpt lat="45.21173" lon="14.70952">
        <ele>248</ele>
        <time>2016-07-19T23:39:58Z</time>
      </trkpt>
      <trkpt lat="45.2116" lon="14.71024">
        <ele>254</ele>
        <time>2016-07-19T23:41:58Z</time>
      </trkpt>
      <trkpt lat="45.21151" lon="14.71042">
        <ele>256</ele>
        <time>2016-07-19T23:43:58Z</time>
      </trkpt>
      <trkpt lat="45.21118" lon="14.71093">
        <ele>260</ele>
        <time>2016-07-19T23:45:58Z</time>
      </trkpt>
      <trkpt lat="45.21103" lon="14.71118">
        <ele>263</ele>
        <time>2016-07-19T23:47:58Z</time>
      </trkpt>
      <trkpt lat="45.21099" lon="14.71124">
        <ele>264</ele>
        <time>2016-07-19T23:49:58Z</time>
      </trkpt>
      <trkpt lat="45.21099" lon="14.71124">
        <ele>264</ele>
        <time>2016-07-19T23:51:58Z</time>
      </trkpt>
      <trkpt lat="45.21076" lon="14.71175">
        <ele>271</ele>
        <time>2016-07-19T23:53:58Z</time>
      </trkpt>
      <trkpt lat="45.21056" lon="14.71212">
        <ele>275</ele>
        <time>2016-07-19T23:55:58Z</time>
      </trkpt>
      <trkpt lat="45.2104" lon="14.7124">
        <ele>277</ele>
        <time>2016-07-19T23:57:58Z</time>
      </trkpt>
      <trkpt lat="45.20999" lon="14.71308">
        <ele>284</ele>
        <time>2016-07-19T23:59:58Z</time>
      </trkpt>
      <trkpt lat="45.20972" lon="14.71357">
        <ele>289</ele>
        <time>2016-07-20T00:01:58Z</time>
      </trkpt>
      <trkpt lat="45.20968" lon="14.71362">
        <ele>289</ele>
        <time>2016-07-20T00:03:58Z</time>
      </trkpt>
      <trkpt lat="45.20962" lon="14.71366">
        <ele>289</ele>
        <time>2016-07-20T00:05:58Z</time>
      </trkpt>
      <trkpt lat="45.20955" lon="14.71371">
        <ele>288</ele>
        <time>2016-07-20T00:07:58Z</time>
      </trkpt>
      <trkpt lat="45.20914" lon="14.71391">
        <ele>285</ele>
        <time>2016-07-20T00:09:58Z</time>
      </trkpt>
      <trkpt lat="45.20905" lon="14.71395">
        <ele>285</ele>
        <time>2016-07-20T00:11:58Z</time>
      </trkpt>
      <trkpt lat="45.20897" lon="14.71397">
        <ele>284</ele>
        <time>2016-07-20T00:13:58Z</time>
      </trkpt>
      <trkpt lat="45.20889" lon="14.71398">
        <ele>283</ele>
        <time>2016-07-20T00:15:58Z</time>
      </trkpt>
      <trkpt lat="45.20878" lon="14.71399">
        <ele>282</ele>
        <time>2016-07-20T00:17:58Z</time>
      </trkpt>
      <trkpt lat="45.20869" lon="14.714">
        <ele>281</ele>
        <time>2016-07-20T00:19:58Z</time>
      </trkpt>
      <trkpt lat="45.20859" lon="14.71403">
        <ele>280</ele>
        <time>2016-07-20T00:21:58Z</time>
      </trkpt>
      <trkpt lat="45.20852" lon="14.71407">
        <ele>280</ele>
        <time>2016-07-20T00:23:58Z</time>
      </trkpt>
      <trkpt lat="45.20847" lon="14.7141">
        <ele>280</ele>
        <time>2016-07-20T00:25:58Z</time>
      </trkpt>
      <trkpt lat="45.2084" lon="14.71414">
        <ele>279</ele>
        <time>2016-07-20T00:27:58Z</time>
      </trkpt>
      <trkpt lat="45.20835" lon="14.71417">
        <ele>279</ele>
        <time>2016-07-20T00:29:58Z</time>
      </trkpt>
      <trkpt lat="45.20835" lon="14.71417">
        <ele>279</ele>
        <time>2016-07-20T00:31:58Z</time>
      </trkpt>
      <trkpt lat="45.20811" lon="14.7143">
        <ele>276</ele>
        <time>2016-07-20T00:33:58Z</time>
      </trkpt>
      <trkpt lat="45.20755" lon="14.71455">
        <ele>270</ele>
        <time>2016-07-20T00:35:58Z</time>
      </trkpt>
      <trkpt lat="45.20742" lon="14.71459">
        <ele>269</ele>
        <time>2016-07-20T00:37:58Z</time>
      </trkpt>
      <trkpt lat="45.20717" lon="14.71467">
        <ele>266</ele>
        <time>2016-07-20T00:39:58Z</time>
      </trkpt>
      <trkpt lat="45.20683" lon="14.71476">
        <ele>263</ele>
        <time>2016-07-20T00:41:58Z</time>
      </trkpt>
      <trkpt lat="45.20667" lon="14.71484">
        <ele>262</ele>
        <time>2016-07-20T00:43:58Z</time>
      </trkpt>
      <trkpt lat="45.20607" lon="14.71517">
        <ele>260</ele>
        <time>2016-07-20T00:45:58Z</time>
      </trkpt>
      <trkpt lat="45.20591" lon="14.7153">
        <ele>259</ele>
        <time>2016-07-20T00:47:58Z</time>
      </trkpt>
      <trkpt lat="45.20573" lon="14.71545">
        <ele>257</ele>
        <time>2016-07-20T00:49:58Z</time>
      </trkpt>
      <trkpt lat="45.20552" lon="14.71558">
        <ele>254</ele>
        <time>2016-07-20T00:51:58Z</time>
      </trkpt>
      <trkpt lat="45.20538" lon="14.71568">
        <ele>252</ele>
        <time>2016-07-20T00:53:58Z</time>
      </trkpt>
      <trkpt lat="45.20528" lon="14.71577">
        <ele>251</ele>
        <time>2016-07-20T00:55:58Z</time>
      </trkpt>
      <trkpt lat="45.20516" lon="14.71588">
        <ele>249</ele>
        <time>2016-07-20T00:57:58Z</time>
      </trkpt>
      <trkpt lat="45.2051" lon="14.71596">
        <ele>249</ele>
        <time>2016-07-20T00:59:58Z</time>
      </trkpt>
      <trkpt lat="45.20502" lon="14.7161">
        <ele>248</ele>
        <time>2016-07-20T01:01:58Z</time>
      </trkpt>
      <trkpt lat="45.20487" lon="14.71634">
        <ele>248</ele>
        <time>2016-07-20T01:03:58Z</time>
      </trkpt>
      <trkpt lat="45.20474" lon="14.71649">
        <ele>248</ele>
        <time>2016-07-20T01:05:58Z</time>
      </trkpt>
      <trkpt lat="45.20464" lon="14.71655">
        <ele>248</ele>
        <time>2016-07-20T01:07:58Z</time>
      </trkpt>
      <trkpt lat="45.20429" lon="14.71678">
        <ele>248</ele>
        <time>2016-07-20T01:09:58Z</time>
      </trkpt>
      <trkpt lat="45.20429" lon="14.71678">
        <ele>248</ele>
        <time>2016-07-20T01:11:58Z</time>
      </trkpt>
      <trkpt lat="45.20426" lon="14.71692">
        <ele>250</ele>
        <time>2016-07-20T01:13:58Z</time>
      </trkpt>
      <trkpt lat="45.20421" lon="14.71698">
        <ele>250</ele>
        <time>2016-07-20T01:15:58Z</time>
      </trkpt>
      <trkpt lat="45.20416" lon="14.71702">
        <ele>250</ele>
        <time>2016-07-20T01:17:58Z</time>
      </trkpt>
      <trkpt lat="45.20411" lon="14.71706">
        <ele>250</ele>
        <time>2016-07-20T01:19:58Z</time>
      </trkpt>
      <trkpt lat="45.20404" lon="14.71709">
        <ele>249</ele>
        <time>2016-07-20T01:21:58Z</time>
      </trkpt>
      <trkpt lat="45.20361" lon="14.71726">
        <ele>243</ele>
        <time>2016-07-20T01:23:58Z</time>
      </trkpt>
      <trkpt lat="45.20344" lon="14.71736">
        <ele>242</ele>
        <time>2016-07-20T01:25:58Z</time>
      </trkpt>
      <trkpt lat="45.20301" lon="14.71753">
        <ele>238</ele>
        <time>2016-07-20T01:27:58Z</time>
      </trkpt>
      <trkpt lat="45.20291" lon="14.71758">
        <ele>237</ele>
        <time>2016-07-20T01:29:58Z</time>
      </trkpt>
      <trkpt lat="45.20285" lon="14.71765">
        <ele>237</ele>
        <time>2016-07-20T01:31:58Z</time>
      </trkpt>
      <trkpt lat="45.20282" lon="14.71771">
        <ele>238</ele>
        <time>2016-07-20T01:33:58Z</time>
      </trkpt>
      <trkpt lat="45.20276" lon="14.71782">
        <ele>239</ele>
        <time>2016-07-20T01:35:58Z</time>
      </trkpt>
      <trkpt lat="45.20271" lon="14.71799">
        <ele>241</ele>
        <time>2016-07-20T01:37:58Z</time>
      </trkpt>
      <trkpt lat="45.20267" lon="14.71815">
        <ele>242</ele>
        <time>2016-07-20T01:39:58Z</time>
      </trkpt>
      <trkpt lat="45.20261" lon="14.71826">
        <ele>243</ele>
        <time>2016-07-20T01:41:58Z</time>
      </trkpt>
      <trkpt lat="45.20255" lon="14.71834">
        <ele>244</ele>
        <time>2016-07-20T01:43:58Z</time>
      </trkpt>
      <trkpt lat="45.20239" lon="14.71854">
        <ele>243</ele>
        <time>2016-07-20T01:45:58Z</time>
      </trkpt>
      <trkpt lat="45.20164" lon="14.71945">
        <ele>244</ele>
        <time>2016-07-20T01:47:58Z</time>
      </trkpt>
      <trkpt lat="45.20153" lon="14.71952">
        <ele>245</ele>
        <time>2016-07-20T01:49:58Z</time>
      </trkpt>
      <trkpt lat="45.20144" lon="14.71956">
        <ele>246</ele>
        <time>2016-07-20T01:51:58Z</time>
      </trkpt>
      <trkpt lat="45.20132" lon="14.71958">
        <ele>246</ele>
        <time>2016-07-20T01:53:58Z</time>
      </trkpt>
      <trkpt lat="45.20072" lon="14.71962">
        <ele>244</ele>
        <time>2016-07-20T01:55:58Z</time>
      </trkpt>
      <trkpt lat="45.20058" lon="14.71965">
        <ele>244</ele>
        <time>2016-07-20T01:57:58Z</time>
      </trkpt>
      <trkpt lat="45.2005" lon="14.71968">
        <ele>244</ele>
        <time>2016-07-20T01:59:58Z</time>
      </trkpt>
      <trkpt lat="45.20044" lon="14.71973">
        <ele>244</ele>
        <time>2016-07-20T02:01:58Z</time>
      </trkpt>
      <trkpt lat="45.20035" lon="14.71981">
        <ele>245</ele>
        <time>2016-07-20T02:03:58Z</time>
      </trkpt>
      <trkpt lat="45.20013" lon="14.72003">
        <ele>246</ele>
        <time>2016-07-20T02:05:58Z</time>
      </trkpt>
      <trkpt lat="45.20003" lon="14.72012">
        <ele>247</ele>
        <time>2016-07-20T02:07:58Z</time>
      </trkpt>
      <trkpt lat="45.19983" lon="14.72021">
        <ele>247</ele>
        <time>2016-07-20T02:09:58Z</time>
      </trkpt>
      <trkpt lat="45.19892" lon="14.72061">
        <ele>243</ele>
        <time>2016-07-20T02:11:58Z</time>
      </trkpt>
      <trkpt lat="45.19838" lon="14.72087">
        <ele>241</ele>
        <time>2016-07-20T02:13:58Z</time>
      </trkpt>
      <trkpt lat="45.19797" lon="14.72101">
        <ele>242</ele>
        <time>2016-07-20T02:15:58Z</time>
      </trkpt>
      <trkpt lat="45.19775" lon="14.72106">
        <ele>242</ele>
        <time>2016-07-20T02:17:58Z</time>
      </trkpt>
      <trkpt lat="45.19759" lon="14.72107">
        <ele>242</ele>
        <time>2016-07-20T02:19:58Z</time>
      </trkpt>
      <trkpt lat="45.19746" lon="14.72106">
        <ele>242</ele>
        <time>2016-07-20T02:21:58Z</time>
      </trkpt>
      <trkpt lat="45.19736" lon="14.72107">
        <ele>241</ele>
        <time>2016-07-20T02:23:58Z</time>
      </trkpt>
      <trkpt lat="45.19721" lon="14.7211">
        <ele>241</ele>
        <time>2016-07-20T02:25:58Z</time>
      </trkpt>
      <trkpt lat="45.19671" lon="14.72136">
        <ele>244</ele>
        <time>2016-07-20T02:27:58Z</time>
      </trkpt>
      <trkpt lat="45.19644" lon="14.72145">
        <ele>243</ele>
        <time>2016-07-20T02:29:58Z</time>
      </trkpt>
      <trkpt lat="45.19632" lon="14.72153">
        <ele>243</ele>
        <time>2016-07-20T02:31:58Z</time>
      </trkpt>
      <trkpt lat="45.19626" lon="14.72161">
        <ele>244</ele>
        <time>2016-07-20T02:33:58Z</time>
      </trkpt>
      <trkpt lat="45.19616" lon="14.72177">
        <ele>247</ele>
        <time>2016-07-20T02:35:58Z</time>
      </trkpt>
      <trkpt lat="45.19611" lon="14.72192">
        <ele>252</ele>
        <time>2016-07-20T02:37:58Z</time>
      </trkpt>
      <trkpt lat="45.19605" lon="14.72205">
        <ele>255</ele>
        <time>2016-07-20T02:39:58Z</time>
      </trkpt>
      <trkpt lat="45.19601" lon="14.7221">
        <ele>256</ele>
        <time>2016-07-20T02:41:58Z</time>
      </trkpt>
      <trkpt lat="45.19596" lon="14.72213">
        <ele>257</ele>
        <time>2016-07-20T02:43:58Z</time>
      </trkpt>
      <trkpt lat="45.19584" lon="14.72216">
        <ele>257</ele>
        <time>2016-07-20T02:45:58Z</time>
      </trkpt>
      <trkpt lat="45.19539" lon="14.7222">
        <ele>255</ele>
        <time>2016-07-20T02:47:58Z</time>
      </trkpt>
      <trkpt lat="45.19539" lon="14.7222">
        <ele>255</ele>
        <time>2016-07-20T02:49:58Z</time>
      </trkpt>
      <trkpt lat="45.19524" lon="14.72232">
        <ele>258</ele>
        <time>2016-07-20T02:51:58Z</time>
      </trkpt>
      <trkpt lat="45.19503" lon="14.72248">
        <ele>262</ele>
        <time>2016-07-20T02:53:58Z</time>
      </trkpt>
      <trkpt lat="45.19445" lon="14.72281">
        <ele>260</ele>
        <time>2016-07-20T02:55:58Z</time>
      </trkpt>
      <trkpt lat="45.19428" lon="14.7229">
        <ele>259</ele>
        <time>2016-07-20T02:57:58Z</time>
      </trkpt>
      <trkpt lat="45.1942" lon="14.72295">
        <ele>258</ele>
        <time>2016-07-20T02:59:58Z</time>
      </trkpt>
      <trkpt lat="45.19411" lon="14.723">
        <ele>258</ele>
        <time>2016-07-20T03:01:58Z</time>
      </trkpt>
      <trkpt lat="45.19403" lon="14.72307">
        <ele>258</ele>
        <time>2016-07-20T03:03:58Z</time>
      </trkpt>
      <trkpt lat="45.19373" lon="14.72348">
        <ele>262</ele>
        <time>2016-07-20T03:05:58Z</time>
      </trkpt>
      <trkpt lat="45.19366" lon="14.72358">
        <ele>264</ele>
        <time>2016-07-20T03:07:58Z</time>
      </trkpt>
      <trkpt lat="45.19361" lon="14.72365">
        <ele>265</ele>
        <time>2016-07-20T03:09:58Z</time>
      </trkpt>
      <trkpt lat="45.19355" lon="14.7237">
        <ele>265</ele>
        <time>2016-07-20T03:11:58Z</time>
      </trkpt>
      <trkpt lat="45.1935" lon="14.72375">
        <ele>265</ele>
        <time>2016-07-20T03:13:58Z</time>
      </trkpt>
      <trkpt lat="45.19344" lon="14.72378">
        <ele>265</ele>
        <time>2016-07-20T03:15:58Z</time>
      </trkpt>
      <trkpt lat="45.19323" lon="14.72385">
        <ele>264</ele>
        <time>2016-07-20T03:17:58Z</time>
      </trkpt>
      <trkpt lat="45.19296" lon="14.72395">
        <ele>265</ele>
        <time>2016-07-20T03:19:58Z</time>
      </trkpt>
      <trkpt lat="45.19282" lon="14.72402">
        <ele>266</ele>
        <time>2016-07-20T03:21:58Z</time>
      </trkpt>
      <trkpt lat="45.19266" lon="14.72414">
        <ele>267</ele>
        <time>2016-07-20T03:23:58Z</time>
      </trkpt>
      <trkpt lat="45.19244" lon="14.72436">
        <ele>268</ele>
        <time>2016-07-20T03:25:58Z</time>
      </trkpt>
      <trkpt lat="45.19236" lon="14.72443">
        <ele>268</ele>
        <time>2016-07-20T03:27:58Z</time>
      </trkpt>
      <trkpt lat="45.19222" lon="14.72456">
        <ele>268</ele>
        <time>2016-07-20T03:29:58Z</time>
      </trkpt>
      <trkpt lat="45.19216" lon="14.72461">
        <ele>268</ele>
        <time>2016-07-20T03:31:58Z</time>
      </trkpt>
      <trkpt lat="45.19199" lon="14.72481">
        <ele>268</ele>
        <time>2016-07-20T03:33:58Z</time>
      </trkpt>
      <trkpt lat="45.1919" lon="14.72493">
        <ele>268</ele>
        <time>2016-07-20T03:35:58Z</time>
      </trkpt>
      <trkpt lat="45.19186" lon="14.72502">
        <ele>269</ele>
        <time>2016-07-20T03:37:58Z</time>
      </trkpt>
      <trkpt lat="45.19154" lon="14.72577">
        <ele>272</ele>
        <time>2016-07-20T03:39:58Z</time>
      </trkpt>
      <trkpt lat="45.1915" lon="14.72586">
        <ele>273</ele>
        <time>2016-07-20T03:41:58Z</time>
      </trkpt>
      <trkpt lat="45.19147" lon="14.72592">
        <ele>273</ele>
        <time>2016-07-20T03:43:58Z</time>
      </trkpt>
      <trkpt lat="45.19141" lon="14.72602">
        <ele>273</ele>
        <time>2016-07-20T03:45:58Z</time>
      </trkpt>
      <trkpt lat="45.19069" lon="14.72689">
        <ele>272</ele>
        <time>2016-07-20T03:47:58Z</time>
      </trkpt>
      <trkpt lat="45.19066" lon="14.72691">
        <ele>272</ele>
        <time>2016-07-20T03:49:58Z</time>
      </trkpt>
      <trkpt lat="45.19039" lon="14.7271">
        <ele>270</ele>
        <time>2016-07-20T03:51:58Z</time>
      </trkpt>
      <trkpt lat="45.19012" lon="14.72728">
        <ele>267</ele>
        <time>2016-07-20T03:53:58Z</time>
      </trkpt>
      <trkpt lat="45.19001" lon="14.72734">
        <ele>266</ele>
        <time>2016-07-20T03:55:58Z</time>
      </trkpt>
      <trkpt lat="45.19001" lon="14.72734">
        <ele>266</ele>
        <time>2016-07-20T03:57:58Z</time>
      </trkpt>
      <trkpt lat="45.18998" lon="14.7274">
        <ele>266</ele>
        <time>2016-07-20T03:59:58Z</time>
      </trkpt>
      <trkpt lat="45.18993" lon="14.72748">
        <ele>267</ele>
        <time>2016-07-20T04:01:58Z</time>
      </trkpt>
      <trkpt lat="45.18988" lon="14.72755">
        <ele>267</ele>
        <time>2016-07-20T04:03:58Z</time>
      </trkpt>
      <trkpt lat="45.18982" lon="14.72762">
        <ele>267</ele>
        <time>2016-07-20T04:05:58Z</time>
      </trkpt>
      <trkpt lat="45.18977" lon="14.72769">
        <ele>267</ele>
        <time>2016-07-20T04:07:58Z</time>
      </trkpt>
      <trkpt lat="45.18971" lon="14.72775">
        <ele>267</ele>
        <time>2016-07-20T04:09:58Z</time>
      </trkpt>
      <trkpt lat="45.18966" lon="14.72781">
        <ele>267</ele>
        <time>2016-07-20T04:11:58Z</time>
      </trkpt>
      <trkpt lat="45.1896" lon="14.72786">
        <ele>267</ele>
        <time>2016-07-20T04:13:58Z</time>
      </trkpt>
      <trkpt lat="45.18955" lon="14.72791">
        <ele>267</ele>
        <time>2016-07-20T04:15:58Z</time>
      </trkpt>
      <trkpt lat="45.1895" lon="14.72796">
        <ele>267</ele>
        <time>2016-07-20T04:17:58Z</time>
      </trkpt>
      <trkpt lat="45.18944" lon="14.728">
        <ele>266</ele>
        <time>2016-07-20T04:19:58Z</time>
      </trkpt>
      <trkpt lat="45.18938" lon="14.72804">
        <ele>266</ele>
        <time>2016-07-20T04:21:58Z</time>
      </trkpt>
      <trkpt lat="45.18925" lon="14.72811">
        <ele>265</ele>
        <time>2016-07-20T04:23:58Z</time>
      </trkpt>
      <trkpt lat="45.18835" lon="14.7287">
        <ele>264</ele>
        <time>2016-07-20T04:25:58Z</time>
      </trkpt>
      <trkpt lat="45.18789" lon="14.72906">
        <ele>265</ele>
        <time>2016-07-20T04:27:58Z</time>
      </trkpt>
      <trkpt lat="45.18784" lon="14.7291">
        <ele>265</ele>
        <time>2016-07-20T04:29:58Z</time>
      </trkpt>
      <trkpt lat="45.18775" lon="14.72916">
        <ele>265</ele>
        <time>2016-07-20T04:31:58Z</time>
      </trkpt>
      <trkpt lat="45.18766" lon="14.72923">
        <ele>266</ele>
        <time>2016-07-20T04:33:58Z</time>
      </trkpt>
      <trkpt lat="45.18757" lon="14.72931">
        <ele>266</ele>
        <time>2016-07-20T04:35:58Z</time>
      </trkpt>
      <trkpt lat="45.18748" lon="14.72938">
        <ele>266</ele>
        <time>2016-07-20T04:37:58Z</time>
      </trkpt>
      <trkpt lat="45.18739" lon="14.72946">
        <ele>266</ele>
        <time>2016-07-20T04:39:58Z</time>
      </trkpt>
      <trkpt lat="45.18731" lon="14.72955">
        <ele>267</ele>
        <time>2016-07-20T04:41:58Z</time>
      </trkpt>
      <trkpt lat="45.18723" lon="14.72963">
        <ele>267</ele>
        <time>2016-07-20T04:43:58Z</time>
      </trkpt>
      <trkpt lat="45.18715" lon="14.72972">
        <ele>267</ele>
        <time>2016-07-20T04:45:58Z</time>
      </trkpt>
      <trkpt lat="45.18707" lon="14.72981">
        <ele>268</ele>
        <time>2016-07-20T04:47:58Z</time>
      </trkpt>
      <trkpt lat="45.18699" lon="14.7299">
        <ele>268</ele>
        <time>2016-07-20T04:49:58Z</time>
      </trkpt>
      <trkpt lat="45.18692" lon="14.73">
        <ele>269</ele>
        <time>2016-07-20T04:51:58Z</time>
      </trkpt>
      <trkpt lat="45.18689" lon="14.73003">
        <ele>269</ele>
        <time>2016-07-20T04:53:58Z</time>
      </trkpt>
      <trkpt lat="45.18686" lon="14.73006">
        <ele>270</ele>
        <time>2016-07-20T04:55:58Z</time>
      </trkpt>
      <trkpt lat="45.18683" lon="14.73008">
        <ele>270</ele>
        <time>2016-07-20T04:57:58Z</time>
      </trkpt>
      <trkpt lat="45.1868" lon="14.7301">
        <ele>270</ele>
        <time>2016-07-20T04:59:58Z</time>
      </trkpt>
      <trkpt lat="45.18677" lon="14.73012">
        <ele>270</ele>
        <time>2016-07-20T05:01:58Z</time>
      </trkpt>
      <trkpt lat="45.18673" lon="14.73013">
        <ele>270</ele>
        <time>2016-07-20T05:03:58Z</time>
      </trkpt>
      <trkpt lat="45.1867" lon="14.73014">
        <ele>269</ele>
        <time>2016-07-20T05:05:58Z</time>
      </trkpt>
      <trkpt lat="45.18667" lon="14.73014">
        <ele>269</ele>
        <time>2016-07-20T05:07:58Z</time>
      </trkpt>
      <trkpt lat="45.18663" lon="14.73014">
        <ele>269</ele>
        <time>2016-07-20T05:09:58Z</time>
      </trkpt>
      <trkpt lat="45.1866" lon="14.73013">
        <ele>269</ele>
        <time>2016-07-20T05:11:58Z</time>
      </trkpt>
      <trkpt lat="45.18656" lon="14.73013">
        <ele>269</ele>
        <time>2016-07-20T05:13:58Z</time>
      </trkpt>
      <trkpt lat="45.18653" lon="14.73011">
        <ele>269</ele>
        <time>2016-07-20T05:15:58Z</time>
      </trkpt>
      <trkpt lat="45.1865" lon="14.73009">
        <ele>268</ele>
        <time>2016-07-20T05:17:58Z</time>
      </trkpt>
      <trkpt lat="45.18646" lon="14.73007">
        <ele>268</ele>
        <time>2016-07-20T05:19:58Z</time>
      </trkpt>
      <trkpt lat="45.18644" lon="14.73005">
        <ele>268</ele>
        <time>2016-07-20T05:21:58Z</time>
      </trkpt>
      <trkpt lat="45.18641" lon="14.73002">
        <ele>268</ele>
        <time>2016-07-20T05:23:58Z</time>
      </trkpt>
      <trkpt lat="45.18612" lon="14.7296">
        <ele>262</ele>
        <time>2016-07-20T05:25:58Z</time>
      </trkpt>
      <trkpt lat="45.1861" lon="14.72956">
        <ele>262</ele>
        <time>2016-07-20T05:27:58Z</time>
      </trkpt>
      <trkpt lat="45.18607" lon="14.72953">
        <ele>261</ele>
        <time>2016-07-20T05:29:58Z</time>
      </trkpt>
      <trkpt lat="45.18605" lon="14.7295">
        <ele>261</ele>
        <time>2016-07-20T05:31:58Z</time>
      </trkpt>
      <trkpt lat="45.18602" lon="14.72947">
        <ele>261</ele>
        <time>2016-07-20T05:33:58Z</time>
      </trkpt>
      <trkpt lat="45.18599" lon="14.72945">
        <ele>260</ele>
        <time>2016-07-20T05:35:58Z</time>
      </trkpt>
      <trkpt lat="45.18598" lon="14.72943">
        <ele>260</ele>
        <time>2016-07-20T05:37:58Z</time>
      </trkpt>
      <trkpt lat="45.18596" lon="14.72942">
        <ele>260</ele>
        <time>2016-07-20T05:39:58Z</time>
      </trkpt>
      <trkpt lat="45.18594" lon="14.72941">
        <ele>260</ele>
        <time>2016-07-20T05:41:58Z</time>
      </trkpt>
      <trkpt lat="45.18593" lon="14.7294">
        <ele>260</ele>
        <time>2016-07-20T05:43:58Z</time>
      </trkpt>
      <trkpt lat="45.18591" lon="14.7294">
        <ele>260</ele>
        <time>2016-07-20T05:45:58Z</time>
      </trkpt>
      <trkpt lat="45.18589" lon="14.72939">
        <ele>260</ele>
        <time>2016-07-20T05:47:58Z</time>
      </trkpt>
      <trkpt lat="45.18587" lon="14.72939">
        <ele>260</ele>
        <time>2016-07-20T05:49:58Z</time>
      </trkpt>
      <trkpt lat="45.18585" lon="14.72939">
        <ele>260</ele>
        <time>2016-07-20T05:51:58Z</time>
      </trkpt>
      <trkpt lat="45.18583" lon="14.72939">
        <ele>260</ele>
        <time>2016-07-20T05:53:58Z</time>
      </trkpt>
      <trkpt lat="45.18581" lon="14.7294">
        <ele>260</ele>
        <time>2016-07-20T05:55:58Z</time>
      </trkpt>
      <trkpt lat="45.18579" lon="14.7294">
        <ele>260</ele>
        <time>2016-07-20T05:57:58Z</time>
      </trkpt>
      <trkpt lat="45.18577" lon="14.72941">
        <ele>260</ele>
        <time>2016-07-20T05:59:58Z</time>
      </trkpt>
      <trkpt lat="45.18575" lon="14.72942">
        <ele>260</ele>
        <time>2016-07-20T06:01:58Z</time>
      </trkpt>
      <trkpt lat="45.18574" lon="14.72943">
        <ele>260</ele>
        <time>2016-07-20T06:03:58Z</time>
      </trkpt>
      <trkpt lat="45.1857" lon="14.72947">
        <ele>260</ele>
        <time>2016-07-20T06:05:58Z</time>
      </trkpt>
      <trkpt lat="45.18566" lon="14.72951">
        <ele>260</ele>
        <time>2016-07-20T06:07:58Z</time>
      </trkpt>
      <trkpt lat="45.18562" lon="14.72956">
        <ele>260</ele>
        <time>2016-07-20T06:09:58Z</time>
      </trkpt>
      <trkpt lat="45.18559" lon="14.72961">
        <ele>260</ele>
        <time>2016-07-20T06:11:58Z</time>
      </trkpt>
      <trkpt lat="45.18555" lon="14.72967">
        <ele>260</ele>
        <time>2016-07-20T06:13:58Z</time>
      </trkpt>
      <trkpt lat="45.18551" lon="14.72972">
        <ele>260</ele>
        <time>2016-07-20T06:15:58Z</time>
      </trkpt>
      <trkpt lat="45.18548" lon="14.72978">
        <ele>260</ele>
        <time>2016-07-20T06:17:58Z</time>
      </trkpt>
      <trkpt lat="45.18545" lon="14.72985">
        <ele>261</ele>
        <time>2016-07-20T06:19:58Z</time>
      </trkpt>
      <trkpt lat="45.18542" lon="14.72991">
        <ele>261</ele>
        <time>2016-07-20T06:21:58Z</time>
      </trkpt>
      <trkpt lat="45.1854" lon="14.72998">
        <ele>261</ele>
        <time>2016-07-20T06:23:58Z</time>
      </trkpt>
      <trkpt lat="45.18521" lon="14.73049">
        <ele>264</ele>
        <time>2016-07-20T06:25:58Z</time>
      </trkpt>
      <trkpt lat="45.18519" lon="14.73058">
        <ele>265</ele>
        <time>2016-07-20T06:27:58Z</time>
      </trkpt>
      <trkpt lat="45.18517" lon="14.73066">
        <ele>265</ele>
        <time>2016-07-20T06:29:58Z</time>
      </trkpt>
      <trkpt lat="45.18514" lon="14.73074">
        <ele>266</ele>
        <time>2016-07-20T06:31:58Z</time>
      </trkpt>
      <trkpt lat="45.18511" lon="14.73082">
        <ele>266</ele>
        <time>2016-07-20T06:33:58Z</time>
      </trkpt>
      <trkpt lat="45.18508" lon="14.7309">
        <ele>266</ele>
        <time>2016-07-20T06:35:58Z</time>
      </trkpt>
      <trkpt lat="45.18505" lon="14.73098">
        <ele>267</ele>
        <time>2016-07-20T06:37:58Z</time>
      </trkpt>
      <trkpt lat="45.18501" lon="14.73105">
        <ele>266</ele>
        <time>2016-07-20T06:39:58Z</time>
      </trkpt>
      <trkpt lat="45.18497" lon="14.73113">
        <ele>266</ele>
        <time>2016-07-20T06:41:58Z</time>
      </trkpt>
      <trkpt lat="45.18493" lon="14.7312">
        <ele>266</ele>
        <time>2016-07-20T06:43:58Z</time>
      </trkpt>
      <trkpt lat="45.18489" lon="14.73127">
        <ele>266</ele>
        <time>2016-07-20T06:45:58Z</time>
      </trkpt>
      <trkpt lat="45.18481" lon="14.73136">
        <ele>266</ele>
        <time>2016-07-20T06:47:58Z</time>
      </trkpt>
      <trkpt lat="45.18478" lon="14.73139">
        <ele>266</ele>
        <time>2016-07-20T06:49:58Z</time>
      </trkpt>
      <trkpt lat="45.18476" lon="14.73142">
        <ele>265</ele>
        <time>2016-07-20T06:51:58Z</time>
      </trkpt>
      <trkpt lat="45.18473" lon="14.73145">
        <ele>265</ele>
        <time>2016-07-20T06:53:58Z</time>
      </trkpt>
      <trkpt lat="45.1847" lon="14.73149">
        <ele>265</ele>
        <time>2016-07-20T06:55:58Z</time>
      </trkpt>
      <trkpt lat="45.18468" lon="14.73153">
        <ele>265</ele>
        <time>2016-07-20T06:57:58Z</time>
      </trkpt>
      <trkpt lat="45.18465" lon="14.73157">
        <ele>265</ele>
        <time>2016-07-20T06:59:58Z</time>
      </trkpt>
      <trkpt lat="45.18463" lon="14.73162">
        <ele>265</ele>
        <time>2016-07-20T07:01:58Z</time>
      </trkpt>
      <trkpt lat="45.18461" lon="14.73167">
        <ele>265</ele>
        <time>2016-07-20T07:03:58Z</time>
      </trkpt>
      <trkpt lat="45.1846" lon="14.73172">
        <ele>265</ele>
        <time>2016-07-20T07:05:58Z</time>
      </trkpt>
      <trkpt lat="45.18459" lon="14.73177">
        <ele>265</ele>
        <time>2016-07-20T07:07:58Z</time>
      </trkpt>
      <trkpt lat="45.18458" lon="14.73182">
        <ele>265</ele>
        <time>2016-07-20T07:09:58Z</time>
      </trkpt>
      <trkpt lat="45.18457" lon="14.73187">
        <ele>265</ele>
        <time>2016-07-20T07:11:58Z</time>
      </trkpt>
      <trkpt lat="45.18457" lon="14.73199">
        <ele>266</ele>
        <time>2016-07-20T07:13:58Z</time>
      </trkpt>
      <trkpt lat="45.18459" lon="14.73221">
        <ele>267</ele>
        <time>2016-07-20T07:15:58Z</time>
      </trkpt>
      <trkpt lat="45.18459" lon="14.73236">
        <ele>267</ele>
        <time>2016-07-20T07:17:58Z</time>
      </trkpt>
      <trkpt lat="45.18458" lon="14.73242">
        <ele>267</ele>
        <time>2016-07-20T07:19:58Z</time>
      </trkpt>
      <trkpt lat="45.18456" lon="14.73248">
        <ele>267</ele>
        <time>2016-07-20T07:21:58Z</time>
      </trkpt>
      <trkpt lat="45.18453" lon="14.73254">
        <ele>267</ele>
        <time>2016-07-20T07:23:58Z</time>
      </trkpt>
      <trkpt lat="45.18425" lon="14.73286">
        <ele>266</ele>
        <time>2016-07-20T07:25:58Z</time>
      </trkpt>
      <trkpt lat="45.18395" lon="14.73322">
        <ele>265</ele>
        <time>2016-07-20T07:27:58Z</time>
      </trkpt>
      <trkpt lat="45.18382" lon="14.7334">
        <ele>264</ele>
        <time>2016-07-20T07:29:58Z</time>
      </trkpt>
      <trkpt lat="45.18338" lon="14.734">
        <ele>264</ele>
        <time>2016-07-20T07:31:58Z</time>
      </trkpt>
      <trkpt lat="45.18313" lon="14.73435">
        <ele>264</ele>
        <time>2016-07-20T07:33:58Z</time>
      </trkpt>
      <trkpt lat="45.183" lon="14.73451">
        <ele>264</ele>
        <time>2016-07-20T07:35:58Z</time>
      </trkpt>
      <trkpt lat="45.18293" lon="14.73456">
        <ele>264</ele>
        <time>2016-07-20T07:37:58Z</time>
      </trkpt>
      <trkpt lat="45.18288" lon="14.7346">
        <ele>264</ele>
        <time>2016-07-20T07:39:58Z</time>
      </trkpt>
      <trkpt lat="45.18275" lon="14.73473">
        <ele>263</ele>
        <time>2016-07-20T07:41:58Z</time>
      </trkpt>
      <trkpt lat="45.18252" lon="14.73486">
        <ele>262</ele>
        <time>2016-07-20T07:43:58Z</time>
      </trkpt>
      <trkpt lat="45.18226" lon="14.73499">
        <ele>259</ele>
        <time>2016-07-20T07:45:58Z</time>
      </trkpt>
      <trkpt lat="45.18198" lon="14.73514">
        <ele>256</ele>
        <time>2016-07-20T07:47:58Z</time>
      </trkpt>
      <trkpt lat="45.18164" lon="14.73536">
        <ele>252</ele>
        <time>2016-07-20T07:49:58Z</time>
      </trkpt>
      <trkpt lat="45.18127" lon="14.73568">
        <ele>249</ele>
        <time>2016-07-20T07:51:58Z</time>
      </trkpt>
      <trkpt lat="45.18117" lon="14.73576">
        <ele>248</ele>
        <time>2016-07-20T07:53:58Z</time>
      </trkpt>
      <trkpt lat="45.18108" lon="14.73584">
        <ele>248</ele>
        <time>2016-07-20T07:55:58Z</time>
      </trkpt>
      <trkpt lat="45.18102" lon="14.7359">
        <ele>247</ele>
        <time>2016-07-20T07:57:58Z</time>
      </trkpt>
      <trkpt lat="45.18098" lon="14.73597">
        <ele>247</ele>
        <time>2016-07-20T07:59:58Z</time>
      </trkpt>
      <trkpt lat="45.18095" lon="14.73603">
        <ele>247</ele>
        <time>2016-07-20T08:01:58Z</time>
      </trkpt>
      <trkpt lat="45.18093" lon="14.73608">
        <ele>247</ele>
        <time>2016-07-20T08:03:58Z</time>
      </trkpt>
      <trkpt lat="45.18084" lon="14.73638">
        <ele>247</ele>
        <time>2016-07-20T08:05:58Z</time>
      </trkpt>
      <trkpt lat="45.18082" lon="14.73649">
        <ele>247</ele>
        <time>2016-07-20T08:07:58Z</time>
      </trkpt>
      <trkpt lat="45.18079" lon="14.73655">
        <ele>247</ele>
        <time>2016-07-20T08:09:58Z</time>
      </trkpt>
      <trkpt lat="45.18074" lon="14.73669">
        <ele>247</ele>
        <time>2016-07-20T08:11:58Z</time>
      </trkpt>
      <trkpt lat="45.18065" lon="14.73686">
        <ele>247</ele>
        <time>2016-07-20T08:13:58Z</time>
      </trkpt>
      <trkpt lat="45.1804" lon="14.73717">
        <ele>248</ele>
        <time>2016-07-20T08:15:58Z</time>
      </trkpt>
      <trkpt lat="45.18026" lon="14.73728">
        <ele>247</ele>
        <time>2016-07-20T08:17:58Z</time>
      </trkpt>
      <trkpt lat="45.18018" lon="14.73737">
        <ele>247</ele>
        <time>2016-07-20T08:19:58Z</time>
      </trkpt>
      <trkpt lat="45.18008" lon="14.73753">
        <ele>248</ele>
        <time>2016-07-20T08:21:58Z</time>
      </trkpt>
      <trkpt lat="45.17985" lon="14.7379">
        <ele>247</ele>
        <time>2016-07-20T08:23:58Z</time>
      </trkpt>
      <trkpt lat="45.17968" lon="14.73815">
        <ele>246</ele>
        <time>2016-07-20T08:25:58Z</time>
      </trkpt>
      <trkpt lat="45.17934" lon="14.73857">
        <ele>246</ele>
        <time>2016-07-20T08:27:58Z</time>
      </trkpt>
      <trkpt lat="45.17934" lon="14.73858">
        <ele>246</ele>
        <time>2016-07-20T08:29:58Z</time>
      </trkpt>
      <trkpt lat="45.17879" lon="14.73925">
        <ele>246</ele>
        <time>2016-07-20T08:31:58Z</time>
      </trkpt>
      <trkpt lat="45.17871" lon="14.73931">
        <ele>245</ele>
        <time>2016-07-20T08:33:58Z</time>
      </trkpt>
      <trkpt lat="45.17864" lon="14.73939">
        <ele>245</ele>
        <time>2016-07-20T08:35:58Z</time>
      </trkpt>
      <trkpt lat="45.17858" lon="14.7395">
        <ele>246</ele>
        <time>2016-07-20T08:37:58Z</time>
      </trkpt>
      <trkpt lat="45.17848" lon="14.73968">
        <ele>246</ele>
        <time>2016-07-20T08:39:58Z</time>
      </trkpt>
      <trkpt lat="45.17843" lon="14.73976">
        <ele>247</ele>
        <time>2016-07-20T08:41:58Z</time>
      </trkpt>
      <trkpt lat="45.17837" lon="14.73983">
        <ele>247</ele>
        <time>2016-07-20T08:43:58Z</time>
      </trkpt>
      <trkpt lat="45.17828" lon="14.73991">
        <ele>247</ele>
        <time>2016-07-20T08:45:58Z</time>
      </trkpt>
      <trkpt lat="45.1782" lon="14.73998">
        <ele>247</ele>
        <time>2016-07-20T08:47:58Z</time>
      </trkpt>
      <trkpt lat="45.17814" lon="14.74003">
        <ele>246</ele>
        <time>2016-07-20T08:49:58Z</time>
      </trkpt>
      <trkpt lat="45.17812" lon="14.74004">
        <ele>246</ele>
        <time>2016-07-20T08:51:58Z</time>
      </trkpt>
      <trkpt lat="45.17806" lon="14.7401">
        <ele>246</ele>
        <time>2016-07-20T08:53:58Z</time>
      </trkpt>
      <trkpt lat="45.17798" lon="14.7402">
        <ele>246</ele>
        <time>2016-07-20T08:55:58Z</time>
      </trkpt>
      <trkpt lat="45.17786" lon="14.74038">
        <ele>247</ele>
        <time>2016-07-20T08:57:58Z</time>
      </trkpt>
      <trkpt lat="45.17778" lon="14.74049">
        <ele>246</ele>
        <time>2016-07-20T08:59:58Z</time>
      </trkpt>
      <trkpt lat="45.17772" lon="14.74056">
        <ele>246</ele>
        <time>2016-07-20T09:01:58Z</time>
      </trkpt>
      <trkpt lat="45.17765" lon="14.74064">
        <ele>246</ele>
        <time>2016-07-20T09:03:58Z</time>
      </trkpt>
      <trkpt lat="45.17756" lon="14.7407">
        <ele>245</ele>
        <time>2016-07-20T09:05:58Z</time>
      </trkpt>
      <trkpt lat="45.17744" lon="14.74076">
        <ele>244</ele>
        <time>2016-07-20T09:07:58Z</time>
      </trkpt>
      <trkpt lat="45.17723" lon="14.74086">
        <ele>243</ele>
        <time>2016-07-20T09:09:58Z</time>
      </trkpt>
      <trkpt lat="45.17711" lon="14.7409">
        <ele>243</ele>
        <time>2016-07-20T09:11:58Z</time>
      </trkpt>
      <trkpt lat="45.1769" lon="14.74096">
        <ele>242</ele>
        <time>2016-07-20T09:13:58Z</time>
      </trkpt>
      <trkpt lat="45.17679" lon="14.741">
        <ele>241</ele>
        <time>2016-07-20T09:15:58Z</time>
      </trkpt>
      <trkpt lat="45.1767" lon="14.74105">
        <ele>241</ele>
        <time>2016-07-20T09:17:58Z</time>
      </trkpt>
      <trkpt lat="45.17652" lon="14.74119">
        <ele>242</ele>
        <time>2016-07-20T09:19:58Z</time>
      </trkpt>
      <trkpt lat="45.17631" lon="14.74135">
        <ele>242</ele>
        <time>2016-07-20T09:21:58Z</time>
      </trkpt>
      <trkpt lat="45.17581" lon="14.74165">
        <ele>243</ele>
        <time>2016-07-20T09:23:58Z</time>
      </trkpt>
      <trkpt lat="45.17566" lon="14.74178">
        <ele>243</ele>
        <time>2016-07-20T09:25:58Z</time>
      </trkpt>
      <trkpt lat="45.17552" lon="14.74194">
        <ele>242</ele>
        <time>2016-07-20T09:27:58Z</time>
      </trkpt>
      <trkpt lat="45.17539" lon="14.74214">
        <ele>242</ele>
        <time>2016-07-20T09:29:58Z</time>
      </trkpt>
      <trkpt lat="45.17503" lon="14.74266">
        <ele>242</ele>
        <time>2016-07-20T09:31:58Z</time>
      </trkpt>
      <trkpt lat="45.17483" lon="14.74291">
        <ele>240</ele>
        <time>2016-07-20T09:33:58Z</time>
      </trkpt>
      <trkpt lat="45.17473" lon="14.74306">
        <ele>239</ele>
        <time>2016-07-20T09:35:58Z</time>
      </trkpt>
      <trkpt lat="45.17465" lon="14.74317">
        <ele>238</ele>
        <time>2016-07-20T09:37:58Z</time>
      </trkpt>
      <trkpt lat="45.1746" lon="14.74329">
        <ele>238</ele>
        <time>2016-07-20T09:39:58Z</time>
      </trkpt>
      <trkpt lat="45.17456" lon="14.74341">
        <ele>238</ele>
        <time>2016-07-20T09:41:58Z</time>
      </trkpt>
      <trkpt lat="45.17454" lon="14.74354">
        <ele>237</ele>
        <time>2016-07-20T09:43:58Z</time>
      </trkpt>
      <trkpt lat="45.17452" lon="14.74369">
        <ele>237</ele>
        <time>2016-07-20T09:45:58Z</time>
      </trkpt>
      <trkpt lat="45.17451" lon="14.74379">
        <ele>237</ele>
        <time>2016-07-20T09:47:58Z</time>
      </trkpt>
      <trkpt lat="45.17447" lon="14.7439">
        <ele>237</ele>
        <time>2016-07-20T09:49:58Z</time>
      </trkpt>
      <trkpt lat="45.17445" lon="14.74398">
        <ele>236</ele>
        <time>2016-07-20T09:51:58Z</time>
      </trkpt>
      <trkpt lat="45.17441" lon="14.74405">
        <ele>236</ele>
        <time>2016-07-20T09:53:58Z</time>
      </trkpt>
      <trkpt lat="45.17432" lon="14.74416">
        <ele>234</ele>
        <time>2016-07-20T09:55:58Z</time>
      </trkpt>
      <trkpt lat="45.17417" lon="14.74432">
        <ele>231</ele>
        <time>2016-07-20T09:57:58Z</time>
      </trkpt>
      <trkpt lat="45.17409" lon="14.74437">
        <ele>231</ele>
        <time>2016-07-20T09:59:58Z</time>
      </trkpt>
      <trkpt lat="45.17404" lon="14.7444">
        <ele>230</ele>
        <time>2016-07-20T10:01:58Z</time>
      </trkpt>
      <trkpt lat="45.17399" lon="14.74443">
        <ele>230</ele>
        <time>2016-07-20T10:03:58Z</time>
      </trkpt>
      <trkpt lat="45.17393" lon="14.74445">
        <ele>229</ele>
        <time>2016-07-20T10:05:58Z</time>
      </trkpt>
      <trkpt lat="45.17388" lon="14.74446">
        <ele>228</ele>
        <time>2016-07-20T10:07:58Z</time>
      </trkpt>
      <trkpt lat="45.17377" lon="14.74447">
        <ele>227</ele>
        <time>2016-07-20T10:09:58Z</time>
      </trkpt>
      <trkpt lat="45.17359" lon="14.74449">
        <ele>225</ele>
        <time>2016-07-20T10:11:58Z</time>
      </trkpt>
      <trkpt lat="45.17352" lon="14.74451">
        <ele>224</ele>
        <time>2016-07-20T10:13:58Z</time>
      </trkpt>
      <trkpt lat="45.17346" lon="14.74458">
        <ele>224</ele>
        <time>2016-07-20T10:15:58Z</time>
      </trkpt>
      <trkpt lat="45.17341" lon="14.74467">
        <ele>224</ele>
        <time>2016-07-20T10:17:58Z</time>
      </trkpt>
      <trkpt lat="45.17336" lon="14.74479">
        <ele>224</ele>
        <time>2016-07-20T10:19:58Z</time>
      </trkpt>
      <trkpt lat="45.17332" lon="14.74487">
        <ele>223</ele>
        <time>2016-07-20T10:21:58Z</time>
      </trkpt>
      <trkpt lat="45.1733" lon="14.74495">
        <ele>223</ele>
        <time>2016-07-20T10:23:58Z</time>
      </trkpt>
      <trkpt lat="45.17329" lon="14.74502">
        <ele>223</ele>
        <time>2016-07-20T10:25:58Z</time>
      </trkpt>
      <trkpt lat="45.17327" lon="14.74507">
        <ele>223</ele>
        <time>2016-07-20T10:27:58Z</time>
      </trkpt>
      <trkpt lat="45.17325" lon="14.74517">
        <ele>222</ele>
        <time>2016-07-20T10:29:58Z</time>
      </trkpt>
      <trkpt lat="45.17324" lon="14.74525">
        <ele>222</ele>
        <time>2016-07-20T10:31:58Z</time>
      </trkpt>
      <trkpt lat="45.17324" lon="14.74532">
        <ele>221</ele>
        <time>2016-07-20T10:33:58Z</time>
      </trkpt>
      <trkpt lat="45.17325" lon="14.74551">
        <ele>221</ele>
        <time>2016-07-20T10:35:58Z</time>
      </trkpt>
      <trkpt lat="45.17328" lon="14.74566">
        <ele>221</ele>
        <time>2016-07-20T10:37:58Z</time>
      </trkpt>
      <trkpt lat="45.17337" lon="14.74609">
        <ele>222</ele>
        <time>2016-07-20T10:39:58Z</time>
      </trkpt>
      <trkpt lat="45.17341" lon="14.74621">
        <ele>222</ele>
        <time>2016-07-20T10:41:58Z</time>
      </trkpt>
      <trkpt lat="45.17344" lon="14.74635">
        <ele>222</ele>
        <time>2016-07-20T10:43:58Z</time>
      </trkpt>
      <trkpt lat="45.17345" lon="14.74641">
        <ele>222</ele>
        <time>2016-07-20T10:45:58Z</time>
      </trkpt>
      <trkpt lat="45.17345" lon="14.74648">
        <ele>222</ele>
        <time>2016-07-20T10:47:58Z</time>
      </trkpt>
      <trkpt lat="45.17343" lon="14.74656">
        <ele>222</ele>
        <time>2016-07-20T10:49:58Z</time>
      </trkpt>
      <trkpt lat="45.17342" lon="14.74664">
        <ele>221</ele>
        <time>2016-07-20T10:51:58Z</time>
      </trkpt>
      <trkpt lat="45.1734" lon="14.7467">
        <ele>221</ele>
        <time>2016-07-20T10:53:58Z</time>
      </trkpt>
      <trkpt lat="45.17338" lon="14.74676">
        <ele>221</ele>
        <time>2016-07-20T10:55:58Z</time>
      </trkpt>
      <trkpt lat="45.17337" lon="14.74679">
        <ele>221</ele>
        <time>2016-07-20T10:57:58Z</time>
      </trkpt>
      <trkpt lat="45.17334" lon="14.74683">
        <ele>221</ele>
        <time>2016-07-20T10:59:58Z</time>
      </trkpt>
      <trkpt lat="45.1733" lon="14.74687">
        <ele>221</ele>
        <time>2016-07-20T11:01:58Z</time>
      </trkpt>
      <trkpt lat="45.17323" lon="14.74694">
        <ele>220</ele>
        <time>2016-07-20T11:03:58Z</time>
      </trkpt>
      <trkpt lat="45.17318" lon="14.74698">
        <ele>220</ele>
        <time>2016-07-20T11:05:58Z</time>
      </trkpt>
      <trkpt lat="45.17312" lon="14.747">
        <ele>220</ele>
        <time>2016-07-20T11:07:58Z</time>
      </trkpt>
      <trkpt lat="45.17307" lon="14.74703">
        <ele>219</ele>
        <time>2016-07-20T11:09:58Z</time>
      </trkpt>
      <trkpt lat="45.17303" lon="14.74704">
        <ele>219</ele>
        <time>2016-07-20T11:11:58Z</time>
      </trkpt>
      <trkpt lat="45.17275" lon="14.74709">
        <ele>216</ele>
        <time>2016-07-20T11:13:58Z</time>
      </trkpt>
      <trkpt lat="45.17213" lon="14.74719">
        <ele>210</ele>
        <time>2016-07-20T11:15:58Z</time>
      </trkpt>
      <trkpt lat="45.17205" lon="14.7472">
        <ele>209</ele>
        <time>2016-07-20T11:17:58Z</time>
      </trkpt>
      <trkpt lat="45.17174" lon="14.74724">
        <ele>205</ele>
        <time>2016-07-20T11:19:58Z</time>
      </trkpt>
      <trkpt lat="45.17135" lon="14.74721">
        <ele>200</ele>
        <time>2016-07-20T11:21:58Z</time>
      </trkpt>
      <trkpt lat="45.17129" lon="14.74721">
        <ele>199</ele>
        <time>2016-07-20T11:23:58Z</time>
      </trkpt>
      <trkpt lat="45.17123" lon="14.74721">
        <ele>198</ele>
        <time>2016-07-20T11:25:58Z</time>
      </trkpt>
      <trkpt lat="45.1712" lon="14.74722">
        <ele>198</ele>
        <time>2016-07-20T11:27:58Z</time>
      </trkpt>
      <trkpt lat="45.17111" lon="14.74724">
        <ele>197</ele>
        <time>2016-07-20T11:29:58Z</time>
      </trkpt>
      <trkpt lat="45.17107" lon="14.74725">
        <ele>196</ele>
        <time>2016-07-20T11:31:58Z</time>
      </trkpt>
      <trkpt lat="45.17104" lon="14.74728">
        <ele>196</ele>
        <time>2016-07-20T11:33:58Z</time>
      </trkpt>
      <trkpt lat="45.17101" lon="14.74731">
        <ele>196</ele>
        <time>2016-07-20T11:35:58Z</time>
      </trkpt>
      <trkpt lat="45.17099" lon="14.74733">
        <ele>195</ele>
        <time>2016-07-20T11:37:58Z</time>
      </trkpt>
      <trkpt lat="45.17095" lon="14.74736">
        <ele>195</ele>
        <time>2016-07-20T11:39:58Z</time>
      </trkpt>
      <trkpt lat="45.17091" lon="14.74739">
        <ele>195</ele>
        <time>2016-07-20T11:41:58Z</time>
      </trkpt>
      <trkpt lat="45.17083" lon="14.74749">
        <ele>194</ele>
        <time>2016-07-20T11:43:58Z</time>
      </trkpt>
      <trkpt lat="45.1708" lon="14.74754">
        <ele>194</ele>
        <time>2016-07-20T11:45:58Z</time>
      </trkpt>
      <trkpt lat="45.17069" lon="14.7477">
        <ele>194</ele>
        <time>2016-07-20T11:47:58Z</time>
      </trkpt>
      <trkpt lat="45.17066" lon="14.74773">
        <ele>194</ele>
        <time>2016-07-20T11:49:58Z</time>
      </trkpt>
      <trkpt lat="45.17062" lon="14.74778">
        <ele>194</ele>
        <time>2016-07-20T11:51:58Z</time>
      </trkpt>
      <trkpt lat="45.17057" lon="14.74782">
        <ele>194</ele>
        <time>2016-07-20T11:53:58Z</time>
      </trkpt>
      <trkpt lat="45.17056" lon="14.74783">
        <ele>194</ele>
        <time>2016-07-20T11:55:58Z</time>
      </trkpt>
      <trkpt lat="45.17052" lon="14.74786">
        <ele>193</ele>
        <time>2016-07-20T11:57:58Z</time>
      </trkpt>
      <trkpt lat="45.17048" lon="14.74789">
        <ele>193</ele>
        <time>2016-07-20T11:59:58Z</time>
      </trkpt>
      <trkpt lat="45.17046" lon="14.7479">
        <ele>193</ele>
        <time>2016-07-20T12:01:58Z</time>
      </trkpt>
      <trkpt lat="45.17045" lon="14.74791">
        <ele>193</ele>
        <time>2016-07-20T12:03:58Z</time>
      </trkpt>
      <trkpt lat="45.17041" lon="14.74792">
        <ele>193</ele>
        <time>2016-07-20T12:05:58Z</time>
      </trkpt>
      <trkpt lat="45.1703" lon="14.74793">
        <ele>192</ele>
        <time>2016-07-20T12:07:58Z</time>
      </trkpt>
      <trkpt lat="45.1702" lon="14.74795">
        <ele>191</ele>
        <time>2016-07-20T12:09:58Z</time>
      </trkpt>
      <trkpt lat="45.17013" lon="14.74796">
        <ele>190</ele>
        <time>2016-07-20T12:11:58Z</time>
      </trkpt>
      <trkpt lat="45.17007" lon="14.74798">
        <ele>189</ele>
        <time>2016-07-20T12:13:58Z</time>
      </trkpt>
      <trkpt lat="45.17002" lon="14.74801">
        <ele>189</ele>
        <time>2016-07-20T12:15:58Z</time>
      </trkpt>
      <trkpt lat="45.17" lon="14.74804">
        <ele>189</ele>
        <time>2016-07-20T12:17:58Z</time>
      </trkpt>
      <trkpt lat="45.16997" lon="14.74807">
        <ele>188</ele>
        <time>2016-07-20T12:19:58Z</time>
      </trkpt>
      <trkpt lat="45.16996" lon="14.74809">
        <ele>188</ele>
        <time>2016-07-20T12:21:58Z</time>
      </trkpt>
      <trkpt lat="45.16994" lon="14.74812">
        <ele>188</ele>
        <time>2016-07-20T12:23:58Z</time>
      </trkpt>
      <trkpt lat="45.16993" lon="14.74813">
        <ele>188</ele>
        <time>2016-07-20T12:25:58Z</time>
      </trkpt>
      <trkpt lat="45.16992" lon="14.74818">
        <ele>188</ele>
        <time>2016-07-20T12:27:58Z</time>
      </trkpt>
      <trkpt lat="45.16992" lon="14.74821">
        <ele>188</ele>
        <time>2016-07-20T12:29:58Z</time>
      </trkpt>
      <trkpt lat="45.16991" lon="14.74823">
        <ele>188</ele>
        <time>2016-07-20T12:31:58Z</time>
      </trkpt>
      <trkpt lat="45.16991" lon="14.74827">
        <ele>188</ele>
        <time>2016-07-20T12:33:58Z</time>
      </trkpt>
      <trkpt lat="45.16991" lon="14.74831">
        <ele>189</ele>
        <time>2016-07-20T12:35:58Z</time>
      </trkpt>
      <trkpt lat="45.16997" lon="14.74885">
        <ele>190</ele>
        <time>2016-07-20T12:37:58Z</time>
      </trkpt>
      <trkpt lat="45.16997" lon="14.74901">
        <ele>189</ele>
        <time>2016-07-20T12:39:58Z</time>
      </trkpt>
      <trkpt lat="45.16998" lon="14.74914">
        <ele>190</ele>
        <time>2016-07-20T12:41:58Z</time>
      </trkpt>
      <trkpt lat="45.16998" lon="14.74932">
        <ele>189</ele>
        <time>2016-07-20T12:43:58Z</time>
      </trkpt>
      <trkpt lat="45.16998" lon="14.74936">
        <ele>189</ele>
        <time>2016-07-20T12:45:58Z</time>
      </trkpt>
      <trkpt lat="45.16998" lon="14.7495">
        <ele>189</ele>
        <time>2016-07-20T12:47:58Z</time>
      </trkpt>
      <trkpt lat="45.16997" lon="14.74962">
        <ele>188</ele>
        <time>2016-07-20T12:49:58Z</time>
      </trkpt>
      <trkpt lat="45.16995" lon="14.74973">
        <ele>188</ele>
        <time>2016-07-20T12:51:58Z</time>
      </trkpt>
      <trkpt lat="45.16995" lon="14.74978">
        <ele>187</ele>
        <time>2016-07-20T12:53:58Z</time>
      </trkpt>
      <trkpt lat="45.16993" lon="14.74984">
        <ele>187</ele>
        <time>2016-07-20T12:55:58Z</time>
      </trkpt>
      <trkpt lat="45.16993" lon="14.74984">
        <ele>187</ele>
        <time>2016-07-20T12:57:58Z</time>
      </trkpt>
      <trkpt lat="45.16992" lon="14.74988">
        <ele>187</ele>
        <time>2016-07-20T12:59:58Z</time>
      </trkpt>
      <trkpt lat="45.16991" lon="14.74992">
        <ele>186</ele>
        <time>2016-07-20T13:01:58Z</time>
      </trkpt>
      <trkpt lat="45.16987" lon="14.74997">
        <ele>185</ele>
        <time>2016-07-20T13:03:58Z</time>
      </trkpt>
      <trkpt lat="45.16976" lon="14.75011">
        <ele>184</ele>
        <time>2016-07-20T13:05:58Z</time>
      </trkpt>
      <trkpt lat="45.16955" lon="14.75031">
        <ele>181</ele>
        <time>2016-07-20T13:07:58Z</time>
      </trkpt>
      <trkpt lat="45.16933" lon="14.75054">
        <ele>178</ele>
        <time>2016-07-20T13:09:58Z</time>
      </trkpt>
      <trkpt lat="45.16909" lon="14.75074">
        <ele>176</ele>
        <time>2016-07-20T13:11:58Z</time>
      </trkpt>
      <trkpt lat="45.16882" lon="14.75087">
        <ele>173</ele>
        <time>2016-07-20T13:13:58Z</time>
      </trkpt>
      <trkpt lat="45.16871" lon="14.75094">
        <ele>171</ele>
        <time>2016-07-20T13:15:58Z</time>
      </trkpt>
      <trkpt lat="45.16865" lon="14.75098">
        <ele>170</ele>
        <time>2016-07-20T13:17:58Z</time>
      </trkpt>
      <trkpt lat="45.1686" lon="14.75102">
        <ele>169</ele>
        <time>2016-07-20T13:19:58Z</time>
      </trkpt>
      <trkpt lat="45.16858" lon="14.75106">
        <ele>168</ele>
        <time>2016-07-20T13:21:58Z</time>
      </trkpt>
      <trkpt lat="45.16856" lon="14.75108">
        <ele>168</ele>
        <time>2016-07-20T13:23:58Z</time>
      </trkpt>
      <trkpt lat="45.16854" lon="14.75111">
        <ele>167</ele>
        <time>2016-07-20T13:25:58Z</time>
      </trkpt>
      <trkpt lat="45.16854" lon="14.75112">
        <ele>167</ele>
        <time>2016-07-20T13:27:58Z</time>
      </trkpt>
      <trkpt lat="45.16854" lon="14.75113">
        <ele>167</ele>
        <time>2016-07-20T13:29:58Z</time>
      </trkpt>
      <trkpt lat="45.16853" lon="14.75115">
        <ele>167</ele>
        <time>2016-07-20T13:31:58Z</time>
      </trkpt>
      <trkpt lat="45.16853" lon="14.75118">
        <ele>167</ele>
        <time>2016-07-20T13:33:58Z</time>
      </trkpt>
      <trkpt lat="45.16852" lon="14.7512">
        <ele>167</ele>
        <time>2016-07-20T13:35:58Z</time>
      </trkpt>
      <trkpt lat="45.16852" lon="14.75126">
        <ele>167</ele>
        <time>2016-07-20T13:37:58Z</time>
      </trkpt>
      <trkpt lat="45.16852" lon="14.75133">
        <ele>167</ele>
        <time>2016-07-20T13:39:58Z</time>
      </trkpt>
      <trkpt lat="45.16863" lon="14.75177">
        <ele>168</ele>
        <time>2016-07-20T13:41:58Z</time>
      </trkpt>
      <trkpt lat="45.16864" lon="14.75185">
        <ele>168</ele>
        <time>2016-07-20T13:43:58Z</time>
      </trkpt>
      <trkpt lat="45.16865" lon="14.75192">
        <ele>168</ele>
        <time>2016-07-20T13:45:58Z</time>
      </trkpt>
      <trkpt lat="45.16865" lon="14.75197">
        <ele>168</ele>
        <time>2016-07-20T13:47:58Z</time>
      </trkpt>
      <trkpt lat="45.16865" lon="14.75201">
        <ele>168</ele>
        <time>2016-07-20T13:49:58Z</time>
      </trkpt>
      <trkpt lat="45.16864" lon="14.75205">
        <ele>168</ele>
        <time>2016-07-20T13:51:58Z</time>
      </trkpt>
      <trkpt lat="45.16863" lon="14.75209">
        <ele>168</ele>
        <time>2016-07-20T13:53:58Z</time>
      </trkpt>
      <trkpt lat="45.16861" lon="14.75214">
        <ele>168</ele>
        <time>2016-07-20T13:55:58Z</time>
      </trkpt>
      <trkpt lat="45.16857" lon="14.75221">
        <ele>167</ele>
        <time>2016-07-20T13:57:58Z</time>
      </trkpt>
      <trkpt lat="45.16848" lon="14.7523">
        <ele>165</ele>
        <time>2016-07-20T13:59:58Z</time>
      </trkpt>
      <trkpt lat="45.16813" lon="14.7526">
        <ele>161</ele>
        <time>2016-07-20T14:01:58Z</time>
      </trkpt>
      <trkpt lat="45.16774" lon="14.75294">
        <ele>158</ele>
        <time>2016-07-20T14:03:58Z</time>
      </trkpt>
      <trkpt lat="45.16761" lon="14.75303">
        <ele>157</ele>
        <time>2016-07-20T14:05:58Z</time>
      </trkpt>
      <trkpt lat="45.16754" lon="14.75307">
        <ele>157</ele>
        <time>2016-07-20T14:07:58Z</time>
      </trkpt>
      <trkpt lat="45.16746" lon="14.75311">
        <ele>156</ele>
        <time>2016-07-20T14:09:58Z</time>
      </trkpt>
      <trkpt lat="45.1674" lon="14.75314">
        <ele>156</ele>
        <time>2016-07-20T14:11:58Z</time>
      </trkpt>
      <trkpt lat="45.16734" lon="14.75314">
        <ele>156</ele>
        <time>2016-07-20T14:13:58Z</time>
      </trkpt>
      <trkpt lat="45.16726" lon="14.75316">
        <ele>155</ele>
        <time>2016-07-20T14:15:58Z</time>
      </trkpt>
      <trkpt lat="45.16699" lon="14.75315">
        <ele>153</ele>
        <time>2016-07-20T14:17:58Z</time>
      </trkpt>
      <trkpt lat="45.16686" lon="14.75314">
        <ele>152</ele>
        <time>2016-07-20T14:19:58Z</time>
      </trkpt>
      <trkpt lat="45.16655" lon="14.75317">
        <ele>150</ele>
        <time>2016-07-20T14:21:58Z</time>
      </trkpt>
      <trkpt lat="45.16644" lon="14.75318">
        <ele>148</ele>
        <time>2016-07-20T14:23:58Z</time>
      </trkpt>
      <trkpt lat="45.16644" lon="14.75318">
        <ele>148</ele>
        <time>2016-07-20T14:25:58Z</time>
      </trkpt>
      <trkpt lat="45.16634" lon="14.75328">
        <ele>148</ele>
        <time>2016-07-20T14:27:58Z</time>
      </trkpt>
      <trkpt lat="45.16626" lon="14.75339">
        <ele>148</ele>
        <time>2016-07-20T14:29:58Z</time>
      </trkpt>
      <trkpt lat="45.16623" lon="14.75345">
        <ele>148</ele>
        <time>2016-07-20T14:31:58Z</time>
      </trkpt>
      <trkpt lat="45.1662" lon="14.7535">
        <ele>147</ele>
        <time>2016-07-20T14:33:58Z</time>
      </trkpt>
      <trkpt lat="45.16616" lon="14.75361">
        <ele>147</ele>
        <time>2016-07-20T14:35:58Z</time>
      </trkpt>
      <trkpt lat="45.16613" lon="14.7537">
        <ele>147</ele>
        <time>2016-07-20T14:37:58Z</time>
      </trkpt>
      <trkpt lat="45.16612" lon="14.75377">
        <ele>147</ele>
        <time>2016-07-20T14:39:58Z</time>
      </trkpt>
      <trkpt lat="45.16611" lon="14.75387">
        <ele>147</ele>
        <time>2016-07-20T14:41:58Z</time>
      </trkpt>
      <trkpt lat="45.16613" lon="14.75433">
        <ele>148</ele>
        <time>2016-07-20T14:43:58Z</time>
      </trkpt>
      <trkpt lat="45.16614" lon="14.75465">
        <ele>148</ele>
        <time>2016-07-20T14:45:58Z</time>
      </trkpt>
      <trkpt lat="45.16614" lon="14.75487">
        <ele>149</ele>
        <time>2016-07-20T14:47:58Z</time>
      </trkpt>
      <trkpt lat="45.16613" lon="14.75505">
        <ele>149</ele>
        <time>2016-07-20T14:49:58Z</time>
      </trkpt>
      <trkpt lat="45.16612" lon="14.75521">
        <ele>149</ele>
        <time>2016-07-20T14:51:58Z</time>
      </trkpt>
      <trkpt lat="45.16611" lon="14.7553">
        <ele>149</ele>
        <time>2016-07-20T14:53:58Z</time>
      </trkpt>
      <trkpt lat="45.16609" lon="14.75544">
        <ele>149</ele>
        <time>2016-07-20T14:55:58Z</time>
      </trkpt>
      <trkpt lat="45.16606" lon="14.75561">
        <ele>148</ele>
        <time>2016-07-20T14:57:58Z</time>
      </trkpt>
      <trkpt lat="45.16603" lon="14.75575">
        <ele>148</ele>
        <time>2016-07-20T14:59:58Z</time>
      </trkpt>
      <trkpt lat="45.16599" lon="14.75586">
        <ele>148</ele>
        <time>2016-07-20T15:01:58Z</time>
      </trkpt>
      <trkpt lat="45.16596" lon="14.75595">
        <ele>148</ele>
        <time>2016-07-20T15:03:58Z</time>
      </trkpt>
      <trkpt lat="45.16588" lon="14.75616">
        <ele>147</ele>
        <time>2016-07-20T15:05:58Z</time>
      </trkpt>
      <trkpt lat="45.16568" lon="14.7565">
        <ele>146</ele>
        <time>2016-07-20T15:07:58Z</time>
      </trkpt>
      <trkpt lat="45.16561" lon="14.75662">
        <ele>146</ele>
        <time>2016-07-20T15:09:58Z</time>
      </trkpt>
      <trkpt lat="45.16556" lon="14.75669">
        <ele>146</ele>
        <time>2016-07-20T15:11:58Z</time>
      </trkpt>
      <trkpt lat="45.16519" lon="14.75712">
        <ele>145</ele>
        <time>2016-07-20T15:13:58Z</time>
      </trkpt>
      <trkpt lat="45.16408" lon="14.75838">
        <ele>140</ele>
        <time>2016-07-20T15:15:58Z</time>
      </trkpt>
      <trkpt lat="45.16371" lon="14.75882">
        <ele>139</ele>
        <time>2016-07-20T15:17:58Z</time>
      </trkpt>
      <trkpt lat="45.16359" lon="14.75893">
        <ele>139</ele>
        <time>2016-07-20T15:19:58Z</time>
      </trkpt>
      <trkpt lat="45.16293" lon="14.75981">
        <ele>142</ele>
        <time>2016-07-20T15:21:58Z</time>
      </trkpt>
      <trkpt lat="45.16276" lon="14.76003">
        <ele>143</ele>
        <time>2016-07-20T15:23:58Z</time>
      </trkpt>
      <trkpt lat="45.16245" lon="14.7604">
        <ele>143</ele>
        <time>2016-07-20T15:25:58Z</time>
      </trkpt>
      <trkpt lat="45.16203" lon="14.76098">
        <ele>139</ele>
        <time>2016-07-20T15:27:58Z</time>
      </trkpt>
      <trkpt lat="45.16198" lon="14.76108">
        <ele>138</ele>
        <time>2016-07-20T15:29:58Z</time>
      </trkpt>
      <trkpt lat="45.16184" lon="14.7613">
        <ele>136</ele>
        <time>2016-07-20T15:31:58Z</time>
      </trkpt>
      <trkpt lat="45.16175" lon="14.76144">
        <ele>135</ele>
        <time>2016-07-20T15:33:58Z</time>
      </trkpt>
      <trkpt lat="45.16172" lon="14.76149">
        <ele>135</ele>
        <time>2016-07-20T15:35:58Z</time>
      </trkpt>
      <trkpt lat="45.1617" lon="14.76153">
        <ele>135</ele>
        <time>2016-07-20T15:37:58Z</time>
      </trkpt>
      <trkpt lat="45.16167" lon="14.76161">
        <ele>134</ele>
        <time>2016-07-20T15:39:58Z</time>
      </trkpt>
      <trkpt lat="45.16158" lon="14.76196">
        <ele>137</ele>
        <time>2016-07-20T15:41:58Z</time>
      </trkpt>
      <trkpt lat="45.16153" lon="14.76215">
        <ele>138</ele>
        <time>2016-07-20T15:43:58Z</time>
      </trkpt>
      <trkpt lat="45.16151" lon="14.76222">
        <ele>139</ele>
        <time>2016-07-20T15:45:58Z</time>
      </trkpt>
      <trkpt lat="45.16146" lon="14.76238">
        <ele>140</ele>
        <time>2016-07-20T15:47:58Z</time>
      </trkpt>
      <trkpt lat="45.16138" lon="14.76253">
        <ele>141</ele>
        <time>2016-07-20T15:49:58Z</time>
      </trkpt>
      <trkpt lat="45.16131" lon="14.76262">
        <ele>141</ele>
        <time>2016-07-20T15:51:58Z</time>
      </trkpt>
      <trkpt lat="45.16128" lon="14.76265">
        <ele>141</ele>
        <time>2016-07-20T15:53:58Z</time>
      </trkpt>
      <trkpt lat="45.16111" lon="14.76278">
        <ele>140</ele>
        <time>2016-07-20T15:55:58Z</time>
      </trkpt>
      <trkpt lat="45.16098" lon="14.76287">
        <ele>139</ele>
        <time>2016-07-20T15:57:58Z</time>
      </trkpt>
      <trkpt lat="45.16094" lon="14.76291">
        <ele>139</ele>
        <time>2016-07-20T15:59:58Z</time>
      </trkpt>
      <trkpt lat="45.16091" lon="14.76294">
        <ele>139</ele>
        <time>2016-07-20T16:01:58Z</time>
      </trkpt>
      <trkpt lat="45.16089" lon="14.76298">
        <ele>139</ele>
        <time>2016-07-20T16:03:58Z</time>
      </trkpt>
      <trkpt lat="45.16088" lon="14.76303">
        <ele>140</ele>
        <time>2016-07-20T16:05:58Z</time>
      </trkpt>
      <trkpt lat="45.16085" lon="14.76316">
        <ele>141</ele>
        <time>2016-07-20T16:07:58Z</time>
      </trkpt>
      <trkpt lat="45.16082" lon="14.76338">
        <ele>142</ele>
        <time>2016-07-20T16:09:58Z</time>
      </trkpt>
      <trkpt lat="45.16079" lon="14.76357">
        <ele>142</ele>
        <time>2016-07-20T16:11:58Z</time>
      </trkpt>
      <trkpt lat="45.16077" lon="14.76382">
        <ele>143</ele>
        <time>2016-07-20T16:13:58Z</time>
      </trkpt>
      <trkpt lat="45.16077" lon="14.76439">
        <ele>145</ele>
        <time>2016-07-20T16:15:58Z</time>
      </trkpt>
      <trkpt lat="45.16078" lon="14.76457">
        <ele>145</ele>
        <time>2016-07-20T16:17:58Z</time>
      </trkpt>
      <trkpt lat="45.1608" lon="14.7651">
        <ele>146</ele>
        <time>2016-07-20T16:19:58Z</time>
      </trkpt>
      <trkpt lat="45.1608" lon="14.76532">
        <ele>147</ele>
        <time>2016-07-20T16:21:58Z</time>
      </trkpt>
      <trkpt lat="45.16079" lon="14.76546">
        <ele>148</ele>
        <time>2016-07-20T16:23:58Z</time>
      </trkpt>
      <trkpt lat="45.16078" lon="14.76555">
        <ele>148</ele>
        <time>2016-07-20T16:25:58Z</time>
      </trkpt>
      <trkpt lat="45.16077" lon="14.76564">
        <ele>148</ele>
        <time>2016-07-20T16:27:58Z</time>
      </trkpt>
      <trkpt lat="45.16074" lon="14.76573">
        <ele>148</ele>
        <time>2016-07-20T16:29:58Z</time>
      </trkpt>
      <trkpt lat="45.16071" lon="14.76579">
        <ele>148</ele>
        <time>2016-07-20T16:31:58Z</time>
      </trkpt>
      <trkpt lat="45.16068" lon="14.76585">
        <ele>148</ele>
        <time>2016-07-20T16:33:58Z</time>
      </trkpt>
      <trkpt lat="45.16061" lon="14.76593">
        <ele>148</ele>
        <time>2016-07-20T16:35:58Z</time>
      </trkpt>
      <trkpt lat="45.16054" lon="14.766">
        <ele>148</ele>
        <time>2016-07-20T16:37:58Z</time>
      </trkpt>
      <trkpt lat="45.16033" lon="14.76615">
        <ele>147</ele>
        <time>2016-07-20T16:39:58Z</time>
      </trkpt>
      <trkpt lat="45.16015" lon="14.76629">
        <ele>145</ele>
        <time>2016-07-20T16:41:58Z</time>
      </trkpt>
      <trkpt lat="45.16006" lon="14.76638">
        <ele>144</ele>
        <time>2016-07-20T16:43:58Z</time>
      </trkpt>
      <trkpt lat="45.15993" lon="14.76655">
        <ele>144</ele>
        <time>2016-07-20T16:45:58Z</time>
      </trkpt>
      <trkpt lat="45.1597" lon="14.76686">
        <ele>143</ele>
        <time>2016-07-20T16:47:58Z</time>
      </trkpt>
      <trkpt lat="45.15963" lon="14.76698">
        <ele>144</ele>
        <time>2016-07-20T16:49:58Z</time>
      </trkpt>
      <trkpt lat="45.15955" lon="14.76712">
        <ele>144</ele>
        <time>2016-07-20T16:51:58Z</time>
      </trkpt>
      <trkpt lat="45.1595" lon="14.76733">
        <ele>144</ele>
        <time>2016-07-20T16:53:58Z</time>
      </trkpt>
      <trkpt lat="45.15948" lon="14.76743">
        <ele>145</ele>
        <time>2016-07-20T16:55:58Z</time>
      </trkpt>
      <trkpt lat="45.15946" lon="14.7675">
        <ele>145</ele>
        <time>2016-07-20T16:57:58Z</time>
      </trkpt>
      <trkpt lat="45.15942" lon="14.76758">
        <ele>145</ele>
        <time>2016-07-20T16:59:58Z</time>
      </trkpt>
      <trkpt lat="45.15938" lon="14.76765">
        <ele>145</ele>
        <time>2016-07-20T17:01:58Z</time>
      </trkpt>
      <trkpt lat="45.15934" lon="14.7677">
        <ele>145</ele>
        <time>2016-07-20T17:03:58Z</time>
      </trkpt>
      <trkpt lat="45.15927" lon="14.76775">
        <ele>144</ele>
        <time>2016-07-20T17:05:58Z</time>
      </trkpt>
      <trkpt lat="45.15916" lon="14.76786">
        <ele>143</ele>
        <time>2016-07-20T17:07:58Z</time>
      </trkpt>
      <trkpt lat="45.15911" lon="14.76793">
        <ele>143</ele>
        <time>2016-07-20T17:09:58Z</time>
      </trkpt>
      <trkpt lat="45.15907" lon="14.768">
        <ele>143</ele>
        <time>2016-07-20T17:11:58Z</time>
      </trkpt>
      <trkpt lat="45.15904" lon="14.76812">
        <ele>143</ele>
        <time>2016-07-20T17:13:58Z</time>
      </trkpt>
      <trkpt lat="45.15897" lon="14.7684">
        <ele>145</ele>
        <time>2016-07-20T17:15:58Z</time>
      </trkpt>
      <trkpt lat="45.15892" lon="14.76857">
        <ele>146</ele>
        <time>2016-07-20T17:17:58Z</time>
      </trkpt>
      <trkpt lat="45.15885" lon="14.76871">
        <ele>146</ele>
        <time>2016-07-20T17:19:58Z</time>
      </trkpt>
      <trkpt lat="45.15872" lon="14.76893">
        <ele>147</ele>
        <time>2016-07-20T17:21:58Z</time>
      </trkpt>
      <trkpt lat="45.15857" lon="14.76924">
        <ele>150</ele>
        <time>2016-07-20T17:23:58Z</time>
      </trkpt>
      <trkpt lat="45.15848" lon="14.76938">
        <ele>151</ele>
        <time>2016-07-20T17:25:58Z</time>
      </trkpt>
      <trkpt lat="45.15836" lon="14.76951">
        <ele>152</ele>
        <time>2016-07-20T17:27:58Z</time>
      </trkpt>
      <trkpt lat="45.15828" lon="14.76956">
        <ele>151</ele>
        <time>2016-07-20T17:29:58Z</time>
      </trkpt>
      <trkpt lat="45.15821" lon="14.7696">
        <ele>151</ele>
        <time>2016-07-20T17:31:58Z</time>
      </trkpt>
      <trkpt lat="45.15816" lon="14.76965">
        <ele>150</ele>
        <time>2016-07-20T17:33:58Z</time>
      </trkpt>
      <trkpt lat="45.15808" lon="14.76975">
        <ele>150</ele>
        <time>2016-07-20T17:35:58Z</time>
      </trkpt>
      <trkpt lat="45.15805" lon="14.76979">
        <ele>150</ele>
        <time>2016-07-20T17:37:58Z</time>
      </trkpt>
      <trkpt lat="45.15799" lon="14.76991">
        <ele>151</ele>
        <time>2016-07-20T17:39:58Z</time>
      </trkpt>
      <trkpt lat="45.15795" lon="14.77">
        <ele>151</ele>
        <time>2016-07-20T17:41:58Z</time>
      </trkpt>
      <trkpt lat="45.1579" lon="14.77012">
        <ele>152</ele>
        <time>2016-07-20T17:43:58Z</time>
      </trkpt>
      <trkpt lat="45.15783" lon="14.77033">
        <ele>153</ele>
        <time>2016-07-20T17:45:58Z</time>
      </trkpt>
      <trkpt lat="45.15768" lon="14.77058">
        <ele>153</ele>
        <time>2016-07-20T17:47:58Z</time>
      </trkpt>
      <trkpt lat="45.15752" lon="14.77085">
        <ele>152</ele>
        <time>2016-07-20T17:49:58Z</time>
      </trkpt>
      <trkpt lat="45.15746" lon="14.77095">
        <ele>152</ele>
        <time>2016-07-20T17:51:58Z</time>
      </trkpt>
      <trkpt lat="45.15727" lon="14.77125">
        <ele>154</ele>
        <time>2016-07-20T17:53:58Z</time>
      </trkpt>
      <trkpt lat="45.15719" lon="14.77137">
        <ele>155</ele>
        <time>2016-07-20T17:55:58Z</time>
      </trkpt>
      <trkpt lat="45.15713" lon="14.77149">
        <ele>155</ele>
        <time>2016-07-20T17:57:58Z</time>
      </trkpt>
      <trkpt lat="45.15708" lon="14.77165">
        <ele>156</ele>
        <time>2016-07-20T17:59:58Z</time>
      </trkpt>
      <trkpt lat="45.157" lon="14.77187">
        <ele>157</ele>
        <time>2016-07-20T18:01:58Z</time>
      </trkpt>
      <trkpt lat="45.15696" lon="14.77209">
        <ele>158</ele>
        <time>2016-07-20T18:03:58Z</time>
      </trkpt>
      <trkpt lat="45.15694" lon="14.77231">
        <ele>159</ele>
        <time>2016-07-20T18:05:58Z</time>
      </trkpt>
      <trkpt lat="45.15692" lon="14.77248">
        <ele>160</ele>
        <time>2016-07-20T18:07:58Z</time>
      </trkpt>
      <trkpt lat="45.15689" lon="14.77275">
        <ele>159</ele>
        <time>2016-07-20T18:09:58Z</time>
      </trkpt>
      <trkpt lat="45.15684" lon="14.77305">
        <ele>157</ele>
        <time>2016-07-20T18:11:58Z</time>
      </trkpt>
      <trkpt lat="45.15681" lon="14.77326">
        <ele>156</ele>
        <time>2016-07-20T18:13:58Z</time>
      </trkpt>
      <trkpt lat="45.1568" lon="14.77341">
        <ele>156</ele>
        <time>2016-07-20T18:15:58Z</time>
      </trkpt>
      <trkpt lat="45.15683" lon="14.77356">
        <ele>157</ele>
        <time>2016-07-20T18:17:58Z</time>
      </trkpt>
      <trkpt lat="45.15687" lon="14.7737">
        <ele>158</ele>
        <time>2016-07-20T18:19:58Z</time>
      </trkpt>
      <trkpt lat="45.15692" lon="14.77384">
        <ele>160</ele>
        <time>2016-07-20T18:21:58Z</time>
      </trkpt>
      <trkpt lat="45.15694" lon="14.77393">
        <ele>161</ele>
        <time>2016-07-20T18:23:58Z</time>
      </trkpt>
      <trkpt lat="45.15698" lon="14.77407">
        <ele>162</ele>
        <time>2016-07-20T18:25:58Z</time>
      </trkpt>
      <trkpt lat="45.15701" lon="14.7742">
        <ele>164</ele>
        <time>2016-07-20T18:27:58Z</time>
      </trkpt>
      <trkpt lat="45.15703" lon="14.77428">
        <ele>165</ele>
        <time>2016-07-20T18:29:58Z</time>
      </trkpt>
      <trkpt lat="45.15703" lon="14.77437">
        <ele>166</ele>
        <time>2016-07-20T18:31:58Z</time>
      </trkpt>
      <trkpt lat="45.15703" lon="14.77446">
        <ele>167</ele>
        <time>2016-07-20T18:33:58Z</time>
      </trkpt>
      <trkpt lat="45.15702" lon="14.77456">
        <ele>167</ele>
        <time>2016-07-20T18:35:58Z</time>
      </trkpt>
      <trkpt lat="45.15698" lon="14.77471">
        <ele>167</ele>
        <time>2016-07-20T18:37:58Z</time>
      </trkpt>
      <trkpt lat="45.15691" lon="14.7749">
        <ele>166</ele>
        <time>2016-07-20T18:39:58Z</time>
      </trkpt>
      <trkpt lat="45.15681" lon="14.7751">
        <ele>165</ele>
        <time>2016-07-20T18:41:58Z</time>
      </trkpt>
      <trkpt lat="45.15675" lon="14.7753">
        <ele>166</ele>
        <time>2016-07-20T18:43:58Z</time>
      </trkpt>
      <trkpt lat="45.15654" lon="14.77563">
        <ele>164</ele>
        <time>2016-07-20T18:45:58Z</time>
      </trkpt>
      <trkpt lat="45.15647" lon="14.7757">
        <ele>164</ele>
        <time>2016-07-20T18:47:58Z</time>
      </trkpt>
      <trkpt lat="45.15638" lon="14.77579">
        <ele>163</ele>
        <time>2016-07-20T18:49:58Z</time>
      </trkpt>
      <trkpt lat="45.15611" lon="14.77606">
        <ele>165</ele>
        <time>2016-07-20T18:51:58Z</time>
      </trkpt>
      <trkpt lat="45.15603" lon="14.77613">
        <ele>166</ele>
        <time>2016-07-20T18:53:58Z</time>
      </trkpt>
      <trkpt lat="45.15598" lon="14.77618">
        <ele>166</ele>
        <time>2016-07-20T18:55:58Z</time>
      </trkpt>
      <trkpt lat="45.15587" lon="14.77626">
        <ele>165</ele>
        <time>2016-07-20T18:57:58Z</time>
      </trkpt>
      <trkpt lat="45.15576" lon="14.7763">
        <ele>164</ele>
        <time>2016-07-20T18:59:58Z</time>
      </trkpt>
      <trkpt lat="45.15566" lon="14.77633">
        <ele>163</ele>
        <time>2016-07-20T19:01:58Z</time>
      </trkpt>
      <trkpt lat="45.15553" lon="14.77639">
        <ele>163</ele>
        <time>2016-07-20T19:03:58Z</time>
      </trkpt>
      <trkpt lat="45.15543" lon="14.77647">
        <ele>163</ele>
        <time>2016-07-20T19:05:58Z</time>
      </trkpt>
      <trkpt lat="45.15537" lon="14.77654">
        <ele>164</ele>
        <time>2016-07-20T19:07:58Z</time>
      </trkpt>
      <trkpt lat="45.15533" lon="14.77659">
        <ele>164</ele>
        <time>2016-07-20T19:09:58Z</time>
      </trkpt>
      <trkpt lat="45.1553" lon="14.77664">
        <ele>165</ele>
        <time>2016-07-20T19:11:58Z</time>
      </trkpt>
      <trkpt lat="45.15525" lon="14.77672">
        <ele>165</ele>
        <time>2016-07-20T19:13:58Z</time>
      </trkpt>
      <trkpt lat="45.15522" lon="14.77682">
        <ele>166</ele>
        <time>2016-07-20T19:15:58Z</time>
      </trkpt>
      <trkpt lat="45.1552" lon="14.7769">
        <ele>167</ele>
        <time>2016-07-20T19:17:58Z</time>
      </trkpt>
      <trkpt lat="45.15518" lon="14.777">
        <ele>167</ele>
        <time>2016-07-20T19:19:58Z</time>
      </trkpt>
      <trkpt lat="45.15517" lon="14.77709">
        <ele>168</ele>
        <time>2016-07-20T19:21:58Z</time>
      </trkpt>
      <trkpt lat="45.15515" lon="14.77717">
        <ele>169</ele>
        <time>2016-07-20T19:23:58Z</time>
      </trkpt>
      <trkpt lat="45.15508" lon="14.7774">
        <ele>169</ele>
        <time>2016-07-20T19:25:58Z</time>
      </trkpt>
      <trkpt lat="45.15499" lon="14.77767">
        <ele>169</ele>
        <time>2016-07-20T19:27:58Z</time>
      </trkpt>
      <trkpt lat="45.1549" lon="14.77787">
        <ele>169</ele>
        <time>2016-07-20T19:29:58Z</time>
      </trkpt>
      <trkpt lat="45.15484" lon="14.77804">
        <ele>169</ele>
        <time>2016-07-20T19:31:58Z</time>
      </trkpt>
      <trkpt lat="45.15464" lon="14.77841">
        <ele>169</ele>
        <time>2016-07-20T19:33:58Z</time>
      </trkpt>
      <trkpt lat="45.1546" lon="14.77849">
        <ele>170</ele>
        <time>2016-07-20T19:35:58Z</time>
      </trkpt>
      <trkpt lat="45.15456" lon="14.77859">
        <ele>171</ele>
        <time>2016-07-20T19:37:58Z</time>
      </trkpt>
      <trkpt lat="45.15454" lon="14.77867">
        <ele>172</ele>
        <time>2016-07-20T19:39:58Z</time>
      </trkpt>
      <trkpt lat="45.15452" lon="14.77879">
        <ele>174</ele>
        <time>2016-07-20T19:41:58Z</time>
      </trkpt>
      <trkpt lat="45.1545" lon="14.77895">
        <ele>176</ele>
        <time>2016-07-20T19:43:58Z</time>
      </trkpt>
      <trkpt lat="45.15447" lon="14.77906">
        <ele>178</ele>
        <time>2016-07-20T19:45:58Z</time>
      </trkpt>
      <trkpt lat="45.15444" lon="14.77914">
        <ele>178</ele>
        <time>2016-07-20T19:47:58Z</time>
      </trkpt>
      <trkpt lat="45.1544" lon="14.77923">
        <ele>180</ele>
        <time>2016-07-20T19:49:58Z</time>
      </trkpt>
      <trkpt lat="45.1543" lon="14.77943">
        <ele>182</ele>
        <time>2016-07-20T19:51:58Z</time>
      </trkpt>
      <trkpt lat="45.15421" lon="14.77968">
        <ele>186</ele>
        <time>2016-07-20T19:53:58Z</time>
      </trkpt>
      <trkpt lat="45.15416" lon="14.77983">
        <ele>188</ele>
        <time>2016-07-20T19:55:58Z</time>
      </trkpt>
      <trkpt lat="45.15412" lon="14.77994">
        <ele>189</ele>
        <time>2016-07-20T19:57:58Z</time>
      </trkpt>
      <trkpt lat="45.15409" lon="14.78001">
        <ele>190</ele>
        <time>2016-07-20T19:59:58Z</time>
      </trkpt>
      <trkpt lat="45.15404" lon="14.7801">
        <ele>191</ele>
        <time>2016-07-20T20:01:58Z</time>
      </trkpt>
      <trkpt lat="45.15394" lon="14.78026">
        <ele>193</ele>
        <time>2016-07-20T20:03:58Z</time>
      </trkpt>
      <trkpt lat="45.15384" lon="14.7804">
        <ele>193</ele>
        <time>2016-07-20T20:05:58Z</time>
      </trkpt>
      <trkpt lat="45.15371" lon="14.78056">
        <ele>193</ele>
        <time>2016-07-20T20:07:58Z</time>
      </trkpt>
      <trkpt lat="45.15356" lon="14.78074">
        <ele>191</ele>
        <time>2016-07-20T20:09:58Z</time>
      </trkpt>
      <trkpt lat="45.15346" lon="14.78092">
        <ele>190</ele>
        <time>2016-07-20T20:11:58Z</time>
      </trkpt>
      <trkpt lat="45.1534" lon="14.78101">
        <ele>189</ele>
        <time>2016-07-20T20:13:58Z</time>
      </trkpt>
      <trkpt lat="45.15333" lon="14.78115">
        <ele>189</ele>
        <time>2016-07-20T20:15:58Z</time>
      </trkpt>
      <trkpt lat="45.15318" lon="14.78157">
        <ele>193</ele>
        <time>2016-07-20T20:17:58Z</time>
      </trkpt>
      <trkpt lat="45.1531" lon="14.78177">
        <ele>195</ele>
        <time>2016-07-20T20:19:58Z</time>
      </trkpt>
      <trkpt lat="45.15299" lon="14.78198">
        <ele>195</ele>
        <time>2016-07-20T20:21:58Z</time>
      </trkpt>
      <trkpt lat="45.15283" lon="14.78221">
        <ele>194</ele>
        <time>2016-07-20T20:23:58Z</time>
      </trkpt>
      <trkpt lat="45.15272" lon="14.78234">
        <ele>192</ele>
        <time>2016-07-20T20:25:58Z</time>
      </trkpt>
      <trkpt lat="45.15262" lon="14.78247">
        <ele>189</ele>
        <time>2016-07-20T20:27:58Z</time>
      </trkpt>
      <trkpt lat="45.15258" lon="14.78255">
        <ele>190</ele>
        <time>2016-07-20T20:29:58Z</time>
      </trkpt>
      <trkpt lat="45.15253" lon="14.78265">
        <ele>191</ele>
        <time>2016-07-20T20:31:58Z</time>
      </trkpt>
      <trkpt lat="45.15245" lon="14.78284">
        <ele>194</ele>
        <time>2016-07-20T20:33:58Z</time>
      </trkpt>
      <trkpt lat="45.15238" lon="14.78303">
        <ele>197</ele>
        <time>2016-07-20T20:35:58Z</time>
      </trkpt>
      <trkpt lat="45.15233" lon="14.78315">
        <ele>199</ele>
        <time>2016-07-20T20:37:58Z</time>
      </trkpt>
      <trkpt lat="45.15202" lon="14.78372">
        <ele>200</ele>
        <time>2016-07-20T20:39:58Z</time>
      </trkpt>
      <trkpt lat="45.15188" lon="14.78403">
        <ele>200</ele>
        <time>2016-07-20T20:41:58Z</time>
      </trkpt>
      <trkpt lat="45.15174" lon="14.78439">
        <ele>203</ele>
        <time>2016-07-20T20:43:58Z</time>
      </trkpt>
      <trkpt lat="45.15158" lon="14.78476">
        <ele>206</ele>
        <time>2016-07-20T20:45:58Z</time>
      </trkpt>
      <trkpt lat="45.15143" lon="14.78504">
        <ele>207</ele>
        <time>2016-07-20T20:47:58Z</time>
      </trkpt>
      <trkpt lat="45.15134" lon="14.78523">
        <ele>209</ele>
        <time>2016-07-20T20:49:58Z</time>
      </trkpt>
      <trkpt lat="45.15123" lon="14.78548">
        <ele>211</ele>
        <time>2016-07-20T20:51:58Z</time>
      </trkpt>
      <trkpt lat="45.15109" lon="14.78582">
        <ele>213</ele>
        <time>2016-07-20T20:53:58Z</time>
      </trkpt>
      <trkpt lat="45.151" lon="14.78607">
        <ele>214</ele>
        <time>2016-07-20T20:55:58Z</time>
      </trkpt>
      <trkpt lat="45.15093" lon="14.78628">
        <ele>214</ele>
        <time>2016-07-20T20:57:58Z</time>
      </trkpt>
      <trkpt lat="45.15084" lon="14.78653">
        <ele>214</ele>
        <time>2016-07-20T20:59:58Z</time>
      </trkpt>
      <trkpt lat="45.15076" lon="14.78675">
        <ele>216</ele>
        <time>2016-07-20T21:01:58Z</time>
      </trkpt>
      <trkpt lat="45.1507" lon="14.78696">
        <ele>220</ele>
        <time>2016-07-20T21:03:58Z</time>
      </trkpt>
      <trkpt lat="45.15067" lon="14.78708">
        <ele>222</ele>
        <time>2016-07-20T21:05:58Z</time>
      </trkpt>
      <trkpt lat="45.15063" lon="14.78719">
        <ele>224</ele>
        <time>2016-07-20T21:07:58Z</time>
      </trkpt>
      <trkpt lat="45.15059" lon="14.78727">
        <ele>224</ele>
        <time>2016-07-20T21:09:58Z</time>
      </trkpt>
      <trkpt lat="45.15056" lon="14.78732">
        <ele>224</ele>
        <time>2016-07-20T21:11:58Z</time>
      </trkpt>
      <trkpt lat="45.15054" lon="14.78734">
        <ele>224</ele>
        <time>2016-07-20T21:13:58Z</time>
      </trkpt>
      <trkpt lat="45.1505" lon="14.78737">
        <ele>223</ele>
        <time>2016-07-20T21:15:58Z</time>
      </trkpt>
      <trkpt lat="45.1504" lon="14.78745">
        <ele>219</ele>
        <time>2016-07-20T21:17:58Z</time>
      </trkpt>
      <trkpt lat="45.15033" lon="14.78751">
        <ele>217</ele>
        <time>2016-07-20T21:19:58Z</time>
      </trkpt>
      <trkpt lat="45.15028" lon="14.78757">
        <ele>216</ele>
        <time>2016-07-20T21:21:58Z</time>
      </trkpt>
      <trkpt lat="45.15026" lon="14.78762">
        <ele>216</ele>
        <time>2016-07-20T21:23:58Z</time>
      </trkpt>
      <trkpt lat="45.15022" lon="14.78768">
        <ele>216</ele>
        <time>2016-07-20T21:25:58Z</time>
      </trkpt>
      <trkpt lat="45.15016" lon="14.78786">
        <ele>217</ele>
        <time>2016-07-20T21:27:58Z</time>
      </trkpt>
      <trkpt lat="45.15007" lon="14.78809">
        <ele>219</ele>
        <time>2016-07-20T21:29:58Z</time>
      </trkpt>
      <trkpt lat="45.14995" lon="14.78837">
        <ele>220</ele>
        <time>2016-07-20T21:31:58Z</time>
      </trkpt>
      <trkpt lat="45.1499" lon="14.78852">
        <ele>221</ele>
        <time>2016-07-20T21:33:58Z</time>
      </trkpt>
      <trkpt lat="45.14986" lon="14.78867">
        <ele>222</ele>
        <time>2016-07-20T21:35:58Z</time>
      </trkpt>
      <trkpt lat="45.1498" lon="14.78887">
        <ele>223</ele>
        <time>2016-07-20T21:37:58Z</time>
      </trkpt>
      <trkpt lat="45.14977" lon="14.78906">
        <ele>226</ele>
        <time>2016-07-20T21:39:58Z</time>
      </trkpt>
      <trkpt lat="45.14975" lon="14.78922">
        <ele>229</ele>
        <time>2016-07-20T21:41:58Z</time>
      </trkpt>
      <trkpt lat="45.14974" lon="14.78937">
        <ele>232</ele>
        <time>2016-07-20T21:43:58Z</time>
      </trkpt>
      <trkpt lat="45.14972" lon="14.78947">
        <ele>233</ele>
        <time>2016-07-20T21:45:58Z</time>
      </trkpt>
      <trkpt lat="45.14969" lon="14.78955">
        <ele>233</ele>
        <time>2016-07-20T21:47:58Z</time>
      </trkpt>
      <trkpt lat="45.14965" lon="14.78964">
        <ele>233</ele>
        <time>2016-07-20T21:49:58Z</time>
      </trkpt>
      <trkpt lat="45.14962" lon="14.78972">
        <ele>233</ele>
        <time>2016-07-20T21:51:58Z</time>
      </trkpt>
      <trkpt lat="45.14958" lon="14.78982">
        <ele>233</ele>
        <time>2016-07-20T21:53:58Z</time>
      </trkpt>
      <trkpt lat="45.14952" lon="14.78997">
        <ele>234</ele>
        <time>2016-07-20T21:55:58Z</time>
      </trkpt>
      <trkpt lat="45.14946" lon="14.79012">
        <ele>234</ele>
        <time>2016-07-20T21:57:58Z</time>
      </trkpt>
      <trkpt lat="45.14939" lon="14.79024">
        <ele>234</ele>
        <time>2016-07-20T21:59:58Z</time>
      </trkpt>
      <trkpt lat="45.14934" lon="14.79032">
        <ele>234</ele>
        <time>2016-07-20T22:01:58Z</time>
      </trkpt>
      <trkpt lat="45.14928" lon="14.79039">
        <ele>233</ele>
        <time>2016-07-20T22:03:58Z</time>
      </trkpt>
      <trkpt lat="45.14916" lon="14.79056">
        <ele>233</ele>
        <time>2016-07-20T22:05:58Z</time>
      </trkpt>
      <trkpt lat="45.14908" lon="14.7907">
        <ele>234</ele>
        <time>2016-07-20T22:07:58Z</time>
      </trkpt>
      <trkpt lat="45.14904" lon="14.79077">
        <ele>234</ele>
        <time>2016-07-20T22:09:58Z</time>
      </trkpt>
      <trkpt lat="45.149" lon="14.79086">
        <ele>235</ele>
        <time>2016-07-20T22:11:58Z</time>
      </trkpt>
      <trkpt lat="45.14897" lon="14.79096">
        <ele>235</ele>
        <time>2016-07-20T22:13:58Z</time>
      </trkpt>
      <trkpt lat="45.14894" lon="14.79108">
        <ele>236</ele>
        <time>2016-07-20T22:15:58Z</time>
      </trkpt>
      <trkpt lat="45.14892" lon="14.79118">
        <ele>237</ele>
        <time>2016-07-20T22:17:58Z</time>
      </trkpt>
      <trkpt lat="45.14889" lon="14.7913">
        <ele>238</ele>
        <time>2016-07-20T22:19:58Z</time>
      </trkpt>
      <trkpt lat="45.14887" lon="14.79135">
        <ele>238</ele>
        <time>2016-07-20T22:21:58Z</time>
      </trkpt>
      <trkpt lat="45.14885" lon="14.79139">
        <ele>238</ele>
        <time>2016-07-20T22:23:58Z</time>
      </trkpt>
      <trkpt lat="45.14882" lon="14.79143">
        <ele>238</ele>
        <time>2016-07-20T22:25:58Z</time>
      </trkpt>
      <trkpt lat="45.14878" lon="14.79146">
        <ele>237</ele>
        <time>2016-07-20T22:27:58Z</time>
      </trkpt>
      <trkpt lat="45.14857" lon="14.79157">
        <ele>233</ele>
        <time>2016-07-20T22:29:58Z</time>
      </trkpt>
      <trkpt lat="45.14848" lon="14.79164">
        <ele>232</ele>
        <time>2016-07-20T22:31:58Z</time>
      </trkpt>
      <trkpt lat="45.14841" lon="14.79171">
        <ele>232</ele>
        <time>2016-07-20T22:33:58Z</time>
      </trkpt>
      <trkpt lat="45.14837" lon="14.79175">
        <ele>232</ele>
        <time>2016-07-20T22:35:58Z</time>
      </trkpt>
      <trkpt lat="45.14833" lon="14.79179">
        <ele>231</ele>
        <time>2016-07-20T22:37:58Z</time>
      </trkpt>
      <trkpt lat="45.14827" lon="14.79188">
        <ele>230</ele>
        <time>2016-07-20T22:39:58Z</time>
      </trkpt>
      <trkpt lat="45.14825" lon="14.79192">
        <ele>230</ele>
        <time>2016-07-20T22:41:58Z</time>
      </trkpt>
      <trkpt lat="45.14822" lon="14.79197">
        <ele>229</ele>
        <time>2016-07-20T22:43:58Z</time>
      </trkpt>
      <trkpt lat="45.14819" lon="14.79203">
        <ele>229</ele>
        <time>2016-07-20T22:45:58Z</time>
      </trkpt>
      <trkpt lat="45.14815" lon="14.79218">
        <ele>231</ele>
        <time>2016-07-20T22:47:58Z</time>
      </trkpt>
      <trkpt lat="45.14815" lon="14.79218">
        <ele>231</ele>
        <time>2016-07-20T22:49:58Z</time>
      </trkpt>
      <trkpt lat="45.14809" lon="14.79219">
        <ele>228</ele>
        <time>2016-07-20T22:51:58Z</time>
      </trkpt>
      <trkpt lat="45.14807" lon="14.79222">
        <ele>228</ele>
        <time>2016-07-20T22:53:58Z</time>
      </trkpt>
      <trkpt lat="45.14797" lon="14.79246">
        <ele>230</ele>
        <time>2016-07-20T22:55:58Z</time>
      </trkpt>
      <trkpt lat="45.1479" lon="14.79264">
        <ele>232</ele>
        <time>2016-07-20T22:57:58Z</time>
      </trkpt>
      <trkpt lat="45.14783" lon="14.79281">
        <ele>233</ele>
        <time>2016-07-20T22:59:58Z</time>
      </trkpt>
      <trkpt lat="45.14773" lon="14.79296">
        <ele>234</ele>
        <time>2016-07-20T23:01:58Z</time>
      </trkpt>
      <trkpt lat="45.14764" lon="14.79306">
        <ele>234</ele>
        <time>2016-07-20T23:03:58Z</time>
      </trkpt>
      <trkpt lat="45.14719" lon="14.79345">
        <ele>232</ele>
        <time>2016-07-20T23:05:58Z</time>
      </trkpt>
      <trkpt lat="45.14707" lon="14.79353">
        <ele>230</ele>
        <time>2016-07-20T23:07:58Z</time>
      </trkpt>
      <trkpt lat="45.14704" lon="14.79356">
        <ele>230</ele>
        <time>2016-07-20T23:09:58Z</time>
      </trkpt>
      <trkpt lat="45.14701" lon="14.79357">
        <ele>229</ele>
        <time>2016-07-20T23:11:58Z</time>
      </trkpt>
      <trkpt lat="45.14695" lon="14.79362">
        <ele>228</ele>
        <time>2016-07-20T23:13:58Z</time>
      </trkpt>
      <trkpt lat="45.1469" lon="14.79368">
        <ele>228</ele>
        <time>2016-07-20T23:15:58Z</time>
      </trkpt>
      <trkpt lat="45.14684" lon="14.79375">
        <ele>228</ele>
        <time>2016-07-20T23:17:58Z</time>
      </trkpt>
      <trkpt lat="45.14678" lon="14.79382">
        <ele>228</ele>
        <time>2016-07-20T23:19:58Z</time>
      </trkpt>
      <trkpt lat="45.14675" lon="14.79391">
        <ele>229</ele>
        <time>2016-07-20T23:21:58Z</time>
      </trkpt>
      <trkpt lat="45.14672" lon="14.79402">
        <ele>231</ele>
        <time>2016-07-20T23:23:58Z</time>
      </trkpt>
      <trkpt lat="45.14671" lon="14.79412">
        <ele>233</ele>
        <time>2016-07-20T23:25:58Z</time>
      </trkpt>
      <trkpt lat="45.14667" lon="14.79437">
        <ele>235</ele>
        <time>2016-07-20T23:27:58Z</time>
      </trkpt>
      <trkpt lat="45.14662" lon="14.79467">
        <ele>238</ele>
        <time>2016-07-20T23:29:58Z</time>
      </trkpt>
      <trkpt lat="45.14651" lon="14.79503">
        <ele>239</ele>
        <time>2016-07-20T23:31:58Z</time>
      </trkpt>
      <trkpt lat="45.14637" lon="14.7954">
        <ele>239</ele>
        <time>2016-07-20T23:33:58Z</time>
      </trkpt>
      <trkpt lat="45.1461" lon="14.79606">
        <ele>238</ele>
        <time>2016-07-20T23:35:58Z</time>
      </trkpt>
      <trkpt lat="45.14604" lon="14.79624">
        <ele>237</ele>
        <time>2016-07-20T23:37:58Z</time>
      </trkpt>
      <trkpt lat="45.14601" lon="14.7964">
        <ele>237</ele>
        <time>2016-07-20T23:39:58Z</time>
      </trkpt>
      <trkpt lat="45.14599" lon="14.79651">
        <ele>236</ele>
        <time>2016-07-20T23:41:58Z</time>
      </trkpt>
      <trkpt lat="45.14596" lon="14.7967">
        <ele>236</ele>
        <time>2016-07-20T23:43:58Z</time>
      </trkpt>
      <trkpt lat="45.14594" lon="14.79688">
        <ele>236</ele>
        <time>2016-07-20T23:45:58Z</time>
      </trkpt>
      <trkpt lat="45.14592" lon="14.79706">
        <ele>236</ele>
        <time>2016-07-20T23:47:58Z</time>
      </trkpt>
      <trkpt lat="45.14592" lon="14.79722">
        <ele>237</ele>
        <time>2016-07-20T23:49:58Z</time>
      </trkpt>
      <trkpt lat="45.14595" lon="14.79743">
        <ele>238</ele>
        <time>2016-07-20T23:51:58Z</time>
      </trkpt>
      <trkpt lat="45.14601" lon="14.79797">
        <ele>238</ele>
        <time>2016-07-20T23:53:58Z</time>
      </trkpt>
      <trkpt lat="45.14603" lon="14.79822">
        <ele>239</ele>
        <time>2016-07-20T23:55:58Z</time>
      </trkpt>
      <trkpt lat="45.14605" lon="14.79849">
        <ele>239</ele>
        <time>2016-07-20T23:57:58Z</time>
      </trkpt>
      <trkpt lat="45.14605" lon="14.7987">
        <ele>240</ele>
        <time>2016-07-20T23:59:58Z</time>
      </trkpt>
      <trkpt lat="45.14604" lon="14.79882">
        <ele>240</ele>
        <time>2016-07-21T00:01:58Z</time>
      </trkpt>
      <trkpt lat="45.14602" lon="14.799">
        <ele>240</ele>
        <time>2016-07-21T00:03:58Z</time>
      </trkpt>
      <trkpt lat="45.14597" lon="14.79919">
        <ele>240</ele>
        <time>2016-07-21T00:05:58Z</time>
      </trkpt>
      <trkpt lat="45.1459" lon="14.79942">
        <ele>239</ele>
        <time>2016-07-21T00:07:58Z</time>
      </trkpt>
      <trkpt lat="45.14584" lon="14.79969">
        <ele>238</ele>
        <time>2016-07-21T00:09:58Z</time>
      </trkpt>
      <trkpt lat="45.14582" lon="14.7998">
        <ele>238</ele>
        <time>2016-07-21T00:11:58Z</time>
      </trkpt>
      <trkpt lat="45.14582" lon="14.79989">
        <ele>239</ele>
        <time>2016-07-21T00:13:58Z</time>
      </trkpt>
      <trkpt lat="45.14581" lon="14.79998">
        <ele>239</ele>
        <time>2016-07-21T00:15:58Z</time>
      </trkpt>
      <trkpt lat="45.14581" lon="14.80009">
        <ele>239</ele>
        <time>2016-07-21T00:17:58Z</time>
      </trkpt>
      <trkpt lat="45.14581" lon="14.80034">
        <ele>239</ele>
        <time>2016-07-21T00:19:58Z</time>
      </trkpt>
      <trkpt lat="45.14582" lon="14.80039">
        <ele>240</ele>
        <time>2016-07-21T00:21:58Z</time>
      </trkpt>
      <trkpt lat="45.14581" lon="14.80047">
        <ele>240</ele>
        <time>2016-07-21T00:23:58Z</time>
      </trkpt>
      <trkpt lat="45.1458" lon="14.80053">
        <ele>240</ele>
        <time>2016-07-21T00:25:58Z</time>
      </trkpt>
      <trkpt lat="45.14578" lon="14.80062">
        <ele>240</ele>
        <time>2016-07-21T00:27:58Z</time>
      </trkpt>
      <trkpt lat="45.14576" lon="14.80067">
        <ele>239</ele>
        <time>2016-07-21T00:29:58Z</time>
      </trkpt>
      <trkpt lat="45.14573" lon="14.80073">
        <ele>239</ele>
        <time>2016-07-21T00:31:58Z</time>
      </trkpt>
      <trkpt lat="45.14565" lon="14.80084">
        <ele>238</ele>
        <time>2016-07-21T00:33:58Z</time>
      </trkpt>
      <trkpt lat="45.14557" lon="14.80097">
        <ele>237</ele>
        <time>2016-07-21T00:35:58Z</time>
      </trkpt>
      <trkpt lat="45.14554" lon="14.80104">
        <ele>237</ele>
        <time>2016-07-21T00:37:58Z</time>
      </trkpt>
      <trkpt lat="45.14552" lon="14.8011">
        <ele>237</ele>
        <time>2016-07-21T00:39:58Z</time>
      </trkpt>
      <trkpt lat="45.14544" lon="14.8014">
        <ele>238</ele>
        <time>2016-07-21T00:41:58Z</time>
      </trkpt>
      <trkpt lat="45.14539" lon="14.80169">
        <ele>238</ele>
        <time>2016-07-21T00:43:58Z</time>
      </trkpt>
      <trkpt lat="45.14534" lon="14.80189">
        <ele>238</ele>
        <time>2016-07-21T00:45:58Z</time>
      </trkpt>
      <trkpt lat="45.14525" lon="14.8022">
        <ele>236</ele>
        <time>2016-07-21T00:47:58Z</time>
      </trkpt>
      <trkpt lat="45.14517" lon="14.80266">
        <ele>236</ele>
        <time>2016-07-21T00:49:58Z</time>
      </trkpt>
      <trkpt lat="45.14516" lon="14.80287">
        <ele>236</ele>
        <time>2016-07-21T00:51:58Z</time>
      </trkpt>
      <trkpt lat="45.14516" lon="14.80305">
        <ele>236</ele>
        <time>2016-07-21T00:53:58Z</time>
      </trkpt>
      <trkpt lat="45.14516" lon="14.80321">
        <ele>237</ele>
        <time>2016-07-21T00:55:58Z</time>
      </trkpt>
      <trkpt lat="45.14516" lon="14.80331">
        <ele>237</ele>
        <time>2016-07-21T00:57:58Z</time>
      </trkpt>
      <trkpt lat="45.14517" lon="14.80337">
        <ele>238</ele>
        <time>2016-07-21T00:59:58Z</time>
      </trkpt>
      <trkpt lat="45.14519" lon="14.80349">
        <ele>238</ele>
        <time>2016-07-21T01:01:58Z</time>
      </trkpt>
      <trkpt lat="45.14519" lon="14.80349">
        <ele>238</ele>
        <time>2016-07-21T01:03:58Z</time>
      </trkpt>
      <trkpt lat="45.14508" lon="14.80344">
        <ele>236</ele>
        <time>2016-07-21T01:05:58Z</time>
      </trkpt>
      <trkpt lat="45.14505" lon="14.80342">
        <ele>235</ele>
        <time>2016-07-21T01:07:58Z</time>
      </trkpt>
      <trkpt lat="45.14503" lon="14.80342">
        <ele>235</ele>
        <time>2016-07-21T01:09:58Z</time>
      </trkpt>
      <trkpt lat="45.14501" lon="14.80342">
        <ele>235</ele>
        <time>2016-07-21T01:11:58Z</time>
      </trkpt>
      <trkpt lat="45.145" lon="14.80342">
        <ele>234</ele>
        <time>2016-07-21T01:13:58Z</time>
      </trkpt>
      <trkpt lat="45.14498" lon="14.80343">
        <ele>234</ele>
        <time>2016-07-21T01:15:58Z</time>
      </trkpt>
      <trkpt lat="45.14495" lon="14.80344">
        <ele>233</ele>
        <time>2016-07-21T01:17:58Z</time>
      </trkpt>
      <trkpt lat="45.14494" lon="14.80344">
        <ele>233</ele>
        <time>2016-07-21T01:19:58Z</time>
      </trkpt>
      <trkpt lat="45.14491" lon="14.80345">
        <ele>233</ele>
        <time>2016-07-21T01:21:58Z</time>
      </trkpt>
      <trkpt lat="45.14487" lon="14.80348">
        <ele>232</ele>
        <time>2016-07-21T01:23:58Z</time>
      </trkpt>
      <trkpt lat="45.14484" lon="14.80351">
        <ele>231</ele>
        <time>2016-07-21T01:25:58Z</time>
      </trkpt>
      <trkpt lat="45.14481" lon="14.80354">
        <ele>231</ele>
        <time>2016-07-21T01:27:58Z</time>
      </trkpt>
      <trkpt lat="45.14474" lon="14.80364">
        <ele>230</ele>
        <time>2016-07-21T01:29:58Z</time>
      </trkpt>
      <trkpt lat="45.14462" lon="14.80386">
        <ele>229</ele>
        <time>2016-07-21T01:31:58Z</time>
      </trkpt>
      <trkpt lat="45.14447" lon="14.80415">
        <ele>227</ele>
        <time>2016-07-21T01:33:58Z</time>
      </trkpt>
      <trkpt lat="45.14433" lon="14.80443">
        <ele>227</ele>
        <time>2016-07-21T01:35:58Z</time>
      </trkpt>
      <trkpt lat="45.14422" lon="14.80468">
        <ele>227</ele>
        <time>2016-07-21T01:37:58Z</time>
      </trkpt>
      <trkpt lat="45.14411" lon="14.80496">
        <ele>227</ele>
        <time>2016-07-21T01:39:58Z</time>
      </trkpt>
      <trkpt lat="45.14399" lon="14.80528">
        <ele>225</ele>
        <time>2016-07-21T01:41:58Z</time>
      </trkpt>
      <trkpt lat="45.14391" lon="14.80554">
        <ele>224</ele>
        <time>2016-07-21T01:43:58Z</time>
      </trkpt>
      <trkpt lat="45.14369" lon="14.80638">
        <ele>222</ele>
        <time>2016-07-21T01:45:58Z</time>
      </trkpt>
      <trkpt lat="45.14364" lon="14.80659">
        <ele>221</ele>
        <time>2016-07-21T01:47:58Z</time>
      </trkpt>
      <trkpt lat="45.14361" lon="14.80669">
        <ele>221</ele>
        <time>2016-07-21T01:49:58Z</time>
      </trkpt>
      <trkpt lat="45.14358" lon="14.80678">
        <ele>220</ele>
        <time>2016-07-21T01:51:58Z</time>
      </trkpt>
      <trkpt lat="45.1435" lon="14.80699">
        <ele>219</ele>
        <time>2016-07-21T01:53:58Z</time>
      </trkpt>
      <trkpt lat="45.14341" lon="14.80717">
        <ele>217</ele>
        <time>2016-07-21T01:55:58Z</time>
      </trkpt>
      <trkpt lat="45.14329" lon="14.80733">
        <ele>216</ele>
        <time>2016-07-21T01:57:58Z</time>
      </trkpt>
      <trkpt lat="45.14324" lon="14.80739">
        <ele>215</ele>
        <time>2016-07-21T01:59:58Z</time>
      </trkpt>
      <trkpt lat="45.14315" lon="14.80749">
        <ele>214</ele>
        <time>2016-07-21T02:01:58Z</time>
      </trkpt>
      <trkpt lat="45.1429" lon="14.80772">
        <ele>212</ele>
        <time>2016-07-21T02:03:58Z</time>
      </trkpt>
      <trkpt lat="45.14259" lon="14.80797">
        <ele>209</ele>
        <time>2016-07-21T02:05:58Z</time>
      </trkpt>
      <trkpt lat="45.14249" lon="14.80808">
        <ele>208</ele>
        <time>2016-07-21T02:07:58Z</time>
      </trkpt>
      <trkpt lat="45.14243" lon="14.80815">
        <ele>207</ele>
        <time>2016-07-21T02:09:58Z</time>
      </trkpt>
      <trkpt lat="45.14239" lon="14.8082">
        <ele>207</ele>
        <time>2016-07-21T02:11:58Z</time>
      </trkpt>
      <trkpt lat="45.14237" lon="14.80824">
        <ele>207</ele>
        <time>2016-07-21T02:13:58Z</time>
      </trkpt>
      <trkpt lat="45.14233" lon="14.80832">
        <ele>206</ele>
        <time>2016-07-21T02:15:58Z</time>
      </trkpt>
      <trkpt lat="45.14225" lon="14.80852">
        <ele>206</ele>
        <time>2016-07-21T02:17:58Z</time>
      </trkpt>
      <trkpt lat="45.14217" lon="14.80874">
        <ele>206</ele>
        <time>2016-07-21T02:19:58Z</time>
      </trkpt>
      <trkpt lat="45.14207" lon="14.80897">
        <ele>206</ele>
        <time>2016-07-21T02:21:58Z</time>
      </trkpt>
      <trkpt lat="45.14202" lon="14.80905">
        <ele>205</ele>
        <time>2016-07-21T02:23:58Z</time>
      </trkpt>
      <trkpt lat="45.14196" lon="14.80915">
        <ele>205</ele>
        <time>2016-07-21T02:25:58Z</time>
      </trkpt>
      <trkpt lat="45.14168" lon="14.80951">
        <ele>203</ele>
        <time>2016-07-21T02:27:58Z</time>
      </trkpt>
      <trkpt lat="45.14152" lon="14.8097">
        <ele>201</ele>
        <time>2016-07-21T02:29:58Z</time>
      </trkpt>
      <trkpt lat="45.14137" lon="14.80985">
        <ele>200</ele>
        <time>2016-07-21T02:31:58Z</time>
      </trkpt>
      <trkpt lat="45.14132" lon="14.8099">
        <ele>200</ele>
        <time>2016-07-21T02:33:58Z</time>
      </trkpt>
      <trkpt lat="45.14132" lon="14.8099">
        <ele>200</ele>
        <time>2016-07-21T02:35:58Z</time>
      </trkpt>
      <trkpt lat="45.14153" lon="14.81046">
        <ele>205</ele>
        <time>2016-07-21T02:37:58Z</time>
      </trkpt>
      <trkpt lat="45.14176" lon="14.811">
        <ele>212</ele>
        <time>2016-07-21T02:39:58Z</time>
      </trkpt>
      <trkpt lat="45.14184" lon="14.81127">
        <ele>214</ele>
        <time>2016-07-21T02:41:58Z</time>
      </trkpt>
      <trkpt lat="45.14189" lon="14.81142">
        <ele>215</ele>
        <time>2016-07-21T02:43:58Z</time>
      </trkpt>
      <trkpt lat="45.14199" lon="14.8115">
        <ele>216</ele>
        <time>2016-07-21T02:45:58Z</time>
      </trkpt>
      <trkpt lat="45.14209" lon="14.81156">
        <ele>216</ele>
        <time>2016-07-21T02:47:58Z</time>
      </trkpt>
      <trkpt lat="45.14221" lon="14.81166">
        <ele>217</ele>
        <time>2016-07-21T02:49:58Z</time>
      </trkpt>
      <trkpt lat="45.14245" lon="14.812">
        <ele>220</ele>
        <time>2016-07-21T02:51:58Z</time>
      </trkpt>
      <trkpt lat="45.14256" lon="14.81216">
        <ele>222</ele>
        <time>2016-07-21T02:53:58Z</time>
      </trkpt>
      <trkpt lat="45.14261" lon="14.81227">
        <ele>223</ele>
        <time>2016-07-21T02:55:58Z</time>
      </trkpt>
      <trkpt lat="45.14265" lon="14.81236">
        <ele>224</ele>
        <time>2016-07-21T02:57:58Z</time>
      </trkpt>
      <trkpt lat="45.14268" lon="14.81246">
        <ele>225</ele>
        <time>2016-07-21T02:59:58Z</time>
      </trkpt>
      <trkpt lat="45.14268" lon="14.81254">
        <ele>226</ele>
        <time>2016-07-21T03:01:58Z</time>
      </trkpt>
      <trkpt lat="45.14264" lon="14.81275">
        <ele>226</ele>
        <time>2016-07-21T03:03:58Z</time>
      </trkpt>
      <trkpt lat="45.14234" lon="14.81371">
        <ele>227</ele>
        <time>2016-07-21T03:05:58Z</time>
      </trkpt>
      <trkpt lat="45.14225" lon="14.81401">
        <ele>228</ele>
        <time>2016-07-21T03:07:58Z</time>
      </trkpt>
      <trkpt lat="45.14217" lon="14.81421">
        <ele>228</ele>
        <time>2016-07-21T03:09:58Z</time>
      </trkpt>
      <trkpt lat="45.14207" lon="14.81437">
        <ele>227</ele>
        <time>2016-07-21T03:11:58Z</time>
      </trkpt>
      <trkpt lat="45.14192" lon="14.81452">
        <ele>227</ele>
        <time>2016-07-21T03:13:58Z</time>
      </trkpt>
      <trkpt lat="45.14154" lon="14.81474">
        <ele>225</ele>
        <time>2016-07-21T03:15:58Z</time>
      </trkpt>
      <trkpt lat="45.14137" lon="14.81489">
        <ele>225</ele>
        <time>2016-07-21T03:17:58Z</time>
      </trkpt>
      <trkpt lat="45.14128" lon="14.81502">
        <ele>225</ele>
        <time>2016-07-21T03:19:58Z</time>
      </trkpt>
      <trkpt lat="45.14113" lon="14.8152">
        <ele>225</ele>
        <time>2016-07-21T03:21:58Z</time>
      </trkpt>
      <trkpt lat="45.141" lon="14.81527">
        <ele>226</ele>
        <time>2016-07-21T03:23:58Z</time>
      </trkpt>
      <trkpt lat="45.14094" lon="14.8153">
        <ele>226</ele>
        <time>2016-07-21T03:25:58Z</time>
      </trkpt>
      <trkpt lat="45.14085" lon="14.8153">
        <ele>226</ele>
        <time>2016-07-21T03:27:58Z</time>
      </trkpt>
      <trkpt lat="45.14076" lon="14.8153">
        <ele>226</ele>
        <time>2016-07-21T03:29:58Z</time>
      </trkpt>
      <trkpt lat="45.14068" lon="14.8153">
        <ele>226</ele>
        <time>2016-07-21T03:31:58Z</time>
      </trkpt>
      <trkpt lat="45.14063" lon="14.81532">
        <ele>226</ele>
        <time>2016-07-21T03:33:58Z</time>
      </trkpt>
      <trkpt lat="45.14057" lon="14.81533">
        <ele>226</ele>
        <time>2016-07-21T03:35:58Z</time>
      </trkpt>
      <trkpt lat="45.14042" lon="14.81554">
        <ele>226</ele>
        <time>2016-07-21T03:37:58Z</time>
      </trkpt>
      <trkpt lat="45.13994" lon="14.81624">
        <ele>222</ele>
        <time>2016-07-21T03:39:58Z</time>
      </trkpt>
      <trkpt lat="45.13932" lon="14.81712">
        <ele>218</ele>
        <time>2016-07-21T03:41:58Z</time>
      </trkpt>
      <trkpt lat="45.13899" lon="14.81752">
        <ele>216</ele>
        <time>2016-07-21T03:43:58Z</time>
      </trkpt>
      <trkpt lat="45.13867" lon="14.81777">
        <ele>213</ele>
        <time>2016-07-21T03:45:58Z</time>
      </trkpt>
      <trkpt lat="45.13858" lon="14.81787">
        <ele>213</ele>
        <time>2016-07-21T03:47:58Z</time>
      </trkpt>
      <trkpt lat="45.13854" lon="14.81797">
        <ele>213</ele>
        <time>2016-07-21T03:49:58Z</time>
      </trkpt>
      <trkpt lat="45.13851" lon="14.81804">
        <ele>213</ele>
        <time>2016-07-21T03:51:58Z</time>
      </trkpt>
      <trkpt lat="45.13851" lon="14.81809">
        <ele>213</ele>
        <time>2016-07-21T03:53:58Z</time>
      </trkpt>
      <trkpt lat="45.13854" lon="14.81818">
        <ele>213</ele>
        <time>2016-07-21T03:55:58Z</time>
      </trkpt>
      <trkpt lat="45.13865" lon="14.81828">
        <ele>214</ele>
        <time>2016-07-21T03:57:58Z</time>
      </trkpt>
      <trkpt lat="45.13897" lon="14.81857">
        <ele>216</ele>
        <time>2016-07-21T03:59:58Z</time>
      </trkpt>
      <trkpt lat="45.13923" lon="14.81879">
        <ele>217</ele>
        <time>2016-07-21T04:01:58Z</time>
      </trkpt>
      <trkpt lat="45.13938" lon="14.81894">
        <ele>219</ele>
        <time>2016-07-21T04:03:58Z</time>
      </trkpt>
      <trkpt lat="45.13948" lon="14.81899">
        <ele>220</ele>
        <time>2016-07-21T04:05:58Z</time>
      </trkpt>
      <trkpt lat="45.13957" lon="14.81902">
        <ele>221</ele>
        <time>2016-07-21T04:07:58Z</time>
      </trkpt>
      <trkpt lat="45.13963" lon="14.81907">
        <ele>222</ele>
        <time>2016-07-21T04:09:58Z</time>
      </trkpt>
      <trkpt lat="45.13964" lon="14.81914">
        <ele>222</ele>
        <time>2016-07-21T04:11:58Z</time>
      </trkpt>
      <trkpt lat="45.13964" lon="14.81932">
        <ele>223</ele>
        <time>2016-07-21T04:13:58Z</time>
      </trkpt>
      <trkpt lat="45.13963" lon="14.81942">
        <ele>224</ele>
        <time>2016-07-21T04:15:58Z</time>
      </trkpt>
      <trkpt lat="45.13964" lon="14.81946">
        <ele>224</ele>
        <time>2016-07-21T04:17:58Z</time>
      </trkpt>
      <trkpt lat="45.13965" lon="14.81952">
        <ele>225</ele>
        <time>2016-07-21T04:19:58Z</time>
      </trkpt>
      <trkpt lat="45.13973" lon="14.81967">
        <ele>227</ele>
        <time>2016-07-21T04:21:58Z</time>
      </trkpt>
      <trkpt lat="45.13978" lon="14.81977">
        <ele>228</ele>
        <time>2016-07-21T04:23:58Z</time>
      </trkpt>
      <trkpt lat="45.13982" lon="14.81988">
        <ele>230</ele>
        <time>2016-07-21T04:25:58Z</time>
      </trkpt>
      <trkpt lat="45.13984" lon="14.82001">
        <ele>231</ele>
        <time>2016-07-21T04:27:58Z</time>
      </trkpt>
      <trkpt lat="45.13986" lon="14.82013">
        <ele>232</ele>
        <time>2016-07-21T04:29:58Z</time>
      </trkpt>
      <trkpt lat="45.13992" lon="14.82036">
        <ele>235</ele>
        <time>2016-07-21T04:31:58Z</time>
      </trkpt>
      <trkpt lat="45.13993" lon="14.82042">
        <ele>235</ele>
        <time>2016-07-21T04:33:58Z</time>
      </trkpt>
      <trkpt lat="45.13992" lon="14.82051">
        <ele>236</ele>
        <time>2016-07-21T04:35:58Z</time>
      </trkpt>
      <trkpt lat="45.13989" lon="14.8206">
        <ele>236</ele>
        <time>2016-07-21T04:37:58Z</time>
      </trkpt>
      <trkpt lat="45.13981" lon="14.82073">
        <ele>236</ele>
        <time>2016-07-21T04:39:58Z</time>
      </trkpt>
      <trkpt lat="45.13971" lon="14.82085">
        <ele>235</ele>
        <time>2016-07-21T04:41:58Z</time>
      </trkpt>
      <trkpt lat="45.13963" lon="14.82105">
        <ele>237</ele>
        <time>2016-07-21T04:43:58Z</time>
      </trkpt>
      <trkpt lat="45.13958" lon="14.82128">
        <ele>239</ele>
        <time>2016-07-21T04:45:58Z</time>
      </trkpt>
      <trkpt lat="45.13953" lon="14.82148">
        <ele>241</ele>
        <time>2016-07-21T04:47:58Z</time>
      </trkpt>
      <trkpt lat="45.13948" lon="14.82169">
        <ele>242</ele>
        <time>2016-07-21T04:49:58Z</time>
      </trkpt>
      <trkpt lat="45.13943" lon="14.82179">
        <ele>243</ele>
        <time>2016-07-21T04:51:58Z</time>
      </trkpt>
      <trkpt lat="45.13929" lon="14.82195">
        <ele>242</ele>
        <time>2016-07-21T04:53:58Z</time>
      </trkpt>
      <trkpt lat="45.1392" lon="14.82206">
        <ele>242</ele>
        <time>2016-07-21T04:55:58Z</time>
      </trkpt>
      <trkpt lat="45.13911" lon="14.82219">
        <ele>242</ele>
        <time>2016-07-21T04:57:58Z</time>
      </trkpt>
      <trkpt lat="45.13901" lon="14.82229">
        <ele>241</ele>
        <time>2016-07-21T04:59:58Z</time>
      </trkpt>
      <trkpt lat="45.13892" lon="14.82241">
        <ele>241</ele>
        <time>2016-07-21T05:01:58Z</time>
      </trkpt>
      <trkpt lat="45.1387" lon="14.82263">
        <ele>238</ele>
        <time>2016-07-21T05:03:58Z</time>
      </trkpt>
      <trkpt lat="45.13859" lon="14.82278">
        <ele>237</ele>
        <time>2016-07-21T05:05:58Z</time>
      </trkpt>
      <trkpt lat="45.13856" lon="14.82285">
        <ele>237</ele>
        <time>2016-07-21T05:07:58Z</time>
      </trkpt>
      <trkpt lat="45.13852" lon="14.82292">
        <ele>236</ele>
        <time>2016-07-21T05:09:58Z</time>
      </trkpt>
      <trkpt lat="45.13852" lon="14.82304">
        <ele>237</ele>
        <time>2016-07-21T05:11:58Z</time>
      </trkpt>
      <trkpt lat="45.13852" lon="14.82316">
        <ele>237</ele>
        <time>2016-07-21T05:13:58Z</time>
      </trkpt>
      <trkpt lat="45.13851" lon="14.82328">
        <ele>238</ele>
        <time>2016-07-21T05:15:58Z</time>
      </trkpt>
      <trkpt lat="45.13849" lon="14.8234">
        <ele>238</ele>
        <time>2016-07-21T05:17:58Z</time>
      </trkpt>
      <trkpt lat="45.13845" lon="14.82344">
        <ele>238</ele>
        <time>2016-07-21T05:19:58Z</time>
      </trkpt>
      <trkpt lat="45.13841" lon="14.82346">
        <ele>237</ele>
        <time>2016-07-21T05:21:58Z</time>
      </trkpt>
      <trkpt lat="45.13837" lon="14.82347">
        <ele>236</ele>
        <time>2016-07-21T05:23:58Z</time>
      </trkpt>
      <trkpt lat="45.1383" lon="14.82346">
        <ele>235</ele>
        <time>2016-07-21T05:25:58Z</time>
      </trkpt>
      <trkpt lat="45.13823" lon="14.82339">
        <ele>233</ele>
        <time>2016-07-21T05:27:58Z</time>
      </trkpt>
      <trkpt lat="45.13815" lon="14.82332">
        <ele>231</ele>
        <time>2016-07-21T05:29:58Z</time>
      </trkpt>
      <trkpt lat="45.13813" lon="14.82332">
        <ele>231</ele>
        <time>2016-07-21T05:31:58Z</time>
      </trkpt>
      <trkpt lat="45.13813" lon="14.82332">
        <ele>231</ele>
        <time>2016-07-21T05:33:58Z</time>
      </trkpt>
      <trkpt lat="45.13808" lon="14.8233">
        <ele>230</ele>
        <time>2016-07-21T05:35:58Z</time>
      </trkpt>
      <trkpt lat="45.13803" lon="14.8233">
        <ele>229</ele>
        <time>2016-07-21T05:37:58Z</time>
      </trkpt>
      <trkpt lat="45.13794" lon="14.82336">
        <ele>228</ele>
        <time>2016-07-21T05:39:58Z</time>
      </trkpt>
      <trkpt lat="45.13789" lon="14.82343">
        <ele>228</ele>
        <time>2016-07-21T05:41:58Z</time>
      </trkpt>
      <trkpt lat="45.13784" lon="14.82345">
        <ele>227</ele>
        <time>2016-07-21T05:43:58Z</time>
      </trkpt>
      <trkpt lat="45.13776" lon="14.82347">
        <ele>226</ele>
        <time>2016-07-21T05:45:58Z</time>
      </trkpt>
      <trkpt lat="45.13769" lon="14.82345">
        <ele>225</ele>
        <time>2016-07-21T05:47:58Z</time>
      </trkpt>
      <trkpt lat="45.13758" lon="14.82338">
        <ele>223</ele>
        <time>2016-07-21T05:49:58Z</time>
      </trkpt>
      <trkpt lat="45.13758" lon="14.82338">
        <ele>223</ele>
        <time>2016-07-21T05:51:58Z</time>
      </trkpt>
      <trkpt lat="45.13753" lon="14.82354">
        <ele>223</ele>
        <time>2016-07-21T05:53:58Z</time>
      </trkpt>
      <trkpt lat="45.13749" lon="14.82367">
        <ele>224</ele>
        <time>2016-07-21T05:55:58Z</time>
      </trkpt>
      <trkpt lat="45.13745" lon="14.82382">
        <ele>225</ele>
        <time>2016-07-21T05:57:58Z</time>
      </trkpt>
      <trkpt lat="45.13741" lon="14.82409">
        <ele>226</ele>
        <time>2016-07-21T05:59:58Z</time>
      </trkpt>
      <trkpt lat="45.13739" lon="14.82427">
        <ele>228</ele>
        <time>2016-07-21T06:01:58Z</time>
      </trkpt>
      <trkpt lat="45.13739" lon="14.82431">
        <ele>228</ele>
        <time>2016-07-21T06:03:58Z</time>
      </trkpt>
      <trkpt lat="45.13738" lon="14.82442">
        <ele>229</ele>
        <time>2016-07-21T06:05:58Z</time>
      </trkpt>
      <trkpt lat="45.13737" lon="14.82447">
        <ele>230</ele>
        <time>2016-07-21T06:07:58Z</time>
      </trkpt>
      <trkpt lat="45.13736" lon="14.82451">
        <ele>230</ele>
        <time>2016-07-21T06:09:58Z</time>
      </trkpt>
      <trkpt lat="45.13735" lon="14.82454">
        <ele>230</ele>
        <time>2016-07-21T06:11:58Z</time>
      </trkpt>
      <trkpt lat="45.13733" lon="14.82457">
        <ele>231</ele>
        <time>2016-07-21T06:13:58Z</time>
      </trkpt>
      <trkpt lat="45.13732" lon="14.8246">
        <ele>231</ele>
        <time>2016-07-21T06:15:58Z</time>
      </trkpt>
      <trkpt lat="45.1373" lon="14.82462">
        <ele>231</ele>
        <time>2016-07-21T06:17:58Z</time>
      </trkpt>
      <trkpt lat="45.13722" lon="14.82468">
        <ele>230</ele>
        <time>2016-07-21T06:19:58Z</time>
      </trkpt>
      <trkpt lat="45.13702" lon="14.82479">
        <ele>229</ele>
        <time>2016-07-21T06:21:58Z</time>
      </trkpt>
      <trkpt lat="45.13692" lon="14.82488">
        <ele>229</ele>
        <time>2016-07-21T06:23:58Z</time>
      </trkpt>
      <trkpt lat="45.13674" lon="14.82508">
        <ele>229</ele>
        <time>2016-07-21T06:25:58Z</time>
      </trkpt>
      <trkpt lat="45.13645" lon="14.82547">
        <ele>232</ele>
        <time>2016-07-21T06:27:58Z</time>
      </trkpt>
      <trkpt lat="45.13622" lon="14.82581">
        <ele>234</ele>
        <time>2016-07-21T06:29:58Z</time>
      </trkpt>
      <trkpt lat="45.13594" lon="14.82617">
        <ele>236</ele>
        <time>2016-07-21T06:31:58Z</time>
      </trkpt>
      <trkpt lat="45.13565" lon="14.82668">
        <ele>239</ele>
        <time>2016-07-21T06:33:58Z</time>
      </trkpt>
      <trkpt lat="45.13557" lon="14.82688">
        <ele>241</ele>
        <time>2016-07-21T06:35:58Z</time>
      </trkpt>
      <trkpt lat="45.13551" lon="14.82708">
        <ele>243</ele>
        <time>2016-07-21T06:37:58Z</time>
      </trkpt>
      <trkpt lat="45.13544" lon="14.82727">
        <ele>245</ele>
        <time>2016-07-21T06:39:58Z</time>
      </trkpt>
      <trkpt lat="45.13539" lon="14.8274">
        <ele>246</ele>
        <time>2016-07-21T06:41:58Z</time>
      </trkpt>
      <trkpt lat="45.13533" lon="14.82748">
        <ele>247</ele>
        <time>2016-07-21T06:43:58Z</time>
      </trkpt>
      <trkpt lat="45.13527" lon="14.82754">
        <ele>247</ele>
        <time>2016-07-21T06:45:58Z</time>
      </trkpt>
      <trkpt lat="45.1352" lon="14.82759">
        <ele>247</ele>
        <time>2016-07-21T06:47:58Z</time>
      </trkpt>
      <trkpt lat="45.1351" lon="14.82765">
        <ele>247</ele>
        <time>2016-07-21T06:49:58Z</time>
      </trkpt>
      <trkpt lat="45.1349" lon="14.82771">
        <ele>247</ele>
        <time>2016-07-21T06:51:58Z</time>
      </trkpt>
      <trkpt lat="45.13451" lon="14.82781">
        <ele>247</ele>
        <time>2016-07-21T06:53:58Z</time>
      </trkpt>
      <trkpt lat="45.13444" lon="14.82784">
        <ele>248</ele>
        <time>2016-07-21T06:55:58Z</time>
      </trkpt>
      <trkpt lat="45.13436" lon="14.82786">
        <ele>248</ele>
        <time>2016-07-21T06:57:58Z</time>
      </trkpt>
      <trkpt lat="45.1343" lon="14.82786">
        <ele>248</ele>
        <time>2016-07-21T06:59:58Z</time>
      </trkpt>
      <trkpt lat="45.13426" lon="14.82785">
        <ele>248</ele>
        <time>2016-07-21T07:01:58Z</time>
      </trkpt>
      <trkpt lat="45.1342" lon="14.82782">
        <ele>247</ele>
        <time>2016-07-21T07:03:58Z</time>
      </trkpt>
      <trkpt lat="45.13416" lon="14.82777">
        <ele>247</ele>
        <time>2016-07-21T07:05:58Z</time>
      </trkpt>
      <trkpt lat="45.1339" lon="14.82753">
        <ele>248</ele>
        <time>2016-07-21T07:07:58Z</time>
      </trkpt>
      <trkpt lat="45.13373" lon="14.82735">
        <ele>249</ele>
        <time>2016-07-21T07:09:58Z</time>
      </trkpt>
      <trkpt lat="45.13314" lon="14.8268">
        <ele>252</ele>
        <time>2016-07-21T07:11:58Z</time>
      </trkpt>
      <trkpt lat="45.1331" lon="14.82678">
        <ele>252</ele>
        <time>2016-07-21T07:13:58Z</time>
      </trkpt>
      <trkpt lat="45.13309" lon="14.82677">
        <ele>252</ele>
        <time>2016-07-21T07:15:58Z</time>
      </trkpt>
      <trkpt lat="45.13306" lon="14.82676">
        <ele>252</ele>
        <time>2016-07-21T07:17:58Z</time>
      </trkpt>
      <trkpt lat="45.13304" lon="14.82676">
        <ele>253</ele>
        <time>2016-07-21T07:19:58Z</time>
      </trkpt>
      <trkpt lat="45.13302" lon="14.82676">
        <ele>253</ele>
        <time>2016-07-21T07:21:58Z</time>
      </trkpt>
      <trkpt lat="45.13301" lon="14.82677">
        <ele>253</ele>
        <time>2016-07-21T07:23:58Z</time>
      </trkpt>
      <trkpt lat="45.13299" lon="14.82678">
        <ele>254</ele>
        <time>2016-07-21T07:25:58Z</time>
      </trkpt>
      <trkpt lat="45.13298" lon="14.8268">
        <ele>254</ele>
        <time>2016-07-21T07:27:58Z</time>
      </trkpt>
      <trkpt lat="45.13298" lon="14.82684">
        <ele>254</ele>
        <time>2016-07-21T07:29:58Z</time>
      </trkpt>
      <trkpt lat="45.13298" lon="14.82686">
        <ele>255</ele>
        <time>2016-07-21T07:31:58Z</time>
      </trkpt>
      <trkpt lat="45.13299" lon="14.82691">
        <ele>255</ele>
        <time>2016-07-21T07:33:58Z</time>
      </trkpt>
      <trkpt lat="45.1332" lon="14.82729">
        <ele>256</ele>
        <time>2016-07-21T07:35:58Z</time>
      </trkpt>
      <trkpt lat="45.13337" lon="14.82771">
        <ele>258</ele>
        <time>2016-07-21T07:37:58Z</time>
      </trkpt>
      <trkpt lat="45.13357" lon="14.82823">
        <ele>260</ele>
        <time>2016-07-21T07:39:58Z</time>
      </trkpt>
      <trkpt lat="45.13371" lon="14.8287">
        <ele>267</ele>
        <time>2016-07-21T07:41:58Z</time>
      </trkpt>
      <trkpt lat="45.13377" lon="14.82886">
        <ele>270</ele>
        <time>2016-07-21T07:43:58Z</time>
      </trkpt>
      <trkpt lat="45.13382" lon="14.82897">
        <ele>271</ele>
        <time>2016-07-21T07:45:58Z</time>
      </trkpt>
      <trkpt lat="45.13387" lon="14.82903">
        <ele>272</ele>
        <time>2016-07-21T07:47:58Z</time>
      </trkpt>
      <trkpt lat="45.13392" lon="14.82909">
        <ele>272</ele>
        <time>2016-07-21T07:49:58Z</time>
      </trkpt>
      <trkpt lat="45.13398" lon="14.82913">
        <ele>272</ele>
        <time>2016-07-21T07:51:58Z</time>
      </trkpt>
      <trkpt lat="45.13407" lon="14.8292">
        <ele>272</ele>
        <time>2016-07-21T07:53:58Z</time>
      </trkpt>
      <trkpt lat="45.13419" lon="14.8293">
        <ele>272</ele>
        <time>2016-07-21T07:55:58Z</time>
      </trkpt>
      <trkpt lat="45.13424" lon="14.82937">
        <ele>272</ele>
        <time>2016-07-21T07:57:58Z</time>
      </trkpt>
      <trkpt lat="45.13434" lon="14.82949">
        <ele>273</ele>
        <time>2016-07-21T07:59:58Z</time>
      </trkpt>
      <trkpt lat="45.1344" lon="14.82959">
        <ele>273</ele>
        <time>2016-07-21T08:01:58Z</time>
      </trkpt>
      <trkpt lat="45.13444" lon="14.82967">
        <ele>274</ele>
        <time>2016-07-21T08:03:58Z</time>
      </trkpt>
      <trkpt lat="45.13448" lon="14.82977">
        <ele>275</ele>
        <time>2016-07-21T08:05:58Z</time>
      </trkpt>
      <trkpt lat="45.13451" lon="14.82988">
        <ele>276</ele>
        <time>2016-07-21T08:07:58Z</time>
      </trkpt>
      <trkpt lat="45.13452" lon="14.82999">
        <ele>277</ele>
        <time>2016-07-21T08:09:58Z</time>
      </trkpt>
      <trkpt lat="45.13455" lon="14.83093">
        <ele>280</ele>
        <time>2016-07-21T08:11:58Z</time>
      </trkpt>
      <trkpt lat="45.13458" lon="14.83137">
        <ele>282</ele>
        <time>2016-07-21T08:13:58Z</time>
      </trkpt>
      <trkpt lat="45.13464" lon="14.83182">
        <ele>285</ele>
        <time>2016-07-21T08:15:58Z</time>
      </trkpt>
      <trkpt lat="45.1347" lon="14.83209">
        <ele>286</ele>
        <time>2016-07-21T08:17:58Z</time>
      </trkpt>
      <trkpt lat="45.13477" lon="14.83232">
        <ele>288</ele>
        <time>2016-07-21T08:19:58Z</time>
      </trkpt>
      <trkpt lat="45.1348" lon="14.83241">
        <ele>288</ele>
        <time>2016-07-21T08:21:58Z</time>
      </trkpt>
      <trkpt lat="45.13482" lon="14.83251">
        <ele>289</ele>
        <time>2016-07-21T08:23:58Z</time>
      </trkpt>
      <trkpt lat="45.13485" lon="14.83267">
        <ele>290</ele>
        <time>2016-07-21T08:25:58Z</time>
      </trkpt>
      <trkpt lat="45.13485" lon="14.8328">
        <ele>290</ele>
        <time>2016-07-21T08:27:58Z</time>
      </trkpt>
      <trkpt lat="45.13484" lon="14.83298">
        <ele>291</ele>
        <time>2016-07-21T08:29:58Z</time>
      </trkpt>
      <trkpt lat="45.13474" lon="14.83337">
        <ele>294</ele>
        <time>2016-07-21T08:31:58Z</time>
      </trkpt>
      <trkpt lat="45.13453" lon="14.83399">
        <ele>293</ele>
        <time>2016-07-21T08:33:58Z</time>
      </trkpt>
      <trkpt lat="45.13423" lon="14.83466">
        <ele>289</ele>
        <time>2016-07-21T08:35:58Z</time>
      </trkpt>
      <trkpt lat="45.1341" lon="14.83494">
        <ele>287</ele>
        <time>2016-07-21T08:37:58Z</time>
      </trkpt>
      <trkpt lat="45.13404" lon="14.83504">
        <ele>286</ele>
        <time>2016-07-21T08:39:58Z</time>
      </trkpt>
      <trkpt lat="45.13401" lon="14.83515">
        <ele>286</ele>
        <time>2016-07-21T08:41:58Z</time>
      </trkpt>
      <trkpt lat="45.13398" lon="14.83528">
        <ele>285</ele>
        <time>2016-07-21T08:43:58Z</time>
      </trkpt>
      <trkpt lat="45.13399" lon="14.83539">
        <ele>284</ele>
        <time>2016-07-21T08:45:58Z</time>
      </trkpt>
      <trkpt lat="45.134" lon="14.8355">
        <ele>284</ele>
        <time>2016-07-21T08:47:58Z</time>
      </trkpt>
      <trkpt lat="45.13404" lon="14.83563">
        <ele>283</ele>
        <time>2016-07-21T08:49:58Z</time>
      </trkpt>
      <trkpt lat="45.13411" lon="14.83585">
        <ele>282</ele>
        <time>2016-07-21T08:51:58Z</time>
      </trkpt>
      <trkpt lat="45.13438" lon="14.8366">
        <ele>279</ele>
        <time>2016-07-21T08:53:58Z</time>
      </trkpt>
      <trkpt lat="45.13465" lon="14.83714">
        <ele>275</ele>
        <time>2016-07-21T08:55:58Z</time>
      </trkpt>
      <trkpt lat="45.135" lon="14.83771">
        <ele>270</ele>
        <time>2016-07-21T08:57:58Z</time>
      </trkpt>
      <trkpt lat="45.13525" lon="14.83796">
        <ele>269</ele>
        <time>2016-07-21T08:59:58Z</time>
      </trkpt>
      <trkpt lat="45.13553" lon="14.83815">
        <ele>270</ele>
        <time>2016-07-21T09:01:58Z</time>
      </trkpt>
      <trkpt lat="45.13576" lon="14.83831">
        <ele>270</ele>
        <time>2016-07-21T09:03:58Z</time>
      </trkpt>
      <trkpt lat="45.13612" lon="14.8385">
        <ele>269</ele>
        <time>2016-07-21T09:05:58Z</time>
      </trkpt>
      <trkpt lat="45.13635" lon="14.8386">
        <ele>268</ele>
        <time>2016-07-21T09:07:58Z</time>
      </trkpt>
      <trkpt lat="45.13684" lon="14.83909">
        <ele>260</ele>
        <time>2016-07-21T09:09:58Z</time>
      </trkpt>
      <trkpt lat="45.13701" lon="14.83914">
        <ele>259</ele>
        <time>2016-07-21T09:11:58Z</time>
      </trkpt>
      <trkpt lat="45.13714" lon="14.83913">
        <ele>258</ele>
        <time>2016-07-21T09:13:58Z</time>
      </trkpt>
      <trkpt lat="45.13718" lon="14.8391">
        <ele>259</ele>
        <time>2016-07-21T09:15:58Z</time>
      </trkpt>
      <trkpt lat="45.13725" lon="14.83906">
        <ele>259</ele>
        <time>2016-07-21T09:17:58Z</time>
      </trkpt>
      <trkpt lat="45.13728" lon="14.83905">
        <ele>259</ele>
        <time>2016-07-21T09:19:58Z</time>
      </trkpt>
      <trkpt lat="45.1373" lon="14.83905">
        <ele>259</ele>
        <time>2016-07-21T09:21:58Z</time>
      </trkpt>
      <trkpt lat="45.13732" lon="14.83906">
        <ele>259</ele>
        <time>2016-07-21T09:23:58Z</time>
      </trkpt>
      <trkpt lat="45.13734" lon="14.83906">
        <ele>259</ele>
        <time>2016-07-21T09:25:58Z</time>
      </trkpt>
      <trkpt lat="45.13736" lon="14.83908">
        <ele>258</ele>
        <time>2016-07-21T09:27:58Z</time>
      </trkpt>
      <trkpt lat="45.13739" lon="14.83911">
        <ele>258</ele>
        <time>2016-07-21T09:29:58Z</time>
      </trkpt>
      <trkpt lat="45.13741" lon="14.83916">
        <ele>257</ele>
        <time>2016-07-21T09:31:58Z</time>
      </trkpt>
      <trkpt lat="45.13744" lon="14.83921">
        <ele>257</ele>
        <time>2016-07-21T09:33:58Z</time>
      </trkpt>
      <trkpt lat="45.13747" lon="14.83929">
        <ele>257</ele>
        <time>2016-07-21T09:35:58Z</time>
      </trkpt>
      <trkpt lat="45.13748" lon="14.83937">
        <ele>257</ele>
        <time>2016-07-21T09:37:58Z</time>
      </trkpt>
      <trkpt lat="45.13749" lon="14.83949">
        <ele>257</ele>
        <time>2016-07-21T09:39:58Z</time>
      </trkpt>
      <trkpt lat="45.13748" lon="14.83952">
        <ele>257</ele>
        <time>2016-07-21T09:41:58Z</time>
      </trkpt>
      <trkpt lat="45.13746" lon="14.83959">
        <ele>256</ele>
        <time>2016-07-21T09:43:58Z</time>
      </trkpt>
      <trkpt lat="45.13745" lon="14.83969">
        <ele>256</ele>
        <time>2016-07-21T09:45:58Z</time>
      </trkpt>
      <trkpt lat="45.13747" lon="14.83981">
        <ele>256</ele>
        <time>2016-07-21T09:47:58Z</time>
      </trkpt>
      <trkpt lat="45.13748" lon="14.8399">
        <ele>256</ele>
        <time>2016-07-21T09:49:58Z</time>
      </trkpt>
      <trkpt lat="45.13749" lon="14.83993">
        <ele>256</ele>
        <time>2016-07-21T09:51:58Z</time>
      </trkpt>
      <trkpt lat="45.1376" lon="14.84013">
        <ele>257</ele>
        <time>2016-07-21T09:53:58Z</time>
      </trkpt>
      <trkpt lat="45.13776" lon="14.84055">
        <ele>258</ele>
        <time>2016-07-21T09:55:58Z</time>
      </trkpt>
      <trkpt lat="45.13794" lon="14.84117">
        <ele>262</ele>
        <time>2016-07-21T09:57:58Z</time>
      </trkpt>
      <trkpt lat="45.13794" lon="14.84117">
        <ele>262</ele>
        <time>2016-07-21T09:59:58Z</time>
      </trkpt>
      <trkpt lat="45.13764" lon="14.84171">
        <ele>263</ele>
        <time>2016-07-21T10:01:58Z</time>
      </trkpt>
      <trkpt lat="45.1375" lon="14.84203">
        <ele>263</ele>
        <time>2016-07-21T10:03:58Z</time>
      </trkpt>
      <trkpt lat="45.13741" lon="14.84221">
        <ele>263</ele>
        <time>2016-07-21T10:05:58Z</time>
      </trkpt>
      <trkpt lat="45.13736" lon="14.84229">
        <ele>263</ele>
        <time>2016-07-21T10:07:58Z</time>
      </trkpt>
      <trkpt lat="45.13728" lon="14.84241">
        <ele>263</ele>
        <time>2016-07-21T10:09:58Z</time>
      </trkpt>
      <trkpt lat="45.13717" lon="14.84252">
        <ele>262</ele>
        <time>2016-07-21T10:11:58Z</time>
      </trkpt>
      <trkpt lat="45.13708" lon="14.8426">
        <ele>262</ele>
        <time>2016-07-21T10:13:58Z</time>
      </trkpt>
      <trkpt lat="45.137" lon="14.84268">
        <ele>262</ele>
        <time>2016-07-21T10:15:58Z</time>
      </trkpt>
      <trkpt lat="45.13691" lon="14.8428">
        <ele>261</ele>
        <time>2016-07-21T10:17:58Z</time>
      </trkpt>
      <trkpt lat="45.13683" lon="14.84296">
        <ele>261</ele>
        <time>2016-07-21T10:19:58Z</time>
      </trkpt>
      <trkpt lat="45.13679" lon="14.84306">
        <ele>260</ele>
        <time>2016-07-21T10:21:58Z</time>
      </trkpt>
      <trkpt lat="45.13675" lon="14.84314">
        <ele>260</ele>
        <time>2016-07-21T10:23:58Z</time>
      </trkpt>
      <trkpt lat="45.13673" lon="14.84318">
        <ele>260</ele>
        <time>2016-07-21T10:25:58Z</time>
      </trkpt>
      <trkpt lat="45.13672" lon="14.84324">
        <ele>260</ele>
        <time>2016-07-21T10:27:58Z</time>
      </trkpt>
      <trkpt lat="45.13671" lon="14.84327">
        <ele>259</ele>
        <time>2016-07-21T10:29:58Z</time>
      </trkpt>
      <trkpt lat="45.13671" lon="14.8433">
        <ele>259</ele>
        <time>2016-07-21T10:31:58Z</time>
      </trkpt>
      <trkpt lat="45.13672" lon="14.84334">
        <ele>259</ele>
        <time>2016-07-21T10:33:58Z</time>
      </trkpt>
      <trkpt lat="45.13672" lon="14.84338">
        <ele>259</ele>
        <time>2016-07-21T10:35:58Z</time>
      </trkpt>
      <trkpt lat="45.13672" lon="14.84341">
        <ele>259</ele>
        <time>2016-07-21T10:37:58Z</time>
      </trkpt>
      <trkpt lat="45.13673" lon="14.84354">
        <ele>260</ele>
        <time>2016-07-21T10:39:58Z</time>
      </trkpt>
      <trkpt lat="45.13673" lon="14.84362">
        <ele>260</ele>
        <time>2016-07-21T10:41:58Z</time>
      </trkpt>
      <trkpt lat="45.13673" lon="14.84368">
        <ele>260</ele>
        <time>2016-07-21T10:43:58Z</time>
      </trkpt>
      <trkpt lat="45.13672" lon="14.84375">
        <ele>259</ele>
        <time>2016-07-21T10:45:58Z</time>
      </trkpt>
      <trkpt lat="45.13669" lon="14.84381">
        <ele>259</ele>
        <time>2016-07-21T10:47:58Z</time>
      </trkpt>
      <trkpt lat="45.13668" lon="14.84386">
        <ele>259</ele>
        <time>2016-07-21T10:49:58Z</time>
      </trkpt>
      <trkpt lat="45.13663" lon="14.84396">
        <ele>259</ele>
        <time>2016-07-21T10:51:58Z</time>
      </trkpt>
      <trkpt lat="45.1366" lon="14.84402">
        <ele>258</ele>
        <time>2016-07-21T10:53:58Z</time>
      </trkpt>
      <trkpt lat="45.13658" lon="14.84409">
        <ele>258</ele>
        <time>2016-07-21T10:55:58Z</time>
      </trkpt>
      <trkpt lat="45.13656" lon="14.84412">
        <ele>258</ele>
        <time>2016-07-21T10:57:58Z</time>
      </trkpt>
      <trkpt lat="45.13654" lon="14.84416">
        <ele>258</ele>
        <time>2016-07-21T10:59:58Z</time>
      </trkpt>
      <trkpt lat="45.13651" lon="14.84419">
        <ele>258</ele>
        <time>2016-07-21T11:01:58Z</time>
      </trkpt>
      <trkpt lat="45.13648" lon="14.84421">
        <ele>258</ele>
        <time>2016-07-21T11:03:58Z</time>
      </trkpt>
      <trkpt lat="45.13644" lon="14.84423">
        <ele>257</ele>
        <time>2016-07-21T11:05:58Z</time>
      </trkpt>
      <trkpt lat="45.13639" lon="14.84426">
        <ele>257</ele>
        <time>2016-07-21T11:07:58Z</time>
      </trkpt>
      <trkpt lat="45.13632" lon="14.84429">
        <ele>257</ele>
        <time>2016-07-21T11:09:58Z</time>
      </trkpt>
      <trkpt lat="45.13629" lon="14.84432">
        <ele>257</ele>
        <time>2016-07-21T11:11:58Z</time>
      </trkpt>
      <trkpt lat="45.1362" lon="14.8444">
        <ele>256</ele>
        <time>2016-07-21T11:13:58Z</time>
      </trkpt>
      <trkpt lat="45.13611" lon="14.84451">
        <ele>256</ele>
        <time>2016-07-21T11:15:58Z</time>
      </trkpt>
      <trkpt lat="45.13602" lon="14.84463">
        <ele>256</ele>
        <time>2016-07-21T11:17:58Z</time>
      </trkpt>
      <trkpt lat="45.13594" lon="14.84475">
        <ele>256</ele>
        <time>2016-07-21T11:19:58Z</time>
      </trkpt>
      <trkpt lat="45.13584" lon="14.84493">
        <ele>256</ele>
        <time>2016-07-21T11:21:58Z</time>
      </trkpt>
      <trkpt lat="45.13574" lon="14.84509">
        <ele>258</ele>
        <time>2016-07-21T11:23:58Z</time>
      </trkpt>
      <trkpt lat="45.13564" lon="14.84519">
        <ele>260</ele>
        <time>2016-07-21T11:25:58Z</time>
      </trkpt>
      <trkpt lat="45.13555" lon="14.84525">
        <ele>260</ele>
        <time>2016-07-21T11:27:58Z</time>
      </trkpt>
      <trkpt lat="45.13541" lon="14.8453">
        <ele>261</ele>
        <time>2016-07-21T11:29:58Z</time>
      </trkpt>
      <trkpt lat="45.13528" lon="14.84533">
        <ele>260</ele>
        <time>2016-07-21T11:31:58Z</time>
      </trkpt>
      <trkpt lat="45.13518" lon="14.84534">
        <ele>260</ele>
        <time>2016-07-21T11:33:58Z</time>
      </trkpt>
      <trkpt lat="45.13498" lon="14.84533">
        <ele>258</ele>
        <time>2016-07-21T11:35:58Z</time>
      </trkpt>
      <trkpt lat="45.13483" lon="14.84532">
        <ele>257</ele>
        <time>2016-07-21T11:37:58Z</time>
      </trkpt>
      <trkpt lat="45.13475" lon="14.84531">
        <ele>256</ele>
        <time>2016-07-21T11:39:58Z</time>
      </trkpt>
      <trkpt lat="45.1347" lon="14.84531">
        <ele>256</ele>
        <time>2016-07-21T11:41:58Z</time>
      </trkpt>
      <trkpt lat="45.13457" lon="14.84534">
        <ele>255</ele>
        <time>2016-07-21T11:43:58Z</time>
      </trkpt>
      <trkpt lat="45.13449" lon="14.84536">
        <ele>255</ele>
        <time>2016-07-21T11:45:58Z</time>
      </trkpt>
      <trkpt lat="45.1344" lon="14.84541">
        <ele>255</ele>
        <time>2016-07-21T11:47:58Z</time>
      </trkpt>
      <trkpt lat="45.13431" lon="14.84547">
        <ele>255</ele>
        <time>2016-07-21T11:49:58Z</time>
      </trkpt>
      <trkpt lat="45.13424" lon="14.84554">
        <ele>255</ele>
        <time>2016-07-21T11:51:58Z</time>
      </trkpt>
      <trkpt lat="45.13417" lon="14.84563">
        <ele>255</ele>
        <time>2016-07-21T11:53:58Z</time>
      </trkpt>
      <trkpt lat="45.13404" lon="14.84579">
        <ele>255</ele>
        <time>2016-07-21T11:55:58Z</time>
      </trkpt>
      <trkpt lat="45.13383" lon="14.84599">
        <ele>256</ele>
        <time>2016-07-21T11:57:58Z</time>
      </trkpt>
      <trkpt lat="45.1335" lon="14.84631">
        <ele>257</ele>
        <time>2016-07-21T11:59:58Z</time>
      </trkpt>
      <trkpt lat="45.13329" lon="14.84652">
        <ele>257</ele>
        <time>2016-07-21T12:01:58Z</time>
      </trkpt>
      <trkpt lat="45.13313" lon="14.84671">
        <ele>257</ele>
        <time>2016-07-21T12:03:58Z</time>
      </trkpt>
      <trkpt lat="45.13303" lon="14.84693">
        <ele>258</ele>
        <time>2016-07-21T12:05:58Z</time>
      </trkpt>
      <trkpt lat="45.1329" lon="14.84732">
        <ele>259</ele>
        <time>2016-07-21T12:07:58Z</time>
      </trkpt>
      <trkpt lat="45.13278" lon="14.8478">
        <ele>259</ele>
        <time>2016-07-21T12:09:58Z</time>
      </trkpt>
      <trkpt lat="45.13271" lon="14.84815">
        <ele>257</ele>
        <time>2016-07-21T12:11:58Z</time>
      </trkpt>
      <trkpt lat="45.13269" lon="14.84839">
        <ele>257</ele>
        <time>2016-07-21T12:13:58Z</time>
      </trkpt>
      <trkpt lat="45.13263" lon="14.84874">
        <ele>257</ele>
        <time>2016-07-21T12:15:58Z</time>
      </trkpt>
      <trkpt lat="45.13258" lon="14.84911">
        <ele>257</ele>
        <time>2016-07-21T12:17:58Z</time>
      </trkpt>
      <trkpt lat="45.13251" lon="14.84942">
        <ele>258</ele>
        <time>2016-07-21T12:19:58Z</time>
      </trkpt>
      <trkpt lat="45.13241" lon="14.84974">
        <ele>259</ele>
        <time>2016-07-21T12:21:58Z</time>
      </trkpt>
      <trkpt lat="45.13234" lon="14.84997">
        <ele>260</ele>
        <time>2016-07-21T12:23:58Z</time>
      </trkpt>
      <trkpt lat="45.13222" lon="14.85025">
        <ele>262</ele>
        <time>2016-07-21T12:25:58Z</time>
      </trkpt>
      <trkpt lat="45.13213" lon="14.85035">
        <ele>262</ele>
        <time>2016-07-21T12:27:58Z</time>
      </trkpt>
      <trkpt lat="45.13203" lon="14.85048">
        <ele>262</ele>
        <time>2016-07-21T12:29:58Z</time>
      </trkpt>
      <trkpt lat="45.13173" lon="14.85077">
        <ele>261</ele>
        <time>2016-07-21T12:31:58Z</time>
      </trkpt>
      <trkpt lat="45.13151" lon="14.85093">
        <ele>262</ele>
        <time>2016-07-21T12:33:58Z</time>
      </trkpt>
      <trkpt lat="45.13132" lon="14.85108">
        <ele>264</ele>
        <time>2016-07-21T12:35:58Z</time>
      </trkpt>
      <trkpt lat="45.13111" lon="14.85123">
        <ele>266</ele>
        <time>2016-07-21T12:37:58Z</time>
      </trkpt>
      <trkpt lat="45.13097" lon="14.85135">
        <ele>268</ele>
        <time>2016-07-21T12:39:58Z</time>
      </trkpt>
      <trkpt lat="45.13089" lon="14.85139">
        <ele>269</ele>
        <time>2016-07-21T12:41:58Z</time>
      </trkpt>
      <trkpt lat="45.13082" lon="14.85141">
        <ele>269</ele>
        <time>2016-07-21T12:43:58Z</time>
      </trkpt>
      <trkpt lat="45.13071" lon="14.8514">
        <ele>269</ele>
        <time>2016-07-21T12:45:58Z</time>
      </trkpt>
      <trkpt lat="45.13056" lon="14.85138">
        <ele>270</ele>
        <time>2016-07-21T12:47:58Z</time>
      </trkpt>
      <trkpt lat="45.13044" lon="14.85136">
        <ele>270</ele>
        <time>2016-07-21T12:49:58Z</time>
      </trkpt>
      <trkpt lat="45.13022" lon="14.8512">
        <ele>269</ele>
        <time>2016-07-21T12:51:58Z</time>
      </trkpt>
      <trkpt lat="45.12999" lon="14.85103">
        <ele>268</ele>
        <time>2016-07-21T12:53:58Z</time>
      </trkpt>
      <trkpt lat="45.12961" lon="14.85066">
        <ele>267</ele>
        <time>2016-07-21T12:55:58Z</time>
      </trkpt>
      <trkpt lat="45.12928" lon="14.85025">
        <ele>267</ele>
        <time>2016-07-21T12:57:58Z</time>
      </trkpt>
      <trkpt lat="45.12902" lon="14.84995">
        <ele>267</ele>
        <time>2016-07-21T12:59:58Z</time>
      </trkpt>
      <trkpt lat="45.1285" lon="14.8493">
        <ele>266</ele>
        <time>2016-07-21T13:01:58Z</time>
      </trkpt>
      <trkpt lat="45.1285" lon="14.8493">
        <ele>266</ele>
        <time>2016-07-21T13:03:58Z</time>
      </trkpt>
      <trkpt lat="45.12834" lon="14.84944">
        <ele>269</ele>
        <time>2016-07-21T13:05:58Z</time>
      </trkpt>
      <trkpt lat="45.12811" lon="14.84959">
        <ele>269</ele>
        <time>2016-07-21T13:07:58Z</time>
      </trkpt>
      <trkpt lat="45.12799" lon="14.84968">
        <ele>268</ele>
        <time>2016-07-21T13:09:58Z</time>
      </trkpt>
      <trkpt lat="45.12789" lon="14.84978">
        <ele>268</ele>
        <time>2016-07-21T13:11:58Z</time>
      </trkpt>
      <trkpt lat="45.12772" lon="14.85001">
        <ele>268</ele>
        <time>2016-07-21T13:13:58Z</time>
      </trkpt>
      <trkpt lat="45.12728" lon="14.85065">
        <ele>267</ele>
        <time>2016-07-21T13:15:58Z</time>
      </trkpt>
      <trkpt lat="45.12711" lon="14.85094">
        <ele>267</ele>
        <time>2016-07-21T13:17:58Z</time>
      </trkpt>
      <trkpt lat="45.127" lon="14.8511">
        <ele>267</ele>
        <time>2016-07-21T13:19:58Z</time>
      </trkpt>
      <trkpt lat="45.12689" lon="14.85121">
        <ele>267</ele>
        <time>2016-07-21T13:21:58Z</time>
      </trkpt>
      <trkpt lat="45.12679" lon="14.85135">
        <ele>267</ele>
        <time>2016-07-21T13:23:58Z</time>
      </trkpt>
      <trkpt lat="45.12673" lon="14.85148">
        <ele>268</ele>
        <time>2016-07-21T13:25:58Z</time>
      </trkpt>
      <trkpt lat="45.1267" lon="14.85165">
        <ele>269</ele>
        <time>2016-07-21T13:27:58Z</time>
      </trkpt>
      <trkpt lat="45.12667" lon="14.85172">
        <ele>270</ele>
        <time>2016-07-21T13:29:58Z</time>
      </trkpt>
      <trkpt lat="45.12657" lon="14.85185">
        <ele>270</ele>
        <time>2016-07-21T13:31:58Z</time>
      </trkpt>
      <trkpt lat="45.12649" lon="14.85196">
        <ele>271</ele>
        <time>2016-07-21T13:33:58Z</time>
      </trkpt>
      <trkpt lat="45.12638" lon="14.85215">
        <ele>272</ele>
        <time>2016-07-21T13:35:58Z</time>
      </trkpt>
      <trkpt lat="45.12627" lon="14.85242">
        <ele>273</ele>
        <time>2016-07-21T13:37:58Z</time>
      </trkpt>
      <trkpt lat="45.12621" lon="14.85252">
        <ele>274</ele>
        <time>2016-07-21T13:39:58Z</time>
      </trkpt>
      <trkpt lat="45.12613" lon="14.85265">
        <ele>274</ele>
        <time>2016-07-21T13:41:58Z</time>
      </trkpt>
      <trkpt lat="45.126" lon="14.85277">
        <ele>274</ele>
        <time>2016-07-21T13:43:58Z</time>
      </trkpt>
      <trkpt lat="45.12576" lon="14.85293">
        <ele>274</ele>
        <time>2016-07-21T13:45:58Z</time>
      </trkpt>
      <trkpt lat="45.12562" lon="14.85306">
        <ele>275</ele>
        <time>2016-07-21T13:47:58Z</time>
      </trkpt>
      <trkpt lat="45.12534" lon="14.85334">
        <ele>275</ele>
        <time>2016-07-21T13:49:58Z</time>
      </trkpt>
      <trkpt lat="45.12507" lon="14.85369">
        <ele>277</ele>
        <time>2016-07-21T13:51:58Z</time>
      </trkpt>
      <trkpt lat="45.12493" lon="14.85387">
        <ele>276</ele>
        <time>2016-07-21T13:53:58Z</time>
      </trkpt>
      <trkpt lat="45.12486" lon="14.85395">
        <ele>276</ele>
        <time>2016-07-21T13:55:58Z</time>
      </trkpt>
      <trkpt lat="45.12474" lon="14.85401">
        <ele>274</ele>
        <time>2016-07-21T13:57:58Z</time>
      </trkpt>
      <trkpt lat="45.12449" lon="14.85416">
        <ele>271</ele>
        <time>2016-07-21T13:59:58Z</time>
      </trkpt>
      <trkpt lat="45.12431" lon="14.85428">
        <ele>270</ele>
        <time>2016-07-21T14:01:58Z</time>
      </trkpt>
      <trkpt lat="45.12404" lon="14.85451">
        <ele>268</ele>
        <time>2016-07-21T14:03:58Z</time>
      </trkpt>
      <trkpt lat="45.12387" lon="14.85469">
        <ele>266</ele>
        <time>2016-07-21T14:05:58Z</time>
      </trkpt>
      <trkpt lat="45.12368" lon="14.85491">
        <ele>264</ele>
        <time>2016-07-21T14:07:58Z</time>
      </trkpt>
      <trkpt lat="45.1231" lon="14.85557">
        <ele>261</ele>
        <time>2016-07-21T14:09:58Z</time>
      </trkpt>
      <trkpt lat="45.12287" lon="14.8558">
        <ele>258</ele>
        <time>2016-07-21T14:11:58Z</time>
      </trkpt>
      <trkpt lat="45.12265" lon="14.85598">
        <ele>255</ele>
        <time>2016-07-21T14:13:58Z</time>
      </trkpt>
      <trkpt lat="45.12248" lon="14.85617">
        <ele>254</ele>
        <time>2016-07-21T14:15:58Z</time>
      </trkpt>
      <trkpt lat="45.12231" lon="14.85639">
        <ele>258</ele>
        <time>2016-07-21T14:17:58Z</time>
      </trkpt>
      <trkpt lat="45.12215" lon="14.85661">
        <ele>262</ele>
        <time>2016-07-21T14:19:58Z</time>
      </trkpt>
      <trkpt lat="45.12205" lon="14.85673">
        <ele>263</ele>
        <time>2016-07-21T14:21:58Z</time>
      </trkpt>
      <trkpt lat="45.12198" lon="14.85676">
        <ele>264</ele>
        <time>2016-07-21T14:23:58Z</time>
      </trkpt>
      <trkpt lat="45.12192" lon="14.85676">
        <ele>263</ele>
        <time>2016-07-21T14:25:58Z</time>
      </trkpt>
      <trkpt lat="45.12187" lon="14.85676">
        <ele>263</ele>
        <time>2016-07-21T14:27:58Z</time>
      </trkpt>
      <trkpt lat="45.12183" lon="14.85673">
        <ele>262</ele>
        <time>2016-07-21T14:29:58Z</time>
      </trkpt>
      <trkpt lat="45.12181" lon="14.85668">
        <ele>261</ele>
        <time>2016-07-21T14:31:58Z</time>
      </trkpt>
      <trkpt lat="45.12181" lon="14.85658">
        <ele>260</ele>
        <time>2016-07-21T14:33:58Z</time>
      </trkpt>
      <trkpt lat="45.1218" lon="14.85647">
        <ele>258</ele>
        <time>2016-07-21T14:35:58Z</time>
      </trkpt>
      <trkpt lat="45.12175" lon="14.85636">
        <ele>256</ele>
        <time>2016-07-21T14:37:58Z</time>
      </trkpt>
      <trkpt lat="45.12167" lon="14.85617">
        <ele>253</ele>
        <time>2016-07-21T14:39:58Z</time>
      </trkpt>
      <trkpt lat="45.12161" lon="14.85608">
        <ele>252</ele>
        <time>2016-07-21T14:41:58Z</time>
      </trkpt>
      <trkpt lat="45.12152" lon="14.85602">
        <ele>253</ele>
        <time>2016-07-21T14:43:58Z</time>
      </trkpt>
      <trkpt lat="45.12146" lon="14.856">
        <ele>254</ele>
        <time>2016-07-21T14:45:58Z</time>
      </trkpt>
      <trkpt lat="45.12136" lon="14.85601">
        <ele>255</ele>
        <time>2016-07-21T14:47:58Z</time>
      </trkpt>
      <trkpt lat="45.12099" lon="14.85609">
        <ele>263</ele>
        <time>2016-07-21T14:49:58Z</time>
      </trkpt>
      <trkpt lat="45.12044" lon="14.85623">
        <ele>267</ele>
        <time>2016-07-21T14:51:58Z</time>
      </trkpt>
      <trkpt lat="45.11998" lon="14.85637">
        <ele>269</ele>
        <time>2016-07-21T14:53:58Z</time>
      </trkpt>
      <trkpt lat="45.11986" lon="14.85641">
        <ele>269</ele>
        <time>2016-07-21T14:55:58Z</time>
      </trkpt>
      <trkpt lat="45.11955" lon="14.85657">
        <ele>270</ele>
        <time>2016-07-21T14:57:58Z</time>
      </trkpt>
      <trkpt lat="45.11928" lon="14.85671">
        <ele>270</ele>
        <time>2016-07-21T14:59:58Z</time>
      </trkpt>
      <trkpt lat="45.11912" lon="14.85679">
        <ele>270</ele>
        <time>2016-07-21T15:01:58Z</time>
      </trkpt>
      <trkpt lat="45.11886" lon="14.85685">
        <ele>270</ele>
        <time>2016-07-21T15:03:58Z</time>
      </trkpt>
      <trkpt lat="45.11863" lon="14.85686">
        <ele>269</ele>
        <time>2016-07-21T15:05:58Z</time>
      </trkpt>
      <trkpt lat="45.11853" lon="14.85688">
        <ele>269</ele>
        <time>2016-07-21T15:07:58Z</time>
      </trkpt>
      <trkpt lat="45.11839" lon="14.85693">
        <ele>269</ele>
        <time>2016-07-21T15:09:58Z</time>
      </trkpt>
      <trkpt lat="45.11833" lon="14.85694">
        <ele>269</ele>
        <time>2016-07-21T15:11:58Z</time>
      </trkpt>
      <trkpt lat="45.11816" lon="14.85696">
        <ele>269</ele>
        <time>2016-07-21T15:13:58Z</time>
      </trkpt>
      <trkpt lat="45.11769" lon="14.85692">
        <ele>268</ele>
        <time>2016-07-21T15:15:58Z</time>
      </trkpt>
      <trkpt lat="45.11746" lon="14.85692">
        <ele>268</ele>
        <time>2016-07-21T15:17:58Z</time>
      </trkpt>
      <trkpt lat="45.11655" lon="14.85671">
        <ele>273</ele>
        <time>2016-07-21T15:19:58Z</time>
      </trkpt>
      <trkpt lat="45.11627" lon="14.85666">
        <ele>275</ele>
        <time>2016-07-21T15:21:58Z</time>
      </trkpt>
      <trkpt lat="45.11608" lon="14.85666">
        <ele>277</ele>
        <time>2016-07-21T15:23:58Z</time>
      </trkpt>
      <trkpt lat="45.116" lon="14.85667">
        <ele>278</ele>
        <time>2016-07-21T15:25:58Z</time>
      </trkpt>
      <trkpt lat="45.11589" lon="14.85671">
        <ele>280</ele>
        <time>2016-07-21T15:27:58Z</time>
      </trkpt>
      <trkpt lat="45.11572" lon="14.8568">
        <ele>282</ele>
        <time>2016-07-21T15:29:58Z</time>
      </trkpt>
      <trkpt lat="45.11561" lon="14.85688">
        <ele>283</ele>
        <time>2016-07-21T15:31:58Z</time>
      </trkpt>
      <trkpt lat="45.11554" lon="14.85691">
        <ele>283</ele>
        <time>2016-07-21T15:33:58Z</time>
      </trkpt>
      <trkpt lat="45.11547" lon="14.85692">
        <ele>283</ele>
        <time>2016-07-21T15:35:58Z</time>
      </trkpt>
      <trkpt lat="45.11542" lon="14.85693">
        <ele>284</ele>
        <time>2016-07-21T15:37:58Z</time>
      </trkpt>
      <trkpt lat="45.11534" lon="14.85699">
        <ele>285</ele>
        <time>2016-07-21T15:39:58Z</time>
      </trkpt>
      <trkpt lat="45.11507" lon="14.85722">
        <ele>289</ele>
        <time>2016-07-21T15:41:58Z</time>
      </trkpt>
      <trkpt lat="45.11489" lon="14.85736">
        <ele>290</ele>
        <time>2016-07-21T15:43:58Z</time>
      </trkpt>
      <trkpt lat="45.11481" lon="14.85745">
        <ele>291</ele>
        <time>2016-07-21T15:45:58Z</time>
      </trkpt>
      <trkpt lat="45.11473" lon="14.85759">
        <ele>292</ele>
        <time>2016-07-21T15:47:58Z</time>
      </trkpt>
      <trkpt lat="45.11462" lon="14.85777">
        <ele>294</ele>
        <time>2016-07-21T15:49:58Z</time>
      </trkpt>
      <trkpt lat="45.11457" lon="14.85782">
        <ele>294</ele>
        <time>2016-07-21T15:51:58Z</time>
      </trkpt>
      <trkpt lat="45.1145" lon="14.85786">
        <ele>294</ele>
        <time>2016-07-21T15:53:58Z</time>
      </trkpt>
      <trkpt lat="45.11438" lon="14.85797">
        <ele>294</ele>
        <time>2016-07-21T15:55:58Z</time>
      </trkpt>
      <trkpt lat="45.11426" lon="14.85807">
        <ele>294</ele>
        <time>2016-07-21T15:57:58Z</time>
      </trkpt>
      <trkpt lat="45.11408" lon="14.85818">
        <ele>293</ele>
        <time>2016-07-21T15:59:58Z</time>
      </trkpt>
      <trkpt lat="45.11382" lon="14.85826">
        <ele>290</ele>
        <time>2016-07-21T16:01:58Z</time>
      </trkpt>
      <trkpt lat="45.11364" lon="14.85832">
        <ele>288</ele>
        <time>2016-07-21T16:03:58Z</time>
      </trkpt>
      <trkpt lat="45.11328" lon="14.85852">
        <ele>287</ele>
        <time>2016-07-21T16:05:58Z</time>
      </trkpt>
      <trkpt lat="45.11304" lon="14.85864">
        <ele>287</ele>
        <time>2016-07-21T16:07:58Z</time>
      </trkpt>
      <trkpt lat="45.11278" lon="14.85876">
        <ele>287</ele>
        <time>2016-07-21T16:09:58Z</time>
      </trkpt>
      <trkpt lat="45.11255" lon="14.85891">
        <ele>288</ele>
        <time>2016-07-21T16:11:58Z</time>
      </trkpt>
      <trkpt lat="45.11245" lon="14.85897">
        <ele>288</ele>
        <time>2016-07-21T16:13:58Z</time>
      </trkpt>
      <trkpt lat="45.11238" lon="14.85904">
        <ele>289</ele>
        <time>2016-07-21T16:15:58Z</time>
      </trkpt>
      <trkpt lat="45.11227" lon="14.85919">
        <ele>291</ele>
        <time>2016-07-21T16:17:58Z</time>
      </trkpt>
      <trkpt lat="45.11212" lon="14.8594">
        <ele>292</ele>
        <time>2016-07-21T16:19:58Z</time>
      </trkpt>
      <trkpt lat="45.11205" lon="14.85947">
        <ele>293</ele>
        <time>2016-07-21T16:21:58Z</time>
      </trkpt>
      <trkpt lat="45.11192" lon="14.85958">
        <ele>293</ele>
        <time>2016-07-21T16:23:58Z</time>
      </trkpt>
      <trkpt lat="45.11156" lon="14.85994">
        <ele>292</ele>
        <time>2016-07-21T16:25:58Z</time>
      </trkpt>
      <trkpt lat="45.11083" lon="14.86073">
        <ele>287</ele>
        <time>2016-07-21T16:27:58Z</time>
      </trkpt>
      <trkpt lat="45.11076" lon="14.86081">
        <ele>286</ele>
        <time>2016-07-21T16:29:58Z</time>
      </trkpt>
      <trkpt lat="45.11073" lon="14.86087">
        <ele>285</ele>
        <time>2016-07-21T16:31:58Z</time>
      </trkpt>
      <trkpt lat="45.1107" lon="14.86091">
        <ele>285</ele>
        <time>2016-07-21T16:33:58Z</time>
      </trkpt>
      <trkpt lat="45.11065" lon="14.86094">
        <ele>284</ele>
        <time>2016-07-21T16:35:58Z</time>
      </trkpt>
      <trkpt lat="45.11061" lon="14.86097">
        <ele>284</ele>
        <time>2016-07-21T16:37:58Z</time>
      </trkpt>
      <trkpt lat="45.11053" lon="14.86108">
        <ele>282</ele>
        <time>2016-07-21T16:39:58Z</time>
      </trkpt>
      <trkpt lat="45.11041" lon="14.86131">
        <ele>280</ele>
        <time>2016-07-21T16:41:58Z</time>
      </trkpt>
      <trkpt lat="45.11035" lon="14.86144">
        <ele>279</ele>
        <time>2016-07-21T16:43:58Z</time>
      </trkpt>
      <trkpt lat="45.11032" lon="14.86147">
        <ele>279</ele>
        <time>2016-07-21T16:45:58Z</time>
      </trkpt>
      <trkpt lat="45.11027" lon="14.86149">
        <ele>278</ele>
        <time>2016-07-21T16:47:58Z</time>
      </trkpt>
      <trkpt lat="45.11022" lon="14.86151">
        <ele>277</ele>
        <time>2016-07-21T16:49:58Z</time>
      </trkpt>
      <trkpt lat="45.11015" lon="14.86155">
        <ele>276</ele>
        <time>2016-07-21T16:51:58Z</time>
      </trkpt>
      <trkpt lat="45.1101" lon="14.86157">
        <ele>275</ele>
        <time>2016-07-21T16:53:58Z</time>
      </trkpt>
      <trkpt lat="45.11006" lon="14.86161">
        <ele>274</ele>
        <time>2016-07-21T16:55:58Z</time>
      </trkpt>
      <trkpt lat="45.11003" lon="14.86165">
        <ele>274</ele>
        <time>2016-07-21T16:57:58Z</time>
      </trkpt>
      <trkpt lat="45.10998" lon="14.86174">
        <ele>273</ele>
        <time>2016-07-21T16:59:58Z</time>
      </trkpt>
      <trkpt lat="45.10994" lon="14.8618">
        <ele>273</ele>
        <time>2016-07-21T17:01:58Z</time>
      </trkpt>
      <trkpt lat="45.10987" lon="14.86186">
        <ele>272</ele>
        <time>2016-07-21T17:03:58Z</time>
      </trkpt>
      <trkpt lat="45.10976" lon="14.86194">
        <ele>270</ele>
        <time>2016-07-21T17:05:58Z</time>
      </trkpt>
      <trkpt lat="45.10969" lon="14.86202">
        <ele>269</ele>
        <time>2016-07-21T17:07:58Z</time>
      </trkpt>
      <trkpt lat="45.10958" lon="14.86218">
        <ele>268</ele>
        <time>2016-07-21T17:09:58Z</time>
      </trkpt>
      <trkpt lat="45.10938" lon="14.86251">
        <ele>267</ele>
        <time>2016-07-21T17:11:58Z</time>
      </trkpt>
      <trkpt lat="45.10921" lon="14.86282">
        <ele>268</ele>
        <time>2016-07-21T17:13:58Z</time>
      </trkpt>
      <trkpt lat="45.10915" lon="14.8629">
        <ele>268</ele>
        <time>2016-07-21T17:15:58Z</time>
      </trkpt>
      <trkpt lat="45.10903" lon="14.86306">
        <ele>269</ele>
        <time>2016-07-21T17:17:58Z</time>
      </trkpt>
      <trkpt lat="45.10884" lon="14.86329">
        <ele>271</ele>
        <time>2016-07-21T17:19:58Z</time>
      </trkpt>
      <trkpt lat="45.10867" lon="14.86351">
        <ele>274</ele>
        <time>2016-07-21T17:21:58Z</time>
      </trkpt>
      <trkpt lat="45.10855" lon="14.86365">
        <ele>276</ele>
        <time>2016-07-21T17:23:58Z</time>
      </trkpt>
      <trkpt lat="45.10849" lon="14.86373">
        <ele>277</ele>
        <time>2016-07-21T17:25:58Z</time>
      </trkpt>
      <trkpt lat="45.10846" lon="14.86379">
        <ele>278</ele>
        <time>2016-07-21T17:27:58Z</time>
      </trkpt>
      <trkpt lat="45.10843" lon="14.86386">
        <ele>279</ele>
        <time>2016-07-21T17:29:58Z</time>
      </trkpt>
      <trkpt lat="45.10837" lon="14.86397">
        <ele>281</ele>
        <time>2016-07-21T17:31:58Z</time>
      </trkpt>
      <trkpt lat="45.1083" lon="14.86406">
        <ele>282</ele>
        <time>2016-07-21T17:33:58Z</time>
      </trkpt>
      <trkpt lat="45.10823" lon="14.86413">
        <ele>283</ele>
        <time>2016-07-21T17:35:58Z</time>
      </trkpt>
      <trkpt lat="45.1081" lon="14.86422">
        <ele>285</ele>
        <time>2016-07-21T17:37:58Z</time>
      </trkpt>
      <trkpt lat="45.1078" lon="14.86437">
        <ele>288</ele>
        <time>2016-07-21T17:39:58Z</time>
      </trkpt>
      <trkpt lat="45.10758" lon="14.86447">
        <ele>290</ele>
        <time>2016-07-21T17:41:58Z</time>
      </trkpt>
      <trkpt lat="45.10732" lon="14.86456">
        <ele>292</ele>
        <time>2016-07-21T17:43:58Z</time>
      </trkpt>
      <trkpt lat="45.10701" lon="14.86468">
        <ele>295</ele>
        <time>2016-07-21T17:45:58Z</time>
      </trkpt>
      <trkpt lat="45.10682" lon="14.86473">
        <ele>297</ele>
        <time>2016-07-21T17:47:58Z</time>
      </trkpt>
      <trkpt lat="45.10677" lon="14.86473">
        <ele>297</ele>
        <time>2016-07-21T17:49:58Z</time>
      </trkpt>
      <trkpt lat="45.10662" lon="14.86471">
        <ele>296</ele>
        <time>2016-07-21T17:51:58Z</time>
      </trkpt>
      <trkpt lat="45.10652" lon="14.86471">
        <ele>297</ele>
        <time>2016-07-21T17:53:58Z</time>
      </trkpt>
      <trkpt lat="45.10639" lon="14.86471">
        <ele>297</ele>
        <time>2016-07-21T17:55:58Z</time>
      </trkpt>
      <trkpt lat="45.10623" lon="14.86474">
        <ele>298</ele>
        <time>2016-07-21T17:57:58Z</time>
      </trkpt>
      <trkpt lat="45.10601" lon="14.86476">
        <ele>299</ele>
        <time>2016-07-21T17:59:58Z</time>
      </trkpt>
      <trkpt lat="45.10582" lon="14.86478">
        <ele>299</ele>
        <time>2016-07-21T18:01:58Z</time>
      </trkpt>
      <trkpt lat="45.10562" lon="14.86482">
        <ele>300</ele>
        <time>2016-07-21T18:03:58Z</time>
      </trkpt>
      <trkpt lat="45.10554" lon="14.86484">
        <ele>300</ele>
        <time>2016-07-21T18:05:58Z</time>
      </trkpt>
      <trkpt lat="45.10546" lon="14.86487">
        <ele>301</ele>
        <time>2016-07-21T18:07:58Z</time>
      </trkpt>
      <trkpt lat="45.10534" lon="14.86492">
        <ele>302</ele>
        <time>2016-07-21T18:09:58Z</time>
      </trkpt>
      <trkpt lat="45.10509" lon="14.86505">
        <ele>305</ele>
        <time>2016-07-21T18:11:58Z</time>
      </trkpt>
      <trkpt lat="45.10492" lon="14.86517">
        <ele>306</ele>
        <time>2016-07-21T18:13:58Z</time>
      </trkpt>
      <trkpt lat="45.1048" lon="14.86525">
        <ele>306</ele>
        <time>2016-07-21T18:15:58Z</time>
      </trkpt>
      <trkpt lat="45.10471" lon="14.86535">
        <ele>306</ele>
        <time>2016-07-21T18:17:58Z</time>
      </trkpt>
      <trkpt lat="45.1046" lon="14.86551">
        <ele>308</ele>
        <time>2016-07-21T18:19:58Z</time>
      </trkpt>
      <trkpt lat="45.10433" lon="14.86586">
        <ele>311</ele>
        <time>2016-07-21T18:21:58Z</time>
      </trkpt>
      <trkpt lat="45.1042" lon="14.86603">
        <ele>313</ele>
        <time>2016-07-21T18:23:58Z</time>
      </trkpt>
      <trkpt lat="45.10408" lon="14.86616">
        <ele>315</ele>
        <time>2016-07-21T18:25:58Z</time>
      </trkpt>
      <trkpt lat="45.10393" lon="14.86632">
        <ele>317</ele>
        <time>2016-07-21T18:27:58Z</time>
      </trkpt>
      <trkpt lat="45.10378" lon="14.86647">
        <ele>318</ele>
        <time>2016-07-21T18:29:58Z</time>
      </trkpt>
      <trkpt lat="45.10362" lon="14.86666">
        <ele>319</ele>
        <time>2016-07-21T18:31:58Z</time>
      </trkpt>
      <trkpt lat="45.10343" lon="14.86688">
        <ele>320</ele>
        <time>2016-07-21T18:33:58Z</time>
      </trkpt>
      <trkpt lat="45.10312" lon="14.86722">
        <ele>323</ele>
        <time>2016-07-21T18:35:58Z</time>
      </trkpt>
      <trkpt lat="45.10291" lon="14.8674">
        <ele>324</ele>
        <time>2016-07-21T18:37:58Z</time>
      </trkpt>
      <trkpt lat="45.10278" lon="14.86753">
        <ele>325</ele>
        <time>2016-07-21T18:39:58Z</time>
      </trkpt>
      <trkpt lat="45.10268" lon="14.86759">
        <ele>324</ele>
        <time>2016-07-21T18:41:58Z</time>
      </trkpt>
      <trkpt lat="45.10254" lon="14.86765">
        <ele>324</ele>
        <time>2016-07-21T18:43:58Z</time>
      </trkpt>
      <trkpt lat="45.10242" lon="14.86768">
        <ele>323</ele>
        <time>2016-07-21T18:45:58Z</time>
      </trkpt>
      <trkpt lat="45.10228" lon="14.8677">
        <ele>321</ele>
        <time>2016-07-21T18:47:58Z</time>
      </trkpt>
      <trkpt lat="45.10221" lon="14.86773">
        <ele>321</ele>
        <time>2016-07-21T18:49:58Z</time>
      </trkpt>
      <trkpt lat="45.10204" lon="14.86781">
        <ele>321</ele>
        <time>2016-07-21T18:51:58Z</time>
      </trkpt>
      <trkpt lat="45.10191" lon="14.86788">
        <ele>321</ele>
        <time>2016-07-21T18:53:58Z</time>
      </trkpt>
      <trkpt lat="45.10172" lon="14.86798">
        <ele>320</ele>
        <time>2016-07-21T18:55:58Z</time>
      </trkpt>
      <trkpt lat="45.10163" lon="14.86801">
        <ele>321</ele>
        <time>2016-07-21T18:57:58Z</time>
      </trkpt>
      <trkpt lat="45.10148" lon="14.86806">
        <ele>322</ele>
        <time>2016-07-21T18:59:58Z</time>
      </trkpt>
      <trkpt lat="45.10136" lon="14.86812">
        <ele>324</ele>
        <time>2016-07-21T19:01:58Z</time>
      </trkpt>
      <trkpt lat="45.10117" lon="14.86819">
        <ele>325</ele>
        <time>2016-07-21T19:03:58Z</time>
      </trkpt>
      <trkpt lat="45.10088" lon="14.86831">
        <ele>328</ele>
        <time>2016-07-21T19:05:58Z</time>
      </trkpt>
      <trkpt lat="45.10065" lon="14.86844">
        <ele>331</ele>
        <time>2016-07-21T19:07:58Z</time>
      </trkpt>
      <trkpt lat="45.10052" lon="14.86852">
        <ele>332</ele>
        <time>2016-07-21T19:09:58Z</time>
      </trkpt>
      <trkpt lat="45.10043" lon="14.86856">
        <ele>333</ele>
        <time>2016-07-21T19:11:58Z</time>
      </trkpt>
      <trkpt lat="45.10032" lon="14.86865">
        <ele>335</ele>
        <time>2016-07-21T19:13:58Z</time>
      </trkpt>
      <trkpt lat="45.1001" lon="14.86884">
        <ele>338</ele>
        <time>2016-07-21T19:15:58Z</time>
      </trkpt>
      <trkpt lat="45.09984" lon="14.86905">
        <ele>342</ele>
        <time>2016-07-21T19:17:58Z</time>
      </trkpt>
      <trkpt lat="45.09965" lon="14.86919">
        <ele>344</ele>
        <time>2016-07-21T19:19:58Z</time>
      </trkpt>
      <trkpt lat="45.09942" lon="14.86933">
        <ele>347</ele>
        <time>2016-07-21T19:21:58Z</time>
      </trkpt>
      <trkpt lat="45.09923" lon="14.86939">
        <ele>348</ele>
        <time>2016-07-21T19:23:58Z</time>
      </trkpt>
      <trkpt lat="45.09905" lon="14.86945">
        <ele>350</ele>
        <time>2016-07-21T19:25:58Z</time>
      </trkpt>
      <trkpt lat="45.0989" lon="14.86948">
        <ele>352</ele>
        <time>2016-07-21T19:27:58Z</time>
      </trkpt>
      <trkpt lat="45.09879" lon="14.86949">
        <ele>353</ele>
        <time>2016-07-21T19:29:58Z</time>
      </trkpt>
      <trkpt lat="45.09863" lon="14.86946">
        <ele>354</ele>
        <time>2016-07-21T19:31:58Z</time>
      </trkpt>
      <trkpt lat="45.09857" lon="14.86946">
        <ele>354</ele>
        <time>2016-07-21T19:33:58Z</time>
      </trkpt>
      <trkpt lat="45.09848" lon="14.86948">
        <ele>355</ele>
        <time>2016-07-21T19:35:58Z</time>
      </trkpt>
      <trkpt lat="45.09837" lon="14.86951">
        <ele>356</ele>
        <time>2016-07-21T19:37:58Z</time>
      </trkpt>
      <trkpt lat="45.0983" lon="14.86953">
        <ele>357</ele>
        <time>2016-07-21T19:39:58Z</time>
      </trkpt>
      <trkpt lat="45.09825" lon="14.86955">
        <ele>358</ele>
        <time>2016-07-21T19:41:58Z</time>
      </trkpt>
      <trkpt lat="45.09813" lon="14.86961">
        <ele>360</ele>
        <time>2016-07-21T19:43:58Z</time>
      </trkpt>
      <trkpt lat="45.09805" lon="14.86965">
        <ele>361</ele>
        <time>2016-07-21T19:45:58Z</time>
      </trkpt>
      <trkpt lat="45.09784" lon="14.8698">
        <ele>364</ele>
        <time>2016-07-21T19:47:58Z</time>
      </trkpt>
      <trkpt lat="45.09767" lon="14.86993">
        <ele>365</ele>
        <time>2016-07-21T19:49:58Z</time>
      </trkpt>
      <trkpt lat="45.09749" lon="14.87007">
        <ele>367</ele>
        <time>2016-07-21T19:51:58Z</time>
      </trkpt>
      <trkpt lat="45.09742" lon="14.87012">
        <ele>368</ele>
        <time>2016-07-21T19:53:58Z</time>
      </trkpt>
      <trkpt lat="45.0974" lon="14.87013">
        <ele>368</ele>
        <time>2016-07-21T19:55:58Z</time>
      </trkpt>
      <trkpt lat="45.09735" lon="14.87015">
        <ele>369</ele>
        <time>2016-07-21T19:57:58Z</time>
      </trkpt>
      <trkpt lat="45.09722" lon="14.87021">
        <ele>371</ele>
        <time>2016-07-21T19:59:58Z</time>
      </trkpt>
      <trkpt lat="45.09706" lon="14.87031">
        <ele>373</ele>
        <time>2016-07-21T20:01:58Z</time>
      </trkpt>
      <trkpt lat="45.09685" lon="14.87048">
        <ele>374</ele>
        <time>2016-07-21T20:03:58Z</time>
      </trkpt>
      <trkpt lat="45.09678" lon="14.87053">
        <ele>374</ele>
        <time>2016-07-21T20:05:58Z</time>
      </trkpt>
      <trkpt lat="45.09667" lon="14.87059">
        <ele>374</ele>
        <time>2016-07-21T20:07:58Z</time>
      </trkpt>
      <trkpt lat="45.09656" lon="14.87064">
        <ele>374</ele>
        <time>2016-07-21T20:09:58Z</time>
      </trkpt>
      <trkpt lat="45.09636" lon="14.87073">
        <ele>374</ele>
        <time>2016-07-21T20:11:58Z</time>
      </trkpt>
      <trkpt lat="45.09603" lon="14.87084">
        <ele>374</ele>
        <time>2016-07-21T20:13:58Z</time>
      </trkpt>
      <trkpt lat="45.09588" lon="14.87089">
        <ele>375</ele>
        <time>2016-07-21T20:15:58Z</time>
      </trkpt>
      <trkpt lat="45.09579" lon="14.87092">
        <ele>375</ele>
        <time>2016-07-21T20:17:58Z</time>
      </trkpt>
      <trkpt lat="45.0957" lon="14.87094">
        <ele>375</ele>
        <time>2016-07-21T20:19:58Z</time>
      </trkpt>
      <trkpt lat="45.09561" lon="14.87098">
        <ele>375</ele>
        <time>2016-07-21T20:21:58Z</time>
      </trkpt>
      <trkpt lat="45.09551" lon="14.87105">
        <ele>375</ele>
        <time>2016-07-21T20:23:58Z</time>
      </trkpt>
      <trkpt lat="45.09544" lon="14.8711">
        <ele>374</ele>
        <time>2016-07-21T20:25:58Z</time>
      </trkpt>
      <trkpt lat="45.09537" lon="14.87115">
        <ele>374</ele>
        <time>2016-07-21T20:27:58Z</time>
      </trkpt>
      <trkpt lat="45.09527" lon="14.8712">
        <ele>373</ele>
        <time>2016-07-21T20:29:58Z</time>
      </trkpt>
      <trkpt lat="45.09511" lon="14.87128">
        <ele>373</ele>
        <time>2016-07-21T20:31:58Z</time>
      </trkpt>
      <trkpt lat="45.09498" lon="14.87141">
        <ele>371</ele>
        <time>2016-07-21T20:33:58Z</time>
      </trkpt>
      <trkpt lat="45.0949" lon="14.87148">
        <ele>370</ele>
        <time>2016-07-21T20:35:58Z</time>
      </trkpt>
      <trkpt lat="45.09486" lon="14.87153">
        <ele>369</ele>
        <time>2016-07-21T20:37:58Z</time>
      </trkpt>
      <trkpt lat="45.09481" lon="14.87164">
        <ele>368</ele>
        <time>2016-07-21T20:39:58Z</time>
      </trkpt>
      <trkpt lat="45.09479" lon="14.87169">
        <ele>367</ele>
        <time>2016-07-21T20:41:58Z</time>
      </trkpt>
      <trkpt lat="45.09479" lon="14.87173">
        <ele>368</ele>
        <time>2016-07-21T20:43:58Z</time>
      </trkpt>
      <trkpt lat="45.09479" lon="14.87175">
        <ele>368</ele>
        <time>2016-07-21T20:45:58Z</time>
      </trkpt>
      <trkpt lat="45.09479" lon="14.87179">
        <ele>368</ele>
        <time>2016-07-21T20:47:58Z</time>
      </trkpt>
      <trkpt lat="45.09478" lon="14.87189">
        <ele>369</ele>
        <time>2016-07-21T20:49:58Z</time>
      </trkpt>
      <trkpt lat="45.09476" lon="14.87196">
        <ele>369</ele>
        <time>2016-07-21T20:51:58Z</time>
      </trkpt>
      <trkpt lat="45.09473" lon="14.87203">
        <ele>370</ele>
        <time>2016-07-21T20:53:58Z</time>
      </trkpt>
      <trkpt lat="45.0947" lon="14.87208">
        <ele>370</ele>
        <time>2016-07-21T20:55:58Z</time>
      </trkpt>
      <trkpt lat="45.09467" lon="14.87214">
        <ele>370</ele>
        <time>2016-07-21T20:57:58Z</time>
      </trkpt>
      <trkpt lat="45.09453" lon="14.8723">
        <ele>369</ele>
        <time>2016-07-21T20:59:58Z</time>
      </trkpt>
      <trkpt lat="45.09447" lon="14.87238">
        <ele>369</ele>
        <time>2016-07-21T21:01:58Z</time>
      </trkpt>
      <trkpt lat="45.09441" lon="14.87249">
        <ele>368</ele>
        <time>2016-07-21T21:03:58Z</time>
      </trkpt>
      <trkpt lat="45.09432" lon="14.87266">
        <ele>369</ele>
        <time>2016-07-21T21:05:58Z</time>
      </trkpt>
      <trkpt lat="45.0943" lon="14.87271">
        <ele>369</ele>
        <time>2016-07-21T21:07:58Z</time>
      </trkpt>
      <trkpt lat="45.09425" lon="14.87277">
        <ele>369</ele>
        <time>2016-07-21T21:09:58Z</time>
      </trkpt>
      <trkpt lat="45.09419" lon="14.8728">
        <ele>368</ele>
        <time>2016-07-21T21:11:58Z</time>
      </trkpt>
      <trkpt lat="45.09409" lon="14.87284">
        <ele>367</ele>
        <time>2016-07-21T21:13:58Z</time>
      </trkpt>
      <trkpt lat="45.09399" lon="14.87287">
        <ele>366</ele>
        <time>2016-07-21T21:15:58Z</time>
      </trkpt>
      <trkpt lat="45.09372" lon="14.87295">
        <ele>363</ele>
        <time>2016-07-21T21:17:58Z</time>
      </trkpt>
      <trkpt lat="45.09367" lon="14.87297">
        <ele>362</ele>
        <time>2016-07-21T21:19:58Z</time>
      </trkpt>
      <trkpt lat="45.09364" lon="14.87298">
        <ele>362</ele>
        <time>2016-07-21T21:21:58Z</time>
      </trkpt>
      <trkpt lat="45.09356" lon="14.87303">
        <ele>361</ele>
        <time>2016-07-21T21:23:58Z</time>
      </trkpt>
      <trkpt lat="45.09341" lon="14.87318">
        <ele>360</ele>
        <time>2016-07-21T21:25:58Z</time>
      </trkpt>
      <trkpt lat="45.09321" lon="14.87337">
        <ele>361</ele>
        <time>2016-07-21T21:27:58Z</time>
      </trkpt>
      <trkpt lat="45.09311" lon="14.87351">
        <ele>363</ele>
        <time>2016-07-21T21:29:58Z</time>
      </trkpt>
      <trkpt lat="45.09303" lon="14.87362">
        <ele>364</ele>
        <time>2016-07-21T21:31:58Z</time>
      </trkpt>
      <trkpt lat="45.09301" lon="14.87368">
        <ele>365</ele>
        <time>2016-07-21T21:33:58Z</time>
      </trkpt>
      <trkpt lat="45.09298" lon="14.87375">
        <ele>365</ele>
        <time>2016-07-21T21:35:58Z</time>
      </trkpt>
      <trkpt lat="45.09294" lon="14.87385">
        <ele>366</ele>
        <time>2016-07-21T21:37:58Z</time>
      </trkpt>
      <trkpt lat="45.09291" lon="14.87393">
        <ele>367</ele>
        <time>2016-07-21T21:39:58Z</time>
      </trkpt>
      <trkpt lat="45.09284" lon="14.87402">
        <ele>368</ele>
        <time>2016-07-21T21:41:58Z</time>
      </trkpt>
      <trkpt lat="45.09272" lon="14.87413">
        <ele>368</ele>
        <time>2016-07-21T21:43:58Z</time>
      </trkpt>
      <trkpt lat="45.09265" lon="14.87417">
        <ele>368</ele>
        <time>2016-07-21T21:45:58Z</time>
      </trkpt>
      <trkpt lat="45.09261" lon="14.87421">
        <ele>368</ele>
        <time>2016-07-21T21:47:58Z</time>
      </trkpt>
      <trkpt lat="45.09257" lon="14.8743">
        <ele>369</ele>
        <time>2016-07-21T21:49:58Z</time>
      </trkpt>
      <trkpt lat="45.09248" lon="14.87455">
        <ele>372</ele>
        <time>2016-07-21T21:51:58Z</time>
      </trkpt>
      <trkpt lat="45.09241" lon="14.87469">
        <ele>374</ele>
        <time>2016-07-21T21:53:58Z</time>
      </trkpt>
      <trkpt lat="45.09234" lon="14.87483">
        <ele>376</ele>
        <time>2016-07-21T21:55:58Z</time>
      </trkpt>
      <trkpt lat="45.09231" lon="14.87488">
        <ele>376</ele>
        <time>2016-07-21T21:57:58Z</time>
      </trkpt>
      <trkpt lat="45.09229" lon="14.87492">
        <ele>376</ele>
        <time>2016-07-21T21:59:58Z</time>
      </trkpt>
      <trkpt lat="45.09228" lon="14.87493">
        <ele>377</ele>
        <time>2016-07-21T22:01:58Z</time>
      </trkpt>
      <trkpt lat="45.09226" lon="14.87495">
        <ele>377</ele>
        <time>2016-07-21T22:03:58Z</time>
      </trkpt>
      <trkpt lat="45.09222" lon="14.87497">
        <ele>377</ele>
        <time>2016-07-21T22:05:58Z</time>
      </trkpt>
      <trkpt lat="45.09215" lon="14.87502">
        <ele>377</ele>
        <time>2016-07-21T22:07:58Z</time>
      </trkpt>
      <trkpt lat="45.09208" lon="14.87506">
        <ele>377</ele>
        <time>2016-07-21T22:09:58Z</time>
      </trkpt>
      <trkpt lat="45.092" lon="14.87509">
        <ele>377</ele>
        <time>2016-07-21T22:11:58Z</time>
      </trkpt>
      <trkpt lat="45.09191" lon="14.87512">
        <ele>376</ele>
        <time>2016-07-21T22:13:58Z</time>
      </trkpt>
      <trkpt lat="45.09178" lon="14.87519">
        <ele>376</ele>
        <time>2016-07-21T22:15:58Z</time>
      </trkpt>
      <trkpt lat="45.09156" lon="14.87531">
        <ele>375</ele>
        <time>2016-07-21T22:17:58Z</time>
      </trkpt>
      <trkpt lat="45.09156" lon="14.87531">
        <ele>375</ele>
        <time>2016-07-21T22:19:58Z</time>
      </trkpt>
      <trkpt lat="45.0916" lon="14.87536">
        <ele>375</ele>
        <time>2016-07-21T22:21:58Z</time>
      </trkpt>
      <trkpt lat="45.09163" lon="14.87541">
        <ele>375</ele>
        <time>2016-07-21T22:23:58Z</time>
      </trkpt>
      <trkpt lat="45.09165" lon="14.87545">
        <ele>375</ele>
        <time>2016-07-21T22:25:58Z</time>
      </trkpt>
      <trkpt lat="45.09167" lon="14.8755">
        <ele>376</ele>
        <time>2016-07-21T22:27:58Z</time>
      </trkpt>
      <trkpt lat="45.09169" lon="14.87555">
        <ele>376</ele>
        <time>2016-07-21T22:29:58Z</time>
      </trkpt>
      <trkpt lat="45.0917" lon="14.8756">
        <ele>376</ele>
        <time>2016-07-21T22:31:58Z</time>
      </trkpt>
      <trkpt lat="45.09172" lon="14.87571">
        <ele>376</ele>
        <time>2016-07-21T22:33:58Z</time>
      </trkpt>
      <trkpt lat="45.09173" lon="14.87582">
        <ele>377</ele>
        <time>2016-07-21T22:35:58Z</time>
      </trkpt>
      <trkpt lat="45.09173" lon="14.87595">
        <ele>377</ele>
        <time>2016-07-21T22:37:58Z</time>
      </trkpt>
      <trkpt lat="45.09173" lon="14.87616">
        <ele>378</ele>
        <time>2016-07-21T22:39:58Z</time>
      </trkpt>
      <trkpt lat="45.09173" lon="14.87628">
        <ele>379</ele>
        <time>2016-07-21T22:41:58Z</time>
      </trkpt>
      <trkpt lat="45.09173" lon="14.87634">
        <ele>379</ele>
        <time>2016-07-21T22:43:58Z</time>
      </trkpt>
      <trkpt lat="45.09172" lon="14.87642">
        <ele>379</ele>
        <time>2016-07-21T22:45:58Z</time>
      </trkpt>
      <trkpt lat="45.0917" lon="14.8765">
        <ele>379</ele>
        <time>2016-07-21T22:47:58Z</time>
      </trkpt>
      <trkpt lat="45.09166" lon="14.87664">
        <ele>379</ele>
        <time>2016-07-21T22:49:58Z</time>
      </trkpt>
      <trkpt lat="45.09161" lon="14.8768">
        <ele>379</ele>
        <time>2016-07-21T22:51:58Z</time>
      </trkpt>
      <trkpt lat="45.09157" lon="14.87694">
        <ele>380</ele>
        <time>2016-07-21T22:53:58Z</time>
      </trkpt>
      <trkpt lat="45.09153" lon="14.87707">
        <ele>380</ele>
        <time>2016-07-21T22:55:58Z</time>
      </trkpt>
      <trkpt lat="45.09152" lon="14.87713">
        <ele>380</ele>
        <time>2016-07-21T22:57:58Z</time>
      </trkpt>
      <trkpt lat="45.09151" lon="14.8772">
        <ele>381</ele>
        <time>2016-07-21T22:59:58Z</time>
      </trkpt>
      <trkpt lat="45.0915" lon="14.87726">
        <ele>381</ele>
        <time>2016-07-21T23:01:58Z</time>
      </trkpt>
      <trkpt lat="45.09149" lon="14.87739">
        <ele>382</ele>
        <time>2016-07-21T23:03:58Z</time>
      </trkpt>
      <trkpt lat="45.09151" lon="14.87812">
        <ele>388</ele>
        <time>2016-07-21T23:05:58Z</time>
      </trkpt>
      <trkpt lat="45.0915" lon="14.87823">
        <ele>389</ele>
        <time>2016-07-21T23:07:58Z</time>
      </trkpt>
      <trkpt lat="45.0915" lon="14.87831">
        <ele>389</ele>
        <time>2016-07-21T23:09:58Z</time>
      </trkpt>
      <trkpt lat="45.0915" lon="14.8784">
        <ele>390</ele>
        <time>2016-07-21T23:11:58Z</time>
      </trkpt>
      <trkpt lat="45.09149" lon="14.87844">
        <ele>390</ele>
        <time>2016-07-21T23:13:58Z</time>
      </trkpt>
      <trkpt lat="45.09148" lon="14.87847">
        <ele>390</ele>
        <time>2016-07-21T23:15:58Z</time>
      </trkpt>
      <trkpt lat="45.09147" lon="14.87851">
        <ele>390</ele>
        <time>2016-07-21T23:17:58Z</time>
      </trkpt>
      <trkpt lat="45.09146" lon="14.87855">
        <ele>391</ele>
        <time>2016-07-21T23:19:58Z</time>
      </trkpt>
      <trkpt lat="45.09145" lon="14.87859">
        <ele>391</ele>
        <time>2016-07-21T23:21:58Z</time>
      </trkpt>
      <trkpt lat="45.09143" lon="14.87862">
        <ele>391</ele>
        <time>2016-07-21T23:23:58Z</time>
      </trkpt>
      <trkpt lat="45.0914" lon="14.87869">
        <ele>391</ele>
        <time>2016-07-21T23:25:58Z</time>
      </trkpt>
      <trkpt lat="45.09137" lon="14.87879">
        <ele>391</ele>
        <time>2016-07-21T23:27:58Z</time>
      </trkpt>
      <trkpt lat="45.09132" lon="14.87895">
        <ele>391</ele>
        <time>2016-07-21T23:29:58Z</time>
      </trkpt>
      <trkpt lat="45.0913" lon="14.87903">
        <ele>391</ele>
        <time>2016-07-21T23:31:58Z</time>
      </trkpt>
      <trkpt lat="45.0913" lon="14.87912">
        <ele>392</ele>
        <time>2016-07-21T23:33:58Z</time>
      </trkpt>
      <trkpt lat="45.0913" lon="14.87925">
        <ele>393</ele>
        <time>2016-07-21T23:35:58Z</time>
      </trkpt>
      <trkpt lat="45.09131" lon="14.87943">
        <ele>393</ele>
        <time>2016-07-21T23:37:58Z</time>
      </trkpt>
      <trkpt lat="45.09132" lon="14.87974">
        <ele>395</ele>
        <time>2016-07-21T23:39:58Z</time>
      </trkpt>
      <trkpt lat="45.09133" lon="14.87984">
        <ele>395</ele>
        <time>2016-07-21T23:41:58Z</time>
      </trkpt>
      <trkpt lat="45.09133" lon="14.87993">
        <ele>396</ele>
        <time>2016-07-21T23:43:58Z</time>
      </trkpt>
      <trkpt lat="45.09132" lon="14.87999">
        <ele>396</ele>
        <time>2016-07-21T23:45:58Z</time>
      </trkpt>
      <trkpt lat="45.09132" lon="14.88001">
        <ele>396</ele>
        <time>2016-07-21T23:47:58Z</time>
      </trkpt>
      <trkpt lat="45.09131" lon="14.88008">
        <ele>397</ele>
        <time>2016-07-21T23:49:58Z</time>
      </trkpt>
      <trkpt lat="45.0913" lon="14.88011">
        <ele>397</ele>
        <time>2016-07-21T23:51:58Z</time>
      </trkpt>
      <trkpt lat="45.09128" lon="14.88014">
        <ele>397</ele>
        <time>2016-07-21T23:53:58Z</time>
      </trkpt>
      <trkpt lat="45.09125" lon="14.88019">
        <ele>397</ele>
        <time>2016-07-21T23:55:58Z</time>
      </trkpt>
      <trkpt lat="45.09061" lon="14.881">
        <ele>402</ele>
        <time>2016-07-21T23:57:58Z</time>
      </trkpt>
      <trkpt lat="45.09033" lon="14.88139">
        <ele>407</ele>
        <time>2016-07-21T23:59:58Z</time>
      </trkpt>
      <trkpt lat="45.09026" lon="14.88151">
        <ele>408</ele>
        <time>2016-07-22T00:01:58Z</time>
      </trkpt>
      <trkpt lat="45.0902" lon="14.8816">
        <ele>409</ele>
        <time>2016-07-22T00:03:58Z</time>
      </trkpt>
      <trkpt lat="45.0901" lon="14.88171">
        <ele>410</ele>
        <time>2016-07-22T00:05:58Z</time>
      </trkpt>
      <trkpt lat="45.09004" lon="14.88177">
        <ele>411</ele>
        <time>2016-07-22T00:07:58Z</time>
      </trkpt>
      <trkpt lat="45.08991" lon="14.88189">
        <ele>412</ele>
        <time>2016-07-22T00:09:58Z</time>
      </trkpt>
      <trkpt lat="45.08977" lon="14.882">
        <ele>413</ele>
        <time>2016-07-22T00:11:58Z</time>
      </trkpt>
      <trkpt lat="45.0896" lon="14.88216">
        <ele>415</ele>
        <time>2016-07-22T00:13:58Z</time>
      </trkpt>
      <trkpt lat="45.08956" lon="14.88219">
        <ele>416</ele>
        <time>2016-07-22T00:15:58Z</time>
      </trkpt>
      <trkpt lat="45.08952" lon="14.88221">
        <ele>416</ele>
        <time>2016-07-22T00:17:58Z</time>
      </trkpt>
      <trkpt lat="45.08913" lon="14.88231">
        <ele>417</ele>
        <time>2016-07-22T00:19:58Z</time>
      </trkpt>
      <trkpt lat="45.08906" lon="14.88233">
        <ele>417</ele>
        <time>2016-07-22T00:21:58Z</time>
      </trkpt>
      <trkpt lat="45.089" lon="14.88237">
        <ele>418</ele>
        <time>2016-07-22T00:23:58Z</time>
      </trkpt>
      <trkpt lat="45.08879" lon="14.88253">
        <ele>419</ele>
        <time>2016-07-22T00:25:58Z</time>
      </trkpt>
      <trkpt lat="45.08851" lon="14.88275">
        <ele>420</ele>
        <time>2016-07-22T00:27:58Z</time>
      </trkpt>
      <trkpt lat="45.08818" lon="14.88305">
        <ele>421</ele>
        <time>2016-07-22T00:29:58Z</time>
      </trkpt>
      <trkpt lat="45.08778" lon="14.88345">
        <ele>424</ele>
        <time>2016-07-22T00:31:58Z</time>
      </trkpt>
      <trkpt lat="45.08767" lon="14.88355">
        <ele>425</ele>
        <time>2016-07-22T00:33:58Z</time>
      </trkpt>
      <trkpt lat="45.08758" lon="14.88361">
        <ele>426</ele>
        <time>2016-07-22T00:35:58Z</time>
      </trkpt>
      <trkpt lat="45.08751" lon="14.88365">
        <ele>426</ele>
        <time>2016-07-22T00:37:58Z</time>
      </trkpt>
      <trkpt lat="45.087" lon="14.88398">
        <ele>430</ele>
        <time>2016-07-22T00:39:58Z</time>
      </trkpt>
      <trkpt lat="45.08646" lon="14.88433">
        <ele>434</ele>
        <time>2016-07-22T00:41:58Z</time>
      </trkpt>
      <trkpt lat="45.08617" lon="14.88452">
        <ele>436</ele>
        <time>2016-07-22T00:43:58Z</time>
      </trkpt>
      <trkpt lat="45.08602" lon="14.88465">
        <ele>437</ele>
        <time>2016-07-22T00:45:58Z</time>
      </trkpt>
      <trkpt lat="45.08576" lon="14.88488">
        <ele>440</ele>
        <time>2016-07-22T00:47:58Z</time>
      </trkpt>
      <trkpt lat="45.08555" lon="14.88505">
        <ele>442</ele>
        <time>2016-07-22T00:49:58Z</time>
      </trkpt>
      <trkpt lat="45.08535" lon="14.88518">
        <ele>444</ele>
        <time>2016-07-22T00:51:58Z</time>
      </trkpt>
      <trkpt lat="45.0852" lon="14.88527">
        <ele>445</ele>
        <time>2016-07-22T00:53:58Z</time>
      </trkpt>
      <trkpt lat="45.08483" lon="14.88554">
        <ele>449</ele>
        <time>2016-07-22T00:55:58Z</time>
      </trkpt>
      <trkpt lat="45.0845" lon="14.88578">
        <ele>450</ele>
        <time>2016-07-22T00:57:58Z</time>
      </trkpt>
      <trkpt lat="45.08434" lon="14.88592">
        <ele>450</ele>
        <time>2016-07-22T00:59:58Z</time>
      </trkpt>
      <trkpt lat="45.084" lon="14.88635">
        <ele>453</ele>
        <time>2016-07-22T01:01:58Z</time>
      </trkpt>
      <trkpt lat="45.0838" lon="14.88661">
        <ele>455</ele>
        <time>2016-07-22T01:03:58Z</time>
      </trkpt>
      <trkpt lat="45.08342" lon="14.88723">
        <ele>459</ele>
        <time>2016-07-22T01:05:58Z</time>
      </trkpt>
      <trkpt lat="45.08259" lon="14.8885">
        <ele>469</ele>
        <time>2016-07-22T01:07:58Z</time>
      </trkpt>
      <trkpt lat="45.08235" lon="14.88884">
        <ele>474</ele>
        <time>2016-07-22T01:09:58Z</time>
      </trkpt>
      <trkpt lat="45.08221" lon="14.88907">
        <ele>477</ele>
        <time>2016-07-22T01:11:58Z</time>
      </trkpt>
      <trkpt lat="45.08219" lon="14.88912">
        <ele>478</ele>
        <time>2016-07-22T01:13:58Z</time>
      </trkpt>
      <trkpt lat="45.08218" lon="14.88916">
        <ele>479</ele>
        <time>2016-07-22T01:15:58Z</time>
      </trkpt>
      <trkpt lat="45.08218" lon="14.88921">
        <ele>480</ele>
        <time>2016-07-22T01:17:58Z</time>
      </trkpt>
      <trkpt lat="45.0822" lon="14.8893">
        <ele>481</ele>
        <time>2016-07-22T01:19:58Z</time>
      </trkpt>
      <trkpt lat="45.08222" lon="14.88937">
        <ele>483</ele>
        <time>2016-07-22T01:21:58Z</time>
      </trkpt>
      <trkpt lat="45.08225" lon="14.88942">
        <ele>484</ele>
        <time>2016-07-22T01:23:58Z</time>
      </trkpt>
      <trkpt lat="45.08229" lon="14.88946">
        <ele>485</ele>
        <time>2016-07-22T01:25:58Z</time>
      </trkpt>
      <trkpt lat="45.08232" lon="14.88949">
        <ele>485</ele>
        <time>2016-07-22T01:27:58Z</time>
      </trkpt>
      <trkpt lat="45.08237" lon="14.8895">
        <ele>486</ele>
        <time>2016-07-22T01:29:58Z</time>
      </trkpt>
      <trkpt lat="45.08262" lon="14.88952">
        <ele>488</ele>
        <time>2016-07-22T01:31:58Z</time>
      </trkpt>
      <trkpt lat="45.08397" lon="14.88947">
        <ele>499</ele>
        <time>2016-07-22T01:33:58Z</time>
      </trkpt>
      <trkpt lat="45.08419" lon="14.88947">
        <ele>500</ele>
        <time>2016-07-22T01:35:58Z</time>
      </trkpt>
      <trkpt lat="45.0843" lon="14.88946">
        <ele>501</ele>
        <time>2016-07-22T01:37:58Z</time>
      </trkpt>
      <trkpt lat="45.08444" lon="14.88941">
        <ele>502</ele>
        <time>2016-07-22T01:39:58Z</time>
      </trkpt>
      <trkpt lat="45.08477" lon="14.88927">
        <ele>502</ele>
        <time>2016-07-22T01:41:58Z</time>
      </trkpt>
      <trkpt lat="45.08486" lon="14.88927">
        <ele>502</ele>
        <time>2016-07-22T01:43:58Z</time>
      </trkpt>
      <trkpt lat="45.08499" lon="14.88931">
        <ele>505</ele>
        <time>2016-07-22T01:45:58Z</time>
      </trkpt>
      <trkpt lat="45.08521" lon="14.88944">
        <ele>509</ele>
        <time>2016-07-22T01:47:58Z</time>
      </trkpt>
      <trkpt lat="45.0854" lon="14.88951">
        <ele>512</ele>
        <time>2016-07-22T01:49:58Z</time>
      </trkpt>
      <trkpt lat="45.08569" lon="14.88958">
        <ele>515</ele>
        <time>2016-07-22T01:51:58Z</time>
      </trkpt>
      <trkpt lat="45.0859" lon="14.88958">
        <ele>517</ele>
        <time>2016-07-22T01:53:58Z</time>
      </trkpt>
      <trkpt lat="45.08605" lon="14.88956">
        <ele>519</ele>
        <time>2016-07-22T01:55:58Z</time>
      </trkpt>
      <trkpt lat="45.08623" lon="14.88951">
        <ele>520</ele>
        <time>2016-07-22T01:57:58Z</time>
      </trkpt>
      <trkpt lat="45.08643" lon="14.88943">
        <ele>521</ele>
        <time>2016-07-22T01:59:58Z</time>
      </trkpt>
      <trkpt lat="45.08662" lon="14.88931">
        <ele>520</ele>
        <time>2016-07-22T02:01:58Z</time>
      </trkpt>
      <trkpt lat="45.08682" lon="14.88914">
        <ele>519</ele>
        <time>2016-07-22T02:03:58Z</time>
      </trkpt>
      <trkpt lat="45.08697" lon="14.88898">
        <ele>518</ele>
        <time>2016-07-22T02:05:58Z</time>
      </trkpt>
      <trkpt lat="45.0871" lon="14.88888">
        <ele>518</ele>
        <time>2016-07-22T02:07:58Z</time>
      </trkpt>
      <trkpt lat="45.08718" lon="14.88884">
        <ele>519</ele>
        <time>2016-07-22T02:09:58Z</time>
      </trkpt>
      <trkpt lat="45.0873" lon="14.88882">
        <ele>520</ele>
        <time>2016-07-22T02:11:58Z</time>
      </trkpt>
      <trkpt lat="45.0876" lon="14.88882">
        <ele>524</ele>
        <time>2016-07-22T02:13:58Z</time>
      </trkpt>
      <trkpt lat="45.08907" lon="14.88902">
        <ele>537</ele>
        <time>2016-07-22T02:15:58Z</time>
      </trkpt>
      <trkpt lat="45.0897" lon="14.8891">
        <ele>542</ele>
        <time>2016-07-22T02:17:58Z</time>
      </trkpt>
      <trkpt lat="45.08989" lon="14.88918">
        <ele>545</ele>
        <time>2016-07-22T02:19:58Z</time>
      </trkpt>
      <trkpt lat="45.09004" lon="14.8893">
        <ele>547</ele>
        <time>2016-07-22T02:21:58Z</time>
      </trkpt>
      <trkpt lat="45.09019" lon="14.88947">
        <ele>549</ele>
        <time>2016-07-22T02:23:58Z</time>
      </trkpt>
      <trkpt lat="45.09033" lon="14.88971">
        <ele>553</ele>
        <time>2016-07-22T02:25:58Z</time>
      </trkpt>
      <trkpt lat="45.09041" lon="14.88996">
        <ele>556</ele>
        <time>2016-07-22T02:27:58Z</time>
      </trkpt>
      <trkpt lat="45.09046" lon="14.89027">
        <ele>558</ele>
        <time>2016-07-22T02:29:58Z</time>
      </trkpt>
      <trkpt lat="45.09048" lon="14.89059">
        <ele>561</ele>
        <time>2016-07-22T02:31:58Z</time>
      </trkpt>
      <trkpt lat="45.09046" lon="14.89106">
        <ele>564</ele>
        <time>2016-07-22T02:33:58Z</time>
      </trkpt>
      <trkpt lat="45.09038" lon="14.89285">
        <ele>569</ele>
        <time>2016-07-22T02:35:58Z</time>
      </trkpt>
      <trkpt lat="45.09038" lon="14.89296">
        <ele>570</ele>
        <time>2016-07-22T02:37:58Z</time>
      </trkpt>
      <trkpt lat="45.09043" lon="14.89323">
        <ele>571</ele>
        <time>2016-07-22T02:39:58Z</time>
      </trkpt>
      <trkpt lat="45.09051" lon="14.89358">
        <ele>573</ele>
        <time>2016-07-22T02:41:58Z</time>
      </trkpt>
      <trkpt lat="45.09062" lon="14.8939">
        <ele>575</ele>
        <time>2016-07-22T02:43:58Z</time>
      </trkpt>
      <trkpt lat="45.09076" lon="14.89422">
        <ele>577</ele>
        <time>2016-07-22T02:45:58Z</time>
      </trkpt>
      <trkpt lat="45.09101" lon="14.89456">
        <ele>581</ele>
        <time>2016-07-22T02:47:58Z</time>
      </trkpt>
      <trkpt lat="45.09122" lon="14.8948">
        <ele>583</ele>
        <time>2016-07-22T02:49:58Z</time>
      </trkpt>
      <trkpt lat="45.0914" lon="14.89494">
        <ele>584</ele>
        <time>2016-07-22T02:51:58Z</time>
      </trkpt>
      <trkpt lat="45.09173" lon="14.8951">
        <ele>585</ele>
        <time>2016-07-22T02:53:58Z</time>
      </trkpt>
      <trkpt lat="45.09254" lon="14.89549">
        <ele>593</ele>
        <time>2016-07-22T02:55:58Z</time>
      </trkpt>
      <trkpt lat="45.09261" lon="14.89552">
        <ele>594</ele>
        <time>2016-07-22T02:57:58Z</time>
      </trkpt>
      <trkpt lat="45.09278" lon="14.8956">
        <ele>595</ele>
        <time>2016-07-22T02:59:58Z</time>
      </trkpt>
      <trkpt lat="45.09314" lon="14.89579">
        <ele>597</ele>
        <time>2016-07-22T03:01:58Z</time>
      </trkpt>
      <trkpt lat="45.09329" lon="14.89592">
        <ele>599</ele>
        <time>2016-07-22T03:03:58Z</time>
      </trkpt>
      <trkpt lat="45.09334" lon="14.89597">
        <ele>600</ele>
        <time>2016-07-22T03:05:58Z</time>
      </trkpt>
      <trkpt lat="45.09338" lon="14.89603">
        <ele>601</ele>
        <time>2016-07-22T03:07:58Z</time>
      </trkpt>
      <trkpt lat="45.09342" lon="14.89609">
        <ele>603</ele>
        <time>2016-07-22T03:09:58Z</time>
      </trkpt>
      <trkpt lat="45.09343" lon="14.89611">
        <ele>603</ele>
        <time>2016-07-22T03:11:58Z</time>
      </trkpt>
      <trkpt lat="45.09345" lon="14.89616">
        <ele>604</ele>
        <time>2016-07-22T03:13:58Z</time>
      </trkpt>
      <trkpt lat="45.09348" lon="14.89624">
        <ele>605</ele>
        <time>2016-07-22T03:15:58Z</time>
      </trkpt>
      <trkpt lat="45.0935" lon="14.89632">
        <ele>607</ele>
        <time>2016-07-22T03:17:58Z</time>
      </trkpt>
      <trkpt lat="45.09351" lon="14.8964">
        <ele>608</ele>
        <time>2016-07-22T03:19:58Z</time>
      </trkpt>
      <trkpt lat="45.09352" lon="14.89648">
        <ele>609</ele>
        <time>2016-07-22T03:21:58Z</time>
      </trkpt>
      <trkpt lat="45.09353" lon="14.89657">
        <ele>610</ele>
        <time>2016-07-22T03:23:58Z</time>
      </trkpt>
      <trkpt lat="45.09353" lon="14.89666">
        <ele>612</ele>
        <time>2016-07-22T03:25:58Z</time>
      </trkpt>
      <trkpt lat="45.09353" lon="14.89675">
        <ele>612</ele>
        <time>2016-07-22T03:27:58Z</time>
      </trkpt>
      <trkpt lat="45.09352" lon="14.89683">
        <ele>613</ele>
        <time>2016-07-22T03:29:58Z</time>
      </trkpt>
      <trkpt lat="45.0935" lon="14.89692">
        <ele>613</ele>
        <time>2016-07-22T03:31:58Z</time>
      </trkpt>
      <trkpt lat="45.09346" lon="14.89707">
        <ele>614</ele>
        <time>2016-07-22T03:33:58Z</time>
      </trkpt>
      <trkpt lat="45.09264" lon="14.90031">
        <ele>621</ele>
        <time>2016-07-22T03:35:58Z</time>
      </trkpt>
      <trkpt lat="45.09258" lon="14.90056">
        <ele>622</ele>
        <time>2016-07-22T03:37:58Z</time>
      </trkpt>
      <trkpt lat="45.09256" lon="14.90068">
        <ele>622</ele>
        <time>2016-07-22T03:39:58Z</time>
      </trkpt>
      <trkpt lat="45.09256" lon="14.90077">
        <ele>623</ele>
        <time>2016-07-22T03:41:58Z</time>
      </trkpt>
      <trkpt lat="45.09256" lon="14.90083">
        <ele>623</ele>
        <time>2016-07-22T03:43:58Z</time>
      </trkpt>
      <trkpt lat="45.09257" lon="14.90089">
        <ele>623</ele>
        <time>2016-07-22T03:45:58Z</time>
      </trkpt>
      <trkpt lat="45.09258" lon="14.90095">
        <ele>623</ele>
        <time>2016-07-22T03:47:58Z</time>
      </trkpt>
      <trkpt lat="45.09259" lon="14.901">
        <ele>623</ele>
        <time>2016-07-22T03:49:58Z</time>
      </trkpt>
      <trkpt lat="45.0926" lon="14.90106">
        <ele>623</ele>
        <time>2016-07-22T03:51:58Z</time>
      </trkpt>
      <trkpt lat="45.09261" lon="14.90109">
        <ele>623</ele>
        <time>2016-07-22T03:53:58Z</time>
      </trkpt>
      <trkpt lat="45.09263" lon="14.90114">
        <ele>624</ele>
        <time>2016-07-22T03:55:58Z</time>
      </trkpt>
      <trkpt lat="45.09266" lon="14.90118">
        <ele>624</ele>
        <time>2016-07-22T03:57:58Z</time>
      </trkpt>
      <trkpt lat="45.09272" lon="14.90126">
        <ele>624</ele>
        <time>2016-07-22T03:59:58Z</time>
      </trkpt>
      <trkpt lat="45.09286" lon="14.90138">
        <ele>624</ele>
        <time>2016-07-22T04:01:58Z</time>
      </trkpt>
      <trkpt lat="45.09303" lon="14.9015">
        <ele>625</ele>
        <time>2016-07-22T04:03:58Z</time>
      </trkpt>
      <trkpt lat="45.09316" lon="14.90157">
        <ele>625</ele>
        <time>2016-07-22T04:05:58Z</time>
      </trkpt>
      <trkpt lat="45.09327" lon="14.90162">
        <ele>626</ele>
        <time>2016-07-22T04:07:58Z</time>
      </trkpt>
      <trkpt lat="45.09338" lon="14.90163">
        <ele>626</ele>
        <time>2016-07-22T04:09:58Z</time>
      </trkpt>
      <trkpt lat="45.0935" lon="14.90163">
        <ele>627</ele>
        <time>2016-07-22T04:11:58Z</time>
      </trkpt>
      <trkpt lat="45.09364" lon="14.90162">
        <ele>627</ele>
        <time>2016-07-22T04:13:58Z</time>
      </trkpt>
      <trkpt lat="45.09376" lon="14.90157">
        <ele>627</ele>
        <time>2016-07-22T04:15:58Z</time>
      </trkpt>
      <trkpt lat="45.09389" lon="14.9015">
        <ele>628</ele>
        <time>2016-07-22T04:17:58Z</time>
      </trkpt>
      <trkpt lat="45.09423" lon="14.90114">
        <ele>630</ele>
        <time>2016-07-22T04:19:58Z</time>
      </trkpt>
      <trkpt lat="45.09576" lon="14.89945">
        <ele>648</ele>
        <time>2016-07-22T04:21:58Z</time>
      </trkpt>
      <trkpt lat="45.09589" lon="14.89932">
        <ele>649</ele>
        <time>2016-07-22T04:23:58Z</time>
      </trkpt>
      <trkpt lat="45.09595" lon="14.8993">
        <ele>650</ele>
        <time>2016-07-22T04:25:58Z</time>
      </trkpt>
      <trkpt lat="45.096" lon="14.89931">
        <ele>651</ele>
        <time>2016-07-22T04:27:58Z</time>
      </trkpt>
      <trkpt lat="45.09603" lon="14.89935">
        <ele>652</ele>
        <time>2016-07-22T04:29:58Z</time>
      </trkpt>
      <trkpt lat="45.09606" lon="14.89941">
        <ele>654</ele>
        <time>2016-07-22T04:31:58Z</time>
      </trkpt>
      <trkpt lat="45.09607" lon="14.89947">
        <ele>655</ele>
        <time>2016-07-22T04:33:58Z</time>
      </trkpt>
      <trkpt lat="45.09607" lon="14.89955">
        <ele>656</ele>
        <time>2016-07-22T04:35:58Z</time>
      </trkpt>
      <trkpt lat="45.09605" lon="14.89972">
        <ele>657</ele>
        <time>2016-07-22T04:37:58Z</time>
      </trkpt>
      <trkpt lat="45.09594" lon="14.90051">
        <ele>664</ele>
        <time>2016-07-22T04:39:58Z</time>
      </trkpt>
      <trkpt lat="45.09591" lon="14.90094">
        <ele>667</ele>
        <time>2016-07-22T04:41:58Z</time>
      </trkpt>
      <trkpt lat="45.0959" lon="14.90118">
        <ele>667</ele>
        <time>2016-07-22T04:43:58Z</time>
      </trkpt>
      <trkpt lat="45.0959" lon="14.90156">
        <ele>668</ele>
        <time>2016-07-22T04:45:58Z</time>
      </trkpt>
      <trkpt lat="45.09592" lon="14.90223">
        <ele>670</ele>
        <time>2016-07-22T04:47:58Z</time>
      </trkpt>
      <trkpt lat="45.09591" lon="14.90255">
        <ele>671</ele>
        <time>2016-07-22T04:49:58Z</time>
      </trkpt>
      <trkpt lat="45.09588" lon="14.9028">
        <ele>672</ele>
        <time>2016-07-22T04:51:58Z</time>
      </trkpt>
      <trkpt lat="45.09584" lon="14.9032">
        <ele>676</ele>
        <time>2016-07-22T04:53:58Z</time>
      </trkpt>
      <trkpt lat="45.0958" lon="14.90408">
        <ele>678</ele>
        <time>2016-07-22T04:55:58Z</time>
      </trkpt>
      <trkpt lat="45.0958" lon="14.90452">
        <ele>679</ele>
        <time>2016-07-22T04:57:58Z</time>
      </trkpt>
      <trkpt lat="45.09582" lon="14.90467">
        <ele>679</ele>
        <time>2016-07-22T04:59:58Z</time>
      </trkpt>
      <trkpt lat="45.09585" lon="14.90482">
        <ele>680</ele>
        <time>2016-07-22T05:01:58Z</time>
      </trkpt>
      <trkpt lat="45.0959" lon="14.90495">
        <ele>681</ele>
        <time>2016-07-22T05:03:58Z</time>
      </trkpt>
      <trkpt lat="45.09595" lon="14.90503">
        <ele>681</ele>
        <time>2016-07-22T05:05:58Z</time>
      </trkpt>
      <trkpt lat="45.09602" lon="14.9051">
        <ele>682</ele>
        <time>2016-07-22T05:07:58Z</time>
      </trkpt>
      <trkpt lat="45.0961" lon="14.90516">
        <ele>683</ele>
        <time>2016-07-22T05:09:58Z</time>
      </trkpt>
      <trkpt lat="45.09621" lon="14.9052">
        <ele>684</ele>
        <time>2016-07-22T05:11:58Z</time>
      </trkpt>
      <trkpt lat="45.09631" lon="14.90522">
        <ele>685</ele>
        <time>2016-07-22T05:13:58Z</time>
      </trkpt>
      <trkpt lat="45.0964" lon="14.90523">
        <ele>686</ele>
        <time>2016-07-22T05:15:58Z</time>
      </trkpt>
      <trkpt lat="45.09658" lon="14.9052">
        <ele>688</ele>
        <time>2016-07-22T05:17:58Z</time>
      </trkpt>
      <trkpt lat="45.0971" lon="14.9051">
        <ele>692</ele>
        <time>2016-07-22T05:19:58Z</time>
      </trkpt>
      <trkpt lat="45.09781" lon="14.90497">
        <ele>698</ele>
        <time>2016-07-22T05:21:58Z</time>
      </trkpt>
      <trkpt lat="45.09799" lon="14.90494">
        <ele>700</ele>
        <time>2016-07-22T05:23:58Z</time>
      </trkpt>
      <trkpt lat="45.09816" lon="14.90492">
        <ele>702</ele>
        <time>2016-07-22T05:25:58Z</time>
      </trkpt>
      <trkpt lat="45.09824" lon="14.90492">
        <ele>703</ele>
        <time>2016-07-22T05:27:58Z</time>
      </trkpt>
      <trkpt lat="45.09834" lon="14.90494">
        <ele>703</ele>
        <time>2016-07-22T05:29:58Z</time>
      </trkpt>
      <trkpt lat="45.09857" lon="14.90501">
        <ele>706</ele>
        <time>2016-07-22T05:31:58Z</time>
      </trkpt>
      <trkpt lat="45.09904" lon="14.90517">
        <ele>712</ele>
        <time>2016-07-22T05:33:58Z</time>
      </trkpt>
      <trkpt lat="45.10035" lon="14.90567">
        <ele>724</ele>
        <time>2016-07-22T05:35:58Z</time>
      </trkpt>
      <trkpt lat="45.10061" lon="14.90579">
        <ele>727</ele>
        <time>2016-07-22T05:37:58Z</time>
      </trkpt>
      <trkpt lat="45.10085" lon="14.90591">
        <ele>731</ele>
        <time>2016-07-22T05:39:58Z</time>
      </trkpt>
      <trkpt lat="45.10129" lon="14.90616">
        <ele>736</ele>
        <time>2016-07-22T05:41:58Z</time>
      </trkpt>
      <trkpt lat="45.10171" lon="14.90641">
        <ele>738</ele>
        <time>2016-07-22T05:43:58Z</time>
      </trkpt>
      <trkpt lat="45.10311" lon="14.90725">
        <ele>750</ele>
        <time>2016-07-22T05:45:58Z</time>
      </trkpt>
      <trkpt lat="45.1032" lon="14.90732">
        <ele>751</ele>
        <time>2016-07-22T05:47:58Z</time>
      </trkpt>
      <trkpt lat="45.10328" lon="14.90744">
        <ele>751</ele>
        <time>2016-07-22T05:49:58Z</time>
      </trkpt>
      <trkpt lat="45.10336" lon="14.90762">
        <ele>752</ele>
        <time>2016-07-22T05:51:58Z</time>
      </trkpt>
      <trkpt lat="45.10342" lon="14.90782">
        <ele>753</ele>
        <time>2016-07-22T05:53:58Z</time>
      </trkpt>
      <trkpt lat="45.10345" lon="14.908">
        <ele>753</ele>
        <time>2016-07-22T05:55:58Z</time>
      </trkpt>
      <trkpt lat="45.10347" lon="14.90811">
        <ele>754</ele>
        <time>2016-07-22T05:57:58Z</time>
      </trkpt>
      <trkpt lat="45.10347" lon="14.90823">
        <ele>754</ele>
        <time>2016-07-22T05:59:58Z</time>
      </trkpt>
      <trkpt lat="45.10341" lon="14.90847">
        <ele>755</ele>
        <time>2016-07-22T06:01:58Z</time>
      </trkpt>
      <trkpt lat="45.10334" lon="14.90866">
        <ele>755</ele>
        <time>2016-07-22T06:03:58Z</time>
      </trkpt>
      <trkpt lat="45.10322" lon="14.90886">
        <ele>755</ele>
        <time>2016-07-22T06:05:58Z</time>
      </trkpt>
      <trkpt lat="45.10286" lon="14.90928">
        <ele>757</ele>
        <time>2016-07-22T06:07:58Z</time>
      </trkpt>
      <trkpt lat="45.1025" lon="14.9097">
        <ele>756</ele>
        <time>2016-07-22T06:09:58Z</time>
      </trkpt>
      <trkpt lat="45.10187" lon="14.91042">
        <ele>762</ele>
        <time>2016-07-22T06:11:58Z</time>
      </trkpt>
      <trkpt lat="45.10174" lon="14.91055">
        <ele>761</ele>
        <time>2016-07-22T06:13:58Z</time>
      </trkpt>
      <trkpt lat="45.10124" lon="14.91094">
        <ele>761</ele>
        <time>2016-07-22T06:15:58Z</time>
      </trkpt>
      <trkpt lat="45.10049" lon="14.91157">
        <ele>755</ele>
        <time>2016-07-22T06:17:58Z</time>
      </trkpt>
      <trkpt lat="45.10039" lon="14.91162">
        <ele>754</ele>
        <time>2016-07-22T06:19:58Z</time>
      </trkpt>
      <trkpt lat="45.10023" lon="14.91169">
        <ele>753</ele>
        <time>2016-07-22T06:21:58Z</time>
      </trkpt>
      <trkpt lat="45.09978" lon="14.91182">
        <ele>752</ele>
        <time>2016-07-22T06:23:58Z</time>
      </trkpt>
      <trkpt lat="45.09939" lon="14.91195">
        <ele>749</ele>
        <time>2016-07-22T06:25:58Z</time>
      </trkpt>
      <trkpt lat="45.09916" lon="14.91202">
        <ele>748</ele>
        <time>2016-07-22T06:27:58Z</time>
      </trkpt>
      <trkpt lat="45.09911" lon="14.91203">
        <ele>748</ele>
        <time>2016-07-22T06:29:58Z</time>
      </trkpt>
      <trkpt lat="45.09905" lon="14.91205">
        <ele>747</ele>
        <time>2016-07-22T06:31:58Z</time>
      </trkpt>
      <trkpt lat="45.09892" lon="14.91205">
        <ele>747</ele>
        <time>2016-07-22T06:33:58Z</time>
      </trkpt>
      <trkpt lat="45.09875" lon="14.91202">
        <ele>747</ele>
        <time>2016-07-22T06:35:58Z</time>
      </trkpt>
      <trkpt lat="45.0984" lon="14.91195">
        <ele>746</ele>
        <time>2016-07-22T06:37:58Z</time>
      </trkpt>
      <trkpt lat="45.09821" lon="14.91194">
        <ele>746</ele>
        <time>2016-07-22T06:39:58Z</time>
      </trkpt>
      <trkpt lat="45.09806" lon="14.91194">
        <ele>745</ele>
        <time>2016-07-22T06:41:58Z</time>
      </trkpt>
      <trkpt lat="45.09785" lon="14.91199">
        <ele>744</ele>
        <time>2016-07-22T06:43:58Z</time>
      </trkpt>
      <trkpt lat="45.09783" lon="14.912">
        <ele>744</ele>
        <time>2016-07-22T06:45:58Z</time>
      </trkpt>
      <trkpt lat="45.09754" lon="14.91205">
        <ele>743</ele>
        <time>2016-07-22T06:47:58Z</time>
      </trkpt>
      <trkpt lat="45.09727" lon="14.91214">
        <ele>743</ele>
        <time>2016-07-22T06:49:58Z</time>
      </trkpt>
      <trkpt lat="45.09714" lon="14.91223">
        <ele>742</ele>
        <time>2016-07-22T06:51:58Z</time>
      </trkpt>
      <trkpt lat="45.09691" lon="14.9124">
        <ele>743</ele>
        <time>2016-07-22T06:53:58Z</time>
      </trkpt>
      <trkpt lat="45.09679" lon="14.91251">
        <ele>743</ele>
        <time>2016-07-22T06:55:58Z</time>
      </trkpt>
      <trkpt lat="45.0967" lon="14.91261">
        <ele>743</ele>
        <time>2016-07-22T06:57:58Z</time>
      </trkpt>
      <trkpt lat="45.0965" lon="14.91285">
        <ele>743</ele>
        <time>2016-07-22T06:59:58Z</time>
      </trkpt>
      <trkpt lat="45.09639" lon="14.91295">
        <ele>743</ele>
        <time>2016-07-22T07:01:58Z</time>
      </trkpt>
      <trkpt lat="45.09631" lon="14.91301">
        <ele>743</ele>
        <time>2016-07-22T07:03:58Z</time>
      </trkpt>
      <trkpt lat="45.09615" lon="14.91309">
        <ele>743</ele>
        <time>2016-07-22T07:05:58Z</time>
      </trkpt>
      <trkpt lat="45.09527" lon="14.91349">
        <ele>745</ele>
        <time>2016-07-22T07:07:58Z</time>
      </trkpt>
      <trkpt lat="45.09514" lon="14.91353">
        <ele>746</ele>
        <time>2016-07-22T07:09:58Z</time>
      </trkpt>
      <trkpt lat="45.09507" lon="14.91355">
        <ele>746</ele>
        <time>2016-07-22T07:11:58Z</time>
      </trkpt>
      <trkpt lat="45.09474" lon="14.91364">
        <ele>746</ele>
        <time>2016-07-22T07:13:58Z</time>
      </trkpt>
      <trkpt lat="45.09416" lon="14.9138">
        <ele>749</ele>
        <time>2016-07-22T07:15:58Z</time>
      </trkpt>
      <trkpt lat="45.09394" lon="14.91385">
        <ele>750</ele>
        <time>2016-07-22T07:17:58Z</time>
      </trkpt>
      <trkpt lat="45.09369" lon="14.91387">
        <ele>752</ele>
        <time>2016-07-22T07:19:58Z</time>
      </trkpt>
      <trkpt lat="45.09346" lon="14.91389">
        <ele>753</ele>
        <time>2016-07-22T07:21:58Z</time>
      </trkpt>
      <trkpt lat="45.09309" lon="14.91392">
        <ele>753</ele>
        <time>2016-07-22T07:23:58Z</time>
      </trkpt>
      <trkpt lat="45.09292" lon="14.91395">
        <ele>753</ele>
        <time>2016-07-22T07:25:58Z</time>
      </trkpt>
      <trkpt lat="45.09274" lon="14.91401">
        <ele>753</ele>
        <time>2016-07-22T07:27:58Z</time>
      </trkpt>
      <trkpt lat="45.09232" lon="14.91417">
        <ele>755</ele>
        <time>2016-07-22T07:29:58Z</time>
      </trkpt>
      <trkpt lat="45.09195" lon="14.9143">
        <ele>757</ele>
        <time>2016-07-22T07:31:58Z</time>
      </trkpt>
      <trkpt lat="45.09142" lon="14.91442">
        <ele>758</ele>
        <time>2016-07-22T07:33:58Z</time>
      </trkpt>
      <trkpt lat="45.09094" lon="14.91451">
        <ele>761</ele>
        <time>2016-07-22T07:35:58Z</time>
      </trkpt>
      <trkpt lat="45.09058" lon="14.91458">
        <ele>761</ele>
        <time>2016-07-22T07:37:58Z</time>
      </trkpt>
      <trkpt lat="45.09025" lon="14.91468">
        <ele>763</ele>
        <time>2016-07-22T07:39:58Z</time>
      </trkpt>
      <trkpt lat="45.08998" lon="14.91477">
        <ele>764</ele>
        <time>2016-07-22T07:41:58Z</time>
      </trkpt>
      <trkpt lat="45.08968" lon="14.91488">
        <ele>764</ele>
        <time>2016-07-22T07:43:58Z</time>
      </trkpt>
      <trkpt lat="45.08948" lon="14.91497">
        <ele>765</ele>
        <time>2016-07-22T07:45:58Z</time>
      </trkpt>
      <trkpt lat="45.0892" lon="14.91512">
        <ele>765</ele>
        <time>2016-07-22T07:47:58Z</time>
      </trkpt>
      <trkpt lat="45.0889" lon="14.91532">
        <ele>766</ele>
        <time>2016-07-22T07:49:58Z</time>
      </trkpt>
      <trkpt lat="45.08875" lon="14.91543">
        <ele>766</ele>
        <time>2016-07-22T07:51:58Z</time>
      </trkpt>
      <trkpt lat="45.08845" lon="14.91568">
        <ele>767</ele>
        <time>2016-07-22T07:53:58Z</time>
      </trkpt>
      <trkpt lat="45.0879" lon="14.91615">
        <ele>768</ele>
        <time>2016-07-22T07:55:58Z</time>
      </trkpt>
      <trkpt lat="45.08753" lon="14.91646">
        <ele>770</ele>
        <time>2016-07-22T07:57:58Z</time>
      </trkpt>
      <trkpt lat="45.08745" lon="14.91651">
        <ele>770</ele>
        <time>2016-07-22T07:59:58Z</time>
      </trkpt>
      <trkpt lat="45.08736" lon="14.91655">
        <ele>769</ele>
        <time>2016-07-22T08:01:58Z</time>
      </trkpt>
      <trkpt lat="45.08719" lon="14.91661">
        <ele>768</ele>
        <time>2016-07-22T08:03:58Z</time>
      </trkpt>
      <trkpt lat="45.08699" lon="14.91669">
        <ele>767</ele>
        <time>2016-07-22T08:05:58Z</time>
      </trkpt>
      <trkpt lat="45.08686" lon="14.91675">
        <ele>766</ele>
        <time>2016-07-22T08:07:58Z</time>
      </trkpt>
      <trkpt lat="45.08677" lon="14.91681">
        <ele>767</ele>
        <time>2016-07-22T08:09:58Z</time>
      </trkpt>
      <trkpt lat="45.08662" lon="14.91692">
        <ele>767</ele>
        <time>2016-07-22T08:11:58Z</time>
      </trkpt>
      <trkpt lat="45.08641" lon="14.91712">
        <ele>767</ele>
        <time>2016-07-22T08:13:58Z</time>
      </trkpt>
      <trkpt lat="45.08608" lon="14.9174">
        <ele>768</ele>
        <time>2016-07-22T08:15:58Z</time>
      </trkpt>
      <trkpt lat="45.08593" lon="14.9175">
        <ele>767</ele>
        <time>2016-07-22T08:17:58Z</time>
      </trkpt>
      <trkpt lat="45.08563" lon="14.91768">
        <ele>765</ele>
        <time>2016-07-22T08:19:58Z</time>
      </trkpt>
      <trkpt lat="45.08547" lon="14.91775">
        <ele>764</ele>
        <time>2016-07-22T08:21:58Z</time>
      </trkpt>
      <trkpt lat="45.08538" lon="14.9178">
        <ele>763</ele>
        <time>2016-07-22T08:23:58Z</time>
      </trkpt>
      <trkpt lat="45.08523" lon="14.91791">
        <ele>763</ele>
        <time>2016-07-22T08:25:58Z</time>
      </trkpt>
      <trkpt lat="45.08492" lon="14.91815">
        <ele>762</ele>
        <time>2016-07-22T08:27:58Z</time>
      </trkpt>
      <trkpt lat="45.08481" lon="14.91824">
        <ele>762</ele>
        <time>2016-07-22T08:29:58Z</time>
      </trkpt>
      <trkpt lat="45.08473" lon="14.91828">
        <ele>763</ele>
        <time>2016-07-22T08:31:58Z</time>
      </trkpt>
      <trkpt lat="45.08459" lon="14.91834">
        <ele>763</ele>
        <time>2016-07-22T08:33:58Z</time>
      </trkpt>
      <trkpt lat="45.08437" lon="14.91841">
        <ele>762</ele>
        <time>2016-07-22T08:35:58Z</time>
      </trkpt>
      <trkpt lat="45.08424" lon="14.91846">
        <ele>762</ele>
        <time>2016-07-22T08:37:58Z</time>
      </trkpt>
      <trkpt lat="45.08412" lon="14.91853">
        <ele>763</ele>
        <time>2016-07-22T08:39:58Z</time>
      </trkpt>
      <trkpt lat="45.08402" lon="14.91856">
        <ele>763</ele>
        <time>2016-07-22T08:41:58Z</time>
      </trkpt>
      <trkpt lat="45.0839" lon="14.91858">
        <ele>764</ele>
        <time>2016-07-22T08:43:58Z</time>
      </trkpt>
      <trkpt lat="45.08377" lon="14.91855">
        <ele>763</ele>
        <time>2016-07-22T08:45:58Z</time>
      </trkpt>
      <trkpt lat="45.08322" lon="14.91849">
        <ele>763</ele>
        <time>2016-07-22T08:47:58Z</time>
      </trkpt>
      <trkpt lat="45.08286" lon="14.91846">
        <ele>762</ele>
        <time>2016-07-22T08:49:58Z</time>
      </trkpt>
      <trkpt lat="45.08268" lon="14.91846">
        <ele>762</ele>
        <time>2016-07-22T08:51:58Z</time>
      </trkpt>
      <trkpt lat="45.08258" lon="14.91846">
        <ele>762</ele>
        <time>2016-07-22T08:53:58Z</time>
      </trkpt>
      <trkpt lat="45.08247" lon="14.91848">
        <ele>762</ele>
        <time>2016-07-22T08:55:58Z</time>
      </trkpt>
      <trkpt lat="45.08228" lon="14.91853">
        <ele>760</ele>
        <time>2016-07-22T08:57:58Z</time>
      </trkpt>
      <trkpt lat="45.08216" lon="14.9186">
        <ele>759</ele>
        <time>2016-07-22T08:59:58Z</time>
      </trkpt>
      <trkpt lat="45.08206" lon="14.91868">
        <ele>759</ele>
        <time>2016-07-22T09:01:58Z</time>
      </trkpt>
      <trkpt lat="45.08195" lon="14.91883">
        <ele>759</ele>
        <time>2016-07-22T09:03:58Z</time>
      </trkpt>
      <trkpt lat="45.0817" lon="14.91919">
        <ele>761</ele>
        <time>2016-07-22T09:05:58Z</time>
      </trkpt>
      <trkpt lat="45.08157" lon="14.91946">
        <ele>762</ele>
        <time>2016-07-22T09:07:58Z</time>
      </trkpt>
      <trkpt lat="45.08153" lon="14.91951">
        <ele>762</ele>
        <time>2016-07-22T09:09:58Z</time>
      </trkpt>
      <trkpt lat="45.08149" lon="14.91956">
        <ele>762</ele>
        <time>2016-07-22T09:11:58Z</time>
      </trkpt>
      <trkpt lat="45.08143" lon="14.9196">
        <ele>762</ele>
        <time>2016-07-22T09:13:58Z</time>
      </trkpt>
      <trkpt lat="45.08135" lon="14.91961">
        <ele>761</ele>
        <time>2016-07-22T09:15:58Z</time>
      </trkpt>
      <trkpt lat="45.08126" lon="14.91962">
        <ele>760</ele>
        <time>2016-07-22T09:17:58Z</time>
      </trkpt>
      <trkpt lat="45.08115" lon="14.91962">
        <ele>759</ele>
        <time>2016-07-22T09:19:58Z</time>
      </trkpt>
      <trkpt lat="45.08106" lon="14.91965">
        <ele>758</ele>
        <time>2016-07-22T09:21:58Z</time>
      </trkpt>
      <trkpt lat="45.08035" lon="14.92021">
        <ele>756</ele>
        <time>2016-07-22T09:23:58Z</time>
      </trkpt>
      <trkpt lat="45.07993" lon="14.92054">
        <ele>753</ele>
        <time>2016-07-22T09:25:58Z</time>
      </trkpt>
      <trkpt lat="45.07987" lon="14.92058">
        <ele>753</ele>
        <time>2016-07-22T09:27:58Z</time>
      </trkpt>
      <trkpt lat="45.07981" lon="14.92065">
        <ele>753</ele>
        <time>2016-07-22T09:29:58Z</time>
      </trkpt>
      <trkpt lat="45.07976" lon="14.92072">
        <ele>753</ele>
        <time>2016-07-22T09:31:58Z</time>
      </trkpt>
      <trkpt lat="45.07962" lon="14.92097">
        <ele>754</ele>
        <time>2016-07-22T09:33:58Z</time>
      </trkpt>
      <trkpt lat="45.07943" lon="14.92138">
        <ele>754</ele>
        <time>2016-07-22T09:35:58Z</time>
      </trkpt>
      <trkpt lat="45.07928" lon="14.92168">
        <ele>754</ele>
        <time>2016-07-22T09:37:58Z</time>
      </trkpt>
      <trkpt lat="45.07913" lon="14.92199">
        <ele>753</ele>
        <time>2016-07-22T09:39:58Z</time>
      </trkpt>
      <trkpt lat="45.07909" lon="14.92206">
        <ele>752</ele>
        <time>2016-07-22T09:41:58Z</time>
      </trkpt>
      <trkpt lat="45.07905" lon="14.92211">
        <ele>752</ele>
        <time>2016-07-22T09:43:58Z</time>
      </trkpt>
      <trkpt lat="45.079" lon="14.92214">
        <ele>752</ele>
        <time>2016-07-22T09:45:58Z</time>
      </trkpt>
      <trkpt lat="45.07892" lon="14.92217">
        <ele>752</ele>
        <time>2016-07-22T09:47:58Z</time>
      </trkpt>
      <trkpt lat="45.07865" lon="14.9222">
        <ele>753</ele>
        <time>2016-07-22T09:49:58Z</time>
      </trkpt>
      <trkpt lat="45.07844" lon="14.9222">
        <ele>754</ele>
        <time>2016-07-22T09:51:58Z</time>
      </trkpt>
      <trkpt lat="45.07836" lon="14.92221">
        <ele>754</ele>
        <time>2016-07-22T09:53:58Z</time>
      </trkpt>
      <trkpt lat="45.07827" lon="14.92224">
        <ele>754</ele>
        <time>2016-07-22T09:55:58Z</time>
      </trkpt>
      <trkpt lat="45.07815" lon="14.9223">
        <ele>755</ele>
        <time>2016-07-22T09:57:58Z</time>
      </trkpt>
      <trkpt lat="45.07792" lon="14.92243">
        <ele>755</ele>
        <time>2016-07-22T09:59:58Z</time>
      </trkpt>
      <trkpt lat="45.07774" lon="14.92254">
        <ele>755</ele>
        <time>2016-07-22T10:01:58Z</time>
      </trkpt>
      <trkpt lat="45.07765" lon="14.92258">
        <ele>755</ele>
        <time>2016-07-22T10:03:58Z</time>
      </trkpt>
      <trkpt lat="45.07758" lon="14.92262">
        <ele>755</ele>
        <time>2016-07-22T10:05:58Z</time>
      </trkpt>
      <trkpt lat="45.07745" lon="14.92266">
        <ele>755</ele>
        <time>2016-07-22T10:07:58Z</time>
      </trkpt>
      <trkpt lat="45.07727" lon="14.92269">
        <ele>756</ele>
        <time>2016-07-22T10:09:58Z</time>
      </trkpt>
      <trkpt lat="45.0771" lon="14.92272">
        <ele>757</ele>
        <time>2016-07-22T10:11:58Z</time>
      </trkpt>
      <trkpt lat="45.07702" lon="14.92273">
        <ele>758</ele>
        <time>2016-07-22T10:13:58Z</time>
      </trkpt>
      <trkpt lat="45.07696" lon="14.92276">
        <ele>758</ele>
        <time>2016-07-22T10:15:58Z</time>
      </trkpt>
      <trkpt lat="45.07687" lon="14.92283">
        <ele>758</ele>
        <time>2016-07-22T10:17:58Z</time>
      </trkpt>
      <trkpt lat="45.07679" lon="14.9229">
        <ele>757</ele>
        <time>2016-07-22T10:19:58Z</time>
      </trkpt>
      <trkpt lat="45.07671" lon="14.923">
        <ele>756</ele>
        <time>2016-07-22T10:21:58Z</time>
      </trkpt>
      <trkpt lat="45.07662" lon="14.92316">
        <ele>755</ele>
        <time>2016-07-22T10:23:58Z</time>
      </trkpt>
      <trkpt lat="45.07616" lon="14.92401">
        <ele>749</ele>
        <time>2016-07-22T10:25:58Z</time>
      </trkpt>
      <trkpt lat="45.07605" lon="14.92419">
        <ele>749</ele>
        <time>2016-07-22T10:27:58Z</time>
      </trkpt>
      <trkpt lat="45.07584" lon="14.92447">
        <ele>750</ele>
        <time>2016-07-22T10:29:58Z</time>
      </trkpt>
      <trkpt lat="45.0755" lon="14.92487">
        <ele>752</ele>
        <time>2016-07-22T10:31:58Z</time>
      </trkpt>
      <trkpt lat="45.07533" lon="14.92507">
        <ele>755</ele>
        <time>2016-07-22T10:33:58Z</time>
      </trkpt>
      <trkpt lat="45.07532" lon="14.92508">
        <ele>755</ele>
        <time>2016-07-22T10:35:58Z</time>
      </trkpt>
      <trkpt lat="45.07515" lon="14.92527">
        <ele>758</ele>
        <time>2016-07-22T10:37:58Z</time>
      </trkpt>
      <trkpt lat="45.07508" lon="14.92538">
        <ele>760</ele>
        <time>2016-07-22T10:39:58Z</time>
      </trkpt>
      <trkpt lat="45.07498" lon="14.92555">
        <ele>763</ele>
        <time>2016-07-22T10:41:58Z</time>
      </trkpt>
      <trkpt lat="45.07494" lon="14.92569">
        <ele>765</ele>
        <time>2016-07-22T10:43:58Z</time>
      </trkpt>
      <trkpt lat="45.07494" lon="14.92581">
        <ele>765</ele>
        <time>2016-07-22T10:45:58Z</time>
      </trkpt>
      <trkpt lat="45.07494" lon="14.92595">
        <ele>766</ele>
        <time>2016-07-22T10:47:58Z</time>
      </trkpt>
      <trkpt lat="45.07499" lon="14.92622">
        <ele>767</ele>
        <time>2016-07-22T10:49:58Z</time>
      </trkpt>
      <trkpt lat="45.07502" lon="14.92637">
        <ele>767</ele>
        <time>2016-07-22T10:51:58Z</time>
      </trkpt>
      <trkpt lat="45.07502" lon="14.92649">
        <ele>768</ele>
        <time>2016-07-22T10:53:58Z</time>
      </trkpt>
      <trkpt lat="45.07501" lon="14.9266">
        <ele>769</ele>
        <time>2016-07-22T10:55:58Z</time>
      </trkpt>
      <trkpt lat="45.075" lon="14.92672">
        <ele>770</ele>
        <time>2016-07-22T10:57:58Z</time>
      </trkpt>
      <trkpt lat="45.07494" lon="14.92697">
        <ele>771</ele>
        <time>2016-07-22T10:59:58Z</time>
      </trkpt>
      <trkpt lat="45.07479" lon="14.92768">
        <ele>772</ele>
        <time>2016-07-22T11:01:58Z</time>
      </trkpt>
      <trkpt lat="45.07474" lon="14.92783">
        <ele>772</ele>
        <time>2016-07-22T11:03:58Z</time>
      </trkpt>
      <trkpt lat="45.07467" lon="14.92803">
        <ele>772</ele>
        <time>2016-07-22T11:05:58Z</time>
      </trkpt>
      <trkpt lat="45.07455" lon="14.92835">
        <ele>772</ele>
        <time>2016-07-22T11:07:58Z</time>
      </trkpt>
      <trkpt lat="45.07436" lon="14.92879">
        <ele>771</ele>
        <time>2016-07-22T11:09:58Z</time>
      </trkpt>
      <trkpt lat="45.07424" lon="14.92913">
        <ele>770</ele>
        <time>2016-07-22T11:11:58Z</time>
      </trkpt>
      <trkpt lat="45.07418" lon="14.92932">
        <ele>769</ele>
        <time>2016-07-22T11:13:58Z</time>
      </trkpt>
      <trkpt lat="45.07412" lon="14.92961">
        <ele>767</ele>
        <time>2016-07-22T11:15:58Z</time>
      </trkpt>
      <trkpt lat="45.07411" lon="14.92965">
        <ele>766</ele>
        <time>2016-07-22T11:17:58Z</time>
      </trkpt>
      <trkpt lat="45.07406" lon="14.92987">
        <ele>765</ele>
        <time>2016-07-22T11:19:58Z</time>
      </trkpt>
      <trkpt lat="45.074" lon="14.93004">
        <ele>764</ele>
        <time>2016-07-22T11:21:58Z</time>
      </trkpt>
      <trkpt lat="45.07388" lon="14.93027">
        <ele>766</ele>
        <time>2016-07-22T11:23:58Z</time>
      </trkpt>
      <trkpt lat="45.07375" lon="14.93048">
        <ele>767</ele>
        <time>2016-07-22T11:25:58Z</time>
      </trkpt>
      <trkpt lat="45.0737" lon="14.93056">
        <ele>767</ele>
        <time>2016-07-22T11:27:58Z</time>
      </trkpt>
      <trkpt lat="45.07366" lon="14.93064">
        <ele>766</ele>
        <time>2016-07-22T11:29:58Z</time>
      </trkpt>
      <trkpt lat="45.07362" lon="14.93074">
        <ele>766</ele>
        <time>2016-07-22T11:31:58Z</time>
      </trkpt>
      <trkpt lat="45.07356" lon="14.93089">
        <ele>765</ele>
        <time>2016-07-22T11:33:58Z</time>
      </trkpt>
      <trkpt lat="45.07349" lon="14.93108">
        <ele>766</ele>
        <time>2016-07-22T11:35:58Z</time>
      </trkpt>
      <trkpt lat="45.07327" lon="14.93164">
        <ele>766</ele>
        <time>2016-07-22T11:37:58Z</time>
      </trkpt>
      <trkpt lat="45.07316" lon="14.93188">
        <ele>767</ele>
        <time>2016-07-22T11:39:58Z</time>
      </trkpt>
      <trkpt lat="45.07306" lon="14.93205">
        <ele>768</ele>
        <time>2016-07-22T11:41:58Z</time>
      </trkpt>
      <trkpt lat="45.07301" lon="14.93211">
        <ele>768</ele>
        <time>2016-07-22T11:43:58Z</time>
      </trkpt>
      <trkpt lat="45.07296" lon="14.93216">
        <ele>768</ele>
        <time>2016-07-22T11:45:58Z</time>
      </trkpt>
      <trkpt lat="45.07291" lon="14.93219">
        <ele>768</ele>
        <time>2016-07-22T11:47:58Z</time>
      </trkpt>
      <trkpt lat="45.07285" lon="14.93222">
        <ele>768</ele>
        <time>2016-07-22T11:49:58Z</time>
      </trkpt>
      <trkpt lat="45.0728" lon="14.93224">
        <ele>768</ele>
        <time>2016-07-22T11:51:58Z</time>
      </trkpt>
      <trkpt lat="45.07275" lon="14.93224">
        <ele>768</ele>
        <time>2016-07-22T11:53:58Z</time>
      </trkpt>
      <trkpt lat="45.07269" lon="14.93224">
        <ele>768</ele>
        <time>2016-07-22T11:55:58Z</time>
      </trkpt>
      <trkpt lat="45.07262" lon="14.93222">
        <ele>767</ele>
        <time>2016-07-22T11:57:58Z</time>
      </trkpt>
      <trkpt lat="45.07257" lon="14.9322">
        <ele>767</ele>
        <time>2016-07-22T11:59:58Z</time>
      </trkpt>
      <trkpt lat="45.07247" lon="14.93214">
        <ele>767</ele>
        <time>2016-07-22T12:01:58Z</time>
      </trkpt>
      <trkpt lat="45.07243" lon="14.9321">
        <ele>767</ele>
        <time>2016-07-22T12:03:58Z</time>
      </trkpt>
      <trkpt lat="45.07232" lon="14.93202">
        <ele>767</ele>
        <time>2016-07-22T12:05:58Z</time>
      </trkpt>
      <trkpt lat="45.07217" lon="14.93192">
        <ele>767</ele>
        <time>2016-07-22T12:07:58Z</time>
      </trkpt>
      <trkpt lat="45.07202" lon="14.93183">
        <ele>767</ele>
        <time>2016-07-22T12:09:58Z</time>
      </trkpt>
      <trkpt lat="45.0719" lon="14.93178">
        <ele>767</ele>
        <time>2016-07-22T12:11:58Z</time>
      </trkpt>
      <trkpt lat="45.07177" lon="14.93175">
        <ele>768</ele>
        <time>2016-07-22T12:13:58Z</time>
      </trkpt>
      <trkpt lat="45.07157" lon="14.93174">
        <ele>768</ele>
        <time>2016-07-22T12:15:58Z</time>
      </trkpt>
      <trkpt lat="45.07142" lon="14.93176">
        <ele>769</ele>
        <time>2016-07-22T12:17:58Z</time>
      </trkpt>
      <trkpt lat="45.07111" lon="14.93184">
        <ele>771</ele>
        <time>2016-07-22T12:19:58Z</time>
      </trkpt>
      <trkpt lat="45.07081" lon="14.93193">
        <ele>773</ele>
        <time>2016-07-22T12:21:58Z</time>
      </trkpt>
      <trkpt lat="45.07029" lon="14.9321">
        <ele>776</ele>
        <time>2016-07-22T12:23:58Z</time>
      </trkpt>
      <trkpt lat="45.07008" lon="14.93216">
        <ele>777</ele>
        <time>2016-07-22T12:25:58Z</time>
      </trkpt>
      <trkpt lat="45.06993" lon="14.93218">
        <ele>778</ele>
        <time>2016-07-22T12:27:58Z</time>
      </trkpt>
      <trkpt lat="45.06981" lon="14.93219">
        <ele>779</ele>
        <time>2016-07-22T12:29:58Z</time>
      </trkpt>
      <trkpt lat="45.06971" lon="14.93219">
        <ele>779</ele>
        <time>2016-07-22T12:31:58Z</time>
      </trkpt>
      <trkpt lat="45.0696" lon="14.93217">
        <ele>780</ele>
        <time>2016-07-22T12:33:58Z</time>
      </trkpt>
      <trkpt lat="45.06949" lon="14.93217">
        <ele>780</ele>
        <time>2016-07-22T12:35:58Z</time>
      </trkpt>
      <trkpt lat="45.06909" lon="14.93223">
        <ele>782</ele>
        <time>2016-07-22T12:37:58Z</time>
      </trkpt>
      <trkpt lat="45.06901" lon="14.93225">
        <ele>782</ele>
        <time>2016-07-22T12:39:58Z</time>
      </trkpt>
      <trkpt lat="45.06868" lon="14.93233">
        <ele>784</ele>
        <time>2016-07-22T12:41:58Z</time>
      </trkpt>
      <trkpt lat="45.06856" lon="14.93235">
        <ele>784</ele>
        <time>2016-07-22T12:43:58Z</time>
      </trkpt>
      <trkpt lat="45.06841" lon="14.93237">
        <ele>784</ele>
        <time>2016-07-22T12:45:58Z</time>
      </trkpt>
      <trkpt lat="45.06828" lon="14.93238">
        <ele>784</ele>
        <time>2016-07-22T12:47:58Z</time>
      </trkpt>
      <trkpt lat="45.06798" lon="14.93238">
        <ele>785</ele>
        <time>2016-07-22T12:49:58Z</time>
      </trkpt>
      <trkpt lat="45.06723" lon="14.93236">
        <ele>787</ele>
        <time>2016-07-22T12:51:58Z</time>
      </trkpt>
      <trkpt lat="45.06693" lon="14.9324">
        <ele>788</ele>
        <time>2016-07-22T12:53:58Z</time>
      </trkpt>
      <trkpt lat="45.06683" lon="14.93244">
        <ele>788</ele>
        <time>2016-07-22T12:55:58Z</time>
      </trkpt>
      <trkpt lat="45.06668" lon="14.93249">
        <ele>789</ele>
        <time>2016-07-22T12:57:58Z</time>
      </trkpt>
      <trkpt lat="45.06606" lon="14.93272">
        <ele>793</ele>
        <time>2016-07-22T12:59:58Z</time>
      </trkpt>
      <trkpt lat="45.06579" lon="14.9328">
        <ele>795</ele>
        <time>2016-07-22T13:01:58Z</time>
      </trkpt>
      <trkpt lat="45.06575" lon="14.93281">
        <ele>795</ele>
        <time>2016-07-22T13:03:58Z</time>
      </trkpt>
      <trkpt lat="45.06566" lon="14.93284">
        <ele>795</ele>
        <time>2016-07-22T13:05:58Z</time>
      </trkpt>
      <trkpt lat="45.06546" lon="14.93298">
        <ele>796</ele>
        <time>2016-07-22T13:07:58Z</time>
      </trkpt>
      <trkpt lat="45.06537" lon="14.93303">
        <ele>797</ele>
        <time>2016-07-22T13:09:58Z</time>
      </trkpt>
      <trkpt lat="45.06519" lon="14.9331">
        <ele>797</ele>
        <time>2016-07-22T13:11:58Z</time>
      </trkpt>
      <trkpt lat="45.0651" lon="14.93312">
        <ele>797</ele>
        <time>2016-07-22T13:13:58Z</time>
      </trkpt>
      <trkpt lat="45.065" lon="14.93313">
        <ele>797</ele>
        <time>2016-07-22T13:15:58Z</time>
      </trkpt>
      <trkpt lat="45.06427" lon="14.93332">
        <ele>793</ele>
        <time>2016-07-22T13:17:58Z</time>
      </trkpt>
      <trkpt lat="45.06394" lon="14.9333">
        <ele>791</ele>
        <time>2016-07-22T13:19:58Z</time>
      </trkpt>
      <trkpt lat="45.06361" lon="14.9333">
        <ele>789</ele>
        <time>2016-07-22T13:21:58Z</time>
      </trkpt>
      <trkpt lat="45.06344" lon="14.93326">
        <ele>788</ele>
        <time>2016-07-22T13:23:58Z</time>
      </trkpt>
      <trkpt lat="45.06333" lon="14.93323">
        <ele>788</ele>
        <time>2016-07-22T13:25:58Z</time>
      </trkpt>
      <trkpt lat="45.06325" lon="14.93319">
        <ele>787</ele>
        <time>2016-07-22T13:27:58Z</time>
      </trkpt>
      <trkpt lat="45.06317" lon="14.93315">
        <ele>787</ele>
        <time>2016-07-22T13:29:58Z</time>
      </trkpt>
      <trkpt lat="45.06306" lon="14.93306">
        <ele>787</ele>
        <time>2016-07-22T13:31:58Z</time>
      </trkpt>
      <trkpt lat="45.06287" lon="14.93289">
        <ele>787</ele>
        <time>2016-07-22T13:33:58Z</time>
      </trkpt>
      <trkpt lat="45.06262" lon="14.93272">
        <ele>786</ele>
        <time>2016-07-22T13:35:58Z</time>
      </trkpt>
      <trkpt lat="45.06234" lon="14.9326">
        <ele>785</ele>
        <time>2016-07-22T13:37:58Z</time>
      </trkpt>
      <trkpt lat="45.06199" lon="14.93253">
        <ele>782</ele>
        <time>2016-07-22T13:39:58Z</time>
      </trkpt>
      <trkpt lat="45.06174" lon="14.9325">
        <ele>780</ele>
        <time>2016-07-22T13:41:58Z</time>
      </trkpt>
      <trkpt lat="45.0614" lon="14.93246">
        <ele>778</ele>
        <time>2016-07-22T13:43:58Z</time>
      </trkpt>
      <trkpt lat="45.06121" lon="14.93246">
        <ele>777</ele>
        <time>2016-07-22T13:45:58Z</time>
      </trkpt>
      <trkpt lat="45.06082" lon="14.93248">
        <ele>775</ele>
        <time>2016-07-22T13:47:58Z</time>
      </trkpt>
      <trkpt lat="45.0607" lon="14.93247">
        <ele>775</ele>
        <time>2016-07-22T13:49:58Z</time>
      </trkpt>
      <trkpt lat="45.0606" lon="14.93245">
        <ele>775</ele>
        <time>2016-07-22T13:51:58Z</time>
      </trkpt>
      <trkpt lat="45.06048" lon="14.93241">
        <ele>775</ele>
        <time>2016-07-22T13:53:58Z</time>
      </trkpt>
      <trkpt lat="45.06039" lon="14.93238">
        <ele>774</ele>
        <time>2016-07-22T13:55:58Z</time>
      </trkpt>
      <trkpt lat="45.06033" lon="14.93237">
        <ele>774</ele>
        <time>2016-07-22T13:57:58Z</time>
      </trkpt>
      <trkpt lat="45.06025" lon="14.93238">
        <ele>774</ele>
        <time>2016-07-22T13:59:58Z</time>
      </trkpt>
      <trkpt lat="45.06019" lon="14.93239">
        <ele>773</ele>
        <time>2016-07-22T14:01:58Z</time>
      </trkpt>
      <trkpt lat="45.06015" lon="14.93241">
        <ele>773</ele>
        <time>2016-07-22T14:03:58Z</time>
      </trkpt>
      <trkpt lat="45.06009" lon="14.93244">
        <ele>772</ele>
        <time>2016-07-22T14:05:58Z</time>
      </trkpt>
      <trkpt lat="45.06001" lon="14.93249">
        <ele>771</ele>
        <time>2016-07-22T14:07:58Z</time>
      </trkpt>
      <trkpt lat="45.05992" lon="14.93256">
        <ele>770</ele>
        <time>2016-07-22T14:09:58Z</time>
      </trkpt>
      <trkpt lat="45.05985" lon="14.9326">
        <ele>769</ele>
        <time>2016-07-22T14:11:58Z</time>
      </trkpt>
      <trkpt lat="45.05978" lon="14.93261">
        <ele>768</ele>
        <time>2016-07-22T14:13:58Z</time>
      </trkpt>
      <trkpt lat="45.05963" lon="14.9326">
        <ele>768</ele>
        <time>2016-07-22T14:15:58Z</time>
      </trkpt>
      <trkpt lat="45.05953" lon="14.93258">
        <ele>768</ele>
        <time>2016-07-22T14:17:58Z</time>
      </trkpt>
      <trkpt lat="45.05945" lon="14.93254">
        <ele>768</ele>
        <time>2016-07-22T14:19:58Z</time>
      </trkpt>
      <trkpt lat="45.05919" lon="14.93234">
        <ele>768</ele>
        <time>2016-07-22T14:21:58Z</time>
      </trkpt>
      <trkpt lat="45.0591" lon="14.9323">
        <ele>768</ele>
        <time>2016-07-22T14:23:58Z</time>
      </trkpt>
      <trkpt lat="45.05901" lon="14.9323">
        <ele>768</ele>
        <time>2016-07-22T14:25:58Z</time>
      </trkpt>
      <trkpt lat="45.05894" lon="14.93232">
        <ele>768</ele>
        <time>2016-07-22T14:27:58Z</time>
      </trkpt>
      <trkpt lat="45.05885" lon="14.93238">
        <ele>768</ele>
        <time>2016-07-22T14:29:58Z</time>
      </trkpt>
      <trkpt lat="45.05877" lon="14.9325">
        <ele>767</ele>
        <time>2016-07-22T14:31:58Z</time>
      </trkpt>
      <trkpt lat="45.05865" lon="14.93265">
        <ele>766</ele>
        <time>2016-07-22T14:33:58Z</time>
      </trkpt>
      <trkpt lat="45.05855" lon="14.93279">
        <ele>765</ele>
        <time>2016-07-22T14:35:58Z</time>
      </trkpt>
      <trkpt lat="45.05848" lon="14.93287">
        <ele>765</ele>
        <time>2016-07-22T14:37:58Z</time>
      </trkpt>
      <trkpt lat="45.05809" lon="14.93323">
        <ele>765</ele>
        <time>2016-07-22T14:39:58Z</time>
      </trkpt>
      <trkpt lat="45.05782" lon="14.93351">
        <ele>765</ele>
        <time>2016-07-22T14:41:58Z</time>
      </trkpt>
      <trkpt lat="45.05774" lon="14.93355">
        <ele>765</ele>
        <time>2016-07-22T14:43:58Z</time>
      </trkpt>
      <trkpt lat="45.05766" lon="14.9336">
        <ele>766</ele>
        <time>2016-07-22T14:45:58Z</time>
      </trkpt>
      <trkpt lat="45.05757" lon="14.93364">
        <ele>766</ele>
        <time>2016-07-22T14:47:58Z</time>
      </trkpt>
      <trkpt lat="45.05737" lon="14.93368">
        <ele>767</ele>
        <time>2016-07-22T14:49:58Z</time>
      </trkpt>
      <trkpt lat="45.05725" lon="14.93372">
        <ele>767</ele>
        <time>2016-07-22T14:51:58Z</time>
      </trkpt>
      <trkpt lat="45.05715" lon="14.93376">
        <ele>767</ele>
        <time>2016-07-22T14:53:58Z</time>
      </trkpt>
      <trkpt lat="45.05699" lon="14.93387">
        <ele>766</ele>
        <time>2016-07-22T14:55:58Z</time>
      </trkpt>
      <trkpt lat="45.05679" lon="14.93407">
        <ele>766</ele>
        <time>2016-07-22T14:57:58Z</time>
      </trkpt>
      <trkpt lat="45.05656" lon="14.93428">
        <ele>766</ele>
        <time>2016-07-22T14:59:58Z</time>
      </trkpt>
      <trkpt lat="45.05624" lon="14.93453">
        <ele>767</ele>
        <time>2016-07-22T15:01:58Z</time>
      </trkpt>
      <trkpt lat="45.05597" lon="14.93471">
        <ele>767</ele>
        <time>2016-07-22T15:03:58Z</time>
      </trkpt>
      <trkpt lat="45.05544" lon="14.93506">
        <ele>765</ele>
        <time>2016-07-22T15:05:58Z</time>
      </trkpt>
      <trkpt lat="45.05529" lon="14.93514">
        <ele>764</ele>
        <time>2016-07-22T15:07:58Z</time>
      </trkpt>
      <trkpt lat="45.05507" lon="14.93522">
        <ele>763</ele>
        <time>2016-07-22T15:09:58Z</time>
      </trkpt>
      <trkpt lat="45.0549" lon="14.93527">
        <ele>762</ele>
        <time>2016-07-22T15:11:58Z</time>
      </trkpt>
      <trkpt lat="45.05472" lon="14.9353">
        <ele>760</ele>
        <time>2016-07-22T15:13:58Z</time>
      </trkpt>
      <trkpt lat="45.05455" lon="14.93531">
        <ele>759</ele>
        <time>2016-07-22T15:15:58Z</time>
      </trkpt>
      <trkpt lat="45.05448" lon="14.93533">
        <ele>759</ele>
        <time>2016-07-22T15:17:58Z</time>
      </trkpt>
      <trkpt lat="45.05413" lon="14.93553">
        <ele>754</ele>
        <time>2016-07-22T15:19:58Z</time>
      </trkpt>
      <trkpt lat="45.05387" lon="14.93562">
        <ele>752</ele>
        <time>2016-07-22T15:21:58Z</time>
      </trkpt>
      <trkpt lat="45.05368" lon="14.93571">
        <ele>751</ele>
        <time>2016-07-22T15:23:58Z</time>
      </trkpt>
      <trkpt lat="45.05333" lon="14.93599">
        <ele>748</ele>
        <time>2016-07-22T15:25:58Z</time>
      </trkpt>
      <trkpt lat="45.05325" lon="14.93606">
        <ele>747</ele>
        <time>2016-07-22T15:27:58Z</time>
      </trkpt>
      <trkpt lat="45.05269" lon="14.93648">
        <ele>742</ele>
        <time>2016-07-22T15:29:58Z</time>
      </trkpt>
      <trkpt lat="45.05222" lon="14.9368">
        <ele>738</ele>
        <time>2016-07-22T15:31:58Z</time>
      </trkpt>
      <trkpt lat="45.05211" lon="14.93686">
        <ele>737</ele>
        <time>2016-07-22T15:33:58Z</time>
      </trkpt>
      <trkpt lat="45.05208" lon="14.93687">
        <ele>737</ele>
        <time>2016-07-22T15:35:58Z</time>
      </trkpt>
      <trkpt lat="45.05184" lon="14.93693">
        <ele>735</ele>
        <time>2016-07-22T15:37:58Z</time>
      </trkpt>
      <trkpt lat="45.05152" lon="14.93696">
        <ele>732</ele>
        <time>2016-07-22T15:39:58Z</time>
      </trkpt>
      <trkpt lat="45.05122" lon="14.93699">
        <ele>730</ele>
        <time>2016-07-22T15:41:58Z</time>
      </trkpt>
      <trkpt lat="45.05116" lon="14.937">
        <ele>730</ele>
        <time>2016-07-22T15:43:58Z</time>
      </trkpt>
      <trkpt lat="45.05108" lon="14.93702">
        <ele>729</ele>
        <time>2016-07-22T15:45:58Z</time>
      </trkpt>
      <trkpt lat="45.05088" lon="14.93709">
        <ele>729</ele>
        <time>2016-07-22T15:47:58Z</time>
      </trkpt>
      <trkpt lat="45.0507" lon="14.9372">
        <ele>729</ele>
        <time>2016-07-22T15:49:58Z</time>
      </trkpt>
      <trkpt lat="45.05061" lon="14.93728">
        <ele>729</ele>
        <time>2016-07-22T15:51:58Z</time>
      </trkpt>
      <trkpt lat="45.05053" lon="14.93733">
        <ele>729</ele>
        <time>2016-07-22T15:53:58Z</time>
      </trkpt>
      <trkpt lat="45.05045" lon="14.93736">
        <ele>729</ele>
        <time>2016-07-22T15:55:58Z</time>
      </trkpt>
      <trkpt lat="45.05032" lon="14.93738">
        <ele>728</ele>
        <time>2016-07-22T15:57:58Z</time>
      </trkpt>
      <trkpt lat="45.05021" lon="14.93741">
        <ele>727</ele>
        <time>2016-07-22T15:59:58Z</time>
      </trkpt>
      <trkpt lat="45.05001" lon="14.93749">
        <ele>726</ele>
        <time>2016-07-22T16:01:58Z</time>
      </trkpt>
      <trkpt lat="45.04983" lon="14.93754">
        <ele>725</ele>
        <time>2016-07-22T16:03:58Z</time>
      </trkpt>
      <trkpt lat="45.04973" lon="14.93757">
        <ele>724</ele>
        <time>2016-07-22T16:05:58Z</time>
      </trkpt>
      <trkpt lat="45.04962" lon="14.93762">
        <ele>724</ele>
        <time>2016-07-22T16:07:58Z</time>
      </trkpt>
      <trkpt lat="45.04947" lon="14.93772">
        <ele>724</ele>
        <time>2016-07-22T16:09:58Z</time>
      </trkpt>
      <trkpt lat="45.04934" lon="14.93778">
        <ele>724</ele>
        <time>2016-07-22T16:11:58Z</time>
      </trkpt>
      <trkpt lat="45.0492" lon="14.93781">
        <ele>723</ele>
        <time>2016-07-22T16:13:58Z</time>
      </trkpt>
      <trkpt lat="45.04898" lon="14.93783">
        <ele>722</ele>
        <time>2016-07-22T16:15:58Z</time>
      </trkpt>
      <trkpt lat="45.04889" lon="14.93785">
        <ele>722</ele>
        <time>2016-07-22T16:17:58Z</time>
      </trkpt>
      <trkpt lat="45.04873" lon="14.93784">
        <ele>721</ele>
        <time>2016-07-22T16:19:58Z</time>
      </trkpt>
      <trkpt lat="45.04846" lon="14.93779">
        <ele>720</ele>
        <time>2016-07-22T16:21:58Z</time>
      </trkpt>
      <trkpt lat="45.04833" lon="14.9378">
        <ele>719</ele>
        <time>2016-07-22T16:23:58Z</time>
      </trkpt>
      <trkpt lat="45.0482" lon="14.93784">
        <ele>720</ele>
        <time>2016-07-22T16:25:58Z</time>
      </trkpt>
      <trkpt lat="45.0481" lon="14.9379">
        <ele>721</ele>
        <time>2016-07-22T16:27:58Z</time>
      </trkpt>
      <trkpt lat="45.04792" lon="14.93802">
        <ele>721</ele>
        <time>2016-07-22T16:29:58Z</time>
      </trkpt>
      <trkpt lat="45.04772" lon="14.93824">
        <ele>720</ele>
        <time>2016-07-22T16:31:58Z</time>
      </trkpt>
      <trkpt lat="45.04759" lon="14.93836">
        <ele>718</ele>
        <time>2016-07-22T16:33:58Z</time>
      </trkpt>
      <trkpt lat="45.04747" lon="14.93843">
        <ele>719</ele>
        <time>2016-07-22T16:35:58Z</time>
      </trkpt>
      <trkpt lat="45.04738" lon="14.93844">
        <ele>719</ele>
        <time>2016-07-22T16:37:58Z</time>
      </trkpt>
      <trkpt lat="45.04723" lon="14.93845">
        <ele>720</ele>
        <time>2016-07-22T16:39:58Z</time>
      </trkpt>
      <trkpt lat="45.04702" lon="14.93845">
        <ele>721</ele>
        <time>2016-07-22T16:41:58Z</time>
      </trkpt>
      <trkpt lat="45.04689" lon="14.93846">
        <ele>722</ele>
        <time>2016-07-22T16:43:58Z</time>
      </trkpt>
      <trkpt lat="45.04678" lon="14.93847">
        <ele>723</ele>
        <time>2016-07-22T16:45:58Z</time>
      </trkpt>
      <trkpt lat="45.04668" lon="14.9385">
        <ele>723</ele>
        <time>2016-07-22T16:47:58Z</time>
      </trkpt>
      <trkpt lat="45.04639" lon="14.93864">
        <ele>722</ele>
        <time>2016-07-22T16:49:58Z</time>
      </trkpt>
      <trkpt lat="45.04607" lon="14.93877">
        <ele>722</ele>
        <time>2016-07-22T16:51:58Z</time>
      </trkpt>
      <trkpt lat="45.04598" lon="14.93881">
        <ele>721</ele>
        <time>2016-07-22T16:53:58Z</time>
      </trkpt>
      <trkpt lat="45.04589" lon="14.93888">
        <ele>721</ele>
        <time>2016-07-22T16:55:58Z</time>
      </trkpt>
      <trkpt lat="45.04574" lon="14.93907">
        <ele>720</ele>
        <time>2016-07-22T16:57:58Z</time>
      </trkpt>
      <trkpt lat="45.04565" lon="14.93917">
        <ele>720</ele>
        <time>2016-07-22T16:59:58Z</time>
      </trkpt>
      <trkpt lat="45.04553" lon="14.93928">
        <ele>722</ele>
        <time>2016-07-22T17:01:58Z</time>
      </trkpt>
      <trkpt lat="45.04545" lon="14.93933">
        <ele>723</ele>
        <time>2016-07-22T17:03:58Z</time>
      </trkpt>
      <trkpt lat="45.04531" lon="14.93941">
        <ele>724</ele>
        <time>2016-07-22T17:05:58Z</time>
      </trkpt>
      <trkpt lat="45.04484" lon="14.93959">
        <ele>725</ele>
        <time>2016-07-22T17:07:58Z</time>
      </trkpt>
      <trkpt lat="45.04449" lon="14.9397">
        <ele>726</ele>
        <time>2016-07-22T17:09:58Z</time>
      </trkpt>
      <trkpt lat="45.04433" lon="14.93972">
        <ele>726</ele>
        <time>2016-07-22T17:11:58Z</time>
      </trkpt>
      <trkpt lat="45.04425" lon="14.93972">
        <ele>726</ele>
        <time>2016-07-22T17:13:58Z</time>
      </trkpt>
      <trkpt lat="45.04419" lon="14.93971">
        <ele>726</ele>
        <time>2016-07-22T17:15:58Z</time>
      </trkpt>
      <trkpt lat="45.04409" lon="14.93967">
        <ele>727</ele>
        <time>2016-07-22T17:17:58Z</time>
      </trkpt>
      <trkpt lat="45.04401" lon="14.93962">
        <ele>727</ele>
        <time>2016-07-22T17:19:58Z</time>
      </trkpt>
      <trkpt lat="45.04396" lon="14.93957">
        <ele>727</ele>
        <time>2016-07-22T17:21:58Z</time>
      </trkpt>
      <trkpt lat="45.0439" lon="14.93951">
        <ele>728</ele>
        <time>2016-07-22T17:23:58Z</time>
      </trkpt>
      <trkpt lat="45.04381" lon="14.93939">
        <ele>729</ele>
        <time>2016-07-22T17:25:58Z</time>
      </trkpt>
      <trkpt lat="45.04372" lon="14.93931">
        <ele>730</ele>
        <time>2016-07-22T17:27:58Z</time>
      </trkpt>
      <trkpt lat="45.04366" lon="14.93928">
        <ele>730</ele>
        <time>2016-07-22T17:29:58Z</time>
      </trkpt>
      <trkpt lat="45.04359" lon="14.93925">
        <ele>730</ele>
        <time>2016-07-22T17:31:58Z</time>
      </trkpt>
      <trkpt lat="45.04342" lon="14.93919">
        <ele>731</ele>
        <time>2016-07-22T17:33:58Z</time>
      </trkpt>
      <trkpt lat="45.04323" lon="14.93913">
        <ele>733</ele>
        <time>2016-07-22T17:35:58Z</time>
      </trkpt>
      <trkpt lat="45.04307" lon="14.93911">
        <ele>734</ele>
        <time>2016-07-22T17:37:58Z</time>
      </trkpt>
      <trkpt lat="45.04272" lon="14.93915">
        <ele>734</ele>
        <time>2016-07-22T17:39:58Z</time>
      </trkpt>
      <trkpt lat="45.04189" lon="14.93937">
        <ele>738</ele>
        <time>2016-07-22T17:41:58Z</time>
      </trkpt>
      <trkpt lat="45.04173" lon="14.93939">
        <ele>740</ele>
        <time>2016-07-22T17:43:58Z</time>
      </trkpt>
      <trkpt lat="45.0416" lon="14.93944">
        <ele>741</ele>
        <time>2016-07-22T17:45:58Z</time>
      </trkpt>
      <trkpt lat="45.04153" lon="14.93947">
        <ele>742</ele>
        <time>2016-07-22T17:47:58Z</time>
      </trkpt>
      <trkpt lat="45.04136" lon="14.93962">
        <ele>743</ele>
        <time>2016-07-22T17:49:58Z</time>
      </trkpt>
      <trkpt lat="45.04129" lon="14.93968">
        <ele>743</ele>
        <time>2016-07-22T17:51:58Z</time>
      </trkpt>
      <trkpt lat="45.04117" lon="14.93975">
        <ele>744</ele>
        <time>2016-07-22T17:53:58Z</time>
      </trkpt>
      <trkpt lat="45.04108" lon="14.93979">
        <ele>745</ele>
        <time>2016-07-22T17:55:58Z</time>
      </trkpt>
      <trkpt lat="45.04096" lon="14.93983">
        <ele>746</ele>
        <time>2016-07-22T17:57:58Z</time>
      </trkpt>
      <trkpt lat="45.04088" lon="14.93985">
        <ele>746</ele>
        <time>2016-07-22T17:59:58Z</time>
      </trkpt>
      <trkpt lat="45.04079" lon="14.93988">
        <ele>746</ele>
        <time>2016-07-22T18:01:58Z</time>
      </trkpt>
      <trkpt lat="45.04067" lon="14.93999">
        <ele>745</ele>
        <time>2016-07-22T18:03:58Z</time>
      </trkpt>
      <trkpt lat="45.04062" lon="14.94001">
        <ele>744</ele>
        <time>2016-07-22T18:05:58Z</time>
      </trkpt>
      <trkpt lat="45.04058" lon="14.94003">
        <ele>744</ele>
        <time>2016-07-22T18:07:58Z</time>
      </trkpt>
      <trkpt lat="45.04055" lon="14.94004">
        <ele>744</ele>
        <time>2016-07-22T18:09:58Z</time>
      </trkpt>
      <trkpt lat="45.04041" lon="14.94005">
        <ele>744</ele>
        <time>2016-07-22T18:11:58Z</time>
      </trkpt>
      <trkpt lat="45.04023" lon="14.94003">
        <ele>743</ele>
        <time>2016-07-22T18:13:58Z</time>
      </trkpt>
      <trkpt lat="45.04008" lon="14.94002">
        <ele>743</ele>
        <time>2016-07-22T18:15:58Z</time>
      </trkpt>
      <trkpt lat="45.03994" lon="14.94001">
        <ele>743</ele>
        <time>2016-07-22T18:17:58Z</time>
      </trkpt>
      <trkpt lat="45.03992" lon="14.94001">
        <ele>743</ele>
        <time>2016-07-22T18:19:58Z</time>
      </trkpt>
      <trkpt lat="45.03991" lon="14.94002">
        <ele>743</ele>
        <time>2016-07-22T18:21:58Z</time>
      </trkpt>
      <trkpt lat="45.0399" lon="14.94002">
        <ele>743</ele>
        <time>2016-07-22T18:23:58Z</time>
      </trkpt>
      <trkpt lat="45.03989" lon="14.94003">
        <ele>742</ele>
        <time>2016-07-22T18:25:58Z</time>
      </trkpt>
      <trkpt lat="45.03989" lon="14.94004">
        <ele>742</ele>
        <time>2016-07-22T18:27:58Z</time>
      </trkpt>
      <trkpt lat="45.03988" lon="14.94005">
        <ele>742</ele>
        <time>2016-07-22T18:29:58Z</time>
      </trkpt>
      <trkpt lat="45.03988" lon="14.94005">
        <ele>742</ele>
        <time>2016-07-22T18:31:58Z</time>
      </trkpt>
      <trkpt lat="45.03989" lon="14.94007">
        <ele>742</ele>
        <time>2016-07-22T18:33:58Z</time>
      </trkpt>
      <trkpt lat="45.03989" lon="14.94009">
        <ele>742</ele>
        <time>2016-07-22T18:35:58Z</time>
      </trkpt>
      <trkpt lat="45.0399" lon="14.94009">
        <ele>742</ele>
        <time>2016-07-22T18:37:58Z</time>
      </trkpt>
      <trkpt lat="45.03991" lon="14.9401">
        <ele>742</ele>
        <time>2016-07-22T18:39:58Z</time>
      </trkpt>
      <trkpt lat="45.04022" lon="14.94016">
        <ele>743</ele>
        <time>2016-07-22T18:41:58Z</time>
      </trkpt>
      <trkpt lat="45.04047" lon="14.94022">
        <ele>743</ele>
        <time>2016-07-22T18:43:58Z</time>
      </trkpt>
      <trkpt lat="45.04054" lon="14.94025">
        <ele>744</ele>
        <time>2016-07-22T18:45:58Z</time>
      </trkpt>
      <trkpt lat="45.04059" lon="14.9403">
        <ele>744</ele>
        <time>2016-07-22T18:47:58Z</time>
      </trkpt>
      <trkpt lat="45.04063" lon="14.94036">
        <ele>744</ele>
        <time>2016-07-22T18:49:58Z</time>
      </trkpt>
      <trkpt lat="45.04068" lon="14.94046">
        <ele>744</ele>
        <time>2016-07-22T18:51:58Z</time>
      </trkpt>
      <trkpt lat="45.04058" lon="14.94072">
        <ele>743</ele>
        <time>2016-07-22T18:53:58Z</time>
      </trkpt>
      <trkpt lat="45.04047" lon="14.94103">
        <ele>742</ele>
        <time>2016-07-22T18:55:58Z</time>
      </trkpt>
      <trkpt lat="45.0404" lon="14.94117">
        <ele>742</ele>
        <time>2016-07-22T18:57:58Z</time>
      </trkpt>
      <trkpt lat="45.04034" lon="14.94129">
        <ele>743</ele>
        <time>2016-07-22T18:59:58Z</time>
      </trkpt>
      <trkpt lat="45.04026" lon="14.94139">
        <ele>743</ele>
        <time>2016-07-22T19:01:58Z</time>
      </trkpt>
      <trkpt lat="45.04023" lon="14.94145">
        <ele>743</ele>
        <time>2016-07-22T19:03:58Z</time>
      </trkpt>
      <trkpt lat="45.04022" lon="14.9415">
        <ele>743</ele>
        <time>2016-07-22T19:05:58Z</time>
      </trkpt>
      <trkpt lat="45.04021" lon="14.94156">
        <ele>744</ele>
        <time>2016-07-22T19:07:58Z</time>
      </trkpt>
      <trkpt lat="45.04022" lon="14.94164">
        <ele>744</ele>
        <time>2016-07-22T19:09:58Z</time>
      </trkpt>
      <trkpt lat="45.04024" lon="14.94178">
        <ele>744</ele>
        <time>2016-07-22T19:11:58Z</time>
      </trkpt>
      <trkpt lat="45.04026" lon="14.9419">
        <ele>744</ele>
        <time>2016-07-22T19:13:58Z</time>
      </trkpt>
      <trkpt lat="45.04025" lon="14.94201">
        <ele>744</ele>
        <time>2016-07-22T19:15:58Z</time>
      </trkpt>
      <trkpt lat="45.04023" lon="14.94215">
        <ele>745</ele>
        <time>2016-07-22T19:17:58Z</time>
      </trkpt>
      <trkpt lat="45.04021" lon="14.94233">
        <ele>745</ele>
        <time>2016-07-22T19:19:58Z</time>
      </trkpt>
      <trkpt lat="45.0402" lon="14.94242">
        <ele>745</ele>
        <time>2016-07-22T19:21:58Z</time>
      </trkpt>
      <trkpt lat="45.04018" lon="14.94251">
        <ele>745</ele>
        <time>2016-07-22T19:23:58Z</time>
      </trkpt>
      <trkpt lat="45.04014" lon="14.94277">
        <ele>745</ele>
        <time>2016-07-22T19:25:58Z</time>
      </trkpt>
      <trkpt lat="45.0401" lon="14.94313">
        <ele>745</ele>
        <time>2016-07-22T19:27:58Z</time>
      </trkpt>
      <trkpt lat="45.04004" lon="14.94342">
        <ele>746</ele>
        <time>2016-07-22T19:29:58Z</time>
      </trkpt>
      <trkpt lat="45.03997" lon="14.94368">
        <ele>747</ele>
        <time>2016-07-22T19:31:58Z</time>
      </trkpt>
      <trkpt lat="45.03984" lon="14.94399">
        <ele>749</ele>
        <time>2016-07-22T19:33:58Z</time>
      </trkpt>
      <trkpt lat="45.03965" lon="14.94444">
        <ele>752</ele>
        <time>2016-07-22T19:35:58Z</time>
      </trkpt>
      <trkpt lat="45.03957" lon="14.94462">
        <ele>753</ele>
        <time>2016-07-22T19:37:58Z</time>
      </trkpt>
      <trkpt lat="45.03953" lon="14.94473">
        <ele>754</ele>
        <time>2016-07-22T19:39:58Z</time>
      </trkpt>
      <trkpt lat="45.03949" lon="14.94493">
        <ele>755</ele>
        <time>2016-07-22T19:41:58Z</time>
      </trkpt>
      <trkpt lat="45.03949" lon="14.94503">
        <ele>756</ele>
        <time>2016-07-22T19:43:58Z</time>
      </trkpt>
      <trkpt lat="45.0395" lon="14.94523">
        <ele>756</ele>
        <time>2016-07-22T19:45:58Z</time>
      </trkpt>
      <trkpt lat="45.03948" lon="14.94582">
        <ele>756</ele>
        <time>2016-07-22T19:47:58Z</time>
      </trkpt>
      <trkpt lat="45.03945" lon="14.9462">
        <ele>759</ele>
        <time>2016-07-22T19:49:58Z</time>
      </trkpt>
      <trkpt lat="45.03942" lon="14.94635">
        <ele>760</ele>
        <time>2016-07-22T19:51:58Z</time>
      </trkpt>
      <trkpt lat="45.03937" lon="14.94653">
        <ele>761</ele>
        <time>2016-07-22T19:53:58Z</time>
      </trkpt>
      <trkpt lat="45.03933" lon="14.94668">
        <ele>763</ele>
        <time>2016-07-22T19:55:58Z</time>
      </trkpt>
      <trkpt lat="45.03927" lon="14.94683">
        <ele>765</ele>
        <time>2016-07-22T19:57:58Z</time>
      </trkpt>
      <trkpt lat="45.03923" lon="14.94689">
        <ele>766</ele>
        <time>2016-07-22T19:59:58Z</time>
      </trkpt>
      <trkpt lat="45.03921" lon="14.94692">
        <ele>766</ele>
        <time>2016-07-22T20:01:58Z</time>
      </trkpt>
      <trkpt lat="45.03917" lon="14.94696">
        <ele>766</ele>
        <time>2016-07-22T20:03:58Z</time>
      </trkpt>
      <trkpt lat="45.03914" lon="14.94699">
        <ele>767</ele>
        <time>2016-07-22T20:05:58Z</time>
      </trkpt>
      <trkpt lat="45.03908" lon="14.94702">
        <ele>766</ele>
        <time>2016-07-22T20:07:58Z</time>
      </trkpt>
      <trkpt lat="45.03904" lon="14.94705">
        <ele>767</ele>
        <time>2016-07-22T20:09:58Z</time>
      </trkpt>
      <trkpt lat="45.039" lon="14.94708">
        <ele>767</ele>
        <time>2016-07-22T20:11:58Z</time>
      </trkpt>
      <trkpt lat="45.03896" lon="14.94713">
        <ele>767</ele>
        <time>2016-07-22T20:13:58Z</time>
      </trkpt>
      <trkpt lat="45.03893" lon="14.94718">
        <ele>768</ele>
        <time>2016-07-22T20:15:58Z</time>
      </trkpt>
      <trkpt lat="45.0389" lon="14.94724">
        <ele>768</ele>
        <time>2016-07-22T20:17:58Z</time>
      </trkpt>
      <trkpt lat="45.03887" lon="14.94729">
        <ele>769</ele>
        <time>2016-07-22T20:19:58Z</time>
      </trkpt>
      <trkpt lat="45.03884" lon="14.94737">
        <ele>770</ele>
        <time>2016-07-22T20:21:58Z</time>
      </trkpt>
      <trkpt lat="45.03879" lon="14.94745">
        <ele>771</ele>
        <time>2016-07-22T20:23:58Z</time>
      </trkpt>
      <trkpt lat="45.03873" lon="14.94753">
        <ele>771</ele>
        <time>2016-07-22T20:25:58Z</time>
      </trkpt>
      <trkpt lat="45.03867" lon="14.94759">
        <ele>772</ele>
        <time>2016-07-22T20:27:58Z</time>
      </trkpt>
      <trkpt lat="45.03861" lon="14.94765">
        <ele>773</ele>
        <time>2016-07-22T20:29:58Z</time>
      </trkpt>
      <trkpt lat="45.03853" lon="14.94771">
        <ele>773</ele>
        <time>2016-07-22T20:31:58Z</time>
      </trkpt>
      <trkpt lat="45.0384" lon="14.94778">
        <ele>773</ele>
        <time>2016-07-22T20:33:58Z</time>
      </trkpt>
      <trkpt lat="45.0383" lon="14.9478">
        <ele>773</ele>
        <time>2016-07-22T20:35:58Z</time>
      </trkpt>
      <trkpt lat="45.03817" lon="14.94782">
        <ele>773</ele>
        <time>2016-07-22T20:37:58Z</time>
      </trkpt>
      <trkpt lat="45.03803" lon="14.94784">
        <ele>773</ele>
        <time>2016-07-22T20:39:58Z</time>
      </trkpt>
      <trkpt lat="45.0379" lon="14.94785">
        <ele>773</ele>
        <time>2016-07-22T20:41:58Z</time>
      </trkpt>
      <trkpt lat="45.03783" lon="14.94786">
        <ele>773</ele>
        <time>2016-07-22T20:43:58Z</time>
      </trkpt>
      <trkpt lat="45.03776" lon="14.94789">
        <ele>773</ele>
        <time>2016-07-22T20:45:58Z</time>
      </trkpt>
      <trkpt lat="45.03769" lon="14.94793">
        <ele>774</ele>
        <time>2016-07-22T20:47:58Z</time>
      </trkpt>
      <trkpt lat="45.03763" lon="14.94796">
        <ele>774</ele>
        <time>2016-07-22T20:49:58Z</time>
      </trkpt>
      <trkpt lat="45.03757" lon="14.948">
        <ele>775</ele>
        <time>2016-07-22T20:51:58Z</time>
      </trkpt>
      <trkpt lat="45.0375" lon="14.94809">
        <ele>776</ele>
        <time>2016-07-22T20:53:58Z</time>
      </trkpt>
      <trkpt lat="45.03745" lon="14.94814">
        <ele>777</ele>
        <time>2016-07-22T20:55:58Z</time>
      </trkpt>
      <trkpt lat="45.03738" lon="14.94821">
        <ele>778</ele>
        <time>2016-07-22T20:57:58Z</time>
      </trkpt>
      <trkpt lat="45.0373" lon="14.94826">
        <ele>778</ele>
        <time>2016-07-22T20:59:58Z</time>
      </trkpt>
      <trkpt lat="45.03717" lon="14.94836">
        <ele>779</ele>
        <time>2016-07-22T21:01:58Z</time>
      </trkpt>
      <trkpt lat="45.03708" lon="14.94843">
        <ele>779</ele>
        <time>2016-07-22T21:03:58Z</time>
      </trkpt>
      <trkpt lat="45.03702" lon="14.94848">
        <ele>780</ele>
        <time>2016-07-22T21:05:58Z</time>
      </trkpt>
      <trkpt lat="45.03695" lon="14.94855">
        <ele>781</ele>
        <time>2016-07-22T21:07:58Z</time>
      </trkpt>
      <trkpt lat="45.03689" lon="14.94862">
        <ele>781</ele>
        <time>2016-07-22T21:09:58Z</time>
      </trkpt>
      <trkpt lat="45.03682" lon="14.9487">
        <ele>782</ele>
        <time>2016-07-22T21:11:58Z</time>
      </trkpt>
      <trkpt lat="45.03676" lon="14.94878">
        <ele>783</ele>
        <time>2016-07-22T21:13:58Z</time>
      </trkpt>
      <trkpt lat="45.0367" lon="14.94886">
        <ele>784</ele>
        <time>2016-07-22T21:15:58Z</time>
      </trkpt>
      <trkpt lat="45.03665" lon="14.94894">
        <ele>785</ele>
        <time>2016-07-22T21:17:58Z</time>
      </trkpt>
      <trkpt lat="45.0366" lon="14.94903">
        <ele>786</ele>
        <time>2016-07-22T21:19:58Z</time>
      </trkpt>
      <trkpt lat="45.03654" lon="14.94911">
        <ele>787</ele>
        <time>2016-07-22T21:21:58Z</time>
      </trkpt>
      <trkpt lat="45.0365" lon="14.94922">
        <ele>788</ele>
        <time>2016-07-22T21:23:58Z</time>
      </trkpt>
      <trkpt lat="45.03645" lon="14.94933">
        <ele>790</ele>
        <time>2016-07-22T21:25:58Z</time>
      </trkpt>
      <trkpt lat="45.03639" lon="14.94945">
        <ele>792</ele>
        <time>2016-07-22T21:27:58Z</time>
      </trkpt>
      <trkpt lat="45.03637" lon="14.94952">
        <ele>793</ele>
        <time>2016-07-22T21:29:58Z</time>
      </trkpt>
      <trkpt lat="45.03633" lon="14.94962">
        <ele>794</ele>
        <time>2016-07-22T21:31:58Z</time>
      </trkpt>
      <trkpt lat="45.03627" lon="14.94972">
        <ele>796</ele>
        <time>2016-07-22T21:33:58Z</time>
      </trkpt>
      <trkpt lat="45.0362" lon="14.94984">
        <ele>797</ele>
        <time>2016-07-22T21:35:58Z</time>
      </trkpt>
      <trkpt lat="45.03615" lon="14.94991">
        <ele>798</ele>
        <time>2016-07-22T21:37:58Z</time>
      </trkpt>
      <trkpt lat="45.03609" lon="14.94997">
        <ele>799</ele>
        <time>2016-07-22T21:39:58Z</time>
      </trkpt>
      <trkpt lat="45.03599" lon="14.95007">
        <ele>800</ele>
        <time>2016-07-22T21:41:58Z</time>
      </trkpt>
      <trkpt lat="45.03578" lon="14.95026">
        <ele>804</ele>
        <time>2016-07-22T21:43:58Z</time>
      </trkpt>
      <trkpt lat="45.03557" lon="14.95049">
        <ele>810</ele>
        <time>2016-07-22T21:45:58Z</time>
      </trkpt>
      <trkpt lat="45.03548" lon="14.9506">
        <ele>812</ele>
        <time>2016-07-22T21:47:58Z</time>
      </trkpt>
      <trkpt lat="45.03543" lon="14.95067">
        <ele>814</ele>
        <time>2016-07-22T21:49:58Z</time>
      </trkpt>
      <trkpt lat="45.03536" lon="14.95074">
        <ele>815</ele>
        <time>2016-07-22T21:51:58Z</time>
      </trkpt>
      <trkpt lat="45.03531" lon="14.95078">
        <ele>815</ele>
        <time>2016-07-22T21:53:58Z</time>
      </trkpt>
      <trkpt lat="45.03525" lon="14.95082">
        <ele>816</ele>
        <time>2016-07-22T21:55:58Z</time>
      </trkpt>
      <trkpt lat="45.03516" lon="14.95086">
        <ele>816</ele>
        <time>2016-07-22T21:57:58Z</time>
      </trkpt>
      <trkpt lat="45.03508" lon="14.95088">
        <ele>816</ele>
        <time>2016-07-22T21:59:58Z</time>
      </trkpt>
      <trkpt lat="45.03502" lon="14.95089">
        <ele>816</ele>
        <time>2016-07-22T22:01:58Z</time>
      </trkpt>
      <trkpt lat="45.03494" lon="14.95089">
        <ele>816</ele>
        <time>2016-07-22T22:03:58Z</time>
      </trkpt>
      <trkpt lat="45.03485" lon="14.95089">
        <ele>817</ele>
        <time>2016-07-22T22:05:58Z</time>
      </trkpt>
      <trkpt lat="45.03474" lon="14.95088">
        <ele>818</ele>
        <time>2016-07-22T22:07:58Z</time>
      </trkpt>
      <trkpt lat="45.03468" lon="14.95088">
        <ele>818</ele>
        <time>2016-07-22T22:09:58Z</time>
      </trkpt>
      <trkpt lat="45.03463" lon="14.95089">
        <ele>819</ele>
        <time>2016-07-22T22:11:58Z</time>
      </trkpt>
      <trkpt lat="45.03456" lon="14.95091">
        <ele>820</ele>
        <time>2016-07-22T22:13:58Z</time>
      </trkpt>
      <trkpt lat="45.03453" lon="14.95093">
        <ele>820</ele>
        <time>2016-07-22T22:15:58Z</time>
      </trkpt>
      <trkpt lat="45.0345" lon="14.95096">
        <ele>821</ele>
        <time>2016-07-22T22:17:58Z</time>
      </trkpt>
      <trkpt lat="45.03446" lon="14.95099">
        <ele>821</ele>
        <time>2016-07-22T22:19:58Z</time>
      </trkpt>
      <trkpt lat="45.03443" lon="14.95103">
        <ele>821</ele>
        <time>2016-07-22T22:21:58Z</time>
      </trkpt>
      <trkpt lat="45.0344" lon="14.95106">
        <ele>822</ele>
        <time>2016-07-22T22:23:58Z</time>
      </trkpt>
      <trkpt lat="45.03438" lon="14.95111">
        <ele>822</ele>
        <time>2016-07-22T22:25:58Z</time>
      </trkpt>
      <trkpt lat="45.03435" lon="14.95115">
        <ele>822</ele>
        <time>2016-07-22T22:27:58Z</time>
      </trkpt>
      <trkpt lat="45.03433" lon="14.9512">
        <ele>823</ele>
        <time>2016-07-22T22:29:58Z</time>
      </trkpt>
      <trkpt lat="45.03431" lon="14.95125">
        <ele>823</ele>
        <time>2016-07-22T22:31:58Z</time>
      </trkpt>
      <trkpt lat="45.03429" lon="14.9513">
        <ele>823</ele>
        <time>2016-07-22T22:33:58Z</time>
      </trkpt>
      <trkpt lat="45.03427" lon="14.95136">
        <ele>823</ele>
        <time>2016-07-22T22:35:58Z</time>
      </trkpt>
      <trkpt lat="45.03426" lon="14.95142">
        <ele>824</ele>
        <time>2016-07-22T22:37:58Z</time>
      </trkpt>
      <trkpt lat="45.03425" lon="14.95148">
        <ele>824</ele>
        <time>2016-07-22T22:39:58Z</time>
      </trkpt>
      <trkpt lat="45.03424" lon="14.95155">
        <ele>824</ele>
        <time>2016-07-22T22:41:58Z</time>
      </trkpt>
      <trkpt lat="45.03423" lon="14.95161">
        <ele>824</ele>
        <time>2016-07-22T22:43:58Z</time>
      </trkpt>
      <trkpt lat="45.03423" lon="14.95167">
        <ele>824</ele>
        <time>2016-07-22T22:45:58Z</time>
      </trkpt>
      <trkpt lat="45.03423" lon="14.95169">
        <ele>824</ele>
        <time>2016-07-22T22:47:58Z</time>
      </trkpt>
      <trkpt lat="45.03423" lon="14.95183">
        <ele>823</ele>
        <time>2016-07-22T22:49:58Z</time>
      </trkpt>
      <trkpt lat="45.03422" lon="14.95196">
        <ele>821</ele>
        <time>2016-07-22T22:51:58Z</time>
      </trkpt>
      <trkpt lat="45.03419" lon="14.95211">
        <ele>820</ele>
        <time>2016-07-22T22:53:58Z</time>
      </trkpt>
      <trkpt lat="45.03416" lon="14.95221">
        <ele>819</ele>
        <time>2016-07-22T22:55:58Z</time>
      </trkpt>
      <trkpt lat="45.03411" lon="14.95236">
        <ele>818</ele>
        <time>2016-07-22T22:57:58Z</time>
      </trkpt>
      <trkpt lat="45.03404" lon="14.95259">
        <ele>816</ele>
        <time>2016-07-22T22:59:58Z</time>
      </trkpt>
      <trkpt lat="45.03396" lon="14.95277">
        <ele>814</ele>
        <time>2016-07-22T23:01:58Z</time>
      </trkpt>
      <trkpt lat="45.03391" lon="14.95285">
        <ele>813</ele>
        <time>2016-07-22T23:03:58Z</time>
      </trkpt>
      <trkpt lat="45.03387" lon="14.95291">
        <ele>812</ele>
        <time>2016-07-22T23:05:58Z</time>
      </trkpt>
      <trkpt lat="45.03381" lon="14.95298">
        <ele>812</ele>
        <time>2016-07-22T23:07:58Z</time>
      </trkpt>
      <trkpt lat="45.03376" lon="14.95303">
        <ele>811</ele>
        <time>2016-07-22T23:09:58Z</time>
      </trkpt>
      <trkpt lat="45.03369" lon="14.95309">
        <ele>811</ele>
        <time>2016-07-22T23:11:58Z</time>
      </trkpt>
      <trkpt lat="45.03362" lon="14.95314">
        <ele>811</ele>
        <time>2016-07-22T23:13:58Z</time>
      </trkpt>
      <trkpt lat="45.03357" lon="14.95318">
        <ele>811</ele>
        <time>2016-07-22T23:15:58Z</time>
      </trkpt>
      <trkpt lat="45.03348" lon="14.95322">
        <ele>811</ele>
        <time>2016-07-22T23:17:58Z</time>
      </trkpt>
      <trkpt lat="45.03336" lon="14.95325">
        <ele>812</ele>
        <time>2016-07-22T23:19:58Z</time>
      </trkpt>
      <trkpt lat="45.03326" lon="14.95327">
        <ele>813</ele>
        <time>2016-07-22T23:21:58Z</time>
      </trkpt>
      <trkpt lat="45.03319" lon="14.95329">
        <ele>814</ele>
        <time>2016-07-22T23:23:58Z</time>
      </trkpt>
      <trkpt lat="45.03316" lon="14.95331">
        <ele>814</ele>
        <time>2016-07-22T23:25:58Z</time>
      </trkpt>
      <trkpt lat="45.03314" lon="14.95334">
        <ele>814</ele>
        <time>2016-07-22T23:27:58Z</time>
      </trkpt>
      <trkpt lat="45.03312" lon="14.95336">
        <ele>814</ele>
        <time>2016-07-22T23:29:58Z</time>
      </trkpt>
      <trkpt lat="45.03309" lon="14.9534">
        <ele>814</ele>
        <time>2016-07-22T23:31:58Z</time>
      </trkpt>
      <trkpt lat="45.03306" lon="14.95344">
        <ele>814</ele>
        <time>2016-07-22T23:33:58Z</time>
      </trkpt>
      <trkpt lat="45.03305" lon="14.95349">
        <ele>813</ele>
        <time>2016-07-22T23:35:58Z</time>
      </trkpt>
      <trkpt lat="45.03304" lon="14.95354">
        <ele>813</ele>
        <time>2016-07-22T23:37:58Z</time>
      </trkpt>
      <trkpt lat="45.03304" lon="14.95362">
        <ele>812</ele>
        <time>2016-07-22T23:39:58Z</time>
      </trkpt>
      <trkpt lat="45.03304" lon="14.95372">
        <ele>810</ele>
        <time>2016-07-22T23:41:58Z</time>
      </trkpt>
      <trkpt lat="45.03303" lon="14.95384">
        <ele>809</ele>
        <time>2016-07-22T23:43:58Z</time>
      </trkpt>
      <trkpt lat="45.03301" lon="14.95396">
        <ele>808</ele>
        <time>2016-07-22T23:45:58Z</time>
      </trkpt>
      <trkpt lat="45.03298" lon="14.95406">
        <ele>807</ele>
        <time>2016-07-22T23:47:58Z</time>
      </trkpt>
      <trkpt lat="45.03293" lon="14.95417">
        <ele>806</ele>
        <time>2016-07-22T23:49:58Z</time>
      </trkpt>
      <trkpt lat="45.03267" lon="14.95469">
        <ele>804</ele>
        <time>2016-07-22T23:51:58Z</time>
      </trkpt>
      <trkpt lat="45.03254" lon="14.95489">
        <ele>803</ele>
        <time>2016-07-22T23:53:58Z</time>
      </trkpt>
      <trkpt lat="45.0323" lon="14.9552">
        <ele>803</ele>
        <time>2016-07-22T23:55:58Z</time>
      </trkpt>
      <trkpt lat="45.03221" lon="14.95531">
        <ele>803</ele>
        <time>2016-07-22T23:57:58Z</time>
      </trkpt>
      <trkpt lat="45.03213" lon="14.9554">
        <ele>803</ele>
        <time>2016-07-22T23:59:58Z</time>
      </trkpt>
      <trkpt lat="45.03209" lon="14.95548">
        <ele>803</ele>
        <time>2016-07-23T00:01:58Z</time>
      </trkpt>
      <trkpt lat="45.03206" lon="14.95556">
        <ele>802</ele>
        <time>2016-07-23T00:03:58Z</time>
      </trkpt>
      <trkpt lat="45.03202" lon="14.95565">
        <ele>802</ele>
        <time>2016-07-23T00:05:58Z</time>
      </trkpt>
      <trkpt lat="45.032" lon="14.95582">
        <ele>800</ele>
        <time>2016-07-23T00:07:58Z</time>
      </trkpt>
      <trkpt lat="45.032" lon="14.95596">
        <ele>800</ele>
        <time>2016-07-23T00:09:58Z</time>
      </trkpt>
      <trkpt lat="45.032" lon="14.95613">
        <ele>801</ele>
        <time>2016-07-23T00:11:58Z</time>
      </trkpt>
      <trkpt lat="45.03202" lon="14.95629">
        <ele>801</ele>
        <time>2016-07-23T00:13:58Z</time>
      </trkpt>
      <trkpt lat="45.03205" lon="14.95644">
        <ele>801</ele>
        <time>2016-07-23T00:15:58Z</time>
      </trkpt>
      <trkpt lat="45.03208" lon="14.95655">
        <ele>801</ele>
        <time>2016-07-23T00:17:58Z</time>
      </trkpt>
      <trkpt lat="45.03215" lon="14.95672">
        <ele>801</ele>
        <time>2016-07-23T00:19:58Z</time>
      </trkpt>
      <trkpt lat="45.03226" lon="14.95699">
        <ele>804</ele>
        <time>2016-07-23T00:21:58Z</time>
      </trkpt>
      <trkpt lat="45.03231" lon="14.95711">
        <ele>804</ele>
        <time>2016-07-23T00:23:58Z</time>
      </trkpt>
      <trkpt lat="45.03236" lon="14.95725">
        <ele>805</ele>
        <time>2016-07-23T00:25:58Z</time>
      </trkpt>
      <trkpt lat="45.03238" lon="14.95735">
        <ele>806</ele>
        <time>2016-07-23T00:27:58Z</time>
      </trkpt>
      <trkpt lat="45.03242" lon="14.95755">
        <ele>807</ele>
        <time>2016-07-23T00:29:58Z</time>
      </trkpt>
      <trkpt lat="45.03244" lon="14.9578">
        <ele>808</ele>
        <time>2016-07-23T00:31:58Z</time>
      </trkpt>
      <trkpt lat="45.03245" lon="14.9579">
        <ele>809</ele>
        <time>2016-07-23T00:33:58Z</time>
      </trkpt>
      <trkpt lat="45.03247" lon="14.95797">
        <ele>809</ele>
        <time>2016-07-23T00:35:58Z</time>
      </trkpt>
      <trkpt lat="45.0325" lon="14.95804">
        <ele>809</ele>
        <time>2016-07-23T00:37:58Z</time>
      </trkpt>
      <trkpt lat="45.03251" lon="14.95808">
        <ele>809</ele>
        <time>2016-07-23T00:39:58Z</time>
      </trkpt>
      <trkpt lat="45.03253" lon="14.95813">
        <ele>809</ele>
        <time>2016-07-23T00:41:58Z</time>
      </trkpt>
      <trkpt lat="45.03253" lon="14.95818">
        <ele>809</ele>
        <time>2016-07-23T00:43:58Z</time>
      </trkpt>
      <trkpt lat="45.03254" lon="14.95823">
        <ele>809</ele>
        <time>2016-07-23T00:45:58Z</time>
      </trkpt>
      <trkpt lat="45.03253" lon="14.95863">
        <ele>809</ele>
        <time>2016-07-23T00:47:58Z</time>
      </trkpt>
      <trkpt lat="45.03252" lon="14.95894">
        <ele>808</ele>
        <time>2016-07-23T00:49:58Z</time>
      </trkpt>
      <trkpt lat="45.03253" lon="14.95909">
        <ele>808</ele>
        <time>2016-07-23T00:51:58Z</time>
      </trkpt>
      <trkpt lat="45.03253" lon="14.95924">
        <ele>808</ele>
        <time>2016-07-23T00:53:58Z</time>
      </trkpt>
      <trkpt lat="45.03254" lon="14.95939">
        <ele>809</ele>
        <time>2016-07-23T00:55:58Z</time>
      </trkpt>
      <trkpt lat="45.03255" lon="14.95959">
        <ele>810</ele>
        <time>2016-07-23T00:57:58Z</time>
      </trkpt>
      <trkpt lat="45.03256" lon="14.95977">
        <ele>811</ele>
        <time>2016-07-23T00:59:58Z</time>
      </trkpt>
      <trkpt lat="45.03257" lon="14.95998">
        <ele>812</ele>
        <time>2016-07-23T01:01:58Z</time>
      </trkpt>
      <trkpt lat="45.03257" lon="14.96005">
        <ele>813</ele>
        <time>2016-07-23T01:03:58Z</time>
      </trkpt>
      <trkpt lat="45.03258" lon="14.96017">
        <ele>813</ele>
        <time>2016-07-23T01:05:58Z</time>
      </trkpt>
      <trkpt lat="45.03256" lon="14.96037">
        <ele>815</ele>
        <time>2016-07-23T01:07:58Z</time>
      </trkpt>
      <trkpt lat="45.03252" lon="14.96063">
        <ele>817</ele>
        <time>2016-07-23T01:09:58Z</time>
      </trkpt>
      <trkpt lat="45.03247" lon="14.96083">
        <ele>820</ele>
        <time>2016-07-23T01:11:58Z</time>
      </trkpt>
      <trkpt lat="45.03242" lon="14.961">
        <ele>820</ele>
        <time>2016-07-23T01:13:58Z</time>
      </trkpt>
      <trkpt lat="45.03228" lon="14.96139">
        <ele>820</ele>
        <time>2016-07-23T01:15:58Z</time>
      </trkpt>
      <trkpt lat="45.03221" lon="14.96157">
        <ele>821</ele>
        <time>2016-07-23T01:17:58Z</time>
      </trkpt>
      <trkpt lat="45.03212" lon="14.96181">
        <ele>821</ele>
        <time>2016-07-23T01:19:58Z</time>
      </trkpt>
      <trkpt lat="45.03209" lon="14.96195">
        <ele>821</ele>
        <time>2016-07-23T01:21:58Z</time>
      </trkpt>
      <trkpt lat="45.03207" lon="14.96206">
        <ele>821</ele>
        <time>2016-07-23T01:23:58Z</time>
      </trkpt>
      <trkpt lat="45.03206" lon="14.96225">
        <ele>820</ele>
        <time>2016-07-23T01:25:58Z</time>
      </trkpt>
      <trkpt lat="45.03206" lon="14.96239">
        <ele>819</ele>
        <time>2016-07-23T01:27:58Z</time>
      </trkpt>
      <trkpt lat="45.03206" lon="14.96247">
        <ele>819</ele>
        <time>2016-07-23T01:29:58Z</time>
      </trkpt>
      <trkpt lat="45.03206" lon="14.96256">
        <ele>819</ele>
        <time>2016-07-23T01:31:58Z</time>
      </trkpt>
      <trkpt lat="45.03207" lon="14.96264">
        <ele>819</ele>
        <time>2016-07-23T01:33:58Z</time>
      </trkpt>
      <trkpt lat="45.03207" lon="14.96279">
        <ele>820</ele>
        <time>2016-07-23T01:35:58Z</time>
      </trkpt>
      <trkpt lat="45.03207" lon="14.96294">
        <ele>821</ele>
        <time>2016-07-23T01:37:58Z</time>
      </trkpt>
      <trkpt lat="45.03208" lon="14.96309">
        <ele>821</ele>
        <time>2016-07-23T01:39:58Z</time>
      </trkpt>
      <trkpt lat="45.03209" lon="14.96324">
        <ele>822</ele>
        <time>2016-07-23T01:41:58Z</time>
      </trkpt>
      <trkpt lat="45.0321" lon="14.96339">
        <ele>822</ele>
        <time>2016-07-23T01:43:58Z</time>
      </trkpt>
      <trkpt lat="45.03212" lon="14.96353">
        <ele>822</ele>
        <time>2016-07-23T01:45:58Z</time>
      </trkpt>
      <trkpt lat="45.03213" lon="14.96368">
        <ele>822</ele>
        <time>2016-07-23T01:47:58Z</time>
      </trkpt>
      <trkpt lat="45.03215" lon="14.96383">
        <ele>822</ele>
        <time>2016-07-23T01:49:58Z</time>
      </trkpt>
      <trkpt lat="45.03217" lon="14.96396">
        <ele>822</ele>
        <time>2016-07-23T01:51:58Z</time>
      </trkpt>
      <trkpt lat="45.0322" lon="14.9641">
        <ele>822</ele>
        <time>2016-07-23T01:53:58Z</time>
      </trkpt>
      <trkpt lat="45.03222" lon="14.96423">
        <ele>822</ele>
        <time>2016-07-23T01:55:58Z</time>
      </trkpt>
      <trkpt lat="45.03232" lon="14.96463">
        <ele>821</ele>
        <time>2016-07-23T01:57:58Z</time>
      </trkpt>
      <trkpt lat="45.03232" lon="14.96463">
        <ele>821</ele>
        <time>2016-07-23T01:59:58Z</time>
      </trkpt>
      <trkpt lat="45.03221" lon="14.9647">
        <ele>822</ele>
        <time>2016-07-23T02:01:58Z</time>
      </trkpt>
      <trkpt lat="45.03203" lon="14.96479">
        <ele>822</ele>
        <time>2016-07-23T02:03:58Z</time>
      </trkpt>
      <trkpt lat="45.03198" lon="14.96483">
        <ele>822</ele>
        <time>2016-07-23T02:05:58Z</time>
      </trkpt>
      <trkpt lat="45.03186" lon="14.96496">
        <ele>821</ele>
        <time>2016-07-23T02:07:58Z</time>
      </trkpt>
      <trkpt lat="45.03169" lon="14.96516">
        <ele>820</ele>
        <time>2016-07-23T02:09:58Z</time>
      </trkpt>
      <trkpt lat="45.03153" lon="14.96534">
        <ele>820</ele>
        <time>2016-07-23T02:11:58Z</time>
      </trkpt>
      <trkpt lat="45.03141" lon="14.96546">
        <ele>820</ele>
        <time>2016-07-23T02:13:58Z</time>
      </trkpt>
      <trkpt lat="45.03121" lon="14.96562">
        <ele>821</ele>
        <time>2016-07-23T02:15:58Z</time>
      </trkpt>
      <trkpt lat="45.031" lon="14.96578">
        <ele>822</ele>
        <time>2016-07-23T02:17:58Z</time>
      </trkpt>
      <trkpt lat="45.03071" lon="14.96598">
        <ele>823</ele>
        <time>2016-07-23T02:19:58Z</time>
      </trkpt>
      <trkpt lat="45.0306" lon="14.96605">
        <ele>824</ele>
        <time>2016-07-23T02:21:58Z</time>
      </trkpt>
      <trkpt lat="45.03051" lon="14.96609">
        <ele>824</ele>
        <time>2016-07-23T02:23:58Z</time>
      </trkpt>
      <trkpt lat="45.03041" lon="14.96613">
        <ele>824</ele>
        <time>2016-07-23T02:25:58Z</time>
      </trkpt>
      <trkpt lat="45.03034" lon="14.96615">
        <ele>825</ele>
        <time>2016-07-23T02:27:58Z</time>
      </trkpt>
      <trkpt lat="45.03025" lon="14.96615">
        <ele>825</ele>
        <time>2016-07-23T02:29:58Z</time>
      </trkpt>
      <trkpt lat="45.03018" lon="14.96615">
        <ele>826</ele>
        <time>2016-07-23T02:31:58Z</time>
      </trkpt>
      <trkpt lat="45.03011" lon="14.96616">
        <ele>826</ele>
        <time>2016-07-23T02:33:58Z</time>
      </trkpt>
      <trkpt lat="45.03004" lon="14.96617">
        <ele>826</ele>
        <time>2016-07-23T02:35:58Z</time>
      </trkpt>
      <trkpt lat="45.02997" lon="14.96621">
        <ele>826</ele>
        <time>2016-07-23T02:37:58Z</time>
      </trkpt>
      <trkpt lat="45.02984" lon="14.96631">
        <ele>827</ele>
        <time>2016-07-23T02:39:58Z</time>
      </trkpt>
      <trkpt lat="45.02977" lon="14.9664">
        <ele>827</ele>
        <time>2016-07-23T02:41:58Z</time>
      </trkpt>
      <trkpt lat="45.02973" lon="14.96646">
        <ele>827</ele>
        <time>2016-07-23T02:43:58Z</time>
      </trkpt>
      <trkpt lat="45.02969" lon="14.96656">
        <ele>827</ele>
        <time>2016-07-23T02:45:58Z</time>
      </trkpt>
      <trkpt lat="45.02965" lon="14.96665">
        <ele>827</ele>
        <time>2016-07-23T02:47:58Z</time>
      </trkpt>
      <trkpt lat="45.02962" lon="14.96676">
        <ele>826</ele>
        <time>2016-07-23T02:49:58Z</time>
      </trkpt>
      <trkpt lat="45.02959" lon="14.96681">
        <ele>826</ele>
        <time>2016-07-23T02:51:58Z</time>
      </trkpt>
      <trkpt lat="45.02956" lon="14.96684">
        <ele>826</ele>
        <time>2016-07-23T02:53:58Z</time>
      </trkpt>
      <trkpt lat="45.02953" lon="14.96686">
        <ele>826</ele>
        <time>2016-07-23T02:55:58Z</time>
      </trkpt>
      <trkpt lat="45.02947" lon="14.96687">
        <ele>826</ele>
        <time>2016-07-23T02:57:58Z</time>
      </trkpt>
      <trkpt lat="45.02939" lon="14.96689">
        <ele>826</ele>
        <time>2016-07-23T02:59:58Z</time>
      </trkpt>
      <trkpt lat="45.02919" lon="14.96689">
        <ele>828</ele>
        <time>2016-07-23T03:01:58Z</time>
      </trkpt>
      <trkpt lat="45.02854" lon="14.9668">
        <ele>833</ele>
        <time>2016-07-23T03:03:58Z</time>
      </trkpt>
      <trkpt lat="45.02818" lon="14.96673">
        <ele>835</ele>
        <time>2016-07-23T03:05:58Z</time>
      </trkpt>
      <trkpt lat="45.02818" lon="14.96673">
        <ele>835</ele>
        <time>2016-07-23T03:07:58Z</time>
      </trkpt>
      <trkpt lat="45.02815" lon="14.96673">
        <ele>835</ele>
        <time>2016-07-23T03:09:58Z</time>
      </trkpt>
      <trkpt lat="45.02799" lon="14.96668">
        <ele>835</ele>
        <time>2016-07-23T03:11:58Z</time>
      </trkpt>
      <trkpt lat="45.02783" lon="14.9666">
        <ele>836</ele>
        <time>2016-07-23T03:13:58Z</time>
      </trkpt>
      <trkpt lat="45.02756" lon="14.96647">
        <ele>836</ele>
        <time>2016-07-23T03:15:58Z</time>
      </trkpt>
      <trkpt lat="45.02742" lon="14.9664">
        <ele>837</ele>
        <time>2016-07-23T03:17:58Z</time>
      </trkpt>
      <trkpt lat="45.02717" lon="14.96628">
        <ele>840</ele>
        <time>2016-07-23T03:19:58Z</time>
      </trkpt>
      <trkpt lat="45.02703" lon="14.96625">
        <ele>841</ele>
        <time>2016-07-23T03:21:58Z</time>
      </trkpt>
      <trkpt lat="45.02694" lon="14.96625">
        <ele>841</ele>
        <time>2016-07-23T03:23:58Z</time>
      </trkpt>
      <trkpt lat="45.02684" lon="14.96625">
        <ele>841</ele>
        <time>2016-07-23T03:25:58Z</time>
      </trkpt>
      <trkpt lat="45.02669" lon="14.96629">
        <ele>841</ele>
        <time>2016-07-23T03:27:58Z</time>
      </trkpt>
      <trkpt lat="45.0265" lon="14.96639">
        <ele>841</ele>
        <time>2016-07-23T03:29:58Z</time>
      </trkpt>
      <trkpt lat="45.02631" lon="14.96653">
        <ele>841</ele>
        <time>2016-07-23T03:31:58Z</time>
      </trkpt>
      <trkpt lat="45.02601" lon="14.96682">
        <ele>841</ele>
        <time>2016-07-23T03:33:58Z</time>
      </trkpt>
      <trkpt lat="45.0258" lon="14.96705">
        <ele>839</ele>
        <time>2016-07-23T03:35:58Z</time>
      </trkpt>
      <trkpt lat="45.0257" lon="14.9671">
        <ele>840</ele>
        <time>2016-07-23T03:37:58Z</time>
      </trkpt>
      <trkpt lat="45.02561" lon="14.96713">
        <ele>841</ele>
        <time>2016-07-23T03:39:58Z</time>
      </trkpt>
      <trkpt lat="45.0255" lon="14.96715">
        <ele>842</ele>
        <time>2016-07-23T03:41:58Z</time>
      </trkpt>
      <trkpt lat="45.02543" lon="14.96716">
        <ele>843</ele>
        <time>2016-07-23T03:43:58Z</time>
      </trkpt>
      <trkpt lat="45.02539" lon="14.96716">
        <ele>844</ele>
        <time>2016-07-23T03:45:58Z</time>
      </trkpt>
      <trkpt lat="45.02535" lon="14.96717">
        <ele>844</ele>
        <time>2016-07-23T03:47:58Z</time>
      </trkpt>
      <trkpt lat="45.02531" lon="14.9672">
        <ele>844</ele>
        <time>2016-07-23T03:49:58Z</time>
      </trkpt>
      <trkpt lat="45.02529" lon="14.96722">
        <ele>844</ele>
        <time>2016-07-23T03:51:58Z</time>
      </trkpt>
      <trkpt lat="45.02528" lon="14.96727">
        <ele>844</ele>
        <time>2016-07-23T03:53:58Z</time>
      </trkpt>
      <trkpt lat="45.02526" lon="14.96732">
        <ele>843</ele>
        <time>2016-07-23T03:55:58Z</time>
      </trkpt>
      <trkpt lat="45.02523" lon="14.96758">
        <ele>840</ele>
        <time>2016-07-23T03:57:58Z</time>
      </trkpt>
      <trkpt lat="45.0252" lon="14.96774">
        <ele>838</ele>
        <time>2016-07-23T03:59:58Z</time>
      </trkpt>
      <trkpt lat="45.02519" lon="14.96782">
        <ele>837</ele>
        <time>2016-07-23T04:01:58Z</time>
      </trkpt>
      <trkpt lat="45.02517" lon="14.96786">
        <ele>837</ele>
        <time>2016-07-23T04:03:58Z</time>
      </trkpt>
      <trkpt lat="45.02513" lon="14.96791">
        <ele>837</ele>
        <time>2016-07-23T04:05:58Z</time>
      </trkpt>
      <trkpt lat="45.02483" lon="14.96819">
        <ele>840</ele>
        <time>2016-07-23T04:07:58Z</time>
      </trkpt>
      <trkpt lat="45.02472" lon="14.96832">
        <ele>841</ele>
        <time>2016-07-23T04:09:58Z</time>
      </trkpt>
      <trkpt lat="45.02467" lon="14.9684">
        <ele>841</ele>
        <time>2016-07-23T04:11:58Z</time>
      </trkpt>
      <trkpt lat="45.02461" lon="14.9685">
        <ele>842</ele>
        <time>2016-07-23T04:13:58Z</time>
      </trkpt>
      <trkpt lat="45.02459" lon="14.96854">
        <ele>842</ele>
        <time>2016-07-23T04:15:58Z</time>
      </trkpt>
      <trkpt lat="45.02457" lon="14.9686">
        <ele>842</ele>
        <time>2016-07-23T04:17:58Z</time>
      </trkpt>
      <trkpt lat="45.02456" lon="14.96866">
        <ele>842</ele>
        <time>2016-07-23T04:19:58Z</time>
      </trkpt>
      <trkpt lat="45.02456" lon="14.96871">
        <ele>842</ele>
        <time>2016-07-23T04:21:58Z</time>
      </trkpt>
      <trkpt lat="45.02458" lon="14.9692">
        <ele>837</ele>
        <time>2016-07-23T04:23:58Z</time>
      </trkpt>
      <trkpt lat="45.02459" lon="14.96935">
        <ele>837</ele>
        <time>2016-07-23T04:25:58Z</time>
      </trkpt>
      <trkpt lat="45.0246" lon="14.96942">
        <ele>836</ele>
        <time>2016-07-23T04:27:58Z</time>
      </trkpt>
      <trkpt lat="45.02461" lon="14.96947">
        <ele>835</ele>
        <time>2016-07-23T04:29:58Z</time>
      </trkpt>
      <trkpt lat="45.02462" lon="14.96952">
        <ele>835</ele>
        <time>2016-07-23T04:31:58Z</time>
      </trkpt>
      <trkpt lat="45.02462" lon="14.96957">
        <ele>835</ele>
        <time>2016-07-23T04:33:58Z</time>
      </trkpt>
      <trkpt lat="45.02461" lon="14.96962">
        <ele>835</ele>
        <time>2016-07-23T04:35:58Z</time>
      </trkpt>
      <trkpt lat="45.02459" lon="14.96976">
        <ele>835</ele>
        <time>2016-07-23T04:37:58Z</time>
      </trkpt>
      <trkpt lat="45.02453" lon="14.96994">
        <ele>836</ele>
        <time>2016-07-23T04:39:58Z</time>
      </trkpt>
      <trkpt lat="45.02436" lon="14.97033">
        <ele>838</ele>
        <time>2016-07-23T04:41:58Z</time>
      </trkpt>
      <trkpt lat="45.02427" lon="14.97053">
        <ele>837</ele>
        <time>2016-07-23T04:43:58Z</time>
      </trkpt>
      <trkpt lat="45.02413" lon="14.97078">
        <ele>837</ele>
        <time>2016-07-23T04:45:58Z</time>
      </trkpt>
      <trkpt lat="45.02403" lon="14.97093">
        <ele>838</ele>
        <time>2016-07-23T04:47:58Z</time>
      </trkpt>
      <trkpt lat="45.02391" lon="14.9711">
        <ele>839</ele>
        <time>2016-07-23T04:49:58Z</time>
      </trkpt>
      <trkpt lat="45.02374" lon="14.97128">
        <ele>841</ele>
        <time>2016-07-23T04:51:58Z</time>
      </trkpt>
      <trkpt lat="45.02354" lon="14.97145">
        <ele>841</ele>
        <time>2016-07-23T04:53:58Z</time>
      </trkpt>
      <trkpt lat="45.02331" lon="14.97162">
        <ele>840</ele>
        <time>2016-07-23T04:55:58Z</time>
      </trkpt>
      <trkpt lat="45.02297" lon="14.97188">
        <ele>840</ele>
        <time>2016-07-23T04:57:58Z</time>
      </trkpt>
      <trkpt lat="45.02282" lon="14.972">
        <ele>840</ele>
        <time>2016-07-23T04:59:58Z</time>
      </trkpt>
      <trkpt lat="45.02267" lon="14.97211">
        <ele>839</ele>
        <time>2016-07-23T05:01:58Z</time>
      </trkpt>
      <trkpt lat="45.02259" lon="14.97214">
        <ele>839</ele>
        <time>2016-07-23T05:03:58Z</time>
      </trkpt>
      <trkpt lat="45.0223" lon="14.97226">
        <ele>839</ele>
        <time>2016-07-23T05:05:58Z</time>
      </trkpt>
      <trkpt lat="45.02164" lon="14.97242">
        <ele>841</ele>
        <time>2016-07-23T05:07:58Z</time>
      </trkpt>
      <trkpt lat="45.02117" lon="14.97248">
        <ele>840</ele>
        <time>2016-07-23T05:09:58Z</time>
      </trkpt>
      <trkpt lat="45.02077" lon="14.97249">
        <ele>840</ele>
        <time>2016-07-23T05:11:58Z</time>
      </trkpt>
      <trkpt lat="45.02066" lon="14.9725">
        <ele>840</ele>
        <time>2016-07-23T05:13:58Z</time>
      </trkpt>
      <trkpt lat="45.0206" lon="14.97252">
        <ele>840</ele>
        <time>2016-07-23T05:15:58Z</time>
      </trkpt>
      <trkpt lat="45.02051" lon="14.97258">
        <ele>839</ele>
        <time>2016-07-23T05:17:58Z</time>
      </trkpt>
      <trkpt lat="45.02044" lon="14.97268">
        <ele>838</ele>
        <time>2016-07-23T05:19:58Z</time>
      </trkpt>
      <trkpt lat="45.02038" lon="14.97274">
        <ele>837</ele>
        <time>2016-07-23T05:21:58Z</time>
      </trkpt>
      <trkpt lat="45.02032" lon="14.97276">
        <ele>837</ele>
        <time>2016-07-23T05:23:58Z</time>
      </trkpt>
      <trkpt lat="45.02023" lon="14.97276">
        <ele>837</ele>
        <time>2016-07-23T05:25:58Z</time>
      </trkpt>
      <trkpt lat="45.02006" lon="14.97271">
        <ele>838</ele>
        <time>2016-07-23T05:27:58Z</time>
      </trkpt>
      <trkpt lat="45.0199" lon="14.97266">
        <ele>836</ele>
        <time>2016-07-23T05:29:58Z</time>
      </trkpt>
      <trkpt lat="45.01975" lon="14.97253">
        <ele>834</ele>
        <time>2016-07-23T05:31:58Z</time>
      </trkpt>
      <trkpt lat="45.01966" lon="14.97244">
        <ele>832</ele>
        <time>2016-07-23T05:33:58Z</time>
      </trkpt>
      <trkpt lat="45.01958" lon="14.97234">
        <ele>830</ele>
        <time>2016-07-23T05:35:58Z</time>
      </trkpt>
      <trkpt lat="45.01956" lon="14.97226">
        <ele>830</ele>
        <time>2016-07-23T05:37:58Z</time>
      </trkpt>
      <trkpt lat="45.01954" lon="14.97218">
        <ele>829</ele>
        <time>2016-07-23T05:39:58Z</time>
      </trkpt>
      <trkpt lat="45.01953" lon="14.97207">
        <ele>829</ele>
        <time>2016-07-23T05:41:58Z</time>
      </trkpt>
      <trkpt lat="45.01954" lon="14.97197">
        <ele>829</ele>
        <time>2016-07-23T05:43:58Z</time>
      </trkpt>
      <trkpt lat="45.01958" lon="14.97178">
        <ele>830</ele>
        <time>2016-07-23T05:45:58Z</time>
      </trkpt>
      <trkpt lat="45.01963" lon="14.9716">
        <ele>832</ele>
        <time>2016-07-23T05:47:58Z</time>
      </trkpt>
      <trkpt lat="45.01968" lon="14.97145">
        <ele>833</ele>
        <time>2016-07-23T05:49:58Z</time>
      </trkpt>
      <trkpt lat="45.01969" lon="14.97139">
        <ele>833</ele>
        <time>2016-07-23T05:51:58Z</time>
      </trkpt>
      <trkpt lat="45.01968" lon="14.97129">
        <ele>832</ele>
        <time>2016-07-23T05:53:58Z</time>
      </trkpt>
      <trkpt lat="45.01963" lon="14.97102">
        <ele>830</ele>
        <time>2016-07-23T05:55:58Z</time>
      </trkpt>
      <trkpt lat="45.01959" lon="14.97088">
        <ele>829</ele>
        <time>2016-07-23T05:57:58Z</time>
      </trkpt>
      <trkpt lat="45.01954" lon="14.97069">
        <ele>827</ele>
        <time>2016-07-23T05:59:58Z</time>
      </trkpt>
      <trkpt lat="45.01952" lon="14.97057">
        <ele>826</ele>
        <time>2016-07-23T06:01:58Z</time>
      </trkpt>
      <trkpt lat="45.01951" lon="14.97011">
        <ele>826</ele>
        <time>2016-07-23T06:03:58Z</time>
      </trkpt>
      <trkpt lat="45.0195" lon="14.97002">
        <ele>826</ele>
        <time>2016-07-23T06:05:58Z</time>
      </trkpt>
      <trkpt lat="45.01949" lon="14.96994">
        <ele>826</ele>
        <time>2016-07-23T06:07:58Z</time>
      </trkpt>
      <trkpt lat="45.01947" lon="14.96988">
        <ele>827</ele>
        <time>2016-07-23T06:09:58Z</time>
      </trkpt>
      <trkpt lat="45.01945" lon="14.96984">
        <ele>827</ele>
        <time>2016-07-23T06:11:58Z</time>
      </trkpt>
      <trkpt lat="45.01943" lon="14.96981">
        <ele>827</ele>
        <time>2016-07-23T06:13:58Z</time>
      </trkpt>
      <trkpt lat="45.0194" lon="14.96978">
        <ele>827</ele>
        <time>2016-07-23T06:15:58Z</time>
      </trkpt>
      <trkpt lat="45.01938" lon="14.96976">
        <ele>827</ele>
        <time>2016-07-23T06:17:58Z</time>
      </trkpt>
      <trkpt lat="45.01936" lon="14.96976">
        <ele>827</ele>
        <time>2016-07-23T06:19:58Z</time>
      </trkpt>
      <trkpt lat="45.01933" lon="14.96975">
        <ele>827</ele>
        <time>2016-07-23T06:21:58Z</time>
      </trkpt>
      <trkpt lat="45.0193" lon="14.96975">
        <ele>826</ele>
        <time>2016-07-23T06:23:58Z</time>
      </trkpt>
      <trkpt lat="45.01926" lon="14.96976">
        <ele>826</ele>
        <time>2016-07-23T06:25:58Z</time>
      </trkpt>
      <trkpt lat="45.01919" lon="14.96978">
        <ele>825</ele>
        <time>2016-07-23T06:27:58Z</time>
      </trkpt>
      <trkpt lat="45.01911" lon="14.96982">
        <ele>824</ele>
        <time>2016-07-23T06:29:58Z</time>
      </trkpt>
      <trkpt lat="45.01894" lon="14.96998">
        <ele>822</ele>
        <time>2016-07-23T06:31:58Z</time>
      </trkpt>
      <trkpt lat="45.01873" lon="14.97018">
        <ele>820</ele>
        <time>2016-07-23T06:33:58Z</time>
      </trkpt>
      <trkpt lat="45.01866" lon="14.97025">
        <ele>819</ele>
        <time>2016-07-23T06:35:58Z</time>
      </trkpt>
      <trkpt lat="45.01861" lon="14.97029">
        <ele>819</ele>
        <time>2016-07-23T06:37:58Z</time>
      </trkpt>
      <trkpt lat="45.01846" lon="14.97037">
        <ele>817</ele>
        <time>2016-07-23T06:39:58Z</time>
      </trkpt>
      <trkpt lat="45.01831" lon="14.9705">
        <ele>814</ele>
        <time>2016-07-23T06:41:58Z</time>
      </trkpt>
      <trkpt lat="45.01817" lon="14.97059">
        <ele>814</ele>
        <time>2016-07-23T06:43:58Z</time>
      </trkpt>
      <trkpt lat="45.01792" lon="14.97081">
        <ele>812</ele>
        <time>2016-07-23T06:45:58Z</time>
      </trkpt>
      <trkpt lat="45.01753" lon="14.97105">
        <ele>812</ele>
        <time>2016-07-23T06:47:58Z</time>
      </trkpt>
      <trkpt lat="45.01728" lon="14.97122">
        <ele>812</ele>
        <time>2016-07-23T06:49:58Z</time>
      </trkpt>
      <trkpt lat="45.01718" lon="14.97136">
        <ele>811</ele>
        <time>2016-07-23T06:51:58Z</time>
      </trkpt>
      <trkpt lat="45.0171" lon="14.97153">
        <ele>809</ele>
        <time>2016-07-23T06:53:58Z</time>
      </trkpt>
      <trkpt lat="45.01701" lon="14.97172">
        <ele>807</ele>
        <time>2016-07-23T06:55:58Z</time>
      </trkpt>
      <trkpt lat="45.01688" lon="14.97199">
        <ele>805</ele>
        <time>2016-07-23T06:57:58Z</time>
      </trkpt>
      <trkpt lat="45.01675" lon="14.9722">
        <ele>803</ele>
        <time>2016-07-23T06:59:58Z</time>
      </trkpt>
      <trkpt lat="45.01663" lon="14.97238">
        <ele>801</ele>
        <time>2016-07-23T07:01:58Z</time>
      </trkpt>
      <trkpt lat="45.01643" lon="14.97266">
        <ele>799</ele>
        <time>2016-07-23T07:03:58Z</time>
      </trkpt>
      <trkpt lat="45.01624" lon="14.9729">
        <ele>797</ele>
        <time>2016-07-23T07:05:58Z</time>
      </trkpt>
      <trkpt lat="45.01598" lon="14.97316">
        <ele>795</ele>
        <time>2016-07-23T07:07:58Z</time>
      </trkpt>
      <trkpt lat="45.01578" lon="14.97337">
        <ele>793</ele>
        <time>2016-07-23T07:09:58Z</time>
      </trkpt>
      <trkpt lat="45.01569" lon="14.97344">
        <ele>794</ele>
        <time>2016-07-23T07:11:58Z</time>
      </trkpt>
      <trkpt lat="45.01562" lon="14.97353">
        <ele>794</ele>
        <time>2016-07-23T07:13:58Z</time>
      </trkpt>
      <trkpt lat="45.01561" lon="14.97355">
        <ele>794</ele>
        <time>2016-07-23T07:15:58Z</time>
      </trkpt>
      <trkpt lat="45.0156" lon="14.97358">
        <ele>794</ele>
        <time>2016-07-23T07:17:58Z</time>
      </trkpt>
      <trkpt lat="45.01558" lon="14.97364">
        <ele>793</ele>
        <time>2016-07-23T07:19:58Z</time>
      </trkpt>
      <trkpt lat="45.01558" lon="14.97371">
        <ele>793</ele>
        <time>2016-07-23T07:21:58Z</time>
      </trkpt>
      <trkpt lat="45.01557" lon="14.97386">
        <ele>791</ele>
        <time>2016-07-23T07:23:58Z</time>
      </trkpt>
      <trkpt lat="45.01554" lon="14.974">
        <ele>790</ele>
        <time>2016-07-23T07:25:58Z</time>
      </trkpt>
      <trkpt lat="45.01554" lon="14.97402">
        <ele>790</ele>
        <time>2016-07-23T07:27:58Z</time>
      </trkpt>
      <trkpt lat="45.01552" lon="14.97412">
        <ele>789</ele>
        <time>2016-07-23T07:29:58Z</time>
      </trkpt>
      <trkpt lat="45.01549" lon="14.97428">
        <ele>788</ele>
        <time>2016-07-23T07:31:58Z</time>
      </trkpt>
      <trkpt lat="45.01544" lon="14.97454">
        <ele>787</ele>
        <time>2016-07-23T07:33:58Z</time>
      </trkpt>
      <trkpt lat="45.01542" lon="14.97498">
        <ele>784</ele>
        <time>2016-07-23T07:35:58Z</time>
      </trkpt>
      <trkpt lat="45.01541" lon="14.97515">
        <ele>784</ele>
        <time>2016-07-23T07:37:58Z</time>
      </trkpt>
      <trkpt lat="45.0154" lon="14.9752">
        <ele>784</ele>
        <time>2016-07-23T07:39:58Z</time>
      </trkpt>
      <trkpt lat="45.01538" lon="14.97527">
        <ele>783</ele>
        <time>2016-07-23T07:41:58Z</time>
      </trkpt>
      <trkpt lat="45.01536" lon="14.97533">
        <ele>783</ele>
        <time>2016-07-23T07:43:58Z</time>
      </trkpt>
      <trkpt lat="45.01533" lon="14.97538">
        <ele>783</ele>
        <time>2016-07-23T07:45:58Z</time>
      </trkpt>
      <trkpt lat="45.01522" lon="14.97551">
        <ele>782</ele>
        <time>2016-07-23T07:47:58Z</time>
      </trkpt>
      <trkpt lat="45.01497" lon="14.97579">
        <ele>777</ele>
        <time>2016-07-23T07:49:58Z</time>
      </trkpt>
      <trkpt lat="45.01459" lon="14.97616">
        <ele>773</ele>
        <time>2016-07-23T07:51:58Z</time>
      </trkpt>
      <trkpt lat="45.0144" lon="14.97635">
        <ele>770</ele>
        <time>2016-07-23T07:53:58Z</time>
      </trkpt>
      <trkpt lat="45.01436" lon="14.97639">
        <ele>769</ele>
        <time>2016-07-23T07:55:58Z</time>
      </trkpt>
      <trkpt lat="45.0143" lon="14.97643">
        <ele>768</ele>
        <time>2016-07-23T07:57:58Z</time>
      </trkpt>
      <trkpt lat="45.01424" lon="14.97647">
        <ele>767</ele>
        <time>2016-07-23T07:59:58Z</time>
      </trkpt>
      <trkpt lat="45.01421" lon="14.97649">
        <ele>766</ele>
        <time>2016-07-23T08:01:58Z</time>
      </trkpt>
      <trkpt lat="45.01412" lon="14.9765">
        <ele>765</ele>
        <time>2016-07-23T08:03:58Z</time>
      </trkpt>
      <trkpt lat="45.01396" lon="14.9765">
        <ele>764</ele>
        <time>2016-07-23T08:05:58Z</time>
      </trkpt>
      <trkpt lat="45.01384" lon="14.97645">
        <ele>763</ele>
        <time>2016-07-23T08:07:58Z</time>
      </trkpt>
      <trkpt lat="45.01377" lon="14.97642">
        <ele>763</ele>
        <time>2016-07-23T08:09:58Z</time>
      </trkpt>
      <trkpt lat="45.01371" lon="14.97636">
        <ele>763</ele>
        <time>2016-07-23T08:11:58Z</time>
      </trkpt>
      <trkpt lat="45.01363" lon="14.97631">
        <ele>763</ele>
        <time>2016-07-23T08:13:58Z</time>
      </trkpt>
      <trkpt lat="45.01351" lon="14.97623">
        <ele>763</ele>
        <time>2016-07-23T08:15:58Z</time>
      </trkpt>
      <trkpt lat="45.01345" lon="14.97621">
        <ele>763</ele>
        <time>2016-07-23T08:17:58Z</time>
      </trkpt>
      <trkpt lat="45.0134" lon="14.97621">
        <ele>762</ele>
        <time>2016-07-23T08:19:58Z</time>
      </trkpt>
      <trkpt lat="45.01336" lon="14.97623">
        <ele>762</ele>
        <time>2016-07-23T08:21:58Z</time>
      </trkpt>
      <trkpt lat="45.01335" lon="14.97626">
        <ele>761</ele>
        <time>2016-07-23T08:23:58Z</time>
      </trkpt>
      <trkpt lat="45.01333" lon="14.97628">
        <ele>761</ele>
        <time>2016-07-23T08:25:58Z</time>
      </trkpt>
      <trkpt lat="45.01333" lon="14.97632">
        <ele>760</ele>
        <time>2016-07-23T08:27:58Z</time>
      </trkpt>
      <trkpt lat="45.01333" lon="14.97635">
        <ele>759</ele>
        <time>2016-07-23T08:29:58Z</time>
      </trkpt>
      <trkpt lat="45.01334" lon="14.97641">
        <ele>758</ele>
        <time>2016-07-23T08:31:58Z</time>
      </trkpt>
      <trkpt lat="45.01337" lon="14.97647">
        <ele>758</ele>
        <time>2016-07-23T08:33:58Z</time>
      </trkpt>
      <trkpt lat="45.0134" lon="14.97653">
        <ele>757</ele>
        <time>2016-07-23T08:35:58Z</time>
      </trkpt>
      <trkpt lat="45.01365" lon="14.9769">
        <ele>755</ele>
        <time>2016-07-23T08:37:58Z</time>
      </trkpt>
      <trkpt lat="45.01377" lon="14.97704">
        <ele>755</ele>
        <time>2016-07-23T08:39:58Z</time>
      </trkpt>
      <trkpt lat="45.0139" lon="14.97719">
        <ele>754</ele>
        <time>2016-07-23T08:41:58Z</time>
      </trkpt>
      <trkpt lat="45.01414" lon="14.97735">
        <ele>753</ele>
        <time>2016-07-23T08:43:58Z</time>
      </trkpt>
      <trkpt lat="45.01417" lon="14.97738">
        <ele>753</ele>
        <time>2016-07-23T08:45:58Z</time>
      </trkpt>
      <trkpt lat="45.01419" lon="14.97744">
        <ele>752</ele>
        <time>2016-07-23T08:47:58Z</time>
      </trkpt>
      <trkpt lat="45.01421" lon="14.97752">
        <ele>752</ele>
        <time>2016-07-23T08:49:58Z</time>
      </trkpt>
      <trkpt lat="45.01423" lon="14.97765">
        <ele>751</ele>
        <time>2016-07-23T08:51:58Z</time>
      </trkpt>
      <trkpt lat="45.01423" lon="14.9778">
        <ele>751</ele>
        <time>2016-07-23T08:53:58Z</time>
      </trkpt>
      <trkpt lat="45.01422" lon="14.97799">
        <ele>749</ele>
        <time>2016-07-23T08:55:58Z</time>
      </trkpt>
      <trkpt lat="45.01423" lon="14.97825">
        <ele>748</ele>
        <time>2016-07-23T08:57:58Z</time>
      </trkpt>
      <trkpt lat="45.01423" lon="14.97833">
        <ele>748</ele>
        <time>2016-07-23T08:59:58Z</time>
      </trkpt>
      <trkpt lat="45.01421" lon="14.97849">
        <ele>747</ele>
        <time>2016-07-23T09:01:58Z</time>
      </trkpt>
      <trkpt lat="45.01417" lon="14.97864">
        <ele>746</ele>
        <time>2016-07-23T09:03:58Z</time>
      </trkpt>
      <trkpt lat="45.01414" lon="14.97879">
        <ele>746</ele>
        <time>2016-07-23T09:05:58Z</time>
      </trkpt>
      <trkpt lat="45.01411" lon="14.97904">
        <ele>745</ele>
        <time>2016-07-23T09:07:58Z</time>
      </trkpt>
      <trkpt lat="45.01408" lon="14.97932">
        <ele>744</ele>
        <time>2016-07-23T09:09:58Z</time>
      </trkpt>
      <trkpt lat="45.01407" lon="14.97954">
        <ele>743</ele>
        <time>2016-07-23T09:11:58Z</time>
      </trkpt>
      <trkpt lat="45.01407" lon="14.97964">
        <ele>742</ele>
        <time>2016-07-23T09:13:58Z</time>
      </trkpt>
      <trkpt lat="45.01409" lon="14.9797">
        <ele>742</ele>
        <time>2016-07-23T09:15:58Z</time>
      </trkpt>
      <trkpt lat="45.01415" lon="14.97986">
        <ele>742</ele>
        <time>2016-07-23T09:17:58Z</time>
      </trkpt>
      <trkpt lat="45.01429" lon="14.98009">
        <ele>744</ele>
        <time>2016-07-23T09:19:58Z</time>
      </trkpt>
      <trkpt lat="45.01443" lon="14.98032">
        <ele>746</ele>
        <time>2016-07-23T09:21:58Z</time>
      </trkpt>
      <trkpt lat="45.01465" lon="14.98064">
        <ele>747</ele>
        <time>2016-07-23T09:23:58Z</time>
      </trkpt>
      <trkpt lat="45.01482" lon="14.98088">
        <ele>747</ele>
        <time>2016-07-23T09:25:58Z</time>
      </trkpt>
      <trkpt lat="45.01497" lon="14.98116">
        <ele>748</ele>
        <time>2016-07-23T09:27:58Z</time>
      </trkpt>
      <trkpt lat="45.01509" lon="14.9814">
        <ele>748</ele>
        <time>2016-07-23T09:29:58Z</time>
      </trkpt>
      <trkpt lat="45.01518" lon="14.98166">
        <ele>747</ele>
        <time>2016-07-23T09:31:58Z</time>
      </trkpt>
      <trkpt lat="45.01522" lon="14.9819">
        <ele>747</ele>
        <time>2016-07-23T09:33:58Z</time>
      </trkpt>
      <trkpt lat="45.01526" lon="14.98211">
        <ele>747</ele>
        <time>2016-07-23T09:35:58Z</time>
      </trkpt>
      <trkpt lat="45.01526" lon="14.98223">
        <ele>747</ele>
        <time>2016-07-23T09:37:58Z</time>
      </trkpt>
      <trkpt lat="45.01526" lon="14.98228">
        <ele>747</ele>
        <time>2016-07-23T09:39:58Z</time>
      </trkpt>
      <trkpt lat="45.01522" lon="14.98247">
        <ele>747</ele>
        <time>2016-07-23T09:41:58Z</time>
      </trkpt>
      <trkpt lat="45.01518" lon="14.9826">
        <ele>746</ele>
        <time>2016-07-23T09:43:58Z</time>
      </trkpt>
      <trkpt lat="45.0151" lon="14.98283">
        <ele>745</ele>
        <time>2016-07-23T09:45:58Z</time>
      </trkpt>
      <trkpt lat="45.01487" lon="14.98348">
        <ele>747</ele>
        <time>2016-07-23T09:47:58Z</time>
      </trkpt>
      <trkpt lat="45.01477" lon="14.98383">
        <ele>748</ele>
        <time>2016-07-23T09:49:58Z</time>
      </trkpt>
      <trkpt lat="45.01475" lon="14.98391">
        <ele>748</ele>
        <time>2016-07-23T09:51:58Z</time>
      </trkpt>
      <trkpt lat="45.01474" lon="14.98399">
        <ele>748</ele>
        <time>2016-07-23T09:53:58Z</time>
      </trkpt>
      <trkpt lat="45.01474" lon="14.98413">
        <ele>748</ele>
        <time>2016-07-23T09:55:58Z</time>
      </trkpt>
      <trkpt lat="45.01473" lon="14.98432">
        <ele>746</ele>
        <time>2016-07-23T09:57:58Z</time>
      </trkpt>
      <trkpt lat="45.01475" lon="14.98458">
        <ele>743</ele>
        <time>2016-07-23T09:59:58Z</time>
      </trkpt>
      <trkpt lat="45.01476" lon="14.98476">
        <ele>741</ele>
        <time>2016-07-23T10:01:58Z</time>
      </trkpt>
      <trkpt lat="45.0148" lon="14.98493">
        <ele>738</ele>
        <time>2016-07-23T10:03:58Z</time>
      </trkpt>
      <trkpt lat="45.01482" lon="14.98512">
        <ele>736</ele>
        <time>2016-07-23T10:05:58Z</time>
      </trkpt>
      <trkpt lat="45.01482" lon="14.98531">
        <ele>734</ele>
        <time>2016-07-23T10:07:58Z</time>
      </trkpt>
      <trkpt lat="45.01481" lon="14.98543">
        <ele>733</ele>
        <time>2016-07-23T10:09:58Z</time>
      </trkpt>
      <trkpt lat="45.01478" lon="14.98551">
        <ele>733</ele>
        <time>2016-07-23T10:11:58Z</time>
      </trkpt>
      <trkpt lat="45.01472" lon="14.98565">
        <ele>732</ele>
        <time>2016-07-23T10:13:58Z</time>
      </trkpt>
      <trkpt lat="45.01463" lon="14.9858">
        <ele>731</ele>
        <time>2016-07-23T10:15:58Z</time>
      </trkpt>
      <trkpt lat="45.01457" lon="14.98592">
        <ele>730</ele>
        <time>2016-07-23T10:17:58Z</time>
      </trkpt>
      <trkpt lat="45.01453" lon="14.98597">
        <ele>730</ele>
        <time>2016-07-23T10:19:58Z</time>
      </trkpt>
      <trkpt lat="45.01412" lon="14.98641">
        <ele>727</ele>
        <time>2016-07-23T10:21:58Z</time>
      </trkpt>
      <trkpt lat="45.01402" lon="14.98655">
        <ele>727</ele>
        <time>2016-07-23T10:23:58Z</time>
      </trkpt>
      <trkpt lat="45.01397" lon="14.98664">
        <ele>726</ele>
        <time>2016-07-23T10:25:58Z</time>
      </trkpt>
      <trkpt lat="45.01394" lon="14.98672">
        <ele>725</ele>
        <time>2016-07-23T10:27:58Z</time>
      </trkpt>
      <trkpt lat="45.01392" lon="14.9868">
        <ele>725</ele>
        <time>2016-07-23T10:29:58Z</time>
      </trkpt>
      <trkpt lat="45.01389" lon="14.98687">
        <ele>724</ele>
        <time>2016-07-23T10:31:58Z</time>
      </trkpt>
      <trkpt lat="45.01385" lon="14.98692">
        <ele>724</ele>
        <time>2016-07-23T10:33:58Z</time>
      </trkpt>
      <trkpt lat="45.01373" lon="14.98704">
        <ele>725</ele>
        <time>2016-07-23T10:35:58Z</time>
      </trkpt>
      <trkpt lat="45.01356" lon="14.98722">
        <ele>725</ele>
        <time>2016-07-23T10:37:58Z</time>
      </trkpt>
      <trkpt lat="45.0135" lon="14.9873">
        <ele>725</ele>
        <time>2016-07-23T10:39:58Z</time>
      </trkpt>
      <trkpt lat="45.01348" lon="14.98738">
        <ele>724</ele>
        <time>2016-07-23T10:41:58Z</time>
      </trkpt>
      <trkpt lat="45.01345" lon="14.98748">
        <ele>723</ele>
        <time>2016-07-23T10:43:58Z</time>
      </trkpt>
      <trkpt lat="45.01337" lon="14.98767">
        <ele>721</ele>
        <time>2016-07-23T10:45:58Z</time>
      </trkpt>
      <trkpt lat="45.01325" lon="14.98786">
        <ele>721</ele>
        <time>2016-07-23T10:47:58Z</time>
      </trkpt>
      <trkpt lat="45.01315" lon="14.98802">
        <ele>720</ele>
        <time>2016-07-23T10:49:58Z</time>
      </trkpt>
      <trkpt lat="45.01303" lon="14.98826">
        <ele>718</ele>
        <time>2016-07-23T10:51:58Z</time>
      </trkpt>
      <trkpt lat="45.01292" lon="14.98847">
        <ele>717</ele>
        <time>2016-07-23T10:53:58Z</time>
      </trkpt>
      <trkpt lat="45.01283" lon="14.98872">
        <ele>716</ele>
        <time>2016-07-23T10:55:58Z</time>
      </trkpt>
      <trkpt lat="45.01274" lon="14.98897">
        <ele>715</ele>
        <time>2016-07-23T10:57:58Z</time>
      </trkpt>
      <trkpt lat="45.01272" lon="14.98904">
        <ele>715</ele>
        <time>2016-07-23T10:59:58Z</time>
      </trkpt>
      <trkpt lat="45.01267" lon="14.98915">
        <ele>714</ele>
        <time>2016-07-23T11:01:58Z</time>
      </trkpt>
      <trkpt lat="45.01253" lon="14.98938">
        <ele>714</ele>
        <time>2016-07-23T11:03:58Z</time>
      </trkpt>
      <trkpt lat="45.01244" lon="14.9895">
        <ele>715</ele>
        <time>2016-07-23T11:05:58Z</time>
      </trkpt>
      <trkpt lat="45.01238" lon="14.98962">
        <ele>715</ele>
        <time>2016-07-23T11:07:58Z</time>
      </trkpt>
      <trkpt lat="45.0123" lon="14.98979">
        <ele>715</ele>
        <time>2016-07-23T11:09:58Z</time>
      </trkpt>
      <trkpt lat="45.01227" lon="14.98994">
        <ele>713</ele>
        <time>2016-07-23T11:11:58Z</time>
      </trkpt>
      <trkpt lat="45.01226" lon="14.99006">
        <ele>711</ele>
        <time>2016-07-23T11:13:58Z</time>
      </trkpt>
      <trkpt lat="45.01226" lon="14.99014">
        <ele>711</ele>
        <time>2016-07-23T11:15:58Z</time>
      </trkpt>
      <trkpt lat="45.01225" lon="14.99019">
        <ele>711</ele>
        <time>2016-07-23T11:17:58Z</time>
      </trkpt>
      <trkpt lat="45.01226" lon="14.99025">
        <ele>710</ele>
        <time>2016-07-23T11:19:58Z</time>
      </trkpt>
      <trkpt lat="45.01226" lon="14.99037">
        <ele>709</ele>
        <time>2016-07-23T11:21:58Z</time>
      </trkpt>
      <trkpt lat="45.01231" lon="14.99047">
        <ele>708</ele>
        <time>2016-07-23T11:23:58Z</time>
      </trkpt>
      <trkpt lat="45.01238" lon="14.99063">
        <ele>706</ele>
        <time>2016-07-23T11:25:58Z</time>
      </trkpt>
      <trkpt lat="45.01251" lon="14.99083">
        <ele>703</ele>
        <time>2016-07-23T11:27:58Z</time>
      </trkpt>
      <trkpt lat="45.01256" lon="14.991">
        <ele>702</ele>
        <time>2016-07-23T11:29:58Z</time>
      </trkpt>
      <trkpt lat="45.01258" lon="14.99108">
        <ele>701</ele>
        <time>2016-07-23T11:31:58Z</time>
      </trkpt>
      <trkpt lat="45.01258" lon="14.99115">
        <ele>701</ele>
        <time>2016-07-23T11:33:58Z</time>
      </trkpt>
      <trkpt lat="45.01257" lon="14.99119">
        <ele>701</ele>
        <time>2016-07-23T11:35:58Z</time>
      </trkpt>
      <trkpt lat="45.01257" lon="14.99121">
        <ele>701</ele>
        <time>2016-07-23T11:37:58Z</time>
      </trkpt>
      <trkpt lat="45.01254" lon="14.99125">
        <ele>701</ele>
        <time>2016-07-23T11:39:58Z</time>
      </trkpt>
      <trkpt lat="45.01253" lon="14.99126">
        <ele>701</ele>
        <time>2016-07-23T11:41:58Z</time>
      </trkpt>
      <trkpt lat="45.01248" lon="14.99128">
        <ele>702</ele>
        <time>2016-07-23T11:43:58Z</time>
      </trkpt>
      <trkpt lat="45.01245" lon="14.99129">
        <ele>702</ele>
        <time>2016-07-23T11:45:58Z</time>
      </trkpt>
      <trkpt lat="45.01242" lon="14.99129">
        <ele>703</ele>
        <time>2016-07-23T11:47:58Z</time>
      </trkpt>
      <trkpt lat="45.01238" lon="14.9913">
        <ele>703</ele>
        <time>2016-07-23T11:49:58Z</time>
      </trkpt>
      <trkpt lat="45.01236" lon="14.99132">
        <ele>703</ele>
        <time>2016-07-23T11:51:58Z</time>
      </trkpt>
      <trkpt lat="45.01235" lon="14.99133">
        <ele>703</ele>
        <time>2016-07-23T11:53:58Z</time>
      </trkpt>
      <trkpt lat="45.01234" lon="14.99137">
        <ele>703</ele>
        <time>2016-07-23T11:55:58Z</time>
      </trkpt>
      <trkpt lat="45.01234" lon="14.99139">
        <ele>703</ele>
        <time>2016-07-23T11:57:58Z</time>
      </trkpt>
      <trkpt lat="45.01235" lon="14.99143">
        <ele>703</ele>
        <time>2016-07-23T11:59:58Z</time>
      </trkpt>
      <trkpt lat="45.01237" lon="14.99153">
        <ele>703</ele>
        <time>2016-07-23T12:01:58Z</time>
      </trkpt>
      <trkpt lat="45.01241" lon="14.99161">
        <ele>702</ele>
        <time>2016-07-23T12:03:58Z</time>
      </trkpt>
      <trkpt lat="45.01257" lon="14.99182">
        <ele>699</ele>
        <time>2016-07-23T12:05:58Z</time>
      </trkpt>
      <trkpt lat="45.01267" lon="14.99197">
        <ele>697</ele>
        <time>2016-07-23T12:07:58Z</time>
      </trkpt>
      <trkpt lat="45.01271" lon="14.99203">
        <ele>697</ele>
        <time>2016-07-23T12:09:58Z</time>
      </trkpt>
      <trkpt lat="45.01272" lon="14.99208">
        <ele>696</ele>
        <time>2016-07-23T12:11:58Z</time>
      </trkpt>
      <trkpt lat="45.01275" lon="14.99221">
        <ele>696</ele>
        <time>2016-07-23T12:13:58Z</time>
      </trkpt>
      <trkpt lat="45.01283" lon="14.99228">
        <ele>694</ele>
        <time>2016-07-23T12:15:58Z</time>
      </trkpt>
      <trkpt lat="45.01293" lon="14.99233">
        <ele>693</ele>
        <time>2016-07-23T12:17:58Z</time>
      </trkpt>
      <trkpt lat="45.01298" lon="14.99234">
        <ele>692</ele>
        <time>2016-07-23T12:19:58Z</time>
      </trkpt>
      <trkpt lat="45.01302" lon="14.99234">
        <ele>692</ele>
        <time>2016-07-23T12:21:58Z</time>
      </trkpt>
      <trkpt lat="45.01307" lon="14.99233">
        <ele>691</ele>
        <time>2016-07-23T12:23:58Z</time>
      </trkpt>
      <trkpt lat="45.0131" lon="14.99231">
        <ele>691</ele>
        <time>2016-07-23T12:25:58Z</time>
      </trkpt>
      <trkpt lat="45.01313" lon="14.99228">
        <ele>690</ele>
        <time>2016-07-23T12:27:58Z</time>
      </trkpt>
      <trkpt lat="45.01315" lon="14.99226">
        <ele>690</ele>
        <time>2016-07-23T12:29:58Z</time>
      </trkpt>
      <trkpt lat="45.01316" lon="14.99222">
        <ele>690</ele>
        <time>2016-07-23T12:31:58Z</time>
      </trkpt>
      <trkpt lat="45.01317" lon="14.99216">
        <ele>690</ele>
        <time>2016-07-23T12:33:58Z</time>
      </trkpt>
      <trkpt lat="45.01318" lon="14.99205">
        <ele>690</ele>
        <time>2016-07-23T12:35:58Z</time>
      </trkpt>
      <trkpt lat="45.01319" lon="14.99194">
        <ele>690</ele>
        <time>2016-07-23T12:37:58Z</time>
      </trkpt>
      <trkpt lat="45.01321" lon="14.99189">
        <ele>689</ele>
        <time>2016-07-23T12:39:58Z</time>
      </trkpt>
      <trkpt lat="45.01323" lon="14.99186">
        <ele>689</ele>
        <time>2016-07-23T12:41:58Z</time>
      </trkpt>
      <trkpt lat="45.01325" lon="14.99184">
        <ele>689</ele>
        <time>2016-07-23T12:43:58Z</time>
      </trkpt>
      <trkpt lat="45.01326" lon="14.99182">
        <ele>688</ele>
        <time>2016-07-23T12:45:58Z</time>
      </trkpt>
      <trkpt lat="45.01329" lon="14.99181">
        <ele>688</ele>
        <time>2016-07-23T12:47:58Z</time>
      </trkpt>
      <trkpt lat="45.01331" lon="14.99181">
        <ele>688</ele>
        <time>2016-07-23T12:49:58Z</time>
      </trkpt>
      <trkpt lat="45.01336" lon="14.9918">
        <ele>687</ele>
        <time>2016-07-23T12:51:58Z</time>
      </trkpt>
      <trkpt lat="45.01345" lon="14.99181">
        <ele>686</ele>
        <time>2016-07-23T12:53:58Z</time>
      </trkpt>
      <trkpt lat="45.01358" lon="14.99184">
        <ele>685</ele>
        <time>2016-07-23T12:55:58Z</time>
      </trkpt>
      <trkpt lat="45.01367" lon="14.99188">
        <ele>685</ele>
        <time>2016-07-23T12:57:58Z</time>
      </trkpt>
      <trkpt lat="45.01371" lon="14.99189">
        <ele>684</ele>
        <time>2016-07-23T12:59:58Z</time>
      </trkpt>
      <trkpt lat="45.01374" lon="14.99189">
        <ele>684</ele>
        <time>2016-07-23T13:01:58Z</time>
      </trkpt>
      <trkpt lat="45.01377" lon="14.99189">
        <ele>684</ele>
        <time>2016-07-23T13:03:58Z</time>
      </trkpt>
      <trkpt lat="45.01379" lon="14.99188">
        <ele>684</ele>
        <time>2016-07-23T13:05:58Z</time>
      </trkpt>
      <trkpt lat="45.01384" lon="14.99186">
        <ele>683</ele>
        <time>2016-07-23T13:07:58Z</time>
      </trkpt>
      <trkpt lat="45.01392" lon="14.99181">
        <ele>683</ele>
        <time>2016-07-23T13:09:58Z</time>
      </trkpt>
      <trkpt lat="45.01399" lon="14.99176">
        <ele>682</ele>
        <time>2016-07-23T13:11:58Z</time>
      </trkpt>
      <trkpt lat="45.01415" lon="14.99163">
        <ele>681</ele>
        <time>2016-07-23T13:13:58Z</time>
      </trkpt>
      <trkpt lat="45.01425" lon="14.99154">
        <ele>681</ele>
        <time>2016-07-23T13:15:58Z</time>
      </trkpt>
      <trkpt lat="45.01432" lon="14.99151">
        <ele>682</ele>
        <time>2016-07-23T13:17:58Z</time>
      </trkpt>
      <trkpt lat="45.01435" lon="14.99151">
        <ele>682</ele>
        <time>2016-07-23T13:19:58Z</time>
      </trkpt>
      <trkpt lat="45.01437" lon="14.9915">
        <ele>682</ele>
        <time>2016-07-23T13:21:58Z</time>
      </trkpt>
      <trkpt lat="45.01441" lon="14.99151">
        <ele>682</ele>
        <time>2016-07-23T13:23:58Z</time>
      </trkpt>
      <trkpt lat="45.01443" lon="14.99152">
        <ele>682</ele>
        <time>2016-07-23T13:25:58Z</time>
      </trkpt>
      <trkpt lat="45.01445" lon="14.99153">
        <ele>682</ele>
        <time>2016-07-23T13:27:58Z</time>
      </trkpt>
      <trkpt lat="45.01446" lon="14.99154">
        <ele>682</ele>
        <time>2016-07-23T13:29:58Z</time>
      </trkpt>
      <trkpt lat="45.01448" lon="14.99157">
        <ele>681</ele>
        <time>2016-07-23T13:31:58Z</time>
      </trkpt>
      <trkpt lat="45.0145" lon="14.9916">
        <ele>681</ele>
        <time>2016-07-23T13:33:58Z</time>
      </trkpt>
      <trkpt lat="45.0145" lon="14.99163">
        <ele>681</ele>
        <time>2016-07-23T13:35:58Z</time>
      </trkpt>
      <trkpt lat="45.0145" lon="14.99166">
        <ele>681</ele>
        <time>2016-07-23T13:37:58Z</time>
      </trkpt>
      <trkpt lat="45.0145" lon="14.99177">
        <ele>681</ele>
        <time>2016-07-23T13:39:58Z</time>
      </trkpt>
      <trkpt lat="45.01448" lon="14.99197">
        <ele>680</ele>
        <time>2016-07-23T13:41:58Z</time>
      </trkpt>
      <trkpt lat="45.01447" lon="14.9922">
        <ele>680</ele>
        <time>2016-07-23T13:43:58Z</time>
      </trkpt>
      <trkpt lat="45.01449" lon="14.99231">
        <ele>680</ele>
        <time>2016-07-23T13:45:58Z</time>
      </trkpt>
      <trkpt lat="45.01452" lon="14.99246">
        <ele>680</ele>
        <time>2016-07-23T13:47:58Z</time>
      </trkpt>
      <trkpt lat="45.01456" lon="14.9927">
        <ele>680</ele>
        <time>2016-07-23T13:49:58Z</time>
      </trkpt>
      <trkpt lat="45.01456" lon="14.99293">
        <ele>680</ele>
        <time>2016-07-23T13:51:58Z</time>
      </trkpt>
      <trkpt lat="45.01453" lon="14.99342">
        <ele>681</ele>
        <time>2016-07-23T13:53:58Z</time>
      </trkpt>
      <trkpt lat="45.01454" lon="14.9937">
        <ele>680</ele>
        <time>2016-07-23T13:55:58Z</time>
      </trkpt>
      <trkpt lat="45.01454" lon="14.99404">
        <ele>680</ele>
        <time>2016-07-23T13:57:58Z</time>
      </trkpt>
      <trkpt lat="45.01454" lon="14.99441">
        <ele>680</ele>
        <time>2016-07-23T13:59:58Z</time>
      </trkpt>
      <trkpt lat="45.01451" lon="14.99484">
        <ele>680</ele>
        <time>2016-07-23T14:01:58Z</time>
      </trkpt>
      <trkpt lat="45.0145" lon="14.99525">
        <ele>680</ele>
        <time>2016-07-23T14:03:58Z</time>
      </trkpt>
      <trkpt lat="45.01448" lon="14.99567">
        <ele>681</ele>
        <time>2016-07-23T14:05:58Z</time>
      </trkpt>
      <trkpt lat="45.01445" lon="14.99585">
        <ele>682</ele>
        <time>2016-07-23T14:07:58Z</time>
      </trkpt>
      <trkpt lat="45.01439" lon="14.99603">
        <ele>682</ele>
        <time>2016-07-23T14:09:58Z</time>
      </trkpt>
      <trkpt lat="45.0143" lon="14.99621">
        <ele>681</ele>
        <time>2016-07-23T14:11:58Z</time>
      </trkpt>
      <trkpt lat="45.01419" lon="14.99647">
        <ele>680</ele>
        <time>2016-07-23T14:13:58Z</time>
      </trkpt>
      <trkpt lat="45.01415" lon="14.99659">
        <ele>679</ele>
        <time>2016-07-23T14:15:58Z</time>
      </trkpt>
      <trkpt lat="45.01395" lon="14.99709">
        <ele>681</ele>
        <time>2016-07-23T14:17:58Z</time>
      </trkpt>
      <trkpt lat="45.01368" lon="14.99753">
        <ele>682</ele>
        <time>2016-07-23T14:19:58Z</time>
      </trkpt>
      <trkpt lat="45.01358" lon="14.99771">
        <ele>683</ele>
        <time>2016-07-23T14:21:58Z</time>
      </trkpt>
      <trkpt lat="45.01346" lon="14.99798">
        <ele>685</ele>
        <time>2016-07-23T14:23:58Z</time>
      </trkpt>
      <trkpt lat="45.01333" lon="14.99829">
        <ele>687</ele>
        <time>2016-07-23T14:25:58Z</time>
      </trkpt>
      <trkpt lat="45.01318" lon="14.99865">
        <ele>688</ele>
        <time>2016-07-23T14:27:58Z</time>
      </trkpt>
      <trkpt lat="45.01281" lon="14.9991">
        <ele>686</ele>
        <time>2016-07-23T14:29:58Z</time>
      </trkpt>
      <trkpt lat="45.01268" lon="14.99925">
        <ele>684</ele>
        <time>2016-07-23T14:31:58Z</time>
      </trkpt>
      <trkpt lat="45.01252" lon="14.99942">
        <ele>682</ele>
        <time>2016-07-23T14:33:58Z</time>
      </trkpt>
      <trkpt lat="45.01217" lon="14.99955">
        <ele>678</ele>
        <time>2016-07-23T14:35:58Z</time>
      </trkpt>
      <trkpt lat="45.01211" lon="14.99958">
        <ele>677</ele>
        <time>2016-07-23T14:37:58Z</time>
      </trkpt>
      <trkpt lat="45.01205" lon="14.99961">
        <ele>676</ele>
        <time>2016-07-23T14:39:58Z</time>
      </trkpt>
      <trkpt lat="45.012" lon="14.99965">
        <ele>676</ele>
        <time>2016-07-23T14:41:58Z</time>
      </trkpt>
      <trkpt lat="45.01192" lon="14.99972">
        <ele>674</ele>
        <time>2016-07-23T14:43:58Z</time>
      </trkpt>
      <trkpt lat="45.01187" lon="14.99977">
        <ele>674</ele>
        <time>2016-07-23T14:45:58Z</time>
      </trkpt>
      <trkpt lat="45.01175" lon="14.99994">
        <ele>671</ele>
        <time>2016-07-23T14:47:58Z</time>
      </trkpt>
      <trkpt lat="45.01154" lon="15.0003">
        <ele>671</ele>
        <time>2016-07-23T14:49:58Z</time>
      </trkpt>
      <trkpt lat="45.01129" lon="15.00086">
        <ele>672</ele>
        <time>2016-07-23T14:51:58Z</time>
      </trkpt>
      <trkpt lat="45.01124" lon="15.00099">
        <ele>673</ele>
        <time>2016-07-23T14:53:58Z</time>
      </trkpt>
      <trkpt lat="45.01119" lon="15.0011">
        <ele>673</ele>
        <time>2016-07-23T14:55:58Z</time>
      </trkpt>
      <trkpt lat="45.01114" lon="15.00118">
        <ele>673</ele>
        <time>2016-07-23T14:57:58Z</time>
      </trkpt>
      <trkpt lat="45.01098" lon="15.00144">
        <ele>672</ele>
        <time>2016-07-23T14:59:58Z</time>
      </trkpt>
      <trkpt lat="45.01078" lon="15.00181">
        <ele>671</ele>
        <time>2016-07-23T15:01:58Z</time>
      </trkpt>
      <trkpt lat="45.01069" lon="15.00193">
        <ele>671</ele>
        <time>2016-07-23T15:03:58Z</time>
      </trkpt>
      <trkpt lat="45.01051" lon="15.00219">
        <ele>672</ele>
        <time>2016-07-23T15:05:58Z</time>
      </trkpt>
      <trkpt lat="45.01031" lon="15.00253">
        <ele>672</ele>
        <time>2016-07-23T15:07:58Z</time>
      </trkpt>
      <trkpt lat="45.01009" lon="15.00287">
        <ele>671</ele>
        <time>2016-07-23T15:09:58Z</time>
      </trkpt>
      <trkpt lat="45.00994" lon="15.00317">
        <ele>671</ele>
        <time>2016-07-23T15:11:58Z</time>
      </trkpt>
      <trkpt lat="45.00953" lon="15.00408">
        <ele>674</ele>
        <time>2016-07-23T15:13:58Z</time>
      </trkpt>
      <trkpt lat="45.00932" lon="15.00454">
        <ele>674</ele>
        <time>2016-07-23T15:15:58Z</time>
      </trkpt>
      <trkpt lat="45.00913" lon="15.00492">
        <ele>674</ele>
        <time>2016-07-23T15:17:58Z</time>
      </trkpt>
      <trkpt lat="45.00908" lon="15.00505">
        <ele>675</ele>
        <time>2016-07-23T15:19:58Z</time>
      </trkpt>
      <trkpt lat="45.00904" lon="15.0052">
        <ele>676</ele>
        <time>2016-07-23T15:21:58Z</time>
      </trkpt>
      <trkpt lat="45.00902" lon="15.00538">
        <ele>675</ele>
        <time>2016-07-23T15:23:58Z</time>
      </trkpt>
      <trkpt lat="45.00894" lon="15.0057">
        <ele>675</ele>
        <time>2016-07-23T15:25:58Z</time>
      </trkpt>
      <trkpt lat="45.0089" lon="15.00587">
        <ele>675</ele>
        <time>2016-07-23T15:27:58Z</time>
      </trkpt>
      <trkpt lat="45.00885" lon="15.00622">
        <ele>674</ele>
        <time>2016-07-23T15:29:58Z</time>
      </trkpt>
      <trkpt lat="45.00884" lon="15.00637">
        <ele>673</ele>
        <time>2016-07-23T15:31:58Z</time>
      </trkpt>
      <trkpt lat="45.00882" lon="15.00658">
        <ele>672</ele>
        <time>2016-07-23T15:33:58Z</time>
      </trkpt>
      <trkpt lat="45.00881" lon="15.00662">
        <ele>671</ele>
        <time>2016-07-23T15:35:58Z</time>
      </trkpt>
      <trkpt lat="45.0088" lon="15.00666">
        <ele>671</ele>
        <time>2016-07-23T15:37:58Z</time>
      </trkpt>
      <trkpt lat="45.00878" lon="15.00672">
        <ele>671</ele>
        <time>2016-07-23T15:39:58Z</time>
      </trkpt>
      <trkpt lat="45.00876" lon="15.00676">
        <ele>671</ele>
        <time>2016-07-23T15:41:58Z</time>
      </trkpt>
      <trkpt lat="45.00872" lon="15.00683">
        <ele>671</ele>
        <time>2016-07-23T15:43:58Z</time>
      </trkpt>
      <trkpt lat="45.00865" lon="15.0069">
        <ele>671</ele>
        <time>2016-07-23T15:45:58Z</time>
      </trkpt>
      <trkpt lat="45.00835" lon="15.00722">
        <ele>667</ele>
        <time>2016-07-23T15:47:58Z</time>
      </trkpt>
      <trkpt lat="45.00795" lon="15.0077">
        <ele>669</ele>
        <time>2016-07-23T15:49:58Z</time>
      </trkpt>
      <trkpt lat="45.00785" lon="15.00786">
        <ele>669</ele>
        <time>2016-07-23T15:51:58Z</time>
      </trkpt>
      <trkpt lat="45.00766" lon="15.0081">
        <ele>668</ele>
        <time>2016-07-23T15:53:58Z</time>
      </trkpt>
      <trkpt lat="45.00755" lon="15.0083">
        <ele>666</ele>
        <time>2016-07-23T15:55:58Z</time>
      </trkpt>
      <trkpt lat="45.00751" lon="15.0084">
        <ele>665</ele>
        <time>2016-07-23T15:57:58Z</time>
      </trkpt>
      <trkpt lat="45.00737" lon="15.00868">
        <ele>669</ele>
        <time>2016-07-23T15:59:58Z</time>
      </trkpt>
      <trkpt lat="45.00723" lon="15.00901">
        <ele>672</ele>
        <time>2016-07-23T16:01:58Z</time>
      </trkpt>
      <trkpt lat="45.00715" lon="15.00921">
        <ele>673</ele>
        <time>2016-07-23T16:03:58Z</time>
      </trkpt>
      <trkpt lat="45.00709" lon="15.00938">
        <ele>674</ele>
        <time>2016-07-23T16:05:58Z</time>
      </trkpt>
      <trkpt lat="45.00703" lon="15.00974">
        <ele>673</ele>
        <time>2016-07-23T16:07:58Z</time>
      </trkpt>
      <trkpt lat="45.00699" lon="15.01001">
        <ele>672</ele>
        <time>2016-07-23T16:09:58Z</time>
      </trkpt>
      <trkpt lat="45.00692" lon="15.01027">
        <ele>670</ele>
        <time>2016-07-23T16:11:58Z</time>
      </trkpt>
      <trkpt lat="45.00684" lon="15.01051">
        <ele>667</ele>
        <time>2016-07-23T16:13:58Z</time>
      </trkpt>
      <trkpt lat="45.00684" lon="15.01062">
        <ele>666</ele>
        <time>2016-07-23T16:15:58Z</time>
      </trkpt>
      <trkpt lat="45.00684" lon="15.01065">
        <ele>666</ele>
        <time>2016-07-23T16:17:58Z</time>
      </trkpt>
      <trkpt lat="45.00685" lon="15.01068">
        <ele>666</ele>
        <time>2016-07-23T16:19:58Z</time>
      </trkpt>
      <trkpt lat="45.00686" lon="15.01073">
        <ele>666</ele>
        <time>2016-07-23T16:21:58Z</time>
      </trkpt>
      <trkpt lat="45.00688" lon="15.01078">
        <ele>666</ele>
        <time>2016-07-23T16:23:58Z</time>
      </trkpt>
      <trkpt lat="45.00689" lon="15.01083">
        <ele>665</ele>
        <time>2016-07-23T16:25:58Z</time>
      </trkpt>
      <trkpt lat="45.00688" lon="15.0109">
        <ele>665</ele>
        <time>2016-07-23T16:27:58Z</time>
      </trkpt>
      <trkpt lat="45.00688" lon="15.01094">
        <ele>666</ele>
        <time>2016-07-23T16:29:58Z</time>
      </trkpt>
      <trkpt lat="45.00686" lon="15.011">
        <ele>665</ele>
        <time>2016-07-23T16:31:58Z</time>
      </trkpt>
      <trkpt lat="45.00685" lon="15.01102">
        <ele>665</ele>
        <time>2016-07-23T16:33:58Z</time>
      </trkpt>
      <trkpt lat="45.00682" lon="15.01105">
        <ele>665</ele>
        <time>2016-07-23T16:35:58Z</time>
      </trkpt>
      <trkpt lat="45.00679" lon="15.01107">
        <ele>664</ele>
        <time>2016-07-23T16:37:58Z</time>
      </trkpt>
      <trkpt lat="45.00674" lon="15.01109">
        <ele>663</ele>
        <time>2016-07-23T16:39:58Z</time>
      </trkpt>
      <trkpt lat="45.0067" lon="15.01109">
        <ele>662</ele>
        <time>2016-07-23T16:41:58Z</time>
      </trkpt>
      <trkpt lat="45.00665" lon="15.01108">
        <ele>661</ele>
        <time>2016-07-23T16:43:58Z</time>
      </trkpt>
      <trkpt lat="45.0066" lon="15.01106">
        <ele>661</ele>
        <time>2016-07-23T16:45:58Z</time>
      </trkpt>
      <trkpt lat="45.00655" lon="15.01106">
        <ele>660</ele>
        <time>2016-07-23T16:47:58Z</time>
      </trkpt>
      <trkpt lat="45.00652" lon="15.01106">
        <ele>660</ele>
        <time>2016-07-23T16:49:58Z</time>
      </trkpt>
      <trkpt lat="45.00651" lon="15.01107">
        <ele>660</ele>
        <time>2016-07-23T16:51:58Z</time>
      </trkpt>
      <trkpt lat="45.00649" lon="15.01109">
        <ele>659</ele>
        <time>2016-07-23T16:53:58Z</time>
      </trkpt>
      <trkpt lat="45.00646" lon="15.01113">
        <ele>659</ele>
        <time>2016-07-23T16:55:58Z</time>
      </trkpt>
      <trkpt lat="45.00644" lon="15.0112">
        <ele>659</ele>
        <time>2016-07-23T16:57:58Z</time>
      </trkpt>
      <trkpt lat="45.00641" lon="15.01127">
        <ele>658</ele>
        <time>2016-07-23T16:59:58Z</time>
      </trkpt>
      <trkpt lat="45.00639" lon="15.0113">
        <ele>658</ele>
        <time>2016-07-23T17:01:58Z</time>
      </trkpt>
      <trkpt lat="45.00628" lon="15.01145">
        <ele>655</ele>
        <time>2016-07-23T17:03:58Z</time>
      </trkpt>
      <trkpt lat="45.00614" lon="15.01163">
        <ele>651</ele>
        <time>2016-07-23T17:05:58Z</time>
      </trkpt>
      <trkpt lat="45.00603" lon="15.0118">
        <ele>650</ele>
        <time>2016-07-23T17:07:58Z</time>
      </trkpt>
      <trkpt lat="45.00592" lon="15.01202">
        <ele>649</ele>
        <time>2016-07-23T17:09:58Z</time>
      </trkpt>
      <trkpt lat="45.00586" lon="15.01213">
        <ele>649</ele>
        <time>2016-07-23T17:11:58Z</time>
      </trkpt>
      <trkpt lat="45.00569" lon="15.01234">
        <ele>646</ele>
        <time>2016-07-23T17:13:58Z</time>
      </trkpt>
      <trkpt lat="45.00556" lon="15.01252">
        <ele>644</ele>
        <time>2016-07-23T17:15:58Z</time>
      </trkpt>
      <trkpt lat="45.00547" lon="15.01266">
        <ele>644</ele>
        <time>2016-07-23T17:17:58Z</time>
      </trkpt>
      <trkpt lat="45.0054" lon="15.01276">
        <ele>643</ele>
        <time>2016-07-23T17:19:58Z</time>
      </trkpt>
      <trkpt lat="45.00533" lon="15.01283">
        <ele>642</ele>
        <time>2016-07-23T17:21:58Z</time>
      </trkpt>
      <trkpt lat="45.00527" lon="15.01289">
        <ele>641</ele>
        <time>2016-07-23T17:23:58Z</time>
      </trkpt>
      <trkpt lat="45.00524" lon="15.01291">
        <ele>641</ele>
        <time>2016-07-23T17:25:58Z</time>
      </trkpt>
      <trkpt lat="45.00511" lon="15.01305">
        <ele>639</ele>
        <time>2016-07-23T17:27:58Z</time>
      </trkpt>
      <trkpt lat="45.00501" lon="15.01319">
        <ele>637</ele>
        <time>2016-07-23T17:29:58Z</time>
      </trkpt>
      <trkpt lat="45.00483" lon="15.01341">
        <ele>637</ele>
        <time>2016-07-23T17:31:58Z</time>
      </trkpt>
      <trkpt lat="45.00472" lon="15.01355">
        <ele>637</ele>
        <time>2016-07-23T17:33:58Z</time>
      </trkpt>
      <trkpt lat="45.00452" lon="15.01375">
        <ele>635</ele>
        <time>2016-07-23T17:35:58Z</time>
      </trkpt>
      <trkpt lat="45.00443" lon="15.01382">
        <ele>635</ele>
        <time>2016-07-23T17:37:58Z</time>
      </trkpt>
      <trkpt lat="45.00422" lon="15.01404">
        <ele>633</ele>
        <time>2016-07-23T17:39:58Z</time>
      </trkpt>
      <trkpt lat="45.00418" lon="15.01408">
        <ele>633</ele>
        <time>2016-07-23T17:41:58Z</time>
      </trkpt>
      <trkpt lat="45.00413" lon="15.01417">
        <ele>633</ele>
        <time>2016-07-23T17:43:58Z</time>
      </trkpt>
      <trkpt lat="45.00407" lon="15.01428">
        <ele>634</ele>
        <time>2016-07-23T17:45:58Z</time>
      </trkpt>
      <trkpt lat="45.00395" lon="15.01451">
        <ele>634</ele>
        <time>2016-07-23T17:47:58Z</time>
      </trkpt>
      <trkpt lat="45.00386" lon="15.01467">
        <ele>634</ele>
        <time>2016-07-23T17:49:58Z</time>
      </trkpt>
      <trkpt lat="45.00375" lon="15.01485">
        <ele>633</ele>
        <time>2016-07-23T17:51:58Z</time>
      </trkpt>
      <trkpt lat="45.00364" lon="15.01502">
        <ele>631</ele>
        <time>2016-07-23T17:53:58Z</time>
      </trkpt>
      <trkpt lat="45.00354" lon="15.01512">
        <ele>630</ele>
        <time>2016-07-23T17:55:58Z</time>
      </trkpt>
      <trkpt lat="45.00345" lon="15.01522">
        <ele>628</ele>
        <time>2016-07-23T17:57:58Z</time>
      </trkpt>
      <trkpt lat="45.00337" lon="15.01532">
        <ele>628</ele>
        <time>2016-07-23T17:59:58Z</time>
      </trkpt>
      <trkpt lat="45.00322" lon="15.01553">
        <ele>627</ele>
        <time>2016-07-23T18:01:58Z</time>
      </trkpt>
      <trkpt lat="45.00308" lon="15.01584">
        <ele>626</ele>
        <time>2016-07-23T18:03:58Z</time>
      </trkpt>
      <trkpt lat="45.00296" lon="15.01615">
        <ele>626</ele>
        <time>2016-07-23T18:05:58Z</time>
      </trkpt>
      <trkpt lat="45.00291" lon="15.0163">
        <ele>626</ele>
        <time>2016-07-23T18:07:58Z</time>
      </trkpt>
      <trkpt lat="45.00277" lon="15.01668">
        <ele>627</ele>
        <time>2016-07-23T18:09:58Z</time>
      </trkpt>
      <trkpt lat="45.00266" lon="15.01697">
        <ele>627</ele>
        <time>2016-07-23T18:11:58Z</time>
      </trkpt>
      <trkpt lat="45.00252" lon="15.01728">
        <ele>626</ele>
        <time>2016-07-23T18:13:58Z</time>
      </trkpt>
      <trkpt lat="45.00238" lon="15.01757">
        <ele>626</ele>
        <time>2016-07-23T18:15:58Z</time>
      </trkpt>
      <trkpt lat="45.00219" lon="15.01784">
        <ele>626</ele>
        <time>2016-07-23T18:17:58Z</time>
      </trkpt>
      <trkpt lat="45.00209" lon="15.01796">
        <ele>626</ele>
        <time>2016-07-23T18:19:58Z</time>
      </trkpt>
      <trkpt lat="45.00199" lon="15.01813">
        <ele>625</ele>
        <time>2016-07-23T18:21:58Z</time>
      </trkpt>
      <trkpt lat="45.00185" lon="15.01841">
        <ele>625</ele>
        <time>2016-07-23T18:23:58Z</time>
      </trkpt>
      <trkpt lat="45.0017" lon="15.01867">
        <ele>625</ele>
        <time>2016-07-23T18:25:58Z</time>
      </trkpt>
      <trkpt lat="45.0016" lon="15.01885">
        <ele>626</ele>
        <time>2016-07-23T18:27:58Z</time>
      </trkpt>
      <trkpt lat="45.00146" lon="15.01904">
        <ele>626</ele>
        <time>2016-07-23T18:29:58Z</time>
      </trkpt>
      <trkpt lat="45.00133" lon="15.01918">
        <ele>624</ele>
        <time>2016-07-23T18:31:58Z</time>
      </trkpt>
      <trkpt lat="45.00126" lon="15.0193">
        <ele>623</ele>
        <time>2016-07-23T18:33:58Z</time>
      </trkpt>
      <trkpt lat="45.0012" lon="15.0194">
        <ele>622</ele>
        <time>2016-07-23T18:35:58Z</time>
      </trkpt>
      <trkpt lat="45.00112" lon="15.01964">
        <ele>622</ele>
        <time>2016-07-23T18:37:58Z</time>
      </trkpt>
      <trkpt lat="45.00104" lon="15.01988">
        <ele>622</ele>
        <time>2016-07-23T18:39:58Z</time>
      </trkpt>
      <trkpt lat="45.00092" lon="15.0203">
        <ele>622</ele>
        <time>2016-07-23T18:41:58Z</time>
      </trkpt>
      <trkpt lat="45.00086" lon="15.02064">
        <ele>623</ele>
        <time>2016-07-23T18:43:58Z</time>
      </trkpt>
      <trkpt lat="45.00077" lon="15.02109">
        <ele>623</ele>
        <time>2016-07-23T18:45:58Z</time>
      </trkpt>
      <trkpt lat="45.00074" lon="15.0214">
        <ele>623</ele>
        <time>2016-07-23T18:47:58Z</time>
      </trkpt>
      <trkpt lat="45.00072" lon="15.02179">
        <ele>623</ele>
        <time>2016-07-23T18:49:58Z</time>
      </trkpt>
      <trkpt lat="45.0007" lon="15.022">
        <ele>622</ele>
        <time>2016-07-23T18:51:58Z</time>
      </trkpt>
      <trkpt lat="45.00068" lon="15.02213">
        <ele>621</ele>
        <time>2016-07-23T18:53:58Z</time>
      </trkpt>
      <trkpt lat="45.00067" lon="15.02227">
        <ele>621</ele>
        <time>2016-07-23T18:55:58Z</time>
      </trkpt>
      <trkpt lat="45.00069" lon="15.0224">
        <ele>621</ele>
        <time>2016-07-23T18:57:58Z</time>
      </trkpt>
      <trkpt lat="45.00071" lon="15.02249">
        <ele>622</ele>
        <time>2016-07-23T18:59:58Z</time>
      </trkpt>
      <trkpt lat="45.00077" lon="15.02268">
        <ele>622</ele>
        <time>2016-07-23T19:01:58Z</time>
      </trkpt>
      <trkpt lat="45.00083" lon="15.02301">
        <ele>623</ele>
        <time>2016-07-23T19:03:58Z</time>
      </trkpt>
      <trkpt lat="45.00086" lon="15.02324">
        <ele>622</ele>
        <time>2016-07-23T19:05:58Z</time>
      </trkpt>
      <trkpt lat="45.00088" lon="15.02339">
        <ele>622</ele>
        <time>2016-07-23T19:07:58Z</time>
      </trkpt>
      <trkpt lat="45.00088" lon="15.02342">
        <ele>622</ele>
        <time>2016-07-23T19:09:58Z</time>
      </trkpt>
      <trkpt lat="45.00092" lon="15.02358">
        <ele>623</ele>
        <time>2016-07-23T19:11:58Z</time>
      </trkpt>
      <trkpt lat="45.00095" lon="15.02367">
        <ele>623</ele>
        <time>2016-07-23T19:13:58Z</time>
      </trkpt>
      <trkpt lat="45.00098" lon="15.02374">
        <ele>623</ele>
        <time>2016-07-23T19:15:58Z</time>
      </trkpt>
      <trkpt lat="45.00147" lon="15.02446">
        <ele>628</ele>
        <time>2016-07-23T19:17:58Z</time>
      </trkpt>
      <trkpt lat="45.0016" lon="15.02464">
        <ele>630</ele>
        <time>2016-07-23T19:19:58Z</time>
      </trkpt>
      <trkpt lat="45.00164" lon="15.02468">
        <ele>631</ele>
        <time>2016-07-23T19:21:58Z</time>
      </trkpt>
      <trkpt lat="45.00171" lon="15.02473">
        <ele>631</ele>
        <time>2016-07-23T19:23:58Z</time>
      </trkpt>
      <trkpt lat="45.0018" lon="15.02476">
        <ele>632</ele>
        <time>2016-07-23T19:25:58Z</time>
      </trkpt>
      <trkpt lat="45.00199" lon="15.02478">
        <ele>632</ele>
        <time>2016-07-23T19:27:58Z</time>
      </trkpt>
      <trkpt lat="45.00226" lon="15.02481">
        <ele>634</ele>
        <time>2016-07-23T19:29:58Z</time>
      </trkpt>
      <trkpt lat="45.00233" lon="15.02482">
        <ele>634</ele>
        <time>2016-07-23T19:31:58Z</time>
      </trkpt>
      <trkpt lat="45.0024" lon="15.02485">
        <ele>634</ele>
        <time>2016-07-23T19:33:58Z</time>
      </trkpt>
      <trkpt lat="45.0025" lon="15.0249">
        <ele>634</ele>
        <time>2016-07-23T19:35:58Z</time>
      </trkpt>
      <trkpt lat="45.00256" lon="15.02496">
        <ele>634</ele>
        <time>2016-07-23T19:37:58Z</time>
      </trkpt>
      <trkpt lat="45.00266" lon="15.02509">
        <ele>634</ele>
        <time>2016-07-23T19:39:58Z</time>
      </trkpt>
      <trkpt lat="45.00273" lon="15.02522">
        <ele>634</ele>
        <time>2016-07-23T19:41:58Z</time>
      </trkpt>
      <trkpt lat="45.0029" lon="15.02561">
        <ele>633</ele>
        <time>2016-07-23T19:43:58Z</time>
      </trkpt>
      <trkpt lat="45.00307" lon="15.02615">
        <ele>631</ele>
        <time>2016-07-23T19:45:58Z</time>
      </trkpt>
      <trkpt lat="45.00319" lon="15.02643">
        <ele>629</ele>
        <time>2016-07-23T19:47:58Z</time>
      </trkpt>
      <trkpt lat="45.00337" lon="15.02671">
        <ele>627</ele>
        <time>2016-07-23T19:49:58Z</time>
      </trkpt>
      <trkpt lat="45.00377" lon="15.02711">
        <ele>625</ele>
        <time>2016-07-23T19:51:58Z</time>
      </trkpt>
      <trkpt lat="45.00386" lon="15.02722">
        <ele>625</ele>
        <time>2016-07-23T19:53:58Z</time>
      </trkpt>
      <trkpt lat="45.00392" lon="15.0273">
        <ele>625</ele>
        <time>2016-07-23T19:55:58Z</time>
      </trkpt>
      <trkpt lat="45.00393" lon="15.02736">
        <ele>625</ele>
        <time>2016-07-23T19:57:58Z</time>
      </trkpt>
      <trkpt lat="45.00394" lon="15.02743">
        <ele>624</ele>
        <time>2016-07-23T19:59:58Z</time>
      </trkpt>
      <trkpt lat="45.00394" lon="15.02748">
        <ele>624</ele>
        <time>2016-07-23T20:01:58Z</time>
      </trkpt>
      <trkpt lat="45.00394" lon="15.0276">
        <ele>623</ele>
        <time>2016-07-23T20:03:58Z</time>
      </trkpt>
      <trkpt lat="45.00389" lon="15.02778">
        <ele>622</ele>
        <time>2016-07-23T20:05:58Z</time>
      </trkpt>
      <trkpt lat="45.00387" lon="15.02788">
        <ele>621</ele>
        <time>2016-07-23T20:07:58Z</time>
      </trkpt>
      <trkpt lat="45.00389" lon="15.02798">
        <ele>620</ele>
        <time>2016-07-23T20:09:58Z</time>
      </trkpt>
      <trkpt lat="45.0039" lon="15.02805">
        <ele>620</ele>
        <time>2016-07-23T20:11:58Z</time>
      </trkpt>
      <trkpt lat="45.00391" lon="15.02813">
        <ele>620</ele>
        <time>2016-07-23T20:13:58Z</time>
      </trkpt>
      <trkpt lat="45.00389" lon="15.02821">
        <ele>619</ele>
        <time>2016-07-23T20:15:58Z</time>
      </trkpt>
      <trkpt lat="45.00387" lon="15.02828">
        <ele>619</ele>
        <time>2016-07-23T20:17:58Z</time>
      </trkpt>
      <trkpt lat="45.0038" lon="15.02843">
        <ele>618</ele>
        <time>2016-07-23T20:19:58Z</time>
      </trkpt>
      <trkpt lat="45.00375" lon="15.0285">
        <ele>617</ele>
        <time>2016-07-23T20:21:58Z</time>
      </trkpt>
      <trkpt lat="45.00372" lon="15.02861">
        <ele>617</ele>
        <time>2016-07-23T20:23:58Z</time>
      </trkpt>
      <trkpt lat="45.0037" lon="15.02873">
        <ele>616</ele>
        <time>2016-07-23T20:25:58Z</time>
      </trkpt>
      <trkpt lat="45.0037" lon="15.02884">
        <ele>616</ele>
        <time>2016-07-23T20:27:58Z</time>
      </trkpt>
      <trkpt lat="45.00373" lon="15.02904">
        <ele>615</ele>
        <time>2016-07-23T20:29:58Z</time>
      </trkpt>
      <trkpt lat="45.00375" lon="15.0293">
        <ele>612</ele>
        <time>2016-07-23T20:31:58Z</time>
      </trkpt>
      <trkpt lat="45.00375" lon="15.0294">
        <ele>611</ele>
        <time>2016-07-23T20:33:58Z</time>
      </trkpt>
      <trkpt lat="45.00374" lon="15.02946">
        <ele>611</ele>
        <time>2016-07-23T20:35:58Z</time>
      </trkpt>
      <trkpt lat="45.00371" lon="15.02953">
        <ele>610</ele>
        <time>2016-07-23T20:37:58Z</time>
      </trkpt>
      <trkpt lat="45.00365" lon="15.02964">
        <ele>610</ele>
        <time>2016-07-23T20:39:58Z</time>
      </trkpt>
      <trkpt lat="45.0035" lon="15.02985">
        <ele>608</ele>
        <time>2016-07-23T20:41:58Z</time>
      </trkpt>
      <trkpt lat="45.0034" lon="15.02998">
        <ele>608</ele>
        <time>2016-07-23T20:43:58Z</time>
      </trkpt>
      <trkpt lat="45.00332" lon="15.03005">
        <ele>608</ele>
        <time>2016-07-23T20:45:58Z</time>
      </trkpt>
      <trkpt lat="45.00329" lon="15.03008">
        <ele>608</ele>
        <time>2016-07-23T20:47:58Z</time>
      </trkpt>
      <trkpt lat="45.00326" lon="15.03014">
        <ele>607</ele>
        <time>2016-07-23T20:49:58Z</time>
      </trkpt>
      <trkpt lat="45.00324" lon="15.03019">
        <ele>607</ele>
        <time>2016-07-23T20:51:58Z</time>
      </trkpt>
      <trkpt lat="45.00324" lon="15.03026">
        <ele>606</ele>
        <time>2016-07-23T20:53:58Z</time>
      </trkpt>
      <trkpt lat="45.00325" lon="15.03033">
        <ele>605</ele>
        <time>2016-07-23T20:55:58Z</time>
      </trkpt>
      <trkpt lat="45.00326" lon="15.03037">
        <ele>605</ele>
        <time>2016-07-23T20:57:58Z</time>
      </trkpt>
      <trkpt lat="45.00329" lon="15.0304">
        <ele>604</ele>
        <time>2016-07-23T20:59:58Z</time>
      </trkpt>
      <trkpt lat="45.00335" lon="15.03045">
        <ele>603</ele>
        <time>2016-07-23T21:01:58Z</time>
      </trkpt>
      <trkpt lat="45.00344" lon="15.03053">
        <ele>602</ele>
        <time>2016-07-23T21:03:58Z</time>
      </trkpt>
      <trkpt lat="45.00345" lon="15.03055">
        <ele>601</ele>
        <time>2016-07-23T21:05:58Z</time>
      </trkpt>
      <trkpt lat="45.00345" lon="15.03058">
        <ele>601</ele>
        <time>2016-07-23T21:07:58Z</time>
      </trkpt>
      <trkpt lat="45.00345" lon="15.03061">
        <ele>601</ele>
        <time>2016-07-23T21:09:58Z</time>
      </trkpt>
      <trkpt lat="45.00345" lon="15.03064">
        <ele>600</ele>
        <time>2016-07-23T21:11:58Z</time>
      </trkpt>
      <trkpt lat="45.00344" lon="15.03067">
        <ele>600</ele>
        <time>2016-07-23T21:13:58Z</time>
      </trkpt>
      <trkpt lat="45.00338" lon="15.03072">
        <ele>600</ele>
        <time>2016-07-23T21:15:58Z</time>
      </trkpt>
      <trkpt lat="45.00331" lon="15.03077">
        <ele>600</ele>
        <time>2016-07-23T21:17:58Z</time>
      </trkpt>
      <trkpt lat="45.00321" lon="15.03087">
        <ele>601</ele>
        <time>2016-07-23T21:19:58Z</time>
      </trkpt>
      <trkpt lat="45.00315" lon="15.031">
        <ele>601</ele>
        <time>2016-07-23T21:21:58Z</time>
      </trkpt>
      <trkpt lat="45.00314" lon="15.03104">
        <ele>601</ele>
        <time>2016-07-23T21:23:58Z</time>
      </trkpt>
      <trkpt lat="45.00306" lon="15.03138">
        <ele>600</ele>
        <time>2016-07-23T21:25:58Z</time>
      </trkpt>
      <trkpt lat="45.003" lon="15.03156">
        <ele>600</ele>
        <time>2016-07-23T21:27:58Z</time>
      </trkpt>
      <trkpt lat="45.00287" lon="15.0324">
        <ele>595</ele>
        <time>2016-07-23T21:29:58Z</time>
      </trkpt>
      <trkpt lat="45.00283" lon="15.03277">
        <ele>593</ele>
        <time>2016-07-23T21:31:58Z</time>
      </trkpt>
      <trkpt lat="45.00276" lon="15.03304">
        <ele>591</ele>
        <time>2016-07-23T21:33:58Z</time>
      </trkpt>
      <trkpt lat="45.00266" lon="15.03332">
        <ele>590</ele>
        <time>2016-07-23T21:35:58Z</time>
      </trkpt>
      <trkpt lat="45.00262" lon="15.03354">
        <ele>588</ele>
        <time>2016-07-23T21:37:58Z</time>
      </trkpt>
      <trkpt lat="45.00243" lon="15.03408">
        <ele>583</ele>
        <time>2016-07-23T21:39:58Z</time>
      </trkpt>
      <trkpt lat="45.00231" lon="15.03459">
        <ele>579</ele>
        <time>2016-07-23T21:41:58Z</time>
      </trkpt>
      <trkpt lat="45.00222" lon="15.03495">
        <ele>577</ele>
        <time>2016-07-23T21:43:58Z</time>
      </trkpt>
      <trkpt lat="45.00217" lon="15.03514">
        <ele>576</ele>
        <time>2016-07-23T21:45:58Z</time>
      </trkpt>
      <trkpt lat="45.00211" lon="15.03531">
        <ele>576</ele>
        <time>2016-07-23T21:47:58Z</time>
      </trkpt>
      <trkpt lat="45.0021" lon="15.03547">
        <ele>575</ele>
        <time>2016-07-23T21:49:58Z</time>
      </trkpt>
      <trkpt lat="45.00213" lon="15.03573">
        <ele>574</ele>
        <time>2016-07-23T21:51:58Z</time>
      </trkpt>
      <trkpt lat="45.00214" lon="15.03587">
        <ele>573</ele>
        <time>2016-07-23T21:53:58Z</time>
      </trkpt>
      <trkpt lat="45.00211" lon="15.036">
        <ele>573</ele>
        <time>2016-07-23T21:55:58Z</time>
      </trkpt>
      <trkpt lat="45.00199" lon="15.03617">
        <ele>573</ele>
        <time>2016-07-23T21:57:58Z</time>
      </trkpt>
      <trkpt lat="45.00181" lon="15.03638">
        <ele>574</ele>
        <time>2016-07-23T21:59:58Z</time>
      </trkpt>
      <trkpt lat="45.00148" lon="15.0368">
        <ele>574</ele>
        <time>2016-07-23T22:01:58Z</time>
      </trkpt>
      <trkpt lat="45.0014" lon="15.03691">
        <ele>575</ele>
        <time>2016-07-23T22:03:58Z</time>
      </trkpt>
      <trkpt lat="45.00136" lon="15.03699">
        <ele>574</ele>
        <time>2016-07-23T22:05:58Z</time>
      </trkpt>
      <trkpt lat="45.00127" lon="15.03722">
        <ele>574</ele>
        <time>2016-07-23T22:07:58Z</time>
      </trkpt>
      <trkpt lat="45.00116" lon="15.03744">
        <ele>572</ele>
        <time>2016-07-23T22:09:58Z</time>
      </trkpt>
      <trkpt lat="45.00112" lon="15.03758">
        <ele>571</ele>
        <time>2016-07-23T22:11:58Z</time>
      </trkpt>
      <trkpt lat="45.00111" lon="15.03771">
        <ele>571</ele>
        <time>2016-07-23T22:13:58Z</time>
      </trkpt>
      <trkpt lat="45.0011" lon="15.03783">
        <ele>571</ele>
        <time>2016-07-23T22:15:58Z</time>
      </trkpt>
      <trkpt lat="45.00114" lon="15.03806">
        <ele>572</ele>
        <time>2016-07-23T22:17:58Z</time>
      </trkpt>
      <trkpt lat="45.00114" lon="15.03829">
        <ele>572</ele>
        <time>2016-07-23T22:19:58Z</time>
      </trkpt>
      <trkpt lat="45.00112" lon="15.03847">
        <ele>572</ele>
        <time>2016-07-23T22:21:58Z</time>
      </trkpt>
      <trkpt lat="45.00106" lon="15.03896">
        <ele>572</ele>
        <time>2016-07-23T22:23:58Z</time>
      </trkpt>
      <trkpt lat="45.00105" lon="15.03925">
        <ele>572</ele>
        <time>2016-07-23T22:25:58Z</time>
      </trkpt>
      <trkpt lat="45.00105" lon="15.03943">
        <ele>571</ele>
        <time>2016-07-23T22:27:58Z</time>
      </trkpt>
      <trkpt lat="45.00109" lon="15.03964">
        <ele>571</ele>
        <time>2016-07-23T22:29:58Z</time>
      </trkpt>
      <trkpt lat="45.00113" lon="15.03981">
        <ele>572</ele>
        <time>2016-07-23T22:31:58Z</time>
      </trkpt>
      <trkpt lat="45.00116" lon="15.03997">
        <ele>572</ele>
        <time>2016-07-23T22:33:58Z</time>
      </trkpt>
      <trkpt lat="45.00117" lon="15.04011">
        <ele>572</ele>
        <time>2016-07-23T22:35:58Z</time>
      </trkpt>
      <trkpt lat="45.00116" lon="15.04025">
        <ele>572</ele>
        <time>2016-07-23T22:37:58Z</time>
      </trkpt>
      <trkpt lat="45.00109" lon="15.04051">
        <ele>572</ele>
        <time>2016-07-23T22:39:58Z</time>
      </trkpt>
      <trkpt lat="45.00097" lon="15.04069">
        <ele>571</ele>
        <time>2016-07-23T22:41:58Z</time>
      </trkpt>
      <trkpt lat="45.00092" lon="15.04075">
        <ele>571</ele>
        <time>2016-07-23T22:43:58Z</time>
      </trkpt>
      <trkpt lat="45.00082" lon="15.04081">
        <ele>571</ele>
        <time>2016-07-23T22:45:58Z</time>
      </trkpt>
      <trkpt lat="45.00077" lon="15.04086">
        <ele>571</ele>
        <time>2016-07-23T22:47:58Z</time>
      </trkpt>
      <trkpt lat="45.0007" lon="15.04096">
        <ele>571</ele>
        <time>2016-07-23T22:49:58Z</time>
      </trkpt>
      <trkpt lat="45.00066" lon="15.04106">
        <ele>571</ele>
        <time>2016-07-23T22:51:58Z</time>
      </trkpt>
      <trkpt lat="45.00063" lon="15.04119">
        <ele>571</ele>
        <time>2016-07-23T22:53:58Z</time>
      </trkpt>
      <trkpt lat="45.00061" lon="15.04138">
        <ele>571</ele>
        <time>2016-07-23T22:55:58Z</time>
      </trkpt>
      <trkpt lat="45.00061" lon="15.04158">
        <ele>571</ele>
        <time>2016-07-23T22:57:58Z</time>
      </trkpt>
      <trkpt lat="45.00063" lon="15.04183">
        <ele>571</ele>
        <time>2016-07-23T22:59:58Z</time>
      </trkpt>
      <trkpt lat="45.00065" lon="15.04207">
        <ele>571</ele>
        <time>2016-07-23T23:01:58Z</time>
      </trkpt>
      <trkpt lat="45.00069" lon="15.04237">
        <ele>570</ele>
        <time>2016-07-23T23:03:58Z</time>
      </trkpt>
      <trkpt lat="45.00069" lon="15.04255">
        <ele>570</ele>
        <time>2016-07-23T23:05:58Z</time>
      </trkpt>
      <trkpt lat="45.0007" lon="15.04274">
        <ele>570</ele>
        <time>2016-07-23T23:07:58Z</time>
      </trkpt>
      <trkpt lat="45.00066" lon="15.04324">
        <ele>569</ele>
        <time>2016-07-23T23:09:58Z</time>
      </trkpt>
      <trkpt lat="45.00061" lon="15.04353">
        <ele>569</ele>
        <time>2016-07-23T23:11:58Z</time>
      </trkpt>
      <trkpt lat="45.00059" lon="15.04368">
        <ele>569</ele>
        <time>2016-07-23T23:13:58Z</time>
      </trkpt>
      <trkpt lat="45.00059" lon="15.04387">
        <ele>569</ele>
        <time>2016-07-23T23:15:58Z</time>
      </trkpt>
      <trkpt lat="45.00068" lon="15.04428">
        <ele>569</ele>
        <time>2016-07-23T23:17:58Z</time>
      </trkpt>
      <trkpt lat="45.00073" lon="15.0446">
        <ele>570</ele>
        <time>2016-07-23T23:19:58Z</time>
      </trkpt>
      <trkpt lat="45.00076" lon="15.04489">
        <ele>570</ele>
        <time>2016-07-23T23:21:58Z</time>
      </trkpt>
      <trkpt lat="45.00075" lon="15.0455">
        <ele>569</ele>
        <time>2016-07-23T23:23:58Z</time>
      </trkpt>
      <trkpt lat="45.0007" lon="15.04585">
        <ele>568</ele>
        <time>2016-07-23T23:25:58Z</time>
      </trkpt>
      <trkpt lat="45.00067" lon="15.046">
        <ele>568</ele>
        <time>2016-07-23T23:27:58Z</time>
      </trkpt>
      <trkpt lat="45.00055" lon="15.04634">
        <ele>567</ele>
        <time>2016-07-23T23:29:58Z</time>
      </trkpt>
      <trkpt lat="45.0004" lon="15.04667">
        <ele>566</ele>
        <time>2016-07-23T23:31:58Z</time>
      </trkpt>
      <trkpt lat="45.00027" lon="15.04681">
        <ele>566</ele>
        <time>2016-07-23T23:33:58Z</time>
      </trkpt>
      <trkpt lat="45.0002" lon="15.04693">
        <ele>565</ele>
        <time>2016-07-23T23:35:58Z</time>
      </trkpt>
      <trkpt lat="45.00017" lon="15.04703">
        <ele>565</ele>
        <time>2016-07-23T23:37:58Z</time>
      </trkpt>
      <trkpt lat="45.00011" lon="15.04728">
        <ele>564</ele>
        <time>2016-07-23T23:39:58Z</time>
      </trkpt>
      <trkpt lat="45.00011" lon="15.04771">
        <ele>563</ele>
        <time>2016-07-23T23:41:58Z</time>
      </trkpt>
      <trkpt lat="45.00006" lon="15.04816">
        <ele>562</ele>
        <time>2016-07-23T23:43:58Z</time>
      </trkpt>
      <trkpt lat="45.00006" lon="15.04851">
        <ele>563</ele>
        <time>2016-07-23T23:45:58Z</time>
      </trkpt>
      <trkpt lat="45.00005" lon="15.04863">
        <ele>563</ele>
        <time>2016-07-23T23:47:58Z</time>
      </trkpt>
      <trkpt lat="45.00003" lon="15.04873">
        <ele>564</ele>
        <time>2016-07-23T23:49:58Z</time>
      </trkpt>
      <trkpt lat="44.99993" lon="15.04893">
        <ele>564</ele>
        <time>2016-07-23T23:51:58Z</time>
      </trkpt>
      <trkpt lat="44.99967" lon="15.04945">
        <ele>564</ele>
        <time>2016-07-23T23:53:58Z</time>
      </trkpt>
      <trkpt lat="44.99928" lon="15.05017">
        <ele>560</ele>
        <time>2016-07-23T23:55:58Z</time>
      </trkpt>
      <trkpt lat="44.9991" lon="15.05048">
        <ele>559</ele>
        <time>2016-07-23T23:57:58Z</time>
      </trkpt>
      <trkpt lat="44.99904" lon="15.05055">
        <ele>559</ele>
        <time>2016-07-23T23:59:58Z</time>
      </trkpt>
      <trkpt lat="44.99897" lon="15.0506">
        <ele>558</ele>
        <time>2016-07-24T00:01:58Z</time>
      </trkpt>
      <trkpt lat="44.99874" lon="15.05067">
        <ele>557</ele>
        <time>2016-07-24T00:03:58Z</time>
      </trkpt>
      <trkpt lat="44.99861" lon="15.05072">
        <ele>556</ele>
        <time>2016-07-24T00:05:58Z</time>
      </trkpt>
      <trkpt lat="44.99848" lon="15.05081">
        <ele>555</ele>
        <time>2016-07-24T00:07:58Z</time>
      </trkpt>
      <trkpt lat="44.99837" lon="15.05092">
        <ele>555</ele>
        <time>2016-07-24T00:09:58Z</time>
      </trkpt>
      <trkpt lat="44.99816" lon="15.05124">
        <ele>556</ele>
        <time>2016-07-24T00:11:58Z</time>
      </trkpt>
      <trkpt lat="44.99791" lon="15.05154">
        <ele>557</ele>
        <time>2016-07-24T00:13:58Z</time>
      </trkpt>
      <trkpt lat="44.99778" lon="15.05175">
        <ele>557</ele>
        <time>2016-07-24T00:15:58Z</time>
      </trkpt>
      <trkpt lat="44.99771" lon="15.05191">
        <ele>557</ele>
        <time>2016-07-24T00:17:58Z</time>
      </trkpt>
      <trkpt lat="44.99765" lon="15.05213">
        <ele>556</ele>
        <time>2016-07-24T00:19:58Z</time>
      </trkpt>
      <trkpt lat="44.99764" lon="15.05242">
        <ele>555</ele>
        <time>2016-07-24T00:21:58Z</time>
      </trkpt>
      <trkpt lat="44.9976" lon="15.05266">
        <ele>555</ele>
        <time>2016-07-24T00:23:58Z</time>
      </trkpt>
      <trkpt lat="44.99755" lon="15.05286">
        <ele>554</ele>
        <time>2016-07-24T00:25:58Z</time>
      </trkpt>
      <trkpt lat="44.99743" lon="15.05311">
        <ele>553</ele>
        <time>2016-07-24T00:27:58Z</time>
      </trkpt>
      <trkpt lat="44.99733" lon="15.05328">
        <ele>553</ele>
        <time>2016-07-24T00:29:58Z</time>
      </trkpt>
      <trkpt lat="44.99721" lon="15.05349">
        <ele>552</ele>
        <time>2016-07-24T00:31:58Z</time>
      </trkpt>
      <trkpt lat="44.99706" lon="15.05366">
        <ele>550</ele>
        <time>2016-07-24T00:33:58Z</time>
      </trkpt>
      <trkpt lat="44.9969" lon="15.0538">
        <ele>547</ele>
        <time>2016-07-24T00:35:58Z</time>
      </trkpt>
      <trkpt lat="44.99676" lon="15.05388">
        <ele>544</ele>
        <time>2016-07-24T00:37:58Z</time>
      </trkpt>
      <trkpt lat="44.99662" lon="15.05407">
        <ele>539</ele>
        <time>2016-07-24T00:39:58Z</time>
      </trkpt>
      <trkpt lat="44.99652" lon="15.05424">
        <ele>538</ele>
        <time>2016-07-24T00:41:58Z</time>
      </trkpt>
      <trkpt lat="44.9964" lon="15.05448">
        <ele>537</ele>
        <time>2016-07-24T00:43:58Z</time>
      </trkpt>
      <trkpt lat="44.99613" lon="15.05495">
        <ele>533</ele>
        <time>2016-07-24T00:45:58Z</time>
      </trkpt>
      <trkpt lat="44.99599" lon="15.05531">
        <ele>532</ele>
        <time>2016-07-24T00:47:58Z</time>
      </trkpt>
      <trkpt lat="44.99591" lon="15.05558">
        <ele>532</ele>
        <time>2016-07-24T00:49:58Z</time>
      </trkpt>
      <trkpt lat="44.9959" lon="15.05562">
        <ele>532</ele>
        <time>2016-07-24T00:51:58Z</time>
      </trkpt>
      <trkpt lat="44.99578" lon="15.056">
        <ele>531</ele>
        <time>2016-07-24T00:53:58Z</time>
      </trkpt>
      <trkpt lat="44.99561" lon="15.0565">
        <ele>531</ele>
        <time>2016-07-24T00:55:58Z</time>
      </trkpt>
      <trkpt lat="44.99551" lon="15.05668">
        <ele>530</ele>
        <time>2016-07-24T00:57:58Z</time>
      </trkpt>
      <trkpt lat="44.99536" lon="15.05688">
        <ele>528</ele>
        <time>2016-07-24T00:59:58Z</time>
      </trkpt>
      <trkpt lat="44.99514" lon="15.05721">
        <ele>526</ele>
        <time>2016-07-24T01:01:58Z</time>
      </trkpt>
      <trkpt lat="44.99489" lon="15.05762">
        <ele>525</ele>
        <time>2016-07-24T01:03:58Z</time>
      </trkpt>
      <trkpt lat="44.99452" lon="15.05818">
        <ele>523</ele>
        <time>2016-07-24T01:05:58Z</time>
      </trkpt>
      <trkpt lat="44.99421" lon="15.05852">
        <ele>520</ele>
        <time>2016-07-24T01:07:58Z</time>
      </trkpt>
      <trkpt lat="44.99373" lon="15.05882">
        <ele>517</ele>
        <time>2016-07-24T01:09:58Z</time>
      </trkpt>
      <trkpt lat="44.99339" lon="15.05911">
        <ele>515</ele>
        <time>2016-07-24T01:11:58Z</time>
      </trkpt>
      <trkpt lat="44.99312" lon="15.05935">
        <ele>514</ele>
        <time>2016-07-24T01:13:58Z</time>
      </trkpt>
      <trkpt lat="44.99302" lon="15.05947">
        <ele>514</ele>
        <time>2016-07-24T01:15:58Z</time>
      </trkpt>
      <trkpt lat="44.99299" lon="15.05955">
        <ele>514</ele>
        <time>2016-07-24T01:17:58Z</time>
      </trkpt>
      <trkpt lat="44.99296" lon="15.05965">
        <ele>514</ele>
        <time>2016-07-24T01:19:58Z</time>
      </trkpt>
      <trkpt lat="44.99294" lon="15.05975">
        <ele>514</ele>
        <time>2016-07-24T01:21:58Z</time>
      </trkpt>
      <trkpt lat="44.99294" lon="15.05982">
        <ele>514</ele>
        <time>2016-07-24T01:23:58Z</time>
      </trkpt>
      <trkpt lat="44.99292" lon="15.05994">
        <ele>514</ele>
        <time>2016-07-24T01:25:58Z</time>
      </trkpt>
      <trkpt lat="44.99291" lon="15.06029">
        <ele>515</ele>
        <time>2016-07-24T01:27:58Z</time>
      </trkpt>
      <trkpt lat="44.9929" lon="15.06036">
        <ele>515</ele>
        <time>2016-07-24T01:29:58Z</time>
      </trkpt>
      <trkpt lat="44.99285" lon="15.06057">
        <ele>515</ele>
        <time>2016-07-24T01:31:58Z</time>
      </trkpt>
      <trkpt lat="44.99282" lon="15.06065">
        <ele>515</ele>
        <time>2016-07-24T01:33:58Z</time>
      </trkpt>
      <trkpt lat="44.99277" lon="15.06075">
        <ele>515</ele>
        <time>2016-07-24T01:35:58Z</time>
      </trkpt>
      <trkpt lat="44.99265" lon="15.06097">
        <ele>515</ele>
        <time>2016-07-24T01:37:58Z</time>
      </trkpt>
      <trkpt lat="44.99247" lon="15.06126">
        <ele>515</ele>
        <time>2016-07-24T01:39:58Z</time>
      </trkpt>
      <trkpt lat="44.99216" lon="15.06174">
        <ele>514</ele>
        <time>2016-07-24T01:41:58Z</time>
      </trkpt>
      <trkpt lat="44.99197" lon="15.062">
        <ele>514</ele>
        <time>2016-07-24T01:43:58Z</time>
      </trkpt>
      <trkpt lat="44.99158" lon="15.06248">
        <ele>515</ele>
        <time>2016-07-24T01:45:58Z</time>
      </trkpt>
      <trkpt lat="44.99131" lon="15.06293">
        <ele>514</ele>
        <time>2016-07-24T01:47:58Z</time>
      </trkpt>
      <trkpt lat="44.99097" lon="15.06346">
        <ele>515</ele>
        <time>2016-07-24T01:49:58Z</time>
      </trkpt>
      <trkpt lat="44.99072" lon="15.06374">
        <ele>516</ele>
        <time>2016-07-24T01:51:58Z</time>
      </trkpt>
      <trkpt lat="44.99034" lon="15.06419">
        <ele>516</ele>
        <time>2016-07-24T01:53:58Z</time>
      </trkpt>
      <trkpt lat="44.9902" lon="15.06434">
        <ele>515</ele>
        <time>2016-07-24T01:55:58Z</time>
      </trkpt>
      <trkpt lat="44.99014" lon="15.06443">
        <ele>514</ele>
        <time>2016-07-24T01:57:58Z</time>
      </trkpt>
      <trkpt lat="44.99009" lon="15.06454">
        <ele>514</ele>
        <time>2016-07-24T01:59:58Z</time>
      </trkpt>
      <trkpt lat="44.99001" lon="15.06477">
        <ele>514</ele>
        <time>2016-07-24T02:01:58Z</time>
      </trkpt>
      <trkpt lat="44.9899" lon="15.06513">
        <ele>514</ele>
        <time>2016-07-24T02:03:58Z</time>
      </trkpt>
      <trkpt lat="44.98983" lon="15.06539">
        <ele>515</ele>
        <time>2016-07-24T02:05:58Z</time>
      </trkpt>
      <trkpt lat="44.98979" lon="15.0657">
        <ele>517</ele>
        <time>2016-07-24T02:07:58Z</time>
      </trkpt>
      <trkpt lat="44.98975" lon="15.06607">
        <ele>518</ele>
        <time>2016-07-24T02:09:58Z</time>
      </trkpt>
      <trkpt lat="44.98972" lon="15.06636">
        <ele>518</ele>
        <time>2016-07-24T02:11:58Z</time>
      </trkpt>
      <trkpt lat="44.98967" lon="15.06666">
        <ele>517</ele>
        <time>2016-07-24T02:13:58Z</time>
      </trkpt>
      <trkpt lat="44.98963" lon="15.06735">
        <ele>521</ele>
        <time>2016-07-24T02:15:58Z</time>
      </trkpt>
      <trkpt lat="44.98954" lon="15.06792">
        <ele>521</ele>
        <time>2016-07-24T02:17:58Z</time>
      </trkpt>
      <trkpt lat="44.98953" lon="15.06852">
        <ele>523</ele>
        <time>2016-07-24T02:19:58Z</time>
      </trkpt>
      <trkpt lat="44.9895" lon="15.0689">
        <ele>523</ele>
        <time>2016-07-24T02:21:58Z</time>
      </trkpt>
      <trkpt lat="44.98946" lon="15.06922">
        <ele>522</ele>
        <time>2016-07-24T02:23:58Z</time>
      </trkpt>
      <trkpt lat="44.98934" lon="15.06979">
        <ele>517</ele>
        <time>2016-07-24T02:25:58Z</time>
      </trkpt>
      <trkpt lat="44.98929" lon="15.06997">
        <ele>515</ele>
        <time>2016-07-24T02:27:58Z</time>
      </trkpt>
      <trkpt lat="44.98929" lon="15.07003">
        <ele>515</ele>
        <time>2016-07-24T02:29:58Z</time>
      </trkpt>
      <trkpt lat="44.98927" lon="15.07012">
        <ele>514</ele>
        <time>2016-07-24T02:31:58Z</time>
      </trkpt>
      <trkpt lat="44.98928" lon="15.07026">
        <ele>514</ele>
        <time>2016-07-24T02:33:58Z</time>
      </trkpt>
      <trkpt lat="44.9893" lon="15.0704">
        <ele>514</ele>
        <time>2016-07-24T02:35:58Z</time>
      </trkpt>
      <trkpt lat="44.98934" lon="15.07059">
        <ele>514</ele>
        <time>2016-07-24T02:37:58Z</time>
      </trkpt>
      <trkpt lat="44.98934" lon="15.07076">
        <ele>513</ele>
        <time>2016-07-24T02:39:58Z</time>
      </trkpt>
      <trkpt lat="44.98932" lon="15.07088">
        <ele>512</ele>
        <time>2016-07-24T02:41:58Z</time>
      </trkpt>
      <trkpt lat="44.98931" lon="15.07094">
        <ele>513</ele>
        <time>2016-07-24T02:43:58Z</time>
      </trkpt>
      <trkpt lat="44.98928" lon="15.07098">
        <ele>513</ele>
        <time>2016-07-24T02:45:58Z</time>
      </trkpt>
      <trkpt lat="44.98923" lon="15.07105">
        <ele>513</ele>
        <time>2016-07-24T02:47:58Z</time>
      </trkpt>
      <trkpt lat="44.98916" lon="15.07109">
        <ele>513</ele>
        <time>2016-07-24T02:49:58Z</time>
      </trkpt>
      <trkpt lat="44.98916" lon="15.07109">
        <ele>513</ele>
        <time>2016-07-24T02:51:58Z</time>
      </trkpt>
      <trkpt lat="44.98936" lon="15.07126">
        <ele>514</ele>
        <time>2016-07-24T02:53:58Z</time>
      </trkpt>
      <trkpt lat="44.98949" lon="15.07137">
        <ele>515</ele>
        <time>2016-07-24T02:55:58Z</time>
      </trkpt>
      <trkpt lat="44.98961" lon="15.0715">
        <ele>515</ele>
        <time>2016-07-24T02:57:58Z</time>
      </trkpt>
      <trkpt lat="44.98986" lon="15.07176">
        <ele>515</ele>
        <time>2016-07-24T02:59:58Z</time>
      </trkpt>
      <trkpt lat="44.99009" lon="15.07204">
        <ele>516</ele>
        <time>2016-07-24T03:01:58Z</time>
      </trkpt>
      <trkpt lat="44.99021" lon="15.07216">
        <ele>518</ele>
        <time>2016-07-24T03:03:58Z</time>
      </trkpt>
      <trkpt lat="44.99034" lon="15.07227">
        <ele>519</ele>
        <time>2016-07-24T03:05:58Z</time>
      </trkpt>
      <trkpt lat="44.99048" lon="15.07236">
        <ele>520</ele>
        <time>2016-07-24T03:07:58Z</time>
      </trkpt>
      <trkpt lat="44.99091" lon="15.07261">
        <ele>523</ele>
        <time>2016-07-24T03:09:58Z</time>
      </trkpt>
      <trkpt lat="44.99106" lon="15.07269">
        <ele>525</ele>
        <time>2016-07-24T03:11:58Z</time>
      </trkpt>
      <trkpt lat="44.99121" lon="15.07275">
        <ele>527</ele>
        <time>2016-07-24T03:13:58Z</time>
      </trkpt>
      <trkpt lat="44.99135" lon="15.07278">
        <ele>528</ele>
        <time>2016-07-24T03:15:58Z</time>
      </trkpt>
      <trkpt lat="44.99166" lon="15.07278">
        <ele>530</ele>
        <time>2016-07-24T03:17:58Z</time>
      </trkpt>
      <trkpt lat="44.99181" lon="15.0728">
        <ele>531</ele>
        <time>2016-07-24T03:19:58Z</time>
      </trkpt>
      <trkpt lat="44.99196" lon="15.07283">
        <ele>531</ele>
        <time>2016-07-24T03:21:58Z</time>
      </trkpt>
      <trkpt lat="44.99212" lon="15.07288">
        <ele>532</ele>
        <time>2016-07-24T03:23:58Z</time>
      </trkpt>
      <trkpt lat="44.99226" lon="15.07296">
        <ele>532</ele>
        <time>2016-07-24T03:25:58Z</time>
      </trkpt>
      <trkpt lat="44.99239" lon="15.07306">
        <ele>532</ele>
        <time>2016-07-24T03:27:58Z</time>
      </trkpt>
      <trkpt lat="44.99252" lon="15.07316">
        <ele>532</ele>
        <time>2016-07-24T03:29:58Z</time>
      </trkpt>
      <trkpt lat="44.99264" lon="15.07327">
        <ele>532</ele>
        <time>2016-07-24T03:31:58Z</time>
      </trkpt>
      <trkpt lat="44.99275" lon="15.07339">
        <ele>532</ele>
        <time>2016-07-24T03:33:58Z</time>
      </trkpt>
      <trkpt lat="44.99288" lon="15.07349">
        <ele>533</ele>
        <time>2016-07-24T03:35:58Z</time>
      </trkpt>
      <trkpt lat="44.99302" lon="15.07357">
        <ele>534</ele>
        <time>2016-07-24T03:37:58Z</time>
      </trkpt>
      <trkpt lat="44.99343" lon="15.07379">
        <ele>534</ele>
        <time>2016-07-24T03:39:58Z</time>
      </trkpt>
      <trkpt lat="44.99356" lon="15.07387">
        <ele>534</ele>
        <time>2016-07-24T03:41:58Z</time>
      </trkpt>
      <trkpt lat="44.99367" lon="15.07396">
        <ele>533</ele>
        <time>2016-07-24T03:43:58Z</time>
      </trkpt>
      <trkpt lat="44.99377" lon="15.07407">
        <ele>533</ele>
        <time>2016-07-24T03:45:58Z</time>
      </trkpt>
      <trkpt lat="44.99385" lon="15.07421">
        <ele>533</ele>
        <time>2016-07-24T03:47:58Z</time>
      </trkpt>
      <trkpt lat="44.9939" lon="15.07437">
        <ele>532</ele>
        <time>2016-07-24T03:49:58Z</time>
      </trkpt>
      <trkpt lat="44.99392" lon="15.07454">
        <ele>532</ele>
        <time>2016-07-24T03:51:58Z</time>
      </trkpt>
      <trkpt lat="44.99392" lon="15.07466">
        <ele>532</ele>
        <time>2016-07-24T03:53:58Z</time>
      </trkpt>
      <trkpt lat="44.99391" lon="15.0747">
        <ele>532</ele>
        <time>2016-07-24T03:55:58Z</time>
      </trkpt>
      <trkpt lat="44.99387" lon="15.07485">
        <ele>532</ele>
        <time>2016-07-24T03:57:58Z</time>
      </trkpt>
      <trkpt lat="44.99381" lon="15.07501">
        <ele>534</ele>
        <time>2016-07-24T03:59:58Z</time>
      </trkpt>
      <trkpt lat="44.99373" lon="15.07514">
        <ele>536</ele>
        <time>2016-07-24T04:01:58Z</time>
      </trkpt>
      <trkpt lat="44.99366" lon="15.07527">
        <ele>538</ele>
        <time>2016-07-24T04:03:58Z</time>
      </trkpt>
      <trkpt lat="44.99351" lon="15.0755">
        <ele>542</ele>
        <time>2016-07-24T04:05:58Z</time>
      </trkpt>
      <trkpt lat="44.99346" lon="15.07561">
        <ele>544</ele>
        <time>2016-07-24T04:07:58Z</time>
      </trkpt>
      <trkpt lat="44.99342" lon="15.07575">
        <ele>545</ele>
        <time>2016-07-24T04:09:58Z</time>
      </trkpt>
      <trkpt lat="44.99341" lon="15.0758">
        <ele>546</ele>
        <time>2016-07-24T04:11:58Z</time>
      </trkpt>
      <trkpt lat="44.9934" lon="15.07588">
        <ele>546</ele>
        <time>2016-07-24T04:13:58Z</time>
      </trkpt>
      <trkpt lat="44.99341" lon="15.07604">
        <ele>545</ele>
        <time>2016-07-24T04:15:58Z</time>
      </trkpt>
      <trkpt lat="44.99348" lon="15.07638">
        <ele>543</ele>
        <time>2016-07-24T04:17:58Z</time>
      </trkpt>
      <trkpt lat="44.99352" lon="15.07657">
        <ele>542</ele>
        <time>2016-07-24T04:19:58Z</time>
      </trkpt>
      <trkpt lat="44.99355" lon="15.07675">
        <ele>541</ele>
        <time>2016-07-24T04:21:58Z</time>
      </trkpt>
      <trkpt lat="44.99359" lon="15.07693">
        <ele>539</ele>
        <time>2016-07-24T04:23:58Z</time>
      </trkpt>
      <trkpt lat="44.99362" lon="15.07711">
        <ele>538</ele>
        <time>2016-07-24T04:25:58Z</time>
      </trkpt>
      <trkpt lat="44.99364" lon="15.07728">
        <ele>536</ele>
        <time>2016-07-24T04:27:58Z</time>
      </trkpt>
      <trkpt lat="44.99367" lon="15.07746">
        <ele>535</ele>
        <time>2016-07-24T04:29:58Z</time>
      </trkpt>
      <trkpt lat="44.99369" lon="15.07763">
        <ele>534</ele>
        <time>2016-07-24T04:31:58Z</time>
      </trkpt>
      <trkpt lat="44.99369" lon="15.07782">
        <ele>534</ele>
        <time>2016-07-24T04:33:58Z</time>
      </trkpt>
      <trkpt lat="44.99369" lon="15.07802">
        <ele>533</ele>
        <time>2016-07-24T04:35:58Z</time>
      </trkpt>
      <trkpt lat="44.99367" lon="15.07821">
        <ele>533</ele>
        <time>2016-07-24T04:37:58Z</time>
      </trkpt>
      <trkpt lat="44.99367" lon="15.07841">
        <ele>533</ele>
        <time>2016-07-24T04:39:58Z</time>
      </trkpt>
      <trkpt lat="44.99369" lon="15.0786">
        <ele>534</ele>
        <time>2016-07-24T04:41:58Z</time>
      </trkpt>
      <trkpt lat="44.99373" lon="15.07879">
        <ele>534</ele>
        <time>2016-07-24T04:43:58Z</time>
      </trkpt>
      <trkpt lat="44.99381" lon="15.07897">
        <ele>534</ele>
        <time>2016-07-24T04:45:58Z</time>
      </trkpt>
      <trkpt lat="44.99398" lon="15.07934">
        <ele>532</ele>
        <time>2016-07-24T04:47:58Z</time>
      </trkpt>
      <trkpt lat="44.99407" lon="15.07953">
        <ele>531</ele>
        <time>2016-07-24T04:49:58Z</time>
      </trkpt>
      <trkpt lat="44.99414" lon="15.07972">
        <ele>530</ele>
        <time>2016-07-24T04:51:58Z</time>
      </trkpt>
      <trkpt lat="44.99414" lon="15.07973">
        <ele>530</ele>
        <time>2016-07-24T04:53:58Z</time>
      </trkpt>
      <trkpt lat="44.99418" lon="15.07992">
        <ele>529</ele>
        <time>2016-07-24T04:55:58Z</time>
      </trkpt>
      <trkpt lat="44.99421" lon="15.08011">
        <ele>530</ele>
        <time>2016-07-24T04:57:58Z</time>
      </trkpt>
      <trkpt lat="44.99422" lon="15.08029">
        <ele>530</ele>
        <time>2016-07-24T04:59:58Z</time>
      </trkpt>
      <trkpt lat="44.99422" lon="15.08047">
        <ele>529</ele>
        <time>2016-07-24T05:01:58Z</time>
      </trkpt>
      <trkpt lat="44.9942" lon="15.08081">
        <ele>529</ele>
        <time>2016-07-24T05:03:58Z</time>
      </trkpt>
      <trkpt lat="44.9941" lon="15.08154">
        <ele>527</ele>
        <time>2016-07-24T05:05:58Z</time>
      </trkpt>
      <trkpt lat="44.99408" lon="15.08174">
        <ele>527</ele>
        <time>2016-07-24T05:07:58Z</time>
      </trkpt>
      <trkpt lat="44.99405" lon="15.08194">
        <ele>527</ele>
        <time>2016-07-24T05:09:58Z</time>
      </trkpt>
      <trkpt lat="44.99402" lon="15.08215">
        <ele>526</ele>
        <time>2016-07-24T05:11:58Z</time>
      </trkpt>
      <trkpt lat="44.99401" lon="15.08236">
        <ele>525</ele>
        <time>2016-07-24T05:13:58Z</time>
      </trkpt>
      <trkpt lat="44.99394" lon="15.08277">
        <ele>524</ele>
        <time>2016-07-24T05:15:58Z</time>
      </trkpt>
      <trkpt lat="44.99389" lon="15.08296">
        <ele>523</ele>
        <time>2016-07-24T05:17:58Z</time>
      </trkpt>
      <trkpt lat="44.99378" lon="15.08334">
        <ele>521</ele>
        <time>2016-07-24T05:19:58Z</time>
      </trkpt>
      <trkpt lat="44.99365" lon="15.0837">
        <ele>519</ele>
        <time>2016-07-24T05:21:58Z</time>
      </trkpt>
      <trkpt lat="44.99359" lon="15.08388">
        <ele>519</ele>
        <time>2016-07-24T05:23:58Z</time>
      </trkpt>
      <trkpt lat="44.99354" lon="15.08407">
        <ele>518</ele>
        <time>2016-07-24T05:25:58Z</time>
      </trkpt>
      <trkpt lat="44.9935" lon="15.08426">
        <ele>517</ele>
        <time>2016-07-24T05:27:58Z</time>
      </trkpt>
      <trkpt lat="44.99348" lon="15.08446">
        <ele>516</ele>
        <time>2016-07-24T05:29:58Z</time>
      </trkpt>
      <trkpt lat="44.99346" lon="15.08466">
        <ele>516</ele>
        <time>2016-07-24T05:31:58Z</time>
      </trkpt>
      <trkpt lat="44.99345" lon="15.08485">
        <ele>515</ele>
        <time>2016-07-24T05:33:58Z</time>
      </trkpt>
      <trkpt lat="44.99345" lon="15.08527">
        <ele>515</ele>
        <time>2016-07-24T05:35:58Z</time>
      </trkpt>
      <trkpt lat="44.99344" lon="15.08548">
        <ele>515</ele>
        <time>2016-07-24T05:37:58Z</time>
      </trkpt>
      <trkpt lat="44.99341" lon="15.0857">
        <ele>515</ele>
        <time>2016-07-24T05:39:58Z</time>
      </trkpt>
      <trkpt lat="44.99333" lon="15.08614">
        <ele>514</ele>
        <time>2016-07-24T05:41:58Z</time>
      </trkpt>
      <trkpt lat="44.99318" lon="15.08679">
        <ele>515</ele>
        <time>2016-07-24T05:43:58Z</time>
      </trkpt>
      <trkpt lat="44.99307" lon="15.08721">
        <ele>514</ele>
        <time>2016-07-24T05:45:58Z</time>
      </trkpt>
      <trkpt lat="44.99299" lon="15.08764">
        <ele>512</ele>
        <time>2016-07-24T05:47:58Z</time>
      </trkpt>
      <trkpt lat="44.99292" lon="15.08829">
        <ele>512</ele>
        <time>2016-07-24T05:49:58Z</time>
      </trkpt>
      <trkpt lat="44.9929" lon="15.0885">
        <ele>511</ele>
        <time>2016-07-24T05:51:58Z</time>
      </trkpt>
      <trkpt lat="44.99285" lon="15.08891">
        <ele>508</ele>
        <time>2016-07-24T05:53:58Z</time>
      </trkpt>
      <trkpt lat="44.99279" lon="15.08931">
        <ele>505</ele>
        <time>2016-07-24T05:55:58Z</time>
      </trkpt>
      <trkpt lat="44.99274" lon="15.0895">
        <ele>503</ele>
        <time>2016-07-24T05:57:58Z</time>
      </trkpt>
      <trkpt lat="44.99264" lon="15.08988">
        <ele>500</ele>
        <time>2016-07-24T05:59:58Z</time>
      </trkpt>
      <trkpt lat="44.9926" lon="15.09005">
        <ele>498</ele>
        <time>2016-07-24T06:01:58Z</time>
      </trkpt>
      <trkpt lat="44.99257" lon="15.09024">
        <ele>497</ele>
        <time>2016-07-24T06:03:58Z</time>
      </trkpt>
      <trkpt lat="44.99254" lon="15.09043">
        <ele>495</ele>
        <time>2016-07-24T06:05:58Z</time>
      </trkpt>
      <trkpt lat="44.99254" lon="15.09061">
        <ele>495</ele>
        <time>2016-07-24T06:07:58Z</time>
      </trkpt>
      <trkpt lat="44.99254" lon="15.0908">
        <ele>494</ele>
        <time>2016-07-24T06:09:58Z</time>
      </trkpt>
      <trkpt lat="44.99257" lon="15.09099">
        <ele>493</ele>
        <time>2016-07-24T06:11:58Z</time>
      </trkpt>
      <trkpt lat="44.99264" lon="15.09138">
        <ele>492</ele>
        <time>2016-07-24T06:13:58Z</time>
      </trkpt>
      <trkpt lat="44.99269" lon="15.09159">
        <ele>492</ele>
        <time>2016-07-24T06:15:58Z</time>
      </trkpt>
      <trkpt lat="44.99274" lon="15.0918">
        <ele>492</ele>
        <time>2016-07-24T06:17:58Z</time>
      </trkpt>
      <trkpt lat="44.99287" lon="15.09224">
        <ele>491</ele>
        <time>2016-07-24T06:19:58Z</time>
      </trkpt>
      <trkpt lat="44.99306" lon="15.09266">
        <ele>491</ele>
        <time>2016-07-24T06:21:58Z</time>
      </trkpt>
      <trkpt lat="44.99318" lon="15.09287">
        <ele>490</ele>
        <time>2016-07-24T06:23:58Z</time>
      </trkpt>
      <trkpt lat="44.99338" lon="15.0933">
        <ele>485</ele>
        <time>2016-07-24T06:25:58Z</time>
      </trkpt>
      <trkpt lat="44.99347" lon="15.09353">
        <ele>485</ele>
        <time>2016-07-24T06:27:58Z</time>
      </trkpt>
      <trkpt lat="44.99357" lon="15.09377">
        <ele>485</ele>
        <time>2016-07-24T06:29:58Z</time>
      </trkpt>
      <trkpt lat="44.99365" lon="15.094">
        <ele>485</ele>
        <time>2016-07-24T06:31:58Z</time>
      </trkpt>
      <trkpt lat="44.99371" lon="15.09424">
        <ele>485</ele>
        <time>2016-07-24T06:33:58Z</time>
      </trkpt>
      <trkpt lat="44.99377" lon="15.09449">
        <ele>484</ele>
        <time>2016-07-24T06:35:58Z</time>
      </trkpt>
      <trkpt lat="44.99381" lon="15.09474">
        <ele>483</ele>
        <time>2016-07-24T06:37:58Z</time>
      </trkpt>
      <trkpt lat="44.99391" lon="15.09553">
        <ele>482</ele>
        <time>2016-07-24T06:39:58Z</time>
      </trkpt>
      <trkpt lat="44.99394" lon="15.09578">
        <ele>482</ele>
        <time>2016-07-24T06:41:58Z</time>
      </trkpt>
      <trkpt lat="44.99401" lon="15.09655">
        <ele>481</ele>
        <time>2016-07-24T06:43:58Z</time>
      </trkpt>
      <trkpt lat="44.99403" lon="15.09682">
        <ele>481</ele>
        <time>2016-07-24T06:45:58Z</time>
      </trkpt>
      <trkpt lat="44.99405" lon="15.09707">
        <ele>479</ele>
        <time>2016-07-24T06:47:58Z</time>
      </trkpt>
      <trkpt lat="44.99407" lon="15.09733">
        <ele>478</ele>
        <time>2016-07-24T06:49:58Z</time>
      </trkpt>
      <trkpt lat="44.99412" lon="15.09808">
        <ele>475</ele>
        <time>2016-07-24T06:51:58Z</time>
      </trkpt>
      <trkpt lat="44.99415" lon="15.09833">
        <ele>475</ele>
        <time>2016-07-24T06:53:58Z</time>
      </trkpt>
      <trkpt lat="44.99416" lon="15.09857">
        <ele>474</ele>
        <time>2016-07-24T06:55:58Z</time>
      </trkpt>
      <trkpt lat="44.99421" lon="15.09906">
        <ele>471</ele>
        <time>2016-07-24T06:57:58Z</time>
      </trkpt>
      <trkpt lat="44.99423" lon="15.0993">
        <ele>470</ele>
        <time>2016-07-24T06:59:58Z</time>
      </trkpt>
      <trkpt lat="44.99425" lon="15.09952">
        <ele>469</ele>
        <time>2016-07-24T07:01:58Z</time>
      </trkpt>
      <trkpt lat="44.99428" lon="15.09995">
        <ele>467</ele>
        <time>2016-07-24T07:03:58Z</time>
      </trkpt>
      <trkpt lat="44.99428" lon="15.10015">
        <ele>466</ele>
        <time>2016-07-24T07:05:58Z</time>
      </trkpt>
      <trkpt lat="44.99428" lon="15.10035">
        <ele>465</ele>
        <time>2016-07-24T07:07:58Z</time>
      </trkpt>
      <trkpt lat="44.99425" lon="15.10053">
        <ele>464</ele>
        <time>2016-07-24T07:09:58Z</time>
      </trkpt>
      <trkpt lat="44.99421" lon="15.10107">
        <ele>463</ele>
        <time>2016-07-24T07:11:58Z</time>
      </trkpt>
      <trkpt lat="44.9942" lon="15.10127">
        <ele>463</ele>
        <time>2016-07-24T07:13:58Z</time>
      </trkpt>
      <trkpt lat="44.99422" lon="15.10164">
        <ele>463</ele>
        <time>2016-07-24T07:15:58Z</time>
      </trkpt>
      <trkpt lat="44.99424" lon="15.10182">
        <ele>462</ele>
        <time>2016-07-24T07:17:58Z</time>
      </trkpt>
      <trkpt lat="44.99427" lon="15.102">
        <ele>462</ele>
        <time>2016-07-24T07:19:58Z</time>
      </trkpt>
      <trkpt lat="44.99432" lon="15.10217">
        <ele>461</ele>
        <time>2016-07-24T07:21:58Z</time>
      </trkpt>
      <trkpt lat="44.99438" lon="15.10232">
        <ele>460</ele>
        <time>2016-07-24T07:23:58Z</time>
      </trkpt>
      <trkpt lat="44.99444" lon="15.10247">
        <ele>460</ele>
        <time>2016-07-24T07:25:58Z</time>
      </trkpt>
      <trkpt lat="44.99453" lon="15.10262">
        <ele>460</ele>
        <time>2016-07-24T07:27:58Z</time>
      </trkpt>
      <trkpt lat="44.99461" lon="15.10277">
        <ele>460</ele>
        <time>2016-07-24T07:29:58Z</time>
      </trkpt>
      <trkpt lat="44.9947" lon="15.10293">
        <ele>460</ele>
        <time>2016-07-24T07:31:58Z</time>
      </trkpt>
      <trkpt lat="44.99477" lon="15.10311">
        <ele>459</ele>
        <time>2016-07-24T07:33:58Z</time>
      </trkpt>
      <trkpt lat="44.99481" lon="15.10329">
        <ele>458</ele>
        <time>2016-07-24T07:35:58Z</time>
      </trkpt>
      <trkpt lat="44.99484" lon="15.10348">
        <ele>458</ele>
        <time>2016-07-24T07:37:58Z</time>
      </trkpt>
      <trkpt lat="44.99484" lon="15.10368">
        <ele>457</ele>
        <time>2016-07-24T07:39:58Z</time>
      </trkpt>
      <trkpt lat="44.99483" lon="15.10388">
        <ele>457</ele>
        <time>2016-07-24T07:41:58Z</time>
      </trkpt>
      <trkpt lat="44.99476" lon="15.10432">
        <ele>456</ele>
        <time>2016-07-24T07:43:58Z</time>
      </trkpt>
      <trkpt lat="44.99474" lon="15.10454">
        <ele>456</ele>
        <time>2016-07-24T07:45:58Z</time>
      </trkpt>
      <trkpt lat="44.99473" lon="15.10459">
        <ele>456</ele>
        <time>2016-07-24T07:47:58Z</time>
      </trkpt>
      <trkpt lat="44.99471" lon="15.10476">
        <ele>456</ele>
        <time>2016-07-24T07:49:58Z</time>
      </trkpt>
      <trkpt lat="44.99468" lon="15.10495">
        <ele>456</ele>
        <time>2016-07-24T07:51:58Z</time>
      </trkpt>
      <trkpt lat="44.99467" lon="15.10499">
        <ele>456</ele>
        <time>2016-07-24T07:53:58Z</time>
      </trkpt>
      <trkpt lat="44.99463" lon="15.10523">
        <ele>457</ele>
        <time>2016-07-24T07:55:58Z</time>
      </trkpt>
      <trkpt lat="44.99461" lon="15.10539">
        <ele>457</ele>
        <time>2016-07-24T07:57:58Z</time>
      </trkpt>
      <trkpt lat="44.99457" lon="15.10574">
        <ele>457</ele>
        <time>2016-07-24T07:59:58Z</time>
      </trkpt>
      <trkpt lat="44.99453" lon="15.10601">
        <ele>457</ele>
        <time>2016-07-24T08:01:58Z</time>
      </trkpt>
      <trkpt lat="44.99449" lon="15.10627">
        <ele>458</ele>
        <time>2016-07-24T08:03:58Z</time>
      </trkpt>
      <trkpt lat="44.99443" lon="15.10678">
        <ele>459</ele>
        <time>2016-07-24T08:05:58Z</time>
      </trkpt>
      <trkpt lat="44.99439" lon="15.10702">
        <ele>459</ele>
        <time>2016-07-24T08:07:58Z</time>
      </trkpt>
      <trkpt lat="44.99429" lon="15.10774">
        <ele>461</ele>
        <time>2016-07-24T08:09:58Z</time>
      </trkpt>
      <trkpt lat="44.99425" lon="15.10797">
        <ele>461</ele>
        <time>2016-07-24T08:11:58Z</time>
      </trkpt>
      <trkpt lat="44.99422" lon="15.1082">
        <ele>462</ele>
        <time>2016-07-24T08:13:58Z</time>
      </trkpt>
      <trkpt lat="44.99413" lon="15.10888">
        <ele>461</ele>
        <time>2016-07-24T08:15:58Z</time>
      </trkpt>
      <trkpt lat="44.99411" lon="15.10911">
        <ele>460</ele>
        <time>2016-07-24T08:17:58Z</time>
      </trkpt>
      <trkpt lat="44.99404" lon="15.10961">
        <ele>460</ele>
        <time>2016-07-24T08:19:58Z</time>
      </trkpt>
      <trkpt lat="44.99402" lon="15.10987">
        <ele>461</ele>
        <time>2016-07-24T08:21:58Z</time>
      </trkpt>
      <trkpt lat="44.99399" lon="15.11015">
        <ele>461</ele>
        <time>2016-07-24T08:23:58Z</time>
      </trkpt>
      <trkpt lat="44.99392" lon="15.1107">
        <ele>460</ele>
        <time>2016-07-24T08:25:58Z</time>
      </trkpt>
      <trkpt lat="44.9939" lon="15.11098">
        <ele>460</ele>
        <time>2016-07-24T08:27:58Z</time>
      </trkpt>
      <trkpt lat="44.99387" lon="15.11126">
        <ele>460</ele>
        <time>2016-07-24T08:29:58Z</time>
      </trkpt>
      <trkpt lat="44.9938" lon="15.11191">
        <ele>460</ele>
        <time>2016-07-24T08:31:58Z</time>
      </trkpt>
      <trkpt lat="44.99374" lon="15.11243">
        <ele>460</ele>
        <time>2016-07-24T08:33:58Z</time>
      </trkpt>
      <trkpt lat="44.99371" lon="15.11273">
        <ele>460</ele>
        <time>2016-07-24T08:35:58Z</time>
      </trkpt>
      <trkpt lat="44.99365" lon="15.11332">
        <ele>460</ele>
        <time>2016-07-24T08:37:58Z</time>
      </trkpt>
      <trkpt lat="44.99355" lon="15.11415">
        <ele>460</ele>
        <time>2016-07-24T08:39:58Z</time>
      </trkpt>
      <trkpt lat="44.99352" lon="15.11442">
        <ele>460</ele>
        <time>2016-07-24T08:41:58Z</time>
      </trkpt>
      <trkpt lat="44.99347" lon="15.11492">
        <ele>461</ele>
        <time>2016-07-24T08:43:58Z</time>
      </trkpt>
      <trkpt lat="44.99346" lon="15.11497">
        <ele>461</ele>
        <time>2016-07-24T08:45:58Z</time>
      </trkpt>
      <trkpt lat="44.99343" lon="15.11523">
        <ele>461</ele>
        <time>2016-07-24T08:47:58Z</time>
      </trkpt>
      <trkpt lat="44.99339" lon="15.11571">
        <ele>461</ele>
        <time>2016-07-24T08:49:58Z</time>
      </trkpt>
      <trkpt lat="44.99338" lon="15.11594">
        <ele>461</ele>
        <time>2016-07-24T08:51:58Z</time>
      </trkpt>
      <trkpt lat="44.9934" lon="15.11617">
        <ele>462</ele>
        <time>2016-07-24T08:53:58Z</time>
      </trkpt>
      <trkpt lat="44.99341" lon="15.11619">
        <ele>462</ele>
        <time>2016-07-24T08:55:58Z</time>
      </trkpt>
      <trkpt lat="44.99344" lon="15.11639">
        <ele>462</ele>
        <time>2016-07-24T08:57:58Z</time>
      </trkpt>
      <trkpt lat="44.99349" lon="15.11655">
        <ele>463</ele>
        <time>2016-07-24T08:59:58Z</time>
      </trkpt>
      <trkpt lat="44.99351" lon="15.1166">
        <ele>463</ele>
        <time>2016-07-24T09:01:58Z</time>
      </trkpt>
      <trkpt lat="44.99361" lon="15.1168">
        <ele>463</ele>
        <time>2016-07-24T09:03:58Z</time>
      </trkpt>
      <trkpt lat="44.99371" lon="15.11697">
        <ele>463</ele>
        <time>2016-07-24T09:05:58Z</time>
      </trkpt>
      <trkpt lat="44.99407" lon="15.11747">
        <ele>462</ele>
        <time>2016-07-24T09:07:58Z</time>
      </trkpt>
      <trkpt lat="44.99424" lon="15.11772">
        <ele>462</ele>
        <time>2016-07-24T09:09:58Z</time>
      </trkpt>
      <trkpt lat="44.99464" lon="15.11831">
        <ele>462</ele>
        <time>2016-07-24T09:11:58Z</time>
      </trkpt>
      <trkpt lat="44.99476" lon="15.11847">
        <ele>462</ele>
        <time>2016-07-24T09:13:58Z</time>
      </trkpt>
      <trkpt lat="44.99501" lon="15.11879">
        <ele>463</ele>
        <time>2016-07-24T09:15:58Z</time>
      </trkpt>
      <trkpt lat="44.99535" lon="15.11929">
        <ele>465</ele>
        <time>2016-07-24T09:17:58Z</time>
      </trkpt>
      <trkpt lat="44.99547" lon="15.11947">
        <ele>465</ele>
        <time>2016-07-24T09:19:58Z</time>
      </trkpt>
      <trkpt lat="44.99566" lon="15.11984">
        <ele>466</ele>
        <time>2016-07-24T09:21:58Z</time>
      </trkpt>
      <trkpt lat="44.99583" lon="15.12021">
        <ele>467</ele>
        <time>2016-07-24T09:23:58Z</time>
      </trkpt>
      <trkpt lat="44.996" lon="15.12057">
        <ele>467</ele>
        <time>2016-07-24T09:25:58Z</time>
      </trkpt>
      <trkpt lat="44.99606" lon="15.12075">
        <ele>467</ele>
        <time>2016-07-24T09:27:58Z</time>
      </trkpt>
      <trkpt lat="44.99612" lon="15.12091">
        <ele>467</ele>
        <time>2016-07-24T09:29:58Z</time>
      </trkpt>
      <trkpt lat="44.99615" lon="15.12108">
        <ele>467</ele>
        <time>2016-07-24T09:31:58Z</time>
      </trkpt>
      <trkpt lat="44.99624" lon="15.12138">
        <ele>467</ele>
        <time>2016-07-24T09:33:58Z</time>
      </trkpt>
      <trkpt lat="44.99628" lon="15.12152">
        <ele>467</ele>
        <time>2016-07-24T09:35:58Z</time>
      </trkpt>
      <trkpt lat="44.99633" lon="15.12164">
        <ele>467</ele>
        <time>2016-07-24T09:37:58Z</time>
      </trkpt>
      <trkpt lat="44.99639" lon="15.12174">
        <ele>467</ele>
        <time>2016-07-24T09:39:58Z</time>
      </trkpt>
      <trkpt lat="44.99668" lon="15.12218">
        <ele>468</ele>
        <time>2016-07-24T09:41:58Z</time>
      </trkpt>
      <trkpt lat="44.99683" lon="15.1224">
        <ele>469</ele>
        <time>2016-07-24T09:43:58Z</time>
      </trkpt>
      <trkpt lat="44.9969" lon="15.12251">
        <ele>469</ele>
        <time>2016-07-24T09:45:58Z</time>
      </trkpt>
      <trkpt lat="44.9972" lon="15.12297">
        <ele>470</ele>
        <time>2016-07-24T09:47:58Z</time>
      </trkpt>
      <trkpt lat="44.99729" lon="15.12308">
        <ele>470</ele>
        <time>2016-07-24T09:49:58Z</time>
      </trkpt>
      <trkpt lat="44.99737" lon="15.12319">
        <ele>470</ele>
        <time>2016-07-24T09:51:58Z</time>
      </trkpt>
      <trkpt lat="44.99746" lon="15.1233">
        <ele>471</ele>
        <time>2016-07-24T09:53:58Z</time>
      </trkpt>
      <trkpt lat="44.99746" lon="15.12331">
        <ele>471</ele>
        <time>2016-07-24T09:55:58Z</time>
      </trkpt>
      <trkpt lat="44.99754" lon="15.12343">
        <ele>471</ele>
        <time>2016-07-24T09:57:58Z</time>
      </trkpt>
      <trkpt lat="44.99759" lon="15.12357">
        <ele>471</ele>
        <time>2016-07-24T09:59:58Z</time>
      </trkpt>
      <trkpt lat="44.99763" lon="15.12373">
        <ele>471</ele>
        <time>2016-07-24T10:01:58Z</time>
      </trkpt>
      <trkpt lat="44.99768" lon="15.12407">
        <ele>472</ele>
        <time>2016-07-24T10:03:58Z</time>
      </trkpt>
      <trkpt lat="44.99769" lon="15.12424">
        <ele>472</ele>
        <time>2016-07-24T10:05:58Z</time>
      </trkpt>
      <trkpt lat="44.99769" lon="15.1246">
        <ele>473</ele>
        <time>2016-07-24T10:07:58Z</time>
      </trkpt>
      <trkpt lat="44.99768" lon="15.12477">
        <ele>473</ele>
        <time>2016-07-24T10:09:58Z</time>
      </trkpt>
      <trkpt lat="44.99768" lon="15.12493">
        <ele>473</ele>
        <time>2016-07-24T10:11:58Z</time>
      </trkpt>
      <trkpt lat="44.99768" lon="15.1251">
        <ele>473</ele>
        <time>2016-07-24T10:13:58Z</time>
      </trkpt>
      <trkpt lat="44.9977" lon="15.12527">
        <ele>473</ele>
        <time>2016-07-24T10:15:58Z</time>
      </trkpt>
      <trkpt lat="44.99774" lon="15.12543">
        <ele>472</ele>
        <time>2016-07-24T10:17:58Z</time>
      </trkpt>
      <trkpt lat="44.99778" lon="15.12558">
        <ele>472</ele>
        <time>2016-07-24T10:19:58Z</time>
      </trkpt>
      <trkpt lat="44.99783" lon="15.12573">
        <ele>472</ele>
        <time>2016-07-24T10:21:58Z</time>
      </trkpt>
      <trkpt lat="44.99789" lon="15.12587">
        <ele>472</ele>
        <time>2016-07-24T10:23:58Z</time>
      </trkpt>
      <trkpt lat="44.99795" lon="15.12603">
        <ele>472</ele>
        <time>2016-07-24T10:25:58Z</time>
      </trkpt>
      <trkpt lat="44.99806" lon="15.12635">
        <ele>472</ele>
        <time>2016-07-24T10:27:58Z</time>
      </trkpt>
      <trkpt lat="44.99811" lon="15.1265">
        <ele>472</ele>
        <time>2016-07-24T10:29:58Z</time>
      </trkpt>
      <trkpt lat="44.99815" lon="15.12666">
        <ele>472</ele>
        <time>2016-07-24T10:31:58Z</time>
      </trkpt>
      <trkpt lat="44.99825" lon="15.12713">
        <ele>471</ele>
        <time>2016-07-24T10:33:58Z</time>
      </trkpt>
      <trkpt lat="44.99828" lon="15.12728">
        <ele>471</ele>
        <time>2016-07-24T10:35:58Z</time>
      </trkpt>
      <trkpt lat="44.99831" lon="15.12743">
        <ele>471</ele>
        <time>2016-07-24T10:37:58Z</time>
      </trkpt>
      <trkpt lat="44.99837" lon="15.12771">
        <ele>471</ele>
        <time>2016-07-24T10:39:58Z</time>
      </trkpt>
      <trkpt lat="44.99843" lon="15.128">
        <ele>471</ele>
        <time>2016-07-24T10:41:58Z</time>
      </trkpt>
      <trkpt lat="44.99846" lon="15.12816">
        <ele>470</ele>
        <time>2016-07-24T10:43:58Z</time>
      </trkpt>
      <trkpt lat="44.99855" lon="15.12865">
        <ele>470</ele>
        <time>2016-07-24T10:45:58Z</time>
      </trkpt>
      <trkpt lat="44.99861" lon="15.12915">
        <ele>470</ele>
        <time>2016-07-24T10:47:58Z</time>
      </trkpt>
      <trkpt lat="44.99867" lon="15.12959">
        <ele>469</ele>
        <time>2016-07-24T10:49:58Z</time>
      </trkpt>
      <trkpt lat="44.99871" lon="15.12973">
        <ele>469</ele>
        <time>2016-07-24T10:51:58Z</time>
      </trkpt>
      <trkpt lat="44.99875" lon="15.12985">
        <ele>469</ele>
        <time>2016-07-24T10:53:58Z</time>
      </trkpt>
      <trkpt lat="44.99885" lon="15.13005">
        <ele>470</ele>
        <time>2016-07-24T10:55:58Z</time>
      </trkpt>
      <trkpt lat="44.99896" lon="15.13021">
        <ele>471</ele>
        <time>2016-07-24T10:57:58Z</time>
      </trkpt>
      <trkpt lat="44.99905" lon="15.13033">
        <ele>471</ele>
        <time>2016-07-24T10:59:58Z</time>
      </trkpt>
      <trkpt lat="44.99927" lon="15.13056">
        <ele>471</ele>
        <time>2016-07-24T11:01:58Z</time>
      </trkpt>
      <trkpt lat="44.99945" lon="15.13074">
        <ele>470</ele>
        <time>2016-07-24T11:03:58Z</time>
      </trkpt>
      <trkpt lat="44.99949" lon="15.13079">
        <ele>470</ele>
        <time>2016-07-24T11:05:58Z</time>
      </trkpt>
      <trkpt lat="44.99964" lon="15.13094">
        <ele>469</ele>
        <time>2016-07-24T11:07:58Z</time>
      </trkpt>
      <trkpt lat="44.99972" lon="15.13104">
        <ele>469</ele>
        <time>2016-07-24T11:09:58Z</time>
      </trkpt>
      <trkpt lat="44.99979" lon="15.13115">
        <ele>469</ele>
        <time>2016-07-24T11:11:58Z</time>
      </trkpt>
      <trkpt lat="44.99984" lon="15.13129">
        <ele>469</ele>
        <time>2016-07-24T11:13:58Z</time>
      </trkpt>
      <trkpt lat="44.99988" lon="15.13142">
        <ele>469</ele>
        <time>2016-07-24T11:15:58Z</time>
      </trkpt>
      <trkpt lat="44.99988" lon="15.13164">
        <ele>470</ele>
        <time>2016-07-24T11:17:58Z</time>
      </trkpt>
      <trkpt lat="44.99989" lon="15.13202">
        <ele>470</ele>
        <time>2016-07-24T11:19:58Z</time>
      </trkpt>
      <trkpt lat="44.9999" lon="15.13222">
        <ele>471</ele>
        <time>2016-07-24T11:21:58Z</time>
      </trkpt>
      <trkpt lat="44.99991" lon="15.13242">
        <ele>471</ele>
        <time>2016-07-24T11:23:58Z</time>
      </trkpt>
      <trkpt lat="44.99995" lon="15.13262">
        <ele>472</ele>
        <time>2016-07-24T11:25:58Z</time>
      </trkpt>
      <trkpt lat="44.99999" lon="15.13281">
        <ele>472</ele>
        <time>2016-07-24T11:27:58Z</time>
      </trkpt>
      <trkpt lat="45.00004" lon="15.13299">
        <ele>473</ele>
        <time>2016-07-24T11:29:58Z</time>
      </trkpt>
      <trkpt lat="45.0001" lon="15.13316">
        <ele>474</ele>
        <time>2016-07-24T11:31:58Z</time>
      </trkpt>
      <trkpt lat="45.00018" lon="15.13332">
        <ele>475</ele>
        <time>2016-07-24T11:33:58Z</time>
      </trkpt>
      <trkpt lat="45.0002" lon="15.13337">
        <ele>475</ele>
        <time>2016-07-24T11:35:58Z</time>
      </trkpt>
      <trkpt lat="45.0002" lon="15.13337">
        <ele>475</ele>
        <time>2016-07-24T11:37:58Z</time>
      </trkpt>
      <trkpt lat="45.00004" lon="15.13336">
        <ele>475</ele>
        <time>2016-07-24T11:39:58Z</time>
      </trkpt>
      <trkpt lat="44.99967" lon="15.13344">
        <ele>473</ele>
        <time>2016-07-24T11:41:58Z</time>
      </trkpt>
      <trkpt lat="44.9994" lon="15.13354">
        <ele>471</ele>
        <time>2016-07-24T11:43:58Z</time>
      </trkpt>
      <trkpt lat="44.99907" lon="15.13369">
        <ele>470</ele>
        <time>2016-07-24T11:45:58Z</time>
      </trkpt>
      <trkpt lat="44.99868" lon="15.1339">
        <ele>469</ele>
        <time>2016-07-24T11:47:58Z</time>
      </trkpt>
      <trkpt lat="44.99861" lon="15.13393">
        <ele>469</ele>
        <time>2016-07-24T11:49:58Z</time>
      </trkpt>
      <trkpt lat="44.99852" lon="15.13396">
        <ele>469</ele>
        <time>2016-07-24T11:51:58Z</time>
      </trkpt>
      <trkpt lat="44.99847" lon="15.13395">
        <ele>469</ele>
        <time>2016-07-24T11:53:58Z</time>
      </trkpt>
      <trkpt lat="44.99842" lon="15.13394">
        <ele>469</ele>
        <time>2016-07-24T11:55:58Z</time>
      </trkpt>
      <trkpt lat="44.99837" lon="15.13393">
        <ele>469</ele>
        <time>2016-07-24T11:57:58Z</time>
      </trkpt>
      <trkpt lat="44.99835" lon="15.13391">
        <ele>468</ele>
        <time>2016-07-24T11:59:58Z</time>
      </trkpt>
      <trkpt lat="44.9983" lon="15.13389">
        <ele>468</ele>
        <time>2016-07-24T12:01:58Z</time>
      </trkpt>
      <trkpt lat="44.99827" lon="15.13388">
        <ele>468</ele>
        <time>2016-07-24T12:03:58Z</time>
      </trkpt>
      <trkpt lat="44.99822" lon="15.13388">
        <ele>468</ele>
        <time>2016-07-24T12:05:58Z</time>
      </trkpt>
      <trkpt lat="44.99807" lon="15.13394">
        <ele>468</ele>
        <time>2016-07-24T12:07:58Z</time>
      </trkpt>
      <trkpt lat="44.99796" lon="15.134">
        <ele>468</ele>
        <time>2016-07-24T12:09:58Z</time>
      </trkpt>
      <trkpt lat="44.99778" lon="15.13414">
        <ele>469</ele>
        <time>2016-07-24T12:11:58Z</time>
      </trkpt>
      <trkpt lat="44.99745" lon="15.13427">
        <ele>469</ele>
        <time>2016-07-24T12:13:58Z</time>
      </trkpt>
      <trkpt lat="44.99729" lon="15.13433">
        <ele>469</ele>
        <time>2016-07-24T12:15:58Z</time>
      </trkpt>
      <trkpt lat="44.99724" lon="15.13434">
        <ele>469</ele>
        <time>2016-07-24T12:17:58Z</time>
      </trkpt>
      <trkpt lat="44.99712" lon="15.13438">
        <ele>469</ele>
        <time>2016-07-24T12:19:58Z</time>
      </trkpt>
      <trkpt lat="44.99701" lon="15.13445">
        <ele>468</ele>
        <time>2016-07-24T12:21:58Z</time>
      </trkpt>
      <trkpt lat="44.99692" lon="15.13453">
        <ele>468</ele>
        <time>2016-07-24T12:23:58Z</time>
      </trkpt>
      <trkpt lat="44.99684" lon="15.13462">
        <ele>468</ele>
        <time>2016-07-24T12:25:58Z</time>
      </trkpt>
      <trkpt lat="44.99674" lon="15.13471">
        <ele>468</ele>
        <time>2016-07-24T12:27:58Z</time>
      </trkpt>
      <trkpt lat="44.99665" lon="15.13485">
        <ele>467</ele>
        <time>2016-07-24T12:29:58Z</time>
      </trkpt>
      <trkpt lat="44.99651" lon="15.13515">
        <ele>466</ele>
        <time>2016-07-24T12:31:58Z</time>
      </trkpt>
      <trkpt lat="44.99644" lon="15.13543">
        <ele>465</ele>
        <time>2016-07-24T12:33:58Z</time>
      </trkpt>
      <trkpt lat="44.99641" lon="15.13556">
        <ele>465</ele>
        <time>2016-07-24T12:35:58Z</time>
      </trkpt>
      <trkpt lat="44.99638" lon="15.13565">
        <ele>464</ele>
        <time>2016-07-24T12:37:58Z</time>
      </trkpt>
      <trkpt lat="44.99629" lon="15.13591">
        <ele>464</ele>
        <time>2016-07-24T12:39:58Z</time>
      </trkpt>
      <trkpt lat="44.99623" lon="15.13608">
        <ele>464</ele>
        <time>2016-07-24T12:41:58Z</time>
      </trkpt>
      <trkpt lat="44.99615" lon="15.13629">
        <ele>465</ele>
        <time>2016-07-24T12:43:58Z</time>
      </trkpt>
      <trkpt lat="44.99607" lon="15.13659">
        <ele>465</ele>
        <time>2016-07-24T12:45:58Z</time>
      </trkpt>
      <trkpt lat="44.99596" lon="15.1369">
        <ele>466</ele>
        <time>2016-07-24T12:47:58Z</time>
      </trkpt>
      <trkpt lat="44.99588" lon="15.13716">
        <ele>467</ele>
        <time>2016-07-24T12:49:58Z</time>
      </trkpt>
      <trkpt lat="44.99585" lon="15.13724">
        <ele>468</ele>
        <time>2016-07-24T12:51:58Z</time>
      </trkpt>
      <trkpt lat="44.9957" lon="15.13755">
        <ele>471</ele>
        <time>2016-07-24T12:53:58Z</time>
      </trkpt>
      <trkpt lat="44.99543" lon="15.13826">
        <ele>470</ele>
        <time>2016-07-24T12:55:58Z</time>
      </trkpt>
      <trkpt lat="44.99526" lon="15.13894">
        <ele>469</ele>
        <time>2016-07-24T12:57:58Z</time>
      </trkpt>
      <trkpt lat="44.99518" lon="15.13926">
        <ele>469</ele>
        <time>2016-07-24T12:59:58Z</time>
      </trkpt>
      <trkpt lat="44.99508" lon="15.13973">
        <ele>470</ele>
        <time>2016-07-24T13:01:58Z</time>
      </trkpt>
      <trkpt lat="44.99503" lon="15.14011">
        <ele>470</ele>
        <time>2016-07-24T13:03:58Z</time>
      </trkpt>
      <trkpt lat="44.995" lon="15.14055">
        <ele>468</ele>
        <time>2016-07-24T13:05:58Z</time>
      </trkpt>
      <trkpt lat="44.99497" lon="15.14096">
        <ele>466</ele>
        <time>2016-07-24T13:07:58Z</time>
      </trkpt>
      <trkpt lat="44.99493" lon="15.14119">
        <ele>466</ele>
        <time>2016-07-24T13:09:58Z</time>
      </trkpt>
      <trkpt lat="44.9949" lon="15.14128">
        <ele>466</ele>
        <time>2016-07-24T13:11:58Z</time>
      </trkpt>
      <trkpt lat="44.9948" lon="15.14152">
        <ele>466</ele>
        <time>2016-07-24T13:13:58Z</time>
      </trkpt>
      <trkpt lat="44.99475" lon="15.14164">
        <ele>466</ele>
        <time>2016-07-24T13:15:58Z</time>
      </trkpt>
      <trkpt lat="44.99442" lon="15.14225">
        <ele>469</ele>
        <time>2016-07-24T13:17:58Z</time>
      </trkpt>
      <trkpt lat="44.99418" lon="15.14274">
        <ele>471</ele>
        <time>2016-07-24T13:19:58Z</time>
      </trkpt>
      <trkpt lat="44.99395" lon="15.14327">
        <ele>472</ele>
        <time>2016-07-24T13:21:58Z</time>
      </trkpt>
      <trkpt lat="44.99371" lon="15.14378">
        <ele>474</ele>
        <time>2016-07-24T13:23:58Z</time>
      </trkpt>
      <trkpt lat="44.99363" lon="15.14397">
        <ele>474</ele>
        <time>2016-07-24T13:25:58Z</time>
      </trkpt>
      <trkpt lat="44.99358" lon="15.1441">
        <ele>474</ele>
        <time>2016-07-24T13:27:58Z</time>
      </trkpt>
      <trkpt lat="44.99347" lon="15.14458">
        <ele>474</ele>
        <time>2016-07-24T13:29:58Z</time>
      </trkpt>
      <trkpt lat="44.99342" lon="15.14489">
        <ele>473</ele>
        <time>2016-07-24T13:31:58Z</time>
      </trkpt>
      <trkpt lat="44.9934" lon="15.14508">
        <ele>473</ele>
        <time>2016-07-24T13:33:58Z</time>
      </trkpt>
      <trkpt lat="44.99338" lon="15.1452">
        <ele>473</ele>
        <time>2016-07-24T13:35:58Z</time>
      </trkpt>
      <trkpt lat="44.99336" lon="15.1453">
        <ele>472</ele>
        <time>2016-07-24T13:37:58Z</time>
      </trkpt>
      <trkpt lat="44.99333" lon="15.14545">
        <ele>471</ele>
        <time>2016-07-24T13:39:58Z</time>
      </trkpt>
      <trkpt lat="44.99324" lon="15.14574">
        <ele>471</ele>
        <time>2016-07-24T13:41:58Z</time>
      </trkpt>
      <trkpt lat="44.99313" lon="15.14598">
        <ele>472</ele>
        <time>2016-07-24T13:43:58Z</time>
      </trkpt>
      <trkpt lat="44.99292" lon="15.14647">
        <ele>470</ele>
        <time>2016-07-24T13:45:58Z</time>
      </trkpt>
      <trkpt lat="44.99276" lon="15.14681">
        <ele>469</ele>
        <time>2016-07-24T13:47:58Z</time>
      </trkpt>
      <trkpt lat="44.99268" lon="15.14706">
        <ele>468</ele>
        <time>2016-07-24T13:49:58Z</time>
      </trkpt>
      <trkpt lat="44.99244" lon="15.14811">
        <ele>466</ele>
        <time>2016-07-24T13:51:58Z</time>
      </trkpt>
      <trkpt lat="44.99239" lon="15.14833">
        <ele>467</ele>
        <time>2016-07-24T13:53:58Z</time>
      </trkpt>
      <trkpt lat="44.99236" lon="15.14864">
        <ele>467</ele>
        <time>2016-07-24T13:55:58Z</time>
      </trkpt>
      <trkpt lat="44.99235" lon="15.14868">
        <ele>468</ele>
        <time>2016-07-24T13:57:58Z</time>
      </trkpt>
      <trkpt lat="44.99234" lon="15.14915">
        <ele>468</ele>
        <time>2016-07-24T13:59:58Z</time>
      </trkpt>
      <trkpt lat="44.99237" lon="15.14957">
        <ele>468</ele>
        <time>2016-07-24T14:01:58Z</time>
      </trkpt>
      <trkpt lat="44.9924" lon="15.14994">
        <ele>468</ele>
        <time>2016-07-24T14:03:58Z</time>
      </trkpt>
      <trkpt lat="44.99239" lon="15.15046">
        <ele>468</ele>
        <time>2016-07-24T14:05:58Z</time>
      </trkpt>
      <trkpt lat="44.99237" lon="15.1506">
        <ele>468</ele>
        <time>2016-07-24T14:07:58Z</time>
      </trkpt>
      <trkpt lat="44.9923" lon="15.15092">
        <ele>467</ele>
        <time>2016-07-24T14:09:58Z</time>
      </trkpt>
      <trkpt lat="44.99228" lon="15.15102">
        <ele>467</ele>
        <time>2016-07-24T14:11:58Z</time>
      </trkpt>
      <trkpt lat="44.99225" lon="15.15115">
        <ele>467</ele>
        <time>2016-07-24T14:13:58Z</time>
      </trkpt>
      <trkpt lat="44.99223" lon="15.15132">
        <ele>466</ele>
        <time>2016-07-24T14:15:58Z</time>
      </trkpt>
      <trkpt lat="44.99222" lon="15.15161">
        <ele>466</ele>
        <time>2016-07-24T14:17:58Z</time>
      </trkpt>
      <trkpt lat="44.99218" lon="15.15212">
        <ele>467</ele>
        <time>2016-07-24T14:19:58Z</time>
      </trkpt>
      <trkpt lat="44.99217" lon="15.15238">
        <ele>467</ele>
        <time>2016-07-24T14:21:58Z</time>
      </trkpt>
      <trkpt lat="44.99218" lon="15.15258">
        <ele>467</ele>
        <time>2016-07-24T14:23:58Z</time>
      </trkpt>
      <trkpt lat="44.99219" lon="15.153">
        <ele>468</ele>
        <time>2016-07-24T14:25:58Z</time>
      </trkpt>
      <trkpt lat="44.99221" lon="15.15318">
        <ele>468</ele>
        <time>2016-07-24T14:27:58Z</time>
      </trkpt>
      <trkpt lat="44.99222" lon="15.15327">
        <ele>468</ele>
        <time>2016-07-24T14:29:58Z</time>
      </trkpt>
      <trkpt lat="44.9922" lon="15.15391">
        <ele>468</ele>
        <time>2016-07-24T14:31:58Z</time>
      </trkpt>
      <trkpt lat="44.99219" lon="15.15457">
        <ele>468</ele>
        <time>2016-07-24T14:33:58Z</time>
      </trkpt>
      <trkpt lat="44.99218" lon="15.15517">
        <ele>468</ele>
        <time>2016-07-24T14:35:58Z</time>
      </trkpt>
      <trkpt lat="44.99216" lon="15.15551">
        <ele>469</ele>
        <time>2016-07-24T14:37:58Z</time>
      </trkpt>
      <trkpt lat="44.99216" lon="15.15592">
        <ele>470</ele>
        <time>2016-07-24T14:39:58Z</time>
      </trkpt>
      <trkpt lat="44.99213" lon="15.15618">
        <ele>471</ele>
        <time>2016-07-24T14:41:58Z</time>
      </trkpt>
      <trkpt lat="44.9921" lon="15.15633">
        <ele>471</ele>
        <time>2016-07-24T14:43:58Z</time>
      </trkpt>
      <trkpt lat="44.99209" lon="15.15638">
        <ele>472</ele>
        <time>2016-07-24T14:45:58Z</time>
      </trkpt>
      <trkpt lat="44.99206" lon="15.15646">
        <ele>472</ele>
        <time>2016-07-24T14:47:58Z</time>
      </trkpt>
      <trkpt lat="44.99194" lon="15.15667">
        <ele>473</ele>
        <time>2016-07-24T14:49:58Z</time>
      </trkpt>
      <trkpt lat="44.99189" lon="15.15682">
        <ele>473</ele>
        <time>2016-07-24T14:51:58Z</time>
      </trkpt>
      <trkpt lat="44.99186" lon="15.15694">
        <ele>474</ele>
        <time>2016-07-24T14:53:58Z</time>
      </trkpt>
      <trkpt lat="44.99185" lon="15.15709">
        <ele>474</ele>
        <time>2016-07-24T14:55:58Z</time>
      </trkpt>
      <trkpt lat="44.99182" lon="15.15734">
        <ele>475</ele>
        <time>2016-07-24T14:57:58Z</time>
      </trkpt>
      <trkpt lat="44.99179" lon="15.15755">
        <ele>475</ele>
        <time>2016-07-24T14:59:58Z</time>
      </trkpt>
      <trkpt lat="44.99163" lon="15.15798">
        <ele>474</ele>
        <time>2016-07-24T15:01:58Z</time>
      </trkpt>
      <trkpt lat="44.99147" lon="15.15833">
        <ele>473</ele>
        <time>2016-07-24T15:03:58Z</time>
      </trkpt>
      <trkpt lat="44.99139" lon="15.15857">
        <ele>471</ele>
        <time>2016-07-24T15:05:58Z</time>
      </trkpt>
      <trkpt lat="44.99135" lon="15.15904">
        <ele>469</ele>
        <time>2016-07-24T15:07:58Z</time>
      </trkpt>
      <trkpt lat="44.99132" lon="15.15931">
        <ele>469</ele>
        <time>2016-07-24T15:09:58Z</time>
      </trkpt>
      <trkpt lat="44.99126" lon="15.15966">
        <ele>469</ele>
        <time>2016-07-24T15:11:58Z</time>
      </trkpt>
      <trkpt lat="44.99123" lon="15.15988">
        <ele>469</ele>
        <time>2016-07-24T15:13:58Z</time>
      </trkpt>
      <trkpt lat="44.99118" lon="15.16017">
        <ele>469</ele>
        <time>2016-07-24T15:15:58Z</time>
      </trkpt>
      <trkpt lat="44.99115" lon="15.16038">
        <ele>469</ele>
        <time>2016-07-24T15:17:58Z</time>
      </trkpt>
      <trkpt lat="44.99109" lon="15.16066">
        <ele>469</ele>
        <time>2016-07-24T15:19:58Z</time>
      </trkpt>
      <trkpt lat="44.99104" lon="15.16086">
        <ele>469</ele>
        <time>2016-07-24T15:21:58Z</time>
      </trkpt>
      <trkpt lat="44.99097" lon="15.16114">
        <ele>469</ele>
        <time>2016-07-24T15:23:58Z</time>
      </trkpt>
      <trkpt lat="44.99092" lon="15.16132">
        <ele>470</ele>
        <time>2016-07-24T15:25:58Z</time>
      </trkpt>
      <trkpt lat="44.99087" lon="15.16159">
        <ele>470</ele>
        <time>2016-07-24T15:27:58Z</time>
      </trkpt>
      <trkpt lat="44.99085" lon="15.16176">
        <ele>470</ele>
        <time>2016-07-24T15:29:58Z</time>
      </trkpt>
      <trkpt lat="44.99082" lon="15.16209">
        <ele>470</ele>
        <time>2016-07-24T15:31:58Z</time>
      </trkpt>
      <trkpt lat="44.9908" lon="15.16225">
        <ele>470</ele>
        <time>2016-07-24T15:33:58Z</time>
      </trkpt>
      <trkpt lat="44.9908" lon="15.16227">
        <ele>470</ele>
        <time>2016-07-24T15:35:58Z</time>
      </trkpt>
      <trkpt lat="44.9908" lon="15.16271">
        <ele>470</ele>
        <time>2016-07-24T15:37:58Z</time>
      </trkpt>
      <trkpt lat="44.99081" lon="15.16291">
        <ele>470</ele>
        <time>2016-07-24T15:39:58Z</time>
      </trkpt>
      <trkpt lat="44.99083" lon="15.16308">
        <ele>469</ele>
        <time>2016-07-24T15:41:58Z</time>
      </trkpt>
      <trkpt lat="44.99092" lon="15.16331">
        <ele>469</ele>
        <time>2016-07-24T15:43:58Z</time>
      </trkpt>
      <trkpt lat="44.99098" lon="15.16342">
        <ele>470</ele>
        <time>2016-07-24T15:45:58Z</time>
      </trkpt>
      <trkpt lat="44.99101" lon="15.16347">
        <ele>470</ele>
        <time>2016-07-24T15:47:58Z</time>
      </trkpt>
      <trkpt lat="44.99102" lon="15.16353">
        <ele>470</ele>
        <time>2016-07-24T15:49:58Z</time>
      </trkpt>
      <trkpt lat="44.99103" lon="15.16362">
        <ele>471</ele>
        <time>2016-07-24T15:51:58Z</time>
      </trkpt>
      <trkpt lat="44.99103" lon="15.16364">
        <ele>471</ele>
        <time>2016-07-24T15:53:58Z</time>
      </trkpt>
      <trkpt lat="44.99102" lon="15.16372">
        <ele>471</ele>
        <time>2016-07-24T15:55:58Z</time>
      </trkpt>
      <trkpt lat="44.99098" lon="15.16388">
        <ele>472</ele>
        <time>2016-07-24T15:57:58Z</time>
      </trkpt>
      <trkpt lat="44.99091" lon="15.16408">
        <ele>473</ele>
        <time>2016-07-24T15:59:58Z</time>
      </trkpt>
      <trkpt lat="44.99077" lon="15.16443">
        <ele>473</ele>
        <time>2016-07-24T16:01:58Z</time>
      </trkpt>
      <trkpt lat="44.99068" lon="15.16466">
        <ele>474</ele>
        <time>2016-07-24T16:03:58Z</time>
      </trkpt>
      <trkpt lat="44.9905" lon="15.16515">
        <ele>474</ele>
        <time>2016-07-24T16:05:58Z</time>
      </trkpt>
      <trkpt lat="44.99033" lon="15.16555">
        <ele>475</ele>
        <time>2016-07-24T16:07:58Z</time>
      </trkpt>
      <trkpt lat="44.99025" lon="15.1658">
        <ele>475</ele>
        <time>2016-07-24T16:09:58Z</time>
      </trkpt>
      <trkpt lat="44.99022" lon="15.16593">
        <ele>475</ele>
        <time>2016-07-24T16:11:58Z</time>
      </trkpt>
      <trkpt lat="44.99021" lon="15.16605">
        <ele>476</ele>
        <time>2016-07-24T16:13:58Z</time>
      </trkpt>
      <trkpt lat="44.99021" lon="15.16621">
        <ele>477</ele>
        <time>2016-07-24T16:15:58Z</time>
      </trkpt>
      <trkpt lat="44.99021" lon="15.1664">
        <ele>478</ele>
        <time>2016-07-24T16:17:58Z</time>
      </trkpt>
      <trkpt lat="44.99019" lon="15.16659">
        <ele>479</ele>
        <time>2016-07-24T16:19:58Z</time>
      </trkpt>
      <trkpt lat="44.99015" lon="15.16673">
        <ele>479</ele>
        <time>2016-07-24T16:21:58Z</time>
      </trkpt>
      <trkpt lat="44.99011" lon="15.16689">
        <ele>480</ele>
        <time>2016-07-24T16:23:58Z</time>
      </trkpt>
      <trkpt lat="44.98993" lon="15.16749">
        <ele>481</ele>
        <time>2016-07-24T16:25:58Z</time>
      </trkpt>
      <trkpt lat="44.9898" lon="15.16797">
        <ele>483</ele>
        <time>2016-07-24T16:27:58Z</time>
      </trkpt>
      <trkpt lat="44.98977" lon="15.16809">
        <ele>483</ele>
        <time>2016-07-24T16:29:58Z</time>
      </trkpt>
      <trkpt lat="44.98976" lon="15.16818">
        <ele>484</ele>
        <time>2016-07-24T16:31:58Z</time>
      </trkpt>
      <trkpt lat="44.98976" lon="15.16818">
        <ele>484</ele>
        <time>2016-07-24T16:33:58Z</time>
      </trkpt>
      <trkpt lat="44.98976" lon="15.1682">
        <ele>484</ele>
        <time>2016-07-24T16:35:58Z</time>
      </trkpt>
      <trkpt lat="44.98975" lon="15.16835">
        <ele>484</ele>
        <time>2016-07-24T16:37:58Z</time>
      </trkpt>
      <trkpt lat="44.98976" lon="15.16861">
        <ele>486</ele>
        <time>2016-07-24T16:39:58Z</time>
      </trkpt>
      <trkpt lat="44.98977" lon="15.16897">
        <ele>489</ele>
        <time>2016-07-24T16:41:58Z</time>
      </trkpt>
      <trkpt lat="44.9898" lon="15.17055">
        <ele>497</ele>
        <time>2016-07-24T16:43:58Z</time>
      </trkpt>
      <trkpt lat="44.98979" lon="15.17102">
        <ele>500</ele>
        <time>2016-07-24T16:45:58Z</time>
      </trkpt>
      <trkpt lat="44.98978" lon="15.1713">
        <ele>501</ele>
        <time>2016-07-24T16:47:58Z</time>
      </trkpt>
      <trkpt lat="44.98978" lon="15.17149">
        <ele>503</ele>
        <time>2016-07-24T16:49:58Z</time>
      </trkpt>
      <trkpt lat="44.98979" lon="15.17167">
        <ele>504</ele>
        <time>2016-07-24T16:51:58Z</time>
      </trkpt>
      <trkpt lat="44.98983" lon="15.17187">
        <ele>505</ele>
        <time>2016-07-24T16:53:58Z</time>
      </trkpt>
      <trkpt lat="44.98992" lon="15.17231">
        <ele>506</ele>
        <time>2016-07-24T16:55:58Z</time>
      </trkpt>
      <trkpt lat="44.99002" lon="15.17268">
        <ele>509</ele>
        <time>2016-07-24T16:57:58Z</time>
      </trkpt>
      <trkpt lat="44.99009" lon="15.17308">
        <ele>515</ele>
        <time>2016-07-24T16:59:58Z</time>
      </trkpt>
      <trkpt lat="44.99012" lon="15.17329">
        <ele>518</ele>
        <time>2016-07-24T17:01:58Z</time>
      </trkpt>
      <trkpt lat="44.99012" lon="15.17343">
        <ele>520</ele>
        <time>2016-07-24T17:03:58Z</time>
      </trkpt>
      <trkpt lat="44.9901" lon="15.1736">
        <ele>521</ele>
        <time>2016-07-24T17:05:58Z</time>
      </trkpt>
      <trkpt lat="44.99004" lon="15.17378">
        <ele>521</ele>
        <time>2016-07-24T17:07:58Z</time>
      </trkpt>
      <trkpt lat="44.99001" lon="15.17389">
        <ele>521</ele>
        <time>2016-07-24T17:09:58Z</time>
      </trkpt>
      <trkpt lat="44.99" lon="15.17398">
        <ele>522</ele>
        <time>2016-07-24T17:11:58Z</time>
      </trkpt>
      <trkpt lat="44.98999" lon="15.17412">
        <ele>524</ele>
        <time>2016-07-24T17:13:58Z</time>
      </trkpt>
      <trkpt lat="44.98999" lon="15.17437">
        <ele>526</ele>
        <time>2016-07-24T17:15:58Z</time>
      </trkpt>
      <trkpt lat="44.99" lon="15.17466">
        <ele>529</ele>
        <time>2016-07-24T17:17:58Z</time>
      </trkpt>
      <trkpt lat="44.98997" lon="15.17484">
        <ele>531</ele>
        <time>2016-07-24T17:19:58Z</time>
      </trkpt>
      <trkpt lat="44.98993" lon="15.175">
        <ele>534</ele>
        <time>2016-07-24T17:21:58Z</time>
      </trkpt>
      <trkpt lat="44.9899" lon="15.17517">
        <ele>535</ele>
        <time>2016-07-24T17:23:58Z</time>
      </trkpt>
      <trkpt lat="44.98987" lon="15.17533">
        <ele>536</ele>
        <time>2016-07-24T17:25:58Z</time>
      </trkpt>
      <trkpt lat="44.98982" lon="15.17595">
        <ele>540</ele>
        <time>2016-07-24T17:27:58Z</time>
      </trkpt>
      <trkpt lat="44.98982" lon="15.17637">
        <ele>541</ele>
        <time>2016-07-24T17:29:58Z</time>
      </trkpt>
      <trkpt lat="44.98984" lon="15.17698">
        <ele>543</ele>
        <time>2016-07-24T17:31:58Z</time>
      </trkpt>
      <trkpt lat="44.98984" lon="15.17705">
        <ele>543</ele>
        <time>2016-07-24T17:33:58Z</time>
      </trkpt>
      <trkpt lat="44.98986" lon="15.17714">
        <ele>543</ele>
        <time>2016-07-24T17:35:58Z</time>
      </trkpt>
      <trkpt lat="44.98988" lon="15.17722">
        <ele>542</ele>
        <time>2016-07-24T17:37:58Z</time>
      </trkpt>
      <trkpt lat="44.9899" lon="15.17729">
        <ele>542</ele>
        <time>2016-07-24T17:39:58Z</time>
      </trkpt>
      <trkpt lat="44.98992" lon="15.17735">
        <ele>541</ele>
        <time>2016-07-24T17:41:58Z</time>
      </trkpt>
      <trkpt lat="44.98993" lon="15.1774">
        <ele>541</ele>
        <time>2016-07-24T17:43:58Z</time>
      </trkpt>
      <trkpt lat="44.98993" lon="15.17745">
        <ele>541</ele>
        <time>2016-07-24T17:45:58Z</time>
      </trkpt>
      <trkpt lat="44.98993" lon="15.1775">
        <ele>541</ele>
        <time>2016-07-24T17:47:58Z</time>
      </trkpt>
      <trkpt lat="44.98992" lon="15.17751">
        <ele>542</ele>
        <time>2016-07-24T17:49:58Z</time>
      </trkpt>
      <trkpt lat="44.98992" lon="15.17751">
        <ele>542</ele>
        <time>2016-07-24T17:51:58Z</time>
      </trkpt>
      <trkpt lat="44.98992" lon="15.17754">
        <ele>543</ele>
        <time>2016-07-24T17:53:58Z</time>
      </trkpt>
      <trkpt lat="44.9899" lon="15.17757">
        <ele>544</ele>
        <time>2016-07-24T17:55:58Z</time>
      </trkpt>
      <trkpt lat="44.98987" lon="15.17759">
        <ele>545</ele>
        <time>2016-07-24T17:57:58Z</time>
      </trkpt>
      <trkpt lat="44.98982" lon="15.17759">
        <ele>547</ele>
        <time>2016-07-24T17:59:58Z</time>
      </trkpt>
      <trkpt lat="44.98977" lon="15.17759">
        <ele>549</ele>
        <time>2016-07-24T18:01:58Z</time>
      </trkpt>
      <trkpt lat="44.98971" lon="15.17755">
        <ele>550</ele>
        <time>2016-07-24T18:03:58Z</time>
      </trkpt>
      <trkpt lat="44.98962" lon="15.17748">
        <ele>552</ele>
        <time>2016-07-24T18:05:58Z</time>
      </trkpt>
      <trkpt lat="44.98957" lon="15.17743">
        <ele>553</ele>
        <time>2016-07-24T18:07:58Z</time>
      </trkpt>
      <trkpt lat="44.98954" lon="15.1774">
        <ele>554</ele>
        <time>2016-07-24T18:09:58Z</time>
      </trkpt>
      <trkpt lat="44.9895" lon="15.17735">
        <ele>555</ele>
        <time>2016-07-24T18:11:58Z</time>
      </trkpt>
      <trkpt lat="44.98947" lon="15.17727">
        <ele>555</ele>
        <time>2016-07-24T18:13:58Z</time>
      </trkpt>
      <trkpt lat="44.98944" lon="15.17718">
        <ele>556</ele>
        <time>2016-07-24T18:15:58Z</time>
      </trkpt>
      <trkpt lat="44.9894" lon="15.17698">
        <ele>555</ele>
        <time>2016-07-24T18:17:58Z</time>
      </trkpt>
      <trkpt lat="44.98933" lon="15.17668">
        <ele>553</ele>
        <time>2016-07-24T18:19:58Z</time>
      </trkpt>
      <trkpt lat="44.98928" lon="15.17641">
        <ele>554</ele>
        <time>2016-07-24T18:21:58Z</time>
      </trkpt>
      <trkpt lat="44.98927" lon="15.17615">
        <ele>553</ele>
        <time>2016-07-24T18:23:58Z</time>
      </trkpt>
      <trkpt lat="44.98926" lon="15.1759">
        <ele>552</ele>
        <time>2016-07-24T18:25:58Z</time>
      </trkpt>
      <trkpt lat="44.98927" lon="15.17566">
        <ele>551</ele>
        <time>2016-07-24T18:27:58Z</time>
      </trkpt>
      <trkpt lat="44.98924" lon="15.17544">
        <ele>551</ele>
        <time>2016-07-24T18:29:58Z</time>
      </trkpt>
      <trkpt lat="44.98921" lon="15.17534">
        <ele>551</ele>
        <time>2016-07-24T18:31:58Z</time>
      </trkpt>
      <trkpt lat="44.98916" lon="15.1753">
        <ele>552</ele>
        <time>2016-07-24T18:33:58Z</time>
      </trkpt>
      <trkpt lat="44.98911" lon="15.17531">
        <ele>554</ele>
        <time>2016-07-24T18:35:58Z</time>
      </trkpt>
      <trkpt lat="44.98909" lon="15.17536">
        <ele>555</ele>
        <time>2016-07-24T18:37:58Z</time>
      </trkpt>
      <trkpt lat="44.98908" lon="15.17546">
        <ele>555</ele>
        <time>2016-07-24T18:39:58Z</time>
      </trkpt>
      <trkpt lat="44.9891" lon="15.17559">
        <ele>555</ele>
        <time>2016-07-24T18:41:58Z</time>
      </trkpt>
      <trkpt lat="44.98912" lon="15.17574">
        <ele>555</ele>
        <time>2016-07-24T18:43:58Z</time>
      </trkpt>
      <trkpt lat="44.98912" lon="15.17586">
        <ele>556</ele>
        <time>2016-07-24T18:45:58Z</time>
      </trkpt>
      <trkpt lat="44.9891" lon="15.17609">
        <ele>557</ele>
        <time>2016-07-24T18:47:58Z</time>
      </trkpt>
      <trkpt lat="44.98905" lon="15.17638">
        <ele>560</ele>
        <time>2016-07-24T18:49:58Z</time>
      </trkpt>
      <trkpt lat="44.98903" lon="15.17654">
        <ele>561</ele>
        <time>2016-07-24T18:51:58Z</time>
      </trkpt>
      <trkpt lat="44.98903" lon="15.17665">
        <ele>561</ele>
        <time>2016-07-24T18:53:58Z</time>
      </trkpt>
      <trkpt lat="44.98904" lon="15.1768">
        <ele>563</ele>
        <time>2016-07-24T18:55:58Z</time>
      </trkpt>
      <trkpt lat="44.98906" lon="15.17692">
        <ele>564</ele>
        <time>2016-07-24T18:57:58Z</time>
      </trkpt>
      <trkpt lat="44.98924" lon="15.17773">
        <ele>569</ele>
        <time>2016-07-24T18:59:58Z</time>
      </trkpt>
      <trkpt lat="44.98933" lon="15.17818">
        <ele>574</ele>
        <time>2016-07-24T19:01:58Z</time>
      </trkpt>
      <trkpt lat="44.9894" lon="15.17846">
        <ele>575</ele>
        <time>2016-07-24T19:03:58Z</time>
      </trkpt>
      <trkpt lat="44.99" lon="15.18037">
        <ele>572</ele>
        <time>2016-07-24T19:05:58Z</time>
      </trkpt>
      <trkpt lat="44.99012" lon="15.18072">
        <ele>574</ele>
        <time>2016-07-24T19:07:58Z</time>
      </trkpt>
      <trkpt lat="44.99031" lon="15.18113">
        <ele>575</ele>
        <time>2016-07-24T19:09:58Z</time>
      </trkpt>
      <trkpt lat="44.99054" lon="15.18164">
        <ele>572</ele>
        <time>2016-07-24T19:11:58Z</time>
      </trkpt>
      <trkpt lat="44.99075" lon="15.18205">
        <ele>571</ele>
        <time>2016-07-24T19:13:58Z</time>
      </trkpt>
      <trkpt lat="44.99095" lon="15.1824">
        <ele>570</ele>
        <time>2016-07-24T19:15:58Z</time>
      </trkpt>
      <trkpt lat="44.99104" lon="15.18258">
        <ele>571</ele>
        <time>2016-07-24T19:17:58Z</time>
      </trkpt>
      <trkpt lat="44.99109" lon="15.18272">
        <ele>571</ele>
        <time>2016-07-24T19:19:58Z</time>
      </trkpt>
      <trkpt lat="44.9912" lon="15.18307">
        <ele>572</ele>
        <time>2016-07-24T19:21:58Z</time>
      </trkpt>
      <trkpt lat="44.99126" lon="15.18336">
        <ele>573</ele>
        <time>2016-07-24T19:23:58Z</time>
      </trkpt>
      <trkpt lat="44.99128" lon="15.18383">
        <ele>575</ele>
        <time>2016-07-24T19:25:58Z</time>
      </trkpt>
      <trkpt lat="44.99134" lon="15.18423">
        <ele>576</ele>
        <time>2016-07-24T19:27:58Z</time>
      </trkpt>
      <trkpt lat="44.99139" lon="15.18446">
        <ele>575</ele>
        <time>2016-07-24T19:29:58Z</time>
      </trkpt>
      <trkpt lat="44.99152" lon="15.18487">
        <ele>573</ele>
        <time>2016-07-24T19:31:58Z</time>
      </trkpt>
      <trkpt lat="44.99161" lon="15.18514">
        <ele>573</ele>
        <time>2016-07-24T19:33:58Z</time>
      </trkpt>
      <trkpt lat="44.99168" lon="15.18533">
        <ele>573</ele>
        <time>2016-07-24T19:35:58Z</time>
      </trkpt>
      <trkpt lat="44.99182" lon="15.18566">
        <ele>576</ele>
        <time>2016-07-24T19:37:58Z</time>
      </trkpt>
      <trkpt lat="44.99194" lon="15.18601">
        <ele>577</ele>
        <time>2016-07-24T19:39:58Z</time>
      </trkpt>
      <trkpt lat="44.99201" lon="15.18624">
        <ele>576</ele>
        <time>2016-07-24T19:41:58Z</time>
      </trkpt>
      <trkpt lat="44.99203" lon="15.18638">
        <ele>576</ele>
        <time>2016-07-24T19:43:58Z</time>
      </trkpt>
      <trkpt lat="44.99205" lon="15.18663">
        <ele>577</ele>
        <time>2016-07-24T19:45:58Z</time>
      </trkpt>
      <trkpt lat="44.99204" lon="15.18676">
        <ele>577</ele>
        <time>2016-07-24T19:47:58Z</time>
      </trkpt>
      <trkpt lat="44.99199" lon="15.18691">
        <ele>577</ele>
        <time>2016-07-24T19:49:58Z</time>
      </trkpt>
      <trkpt lat="44.99187" lon="15.18722">
        <ele>576</ele>
        <time>2016-07-24T19:51:58Z</time>
      </trkpt>
      <trkpt lat="44.99163" lon="15.1878">
        <ele>576</ele>
        <time>2016-07-24T19:53:58Z</time>
      </trkpt>
      <trkpt lat="44.99156" lon="15.18796">
        <ele>577</ele>
        <time>2016-07-24T19:55:58Z</time>
      </trkpt>
      <trkpt lat="44.99151" lon="15.18808">
        <ele>577</ele>
        <time>2016-07-24T19:57:58Z</time>
      </trkpt>
      <trkpt lat="44.99139" lon="15.18826">
        <ele>577</ele>
        <time>2016-07-24T19:59:58Z</time>
      </trkpt>
      <trkpt lat="44.99118" lon="15.18854">
        <ele>579</ele>
        <time>2016-07-24T20:01:58Z</time>
      </trkpt>
      <trkpt lat="44.99104" lon="15.18875">
        <ele>580</ele>
        <time>2016-07-24T20:03:58Z</time>
      </trkpt>
      <trkpt lat="44.99095" lon="15.18894">
        <ele>579</ele>
        <time>2016-07-24T20:05:58Z</time>
      </trkpt>
      <trkpt lat="44.99068" lon="15.18954">
        <ele>583</ele>
        <time>2016-07-24T20:07:58Z</time>
      </trkpt>
      <trkpt lat="44.99042" lon="15.19011">
        <ele>590</ele>
        <time>2016-07-24T20:09:58Z</time>
      </trkpt>
      <trkpt lat="44.99025" lon="15.19042">
        <ele>592</ele>
        <time>2016-07-24T20:11:58Z</time>
      </trkpt>
      <trkpt lat="44.99018" lon="15.1906">
        <ele>591</ele>
        <time>2016-07-24T20:13:58Z</time>
      </trkpt>
      <trkpt lat="44.99014" lon="15.19076">
        <ele>590</ele>
        <time>2016-07-24T20:15:58Z</time>
      </trkpt>
      <trkpt lat="44.99009" lon="15.19113">
        <ele>589</ele>
        <time>2016-07-24T20:17:58Z</time>
      </trkpt>
      <trkpt lat="44.99004" lon="15.19186">
        <ele>591</ele>
        <time>2016-07-24T20:19:58Z</time>
      </trkpt>
      <trkpt lat="44.99003" lon="15.19228">
        <ele>593</ele>
        <time>2016-07-24T20:21:58Z</time>
      </trkpt>
      <trkpt lat="44.99001" lon="15.19253">
        <ele>594</ele>
        <time>2016-07-24T20:23:58Z</time>
      </trkpt>
      <trkpt lat="44.98996" lon="15.19284">
        <ele>595</ele>
        <time>2016-07-24T20:25:58Z</time>
      </trkpt>
      <trkpt lat="44.98985" lon="15.1935">
        <ele>599</ele>
        <time>2016-07-24T20:27:58Z</time>
      </trkpt>
      <trkpt lat="44.98974" lon="15.19391">
        <ele>603</ele>
        <time>2016-07-24T20:29:58Z</time>
      </trkpt>
      <trkpt lat="44.98968" lon="15.19418">
        <ele>605</ele>
        <time>2016-07-24T20:31:58Z</time>
      </trkpt>
      <trkpt lat="44.98965" lon="15.19434">
        <ele>606</ele>
        <time>2016-07-24T20:33:58Z</time>
      </trkpt>
      <trkpt lat="44.98966" lon="15.19447">
        <ele>606</ele>
        <time>2016-07-24T20:35:58Z</time>
      </trkpt>
      <trkpt lat="44.98969" lon="15.19458">
        <ele>606</ele>
        <time>2016-07-24T20:37:58Z</time>
      </trkpt>
      <trkpt lat="44.98975" lon="15.19469">
        <ele>606</ele>
        <time>2016-07-24T20:39:58Z</time>
      </trkpt>
      <trkpt lat="44.98993" lon="15.19478">
        <ele>605</ele>
        <time>2016-07-24T20:41:58Z</time>
      </trkpt>
      <trkpt lat="44.98996" lon="15.19484">
        <ele>605</ele>
        <time>2016-07-24T20:43:58Z</time>
      </trkpt>
      <trkpt lat="44.98996" lon="15.19494">
        <ele>606</ele>
        <time>2016-07-24T20:45:58Z</time>
      </trkpt>
      <trkpt lat="44.98994" lon="15.19508">
        <ele>608</ele>
        <time>2016-07-24T20:47:58Z</time>
      </trkpt>
      <trkpt lat="44.98991" lon="15.19523">
        <ele>610</ele>
        <time>2016-07-24T20:49:58Z</time>
      </trkpt>
      <trkpt lat="44.98985" lon="15.19545">
        <ele>613</ele>
        <time>2016-07-24T20:51:58Z</time>
      </trkpt>
      <trkpt lat="44.98982" lon="15.19555">
        <ele>614</ele>
        <time>2016-07-24T20:53:58Z</time>
      </trkpt>
      <trkpt lat="44.98976" lon="15.19564">
        <ele>614</ele>
        <time>2016-07-24T20:55:58Z</time>
      </trkpt>
      <trkpt lat="44.98971" lon="15.19573">
        <ele>615</ele>
        <time>2016-07-24T20:57:58Z</time>
      </trkpt>
      <trkpt lat="44.98949" lon="15.19593">
        <ele>614</ele>
        <time>2016-07-24T20:59:58Z</time>
      </trkpt>
      <trkpt lat="44.9894" lon="15.19604">
        <ele>615</ele>
        <time>2016-07-24T21:01:58Z</time>
      </trkpt>
      <trkpt lat="44.98932" lon="15.19617">
        <ele>615</ele>
        <time>2016-07-24T21:03:58Z</time>
      </trkpt>
      <trkpt lat="44.98917" lon="15.19644">
        <ele>617</ele>
        <time>2016-07-24T21:05:58Z</time>
      </trkpt>
      <trkpt lat="44.98909" lon="15.19664">
        <ele>621</ele>
        <time>2016-07-24T21:07:58Z</time>
      </trkpt>
      <trkpt lat="44.98898" lon="15.19688">
        <ele>623</ele>
        <time>2016-07-24T21:09:58Z</time>
      </trkpt>
      <trkpt lat="44.9889" lon="15.197">
        <ele>625</ele>
        <time>2016-07-24T21:11:58Z</time>
      </trkpt>
      <trkpt lat="44.9888" lon="15.19725">
        <ele>626</ele>
        <time>2016-07-24T21:13:58Z</time>
      </trkpt>
      <trkpt lat="44.98878" lon="15.19739">
        <ele>627</ele>
        <time>2016-07-24T21:15:58Z</time>
      </trkpt>
      <trkpt lat="44.98876" lon="15.19759">
        <ele>627</ele>
        <time>2016-07-24T21:17:58Z</time>
      </trkpt>
      <trkpt lat="44.98865" lon="15.19803">
        <ele>627</ele>
        <time>2016-07-24T21:19:58Z</time>
      </trkpt>
      <trkpt lat="44.98852" lon="15.19851">
        <ele>626</ele>
        <time>2016-07-24T21:21:58Z</time>
      </trkpt>
      <trkpt lat="44.98845" lon="15.1988">
        <ele>625</ele>
        <time>2016-07-24T21:23:58Z</time>
      </trkpt>
      <trkpt lat="44.98842" lon="15.19896">
        <ele>625</ele>
        <time>2016-07-24T21:25:58Z</time>
      </trkpt>
      <trkpt lat="44.98843" lon="15.1992">
        <ele>625</ele>
        <time>2016-07-24T21:27:58Z</time>
      </trkpt>
      <trkpt lat="44.9885" lon="15.19939">
        <ele>627</ele>
        <time>2016-07-24T21:29:58Z</time>
      </trkpt>
      <trkpt lat="44.98853" lon="15.19955">
        <ele>628</ele>
        <time>2016-07-24T21:31:58Z</time>
      </trkpt>
      <trkpt lat="44.98854" lon="15.19973">
        <ele>629</ele>
        <time>2016-07-24T21:33:58Z</time>
      </trkpt>
      <trkpt lat="44.98851" lon="15.1999">
        <ele>629</ele>
        <time>2016-07-24T21:35:58Z</time>
      </trkpt>
      <trkpt lat="44.98835" lon="15.20045">
        <ele>629</ele>
        <time>2016-07-24T21:37:58Z</time>
      </trkpt>
      <trkpt lat="44.98834" lon="15.20047">
        <ele>629</ele>
        <time>2016-07-24T21:39:58Z</time>
      </trkpt>
      <trkpt lat="44.98831" lon="15.2006">
        <ele>629</ele>
        <time>2016-07-24T21:41:58Z</time>
      </trkpt>
      <trkpt lat="44.98824" lon="15.20085">
        <ele>629</ele>
        <time>2016-07-24T21:43:58Z</time>
      </trkpt>
      <trkpt lat="44.98811" lon="15.20158">
        <ele>623</ele>
        <time>2016-07-24T21:45:58Z</time>
      </trkpt>
      <trkpt lat="44.98798" lon="15.2022">
        <ele>621</ele>
        <time>2016-07-24T21:47:58Z</time>
      </trkpt>
      <trkpt lat="44.98795" lon="15.20258">
        <ele>620</ele>
        <time>2016-07-24T21:49:58Z</time>
      </trkpt>
      <trkpt lat="44.98792" lon="15.20292">
        <ele>619</ele>
        <time>2016-07-24T21:51:58Z</time>
      </trkpt>
      <trkpt lat="44.9879" lon="15.2033">
        <ele>618</ele>
        <time>2016-07-24T21:53:58Z</time>
      </trkpt>
      <trkpt lat="44.98778" lon="15.20417">
        <ele>617</ele>
        <time>2016-07-24T21:55:58Z</time>
      </trkpt>
      <trkpt lat="44.98775" lon="15.20449">
        <ele>619</ele>
        <time>2016-07-24T21:57:58Z</time>
      </trkpt>
      <trkpt lat="44.98771" lon="15.2047">
        <ele>620</ele>
        <time>2016-07-24T21:59:58Z</time>
      </trkpt>
      <trkpt lat="44.98768" lon="15.20486">
        <ele>620</ele>
        <time>2016-07-24T22:01:58Z</time>
      </trkpt>
      <trkpt lat="44.98756" lon="15.20511">
        <ele>621</ele>
        <time>2016-07-24T22:03:58Z</time>
      </trkpt>
      <trkpt lat="44.98744" lon="15.20532">
        <ele>622</ele>
        <time>2016-07-24T22:05:58Z</time>
      </trkpt>
      <trkpt lat="44.98728" lon="15.20555">
        <ele>623</ele>
        <time>2016-07-24T22:07:58Z</time>
      </trkpt>
      <trkpt lat="44.98684" lon="15.20626">
        <ele>624</ele>
        <time>2016-07-24T22:09:58Z</time>
      </trkpt>
      <trkpt lat="44.98667" lon="15.20655">
        <ele>624</ele>
        <time>2016-07-24T22:11:58Z</time>
      </trkpt>
      <trkpt lat="44.98661" lon="15.20672">
        <ele>628</ele>
        <time>2016-07-24T22:13:58Z</time>
      </trkpt>
      <trkpt lat="44.98657" lon="15.20688">
        <ele>630</ele>
        <time>2016-07-24T22:15:58Z</time>
      </trkpt>
      <trkpt lat="44.98658" lon="15.20705">
        <ele>630</ele>
        <time>2016-07-24T22:17:58Z</time>
      </trkpt>
      <trkpt lat="44.9866" lon="15.20721">
        <ele>630</ele>
        <time>2016-07-24T22:19:58Z</time>
      </trkpt>
      <trkpt lat="44.98668" lon="15.20754">
        <ele>629</ele>
        <time>2016-07-24T22:21:58Z</time>
      </trkpt>
      <trkpt lat="44.98696" lon="15.20838">
        <ele>629</ele>
        <time>2016-07-24T22:23:58Z</time>
      </trkpt>
      <trkpt lat="44.98703" lon="15.20864">
        <ele>630</ele>
        <time>2016-07-24T22:25:58Z</time>
      </trkpt>
      <trkpt lat="44.98705" lon="15.20881">
        <ele>630</ele>
        <time>2016-07-24T22:27:58Z</time>
      </trkpt>
      <trkpt lat="44.98705" lon="15.20898">
        <ele>631</ele>
        <time>2016-07-24T22:29:58Z</time>
      </trkpt>
      <trkpt lat="44.98703" lon="15.20914">
        <ele>632</ele>
        <time>2016-07-24T22:31:58Z</time>
      </trkpt>
      <trkpt lat="44.98686" lon="15.20959">
        <ele>632</ele>
        <time>2016-07-24T22:33:58Z</time>
      </trkpt>
      <trkpt lat="44.98679" lon="15.20975">
        <ele>632</ele>
        <time>2016-07-24T22:35:58Z</time>
      </trkpt>
      <trkpt lat="44.98674" lon="15.20989">
        <ele>632</ele>
        <time>2016-07-24T22:37:58Z</time>
      </trkpt>
      <trkpt lat="44.98672" lon="15.20998">
        <ele>631</ele>
        <time>2016-07-24T22:39:58Z</time>
      </trkpt>
      <trkpt lat="44.9867" lon="15.21014">
        <ele>631</ele>
        <time>2016-07-24T22:41:58Z</time>
      </trkpt>
      <trkpt lat="44.98675" lon="15.2107">
        <ele>630</ele>
        <time>2016-07-24T22:43:58Z</time>
      </trkpt>
      <trkpt lat="44.98676" lon="15.2109">
        <ele>629</ele>
        <time>2016-07-24T22:45:58Z</time>
      </trkpt>
      <trkpt lat="44.98674" lon="15.21105">
        <ele>627</ele>
        <time>2016-07-24T22:47:58Z</time>
      </trkpt>
      <trkpt lat="44.98672" lon="15.21122">
        <ele>626</ele>
        <time>2016-07-24T22:49:58Z</time>
      </trkpt>
      <trkpt lat="44.98671" lon="15.2114">
        <ele>624</ele>
        <time>2016-07-24T22:51:58Z</time>
      </trkpt>
      <trkpt lat="44.98673" lon="15.21157">
        <ele>623</ele>
        <time>2016-07-24T22:53:58Z</time>
      </trkpt>
      <trkpt lat="44.98677" lon="15.21177">
        <ele>622</ele>
        <time>2016-07-24T22:55:58Z</time>
      </trkpt>
      <trkpt lat="44.98684" lon="15.21226">
        <ele>620</ele>
        <time>2016-07-24T22:57:58Z</time>
      </trkpt>
      <trkpt lat="44.98684" lon="15.21244">
        <ele>619</ele>
        <time>2016-07-24T22:59:58Z</time>
      </trkpt>
      <trkpt lat="44.98684" lon="15.21261">
        <ele>619</ele>
        <time>2016-07-24T23:01:58Z</time>
      </trkpt>
      <trkpt lat="44.98682" lon="15.21279">
        <ele>618</ele>
        <time>2016-07-24T23:03:58Z</time>
      </trkpt>
      <trkpt lat="44.98678" lon="15.21298">
        <ele>617</ele>
        <time>2016-07-24T23:05:58Z</time>
      </trkpt>
      <trkpt lat="44.98674" lon="15.21313">
        <ele>616</ele>
        <time>2016-07-24T23:07:58Z</time>
      </trkpt>
      <trkpt lat="44.98671" lon="15.21328">
        <ele>615</ele>
        <time>2016-07-24T23:09:58Z</time>
      </trkpt>
      <trkpt lat="44.98658" lon="15.21392">
        <ele>613</ele>
        <time>2016-07-24T23:11:58Z</time>
      </trkpt>
      <trkpt lat="44.98654" lon="15.21423">
        <ele>612</ele>
        <time>2016-07-24T23:13:58Z</time>
      </trkpt>
      <trkpt lat="44.98653" lon="15.21445">
        <ele>613</ele>
        <time>2016-07-24T23:15:58Z</time>
      </trkpt>
      <trkpt lat="44.98648" lon="15.21472">
        <ele>614</ele>
        <time>2016-07-24T23:17:58Z</time>
      </trkpt>
      <trkpt lat="44.98643" lon="15.21488">
        <ele>613</ele>
        <time>2016-07-24T23:19:58Z</time>
      </trkpt>
      <trkpt lat="44.98638" lon="15.21501">
        <ele>612</ele>
        <time>2016-07-24T23:21:58Z</time>
      </trkpt>
      <trkpt lat="44.9863" lon="15.21518">
        <ele>613</ele>
        <time>2016-07-24T23:23:58Z</time>
      </trkpt>
      <trkpt lat="44.98566" lon="15.21597">
        <ele>608</ele>
        <time>2016-07-24T23:25:58Z</time>
      </trkpt>
      <trkpt lat="44.98558" lon="15.21612">
        <ele>608</ele>
        <time>2016-07-24T23:27:58Z</time>
      </trkpt>
      <trkpt lat="44.98551" lon="15.21631">
        <ele>608</ele>
        <time>2016-07-24T23:29:58Z</time>
      </trkpt>
      <trkpt lat="44.9854" lon="15.21671">
        <ele>606</ele>
        <time>2016-07-24T23:31:58Z</time>
      </trkpt>
      <trkpt lat="44.98536" lon="15.21694">
        <ele>607</ele>
        <time>2016-07-24T23:33:58Z</time>
      </trkpt>
      <trkpt lat="44.9853" lon="15.21713">
        <ele>606</ele>
        <time>2016-07-24T23:35:58Z</time>
      </trkpt>
      <trkpt lat="44.98525" lon="15.21728">
        <ele>606</ele>
        <time>2016-07-24T23:37:58Z</time>
      </trkpt>
      <trkpt lat="44.98508" lon="15.21752">
        <ele>604</ele>
        <time>2016-07-24T23:39:58Z</time>
      </trkpt>
      <trkpt lat="44.98496" lon="15.21767">
        <ele>603</ele>
        <time>2016-07-24T23:41:58Z</time>
      </trkpt>
      <trkpt lat="44.98492" lon="15.21771">
        <ele>603</ele>
        <time>2016-07-24T23:43:58Z</time>
      </trkpt>
      <trkpt lat="44.98489" lon="15.21774">
        <ele>603</ele>
        <time>2016-07-24T23:45:58Z</time>
      </trkpt>
      <trkpt lat="44.98483" lon="15.21783">
        <ele>603</ele>
        <time>2016-07-24T23:47:58Z</time>
      </trkpt>
      <trkpt lat="44.98478" lon="15.21794">
        <ele>604</ele>
        <time>2016-07-24T23:49:58Z</time>
      </trkpt>
      <trkpt lat="44.98472" lon="15.21817">
        <ele>604</ele>
        <time>2016-07-24T23:51:58Z</time>
      </trkpt>
      <trkpt lat="44.9847" lon="15.21832">
        <ele>604</ele>
        <time>2016-07-24T23:53:58Z</time>
      </trkpt>
      <trkpt lat="44.98468" lon="15.2185">
        <ele>604</ele>
        <time>2016-07-24T23:55:58Z</time>
      </trkpt>
      <trkpt lat="44.98465" lon="15.21866">
        <ele>605</ele>
        <time>2016-07-24T23:57:58Z</time>
      </trkpt>
      <trkpt lat="44.98459" lon="15.21878">
        <ele>604</ele>
        <time>2016-07-24T23:59:58Z</time>
      </trkpt>
      <trkpt lat="44.98417" lon="15.21948">
        <ele>603</ele>
        <time>2016-07-25T00:01:58Z</time>
      </trkpt>
      <trkpt lat="44.98394" lon="15.21975">
        <ele>603</ele>
        <time>2016-07-25T00:03:58Z</time>
      </trkpt>
      <trkpt lat="44.98371" lon="15.22014">
        <ele>602</ele>
        <time>2016-07-25T00:05:58Z</time>
      </trkpt>
      <trkpt lat="44.98365" lon="15.22025">
        <ele>602</ele>
        <time>2016-07-25T00:07:58Z</time>
      </trkpt>
      <trkpt lat="44.98358" lon="15.22042">
        <ele>601</ele>
        <time>2016-07-25T00:09:58Z</time>
      </trkpt>
      <trkpt lat="44.98307" lon="15.22153">
        <ele>599</ele>
        <time>2016-07-25T00:11:58Z</time>
      </trkpt>
      <trkpt lat="44.98294" lon="15.2218">
        <ele>599</ele>
        <time>2016-07-25T00:13:58Z</time>
      </trkpt>
      <trkpt lat="44.98254" lon="15.22267">
        <ele>601</ele>
        <time>2016-07-25T00:15:58Z</time>
      </trkpt>
      <trkpt lat="44.98242" lon="15.22291">
        <ele>601</ele>
        <time>2016-07-25T00:17:58Z</time>
      </trkpt>
      <trkpt lat="44.98232" lon="15.22312">
        <ele>602</ele>
        <time>2016-07-25T00:19:58Z</time>
      </trkpt>
      <trkpt lat="44.98223" lon="15.22329">
        <ele>602</ele>
        <time>2016-07-25T00:21:58Z</time>
      </trkpt>
      <trkpt lat="44.98193" lon="15.22378">
        <ele>601</ele>
        <time>2016-07-25T00:23:58Z</time>
      </trkpt>
      <trkpt lat="44.98189" lon="15.2239">
        <ele>601</ele>
        <time>2016-07-25T00:25:58Z</time>
      </trkpt>
      <trkpt lat="44.98181" lon="15.22411">
        <ele>600</ele>
        <time>2016-07-25T00:27:58Z</time>
      </trkpt>
      <trkpt lat="44.98171" lon="15.22438">
        <ele>599</ele>
        <time>2016-07-25T00:29:58Z</time>
      </trkpt>
      <trkpt lat="44.98153" lon="15.2248">
        <ele>598</ele>
        <time>2016-07-25T00:31:58Z</time>
      </trkpt>
      <trkpt lat="44.98148" lon="15.22501">
        <ele>598</ele>
        <time>2016-07-25T00:33:58Z</time>
      </trkpt>
      <trkpt lat="44.98145" lon="15.22519">
        <ele>599</ele>
        <time>2016-07-25T00:35:58Z</time>
      </trkpt>
      <trkpt lat="44.98146" lon="15.2254">
        <ele>600</ele>
        <time>2016-07-25T00:37:58Z</time>
      </trkpt>
      <trkpt lat="44.98147" lon="15.22553">
        <ele>601</ele>
        <time>2016-07-25T00:39:58Z</time>
      </trkpt>
      <trkpt lat="44.98147" lon="15.22568">
        <ele>602</ele>
        <time>2016-07-25T00:41:58Z</time>
      </trkpt>
      <trkpt lat="44.98149" lon="15.22583">
        <ele>603</ele>
        <time>2016-07-25T00:43:58Z</time>
      </trkpt>
      <trkpt lat="44.98148" lon="15.22597">
        <ele>604</ele>
        <time>2016-07-25T00:45:58Z</time>
      </trkpt>
      <trkpt lat="44.98144" lon="15.22611">
        <ele>605</ele>
        <time>2016-07-25T00:47:58Z</time>
      </trkpt>
      <trkpt lat="44.98138" lon="15.22627">
        <ele>605</ele>
        <time>2016-07-25T00:49:58Z</time>
      </trkpt>
      <trkpt lat="44.98129" lon="15.22642">
        <ele>605</ele>
        <time>2016-07-25T00:51:58Z</time>
      </trkpt>
      <trkpt lat="44.9812" lon="15.22657">
        <ele>606</ele>
        <time>2016-07-25T00:53:58Z</time>
      </trkpt>
      <trkpt lat="44.98112" lon="15.22674">
        <ele>606</ele>
        <time>2016-07-25T00:55:58Z</time>
      </trkpt>
      <trkpt lat="44.98107" lon="15.2269">
        <ele>606</ele>
        <time>2016-07-25T00:57:58Z</time>
      </trkpt>
      <trkpt lat="44.98077" lon="15.22749">
        <ele>606</ele>
        <time>2016-07-25T00:59:58Z</time>
      </trkpt>
      <trkpt lat="44.98062" lon="15.22772">
        <ele>607</ele>
        <time>2016-07-25T01:01:58Z</time>
      </trkpt>
      <trkpt lat="44.98049" lon="15.2279">
        <ele>608</ele>
        <time>2016-07-25T01:03:58Z</time>
      </trkpt>
      <trkpt lat="44.98038" lon="15.22804">
        <ele>608</ele>
        <time>2016-07-25T01:05:58Z</time>
      </trkpt>
      <trkpt lat="44.98031" lon="15.22816">
        <ele>608</ele>
        <time>2016-07-25T01:07:58Z</time>
      </trkpt>
      <trkpt lat="44.98025" lon="15.2283">
        <ele>609</ele>
        <time>2016-07-25T01:09:58Z</time>
      </trkpt>
      <trkpt lat="44.98025" lon="15.22834">
        <ele>609</ele>
        <time>2016-07-25T01:11:58Z</time>
      </trkpt>
      <trkpt lat="44.98021" lon="15.22857">
        <ele>610</ele>
        <time>2016-07-25T01:13:58Z</time>
      </trkpt>
      <trkpt lat="44.98018" lon="15.22877">
        <ele>611</ele>
        <time>2016-07-25T01:15:58Z</time>
      </trkpt>
      <trkpt lat="44.98013" lon="15.22895">
        <ele>611</ele>
        <time>2016-07-25T01:17:58Z</time>
      </trkpt>
      <trkpt lat="44.98013" lon="15.22895">
        <ele>611</ele>
        <time>2016-07-25T01:19:58Z</time>
      </trkpt>
      <trkpt lat="44.98042" lon="15.22923">
        <ele>615</ele>
        <time>2016-07-25T01:21:58Z</time>
      </trkpt>
      <trkpt lat="44.98061" lon="15.22946">
        <ele>619</ele>
        <time>2016-07-25T01:23:58Z</time>
      </trkpt>
      <trkpt lat="44.98072" lon="15.22973">
        <ele>622</ele>
        <time>2016-07-25T01:25:58Z</time>
      </trkpt>
      <trkpt lat="44.98077" lon="15.22997">
        <ele>625</ele>
        <time>2016-07-25T01:27:58Z</time>
      </trkpt>
      <trkpt lat="44.98081" lon="15.23012">
        <ele>627</ele>
        <time>2016-07-25T01:29:58Z</time>
      </trkpt>
      <trkpt lat="44.98088" lon="15.23029">
        <ele>629</ele>
        <time>2016-07-25T01:31:58Z</time>
      </trkpt>
      <trkpt lat="44.98096" lon="15.23041">
        <ele>631</ele>
        <time>2016-07-25T01:33:58Z</time>
      </trkpt>
      <trkpt lat="44.98105" lon="15.23053">
        <ele>633</ele>
        <time>2016-07-25T01:35:58Z</time>
      </trkpt>
      <trkpt lat="44.9811" lon="15.2306">
        <ele>634</ele>
        <time>2016-07-25T01:37:58Z</time>
      </trkpt>
      <trkpt lat="44.98117" lon="15.23059">
        <ele>634</ele>
        <time>2016-07-25T01:39:58Z</time>
      </trkpt>
      <trkpt lat="44.98124" lon="15.23056">
        <ele>635</ele>
        <time>2016-07-25T01:41:58Z</time>
      </trkpt>
      <trkpt lat="44.98135" lon="15.23043">
        <ele>635</ele>
        <time>2016-07-25T01:43:58Z</time>
      </trkpt>
      <trkpt lat="44.98219" lon="15.22953">
        <ele>642</ele>
        <time>2016-07-25T01:45:58Z</time>
      </trkpt>
      <trkpt lat="44.98233" lon="15.22942">
        <ele>643</ele>
        <time>2016-07-25T01:47:58Z</time>
      </trkpt>
      <trkpt lat="44.98245" lon="15.22939">
        <ele>645</ele>
        <time>2016-07-25T01:49:58Z</time>
      </trkpt>
      <trkpt lat="44.98264" lon="15.22939">
        <ele>651</ele>
        <time>2016-07-25T01:51:58Z</time>
      </trkpt>
      <trkpt lat="44.9828" lon="15.22941">
        <ele>656</ele>
        <time>2016-07-25T01:53:58Z</time>
      </trkpt>
      <trkpt lat="44.98292" lon="15.2294">
        <ele>660</ele>
        <time>2016-07-25T01:55:58Z</time>
      </trkpt>
      <trkpt lat="44.98304" lon="15.22935">
        <ele>663</ele>
        <time>2016-07-25T01:57:58Z</time>
      </trkpt>
      <trkpt lat="44.98311" lon="15.22929">
        <ele>664</ele>
        <time>2016-07-25T01:59:58Z</time>
      </trkpt>
      <trkpt lat="44.98315" lon="15.22918">
        <ele>664</ele>
        <time>2016-07-25T02:01:58Z</time>
      </trkpt>
      <trkpt lat="44.98316" lon="15.229">
        <ele>664</ele>
        <time>2016-07-25T02:03:58Z</time>
      </trkpt>
      <trkpt lat="44.98314" lon="15.2288">
        <ele>663</ele>
        <time>2016-07-25T02:05:58Z</time>
      </trkpt>
      <trkpt lat="44.98314" lon="15.22865">
        <ele>663</ele>
        <time>2016-07-25T02:07:58Z</time>
      </trkpt>
      <trkpt lat="44.98316" lon="15.22851">
        <ele>663</ele>
        <time>2016-07-25T02:09:58Z</time>
      </trkpt>
      <trkpt lat="44.9832" lon="15.22835">
        <ele>665</ele>
        <time>2016-07-25T02:11:58Z</time>
      </trkpt>
      <trkpt lat="44.98347" lon="15.2276">
        <ele>670</ele>
        <time>2016-07-25T02:13:58Z</time>
      </trkpt>
      <trkpt lat="44.98364" lon="15.22716">
        <ele>672</ele>
        <time>2016-07-25T02:15:58Z</time>
      </trkpt>
      <trkpt lat="44.98376" lon="15.22693">
        <ele>673</ele>
        <time>2016-07-25T02:17:58Z</time>
      </trkpt>
      <trkpt lat="44.98392" lon="15.22675">
        <ele>675</ele>
        <time>2016-07-25T02:19:58Z</time>
      </trkpt>
      <trkpt lat="44.98411" lon="15.22656">
        <ele>678</ele>
        <time>2016-07-25T02:21:58Z</time>
      </trkpt>
      <trkpt lat="44.98463" lon="15.22623">
        <ele>685</ele>
        <time>2016-07-25T02:23:58Z</time>
      </trkpt>
      <trkpt lat="44.98472" lon="15.22616">
        <ele>686</ele>
        <time>2016-07-25T02:25:58Z</time>
      </trkpt>
      <trkpt lat="44.98483" lon="15.22603">
        <ele>686</ele>
        <time>2016-07-25T02:27:58Z</time>
      </trkpt>
      <trkpt lat="44.98494" lon="15.22589">
        <ele>686</ele>
        <time>2016-07-25T02:29:58Z</time>
      </trkpt>
      <trkpt lat="44.985" lon="15.22577">
        <ele>685</ele>
        <time>2016-07-25T02:31:58Z</time>
      </trkpt>
      <trkpt lat="44.98514" lon="15.22565">
        <ele>687</ele>
        <time>2016-07-25T02:33:58Z</time>
      </trkpt>
      <trkpt lat="44.98525" lon="15.22554">
        <ele>689</ele>
        <time>2016-07-25T02:35:58Z</time>
      </trkpt>
      <trkpt lat="44.98552" lon="15.22528">
        <ele>692</ele>
        <time>2016-07-25T02:37:58Z</time>
      </trkpt>
      <trkpt lat="44.98562" lon="15.22513">
        <ele>693</ele>
        <time>2016-07-25T02:39:58Z</time>
      </trkpt>
      <trkpt lat="44.98573" lon="15.22491">
        <ele>693</ele>
        <time>2016-07-25T02:41:58Z</time>
      </trkpt>
      <trkpt lat="44.98587" lon="15.22467">
        <ele>693</ele>
        <time>2016-07-25T02:43:58Z</time>
      </trkpt>
      <trkpt lat="44.98601" lon="15.22444">
        <ele>694</ele>
        <time>2016-07-25T02:45:58Z</time>
      </trkpt>
      <trkpt lat="44.98614" lon="15.22427">
        <ele>695</ele>
        <time>2016-07-25T02:47:58Z</time>
      </trkpt>
      <trkpt lat="44.9867" lon="15.22365">
        <ele>701</ele>
        <time>2016-07-25T02:49:58Z</time>
      </trkpt>
      <trkpt lat="44.98682" lon="15.22349">
        <ele>700</ele>
        <time>2016-07-25T02:51:58Z</time>
      </trkpt>
      <trkpt lat="44.98702" lon="15.22339">
        <ele>702</ele>
        <time>2016-07-25T02:53:58Z</time>
      </trkpt>
      <trkpt lat="44.98717" lon="15.22331">
        <ele>703</ele>
        <time>2016-07-25T02:55:58Z</time>
      </trkpt>
      <trkpt lat="44.9873" lon="15.22311">
        <ele>701</ele>
        <time>2016-07-25T02:57:58Z</time>
      </trkpt>
      <trkpt lat="44.98748" lon="15.22286">
        <ele>700</ele>
        <time>2016-07-25T02:59:58Z</time>
      </trkpt>
      <trkpt lat="44.98773" lon="15.22266">
        <ele>699</ele>
        <time>2016-07-25T03:01:58Z</time>
      </trkpt>
      <trkpt lat="44.98816" lon="15.22243">
        <ele>701</ele>
        <time>2016-07-25T03:03:58Z</time>
      </trkpt>
      <trkpt lat="44.98846" lon="15.22228">
        <ele>702</ele>
        <time>2016-07-25T03:05:58Z</time>
      </trkpt>
      <trkpt lat="44.98866" lon="15.22223">
        <ele>702</ele>
        <time>2016-07-25T03:07:58Z</time>
      </trkpt>
      <trkpt lat="44.98881" lon="15.22232">
        <ele>703</ele>
        <time>2016-07-25T03:09:58Z</time>
      </trkpt>
      <trkpt lat="44.98898" lon="15.22243">
        <ele>704</ele>
        <time>2016-07-25T03:11:58Z</time>
      </trkpt>
      <trkpt lat="44.98913" lon="15.22248">
        <ele>705</ele>
        <time>2016-07-25T03:13:58Z</time>
      </trkpt>
      <trkpt lat="44.98932" lon="15.22246">
        <ele>704</ele>
        <time>2016-07-25T03:15:58Z</time>
      </trkpt>
      <trkpt lat="44.98965" lon="15.22243">
        <ele>703</ele>
        <time>2016-07-25T03:17:58Z</time>
      </trkpt>
      <trkpt lat="44.98991" lon="15.22245">
        <ele>703</ele>
        <time>2016-07-25T03:19:58Z</time>
      </trkpt>
      <trkpt lat="44.99028" lon="15.22256">
        <ele>700</ele>
        <time>2016-07-25T03:21:58Z</time>
      </trkpt>
      <trkpt lat="44.99065" lon="15.22287">
        <ele>693</ele>
        <time>2016-07-25T03:23:58Z</time>
      </trkpt>
      <trkpt lat="44.99084" lon="15.22303">
        <ele>689</ele>
        <time>2016-07-25T03:25:58Z</time>
      </trkpt>
      <trkpt lat="44.991" lon="15.22312">
        <ele>687</ele>
        <time>2016-07-25T03:27:58Z</time>
      </trkpt>
      <trkpt lat="44.99117" lon="15.22326">
        <ele>684</ele>
        <time>2016-07-25T03:29:58Z</time>
      </trkpt>
      <trkpt lat="44.99127" lon="15.22346">
        <ele>681</ele>
        <time>2016-07-25T03:31:58Z</time>
      </trkpt>
      <trkpt lat="44.99144" lon="15.22412">
        <ele>671</ele>
        <time>2016-07-25T03:33:58Z</time>
      </trkpt>
      <trkpt lat="44.99161" lon="15.22486">
        <ele>670</ele>
        <time>2016-07-25T03:35:58Z</time>
      </trkpt>
      <trkpt lat="44.99168" lon="15.22523">
        <ele>671</ele>
        <time>2016-07-25T03:37:58Z</time>
      </trkpt>
      <trkpt lat="44.99173" lon="15.22549">
        <ele>671</ele>
        <time>2016-07-25T03:39:58Z</time>
      </trkpt>
      <trkpt lat="44.99183" lon="15.22577">
        <ele>672</ele>
        <time>2016-07-25T03:41:58Z</time>
      </trkpt>
      <trkpt lat="44.99198" lon="15.22603">
        <ele>673</ele>
        <time>2016-07-25T03:43:58Z</time>
      </trkpt>
      <trkpt lat="44.99221" lon="15.2265">
        <ele>674</ele>
        <time>2016-07-25T03:45:58Z</time>
      </trkpt>
      <trkpt lat="44.99287" lon="15.22781">
        <ele>679</ele>
        <time>2016-07-25T03:47:58Z</time>
      </trkpt>
      <trkpt lat="44.99342" lon="15.22867">
        <ele>682</ele>
        <time>2016-07-25T03:49:58Z</time>
      </trkpt>
      <trkpt lat="44.99398" lon="15.22965">
        <ele>682</ele>
        <time>2016-07-25T03:51:58Z</time>
      </trkpt>
      <trkpt lat="44.99445" lon="15.23069">
        <ele>690</ele>
        <time>2016-07-25T03:53:58Z</time>
      </trkpt>
      <trkpt lat="44.9945" lon="15.23093">
        <ele>692</ele>
        <time>2016-07-25T03:55:58Z</time>
      </trkpt>
      <trkpt lat="44.99451" lon="15.23115">
        <ele>693</ele>
        <time>2016-07-25T03:57:58Z</time>
      </trkpt>
      <trkpt lat="44.99454" lon="15.2313">
        <ele>694</ele>
        <time>2016-07-25T03:59:58Z</time>
      </trkpt>
      <trkpt lat="44.99462" lon="15.2314">
        <ele>695</ele>
        <time>2016-07-25T04:01:58Z</time>
      </trkpt>
      <trkpt lat="44.99474" lon="15.23145">
        <ele>697</ele>
        <time>2016-07-25T04:03:58Z</time>
      </trkpt>
      <trkpt lat="44.99488" lon="15.23143">
        <ele>698</ele>
        <time>2016-07-25T04:05:58Z</time>
      </trkpt>
      <trkpt lat="44.99498" lon="15.23135">
        <ele>698</ele>
        <time>2016-07-25T04:07:58Z</time>
      </trkpt>
      <trkpt lat="44.99544" lon="15.23092">
        <ele>704</ele>
        <time>2016-07-25T04:09:58Z</time>
      </trkpt>
      <trkpt lat="44.99558" lon="15.23075">
        <ele>706</ele>
        <time>2016-07-25T04:11:58Z</time>
      </trkpt>
      <trkpt lat="44.99566" lon="15.23059">
        <ele>707</ele>
        <time>2016-07-25T04:13:58Z</time>
      </trkpt>
      <trkpt lat="44.99576" lon="15.23049">
        <ele>708</ele>
        <time>2016-07-25T04:15:58Z</time>
      </trkpt>
      <trkpt lat="44.99585" lon="15.23049">
        <ele>710</ele>
        <time>2016-07-25T04:17:58Z</time>
      </trkpt>
      <trkpt lat="44.99594" lon="15.23064">
        <ele>712</ele>
        <time>2016-07-25T04:19:58Z</time>
      </trkpt>
      <trkpt lat="44.99597" lon="15.23086">
        <ele>713</ele>
        <time>2016-07-25T04:21:58Z</time>
      </trkpt>
      <trkpt lat="44.99608" lon="15.2322">
        <ele>720</ele>
        <time>2016-07-25T04:23:58Z</time>
      </trkpt>
      <trkpt lat="44.99608" lon="15.23279">
        <ele>724</ele>
        <time>2016-07-25T04:25:58Z</time>
      </trkpt>
      <trkpt lat="44.99608" lon="15.23314">
        <ele>728</ele>
        <time>2016-07-25T04:27:58Z</time>
      </trkpt>
      <trkpt lat="44.99604" lon="15.23336">
        <ele>730</ele>
        <time>2016-07-25T04:29:58Z</time>
      </trkpt>
      <trkpt lat="44.99601" lon="15.23352">
        <ele>732</ele>
        <time>2016-07-25T04:31:58Z</time>
      </trkpt>
      <trkpt lat="44.99597" lon="15.23364">
        <ele>733</ele>
        <time>2016-07-25T04:33:58Z</time>
      </trkpt>
      <trkpt lat="44.99595" lon="15.23377">
        <ele>734</ele>
        <time>2016-07-25T04:35:58Z</time>
      </trkpt>
      <trkpt lat="44.99594" lon="15.23393">
        <ele>736</ele>
        <time>2016-07-25T04:37:58Z</time>
      </trkpt>
      <trkpt lat="44.99597" lon="15.23404">
        <ele>738</ele>
        <time>2016-07-25T04:39:58Z</time>
      </trkpt>
      <trkpt lat="44.99609" lon="15.23405">
        <ele>739</ele>
        <time>2016-07-25T04:41:58Z</time>
      </trkpt>
      <trkpt lat="44.99626" lon="15.2339">
        <ele>739</ele>
        <time>2016-07-25T04:43:58Z</time>
      </trkpt>
      <trkpt lat="44.99642" lon="15.23375">
        <ele>740</ele>
        <time>2016-07-25T04:45:58Z</time>
      </trkpt>
      <trkpt lat="44.99656" lon="15.23376">
        <ele>741</ele>
        <time>2016-07-25T04:47:58Z</time>
      </trkpt>
      <trkpt lat="44.99675" lon="15.23402">
        <ele>745</ele>
        <time>2016-07-25T04:49:58Z</time>
      </trkpt>
      <trkpt lat="44.99703" lon="15.23434">
        <ele>745</ele>
        <time>2016-07-25T04:51:58Z</time>
      </trkpt>
      <trkpt lat="44.99798" lon="15.23537">
        <ele>747</ele>
        <time>2016-07-25T04:53:58Z</time>
      </trkpt>
      <trkpt lat="44.99811" lon="15.23548">
        <ele>747</ele>
        <time>2016-07-25T04:55:58Z</time>
      </trkpt>
      <trkpt lat="44.99824" lon="15.23551">
        <ele>747</ele>
        <time>2016-07-25T04:57:58Z</time>
      </trkpt>
      <trkpt lat="44.99836" lon="15.23554">
        <ele>746</ele>
        <time>2016-07-25T04:59:58Z</time>
      </trkpt>
      <trkpt lat="44.99848" lon="15.23568">
        <ele>746</ele>
        <time>2016-07-25T05:01:58Z</time>
      </trkpt>
      <trkpt lat="44.99856" lon="15.23579">
        <ele>745</ele>
        <time>2016-07-25T05:03:58Z</time>
      </trkpt>
      <trkpt lat="44.99869" lon="15.2359">
        <ele>744</ele>
        <time>2016-07-25T05:05:58Z</time>
      </trkpt>
      <trkpt lat="44.99883" lon="15.23595">
        <ele>743</ele>
        <time>2016-07-25T05:07:58Z</time>
      </trkpt>
      <trkpt lat="44.99935" lon="15.23615">
        <ele>738</ele>
        <time>2016-07-25T05:09:58Z</time>
      </trkpt>
      <trkpt lat="44.99963" lon="15.23635">
        <ele>736</ele>
        <time>2016-07-25T05:11:58Z</time>
      </trkpt>
      <trkpt lat="44.99978" lon="15.2365">
        <ele>734</ele>
        <time>2016-07-25T05:13:58Z</time>
      </trkpt>
      <trkpt lat="44.99978" lon="15.2365">
        <ele>734</ele>
        <time>2016-07-25T05:15:58Z</time>
      </trkpt>
      <trkpt lat="44.99998" lon="15.23671">
        <ele>732</ele>
        <time>2016-07-25T05:17:58Z</time>
      </trkpt>
      <trkpt lat="45.00022" lon="15.23704">
        <ele>730</ele>
        <time>2016-07-25T05:19:58Z</time>
      </trkpt>
      <trkpt lat="45.00023" lon="15.23707">
        <ele>729</ele>
        <time>2016-07-25T05:21:58Z</time>
      </trkpt>
      <trkpt lat="45.00034" lon="15.23729">
        <ele>728</ele>
        <time>2016-07-25T05:23:58Z</time>
      </trkpt>
      <trkpt lat="45.0004" lon="15.23752">
        <ele>727</ele>
        <time>2016-07-25T05:25:58Z</time>
      </trkpt>
      <trkpt lat="45.00041" lon="15.23777">
        <ele>726</ele>
        <time>2016-07-25T05:27:58Z</time>
      </trkpt>
      <trkpt lat="45.00038" lon="15.2381">
        <ele>724</ele>
        <time>2016-07-25T05:29:58Z</time>
      </trkpt>
      <trkpt lat="45.00034" lon="15.2387">
        <ele>722</ele>
        <time>2016-07-25T05:31:58Z</time>
      </trkpt>
      <trkpt lat="45.00035" lon="15.23905">
        <ele>721</ele>
        <time>2016-07-25T05:33:58Z</time>
      </trkpt>
      <trkpt lat="45.00042" lon="15.23976">
        <ele>719</ele>
        <time>2016-07-25T05:35:58Z</time>
      </trkpt>
      <trkpt lat="45.00044" lon="15.24028">
        <ele>717</ele>
        <time>2016-07-25T05:37:58Z</time>
      </trkpt>
      <trkpt lat="45.00045" lon="15.24059">
        <ele>715</ele>
        <time>2016-07-25T05:39:58Z</time>
      </trkpt>
      <trkpt lat="45.00042" lon="15.24098">
        <ele>713</ele>
        <time>2016-07-25T05:41:58Z</time>
      </trkpt>
      <trkpt lat="45.00036" lon="15.24129">
        <ele>713</ele>
        <time>2016-07-25T05:43:58Z</time>
      </trkpt>
      <trkpt lat="45.00032" lon="15.24162">
        <ele>711</ele>
        <time>2016-07-25T05:45:58Z</time>
      </trkpt>
      <trkpt lat="45.00031" lon="15.24195">
        <ele>710</ele>
        <time>2016-07-25T05:47:58Z</time>
      </trkpt>
      <trkpt lat="45.00027" lon="15.24281">
        <ele>706</ele>
        <time>2016-07-25T05:49:58Z</time>
      </trkpt>
      <trkpt lat="45.00028" lon="15.24333">
        <ele>704</ele>
        <time>2016-07-25T05:51:58Z</time>
      </trkpt>
      <trkpt lat="45.00035" lon="15.2437">
        <ele>703</ele>
        <time>2016-07-25T05:53:58Z</time>
      </trkpt>
      <trkpt lat="45.0004" lon="15.24401">
        <ele>703</ele>
        <time>2016-07-25T05:55:58Z</time>
      </trkpt>
      <trkpt lat="45.00045" lon="15.24437">
        <ele>702</ele>
        <time>2016-07-25T05:57:58Z</time>
      </trkpt>
      <trkpt lat="45.0006" lon="15.24539">
        <ele>700</ele>
        <time>2016-07-25T05:59:58Z</time>
      </trkpt>
      <trkpt lat="45.00062" lon="15.24582">
        <ele>701</ele>
        <time>2016-07-25T06:01:58Z</time>
      </trkpt>
      <trkpt lat="45.00069" lon="15.24614">
        <ele>700</ele>
        <time>2016-07-25T06:03:58Z</time>
      </trkpt>
      <trkpt lat="45.00075" lon="15.24626">
        <ele>699</ele>
        <time>2016-07-25T06:05:58Z</time>
      </trkpt>
      <trkpt lat="45.00076" lon="15.24628">
        <ele>699</ele>
        <time>2016-07-25T06:07:58Z</time>
      </trkpt>
      <trkpt lat="45.00081" lon="15.24648">
        <ele>698</ele>
        <time>2016-07-25T06:09:58Z</time>
      </trkpt>
      <trkpt lat="45.00084" lon="15.2467">
        <ele>697</ele>
        <time>2016-07-25T06:11:58Z</time>
      </trkpt>
      <trkpt lat="45.00085" lon="15.24692">
        <ele>696</ele>
        <time>2016-07-25T06:13:58Z</time>
      </trkpt>
      <trkpt lat="45.00089" lon="15.24747">
        <ele>695</ele>
        <time>2016-07-25T06:15:58Z</time>
      </trkpt>
      <trkpt lat="45.00092" lon="15.24797">
        <ele>694</ele>
        <time>2016-07-25T06:17:58Z</time>
      </trkpt>
      <trkpt lat="45.00108" lon="15.24863">
        <ele>694</ele>
        <time>2016-07-25T06:19:58Z</time>
      </trkpt>
      <trkpt lat="45.00118" lon="15.24901">
        <ele>694</ele>
        <time>2016-07-25T06:21:58Z</time>
      </trkpt>
      <trkpt lat="45.00128" lon="15.24941">
        <ele>694</ele>
        <time>2016-07-25T06:23:58Z</time>
      </trkpt>
      <trkpt lat="45.00152" lon="15.25002">
        <ele>693</ele>
        <time>2016-07-25T06:25:58Z</time>
      </trkpt>
      <trkpt lat="45.00158" lon="15.25026">
        <ele>692</ele>
        <time>2016-07-25T06:27:58Z</time>
      </trkpt>
      <trkpt lat="45.00158" lon="15.25049">
        <ele>692</ele>
        <time>2016-07-25T06:29:58Z</time>
      </trkpt>
      <trkpt lat="45.00155" lon="15.25076">
        <ele>692</ele>
        <time>2016-07-25T06:31:58Z</time>
      </trkpt>
      <trkpt lat="45.00152" lon="15.25112">
        <ele>693</ele>
        <time>2016-07-25T06:33:58Z</time>
      </trkpt>
      <trkpt lat="45.00153" lon="15.25138">
        <ele>693</ele>
        <time>2016-07-25T06:35:58Z</time>
      </trkpt>
      <trkpt lat="45.00154" lon="15.2516">
        <ele>693</ele>
        <time>2016-07-25T06:37:58Z</time>
      </trkpt>
      <trkpt lat="45.00161" lon="15.25191">
        <ele>692</ele>
        <time>2016-07-25T06:39:58Z</time>
      </trkpt>
      <trkpt lat="45.00169" lon="15.25222">
        <ele>692</ele>
        <time>2016-07-25T06:41:58Z</time>
      </trkpt>
      <trkpt lat="45.00182" lon="15.25253">
        <ele>691</ele>
        <time>2016-07-25T06:43:58Z</time>
      </trkpt>
      <trkpt lat="45.00204" lon="15.25313">
        <ele>690</ele>
        <time>2016-07-25T06:45:58Z</time>
      </trkpt>
      <trkpt lat="45.00211" lon="15.25339">
        <ele>690</ele>
        <time>2016-07-25T06:47:58Z</time>
      </trkpt>
      <trkpt lat="45.00222" lon="15.25382">
        <ele>689</ele>
        <time>2016-07-25T06:49:58Z</time>
      </trkpt>
      <trkpt lat="45.00235" lon="15.2542">
        <ele>689</ele>
        <time>2016-07-25T06:51:58Z</time>
      </trkpt>
      <trkpt lat="45.00254" lon="15.25463">
        <ele>685</ele>
        <time>2016-07-25T06:53:58Z</time>
      </trkpt>
      <trkpt lat="45.00263" lon="15.25492">
        <ele>682</ele>
        <time>2016-07-25T06:55:58Z</time>
      </trkpt>
      <trkpt lat="45.00267" lon="15.25499">
        <ele>681</ele>
        <time>2016-07-25T06:57:58Z</time>
      </trkpt>
      <trkpt lat="45.00271" lon="15.25506">
        <ele>681</ele>
        <time>2016-07-25T06:59:58Z</time>
      </trkpt>
      <trkpt lat="45.00275" lon="15.25513">
        <ele>680</ele>
        <time>2016-07-25T07:01:58Z</time>
      </trkpt>
      <trkpt lat="45.00278" lon="15.2552">
        <ele>680</ele>
        <time>2016-07-25T07:03:58Z</time>
      </trkpt>
      <trkpt lat="45.00281" lon="15.25527">
        <ele>680</ele>
        <time>2016-07-25T07:05:58Z</time>
      </trkpt>
      <trkpt lat="45.00284" lon="15.25535">
        <ele>679</ele>
        <time>2016-07-25T07:07:58Z</time>
      </trkpt>
      <trkpt lat="45.00287" lon="15.25543">
        <ele>679</ele>
        <time>2016-07-25T07:09:58Z</time>
      </trkpt>
      <trkpt lat="45.00289" lon="15.25551">
        <ele>679</ele>
        <time>2016-07-25T07:11:58Z</time>
      </trkpt>
      <trkpt lat="45.00292" lon="15.2556">
        <ele>678</ele>
        <time>2016-07-25T07:13:58Z</time>
      </trkpt>
      <trkpt lat="45.00295" lon="15.2557">
        <ele>678</ele>
        <time>2016-07-25T07:15:58Z</time>
      </trkpt>
      <trkpt lat="45.00298" lon="15.25579">
        <ele>677</ele>
        <time>2016-07-25T07:17:58Z</time>
      </trkpt>
      <trkpt lat="45.00301" lon="15.25589">
        <ele>677</ele>
        <time>2016-07-25T07:19:58Z</time>
      </trkpt>
      <trkpt lat="45.00303" lon="15.25599">
        <ele>677</ele>
        <time>2016-07-25T07:21:58Z</time>
      </trkpt>
      <trkpt lat="45.00305" lon="15.25609">
        <ele>676</ele>
        <time>2016-07-25T07:23:58Z</time>
      </trkpt>
      <trkpt lat="45.00307" lon="15.2562">
        <ele>676</ele>
        <time>2016-07-25T07:25:58Z</time>
      </trkpt>
      <trkpt lat="45.00309" lon="15.25632">
        <ele>675</ele>
        <time>2016-07-25T07:27:58Z</time>
      </trkpt>
      <trkpt lat="45.0031" lon="15.25644">
        <ele>675</ele>
        <time>2016-07-25T07:29:58Z</time>
      </trkpt>
      <trkpt lat="45.00311" lon="15.25655">
        <ele>675</ele>
        <time>2016-07-25T07:31:58Z</time>
      </trkpt>
      <trkpt lat="45.00312" lon="15.25667">
        <ele>675</ele>
        <time>2016-07-25T07:33:58Z</time>
      </trkpt>
      <trkpt lat="45.00308" lon="15.25755">
        <ele>668</ele>
        <time>2016-07-25T07:35:58Z</time>
      </trkpt>
      <trkpt lat="45.00288" lon="15.25919">
        <ele>666</ele>
        <time>2016-07-25T07:37:58Z</time>
      </trkpt>
      <trkpt lat="45.00286" lon="15.25932">
        <ele>666</ele>
        <time>2016-07-25T07:39:58Z</time>
      </trkpt>
      <trkpt lat="45.00285" lon="15.25945">
        <ele>665</ele>
        <time>2016-07-25T07:41:58Z</time>
      </trkpt>
      <trkpt lat="45.00283" lon="15.25958">
        <ele>665</ele>
        <time>2016-07-25T07:43:58Z</time>
      </trkpt>
      <trkpt lat="45.00282" lon="15.25971">
        <ele>665</ele>
        <time>2016-07-25T07:45:58Z</time>
      </trkpt>
      <trkpt lat="45.00281" lon="15.25984">
        <ele>664</ele>
        <time>2016-07-25T07:47:58Z</time>
      </trkpt>
      <trkpt lat="45.00281" lon="15.25998">
        <ele>664</ele>
        <time>2016-07-25T07:49:58Z</time>
      </trkpt>
      <trkpt lat="45.00281" lon="15.26011">
        <ele>664</ele>
        <time>2016-07-25T07:51:58Z</time>
      </trkpt>
      <trkpt lat="45.00281" lon="15.26025">
        <ele>664</ele>
        <time>2016-07-25T07:53:58Z</time>
      </trkpt>
      <trkpt lat="45.00281" lon="15.26038">
        <ele>664</ele>
        <time>2016-07-25T07:55:58Z</time>
      </trkpt>
      <trkpt lat="45.00282" lon="15.26052">
        <ele>664</ele>
        <time>2016-07-25T07:57:58Z</time>
      </trkpt>
      <trkpt lat="45.00283" lon="15.26065">
        <ele>664</ele>
        <time>2016-07-25T07:59:58Z</time>
      </trkpt>
      <trkpt lat="45.00285" lon="15.26079">
        <ele>664</ele>
        <time>2016-07-25T08:01:58Z</time>
      </trkpt>
      <trkpt lat="45.00286" lon="15.26092">
        <ele>663</ele>
        <time>2016-07-25T08:03:58Z</time>
      </trkpt>
      <trkpt lat="45.00289" lon="15.26106">
        <ele>663</ele>
        <time>2016-07-25T08:05:58Z</time>
      </trkpt>
      <trkpt lat="45.00291" lon="15.26119">
        <ele>662</ele>
        <time>2016-07-25T08:07:58Z</time>
      </trkpt>
      <trkpt lat="45.00294" lon="15.26132">
        <ele>662</ele>
        <time>2016-07-25T08:09:58Z</time>
      </trkpt>
      <trkpt lat="45.00297" lon="15.26145">
        <ele>661</ele>
        <time>2016-07-25T08:11:58Z</time>
      </trkpt>
      <trkpt lat="45.003" lon="15.26158">
        <ele>661</ele>
        <time>2016-07-25T08:13:58Z</time>
      </trkpt>
      <trkpt lat="45.00304" lon="15.2617">
        <ele>660</ele>
        <time>2016-07-25T08:15:58Z</time>
      </trkpt>
      <trkpt lat="45.00308" lon="15.26183">
        <ele>660</ele>
        <time>2016-07-25T08:17:58Z</time>
      </trkpt>
      <trkpt lat="45.00305" lon="15.26217">
        <ele>660</ele>
        <time>2016-07-25T08:19:58Z</time>
      </trkpt>
      <trkpt lat="45.00303" lon="15.26225">
        <ele>660</ele>
        <time>2016-07-25T08:21:58Z</time>
      </trkpt>
      <trkpt lat="45.00302" lon="15.26233">
        <ele>660</ele>
        <time>2016-07-25T08:23:58Z</time>
      </trkpt>
      <trkpt lat="45.003" lon="15.26241">
        <ele>660</ele>
        <time>2016-07-25T08:25:58Z</time>
      </trkpt>
      <trkpt lat="45.00299" lon="15.26249">
        <ele>660</ele>
        <time>2016-07-25T08:27:58Z</time>
      </trkpt>
      <trkpt lat="45.00298" lon="15.26257">
        <ele>660</ele>
        <time>2016-07-25T08:29:58Z</time>
      </trkpt>
      <trkpt lat="45.00298" lon="15.26266">
        <ele>660</ele>
        <time>2016-07-25T08:31:58Z</time>
      </trkpt>
      <trkpt lat="45.00298" lon="15.26274">
        <ele>660</ele>
        <time>2016-07-25T08:33:58Z</time>
      </trkpt>
      <trkpt lat="45.00298" lon="15.26282">
        <ele>661</ele>
        <time>2016-07-25T08:35:58Z</time>
      </trkpt>
      <trkpt lat="45.00298" lon="15.26291">
        <ele>661</ele>
        <time>2016-07-25T08:37:58Z</time>
      </trkpt>
      <trkpt lat="45.00299" lon="15.263">
        <ele>661</ele>
        <time>2016-07-25T08:39:58Z</time>
      </trkpt>
      <trkpt lat="45.003" lon="15.26308">
        <ele>661</ele>
        <time>2016-07-25T08:41:58Z</time>
      </trkpt>
      <trkpt lat="45.00302" lon="15.26317">
        <ele>661</ele>
        <time>2016-07-25T08:43:58Z</time>
      </trkpt>
      <trkpt lat="45.00303" lon="15.26325">
        <ele>661</ele>
        <time>2016-07-25T08:45:58Z</time>
      </trkpt>
      <trkpt lat="45.00306" lon="15.26333">
        <ele>661</ele>
        <time>2016-07-25T08:47:58Z</time>
      </trkpt>
      <trkpt lat="45.00315" lon="15.26368">
        <ele>660</ele>
        <time>2016-07-25T08:49:58Z</time>
      </trkpt>
      <trkpt lat="45.00315" lon="15.2638">
        <ele>660</ele>
        <time>2016-07-25T08:51:58Z</time>
      </trkpt>
      <trkpt lat="45.00316" lon="15.26392">
        <ele>660</ele>
        <time>2016-07-25T08:53:58Z</time>
      </trkpt>
      <trkpt lat="45.00317" lon="15.26404">
        <ele>659</ele>
        <time>2016-07-25T08:55:58Z</time>
      </trkpt>
      <trkpt lat="45.00318" lon="15.26416">
        <ele>659</ele>
        <time>2016-07-25T08:57:58Z</time>
      </trkpt>
      <trkpt lat="45.0032" lon="15.26428">
        <ele>659</ele>
        <time>2016-07-25T08:59:58Z</time>
      </trkpt>
      <trkpt lat="45.00322" lon="15.26439">
        <ele>659</ele>
        <time>2016-07-25T09:01:58Z</time>
      </trkpt>
      <trkpt lat="45.00324" lon="15.26451">
        <ele>659</ele>
        <time>2016-07-25T09:03:58Z</time>
      </trkpt>
      <trkpt lat="45.00327" lon="15.26462">
        <ele>659</ele>
        <time>2016-07-25T09:05:58Z</time>
      </trkpt>
      <trkpt lat="45.0033" lon="15.26473">
        <ele>659</ele>
        <time>2016-07-25T09:07:58Z</time>
      </trkpt>
      <trkpt lat="45.00333" lon="15.26484">
        <ele>659</ele>
        <time>2016-07-25T09:09:58Z</time>
      </trkpt>
      <trkpt lat="45.00336" lon="15.26495">
        <ele>659</ele>
        <time>2016-07-25T09:11:58Z</time>
      </trkpt>
      <trkpt lat="45.0034" lon="15.26505">
        <ele>658</ele>
        <time>2016-07-25T09:13:58Z</time>
      </trkpt>
      <trkpt lat="45.00343" lon="15.26513">
        <ele>658</ele>
        <time>2016-07-25T09:15:58Z</time>
      </trkpt>
      <trkpt lat="45.00345" lon="15.26521">
        <ele>657</ele>
        <time>2016-07-25T09:17:58Z</time>
      </trkpt>
      <trkpt lat="45.00348" lon="15.26529">
        <ele>657</ele>
        <time>2016-07-25T09:19:58Z</time>
      </trkpt>
      <trkpt lat="45.0035" lon="15.26537">
        <ele>656</ele>
        <time>2016-07-25T09:21:58Z</time>
      </trkpt>
      <trkpt lat="45.00352" lon="15.26546">
        <ele>656</ele>
        <time>2016-07-25T09:23:58Z</time>
      </trkpt>
      <trkpt lat="45.00354" lon="15.26555">
        <ele>655</ele>
        <time>2016-07-25T09:25:58Z</time>
      </trkpt>
      <trkpt lat="45.00356" lon="15.26564">
        <ele>655</ele>
        <time>2016-07-25T09:27:58Z</time>
      </trkpt>
      <trkpt lat="45.00357" lon="15.26574">
        <ele>655</ele>
        <time>2016-07-25T09:29:58Z</time>
      </trkpt>
      <trkpt lat="45.00358" lon="15.26583">
        <ele>654</ele>
        <time>2016-07-25T09:31:58Z</time>
      </trkpt>
      <trkpt lat="45.00359" lon="15.26593">
        <ele>654</ele>
        <time>2016-07-25T09:33:58Z</time>
      </trkpt>
      <trkpt lat="45.00359" lon="15.26603">
        <ele>654</ele>
        <time>2016-07-25T09:35:58Z</time>
      </trkpt>
      <trkpt lat="45.00359" lon="15.26611">
        <ele>654</ele>
        <time>2016-07-25T09:37:58Z</time>
      </trkpt>
      <trkpt lat="45.00359" lon="15.26619">
        <ele>654</ele>
        <time>2016-07-25T09:39:58Z</time>
      </trkpt>
      <trkpt lat="45.00359" lon="15.26627">
        <ele>654</ele>
        <time>2016-07-25T09:41:58Z</time>
      </trkpt>
      <trkpt lat="45.0036" lon="15.26636">
        <ele>654</ele>
        <time>2016-07-25T09:43:58Z</time>
      </trkpt>
      <trkpt lat="45.0036" lon="15.26643">
        <ele>654</ele>
        <time>2016-07-25T09:45:58Z</time>
      </trkpt>
      <trkpt lat="45.00361" lon="15.2665">
        <ele>654</ele>
        <time>2016-07-25T09:47:58Z</time>
      </trkpt>
      <trkpt lat="45.00363" lon="15.26657">
        <ele>654</ele>
        <time>2016-07-25T09:49:58Z</time>
      </trkpt>
      <trkpt lat="45.00375" lon="15.26745">
        <ele>652</ele>
        <time>2016-07-25T09:51:58Z</time>
      </trkpt>
      <trkpt lat="45.00375" lon="15.26753">
        <ele>651</ele>
        <time>2016-07-25T09:53:58Z</time>
      </trkpt>
      <trkpt lat="45.00375" lon="15.2676">
        <ele>650</ele>
        <time>2016-07-25T09:55:58Z</time>
      </trkpt>
      <trkpt lat="45.00375" lon="15.26767">
        <ele>650</ele>
        <time>2016-07-25T09:57:58Z</time>
      </trkpt>
      <trkpt lat="45.00374" lon="15.26775">
        <ele>649</ele>
        <time>2016-07-25T09:59:58Z</time>
      </trkpt>
      <trkpt lat="45.00373" lon="15.26782">
        <ele>648</ele>
        <time>2016-07-25T10:01:58Z</time>
      </trkpt>
      <trkpt lat="45.00372" lon="15.26789">
        <ele>648</ele>
        <time>2016-07-25T10:03:58Z</time>
      </trkpt>
      <trkpt lat="45.00371" lon="15.26796">
        <ele>647</ele>
        <time>2016-07-25T10:05:58Z</time>
      </trkpt>
      <trkpt lat="45.00369" lon="15.26803">
        <ele>647</ele>
        <time>2016-07-25T10:07:58Z</time>
      </trkpt>
      <trkpt lat="45.00367" lon="15.26809">
        <ele>646</ele>
        <time>2016-07-25T10:09:58Z</time>
      </trkpt>
      <trkpt lat="45.00365" lon="15.26815">
        <ele>646</ele>
        <time>2016-07-25T10:11:58Z</time>
      </trkpt>
      <trkpt lat="45.00363" lon="15.26821">
        <ele>646</ele>
        <time>2016-07-25T10:13:58Z</time>
      </trkpt>
      <trkpt lat="45.0036" lon="15.26826">
        <ele>646</ele>
        <time>2016-07-25T10:15:58Z</time>
      </trkpt>
      <trkpt lat="45.00356" lon="15.26835">
        <ele>645</ele>
        <time>2016-07-25T10:17:58Z</time>
      </trkpt>
      <trkpt lat="45.00352" lon="15.26844">
        <ele>645</ele>
        <time>2016-07-25T10:19:58Z</time>
      </trkpt>
      <trkpt lat="45.00348" lon="15.26853">
        <ele>645</ele>
        <time>2016-07-25T10:21:58Z</time>
      </trkpt>
      <trkpt lat="45.00345" lon="15.26862">
        <ele>644</ele>
        <time>2016-07-25T10:23:58Z</time>
      </trkpt>
      <trkpt lat="45.00342" lon="15.26871">
        <ele>644</ele>
        <time>2016-07-25T10:25:58Z</time>
      </trkpt>
      <trkpt lat="45.00339" lon="15.26882">
        <ele>643</ele>
        <time>2016-07-25T10:27:58Z</time>
      </trkpt>
      <trkpt lat="45.00336" lon="15.26892">
        <ele>643</ele>
        <time>2016-07-25T10:29:58Z</time>
      </trkpt>
      <trkpt lat="45.00334" lon="15.26903">
        <ele>642</ele>
        <time>2016-07-25T10:31:58Z</time>
      </trkpt>
      <trkpt lat="45.00332" lon="15.26913">
        <ele>642</ele>
        <time>2016-07-25T10:33:58Z</time>
      </trkpt>
      <trkpt lat="45.0033" lon="15.26924">
        <ele>641</ele>
        <time>2016-07-25T10:35:58Z</time>
      </trkpt>
      <trkpt lat="45.00329" lon="15.26935">
        <ele>640</ele>
        <time>2016-07-25T10:37:58Z</time>
      </trkpt>
      <trkpt lat="45.00328" lon="15.26946">
        <ele>640</ele>
        <time>2016-07-25T10:39:58Z</time>
      </trkpt>
      <trkpt lat="45.00328" lon="15.26957">
        <ele>639</ele>
        <time>2016-07-25T10:41:58Z</time>
      </trkpt>
      <trkpt lat="45.00327" lon="15.26969">
        <ele>638</ele>
        <time>2016-07-25T10:43:58Z</time>
      </trkpt>
      <trkpt lat="45.00321" lon="15.27042">
        <ele>635</ele>
        <time>2016-07-25T10:45:58Z</time>
      </trkpt>
      <trkpt lat="45.00319" lon="15.2705">
        <ele>636</ele>
        <time>2016-07-25T10:47:58Z</time>
      </trkpt>
      <trkpt lat="45.00318" lon="15.27057">
        <ele>635</ele>
        <time>2016-07-25T10:49:58Z</time>
      </trkpt>
      <trkpt lat="45.00318" lon="15.27065">
        <ele>635</ele>
        <time>2016-07-25T10:51:58Z</time>
      </trkpt>
      <trkpt lat="45.00317" lon="15.27073">
        <ele>635</ele>
        <time>2016-07-25T10:53:58Z</time>
      </trkpt>
      <trkpt lat="45.00317" lon="15.27081">
        <ele>635</ele>
        <time>2016-07-25T10:55:58Z</time>
      </trkpt>
      <trkpt lat="45.00318" lon="15.27088">
        <ele>634</ele>
        <time>2016-07-25T10:57:58Z</time>
      </trkpt>
      <trkpt lat="45.00318" lon="15.27095">
        <ele>634</ele>
        <time>2016-07-25T10:59:58Z</time>
      </trkpt>
      <trkpt lat="45.00319" lon="15.27102">
        <ele>634</ele>
        <time>2016-07-25T11:01:58Z</time>
      </trkpt>
      <trkpt lat="45.0032" lon="15.27108">
        <ele>634</ele>
        <time>2016-07-25T11:03:58Z</time>
      </trkpt>
      <trkpt lat="45.00322" lon="15.27115">
        <ele>633</ele>
        <time>2016-07-25T11:05:58Z</time>
      </trkpt>
      <trkpt lat="45.00324" lon="15.27122">
        <ele>633</ele>
        <time>2016-07-25T11:07:58Z</time>
      </trkpt>
      <trkpt lat="45.00352" lon="15.27183">
        <ele>629</ele>
        <time>2016-07-25T11:09:58Z</time>
      </trkpt>
      <trkpt lat="45.00365" lon="15.27227">
        <ele>626</ele>
        <time>2016-07-25T11:11:58Z</time>
      </trkpt>
      <trkpt lat="45.00363" lon="15.27245">
        <ele>626</ele>
        <time>2016-07-25T11:13:58Z</time>
      </trkpt>
      <trkpt lat="45.00361" lon="15.27258">
        <ele>627</ele>
        <time>2016-07-25T11:15:58Z</time>
      </trkpt>
      <trkpt lat="45.0036" lon="15.27271">
        <ele>627</ele>
        <time>2016-07-25T11:17:58Z</time>
      </trkpt>
      <trkpt lat="45.00359" lon="15.27291">
        <ele>627</ele>
        <time>2016-07-25T11:19:58Z</time>
      </trkpt>
      <trkpt lat="45.00358" lon="15.27331">
        <ele>627</ele>
        <time>2016-07-25T11:21:58Z</time>
      </trkpt>
      <trkpt lat="45.00357" lon="15.27379">
        <ele>627</ele>
        <time>2016-07-25T11:23:58Z</time>
      </trkpt>
      <trkpt lat="45.00356" lon="15.27407">
        <ele>626</ele>
        <time>2016-07-25T11:25:58Z</time>
      </trkpt>
      <trkpt lat="45.00356" lon="15.27422">
        <ele>626</ele>
        <time>2016-07-25T11:27:58Z</time>
      </trkpt>
      <trkpt lat="45.00355" lon="15.27438">
        <ele>626</ele>
        <time>2016-07-25T11:29:58Z</time>
      </trkpt>
      <trkpt lat="45.00354" lon="15.27453">
        <ele>625</ele>
        <time>2016-07-25T11:31:58Z</time>
      </trkpt>
      <trkpt lat="45.00353" lon="15.27468">
        <ele>625</ele>
        <time>2016-07-25T11:33:58Z</time>
      </trkpt>
      <trkpt lat="45.00351" lon="15.27484">
        <ele>625</ele>
        <time>2016-07-25T11:35:58Z</time>
      </trkpt>
      <trkpt lat="45.00349" lon="15.275">
        <ele>624</ele>
        <time>2016-07-25T11:37:58Z</time>
      </trkpt>
      <trkpt lat="45.00347" lon="15.27516">
        <ele>624</ele>
        <time>2016-07-25T11:39:58Z</time>
      </trkpt>
      <trkpt lat="45.00344" lon="15.27531">
        <ele>624</ele>
        <time>2016-07-25T11:41:58Z</time>
      </trkpt>
      <trkpt lat="45.00341" lon="15.27547">
        <ele>624</ele>
        <time>2016-07-25T11:43:58Z</time>
      </trkpt>
      <trkpt lat="45.00338" lon="15.27562">
        <ele>623</ele>
        <time>2016-07-25T11:45:58Z</time>
      </trkpt>
      <trkpt lat="45.00334" lon="15.27578">
        <ele>623</ele>
        <time>2016-07-25T11:47:58Z</time>
      </trkpt>
      <trkpt lat="45.00301" lon="15.27735">
        <ele>620</ele>
        <time>2016-07-25T11:49:58Z</time>
      </trkpt>
      <trkpt lat="45.00246" lon="15.27967">
        <ele>617</ele>
        <time>2016-07-25T11:51:58Z</time>
      </trkpt>
      <trkpt lat="45.00209" lon="15.28162">
        <ele>620</ele>
        <time>2016-07-25T11:53:58Z</time>
      </trkpt>
      <trkpt lat="45.00189" lon="15.28272">
        <ele>619</ele>
        <time>2016-07-25T11:55:58Z</time>
      </trkpt>
      <trkpt lat="45.00187" lon="15.28285">
        <ele>619</ele>
        <time>2016-07-25T11:57:58Z</time>
      </trkpt>
      <trkpt lat="45.00186" lon="15.28299">
        <ele>619</ele>
        <time>2016-07-25T11:59:58Z</time>
      </trkpt>
      <trkpt lat="45.00184" lon="15.28312">
        <ele>618</ele>
        <time>2016-07-25T12:01:58Z</time>
      </trkpt>
      <trkpt lat="45.00183" lon="15.28326">
        <ele>618</ele>
        <time>2016-07-25T12:03:58Z</time>
      </trkpt>
      <trkpt lat="45.0018" lon="15.28339">
        <ele>618</ele>
        <time>2016-07-25T12:05:58Z</time>
      </trkpt>
      <trkpt lat="45.00178" lon="15.28352">
        <ele>618</ele>
        <time>2016-07-25T12:07:58Z</time>
      </trkpt>
      <trkpt lat="45.00175" lon="15.28367">
        <ele>618</ele>
        <time>2016-07-25T12:09:58Z</time>
      </trkpt>
      <trkpt lat="45.00172" lon="15.28381">
        <ele>618</ele>
        <time>2016-07-25T12:11:58Z</time>
      </trkpt>
      <trkpt lat="45.00168" lon="15.28395">
        <ele>618</ele>
        <time>2016-07-25T12:13:58Z</time>
      </trkpt>
      <trkpt lat="45.00164" lon="15.28408">
        <ele>618</ele>
        <time>2016-07-25T12:15:58Z</time>
      </trkpt>
      <trkpt lat="45.0016" lon="15.28422">
        <ele>618</ele>
        <time>2016-07-25T12:17:58Z</time>
      </trkpt>
      <trkpt lat="45.00156" lon="15.28435">
        <ele>618</ele>
        <time>2016-07-25T12:19:58Z</time>
      </trkpt>
      <trkpt lat="45.0013" lon="15.28572">
        <ele>618</ele>
        <time>2016-07-25T12:21:58Z</time>
      </trkpt>
      <trkpt lat="45.00128" lon="15.28587">
        <ele>618</ele>
        <time>2016-07-25T12:23:58Z</time>
      </trkpt>
      <trkpt lat="45.00126" lon="15.28602">
        <ele>617</ele>
        <time>2016-07-25T12:25:58Z</time>
      </trkpt>
      <trkpt lat="45.00125" lon="15.28617">
        <ele>617</ele>
        <time>2016-07-25T12:27:58Z</time>
      </trkpt>
      <trkpt lat="45.00124" lon="15.28632">
        <ele>617</ele>
        <time>2016-07-25T12:29:58Z</time>
      </trkpt>
      <trkpt lat="45.00124" lon="15.28647">
        <ele>616</ele>
        <time>2016-07-25T12:31:58Z</time>
      </trkpt>
      <trkpt lat="45.00123" lon="15.28664">
        <ele>616</ele>
        <time>2016-07-25T12:33:58Z</time>
      </trkpt>
      <trkpt lat="45.00123" lon="15.28681">
        <ele>615</ele>
        <time>2016-07-25T12:35:58Z</time>
      </trkpt>
      <trkpt lat="45.00124" lon="15.28698">
        <ele>615</ele>
        <time>2016-07-25T12:37:58Z</time>
      </trkpt>
      <trkpt lat="45.00125" lon="15.28715">
        <ele>615</ele>
        <time>2016-07-25T12:39:58Z</time>
      </trkpt>
      <trkpt lat="45.00132" lon="15.28805">
        <ele>613</ele>
        <time>2016-07-25T12:41:58Z</time>
      </trkpt>
      <trkpt lat="45.00133" lon="15.28828">
        <ele>613</ele>
        <time>2016-07-25T12:43:58Z</time>
      </trkpt>
      <trkpt lat="45.00134" lon="15.28836">
        <ele>612</ele>
        <time>2016-07-25T12:45:58Z</time>
      </trkpt>
      <trkpt lat="45.00135" lon="15.28843">
        <ele>612</ele>
        <time>2016-07-25T12:47:58Z</time>
      </trkpt>
      <trkpt lat="45.00135" lon="15.28851">
        <ele>611</ele>
        <time>2016-07-25T12:49:58Z</time>
      </trkpt>
      <trkpt lat="45.00135" lon="15.28859">
        <ele>611</ele>
        <time>2016-07-25T12:51:58Z</time>
      </trkpt>
      <trkpt lat="45.00135" lon="15.28866">
        <ele>610</ele>
        <time>2016-07-25T12:53:58Z</time>
      </trkpt>
      <trkpt lat="45.00134" lon="15.28874">
        <ele>610</ele>
        <time>2016-07-25T12:55:58Z</time>
      </trkpt>
      <trkpt lat="45.00132" lon="15.28881">
        <ele>609</ele>
        <time>2016-07-25T12:57:58Z</time>
      </trkpt>
      <trkpt lat="45.00131" lon="15.28889">
        <ele>609</ele>
        <time>2016-07-25T12:59:58Z</time>
      </trkpt>
      <trkpt lat="45.00129" lon="15.28895">
        <ele>609</ele>
        <time>2016-07-25T13:01:58Z</time>
      </trkpt>
      <trkpt lat="45.00127" lon="15.28901">
        <ele>608</ele>
        <time>2016-07-25T13:03:58Z</time>
      </trkpt>
      <trkpt lat="45.00125" lon="15.28907">
        <ele>608</ele>
        <time>2016-07-25T13:05:58Z</time>
      </trkpt>
      <trkpt lat="45.00122" lon="15.28912">
        <ele>608</ele>
        <time>2016-07-25T13:07:58Z</time>
      </trkpt>
      <trkpt lat="45.0012" lon="15.28918">
        <ele>608</ele>
        <time>2016-07-25T13:09:58Z</time>
      </trkpt>
      <trkpt lat="45.00117" lon="15.28923">
        <ele>608</ele>
        <time>2016-07-25T13:11:58Z</time>
      </trkpt>
      <trkpt lat="45.00114" lon="15.28928">
        <ele>608</ele>
        <time>2016-07-25T13:13:58Z</time>
      </trkpt>
      <trkpt lat="45.00096" lon="15.28952">
        <ele>608</ele>
        <time>2016-07-25T13:15:58Z</time>
      </trkpt>
      <trkpt lat="45.00094" lon="15.28954">
        <ele>608</ele>
        <time>2016-07-25T13:17:58Z</time>
      </trkpt>
      <trkpt lat="45.00091" lon="15.28957">
        <ele>608</ele>
        <time>2016-07-25T13:19:58Z</time>
      </trkpt>
      <trkpt lat="45.0009" lon="15.28961">
        <ele>608</ele>
        <time>2016-07-25T13:21:58Z</time>
      </trkpt>
      <trkpt lat="45.00088" lon="15.28964">
        <ele>608</ele>
        <time>2016-07-25T13:23:58Z</time>
      </trkpt>
      <trkpt lat="45.00087" lon="15.28968">
        <ele>608</ele>
        <time>2016-07-25T13:25:58Z</time>
      </trkpt>
      <trkpt lat="45.00086" lon="15.28972">
        <ele>608</ele>
        <time>2016-07-25T13:27:58Z</time>
      </trkpt>
      <trkpt lat="45.00085" lon="15.28976">
        <ele>608</ele>
        <time>2016-07-25T13:29:58Z</time>
      </trkpt>
      <trkpt lat="45.00085" lon="15.28981">
        <ele>608</ele>
        <time>2016-07-25T13:31:58Z</time>
      </trkpt>
      <trkpt lat="45.00085" lon="15.28985">
        <ele>607</ele>
        <time>2016-07-25T13:33:58Z</time>
      </trkpt>
      <trkpt lat="45.00085" lon="15.28989">
        <ele>607</ele>
        <time>2016-07-25T13:35:58Z</time>
      </trkpt>
      <trkpt lat="45.00086" lon="15.28993">
        <ele>607</ele>
        <time>2016-07-25T13:37:58Z</time>
      </trkpt>
      <trkpt lat="45.00087" lon="15.28997">
        <ele>607</ele>
        <time>2016-07-25T13:39:58Z</time>
      </trkpt>
      <trkpt lat="45.00088" lon="15.29001">
        <ele>607</ele>
        <time>2016-07-25T13:41:58Z</time>
      </trkpt>
      <trkpt lat="45.0009" lon="15.29005">
        <ele>607</ele>
        <time>2016-07-25T13:43:58Z</time>
      </trkpt>
      <trkpt lat="45.00092" lon="15.29008">
        <ele>607</ele>
        <time>2016-07-25T13:45:58Z</time>
      </trkpt>
      <trkpt lat="45.0012" lon="15.29092">
        <ele>605</ele>
        <time>2016-07-25T13:47:58Z</time>
      </trkpt>
      <trkpt lat="45.00123" lon="15.29101">
        <ele>605</ele>
        <time>2016-07-25T13:49:58Z</time>
      </trkpt>
      <trkpt lat="45.00126" lon="15.2911">
        <ele>605</ele>
        <time>2016-07-25T13:51:58Z</time>
      </trkpt>
      <trkpt lat="45.00129" lon="15.2912">
        <ele>605</ele>
        <time>2016-07-25T13:53:58Z</time>
      </trkpt>
      <trkpt lat="45.00131" lon="15.29129">
        <ele>605</ele>
        <time>2016-07-25T13:55:58Z</time>
      </trkpt>
      <trkpt lat="45.00133" lon="15.29139">
        <ele>605</ele>
        <time>2016-07-25T13:57:58Z</time>
      </trkpt>
      <trkpt lat="45.00135" lon="15.29149">
        <ele>605</ele>
        <time>2016-07-25T13:59:58Z</time>
      </trkpt>
      <trkpt lat="45.00136" lon="15.29159">
        <ele>605</ele>
        <time>2016-07-25T14:01:58Z</time>
      </trkpt>
      <trkpt lat="45.00137" lon="15.29169">
        <ele>605</ele>
        <time>2016-07-25T14:03:58Z</time>
      </trkpt>
      <trkpt lat="45.00137" lon="15.29179">
        <ele>605</ele>
        <time>2016-07-25T14:05:58Z</time>
      </trkpt>
      <trkpt lat="45.00138" lon="15.29188">
        <ele>606</ele>
        <time>2016-07-25T14:07:58Z</time>
      </trkpt>
      <trkpt lat="45.00138" lon="15.29198">
        <ele>606</ele>
        <time>2016-07-25T14:09:58Z</time>
      </trkpt>
      <trkpt lat="45.00137" lon="15.29208">
        <ele>606</ele>
        <time>2016-07-25T14:11:58Z</time>
      </trkpt>
      <trkpt lat="45.00137" lon="15.29218">
        <ele>606</ele>
        <time>2016-07-25T14:13:58Z</time>
      </trkpt>
      <trkpt lat="45.00136" lon="15.29227">
        <ele>607</ele>
        <time>2016-07-25T14:15:58Z</time>
      </trkpt>
      <trkpt lat="45.00135" lon="15.29237">
        <ele>607</ele>
        <time>2016-07-25T14:17:58Z</time>
      </trkpt>
      <trkpt lat="45.00101" lon="15.29714">
        <ele>615</ele>
        <time>2016-07-25T14:19:58Z</time>
      </trkpt>
      <trkpt lat="45.00101" lon="15.29722">
        <ele>615</ele>
        <time>2016-07-25T14:21:58Z</time>
      </trkpt>
      <trkpt lat="45.001" lon="15.29731">
        <ele>615</ele>
        <time>2016-07-25T14:23:58Z</time>
      </trkpt>
      <trkpt lat="45.00099" lon="15.2974">
        <ele>615</ele>
        <time>2016-07-25T14:25:58Z</time>
      </trkpt>
      <trkpt lat="45.00097" lon="15.29748">
        <ele>615</ele>
        <time>2016-07-25T14:27:58Z</time>
      </trkpt>
      <trkpt lat="45.00095" lon="15.29757">
        <ele>615</ele>
        <time>2016-07-25T14:29:58Z</time>
      </trkpt>
      <trkpt lat="45.00093" lon="15.29765">
        <ele>616</ele>
        <time>2016-07-25T14:31:58Z</time>
      </trkpt>
      <trkpt lat="45.00091" lon="15.29773">
        <ele>616</ele>
        <time>2016-07-25T14:33:58Z</time>
      </trkpt>
      <trkpt lat="45.00088" lon="15.29781">
        <ele>616</ele>
        <time>2016-07-25T14:35:58Z</time>
      </trkpt>
      <trkpt lat="45.00085" lon="15.29788">
        <ele>617</ele>
        <time>2016-07-25T14:37:58Z</time>
      </trkpt>
      <trkpt lat="45.00082" lon="15.29795">
        <ele>617</ele>
        <time>2016-07-25T14:39:58Z</time>
      </trkpt>
      <trkpt lat="45.00078" lon="15.29802">
        <ele>618</ele>
        <time>2016-07-25T14:41:58Z</time>
      </trkpt>
      <trkpt lat="45.00074" lon="15.29809">
        <ele>619</ele>
        <time>2016-07-25T14:43:58Z</time>
      </trkpt>
      <trkpt lat="45.0007" lon="15.29815">
        <ele>619</ele>
        <time>2016-07-25T14:45:58Z</time>
      </trkpt>
      <trkpt lat="45.00066" lon="15.29822">
        <ele>620</ele>
        <time>2016-07-25T14:47:58Z</time>
      </trkpt>
      <trkpt lat="45.00011" lon="15.29908">
        <ele>620</ele>
        <time>2016-07-25T14:49:58Z</time>
      </trkpt>
      <trkpt lat="45.00005" lon="15.29914">
        <ele>620</ele>
        <time>2016-07-25T14:51:58Z</time>
      </trkpt>
      <trkpt lat="44.99999" lon="15.2992">
        <ele>620</ele>
        <time>2016-07-25T14:53:58Z</time>
      </trkpt>
      <trkpt lat="44.99994" lon="15.29926">
        <ele>620</ele>
        <time>2016-07-25T14:55:58Z</time>
      </trkpt>
      <trkpt lat="44.99988" lon="15.29933">
        <ele>621</ele>
        <time>2016-07-25T14:57:58Z</time>
      </trkpt>
      <trkpt lat="44.99983" lon="15.2994">
        <ele>621</ele>
        <time>2016-07-25T14:59:58Z</time>
      </trkpt>
      <trkpt lat="44.99978" lon="15.29948">
        <ele>621</ele>
        <time>2016-07-25T15:01:58Z</time>
      </trkpt>
      <trkpt lat="44.99973" lon="15.29955">
        <ele>621</ele>
        <time>2016-07-25T15:03:58Z</time>
      </trkpt>
      <trkpt lat="44.99968" lon="15.29964">
        <ele>621</ele>
        <time>2016-07-25T15:05:58Z</time>
      </trkpt>
      <trkpt lat="44.99964" lon="15.29973">
        <ele>621</ele>
        <time>2016-07-25T15:07:58Z</time>
      </trkpt>
      <trkpt lat="44.99959" lon="15.29983">
        <ele>621</ele>
        <time>2016-07-25T15:09:58Z</time>
      </trkpt>
      <trkpt lat="44.99955" lon="15.29992">
        <ele>621</ele>
        <time>2016-07-25T15:11:58Z</time>
      </trkpt>
      <trkpt lat="44.99952" lon="15.30002">
        <ele>621</ele>
        <time>2016-07-25T15:13:58Z</time>
      </trkpt>
      <trkpt lat="44.99948" lon="15.30012">
        <ele>620</ele>
        <time>2016-07-25T15:15:58Z</time>
      </trkpt>
      <trkpt lat="44.99945" lon="15.30023">
        <ele>620</ele>
        <time>2016-07-25T15:17:58Z</time>
      </trkpt>
      <trkpt lat="44.99943" lon="15.30033">
        <ele>620</ele>
        <time>2016-07-25T15:19:58Z</time>
      </trkpt>
      <trkpt lat="44.99911" lon="15.30146">
        <ele>618</ele>
        <time>2016-07-25T15:21:58Z</time>
      </trkpt>
      <trkpt lat="44.99899" lon="15.30198">
        <ele>616</ele>
        <time>2016-07-25T15:23:58Z</time>
      </trkpt>
      <trkpt lat="44.99898" lon="15.30203">
        <ele>616</ele>
        <time>2016-07-25T15:25:58Z</time>
      </trkpt>
      <trkpt lat="44.99897" lon="15.30209">
        <ele>616</ele>
        <time>2016-07-25T15:27:58Z</time>
      </trkpt>
      <trkpt lat="44.99896" lon="15.30214">
        <ele>616</ele>
        <time>2016-07-25T15:29:58Z</time>
      </trkpt>
      <trkpt lat="44.99895" lon="15.3022">
        <ele>616</ele>
        <time>2016-07-25T15:31:58Z</time>
      </trkpt>
      <trkpt lat="44.99895" lon="15.30225">
        <ele>615</ele>
        <time>2016-07-25T15:33:58Z</time>
      </trkpt>
      <trkpt lat="44.99895" lon="15.30231">
        <ele>615</ele>
        <time>2016-07-25T15:35:58Z</time>
      </trkpt>
      <trkpt lat="44.99896" lon="15.30237">
        <ele>615</ele>
        <time>2016-07-25T15:37:58Z</time>
      </trkpt>
      <trkpt lat="44.99896" lon="15.30242">
        <ele>615</ele>
        <time>2016-07-25T15:39:58Z</time>
      </trkpt>
      <trkpt lat="44.99897" lon="15.30248">
        <ele>615</ele>
        <time>2016-07-25T15:41:58Z</time>
      </trkpt>
      <trkpt lat="44.99899" lon="15.30253">
        <ele>615</ele>
        <time>2016-07-25T15:43:58Z</time>
      </trkpt>
      <trkpt lat="44.999" lon="15.30258">
        <ele>615</ele>
        <time>2016-07-25T15:45:58Z</time>
      </trkpt>
      <trkpt lat="44.99902" lon="15.30263">
        <ele>614</ele>
        <time>2016-07-25T15:47:58Z</time>
      </trkpt>
      <trkpt lat="44.99916" lon="15.30331">
        <ele>612</ele>
        <time>2016-07-25T15:49:58Z</time>
      </trkpt>
      <trkpt lat="44.99919" lon="15.30344">
        <ele>612</ele>
        <time>2016-07-25T15:51:58Z</time>
      </trkpt>
      <trkpt lat="44.99921" lon="15.30357">
        <ele>611</ele>
        <time>2016-07-25T15:53:58Z</time>
      </trkpt>
      <trkpt lat="44.99923" lon="15.3037">
        <ele>611</ele>
        <time>2016-07-25T15:55:58Z</time>
      </trkpt>
      <trkpt lat="44.99924" lon="15.30383">
        <ele>611</ele>
        <time>2016-07-25T15:57:58Z</time>
      </trkpt>
      <trkpt lat="44.99925" lon="15.30395">
        <ele>610</ele>
        <time>2016-07-25T15:59:58Z</time>
      </trkpt>
      <trkpt lat="44.99926" lon="15.30408">
        <ele>610</ele>
        <time>2016-07-25T16:01:58Z</time>
      </trkpt>
      <trkpt lat="44.99926" lon="15.3042">
        <ele>610</ele>
        <time>2016-07-25T16:03:58Z</time>
      </trkpt>
      <trkpt lat="44.99926" lon="15.30432">
        <ele>610</ele>
        <time>2016-07-25T16:05:58Z</time>
      </trkpt>
      <trkpt lat="44.99927" lon="15.30501">
        <ele>608</ele>
        <time>2016-07-25T16:07:58Z</time>
      </trkpt>
      <trkpt lat="44.99928" lon="15.30511">
        <ele>608</ele>
        <time>2016-07-25T16:09:58Z</time>
      </trkpt>
      <trkpt lat="44.99929" lon="15.30521">
        <ele>607</ele>
        <time>2016-07-25T16:11:58Z</time>
      </trkpt>
      <trkpt lat="44.9993" lon="15.30531">
        <ele>607</ele>
        <time>2016-07-25T16:13:58Z</time>
      </trkpt>
      <trkpt lat="44.9993" lon="15.30542">
        <ele>607</ele>
        <time>2016-07-25T16:15:58Z</time>
      </trkpt>
      <trkpt lat="44.99931" lon="15.30552">
        <ele>606</ele>
        <time>2016-07-25T16:17:58Z</time>
      </trkpt>
      <trkpt lat="44.9993" lon="15.30562">
        <ele>606</ele>
        <time>2016-07-25T16:19:58Z</time>
      </trkpt>
      <trkpt lat="44.9993" lon="15.30572">
        <ele>606</ele>
        <time>2016-07-25T16:21:58Z</time>
      </trkpt>
      <trkpt lat="44.99929" lon="15.30581">
        <ele>605</ele>
        <time>2016-07-25T16:23:58Z</time>
      </trkpt>
      <trkpt lat="44.99927" lon="15.30591">
        <ele>605</ele>
        <time>2016-07-25T16:25:58Z</time>
      </trkpt>
      <trkpt lat="44.99926" lon="15.306">
        <ele>605</ele>
        <time>2016-07-25T16:27:58Z</time>
      </trkpt>
      <trkpt lat="44.99924" lon="15.30609">
        <ele>605</ele>
        <time>2016-07-25T16:29:58Z</time>
      </trkpt>
      <trkpt lat="44.99922" lon="15.30619">
        <ele>604</ele>
        <time>2016-07-25T16:31:58Z</time>
      </trkpt>
      <trkpt lat="44.99919" lon="15.30627">
        <ele>604</ele>
        <time>2016-07-25T16:33:58Z</time>
      </trkpt>
      <trkpt lat="44.99916" lon="15.30636">
        <ele>604</ele>
        <time>2016-07-25T16:35:58Z</time>
      </trkpt>
      <trkpt lat="44.99913" lon="15.30645">
        <ele>604</ele>
        <time>2016-07-25T16:37:58Z</time>
      </trkpt>
      <trkpt lat="44.99909" lon="15.30653">
        <ele>603</ele>
        <time>2016-07-25T16:39:58Z</time>
      </trkpt>
      <trkpt lat="44.99838" lon="15.3085">
        <ele>600</ele>
        <time>2016-07-25T16:41:58Z</time>
      </trkpt>
      <trkpt lat="44.99833" lon="15.30864">
        <ele>600</ele>
        <time>2016-07-25T16:43:58Z</time>
      </trkpt>
      <trkpt lat="44.9983" lon="15.30873">
        <ele>600</ele>
        <time>2016-07-25T16:45:58Z</time>
      </trkpt>
      <trkpt lat="44.99828" lon="15.30878">
        <ele>600</ele>
        <time>2016-07-25T16:47:58Z</time>
      </trkpt>
      <trkpt lat="44.99823" lon="15.30893">
        <ele>600</ele>
        <time>2016-07-25T16:49:58Z</time>
      </trkpt>
      <trkpt lat="44.99818" lon="15.30907">
        <ele>600</ele>
        <time>2016-07-25T16:51:58Z</time>
      </trkpt>
      <trkpt lat="44.99814" lon="15.30922">
        <ele>599</ele>
        <time>2016-07-25T16:53:58Z</time>
      </trkpt>
      <trkpt lat="44.99811" lon="15.30937">
        <ele>599</ele>
        <time>2016-07-25T16:55:58Z</time>
      </trkpt>
      <trkpt lat="44.99807" lon="15.30952">
        <ele>598</ele>
        <time>2016-07-25T16:57:58Z</time>
      </trkpt>
      <trkpt lat="44.99804" lon="15.30967">
        <ele>598</ele>
        <time>2016-07-25T16:59:58Z</time>
      </trkpt>
      <trkpt lat="44.99802" lon="15.30982">
        <ele>598</ele>
        <time>2016-07-25T17:01:58Z</time>
      </trkpt>
      <trkpt lat="44.99799" lon="15.30998">
        <ele>598</ele>
        <time>2016-07-25T17:03:58Z</time>
      </trkpt>
      <trkpt lat="44.99781" lon="15.31093">
        <ele>595</ele>
        <time>2016-07-25T17:05:58Z</time>
      </trkpt>
      <trkpt lat="44.99746" lon="15.31283">
        <ele>589</ele>
        <time>2016-07-25T17:07:58Z</time>
      </trkpt>
      <trkpt lat="44.99743" lon="15.31295">
        <ele>589</ele>
        <time>2016-07-25T17:09:58Z</time>
      </trkpt>
      <trkpt lat="44.99741" lon="15.31307">
        <ele>589</ele>
        <time>2016-07-25T17:11:58Z</time>
      </trkpt>
      <trkpt lat="44.99739" lon="15.3132">
        <ele>589</ele>
        <time>2016-07-25T17:13:58Z</time>
      </trkpt>
      <trkpt lat="44.99737" lon="15.31332">
        <ele>589</ele>
        <time>2016-07-25T17:15:58Z</time>
      </trkpt>
      <trkpt lat="44.99735" lon="15.31345">
        <ele>589</ele>
        <time>2016-07-25T17:17:58Z</time>
      </trkpt>
      <trkpt lat="44.99734" lon="15.31357">
        <ele>588</ele>
        <time>2016-07-25T17:19:58Z</time>
      </trkpt>
      <trkpt lat="44.99734" lon="15.3137">
        <ele>588</ele>
        <time>2016-07-25T17:21:58Z</time>
      </trkpt>
      <trkpt lat="44.99733" lon="15.31383">
        <ele>588</ele>
        <time>2016-07-25T17:23:58Z</time>
      </trkpt>
      <trkpt lat="44.99733" lon="15.31395">
        <ele>588</ele>
        <time>2016-07-25T17:25:58Z</time>
      </trkpt>
      <trkpt lat="44.99733" lon="15.31408">
        <ele>587</ele>
        <time>2016-07-25T17:27:58Z</time>
      </trkpt>
      <trkpt lat="44.99734" lon="15.31421">
        <ele>587</ele>
        <time>2016-07-25T17:29:58Z</time>
      </trkpt>
      <trkpt lat="44.99735" lon="15.31434">
        <ele>587</ele>
        <time>2016-07-25T17:31:58Z</time>
      </trkpt>
      <trkpt lat="44.99737" lon="15.31447">
        <ele>586</ele>
        <time>2016-07-25T17:33:58Z</time>
      </trkpt>
      <trkpt lat="44.99738" lon="15.3146">
        <ele>586</ele>
        <time>2016-07-25T17:35:58Z</time>
      </trkpt>
      <trkpt lat="44.99741" lon="15.31472">
        <ele>586</ele>
        <time>2016-07-25T17:37:58Z</time>
      </trkpt>
      <trkpt lat="44.99753" lon="15.31571">
        <ele>582</ele>
        <time>2016-07-25T17:39:58Z</time>
      </trkpt>
      <trkpt lat="44.99783" lon="15.31691">
        <ele>580</ele>
        <time>2016-07-25T17:41:58Z</time>
      </trkpt>
      <trkpt lat="44.99788" lon="15.31706">
        <ele>579</ele>
        <time>2016-07-25T17:43:58Z</time>
      </trkpt>
      <trkpt lat="44.99789" lon="15.31709">
        <ele>579</ele>
        <time>2016-07-25T17:45:58Z</time>
      </trkpt>
      <trkpt lat="44.9979" lon="15.31713">
        <ele>578</ele>
        <time>2016-07-25T17:47:58Z</time>
      </trkpt>
      <trkpt lat="44.99791" lon="15.31716">
        <ele>578</ele>
        <time>2016-07-25T17:49:58Z</time>
      </trkpt>
      <trkpt lat="44.99791" lon="15.3172">
        <ele>578</ele>
        <time>2016-07-25T17:51:58Z</time>
      </trkpt>
      <trkpt lat="44.99791" lon="15.31724">
        <ele>578</ele>
        <time>2016-07-25T17:53:58Z</time>
      </trkpt>
      <trkpt lat="44.99791" lon="15.31727">
        <ele>578</ele>
        <time>2016-07-25T17:55:58Z</time>
      </trkpt>
      <trkpt lat="44.9979" lon="15.31731">
        <ele>578</ele>
        <time>2016-07-25T17:57:58Z</time>
      </trkpt>
      <trkpt lat="44.99789" lon="15.31734">
        <ele>577</ele>
        <time>2016-07-25T17:59:58Z</time>
      </trkpt>
      <trkpt lat="44.99788" lon="15.31737">
        <ele>577</ele>
        <time>2016-07-25T18:01:58Z</time>
      </trkpt>
      <trkpt lat="44.99787" lon="15.3174">
        <ele>577</ele>
        <time>2016-07-25T18:03:58Z</time>
      </trkpt>
      <trkpt lat="44.99785" lon="15.31742">
        <ele>577</ele>
        <time>2016-07-25T18:05:58Z</time>
      </trkpt>
      <trkpt lat="44.99783" lon="15.31744">
        <ele>577</ele>
        <time>2016-07-25T18:07:58Z</time>
      </trkpt>
      <trkpt lat="44.99781" lon="15.31746">
        <ele>577</ele>
        <time>2016-07-25T18:09:58Z</time>
      </trkpt>
      <trkpt lat="44.99778" lon="15.31748">
        <ele>576</ele>
        <time>2016-07-25T18:11:58Z</time>
      </trkpt>
      <trkpt lat="44.99774" lon="15.31749">
        <ele>576</ele>
        <time>2016-07-25T18:13:58Z</time>
      </trkpt>
      <trkpt lat="44.9977" lon="15.31751">
        <ele>576</ele>
        <time>2016-07-25T18:15:58Z</time>
      </trkpt>
      <trkpt lat="44.99766" lon="15.31753">
        <ele>576</ele>
        <time>2016-07-25T18:17:58Z</time>
      </trkpt>
      <trkpt lat="44.99762" lon="15.31756">
        <ele>576</ele>
        <time>2016-07-25T18:19:58Z</time>
      </trkpt>
      <trkpt lat="44.99758" lon="15.31759">
        <ele>575</ele>
        <time>2016-07-25T18:21:58Z</time>
      </trkpt>
      <trkpt lat="44.99754" lon="15.31763">
        <ele>575</ele>
        <time>2016-07-25T18:23:58Z</time>
      </trkpt>
      <trkpt lat="44.99751" lon="15.31767">
        <ele>575</ele>
        <time>2016-07-25T18:25:58Z</time>
      </trkpt>
      <trkpt lat="44.99748" lon="15.31771">
        <ele>575</ele>
        <time>2016-07-25T18:27:58Z</time>
      </trkpt>
      <trkpt lat="44.99745" lon="15.31776">
        <ele>574</ele>
        <time>2016-07-25T18:29:58Z</time>
      </trkpt>
      <trkpt lat="44.99742" lon="15.31781">
        <ele>574</ele>
        <time>2016-07-25T18:31:58Z</time>
      </trkpt>
      <trkpt lat="44.9974" lon="15.31786">
        <ele>574</ele>
        <time>2016-07-25T18:33:58Z</time>
      </trkpt>
      <trkpt lat="44.99738" lon="15.31791">
        <ele>573</ele>
        <time>2016-07-25T18:35:58Z</time>
      </trkpt>
      <trkpt lat="44.99736" lon="15.31797">
        <ele>573</ele>
        <time>2016-07-25T18:37:58Z</time>
      </trkpt>
      <trkpt lat="44.99735" lon="15.31803">
        <ele>572</ele>
        <time>2016-07-25T18:39:58Z</time>
      </trkpt>
      <trkpt lat="44.99734" lon="15.31808">
        <ele>572</ele>
        <time>2016-07-25T18:41:58Z</time>
      </trkpt>
      <trkpt lat="44.99733" lon="15.31814">
        <ele>571</ele>
        <time>2016-07-25T18:43:58Z</time>
      </trkpt>
      <trkpt lat="44.99733" lon="15.3182">
        <ele>571</ele>
        <time>2016-07-25T18:45:58Z</time>
      </trkpt>
      <trkpt lat="44.99733" lon="15.31827">
        <ele>570</ele>
        <time>2016-07-25T18:47:58Z</time>
      </trkpt>
      <trkpt lat="44.99733" lon="15.31833">
        <ele>570</ele>
        <time>2016-07-25T18:49:58Z</time>
      </trkpt>
      <trkpt lat="44.99733" lon="15.31871">
        <ele>568</ele>
        <time>2016-07-25T18:51:58Z</time>
      </trkpt>
      <trkpt lat="44.99734" lon="15.31879">
        <ele>568</ele>
        <time>2016-07-25T18:53:58Z</time>
      </trkpt>
      <trkpt lat="44.99734" lon="15.31887">
        <ele>568</ele>
        <time>2016-07-25T18:55:58Z</time>
      </trkpt>
      <trkpt lat="44.99733" lon="15.31895">
        <ele>567</ele>
        <time>2016-07-25T18:57:58Z</time>
      </trkpt>
      <trkpt lat="44.99733" lon="15.31903">
        <ele>567</ele>
        <time>2016-07-25T18:59:58Z</time>
      </trkpt>
      <trkpt lat="44.99732" lon="15.31911">
        <ele>567</ele>
        <time>2016-07-25T19:01:58Z</time>
      </trkpt>
      <trkpt lat="44.99731" lon="15.31918">
        <ele>566</ele>
        <time>2016-07-25T19:03:58Z</time>
      </trkpt>
      <trkpt lat="44.99729" lon="15.31927">
        <ele>566</ele>
        <time>2016-07-25T19:05:58Z</time>
      </trkpt>
      <trkpt lat="44.99727" lon="15.31935">
        <ele>566</ele>
        <time>2016-07-25T19:07:58Z</time>
      </trkpt>
      <trkpt lat="44.99725" lon="15.31943">
        <ele>566</ele>
        <time>2016-07-25T19:09:58Z</time>
      </trkpt>
      <trkpt lat="44.99722" lon="15.31951">
        <ele>565</ele>
        <time>2016-07-25T19:11:58Z</time>
      </trkpt>
      <trkpt lat="44.99719" lon="15.31959">
        <ele>565</ele>
        <time>2016-07-25T19:13:58Z</time>
      </trkpt>
      <trkpt lat="44.99716" lon="15.31966">
        <ele>565</ele>
        <time>2016-07-25T19:15:58Z</time>
      </trkpt>
      <trkpt lat="44.99714" lon="15.31972">
        <ele>565</ele>
        <time>2016-07-25T19:17:58Z</time>
      </trkpt>
      <trkpt lat="44.99656" lon="15.3215">
        <ele>559</ele>
        <time>2016-07-25T19:19:58Z</time>
      </trkpt>
      <trkpt lat="44.99579" lon="15.32416">
        <ele>555</ele>
        <time>2016-07-25T19:21:58Z</time>
      </trkpt>
      <trkpt lat="44.99572" lon="15.32458">
        <ele>555</ele>
        <time>2016-07-25T19:23:58Z</time>
      </trkpt>
      <trkpt lat="44.99571" lon="15.32465">
        <ele>555</ele>
        <time>2016-07-25T19:25:58Z</time>
      </trkpt>
      <trkpt lat="44.9957" lon="15.32472">
        <ele>555</ele>
        <time>2016-07-25T19:27:58Z</time>
      </trkpt>
      <trkpt lat="44.99568" lon="15.3248">
        <ele>555</ele>
        <time>2016-07-25T19:29:58Z</time>
      </trkpt>
      <trkpt lat="44.99567" lon="15.32487">
        <ele>555</ele>
        <time>2016-07-25T19:31:58Z</time>
      </trkpt>
      <trkpt lat="44.99565" lon="15.32494">
        <ele>555</ele>
        <time>2016-07-25T19:33:58Z</time>
      </trkpt>
      <trkpt lat="44.99563" lon="15.32501">
        <ele>555</ele>
        <time>2016-07-25T19:35:58Z</time>
      </trkpt>
      <trkpt lat="44.9956" lon="15.32509">
        <ele>554</ele>
        <time>2016-07-25T19:37:58Z</time>
      </trkpt>
      <trkpt lat="44.99558" lon="15.32516">
        <ele>554</ele>
        <time>2016-07-25T19:39:58Z</time>
      </trkpt>
      <trkpt lat="44.99554" lon="15.32523">
        <ele>554</ele>
        <time>2016-07-25T19:41:58Z</time>
      </trkpt>
      <trkpt lat="44.99551" lon="15.3253">
        <ele>554</ele>
        <time>2016-07-25T19:43:58Z</time>
      </trkpt>
      <trkpt lat="44.99547" lon="15.32536">
        <ele>553</ele>
        <time>2016-07-25T19:45:58Z</time>
      </trkpt>
      <trkpt lat="44.99542" lon="15.32549">
        <ele>553</ele>
        <time>2016-07-25T19:47:58Z</time>
      </trkpt>
      <trkpt lat="44.99536" lon="15.3256">
        <ele>552</ele>
        <time>2016-07-25T19:49:58Z</time>
      </trkpt>
      <trkpt lat="44.99531" lon="15.32572">
        <ele>552</ele>
        <time>2016-07-25T19:51:58Z</time>
      </trkpt>
      <trkpt lat="44.99525" lon="15.32583">
        <ele>551</ele>
        <time>2016-07-25T19:53:58Z</time>
      </trkpt>
      <trkpt lat="44.99518" lon="15.32595">
        <ele>550</ele>
        <time>2016-07-25T19:55:58Z</time>
      </trkpt>
      <trkpt lat="44.99512" lon="15.32605">
        <ele>549</ele>
        <time>2016-07-25T19:57:58Z</time>
      </trkpt>
      <trkpt lat="44.99505" lon="15.32616">
        <ele>548</ele>
        <time>2016-07-25T19:59:58Z</time>
      </trkpt>
      <trkpt lat="44.99498" lon="15.32627">
        <ele>547</ele>
        <time>2016-07-25T20:01:58Z</time>
      </trkpt>
      <trkpt lat="44.9949" lon="15.32637">
        <ele>547</ele>
        <time>2016-07-25T20:03:58Z</time>
      </trkpt>
      <trkpt lat="44.99483" lon="15.32647">
        <ele>547</ele>
        <time>2016-07-25T20:05:58Z</time>
      </trkpt>
      <trkpt lat="44.99475" lon="15.32656">
        <ele>547</ele>
        <time>2016-07-25T20:07:58Z</time>
      </trkpt>
      <trkpt lat="44.99467" lon="15.32666">
        <ele>547</ele>
        <time>2016-07-25T20:09:58Z</time>
      </trkpt>
      <trkpt lat="44.99463" lon="15.32669">
        <ele>547</ele>
        <time>2016-07-25T20:11:58Z</time>
      </trkpt>
      <trkpt lat="44.99459" lon="15.32673">
        <ele>547</ele>
        <time>2016-07-25T20:13:58Z</time>
      </trkpt>
      <trkpt lat="44.99456" lon="15.32678">
        <ele>547</ele>
        <time>2016-07-25T20:15:58Z</time>
      </trkpt>
      <trkpt lat="44.99451" lon="15.32684">
        <ele>546</ele>
        <time>2016-07-25T20:17:58Z</time>
      </trkpt>
      <trkpt lat="44.99446" lon="15.3269">
        <ele>546</ele>
        <time>2016-07-25T20:19:58Z</time>
      </trkpt>
      <trkpt lat="44.99442" lon="15.32697">
        <ele>546</ele>
        <time>2016-07-25T20:21:58Z</time>
      </trkpt>
      <trkpt lat="44.99437" lon="15.32704">
        <ele>545</ele>
        <time>2016-07-25T20:23:58Z</time>
      </trkpt>
      <trkpt lat="44.99433" lon="15.32711">
        <ele>545</ele>
        <time>2016-07-25T20:25:58Z</time>
      </trkpt>
      <trkpt lat="44.9943" lon="15.32718">
        <ele>545</ele>
        <time>2016-07-25T20:27:58Z</time>
      </trkpt>
      <trkpt lat="44.99401" lon="15.32785">
        <ele>542</ele>
        <time>2016-07-25T20:29:58Z</time>
      </trkpt>
      <trkpt lat="44.99397" lon="15.32791">
        <ele>542</ele>
        <time>2016-07-25T20:31:58Z</time>
      </trkpt>
      <trkpt lat="44.99393" lon="15.32797">
        <ele>542</ele>
        <time>2016-07-25T20:33:58Z</time>
      </trkpt>
      <trkpt lat="44.9939" lon="15.32803">
        <ele>542</ele>
        <time>2016-07-25T20:35:58Z</time>
      </trkpt>
      <trkpt lat="44.99387" lon="15.3281">
        <ele>541</ele>
        <time>2016-07-25T20:37:58Z</time>
      </trkpt>
      <trkpt lat="44.99384" lon="15.32817">
        <ele>541</ele>
        <time>2016-07-25T20:39:58Z</time>
      </trkpt>
      <trkpt lat="44.99382" lon="15.32824">
        <ele>541</ele>
        <time>2016-07-25T20:41:58Z</time>
      </trkpt>
      <trkpt lat="44.99379" lon="15.32831">
        <ele>541</ele>
        <time>2016-07-25T20:43:58Z</time>
      </trkpt>
      <trkpt lat="44.99378" lon="15.32835">
        <ele>541</ele>
        <time>2016-07-25T20:45:58Z</time>
      </trkpt>
      <trkpt lat="44.99374" lon="15.3286">
        <ele>540</ele>
        <time>2016-07-25T20:47:58Z</time>
      </trkpt>
      <trkpt lat="44.99372" lon="15.32877">
        <ele>539</ele>
        <time>2016-07-25T20:49:58Z</time>
      </trkpt>
      <trkpt lat="44.99372" lon="15.32899">
        <ele>538</ele>
        <time>2016-07-25T20:51:58Z</time>
      </trkpt>
      <trkpt lat="44.99374" lon="15.3292">
        <ele>537</ele>
        <time>2016-07-25T20:53:58Z</time>
      </trkpt>
      <trkpt lat="44.99387" lon="15.32984">
        <ele>535</ele>
        <time>2016-07-25T20:55:58Z</time>
      </trkpt>
      <trkpt lat="44.99397" lon="15.33041">
        <ele>533</ele>
        <time>2016-07-25T20:57:58Z</time>
      </trkpt>
      <trkpt lat="44.99404" lon="15.33077">
        <ele>532</ele>
        <time>2016-07-25T20:59:58Z</time>
      </trkpt>
      <trkpt lat="44.99412" lon="15.33111">
        <ele>531</ele>
        <time>2016-07-25T21:01:58Z</time>
      </trkpt>
      <trkpt lat="44.99414" lon="15.33121">
        <ele>531</ele>
        <time>2016-07-25T21:03:58Z</time>
      </trkpt>
      <trkpt lat="44.99419" lon="15.33134">
        <ele>531</ele>
        <time>2016-07-25T21:05:58Z</time>
      </trkpt>
      <trkpt lat="44.99424" lon="15.33144">
        <ele>532</ele>
        <time>2016-07-25T21:07:58Z</time>
      </trkpt>
      <trkpt lat="44.99429" lon="15.33153">
        <ele>532</ele>
        <time>2016-07-25T21:09:58Z</time>
      </trkpt>
      <trkpt lat="44.99438" lon="15.33166">
        <ele>533</ele>
        <time>2016-07-25T21:11:58Z</time>
      </trkpt>
      <trkpt lat="44.99448" lon="15.33181">
        <ele>534</ele>
        <time>2016-07-25T21:13:58Z</time>
      </trkpt>
      <trkpt lat="44.99456" lon="15.33197">
        <ele>535</ele>
        <time>2016-07-25T21:15:58Z</time>
      </trkpt>
      <trkpt lat="44.99462" lon="15.33216">
        <ele>536</ele>
        <time>2016-07-25T21:17:58Z</time>
      </trkpt>
      <trkpt lat="44.99466" lon="15.33235">
        <ele>537</ele>
        <time>2016-07-25T21:19:58Z</time>
      </trkpt>
      <trkpt lat="44.99473" lon="15.33297">
        <ele>537</ele>
        <time>2016-07-25T21:21:58Z</time>
      </trkpt>
      <trkpt lat="44.99477" lon="15.33323">
        <ele>537</ele>
        <time>2016-07-25T21:23:58Z</time>
      </trkpt>
      <trkpt lat="44.99485" lon="15.33363">
        <ele>538</ele>
        <time>2016-07-25T21:25:58Z</time>
      </trkpt>
      <trkpt lat="44.99514" lon="15.33524">
        <ele>542</ele>
        <time>2016-07-25T21:27:58Z</time>
      </trkpt>
      <trkpt lat="44.99518" lon="15.33558">
        <ele>543</ele>
        <time>2016-07-25T21:29:58Z</time>
      </trkpt>
      <trkpt lat="44.99525" lon="15.33592">
        <ele>545</ele>
        <time>2016-07-25T21:31:58Z</time>
      </trkpt>
      <trkpt lat="44.99531" lon="15.33615">
        <ele>546</ele>
        <time>2016-07-25T21:33:58Z</time>
      </trkpt>
      <trkpt lat="44.99539" lon="15.33638">
        <ele>548</ele>
        <time>2016-07-25T21:35:58Z</time>
      </trkpt>
      <trkpt lat="44.99544" lon="15.33654">
        <ele>549</ele>
        <time>2016-07-25T21:37:58Z</time>
      </trkpt>
      <trkpt lat="44.99545" lon="15.33672">
        <ele>549</ele>
        <time>2016-07-25T21:39:58Z</time>
      </trkpt>
      <trkpt lat="44.99544" lon="15.33694">
        <ele>548</ele>
        <time>2016-07-25T21:41:58Z</time>
      </trkpt>
      <trkpt lat="44.9954" lon="15.33723">
        <ele>546</ele>
        <time>2016-07-25T21:43:58Z</time>
      </trkpt>
      <trkpt lat="44.99541" lon="15.33759">
        <ele>546</ele>
        <time>2016-07-25T21:45:58Z</time>
      </trkpt>
      <trkpt lat="44.99544" lon="15.33789">
        <ele>546</ele>
        <time>2016-07-25T21:47:58Z</time>
      </trkpt>
      <trkpt lat="44.99549" lon="15.33813">
        <ele>547</ele>
        <time>2016-07-25T21:49:58Z</time>
      </trkpt>
      <trkpt lat="44.99551" lon="15.33835">
        <ele>547</ele>
        <time>2016-07-25T21:51:58Z</time>
      </trkpt>
      <trkpt lat="44.99552" lon="15.33861">
        <ele>547</ele>
        <time>2016-07-25T21:53:58Z</time>
      </trkpt>
      <trkpt lat="44.99548" lon="15.33887">
        <ele>545</ele>
        <time>2016-07-25T21:55:58Z</time>
      </trkpt>
      <trkpt lat="44.99545" lon="15.33907">
        <ele>544</ele>
        <time>2016-07-25T21:57:58Z</time>
      </trkpt>
      <trkpt lat="44.99544" lon="15.33929">
        <ele>543</ele>
        <time>2016-07-25T21:59:58Z</time>
      </trkpt>
      <trkpt lat="44.99545" lon="15.33951">
        <ele>544</ele>
        <time>2016-07-25T22:01:58Z</time>
      </trkpt>
      <trkpt lat="44.99548" lon="15.33973">
        <ele>545</ele>
        <time>2016-07-25T22:03:58Z</time>
      </trkpt>
      <trkpt lat="44.99548" lon="15.33991">
        <ele>545</ele>
        <time>2016-07-25T22:05:58Z</time>
      </trkpt>
      <trkpt lat="44.99547" lon="15.34019">
        <ele>545</ele>
        <time>2016-07-25T22:07:58Z</time>
      </trkpt>
      <trkpt lat="44.99532" lon="15.34208">
        <ele>544</ele>
        <time>2016-07-25T22:09:58Z</time>
      </trkpt>
      <trkpt lat="44.99529" lon="15.34286">
        <ele>546</ele>
        <time>2016-07-25T22:11:58Z</time>
      </trkpt>
      <trkpt lat="44.9953" lon="15.34327">
        <ele>547</ele>
        <time>2016-07-25T22:13:58Z</time>
      </trkpt>
      <trkpt lat="44.99537" lon="15.34363">
        <ele>549</ele>
        <time>2016-07-25T22:15:58Z</time>
      </trkpt>
      <trkpt lat="44.99545" lon="15.34393">
        <ele>551</ele>
        <time>2016-07-25T22:17:58Z</time>
      </trkpt>
      <trkpt lat="44.99563" lon="15.34439">
        <ele>556</ele>
        <time>2016-07-25T22:19:58Z</time>
      </trkpt>
      <trkpt lat="44.99567" lon="15.3446">
        <ele>558</ele>
        <time>2016-07-25T22:21:58Z</time>
      </trkpt>
      <trkpt lat="44.99569" lon="15.34473">
        <ele>559</ele>
        <time>2016-07-25T22:23:58Z</time>
      </trkpt>
      <trkpt lat="44.99568" lon="15.34487">
        <ele>560</ele>
        <time>2016-07-25T22:25:58Z</time>
      </trkpt>
      <trkpt lat="44.99564" lon="15.34499">
        <ele>560</ele>
        <time>2016-07-25T22:27:58Z</time>
      </trkpt>
      <trkpt lat="44.99552" lon="15.34513">
        <ele>560</ele>
        <time>2016-07-25T22:29:58Z</time>
      </trkpt>
      <trkpt lat="44.9954" lon="15.3452">
        <ele>559</ele>
        <time>2016-07-25T22:31:58Z</time>
      </trkpt>
      <trkpt lat="44.99529" lon="15.34526">
        <ele>559</ele>
        <time>2016-07-25T22:33:58Z</time>
      </trkpt>
      <trkpt lat="44.99523" lon="15.34531">
        <ele>558</ele>
        <time>2016-07-25T22:35:58Z</time>
      </trkpt>
      <trkpt lat="44.99519" lon="15.34541">
        <ele>559</ele>
        <time>2016-07-25T22:37:58Z</time>
      </trkpt>
      <trkpt lat="44.99517" lon="15.34554">
        <ele>560</ele>
        <time>2016-07-25T22:39:58Z</time>
      </trkpt>
      <trkpt lat="44.99517" lon="15.34579">
        <ele>562</ele>
        <time>2016-07-25T22:41:58Z</time>
      </trkpt>
      <trkpt lat="44.99516" lon="15.34637">
        <ele>565</ele>
        <time>2016-07-25T22:43:58Z</time>
      </trkpt>
      <trkpt lat="44.99512" lon="15.34677">
        <ele>567</ele>
        <time>2016-07-25T22:45:58Z</time>
      </trkpt>
      <trkpt lat="44.99505" lon="15.34728">
        <ele>570</ele>
        <time>2016-07-25T22:47:58Z</time>
      </trkpt>
      <trkpt lat="44.99491" lon="15.34807">
        <ele>573</ele>
        <time>2016-07-25T22:49:58Z</time>
      </trkpt>
      <trkpt lat="44.99479" lon="15.34861">
        <ele>576</ele>
        <time>2016-07-25T22:51:58Z</time>
      </trkpt>
      <trkpt lat="44.9946" lon="15.34928">
        <ele>580</ele>
        <time>2016-07-25T22:53:58Z</time>
      </trkpt>
      <trkpt lat="44.99448" lon="15.34964">
        <ele>582</ele>
        <time>2016-07-25T22:55:58Z</time>
      </trkpt>
      <trkpt lat="44.99433" lon="15.35">
        <ele>585</ele>
        <time>2016-07-25T22:57:58Z</time>
      </trkpt>
      <trkpt lat="44.99394" lon="15.35126">
        <ele>590</ele>
        <time>2016-07-25T22:59:58Z</time>
      </trkpt>
      <trkpt lat="44.99383" lon="15.35165">
        <ele>591</ele>
        <time>2016-07-25T23:01:58Z</time>
      </trkpt>
      <trkpt lat="44.99374" lon="15.35211">
        <ele>597</ele>
        <time>2016-07-25T23:03:58Z</time>
      </trkpt>
      <trkpt lat="44.99373" lon="15.35228">
        <ele>600</ele>
        <time>2016-07-25T23:05:58Z</time>
      </trkpt>
      <trkpt lat="44.99373" lon="15.3524">
        <ele>601</ele>
        <time>2016-07-25T23:07:58Z</time>
      </trkpt>
      <trkpt lat="44.99371" lon="15.35253">
        <ele>603</ele>
        <time>2016-07-25T23:09:58Z</time>
      </trkpt>
      <trkpt lat="44.99369" lon="15.35265">
        <ele>606</ele>
        <time>2016-07-25T23:11:58Z</time>
      </trkpt>
      <trkpt lat="44.99363" lon="15.35272">
        <ele>607</ele>
        <time>2016-07-25T23:13:58Z</time>
      </trkpt>
      <trkpt lat="44.99356" lon="15.35275">
        <ele>607</ele>
        <time>2016-07-25T23:15:58Z</time>
      </trkpt>
      <trkpt lat="44.99346" lon="15.35272">
        <ele>606</ele>
        <time>2016-07-25T23:17:58Z</time>
      </trkpt>
      <trkpt lat="44.99326" lon="15.35259">
        <ele>602</ele>
        <time>2016-07-25T23:19:58Z</time>
      </trkpt>
      <trkpt lat="44.9931" lon="15.35249">
        <ele>600</ele>
        <time>2016-07-25T23:21:58Z</time>
      </trkpt>
      <trkpt lat="44.99299" lon="15.35244">
        <ele>600</ele>
        <time>2016-07-25T23:23:58Z</time>
      </trkpt>
      <trkpt lat="44.99286" lon="15.35243">
        <ele>600</ele>
        <time>2016-07-25T23:25:58Z</time>
      </trkpt>
      <trkpt lat="44.99275" lon="15.35246">
        <ele>601</ele>
        <time>2016-07-25T23:27:58Z</time>
      </trkpt>
      <trkpt lat="44.99254" lon="15.3526">
        <ele>603</ele>
        <time>2016-07-25T23:29:58Z</time>
      </trkpt>
      <trkpt lat="44.99242" lon="15.35273">
        <ele>604</ele>
        <time>2016-07-25T23:31:58Z</time>
      </trkpt>
      <trkpt lat="44.99222" lon="15.35307">
        <ele>606</ele>
        <time>2016-07-25T23:33:58Z</time>
      </trkpt>
      <trkpt lat="44.99183" lon="15.35389">
        <ele>615</ele>
        <time>2016-07-25T23:35:58Z</time>
      </trkpt>
      <trkpt lat="44.99174" lon="15.35411">
        <ele>617</ele>
        <time>2016-07-25T23:37:58Z</time>
      </trkpt>
      <trkpt lat="44.99165" lon="15.3543">
        <ele>619</ele>
        <time>2016-07-25T23:39:58Z</time>
      </trkpt>
      <trkpt lat="44.99157" lon="15.35444">
        <ele>620</ele>
        <time>2016-07-25T23:41:58Z</time>
      </trkpt>
      <trkpt lat="44.99135" lon="15.35472">
        <ele>621</ele>
        <time>2016-07-25T23:43:58Z</time>
      </trkpt>
      <trkpt lat="44.99122" lon="15.35482">
        <ele>621</ele>
        <time>2016-07-25T23:45:58Z</time>
      </trkpt>
      <trkpt lat="44.99111" lon="15.35501">
        <ele>622</ele>
        <time>2016-07-25T23:47:58Z</time>
      </trkpt>
      <trkpt lat="44.99103" lon="15.35517">
        <ele>623</ele>
        <time>2016-07-25T23:49:58Z</time>
      </trkpt>
      <trkpt lat="44.99076" lon="15.35592">
        <ele>628</ele>
        <time>2016-07-25T23:51:58Z</time>
      </trkpt>
      <trkpt lat="44.99064" lon="15.35626">
        <ele>632</ele>
        <time>2016-07-25T23:53:58Z</time>
      </trkpt>
      <trkpt lat="44.99059" lon="15.35642">
        <ele>634</ele>
        <time>2016-07-25T23:55:58Z</time>
      </trkpt>
      <trkpt lat="44.9905" lon="15.35668">
        <ele>636</ele>
        <time>2016-07-25T23:57:58Z</time>
      </trkpt>
      <trkpt lat="44.99044" lon="15.35682">
        <ele>638</ele>
        <time>2016-07-25T23:59:58Z</time>
      </trkpt>
      <trkpt lat="44.99039" lon="15.35693">
        <ele>639</ele>
        <time>2016-07-26T00:01:58Z</time>
      </trkpt>
      <trkpt lat="44.99033" lon="15.357">
        <ele>640</ele>
        <time>2016-07-26T00:03:58Z</time>
      </trkpt>
      <trkpt lat="44.99023" lon="15.35701">
        <ele>639</ele>
        <time>2016-07-26T00:05:58Z</time>
      </trkpt>
      <trkpt lat="44.99015" lon="15.35698">
        <ele>638</ele>
        <time>2016-07-26T00:07:58Z</time>
      </trkpt>
      <trkpt lat="44.99005" lon="15.35691">
        <ele>636</ele>
        <time>2016-07-26T00:09:58Z</time>
      </trkpt>
      <trkpt lat="44.9899" lon="15.35682">
        <ele>634</ele>
        <time>2016-07-26T00:11:58Z</time>
      </trkpt>
      <trkpt lat="44.98981" lon="15.35682">
        <ele>634</ele>
        <time>2016-07-26T00:13:58Z</time>
      </trkpt>
      <trkpt lat="44.98971" lon="15.35687">
        <ele>634</ele>
        <time>2016-07-26T00:15:58Z</time>
      </trkpt>
      <trkpt lat="44.98963" lon="15.35694">
        <ele>635</ele>
        <time>2016-07-26T00:17:58Z</time>
      </trkpt>
      <trkpt lat="44.98943" lon="15.35718">
        <ele>638</ele>
        <time>2016-07-26T00:19:58Z</time>
      </trkpt>
      <trkpt lat="44.98919" lon="15.35747">
        <ele>642</ele>
        <time>2016-07-26T00:21:58Z</time>
      </trkpt>
      <trkpt lat="44.98891" lon="15.35799">
        <ele>645</ele>
        <time>2016-07-26T00:23:58Z</time>
      </trkpt>
      <trkpt lat="44.98876" lon="15.3583">
        <ele>647</ele>
        <time>2016-07-26T00:25:58Z</time>
      </trkpt>
      <trkpt lat="44.98863" lon="15.35855">
        <ele>649</ele>
        <time>2016-07-26T00:27:58Z</time>
      </trkpt>
      <trkpt lat="44.98731" lon="15.36075">
        <ele>661</ele>
        <time>2016-07-26T00:29:58Z</time>
      </trkpt>
      <trkpt lat="44.98721" lon="15.36093">
        <ele>661</ele>
        <time>2016-07-26T00:31:58Z</time>
      </trkpt>
      <trkpt lat="44.9871" lon="15.36115">
        <ele>663</ele>
        <time>2016-07-26T00:33:58Z</time>
      </trkpt>
      <trkpt lat="44.98696" lon="15.36154">
        <ele>666</ele>
        <time>2016-07-26T00:35:58Z</time>
      </trkpt>
      <trkpt lat="44.98686" lon="15.36188">
        <ele>669</ele>
        <time>2016-07-26T00:37:58Z</time>
      </trkpt>
      <trkpt lat="44.98673" lon="15.36239">
        <ele>675</ele>
        <time>2016-07-26T00:39:58Z</time>
      </trkpt>
      <trkpt lat="44.98662" lon="15.36289">
        <ele>679</ele>
        <time>2016-07-26T00:41:58Z</time>
      </trkpt>
      <trkpt lat="44.98614" lon="15.3651">
        <ele>700</ele>
        <time>2016-07-26T00:43:58Z</time>
      </trkpt>
      <trkpt lat="44.98588" lon="15.36622">
        <ele>707</ele>
        <time>2016-07-26T00:45:58Z</time>
      </trkpt>
      <trkpt lat="44.98548" lon="15.36791">
        <ele>710</ele>
        <time>2016-07-26T00:47:58Z</time>
      </trkpt>
      <trkpt lat="44.9852" lon="15.36974">
        <ele>714</ele>
        <time>2016-07-26T00:49:58Z</time>
      </trkpt>
      <trkpt lat="44.98514" lon="15.37011">
        <ele>714</ele>
        <time>2016-07-26T00:51:58Z</time>
      </trkpt>
      <trkpt lat="44.98507" lon="15.37038">
        <ele>715</ele>
        <time>2016-07-26T00:53:58Z</time>
      </trkpt>
      <trkpt lat="44.98498" lon="15.37082">
        <ele>717</ele>
        <time>2016-07-26T00:55:58Z</time>
      </trkpt>
      <trkpt lat="44.9849" lon="15.37106">
        <ele>717</ele>
        <time>2016-07-26T00:57:58Z</time>
      </trkpt>
      <trkpt lat="44.98454" lon="15.37264">
        <ele>719</ele>
        <time>2016-07-26T00:59:58Z</time>
      </trkpt>
      <trkpt lat="44.98442" lon="15.3732">
        <ele>721</ele>
        <time>2016-07-26T01:01:58Z</time>
      </trkpt>
      <trkpt lat="44.98432" lon="15.37386">
        <ele>722</ele>
        <time>2016-07-26T01:03:58Z</time>
      </trkpt>
      <trkpt lat="44.98417" lon="15.37446">
        <ele>722</ele>
        <time>2016-07-26T01:05:58Z</time>
      </trkpt>
      <trkpt lat="44.984" lon="15.375">
        <ele>722</ele>
        <time>2016-07-26T01:07:58Z</time>
      </trkpt>
      <trkpt lat="44.98363" lon="15.37637">
        <ele>727</ele>
        <time>2016-07-26T01:09:58Z</time>
      </trkpt>
      <trkpt lat="44.98329" lon="15.37739">
        <ele>726</ele>
        <time>2016-07-26T01:11:58Z</time>
      </trkpt>
      <trkpt lat="44.9832" lon="15.37773">
        <ele>726</ele>
        <time>2016-07-26T01:13:58Z</time>
      </trkpt>
      <trkpt lat="44.98314" lon="15.37807">
        <ele>728</ele>
        <time>2016-07-26T01:15:58Z</time>
      </trkpt>
      <trkpt lat="44.98311" lon="15.37869">
        <ele>732</ele>
        <time>2016-07-26T01:17:58Z</time>
      </trkpt>
      <trkpt lat="44.9829" lon="15.38199">
        <ele>740</ele>
        <time>2016-07-26T01:19:58Z</time>
      </trkpt>
      <trkpt lat="44.9829" lon="15.38199">
        <ele>740</ele>
        <time>2016-07-26T01:21:58Z</time>
      </trkpt>
      <trkpt lat="44.98255" lon="15.38237">
        <ele>739</ele>
        <time>2016-07-26T01:23:58Z</time>
      </trkpt>
      <trkpt lat="44.98239" lon="15.38253">
        <ele>740</ele>
        <time>2016-07-26T01:25:58Z</time>
      </trkpt>
      <trkpt lat="44.98228" lon="15.38272">
        <ele>740</ele>
        <time>2016-07-26T01:27:58Z</time>
      </trkpt>
      <trkpt lat="44.98224" lon="15.38295">
        <ele>740</ele>
        <time>2016-07-26T01:29:58Z</time>
      </trkpt>
      <trkpt lat="44.98222" lon="15.38313">
        <ele>740</ele>
        <time>2016-07-26T01:31:58Z</time>
      </trkpt>
      <trkpt lat="44.98221" lon="15.38328">
        <ele>740</ele>
        <time>2016-07-26T01:33:58Z</time>
      </trkpt>
      <trkpt lat="44.9822" lon="15.38339">
        <ele>740</ele>
        <time>2016-07-26T01:35:58Z</time>
      </trkpt>
      <trkpt lat="44.98218" lon="15.38345">
        <ele>740</ele>
        <time>2016-07-26T01:37:58Z</time>
      </trkpt>
      <trkpt lat="44.98213" lon="15.38351">
        <ele>740</ele>
        <time>2016-07-26T01:39:58Z</time>
      </trkpt>
      <trkpt lat="44.98206" lon="15.38356">
        <ele>740</ele>
        <time>2016-07-26T01:41:58Z</time>
      </trkpt>
      <trkpt lat="44.98195" lon="15.38364">
        <ele>740</ele>
        <time>2016-07-26T01:43:58Z</time>
      </trkpt>
      <trkpt lat="44.98189" lon="15.3837">
        <ele>741</ele>
        <time>2016-07-26T01:45:58Z</time>
      </trkpt>
      <trkpt lat="44.98185" lon="15.38375">
        <ele>741</ele>
        <time>2016-07-26T01:47:58Z</time>
      </trkpt>
      <trkpt lat="44.98183" lon="15.38382">
        <ele>741</ele>
        <time>2016-07-26T01:49:58Z</time>
      </trkpt>
      <trkpt lat="44.98182" lon="15.38388">
        <ele>741</ele>
        <time>2016-07-26T01:51:58Z</time>
      </trkpt>
      <trkpt lat="44.98182" lon="15.38398">
        <ele>741</ele>
        <time>2016-07-26T01:53:58Z</time>
      </trkpt>
      <trkpt lat="44.98206" lon="15.38494">
        <ele>742</ele>
        <time>2016-07-26T01:55:58Z</time>
      </trkpt>
      <trkpt lat="44.98212" lon="15.38538">
        <ele>742</ele>
        <time>2016-07-26T01:57:58Z</time>
      </trkpt>
      <trkpt lat="44.98214" lon="15.38586">
        <ele>743</ele>
        <time>2016-07-26T01:59:58Z</time>
      </trkpt>
      <trkpt lat="44.98216" lon="15.38634">
        <ele>743</ele>
        <time>2016-07-26T02:01:58Z</time>
      </trkpt>
      <trkpt lat="44.98212" lon="15.38682">
        <ele>744</ele>
        <time>2016-07-26T02:03:58Z</time>
      </trkpt>
      <trkpt lat="44.98209" lon="15.38713">
        <ele>743</ele>
        <time>2016-07-26T02:05:58Z</time>
      </trkpt>
      <trkpt lat="44.98209" lon="15.38745">
        <ele>742</ele>
        <time>2016-07-26T02:07:58Z</time>
      </trkpt>
      <trkpt lat="44.9821" lon="15.3877">
        <ele>742</ele>
        <time>2016-07-26T02:09:58Z</time>
      </trkpt>
      <trkpt lat="44.98213" lon="15.38793">
        <ele>741</ele>
        <time>2016-07-26T02:11:58Z</time>
      </trkpt>
      <trkpt lat="44.98218" lon="15.38813">
        <ele>740</ele>
        <time>2016-07-26T02:13:58Z</time>
      </trkpt>
      <trkpt lat="44.98249" lon="15.3895">
        <ele>742</ele>
        <time>2016-07-26T02:15:58Z</time>
      </trkpt>
      <trkpt lat="44.98254" lon="15.38974">
        <ele>742</ele>
        <time>2016-07-26T02:17:58Z</time>
      </trkpt>
      <trkpt lat="44.98256" lon="15.38987">
        <ele>743</ele>
        <time>2016-07-26T02:19:58Z</time>
      </trkpt>
      <trkpt lat="44.98256" lon="15.39007">
        <ele>743</ele>
        <time>2016-07-26T02:21:58Z</time>
      </trkpt>
      <trkpt lat="44.98254" lon="15.39026">
        <ele>743</ele>
        <time>2016-07-26T02:23:58Z</time>
      </trkpt>
      <trkpt lat="44.9825" lon="15.39051">
        <ele>743</ele>
        <time>2016-07-26T02:25:58Z</time>
      </trkpt>
      <trkpt lat="44.98245" lon="15.39095">
        <ele>744</ele>
        <time>2016-07-26T02:27:58Z</time>
      </trkpt>
      <trkpt lat="44.9824" lon="15.39124">
        <ele>745</ele>
        <time>2016-07-26T02:29:58Z</time>
      </trkpt>
      <trkpt lat="44.98237" lon="15.39146">
        <ele>746</ele>
        <time>2016-07-26T02:31:58Z</time>
      </trkpt>
      <trkpt lat="44.98237" lon="15.39162">
        <ele>747</ele>
        <time>2016-07-26T02:33:58Z</time>
      </trkpt>
      <trkpt lat="44.98238" lon="15.39183">
        <ele>747</ele>
        <time>2016-07-26T02:35:58Z</time>
      </trkpt>
      <trkpt lat="44.98244" lon="15.392">
        <ele>747</ele>
        <time>2016-07-26T02:37:58Z</time>
      </trkpt>
      <trkpt lat="44.9825" lon="15.39215">
        <ele>747</ele>
        <time>2016-07-26T02:39:58Z</time>
      </trkpt>
      <trkpt lat="44.98261" lon="15.39233">
        <ele>748</ele>
        <time>2016-07-26T02:41:58Z</time>
      </trkpt>
      <trkpt lat="44.98288" lon="15.39273">
        <ele>748</ele>
        <time>2016-07-26T02:43:58Z</time>
      </trkpt>
      <trkpt lat="44.98297" lon="15.39287">
        <ele>749</ele>
        <time>2016-07-26T02:45:58Z</time>
      </trkpt>
      <trkpt lat="44.98301" lon="15.39297">
        <ele>749</ele>
        <time>2016-07-26T02:47:58Z</time>
      </trkpt>
      <trkpt lat="44.98303" lon="15.39309">
        <ele>749</ele>
        <time>2016-07-26T02:49:58Z</time>
      </trkpt>
      <trkpt lat="44.98303" lon="15.39321">
        <ele>749</ele>
        <time>2016-07-26T02:51:58Z</time>
      </trkpt>
      <trkpt lat="44.98302" lon="15.39334">
        <ele>749</ele>
        <time>2016-07-26T02:53:58Z</time>
      </trkpt>
      <trkpt lat="44.98293" lon="15.39383">
        <ele>749</ele>
        <time>2016-07-26T02:55:58Z</time>
      </trkpt>
      <trkpt lat="44.9829" lon="15.394">
        <ele>749</ele>
        <time>2016-07-26T02:57:58Z</time>
      </trkpt>
      <trkpt lat="44.98288" lon="15.39413">
        <ele>748</ele>
        <time>2016-07-26T02:59:58Z</time>
      </trkpt>
      <trkpt lat="44.98289" lon="15.39424">
        <ele>749</ele>
        <time>2016-07-26T03:01:58Z</time>
      </trkpt>
      <trkpt lat="44.9829" lon="15.39435">
        <ele>749</ele>
        <time>2016-07-26T03:03:58Z</time>
      </trkpt>
      <trkpt lat="44.98293" lon="15.39444">
        <ele>749</ele>
        <time>2016-07-26T03:05:58Z</time>
      </trkpt>
      <trkpt lat="44.98295" lon="15.39456">
        <ele>749</ele>
        <time>2016-07-26T03:07:58Z</time>
      </trkpt>
      <trkpt lat="44.98296" lon="15.39467">
        <ele>750</ele>
        <time>2016-07-26T03:09:58Z</time>
      </trkpt>
      <trkpt lat="44.98297" lon="15.39562">
        <ele>754</ele>
        <time>2016-07-26T03:11:58Z</time>
      </trkpt>
      <trkpt lat="44.98297" lon="15.39603">
        <ele>756</ele>
        <time>2016-07-26T03:13:58Z</time>
      </trkpt>
      <trkpt lat="44.98297" lon="15.39624">
        <ele>758</ele>
        <time>2016-07-26T03:15:58Z</time>
      </trkpt>
      <trkpt lat="44.98299" lon="15.39632">
        <ele>758</ele>
        <time>2016-07-26T03:17:58Z</time>
      </trkpt>
      <trkpt lat="44.98301" lon="15.39637">
        <ele>759</ele>
        <time>2016-07-26T03:19:58Z</time>
      </trkpt>
      <trkpt lat="44.98304" lon="15.39644">
        <ele>759</ele>
        <time>2016-07-26T03:21:58Z</time>
      </trkpt>
      <trkpt lat="44.9831" lon="15.39654">
        <ele>760</ele>
        <time>2016-07-26T03:23:58Z</time>
      </trkpt>
      <trkpt lat="44.9832" lon="15.39665">
        <ele>760</ele>
        <time>2016-07-26T03:25:58Z</time>
      </trkpt>
      <trkpt lat="44.98324" lon="15.39669">
        <ele>760</ele>
        <time>2016-07-26T03:27:58Z</time>
      </trkpt>
      <trkpt lat="44.98326" lon="15.39673">
        <ele>761</ele>
        <time>2016-07-26T03:29:58Z</time>
      </trkpt>
      <trkpt lat="44.98328" lon="15.39679">
        <ele>761</ele>
        <time>2016-07-26T03:31:58Z</time>
      </trkpt>
      <trkpt lat="44.98326" lon="15.39685">
        <ele>762</ele>
        <time>2016-07-26T03:33:58Z</time>
      </trkpt>
      <trkpt lat="44.98325" lon="15.39688">
        <ele>762</ele>
        <time>2016-07-26T03:35:58Z</time>
      </trkpt>
      <trkpt lat="44.98322" lon="15.39691">
        <ele>762</ele>
        <time>2016-07-26T03:37:58Z</time>
      </trkpt>
      <trkpt lat="44.98319" lon="15.39693">
        <ele>762</ele>
        <time>2016-07-26T03:39:58Z</time>
      </trkpt>
      <trkpt lat="44.98316" lon="15.39694">
        <ele>762</ele>
        <time>2016-07-26T03:41:58Z</time>
      </trkpt>
      <trkpt lat="44.98312" lon="15.39694">
        <ele>762</ele>
        <time>2016-07-26T03:43:58Z</time>
      </trkpt>
      <trkpt lat="44.98303" lon="15.39693">
        <ele>763</ele>
        <time>2016-07-26T03:45:58Z</time>
      </trkpt>
      <trkpt lat="44.98297" lon="15.39692">
        <ele>763</ele>
        <time>2016-07-26T03:47:58Z</time>
      </trkpt>
      <trkpt lat="44.98292" lon="15.39692">
        <ele>763</ele>
        <time>2016-07-26T03:49:58Z</time>
      </trkpt>
      <trkpt lat="44.98289" lon="15.39693">
        <ele>763</ele>
        <time>2016-07-26T03:51:58Z</time>
      </trkpt>
      <trkpt lat="44.98283" lon="15.39696">
        <ele>763</ele>
        <time>2016-07-26T03:53:58Z</time>
      </trkpt>
      <trkpt lat="44.98273" lon="15.39709">
        <ele>764</ele>
        <time>2016-07-26T03:55:58Z</time>
      </trkpt>
      <trkpt lat="44.98268" lon="15.39718">
        <ele>765</ele>
        <time>2016-07-26T03:57:58Z</time>
      </trkpt>
      <trkpt lat="44.98262" lon="15.39728">
        <ele>765</ele>
        <time>2016-07-26T03:59:58Z</time>
      </trkpt>
      <trkpt lat="44.98258" lon="15.39734">
        <ele>765</ele>
        <time>2016-07-26T04:01:58Z</time>
      </trkpt>
      <trkpt lat="44.98251" lon="15.39739">
        <ele>766</ele>
        <time>2016-07-26T04:03:58Z</time>
      </trkpt>
      <trkpt lat="44.98232" lon="15.39756">
        <ele>767</ele>
        <time>2016-07-26T04:05:58Z</time>
      </trkpt>
      <trkpt lat="44.98219" lon="15.39764">
        <ele>768</ele>
        <time>2016-07-26T04:07:58Z</time>
      </trkpt>
      <trkpt lat="44.98206" lon="15.39769">
        <ele>768</ele>
        <time>2016-07-26T04:09:58Z</time>
      </trkpt>
      <trkpt lat="44.98197" lon="15.39772">
        <ele>769</ele>
        <time>2016-07-26T04:11:58Z</time>
      </trkpt>
      <trkpt lat="44.98183" lon="15.39777">
        <ele>769</ele>
        <time>2016-07-26T04:13:58Z</time>
      </trkpt>
      <trkpt lat="44.98175" lon="15.39782">
        <ele>770</ele>
        <time>2016-07-26T04:15:58Z</time>
      </trkpt>
      <trkpt lat="44.9817" lon="15.39786">
        <ele>770</ele>
        <time>2016-07-26T04:17:58Z</time>
      </trkpt>
      <trkpt lat="44.98158" lon="15.39797">
        <ele>771</ele>
        <time>2016-07-26T04:19:58Z</time>
      </trkpt>
      <trkpt lat="44.98152" lon="15.39807">
        <ele>771</ele>
        <time>2016-07-26T04:21:58Z</time>
      </trkpt>
      <trkpt lat="44.98147" lon="15.39816">
        <ele>772</ele>
        <time>2016-07-26T04:23:58Z</time>
      </trkpt>
      <trkpt lat="44.98144" lon="15.39825">
        <ele>772</ele>
        <time>2016-07-26T04:25:58Z</time>
      </trkpt>
      <trkpt lat="44.98143" lon="15.39834">
        <ele>772</ele>
        <time>2016-07-26T04:27:58Z</time>
      </trkpt>
      <trkpt lat="44.98144" lon="15.39839">
        <ele>773</ele>
        <time>2016-07-26T04:29:58Z</time>
      </trkpt>
      <trkpt lat="44.98149" lon="15.39847">
        <ele>773</ele>
        <time>2016-07-26T04:31:58Z</time>
      </trkpt>
      <trkpt lat="44.98154" lon="15.39856">
        <ele>773</ele>
        <time>2016-07-26T04:33:58Z</time>
      </trkpt>
      <trkpt lat="44.98166" lon="15.39872">
        <ele>773</ele>
        <time>2016-07-26T04:35:58Z</time>
      </trkpt>
      <trkpt lat="44.98171" lon="15.39881">
        <ele>774</ele>
        <time>2016-07-26T04:37:58Z</time>
      </trkpt>
      <trkpt lat="44.98174" lon="15.39888">
        <ele>774</ele>
        <time>2016-07-26T04:39:58Z</time>
      </trkpt>
      <trkpt lat="44.98174" lon="15.39898">
        <ele>775</ele>
        <time>2016-07-26T04:41:58Z</time>
      </trkpt>
      <trkpt lat="44.98172" lon="15.3991">
        <ele>776</ele>
        <time>2016-07-26T04:43:58Z</time>
      </trkpt>
      <trkpt lat="44.98169" lon="15.39922">
        <ele>776</ele>
        <time>2016-07-26T04:45:58Z</time>
      </trkpt>
      <trkpt lat="44.98163" lon="15.39941">
        <ele>777</ele>
        <time>2016-07-26T04:47:58Z</time>
      </trkpt>
      <trkpt lat="44.98159" lon="15.39952">
        <ele>778</ele>
        <time>2016-07-26T04:49:58Z</time>
      </trkpt>
      <trkpt lat="44.98157" lon="15.39958">
        <ele>778</ele>
        <time>2016-07-26T04:51:58Z</time>
      </trkpt>
      <trkpt lat="44.98152" lon="15.39962">
        <ele>779</ele>
        <time>2016-07-26T04:53:58Z</time>
      </trkpt>
      <trkpt lat="44.98146" lon="15.39965">
        <ele>779</ele>
        <time>2016-07-26T04:55:58Z</time>
      </trkpt>
      <trkpt lat="44.98139" lon="15.39965">
        <ele>780</ele>
        <time>2016-07-26T04:57:58Z</time>
      </trkpt>
      <trkpt lat="44.98125" lon="15.39966">
        <ele>780</ele>
        <time>2016-07-26T04:59:58Z</time>
      </trkpt>
      <trkpt lat="44.98122" lon="15.39967">
        <ele>781</ele>
        <time>2016-07-26T05:01:58Z</time>
      </trkpt>
      <trkpt lat="44.98119" lon="15.39969">
        <ele>781</ele>
        <time>2016-07-26T05:03:58Z</time>
      </trkpt>
      <trkpt lat="44.98115" lon="15.39975">
        <ele>781</ele>
        <time>2016-07-26T05:05:58Z</time>
      </trkpt>
      <trkpt lat="44.98112" lon="15.39983">
        <ele>782</ele>
        <time>2016-07-26T05:07:58Z</time>
      </trkpt>
      <trkpt lat="44.98111" lon="15.39991">
        <ele>782</ele>
        <time>2016-07-26T05:09:58Z</time>
      </trkpt>
      <trkpt lat="44.98112" lon="15.4">
        <ele>783</ele>
        <time>2016-07-26T05:11:58Z</time>
      </trkpt>
      <trkpt lat="44.98113" lon="15.40009">
        <ele>784</ele>
        <time>2016-07-26T05:13:58Z</time>
      </trkpt>
      <trkpt lat="44.98119" lon="15.40026">
        <ele>785</ele>
        <time>2016-07-26T05:15:58Z</time>
      </trkpt>
      <trkpt lat="44.98125" lon="15.40037">
        <ele>786</ele>
        <time>2016-07-26T05:17:58Z</time>
      </trkpt>
      <trkpt lat="44.98133" lon="15.40047">
        <ele>786</ele>
        <time>2016-07-26T05:19:58Z</time>
      </trkpt>
      <trkpt lat="44.9814" lon="15.40056">
        <ele>786</ele>
        <time>2016-07-26T05:21:58Z</time>
      </trkpt>
      <trkpt lat="44.98146" lon="15.40061">
        <ele>786</ele>
        <time>2016-07-26T05:23:58Z</time>
      </trkpt>
      <trkpt lat="44.98155" lon="15.40065">
        <ele>785</ele>
        <time>2016-07-26T05:25:58Z</time>
      </trkpt>
      <trkpt lat="44.98171" lon="15.40068">
        <ele>784</ele>
        <time>2016-07-26T05:27:58Z</time>
      </trkpt>
      <trkpt lat="44.98181" lon="15.40071">
        <ele>785</ele>
        <time>2016-07-26T05:29:58Z</time>
      </trkpt>
      <trkpt lat="44.98189" lon="15.40075">
        <ele>785</ele>
        <time>2016-07-26T05:31:58Z</time>
      </trkpt>
      <trkpt lat="44.98196" lon="15.40079">
        <ele>786</ele>
        <time>2016-07-26T05:33:58Z</time>
      </trkpt>
      <trkpt lat="44.98202" lon="15.40083">
        <ele>786</ele>
        <time>2016-07-26T05:35:58Z</time>
      </trkpt>
      <trkpt lat="44.98206" lon="15.40088">
        <ele>787</ele>
        <time>2016-07-26T05:37:58Z</time>
      </trkpt>
      <trkpt lat="44.98208" lon="15.40092">
        <ele>787</ele>
        <time>2016-07-26T05:39:58Z</time>
      </trkpt>
      <trkpt lat="44.98209" lon="15.40098">
        <ele>787</ele>
        <time>2016-07-26T05:41:58Z</time>
      </trkpt>
      <trkpt lat="44.9821" lon="15.40106">
        <ele>788</ele>
        <time>2016-07-26T05:43:58Z</time>
      </trkpt>
      <trkpt lat="44.98209" lon="15.40113">
        <ele>788</ele>
        <time>2016-07-26T05:45:58Z</time>
      </trkpt>
      <trkpt lat="44.98208" lon="15.40121">
        <ele>789</ele>
        <time>2016-07-26T05:47:58Z</time>
      </trkpt>
      <trkpt lat="44.98208" lon="15.40127">
        <ele>789</ele>
        <time>2016-07-26T05:49:58Z</time>
      </trkpt>
      <trkpt lat="44.98208" lon="15.4013">
        <ele>789</ele>
        <time>2016-07-26T05:51:58Z</time>
      </trkpt>
      <trkpt lat="44.98208" lon="15.40135">
        <ele>789</ele>
        <time>2016-07-26T05:53:58Z</time>
      </trkpt>
      <trkpt lat="44.98209" lon="15.4014">
        <ele>790</ele>
        <time>2016-07-26T05:55:58Z</time>
      </trkpt>
      <trkpt lat="44.9821" lon="15.40146">
        <ele>790</ele>
        <time>2016-07-26T05:57:58Z</time>
      </trkpt>
      <trkpt lat="44.9821" lon="15.4015">
        <ele>790</ele>
        <time>2016-07-26T05:59:58Z</time>
      </trkpt>
      <trkpt lat="44.98211" lon="15.40153">
        <ele>790</ele>
        <time>2016-07-26T06:01:58Z</time>
      </trkpt>
      <trkpt lat="44.98211" lon="15.40157">
        <ele>790</ele>
        <time>2016-07-26T06:03:58Z</time>
      </trkpt>
      <trkpt lat="44.9821" lon="15.40163">
        <ele>791</ele>
        <time>2016-07-26T06:05:58Z</time>
      </trkpt>
      <trkpt lat="44.98209" lon="15.40168">
        <ele>791</ele>
        <time>2016-07-26T06:07:58Z</time>
      </trkpt>
      <trkpt lat="44.98208" lon="15.40173">
        <ele>791</ele>
        <time>2016-07-26T06:09:58Z</time>
      </trkpt>
      <trkpt lat="44.98175" lon="15.40249">
        <ele>794</ele>
        <time>2016-07-26T06:11:58Z</time>
      </trkpt>
      <trkpt lat="44.98175" lon="15.40249">
        <ele>794</ele>
        <time>2016-07-26T06:13:58Z</time>
      </trkpt>
      <trkpt lat="44.98194" lon="15.40267">
        <ele>793</ele>
        <time>2016-07-26T06:15:58Z</time>
      </trkpt>
      <trkpt lat="44.98201" lon="15.40276">
        <ele>793</ele>
        <time>2016-07-26T06:17:58Z</time>
      </trkpt>
      <trkpt lat="44.98205" lon="15.40282">
        <ele>793</ele>
        <time>2016-07-26T06:19:58Z</time>
      </trkpt>
      <trkpt lat="44.9821" lon="15.40291">
        <ele>793</ele>
        <time>2016-07-26T06:21:58Z</time>
      </trkpt>
      <trkpt lat="44.98214" lon="15.40297">
        <ele>793</ele>
        <time>2016-07-26T06:23:58Z</time>
      </trkpt>
      <trkpt lat="44.98218" lon="15.40303">
        <ele>793</ele>
        <time>2016-07-26T06:25:58Z</time>
      </trkpt>
      <trkpt lat="44.98223" lon="15.40309">
        <ele>793</ele>
        <time>2016-07-26T06:27:58Z</time>
      </trkpt>
      <trkpt lat="44.98229" lon="15.40313">
        <ele>793</ele>
        <time>2016-07-26T06:29:58Z</time>
      </trkpt>
      <trkpt lat="44.98232" lon="15.40314">
        <ele>793</ele>
        <time>2016-07-26T06:31:58Z</time>
      </trkpt>
      <trkpt lat="44.98255" lon="15.4032">
        <ele>792</ele>
        <time>2016-07-26T06:33:58Z</time>
      </trkpt>
      <trkpt lat="44.98261" lon="15.40323">
        <ele>792</ele>
        <time>2016-07-26T06:35:58Z</time>
      </trkpt>
      <trkpt lat="44.98265" lon="15.40325">
        <ele>792</ele>
        <time>2016-07-26T06:37:58Z</time>
      </trkpt>
      <trkpt lat="44.98269" lon="15.40329">
        <ele>792</ele>
        <time>2016-07-26T06:39:58Z</time>
      </trkpt>
      <trkpt lat="44.98273" lon="15.40337">
        <ele>792</ele>
        <time>2016-07-26T06:41:58Z</time>
      </trkpt>
      <trkpt lat="44.98276" lon="15.40347">
        <ele>792</ele>
        <time>2016-07-26T06:43:58Z</time>
      </trkpt>
      <trkpt lat="44.98279" lon="15.40363">
        <ele>792</ele>
        <time>2016-07-26T06:45:58Z</time>
      </trkpt>
      <trkpt lat="44.98283" lon="15.4038">
        <ele>791</ele>
        <time>2016-07-26T06:47:58Z</time>
      </trkpt>
      <trkpt lat="44.98285" lon="15.40388">
        <ele>791</ele>
        <time>2016-07-26T06:49:58Z</time>
      </trkpt>
      <trkpt lat="44.98289" lon="15.40396">
        <ele>791</ele>
        <time>2016-07-26T06:51:58Z</time>
      </trkpt>
      <trkpt lat="44.98291" lon="15.40403">
        <ele>790</ele>
        <time>2016-07-26T06:53:58Z</time>
      </trkpt>
      <trkpt lat="44.98293" lon="15.40409">
        <ele>790</ele>
        <time>2016-07-26T06:55:58Z</time>
      </trkpt>
      <trkpt lat="44.98294" lon="15.4042">
        <ele>790</ele>
        <time>2016-07-26T06:57:58Z</time>
      </trkpt>
      <trkpt lat="44.98293" lon="15.40426">
        <ele>790</ele>
        <time>2016-07-26T06:59:58Z</time>
      </trkpt>
      <trkpt lat="44.98289" lon="15.40453">
        <ele>789</ele>
        <time>2016-07-26T07:01:58Z</time>
      </trkpt>
      <trkpt lat="44.98284" lon="15.40491">
        <ele>789</ele>
        <time>2016-07-26T07:03:58Z</time>
      </trkpt>
      <trkpt lat="44.9828" lon="15.40509">
        <ele>788</ele>
        <time>2016-07-26T07:05:58Z</time>
      </trkpt>
      <trkpt lat="44.98278" lon="15.40519">
        <ele>788</ele>
        <time>2016-07-26T07:07:58Z</time>
      </trkpt>
      <trkpt lat="44.98276" lon="15.40524">
        <ele>787</ele>
        <time>2016-07-26T07:09:58Z</time>
      </trkpt>
      <trkpt lat="44.98273" lon="15.40532">
        <ele>787</ele>
        <time>2016-07-26T07:11:58Z</time>
      </trkpt>
      <trkpt lat="44.98272" lon="15.40538">
        <ele>787</ele>
        <time>2016-07-26T07:13:58Z</time>
      </trkpt>
      <trkpt lat="44.98271" lon="15.40542">
        <ele>787</ele>
        <time>2016-07-26T07:15:58Z</time>
      </trkpt>
      <trkpt lat="44.98271" lon="15.4055">
        <ele>786</ele>
        <time>2016-07-26T07:17:58Z</time>
      </trkpt>
      <trkpt lat="44.98271" lon="15.40555">
        <ele>786</ele>
        <time>2016-07-26T07:19:58Z</time>
      </trkpt>
      <trkpt lat="44.98272" lon="15.40565">
        <ele>785</ele>
        <time>2016-07-26T07:21:58Z</time>
      </trkpt>
      <trkpt lat="44.98273" lon="15.40585">
        <ele>784</ele>
        <time>2016-07-26T07:23:58Z</time>
      </trkpt>
      <trkpt lat="44.98273" lon="15.40596">
        <ele>784</ele>
        <time>2016-07-26T07:25:58Z</time>
      </trkpt>
      <trkpt lat="44.98273" lon="15.40607">
        <ele>783</ele>
        <time>2016-07-26T07:27:58Z</time>
      </trkpt>
      <trkpt lat="44.98273" lon="15.40617">
        <ele>783</ele>
        <time>2016-07-26T07:29:58Z</time>
      </trkpt>
      <trkpt lat="44.98272" lon="15.40626">
        <ele>783</ele>
        <time>2016-07-26T07:31:58Z</time>
      </trkpt>
      <trkpt lat="44.98269" lon="15.40636">
        <ele>783</ele>
        <time>2016-07-26T07:33:58Z</time>
      </trkpt>
      <trkpt lat="44.98266" lon="15.40643">
        <ele>783</ele>
        <time>2016-07-26T07:35:58Z</time>
      </trkpt>
      <trkpt lat="44.98262" lon="15.4065">
        <ele>782</ele>
        <time>2016-07-26T07:37:58Z</time>
      </trkpt>
      <trkpt lat="44.98253" lon="15.40661">
        <ele>782</ele>
        <time>2016-07-26T07:39:58Z</time>
      </trkpt>
      <trkpt lat="44.98246" lon="15.4067">
        <ele>783</ele>
        <time>2016-07-26T07:41:58Z</time>
      </trkpt>
      <trkpt lat="44.98243" lon="15.40675">
        <ele>783</ele>
        <time>2016-07-26T07:43:58Z</time>
      </trkpt>
      <trkpt lat="44.98238" lon="15.40685">
        <ele>783</ele>
        <time>2016-07-26T07:45:58Z</time>
      </trkpt>
      <trkpt lat="44.98229" lon="15.40707">
        <ele>783</ele>
        <time>2016-07-26T07:47:58Z</time>
      </trkpt>
      <trkpt lat="44.98214" lon="15.40752">
        <ele>782</ele>
        <time>2016-07-26T07:49:58Z</time>
      </trkpt>
      <trkpt lat="44.98205" lon="15.40787">
        <ele>781</ele>
        <time>2016-07-26T07:51:58Z</time>
      </trkpt>
      <trkpt lat="44.98199" lon="15.40806">
        <ele>781</ele>
        <time>2016-07-26T07:53:58Z</time>
      </trkpt>
      <trkpt lat="44.98197" lon="15.40815">
        <ele>780</ele>
        <time>2016-07-26T07:55:58Z</time>
      </trkpt>
      <trkpt lat="44.98194" lon="15.40822">
        <ele>780</ele>
        <time>2016-07-26T07:57:58Z</time>
      </trkpt>
      <trkpt lat="44.98191" lon="15.40827">
        <ele>780</ele>
        <time>2016-07-26T07:59:58Z</time>
      </trkpt>
      <trkpt lat="44.98188" lon="15.40832">
        <ele>780</ele>
        <time>2016-07-26T08:01:58Z</time>
      </trkpt>
      <trkpt lat="44.98185" lon="15.40836">
        <ele>780</ele>
        <time>2016-07-26T08:03:58Z</time>
      </trkpt>
      <trkpt lat="44.98179" lon="15.40841">
        <ele>780</ele>
        <time>2016-07-26T08:05:58Z</time>
      </trkpt>
      <trkpt lat="44.98176" lon="15.40846">
        <ele>779</ele>
        <time>2016-07-26T08:07:58Z</time>
      </trkpt>
      <trkpt lat="44.98169" lon="15.40855">
        <ele>779</ele>
        <time>2016-07-26T08:09:58Z</time>
      </trkpt>
      <trkpt lat="44.98167" lon="15.4086">
        <ele>778</ele>
        <time>2016-07-26T08:11:58Z</time>
      </trkpt>
      <trkpt lat="44.98164" lon="15.40869">
        <ele>778</ele>
        <time>2016-07-26T08:13:58Z</time>
      </trkpt>
      <trkpt lat="44.98162" lon="15.40879">
        <ele>777</ele>
        <time>2016-07-26T08:15:58Z</time>
      </trkpt>
      <trkpt lat="44.9816" lon="15.40905">
        <ele>774</ele>
        <time>2016-07-26T08:17:58Z</time>
      </trkpt>
      <trkpt lat="44.98157" lon="15.40924">
        <ele>772</ele>
        <time>2016-07-26T08:19:58Z</time>
      </trkpt>
      <trkpt lat="44.98156" lon="15.40929">
        <ele>772</ele>
        <time>2016-07-26T08:21:58Z</time>
      </trkpt>
      <trkpt lat="44.98155" lon="15.40935">
        <ele>771</ele>
        <time>2016-07-26T08:23:58Z</time>
      </trkpt>
      <trkpt lat="44.98152" lon="15.40942">
        <ele>771</ele>
        <time>2016-07-26T08:25:58Z</time>
      </trkpt>
      <trkpt lat="44.98148" lon="15.40948">
        <ele>771</ele>
        <time>2016-07-26T08:27:58Z</time>
      </trkpt>
      <trkpt lat="44.98144" lon="15.40952">
        <ele>771</ele>
        <time>2016-07-26T08:29:58Z</time>
      </trkpt>
      <trkpt lat="44.98141" lon="15.40953">
        <ele>771</ele>
        <time>2016-07-26T08:31:58Z</time>
      </trkpt>
      <trkpt lat="44.98134" lon="15.40955">
        <ele>772</ele>
        <time>2016-07-26T08:33:58Z</time>
      </trkpt>
      <trkpt lat="44.9813" lon="15.40954">
        <ele>773</ele>
        <time>2016-07-26T08:35:58Z</time>
      </trkpt>
      <trkpt lat="44.98127" lon="15.40953">
        <ele>774</ele>
        <time>2016-07-26T08:37:58Z</time>
      </trkpt>
      <trkpt lat="44.98124" lon="15.40953">
        <ele>774</ele>
        <time>2016-07-26T08:39:58Z</time>
      </trkpt>
      <trkpt lat="44.98121" lon="15.40952">
        <ele>775</ele>
        <time>2016-07-26T08:41:58Z</time>
      </trkpt>
      <trkpt lat="44.98116" lon="15.40953">
        <ele>776</ele>
        <time>2016-07-26T08:43:58Z</time>
      </trkpt>
      <trkpt lat="44.98114" lon="15.40953">
        <ele>776</ele>
        <time>2016-07-26T08:45:58Z</time>
      </trkpt>
      <trkpt lat="44.98112" lon="15.40954">
        <ele>776</ele>
        <time>2016-07-26T08:47:58Z</time>
      </trkpt>
      <trkpt lat="44.98107" lon="15.40955">
        <ele>777</ele>
        <time>2016-07-26T08:49:58Z</time>
      </trkpt>
      <trkpt lat="44.98104" lon="15.40957">
        <ele>777</ele>
        <time>2016-07-26T08:51:58Z</time>
      </trkpt>
      <trkpt lat="44.98102" lon="15.4096">
        <ele>777</ele>
        <time>2016-07-26T08:53:58Z</time>
      </trkpt>
      <trkpt lat="44.98101" lon="15.40963">
        <ele>776</ele>
        <time>2016-07-26T08:55:58Z</time>
      </trkpt>
      <trkpt lat="44.981" lon="15.40966">
        <ele>776</ele>
        <time>2016-07-26T08:57:58Z</time>
      </trkpt>
      <trkpt lat="44.98098" lon="15.40974">
        <ele>775</ele>
        <time>2016-07-26T08:59:58Z</time>
      </trkpt>
      <trkpt lat="44.98098" lon="15.40996">
        <ele>771</ele>
        <time>2016-07-26T09:01:58Z</time>
      </trkpt>
      <trkpt lat="44.98098" lon="15.41006">
        <ele>770</ele>
        <time>2016-07-26T09:03:58Z</time>
      </trkpt>
      <trkpt lat="44.98097" lon="15.41015">
        <ele>769</ele>
        <time>2016-07-26T09:05:58Z</time>
      </trkpt>
      <trkpt lat="44.98096" lon="15.4102">
        <ele>768</ele>
        <time>2016-07-26T09:07:58Z</time>
      </trkpt>
      <trkpt lat="44.98095" lon="15.41025">
        <ele>768</ele>
        <time>2016-07-26T09:09:58Z</time>
      </trkpt>
      <trkpt lat="44.98093" lon="15.41028">
        <ele>768</ele>
        <time>2016-07-26T09:11:58Z</time>
      </trkpt>
      <trkpt lat="44.98089" lon="15.41037">
        <ele>767</ele>
        <time>2016-07-26T09:13:58Z</time>
      </trkpt>
      <trkpt lat="44.98082" lon="15.41048">
        <ele>767</ele>
        <time>2016-07-26T09:15:58Z</time>
      </trkpt>
      <trkpt lat="44.98078" lon="15.41059">
        <ele>766</ele>
        <time>2016-07-26T09:17:58Z</time>
      </trkpt>
      <trkpt lat="44.98074" lon="15.41071">
        <ele>765</ele>
        <time>2016-07-26T09:19:58Z</time>
      </trkpt>
      <trkpt lat="44.98072" lon="15.41078">
        <ele>765</ele>
        <time>2016-07-26T09:21:58Z</time>
      </trkpt>
      <trkpt lat="44.98069" lon="15.41095">
        <ele>764</ele>
        <time>2016-07-26T09:23:58Z</time>
      </trkpt>
      <trkpt lat="44.98069" lon="15.41109">
        <ele>762</ele>
        <time>2016-07-26T09:25:58Z</time>
      </trkpt>
      <trkpt lat="44.98069" lon="15.41116">
        <ele>762</ele>
        <time>2016-07-26T09:27:58Z</time>
      </trkpt>
      <trkpt lat="44.98071" lon="15.41126">
        <ele>761</ele>
        <time>2016-07-26T09:29:58Z</time>
      </trkpt>
      <trkpt lat="44.98071" lon="15.41132">
        <ele>760</ele>
        <time>2016-07-26T09:31:58Z</time>
      </trkpt>
      <trkpt lat="44.98073" lon="15.4114">
        <ele>759</ele>
        <time>2016-07-26T09:33:58Z</time>
      </trkpt>
      <trkpt lat="44.98074" lon="15.41148">
        <ele>758</ele>
        <time>2016-07-26T09:35:58Z</time>
      </trkpt>
      <trkpt lat="44.98075" lon="15.41155">
        <ele>757</ele>
        <time>2016-07-26T09:37:58Z</time>
      </trkpt>
      <trkpt lat="44.98075" lon="15.41162">
        <ele>757</ele>
        <time>2016-07-26T09:39:58Z</time>
      </trkpt>
      <trkpt lat="44.98075" lon="15.41166">
        <ele>756</ele>
        <time>2016-07-26T09:41:58Z</time>
      </trkpt>
      <trkpt lat="44.98073" lon="15.41171">
        <ele>756</ele>
        <time>2016-07-26T09:43:58Z</time>
      </trkpt>
      <trkpt lat="44.98072" lon="15.41174">
        <ele>756</ele>
        <time>2016-07-26T09:45:58Z</time>
      </trkpt>
      <trkpt lat="44.98069" lon="15.41177">
        <ele>756</ele>
        <time>2016-07-26T09:47:58Z</time>
      </trkpt>
      <trkpt lat="44.98061" lon="15.41183">
        <ele>757</ele>
        <time>2016-07-26T09:49:58Z</time>
      </trkpt>
      <trkpt lat="44.98055" lon="15.41186">
        <ele>757</ele>
        <time>2016-07-26T09:51:58Z</time>
      </trkpt>
      <trkpt lat="44.98052" lon="15.4119">
        <ele>757</ele>
        <time>2016-07-26T09:53:58Z</time>
      </trkpt>
      <trkpt lat="44.98049" lon="15.41194">
        <ele>757</ele>
        <time>2016-07-26T09:55:58Z</time>
      </trkpt>
      <trkpt lat="44.98047" lon="15.41199">
        <ele>757</ele>
        <time>2016-07-26T09:57:58Z</time>
      </trkpt>
      <trkpt lat="44.98045" lon="15.41206">
        <ele>757</ele>
        <time>2016-07-26T09:59:58Z</time>
      </trkpt>
      <trkpt lat="44.98043" lon="15.41214">
        <ele>756</ele>
        <time>2016-07-26T10:01:58Z</time>
      </trkpt>
      <trkpt lat="44.98043" lon="15.41223">
        <ele>755</ele>
        <time>2016-07-26T10:03:58Z</time>
      </trkpt>
      <trkpt lat="44.98046" lon="15.41241">
        <ele>753</ele>
        <time>2016-07-26T10:05:58Z</time>
      </trkpt>
      <trkpt lat="44.98047" lon="15.41248">
        <ele>752</ele>
        <time>2016-07-26T10:07:58Z</time>
      </trkpt>
      <trkpt lat="44.98047" lon="15.41253">
        <ele>752</ele>
        <time>2016-07-26T10:09:58Z</time>
      </trkpt>
      <trkpt lat="44.98046" lon="15.41259">
        <ele>751</ele>
        <time>2016-07-26T10:11:58Z</time>
      </trkpt>
      <trkpt lat="44.98044" lon="15.41263">
        <ele>751</ele>
        <time>2016-07-26T10:13:58Z</time>
      </trkpt>
      <trkpt lat="44.98042" lon="15.41265">
        <ele>751</ele>
        <time>2016-07-26T10:15:58Z</time>
      </trkpt>
      <trkpt lat="44.98037" lon="15.41268">
        <ele>752</ele>
        <time>2016-07-26T10:17:58Z</time>
      </trkpt>
      <trkpt lat="44.98023" lon="15.41276">
        <ele>753</ele>
        <time>2016-07-26T10:19:58Z</time>
      </trkpt>
      <trkpt lat="44.9801" lon="15.41287">
        <ele>754</ele>
        <time>2016-07-26T10:21:58Z</time>
      </trkpt>
      <trkpt lat="44.98001" lon="15.41296">
        <ele>755</ele>
        <time>2016-07-26T10:23:58Z</time>
      </trkpt>
      <trkpt lat="44.97998" lon="15.41302">
        <ele>755</ele>
        <time>2016-07-26T10:25:58Z</time>
      </trkpt>
      <trkpt lat="44.97996" lon="15.41306">
        <ele>755</ele>
        <time>2016-07-26T10:27:58Z</time>
      </trkpt>
      <trkpt lat="44.97995" lon="15.41314">
        <ele>755</ele>
        <time>2016-07-26T10:29:58Z</time>
      </trkpt>
      <trkpt lat="44.97995" lon="15.41321">
        <ele>754</ele>
        <time>2016-07-26T10:31:58Z</time>
      </trkpt>
      <trkpt lat="44.97996" lon="15.41327">
        <ele>754</ele>
        <time>2016-07-26T10:33:58Z</time>
      </trkpt>
      <trkpt lat="44.9801" lon="15.41372">
        <ele>750</ele>
        <time>2016-07-26T10:35:58Z</time>
      </trkpt>
      <trkpt lat="44.98023" lon="15.4142">
        <ele>746</ele>
        <time>2016-07-26T10:37:58Z</time>
      </trkpt>
      <trkpt lat="44.98029" lon="15.41448">
        <ele>743</ele>
        <time>2016-07-26T10:39:58Z</time>
      </trkpt>
      <trkpt lat="44.98031" lon="15.41465">
        <ele>741</ele>
        <time>2016-07-26T10:41:58Z</time>
      </trkpt>
      <trkpt lat="44.98032" lon="15.41476">
        <ele>740</ele>
        <time>2016-07-26T10:43:58Z</time>
      </trkpt>
      <trkpt lat="44.98032" lon="15.41486">
        <ele>740</ele>
        <time>2016-07-26T10:45:58Z</time>
      </trkpt>
      <trkpt lat="44.98031" lon="15.41495">
        <ele>739</ele>
        <time>2016-07-26T10:47:58Z</time>
      </trkpt>
      <trkpt lat="44.9803" lon="15.41501">
        <ele>739</ele>
        <time>2016-07-26T10:49:58Z</time>
      </trkpt>
      <trkpt lat="44.98026" lon="15.41516">
        <ele>738</ele>
        <time>2016-07-26T10:51:58Z</time>
      </trkpt>
      <trkpt lat="44.98023" lon="15.41525">
        <ele>738</ele>
        <time>2016-07-26T10:53:58Z</time>
      </trkpt>
      <trkpt lat="44.98019" lon="15.41532">
        <ele>738</ele>
        <time>2016-07-26T10:55:58Z</time>
      </trkpt>
      <trkpt lat="44.98017" lon="15.41535">
        <ele>738</ele>
        <time>2016-07-26T10:57:58Z</time>
      </trkpt>
      <trkpt lat="44.98016" lon="15.41537">
        <ele>738</ele>
        <time>2016-07-26T10:59:58Z</time>
      </trkpt>
      <trkpt lat="44.98014" lon="15.41539">
        <ele>738</ele>
        <time>2016-07-26T11:01:58Z</time>
      </trkpt>
      <trkpt lat="44.98013" lon="15.41542">
        <ele>738</ele>
        <time>2016-07-26T11:03:58Z</time>
      </trkpt>
      <trkpt lat="44.98011" lon="15.41546">
        <ele>738</ele>
        <time>2016-07-26T11:05:58Z</time>
      </trkpt>
      <trkpt lat="44.9801" lon="15.41555">
        <ele>737</ele>
        <time>2016-07-26T11:07:58Z</time>
      </trkpt>
      <trkpt lat="44.98009" lon="15.4156">
        <ele>737</ele>
        <time>2016-07-26T11:09:58Z</time>
      </trkpt>
      <trkpt lat="44.98009" lon="15.41565">
        <ele>736</ele>
        <time>2016-07-26T11:11:58Z</time>
      </trkpt>
      <trkpt lat="44.98008" lon="15.41568">
        <ele>736</ele>
        <time>2016-07-26T11:13:58Z</time>
      </trkpt>
      <trkpt lat="44.9799" lon="15.41606">
        <ele>736</ele>
        <time>2016-07-26T11:15:58Z</time>
      </trkpt>
      <trkpt lat="44.97971" lon="15.41649">
        <ele>735</ele>
        <time>2016-07-26T11:17:58Z</time>
      </trkpt>
      <trkpt lat="44.97969" lon="15.41657">
        <ele>735</ele>
        <time>2016-07-26T11:19:58Z</time>
      </trkpt>
      <trkpt lat="44.97968" lon="15.41663">
        <ele>734</ele>
        <time>2016-07-26T11:21:58Z</time>
      </trkpt>
      <trkpt lat="44.97968" lon="15.41669">
        <ele>734</ele>
        <time>2016-07-26T11:23:58Z</time>
      </trkpt>
      <trkpt lat="44.97968" lon="15.41675">
        <ele>734</ele>
        <time>2016-07-26T11:25:58Z</time>
      </trkpt>
      <trkpt lat="44.97968" lon="15.41683">
        <ele>734</ele>
        <time>2016-07-26T11:27:58Z</time>
      </trkpt>
      <trkpt lat="44.97969" lon="15.4169">
        <ele>733</ele>
        <time>2016-07-26T11:29:58Z</time>
      </trkpt>
      <trkpt lat="44.97971" lon="15.41694">
        <ele>733</ele>
        <time>2016-07-26T11:31:58Z</time>
      </trkpt>
      <trkpt lat="44.97974" lon="15.41702">
        <ele>732</ele>
        <time>2016-07-26T11:33:58Z</time>
      </trkpt>
      <trkpt lat="44.97979" lon="15.41713">
        <ele>731</ele>
        <time>2016-07-26T11:35:58Z</time>
      </trkpt>
      <trkpt lat="44.97983" lon="15.41721">
        <ele>731</ele>
        <time>2016-07-26T11:37:58Z</time>
      </trkpt>
      <trkpt lat="44.97985" lon="15.41727">
        <ele>730</ele>
        <time>2016-07-26T11:39:58Z</time>
      </trkpt>
      <trkpt lat="44.97986" lon="15.4173">
        <ele>730</ele>
        <time>2016-07-26T11:41:58Z</time>
      </trkpt>
      <trkpt lat="44.97986" lon="15.41734">
        <ele>730</ele>
        <time>2016-07-26T11:43:58Z</time>
      </trkpt>
      <trkpt lat="44.97985" lon="15.41737">
        <ele>730</ele>
        <time>2016-07-26T11:45:58Z</time>
      </trkpt>
      <trkpt lat="44.97984" lon="15.41742">
        <ele>730</ele>
        <time>2016-07-26T11:47:58Z</time>
      </trkpt>
      <trkpt lat="44.97982" lon="15.41746">
        <ele>730</ele>
        <time>2016-07-26T11:49:58Z</time>
      </trkpt>
      <trkpt lat="44.97977" lon="15.41756">
        <ele>731</ele>
        <time>2016-07-26T11:51:58Z</time>
      </trkpt>
      <trkpt lat="44.97968" lon="15.41777">
        <ele>731</ele>
        <time>2016-07-26T11:53:58Z</time>
      </trkpt>
      <trkpt lat="44.97966" lon="15.41785">
        <ele>731</ele>
        <time>2016-07-26T11:55:58Z</time>
      </trkpt>
      <trkpt lat="44.97964" lon="15.41794">
        <ele>731</ele>
        <time>2016-07-26T11:57:58Z</time>
      </trkpt>
      <trkpt lat="44.97964" lon="15.41803">
        <ele>731</ele>
        <time>2016-07-26T11:59:58Z</time>
      </trkpt>
      <trkpt lat="44.97964" lon="15.41813">
        <ele>731</ele>
        <time>2016-07-26T12:01:58Z</time>
      </trkpt>
      <trkpt lat="44.97965" lon="15.41846">
        <ele>730</ele>
        <time>2016-07-26T12:03:58Z</time>
      </trkpt>
      <trkpt lat="44.97969" lon="15.41884">
        <ele>729</ele>
        <time>2016-07-26T12:05:58Z</time>
      </trkpt>
      <trkpt lat="44.97973" lon="15.41907">
        <ele>728</ele>
        <time>2016-07-26T12:07:58Z</time>
      </trkpt>
      <trkpt lat="44.97986" lon="15.41948">
        <ele>725</ele>
        <time>2016-07-26T12:09:58Z</time>
      </trkpt>
      <trkpt lat="44.97994" lon="15.41976">
        <ele>723</ele>
        <time>2016-07-26T12:11:58Z</time>
      </trkpt>
      <trkpt lat="44.97999" lon="15.42005">
        <ele>722</ele>
        <time>2016-07-26T12:13:58Z</time>
      </trkpt>
      <trkpt lat="44.98" lon="15.42025">
        <ele>720</ele>
        <time>2016-07-26T12:15:58Z</time>
      </trkpt>
      <trkpt lat="44.97999" lon="15.42038">
        <ele>719</ele>
        <time>2016-07-26T12:17:58Z</time>
      </trkpt>
      <trkpt lat="44.97998" lon="15.42049">
        <ele>719</ele>
        <time>2016-07-26T12:19:58Z</time>
      </trkpt>
      <trkpt lat="44.97997" lon="15.42057">
        <ele>719</ele>
        <time>2016-07-26T12:21:58Z</time>
      </trkpt>
      <trkpt lat="44.97995" lon="15.42063">
        <ele>719</ele>
        <time>2016-07-26T12:23:58Z</time>
      </trkpt>
      <trkpt lat="44.97994" lon="15.42066">
        <ele>719</ele>
        <time>2016-07-26T12:25:58Z</time>
      </trkpt>
      <trkpt lat="44.97992" lon="15.42068">
        <ele>719</ele>
        <time>2016-07-26T12:27:58Z</time>
      </trkpt>
      <trkpt lat="44.97989" lon="15.42069">
        <ele>720</ele>
        <time>2016-07-26T12:29:58Z</time>
      </trkpt>
      <trkpt lat="44.97986" lon="15.42071">
        <ele>720</ele>
        <time>2016-07-26T12:31:58Z</time>
      </trkpt>
      <trkpt lat="44.97983" lon="15.42072">
        <ele>721</ele>
        <time>2016-07-26T12:33:58Z</time>
      </trkpt>
      <trkpt lat="44.97974" lon="15.42077">
        <ele>723</ele>
        <time>2016-07-26T12:35:58Z</time>
      </trkpt>
      <trkpt lat="44.97968" lon="15.42081">
        <ele>724</ele>
        <time>2016-07-26T12:37:58Z</time>
      </trkpt>
      <trkpt lat="44.97963" lon="15.42085">
        <ele>725</ele>
        <time>2016-07-26T12:39:58Z</time>
      </trkpt>
      <trkpt lat="44.97959" lon="15.42092">
        <ele>725</ele>
        <time>2016-07-26T12:41:58Z</time>
      </trkpt>
      <trkpt lat="44.97955" lon="15.42102">
        <ele>726</ele>
        <time>2016-07-26T12:43:58Z</time>
      </trkpt>
      <trkpt lat="44.97954" lon="15.42112">
        <ele>726</ele>
        <time>2016-07-26T12:45:58Z</time>
      </trkpt>
      <trkpt lat="44.97954" lon="15.42116">
        <ele>726</ele>
        <time>2016-07-26T12:47:58Z</time>
      </trkpt>
      <trkpt lat="44.97955" lon="15.42121">
        <ele>725</ele>
        <time>2016-07-26T12:49:58Z</time>
      </trkpt>
      <trkpt lat="44.97956" lon="15.42127">
        <ele>725</ele>
        <time>2016-07-26T12:51:58Z</time>
      </trkpt>
      <trkpt lat="44.97958" lon="15.42133">
        <ele>724</ele>
        <time>2016-07-26T12:53:58Z</time>
      </trkpt>
      <trkpt lat="44.97962" lon="15.42141">
        <ele>723</ele>
        <time>2016-07-26T12:55:58Z</time>
      </trkpt>
      <trkpt lat="44.97965" lon="15.42146">
        <ele>722</ele>
        <time>2016-07-26T12:57:58Z</time>
      </trkpt>
      <trkpt lat="44.97968" lon="15.4215">
        <ele>721</ele>
        <time>2016-07-26T12:59:58Z</time>
      </trkpt>
      <trkpt lat="44.97976" lon="15.42156">
        <ele>719</ele>
        <time>2016-07-26T13:01:58Z</time>
      </trkpt>
      <trkpt lat="44.9798" lon="15.42158">
        <ele>717</ele>
        <time>2016-07-26T13:03:58Z</time>
      </trkpt>
      <trkpt lat="44.97985" lon="15.42158">
        <ele>716</ele>
        <time>2016-07-26T13:05:58Z</time>
      </trkpt>
      <trkpt lat="44.9799" lon="15.42158">
        <ele>715</ele>
        <time>2016-07-26T13:07:58Z</time>
      </trkpt>
      <trkpt lat="44.97996" lon="15.42156">
        <ele>714</ele>
        <time>2016-07-26T13:09:58Z</time>
      </trkpt>
      <trkpt lat="44.98" lon="15.42153">
        <ele>713</ele>
        <time>2016-07-26T13:11:58Z</time>
      </trkpt>
      <trkpt lat="44.98004" lon="15.4215">
        <ele>712</ele>
        <time>2016-07-26T13:13:58Z</time>
      </trkpt>
      <trkpt lat="44.98013" lon="15.42141">
        <ele>712</ele>
        <time>2016-07-26T13:15:58Z</time>
      </trkpt>
      <trkpt lat="44.98019" lon="15.42132">
        <ele>712</ele>
        <time>2016-07-26T13:17:58Z</time>
      </trkpt>
      <trkpt lat="44.98041" lon="15.42103">
        <ele>711</ele>
        <time>2016-07-26T13:19:58Z</time>
      </trkpt>
      <trkpt lat="44.98049" lon="15.42094">
        <ele>711</ele>
        <time>2016-07-26T13:21:58Z</time>
      </trkpt>
      <trkpt lat="44.98051" lon="15.4209">
        <ele>711</ele>
        <time>2016-07-26T13:23:58Z</time>
      </trkpt>
      <trkpt lat="44.98053" lon="15.42085">
        <ele>711</ele>
        <time>2016-07-26T13:25:58Z</time>
      </trkpt>
      <trkpt lat="44.98055" lon="15.4208">
        <ele>711</ele>
        <time>2016-07-26T13:27:58Z</time>
      </trkpt>
      <trkpt lat="44.98056" lon="15.42072">
        <ele>711</ele>
        <time>2016-07-26T13:29:58Z</time>
      </trkpt>
      <trkpt lat="44.98058" lon="15.4205">
        <ele>712</ele>
        <time>2016-07-26T13:31:58Z</time>
      </trkpt>
      <trkpt lat="44.98064" lon="15.41993">
        <ele>713</ele>
        <time>2016-07-26T13:33:58Z</time>
      </trkpt>
      <trkpt lat="44.98067" lon="15.41976">
        <ele>712</ele>
        <time>2016-07-26T13:35:58Z</time>
      </trkpt>
      <trkpt lat="44.98074" lon="15.41949">
        <ele>711</ele>
        <time>2016-07-26T13:37:58Z</time>
      </trkpt>
      <trkpt lat="44.98077" lon="15.41938">
        <ele>710</ele>
        <time>2016-07-26T13:39:58Z</time>
      </trkpt>
      <trkpt lat="44.98085" lon="15.41924">
        <ele>709</ele>
        <time>2016-07-26T13:41:58Z</time>
      </trkpt>
      <trkpt lat="44.98102" lon="15.41903">
        <ele>707</ele>
        <time>2016-07-26T13:43:58Z</time>
      </trkpt>
      <trkpt lat="44.98109" lon="15.41891">
        <ele>705</ele>
        <time>2016-07-26T13:45:58Z</time>
      </trkpt>
      <trkpt lat="44.98111" lon="15.41887">
        <ele>705</ele>
        <time>2016-07-26T13:47:58Z</time>
      </trkpt>
      <trkpt lat="44.98112" lon="15.41882">
        <ele>705</ele>
        <time>2016-07-26T13:49:58Z</time>
      </trkpt>
      <trkpt lat="44.98112" lon="15.41878">
        <ele>705</ele>
        <time>2016-07-26T13:51:58Z</time>
      </trkpt>
      <trkpt lat="44.98112" lon="15.41872">
        <ele>705</ele>
        <time>2016-07-26T13:53:58Z</time>
      </trkpt>
      <trkpt lat="44.9811" lon="15.41863">
        <ele>705</ele>
        <time>2016-07-26T13:55:58Z</time>
      </trkpt>
      <trkpt lat="44.98104" lon="15.41846">
        <ele>705</ele>
        <time>2016-07-26T13:57:58Z</time>
      </trkpt>
      <trkpt lat="44.98102" lon="15.41838">
        <ele>705</ele>
        <time>2016-07-26T13:59:58Z</time>
      </trkpt>
      <trkpt lat="44.98101" lon="15.41832">
        <ele>705</ele>
        <time>2016-07-26T14:01:58Z</time>
      </trkpt>
      <trkpt lat="44.98101" lon="15.41822">
        <ele>706</ele>
        <time>2016-07-26T14:03:58Z</time>
      </trkpt>
      <trkpt lat="44.98104" lon="15.41813">
        <ele>706</ele>
        <time>2016-07-26T14:05:58Z</time>
      </trkpt>
      <trkpt lat="44.98106" lon="15.41805">
        <ele>706</ele>
        <time>2016-07-26T14:07:58Z</time>
      </trkpt>
      <trkpt lat="44.98109" lon="15.41797">
        <ele>705</ele>
        <time>2016-07-26T14:09:58Z</time>
      </trkpt>
      <trkpt lat="44.98122" lon="15.41782">
        <ele>703</ele>
        <time>2016-07-26T14:11:58Z</time>
      </trkpt>
      <trkpt lat="44.98127" lon="15.41779">
        <ele>702</ele>
        <time>2016-07-26T14:13:58Z</time>
      </trkpt>
      <trkpt lat="44.98134" lon="15.41776">
        <ele>701</ele>
        <time>2016-07-26T14:15:58Z</time>
      </trkpt>
      <trkpt lat="44.98143" lon="15.41772">
        <ele>699</ele>
        <time>2016-07-26T14:17:58Z</time>
      </trkpt>
      <trkpt lat="44.98156" lon="15.41764">
        <ele>697</ele>
        <time>2016-07-26T14:19:58Z</time>
      </trkpt>
      <trkpt lat="44.98163" lon="15.41757">
        <ele>695</ele>
        <time>2016-07-26T14:21:58Z</time>
      </trkpt>
      <trkpt lat="44.98175" lon="15.41738">
        <ele>693</ele>
        <time>2016-07-26T14:23:58Z</time>
      </trkpt>
      <trkpt lat="44.98186" lon="15.41716">
        <ele>692</ele>
        <time>2016-07-26T14:25:58Z</time>
      </trkpt>
      <trkpt lat="44.9819" lon="15.41709">
        <ele>692</ele>
        <time>2016-07-26T14:27:58Z</time>
      </trkpt>
      <trkpt lat="44.98196" lon="15.41704">
        <ele>691</ele>
        <time>2016-07-26T14:29:58Z</time>
      </trkpt>
      <trkpt lat="44.98204" lon="15.41698">
        <ele>690</ele>
        <time>2016-07-26T14:31:58Z</time>
      </trkpt>
      <trkpt lat="44.98211" lon="15.41696">
        <ele>689</ele>
        <time>2016-07-26T14:33:58Z</time>
      </trkpt>
      <trkpt lat="44.98219" lon="15.41694">
        <ele>688</ele>
        <time>2016-07-26T14:35:58Z</time>
      </trkpt>
      <trkpt lat="44.98226" lon="15.41692">
        <ele>688</ele>
        <time>2016-07-26T14:37:58Z</time>
      </trkpt>
      <trkpt lat="44.9824" lon="15.41691">
        <ele>686</ele>
        <time>2016-07-26T14:39:58Z</time>
      </trkpt>
      <trkpt lat="44.98247" lon="15.41691">
        <ele>685</ele>
        <time>2016-07-26T14:41:58Z</time>
      </trkpt>
      <trkpt lat="44.98256" lon="15.41693">
        <ele>684</ele>
        <time>2016-07-26T14:43:58Z</time>
      </trkpt>
      <trkpt lat="44.98264" lon="15.41696">
        <ele>684</ele>
        <time>2016-07-26T14:45:58Z</time>
      </trkpt>
      <trkpt lat="44.9827" lon="15.417">
        <ele>684</ele>
        <time>2016-07-26T14:47:58Z</time>
      </trkpt>
      <trkpt lat="44.9828" lon="15.41705">
        <ele>684</ele>
        <time>2016-07-26T14:49:58Z</time>
      </trkpt>
      <trkpt lat="44.98286" lon="15.41705">
        <ele>684</ele>
        <time>2016-07-26T14:51:58Z</time>
      </trkpt>
      <trkpt lat="44.98291" lon="15.41704">
        <ele>684</ele>
        <time>2016-07-26T14:53:58Z</time>
      </trkpt>
      <trkpt lat="44.98296" lon="15.41702">
        <ele>684</ele>
        <time>2016-07-26T14:55:58Z</time>
      </trkpt>
      <trkpt lat="44.983" lon="15.41698">
        <ele>684</ele>
        <time>2016-07-26T14:57:58Z</time>
      </trkpt>
      <trkpt lat="44.98307" lon="15.41689">
        <ele>684</ele>
        <time>2016-07-26T14:59:58Z</time>
      </trkpt>
      <trkpt lat="44.98326" lon="15.41666">
        <ele>685</ele>
        <time>2016-07-26T15:01:58Z</time>
      </trkpt>
      <trkpt lat="44.98332" lon="15.41663">
        <ele>685</ele>
        <time>2016-07-26T15:03:58Z</time>
      </trkpt>
      <trkpt lat="44.98337" lon="15.41662">
        <ele>685</ele>
        <time>2016-07-26T15:05:58Z</time>
      </trkpt>
      <trkpt lat="44.98342" lon="15.41663">
        <ele>685</ele>
        <time>2016-07-26T15:07:58Z</time>
      </trkpt>
      <trkpt lat="44.98347" lon="15.41664">
        <ele>685</ele>
        <time>2016-07-26T15:09:58Z</time>
      </trkpt>
      <trkpt lat="44.98355" lon="15.4167">
        <ele>685</ele>
        <time>2016-07-26T15:11:58Z</time>
      </trkpt>
      <trkpt lat="44.98367" lon="15.41682">
        <ele>683</ele>
        <time>2016-07-26T15:13:58Z</time>
      </trkpt>
      <trkpt lat="44.9841" lon="15.41725">
        <ele>678</ele>
        <time>2016-07-26T15:15:58Z</time>
      </trkpt>
      <trkpt lat="44.98418" lon="15.4173">
        <ele>677</ele>
        <time>2016-07-26T15:17:58Z</time>
      </trkpt>
      <trkpt lat="44.98425" lon="15.41734">
        <ele>676</ele>
        <time>2016-07-26T15:19:58Z</time>
      </trkpt>
      <trkpt lat="44.9843" lon="15.41735">
        <ele>676</ele>
        <time>2016-07-26T15:21:58Z</time>
      </trkpt>
      <trkpt lat="44.98434" lon="15.41736">
        <ele>676</ele>
        <time>2016-07-26T15:23:58Z</time>
      </trkpt>
      <trkpt lat="44.9844" lon="15.41736">
        <ele>675</ele>
        <time>2016-07-26T15:25:58Z</time>
      </trkpt>
      <trkpt lat="44.98444" lon="15.41736">
        <ele>675</ele>
        <time>2016-07-26T15:27:58Z</time>
      </trkpt>
      <trkpt lat="44.98447" lon="15.41735">
        <ele>675</ele>
        <time>2016-07-26T15:29:58Z</time>
      </trkpt>
      <trkpt lat="44.98451" lon="15.41734">
        <ele>675</ele>
        <time>2016-07-26T15:31:58Z</time>
      </trkpt>
      <trkpt lat="44.98462" lon="15.4173">
        <ele>675</ele>
        <time>2016-07-26T15:33:58Z</time>
      </trkpt>
      <trkpt lat="44.98469" lon="15.41726">
        <ele>675</ele>
        <time>2016-07-26T15:35:58Z</time>
      </trkpt>
      <trkpt lat="44.98481" lon="15.4172">
        <ele>676</ele>
        <time>2016-07-26T15:37:58Z</time>
      </trkpt>
      <trkpt lat="44.98493" lon="15.41716">
        <ele>676</ele>
        <time>2016-07-26T15:39:58Z</time>
      </trkpt>
      <trkpt lat="44.98503" lon="15.41714">
        <ele>676</ele>
        <time>2016-07-26T15:41:58Z</time>
      </trkpt>
      <trkpt lat="44.9851" lon="15.41713">
        <ele>676</ele>
        <time>2016-07-26T15:43:58Z</time>
      </trkpt>
      <trkpt lat="44.98517" lon="15.41713">
        <ele>675</ele>
        <time>2016-07-26T15:45:58Z</time>
      </trkpt>
      <trkpt lat="44.98526" lon="15.41714">
        <ele>675</ele>
        <time>2016-07-26T15:47:58Z</time>
      </trkpt>
      <trkpt lat="44.9854" lon="15.41718">
        <ele>674</ele>
        <time>2016-07-26T15:49:58Z</time>
      </trkpt>
      <trkpt lat="44.98551" lon="15.41721">
        <ele>673</ele>
        <time>2016-07-26T15:51:58Z</time>
      </trkpt>
      <trkpt lat="44.98566" lon="15.41722">
        <ele>672</ele>
        <time>2016-07-26T15:53:58Z</time>
      </trkpt>
      <trkpt lat="44.98571" lon="15.41721">
        <ele>672</ele>
        <time>2016-07-26T15:55:58Z</time>
      </trkpt>
      <trkpt lat="44.98575" lon="15.41721">
        <ele>672</ele>
        <time>2016-07-26T15:57:58Z</time>
      </trkpt>
      <trkpt lat="44.9858" lon="15.41719">
        <ele>672</ele>
        <time>2016-07-26T15:59:58Z</time>
      </trkpt>
      <trkpt lat="44.98584" lon="15.41717">
        <ele>673</ele>
        <time>2016-07-26T16:01:58Z</time>
      </trkpt>
      <trkpt lat="44.98589" lon="15.41714">
        <ele>673</ele>
        <time>2016-07-26T16:03:58Z</time>
      </trkpt>
      <trkpt lat="44.986" lon="15.41711">
        <ele>674</ele>
        <time>2016-07-26T16:05:58Z</time>
      </trkpt>
      <trkpt lat="44.98605" lon="15.41711">
        <ele>674</ele>
        <time>2016-07-26T16:07:58Z</time>
      </trkpt>
      <trkpt lat="44.9861" lon="15.41712">
        <ele>674</ele>
        <time>2016-07-26T16:09:58Z</time>
      </trkpt>
      <trkpt lat="44.98617" lon="15.41716">
        <ele>673</ele>
        <time>2016-07-26T16:11:58Z</time>
      </trkpt>
      <trkpt lat="44.9862" lon="15.41718">
        <ele>672</ele>
        <time>2016-07-26T16:13:58Z</time>
      </trkpt>
      <trkpt lat="44.98624" lon="15.41721">
        <ele>672</ele>
        <time>2016-07-26T16:15:58Z</time>
      </trkpt>
      <trkpt lat="44.98627" lon="15.41724">
        <ele>671</ele>
        <time>2016-07-26T16:17:58Z</time>
      </trkpt>
      <trkpt lat="44.98632" lon="15.41726">
        <ele>671</ele>
        <time>2016-07-26T16:19:58Z</time>
      </trkpt>
      <trkpt lat="44.98639" lon="15.41727">
        <ele>670</ele>
        <time>2016-07-26T16:21:58Z</time>
      </trkpt>
      <trkpt lat="44.98642" lon="15.41727">
        <ele>670</ele>
        <time>2016-07-26T16:23:58Z</time>
      </trkpt>
      <trkpt lat="44.98647" lon="15.41727">
        <ele>670</ele>
        <time>2016-07-26T16:25:58Z</time>
      </trkpt>
      <trkpt lat="44.9865" lon="15.41725">
        <ele>671</ele>
        <time>2016-07-26T16:27:58Z</time>
      </trkpt>
      <trkpt lat="44.98654" lon="15.41723">
        <ele>671</ele>
        <time>2016-07-26T16:29:58Z</time>
      </trkpt>
      <trkpt lat="44.98659" lon="15.41719">
        <ele>672</ele>
        <time>2016-07-26T16:31:58Z</time>
      </trkpt>
      <trkpt lat="44.9867" lon="15.41715">
        <ele>673</ele>
        <time>2016-07-26T16:33:58Z</time>
      </trkpt>
      <trkpt lat="44.98673" lon="15.41714">
        <ele>672</ele>
        <time>2016-07-26T16:35:58Z</time>
      </trkpt>
      <trkpt lat="44.98677" lon="15.41714">
        <ele>672</ele>
        <time>2016-07-26T16:37:58Z</time>
      </trkpt>
      <trkpt lat="44.9868" lon="15.41714">
        <ele>672</ele>
        <time>2016-07-26T16:39:58Z</time>
      </trkpt>
      <trkpt lat="44.98683" lon="15.41715">
        <ele>671</ele>
        <time>2016-07-26T16:41:58Z</time>
      </trkpt>
      <trkpt lat="44.98687" lon="15.41716">
        <ele>670</ele>
        <time>2016-07-26T16:43:58Z</time>
      </trkpt>
      <trkpt lat="44.9869" lon="15.41718">
        <ele>670</ele>
        <time>2016-07-26T16:45:58Z</time>
      </trkpt>
      <trkpt lat="44.98694" lon="15.4172">
        <ele>669</ele>
        <time>2016-07-26T16:47:58Z</time>
      </trkpt>
      <trkpt lat="44.98698" lon="15.41722">
        <ele>668</ele>
        <time>2016-07-26T16:49:58Z</time>
      </trkpt>
      <trkpt lat="44.98701" lon="15.41723">
        <ele>667</ele>
        <time>2016-07-26T16:51:58Z</time>
      </trkpt>
      <trkpt lat="44.98703" lon="15.41724">
        <ele>667</ele>
        <time>2016-07-26T16:53:58Z</time>
      </trkpt>
      <trkpt lat="44.98706" lon="15.41724">
        <ele>667</ele>
        <time>2016-07-26T16:55:58Z</time>
      </trkpt>
      <trkpt lat="44.98709" lon="15.41723">
        <ele>666</ele>
        <time>2016-07-26T16:57:58Z</time>
      </trkpt>
      <trkpt lat="44.98711" lon="15.41721">
        <ele>667</ele>
        <time>2016-07-26T16:59:58Z</time>
      </trkpt>
      <trkpt lat="44.98714" lon="15.41718">
        <ele>667</ele>
        <time>2016-07-26T17:01:58Z</time>
      </trkpt>
      <trkpt lat="44.98719" lon="15.41709">
        <ele>668</ele>
        <time>2016-07-26T17:03:58Z</time>
      </trkpt>
      <trkpt lat="44.98721" lon="15.41703">
        <ele>669</ele>
        <time>2016-07-26T17:05:58Z</time>
      </trkpt>
      <trkpt lat="44.98724" lon="15.41694">
        <ele>670</ele>
        <time>2016-07-26T17:07:58Z</time>
      </trkpt>
      <trkpt lat="44.98727" lon="15.41681">
        <ele>671</ele>
        <time>2016-07-26T17:09:58Z</time>
      </trkpt>
      <trkpt lat="44.9873" lon="15.41675">
        <ele>672</ele>
        <time>2016-07-26T17:11:58Z</time>
      </trkpt>
      <trkpt lat="44.98735" lon="15.41666">
        <ele>673</ele>
        <time>2016-07-26T17:13:58Z</time>
      </trkpt>
      <trkpt lat="44.98737" lon="15.41664">
        <ele>673</ele>
        <time>2016-07-26T17:15:58Z</time>
      </trkpt>
      <trkpt lat="44.98739" lon="15.41662">
        <ele>673</ele>
        <time>2016-07-26T17:17:58Z</time>
      </trkpt>
      <trkpt lat="44.9874" lon="15.41661">
        <ele>673</ele>
        <time>2016-07-26T17:19:58Z</time>
      </trkpt>
      <trkpt lat="44.98743" lon="15.4166">
        <ele>673</ele>
        <time>2016-07-26T17:21:58Z</time>
      </trkpt>
      <trkpt lat="44.98746" lon="15.41659">
        <ele>673</ele>
        <time>2016-07-26T17:23:58Z</time>
      </trkpt>
      <trkpt lat="44.98748" lon="15.41659">
        <ele>672</ele>
        <time>2016-07-26T17:25:58Z</time>
      </trkpt>
      <trkpt lat="44.98751" lon="15.41659">
        <ele>672</ele>
        <time>2016-07-26T17:27:58Z</time>
      </trkpt>
      <trkpt lat="44.98754" lon="15.4166">
        <ele>672</ele>
        <time>2016-07-26T17:29:58Z</time>
      </trkpt>
      <trkpt lat="44.98758" lon="15.41662">
        <ele>672</ele>
        <time>2016-07-26T17:31:58Z</time>
      </trkpt>
      <trkpt lat="44.98762" lon="15.41664">
        <ele>672</ele>
        <time>2016-07-26T17:33:58Z</time>
      </trkpt>
      <trkpt lat="44.98767" lon="15.41666">
        <ele>672</ele>
        <time>2016-07-26T17:35:58Z</time>
      </trkpt>
      <trkpt lat="44.98773" lon="15.41668">
        <ele>672</ele>
        <time>2016-07-26T17:37:58Z</time>
      </trkpt>
      <trkpt lat="44.98781" lon="15.41672">
        <ele>672</ele>
        <time>2016-07-26T17:39:58Z</time>
      </trkpt>
      <trkpt lat="44.9879" lon="15.41677">
        <ele>671</ele>
        <time>2016-07-26T17:41:58Z</time>
      </trkpt>
      <trkpt lat="44.98793" lon="15.41679">
        <ele>671</ele>
        <time>2016-07-26T17:43:58Z</time>
      </trkpt>
      <trkpt lat="44.98804" lon="15.41686">
        <ele>670</ele>
        <time>2016-07-26T17:45:58Z</time>
      </trkpt>
      <trkpt lat="44.98815" lon="15.41697">
        <ele>666</ele>
        <time>2016-07-26T17:47:58Z</time>
      </trkpt>
      <trkpt lat="44.98826" lon="15.41709">
        <ele>662</ele>
        <time>2016-07-26T17:49:58Z</time>
      </trkpt>
      <trkpt lat="44.98834" lon="15.41716">
        <ele>660</ele>
        <time>2016-07-26T17:51:58Z</time>
      </trkpt>
      <trkpt lat="44.98839" lon="15.41719">
        <ele>659</ele>
        <time>2016-07-26T17:53:58Z</time>
      </trkpt>
      <trkpt lat="44.98847" lon="15.41723">
        <ele>658</ele>
        <time>2016-07-26T17:55:58Z</time>
      </trkpt>
      <trkpt lat="44.98855" lon="15.41725">
        <ele>657</ele>
        <time>2016-07-26T17:57:58Z</time>
      </trkpt>
      <trkpt lat="44.9886" lon="15.41726">
        <ele>657</ele>
        <time>2016-07-26T17:59:58Z</time>
      </trkpt>
      <trkpt lat="44.98873" lon="15.41727">
        <ele>657</ele>
        <time>2016-07-26T18:01:58Z</time>
      </trkpt>
      <trkpt lat="44.98904" lon="15.41726">
        <ele>658</ele>
        <time>2016-07-26T18:03:58Z</time>
      </trkpt>
      <trkpt lat="44.9893" lon="15.41725">
        <ele>659</ele>
        <time>2016-07-26T18:05:58Z</time>
      </trkpt>
      <trkpt lat="44.98952" lon="15.41726">
        <ele>659</ele>
        <time>2016-07-26T18:07:58Z</time>
      </trkpt>
      <trkpt lat="44.98966" lon="15.41728">
        <ele>658</ele>
        <time>2016-07-26T18:09:58Z</time>
      </trkpt>
      <trkpt lat="44.98997" lon="15.41735">
        <ele>656</ele>
        <time>2016-07-26T18:11:58Z</time>
      </trkpt>
      <trkpt lat="44.99045" lon="15.4175">
        <ele>652</ele>
        <time>2016-07-26T18:13:58Z</time>
      </trkpt>
      <trkpt lat="44.99072" lon="15.41759">
        <ele>651</ele>
        <time>2016-07-26T18:15:58Z</time>
      </trkpt>
      <trkpt lat="44.99103" lon="15.41767">
        <ele>649</ele>
        <time>2016-07-26T18:17:58Z</time>
      </trkpt>
      <trkpt lat="44.99113" lon="15.41768">
        <ele>648</ele>
        <time>2016-07-26T18:19:58Z</time>
      </trkpt>
      <trkpt lat="44.99126" lon="15.41767">
        <ele>648</ele>
        <time>2016-07-26T18:21:58Z</time>
      </trkpt>
      <trkpt lat="44.99139" lon="15.41766">
        <ele>647</ele>
        <time>2016-07-26T18:23:58Z</time>
      </trkpt>
      <trkpt lat="44.99167" lon="15.41764">
        <ele>646</ele>
        <time>2016-07-26T18:25:58Z</time>
      </trkpt>
      <trkpt lat="44.99186" lon="15.41759">
        <ele>644</ele>
        <time>2016-07-26T18:27:58Z</time>
      </trkpt>
      <trkpt lat="44.99221" lon="15.41746">
        <ele>641</ele>
        <time>2016-07-26T18:29:58Z</time>
      </trkpt>
      <trkpt lat="44.99239" lon="15.41736">
        <ele>640</ele>
        <time>2016-07-26T18:31:58Z</time>
      </trkpt>
      <trkpt lat="44.9927" lon="15.41715">
        <ele>640</ele>
        <time>2016-07-26T18:33:58Z</time>
      </trkpt>
      <trkpt lat="44.99282" lon="15.41704">
        <ele>639</ele>
        <time>2016-07-26T18:35:58Z</time>
      </trkpt>
      <trkpt lat="44.993" lon="15.41688">
        <ele>637</ele>
        <time>2016-07-26T18:37:58Z</time>
      </trkpt>
      <trkpt lat="44.99305" lon="15.41681">
        <ele>637</ele>
        <time>2016-07-26T18:39:58Z</time>
      </trkpt>
      <trkpt lat="44.9931" lon="15.41673">
        <ele>637</ele>
        <time>2016-07-26T18:41:58Z</time>
      </trkpt>
      <trkpt lat="44.99317" lon="15.41655">
        <ele>637</ele>
        <time>2016-07-26T18:43:58Z</time>
      </trkpt>
      <trkpt lat="44.9932" lon="15.41648">
        <ele>637</ele>
        <time>2016-07-26T18:45:58Z</time>
      </trkpt>
      <trkpt lat="44.99325" lon="15.41642">
        <ele>636</ele>
        <time>2016-07-26T18:47:58Z</time>
      </trkpt>
      <trkpt lat="44.9933" lon="15.41638">
        <ele>635</ele>
        <time>2016-07-26T18:49:58Z</time>
      </trkpt>
      <trkpt lat="44.99342" lon="15.41633">
        <ele>633</ele>
        <time>2016-07-26T18:51:58Z</time>
      </trkpt>
      <trkpt lat="44.99346" lon="15.41632">
        <ele>632</ele>
        <time>2016-07-26T18:53:58Z</time>
      </trkpt>
      <trkpt lat="44.99352" lon="15.41628">
        <ele>632</ele>
        <time>2016-07-26T18:55:58Z</time>
      </trkpt>
      <trkpt lat="44.99356" lon="15.41625">
        <ele>631</ele>
        <time>2016-07-26T18:57:58Z</time>
      </trkpt>
      <trkpt lat="44.99358" lon="15.41622">
        <ele>631</ele>
        <time>2016-07-26T18:59:58Z</time>
      </trkpt>
      <trkpt lat="44.99361" lon="15.41618">
        <ele>631</ele>
        <time>2016-07-26T19:01:58Z</time>
      </trkpt>
      <trkpt lat="44.99364" lon="15.41609">
        <ele>632</ele>
        <time>2016-07-26T19:03:58Z</time>
      </trkpt>
      <trkpt lat="44.99367" lon="15.41593">
        <ele>633</ele>
        <time>2016-07-26T19:05:58Z</time>
      </trkpt>
      <trkpt lat="44.99369" lon="15.41586">
        <ele>633</ele>
        <time>2016-07-26T19:07:58Z</time>
      </trkpt>
      <trkpt lat="44.99371" lon="15.41575">
        <ele>634</ele>
        <time>2016-07-26T19:09:58Z</time>
      </trkpt>
      <trkpt lat="44.99375" lon="15.41562">
        <ele>635</ele>
        <time>2016-07-26T19:11:58Z</time>
      </trkpt>
      <trkpt lat="44.99379" lon="15.41555">
        <ele>634</ele>
        <time>2016-07-26T19:13:58Z</time>
      </trkpt>
      <trkpt lat="44.99383" lon="15.41548">
        <ele>634</ele>
        <time>2016-07-26T19:15:58Z</time>
      </trkpt>
      <trkpt lat="44.99387" lon="15.41545">
        <ele>633</ele>
        <time>2016-07-26T19:17:58Z</time>
      </trkpt>
      <trkpt lat="44.9939" lon="15.41541">
        <ele>633</ele>
        <time>2016-07-26T19:19:58Z</time>
      </trkpt>
      <trkpt lat="44.99395" lon="15.41535">
        <ele>632</ele>
        <time>2016-07-26T19:21:58Z</time>
      </trkpt>
      <trkpt lat="44.99405" lon="15.41522">
        <ele>630</ele>
        <time>2016-07-26T19:23:58Z</time>
      </trkpt>
      <trkpt lat="44.99412" lon="15.41513">
        <ele>628</ele>
        <time>2016-07-26T19:25:58Z</time>
      </trkpt>
      <trkpt lat="44.9942" lon="15.41496">
        <ele>626</ele>
        <time>2016-07-26T19:27:58Z</time>
      </trkpt>
      <trkpt lat="44.99424" lon="15.41486">
        <ele>624</ele>
        <time>2016-07-26T19:29:58Z</time>
      </trkpt>
      <trkpt lat="44.99426" lon="15.41478">
        <ele>623</ele>
        <time>2016-07-26T19:31:58Z</time>
      </trkpt>
      <trkpt lat="44.99427" lon="15.41468">
        <ele>622</ele>
        <time>2016-07-26T19:33:58Z</time>
      </trkpt>
      <trkpt lat="44.99427" lon="15.41459">
        <ele>622</ele>
        <time>2016-07-26T19:35:58Z</time>
      </trkpt>
      <trkpt lat="44.99426" lon="15.41448">
        <ele>622</ele>
        <time>2016-07-26T19:37:58Z</time>
      </trkpt>
      <trkpt lat="44.9942" lon="15.41424">
        <ele>624</ele>
        <time>2016-07-26T19:39:58Z</time>
      </trkpt>
      <trkpt lat="44.99415" lon="15.4141">
        <ele>626</ele>
        <time>2016-07-26T19:41:58Z</time>
      </trkpt>
      <trkpt lat="44.99407" lon="15.41383">
        <ele>629</ele>
        <time>2016-07-26T19:43:58Z</time>
      </trkpt>
      <trkpt lat="44.99399" lon="15.41354">
        <ele>632</ele>
        <time>2016-07-26T19:45:58Z</time>
      </trkpt>
      <trkpt lat="44.99397" lon="15.41345">
        <ele>633</ele>
        <time>2016-07-26T19:47:58Z</time>
      </trkpt>
      <trkpt lat="44.99395" lon="15.41336">
        <ele>634</ele>
        <time>2016-07-26T19:49:58Z</time>
      </trkpt>
      <trkpt lat="44.99395" lon="15.41329">
        <ele>634</ele>
        <time>2016-07-26T19:51:58Z</time>
      </trkpt>
      <trkpt lat="44.99394" lon="15.4132">
        <ele>635</ele>
        <time>2016-07-26T19:53:58Z</time>
      </trkpt>
      <trkpt lat="44.99395" lon="15.41313">
        <ele>635</ele>
        <time>2016-07-26T19:55:58Z</time>
      </trkpt>
      <trkpt lat="44.99399" lon="15.41298">
        <ele>634</ele>
        <time>2016-07-26T19:57:58Z</time>
      </trkpt>
      <trkpt lat="44.99403" lon="15.41288">
        <ele>632</ele>
        <time>2016-07-26T19:59:58Z</time>
      </trkpt>
      <trkpt lat="44.99406" lon="15.41279">
        <ele>630</ele>
        <time>2016-07-26T20:01:58Z</time>
      </trkpt>
      <trkpt lat="44.99409" lon="15.4127">
        <ele>629</ele>
        <time>2016-07-26T20:03:58Z</time>
      </trkpt>
      <trkpt lat="44.99412" lon="15.41256">
        <ele>628</ele>
        <time>2016-07-26T20:05:58Z</time>
      </trkpt>
      <trkpt lat="44.99415" lon="15.41239">
        <ele>628</ele>
        <time>2016-07-26T20:07:58Z</time>
      </trkpt>
      <trkpt lat="44.9942" lon="15.41222">
        <ele>629</ele>
        <time>2016-07-26T20:09:58Z</time>
      </trkpt>
      <trkpt lat="44.99425" lon="15.41206">
        <ele>630</ele>
        <time>2016-07-26T20:11:58Z</time>
      </trkpt>
      <trkpt lat="44.99428" lon="15.41198">
        <ele>630</ele>
        <time>2016-07-26T20:13:58Z</time>
      </trkpt>
      <trkpt lat="44.99433" lon="15.41188">
        <ele>630</ele>
        <time>2016-07-26T20:15:58Z</time>
      </trkpt>
      <trkpt lat="44.99437" lon="15.41182">
        <ele>630</ele>
        <time>2016-07-26T20:17:58Z</time>
      </trkpt>
      <trkpt lat="44.99443" lon="15.41173">
        <ele>629</ele>
        <time>2016-07-26T20:19:58Z</time>
      </trkpt>
      <trkpt lat="44.99449" lon="15.41167">
        <ele>628</ele>
        <time>2016-07-26T20:21:58Z</time>
      </trkpt>
      <trkpt lat="44.99459" lon="15.41161">
        <ele>626</ele>
        <time>2016-07-26T20:23:58Z</time>
      </trkpt>
      <trkpt lat="44.99475" lon="15.41153">
        <ele>623</ele>
        <time>2016-07-26T20:25:58Z</time>
      </trkpt>
      <trkpt lat="44.99492" lon="15.41147">
        <ele>618</ele>
        <time>2016-07-26T20:27:58Z</time>
      </trkpt>
      <trkpt lat="44.99508" lon="15.41145">
        <ele>613</ele>
        <time>2016-07-26T20:29:58Z</time>
      </trkpt>
      <trkpt lat="44.99512" lon="15.41145">
        <ele>612</ele>
        <time>2016-07-26T20:31:58Z</time>
      </trkpt>
      <trkpt lat="44.99514" lon="15.41144">
        <ele>612</ele>
        <time>2016-07-26T20:33:58Z</time>
      </trkpt>
      <trkpt lat="44.99517" lon="15.41142">
        <ele>612</ele>
        <time>2016-07-26T20:35:58Z</time>
      </trkpt>
      <trkpt lat="44.9952" lon="15.41138">
        <ele>612</ele>
        <time>2016-07-26T20:37:58Z</time>
      </trkpt>
      <trkpt lat="44.99524" lon="15.41133">
        <ele>613</ele>
        <time>2016-07-26T20:39:58Z</time>
      </trkpt>
      <trkpt lat="44.99528" lon="15.41128">
        <ele>613</ele>
        <time>2016-07-26T20:41:58Z</time>
      </trkpt>
      <trkpt lat="44.99535" lon="15.41119">
        <ele>614</ele>
        <time>2016-07-26T20:43:58Z</time>
      </trkpt>
      <trkpt lat="44.99539" lon="15.41114">
        <ele>614</ele>
        <time>2016-07-26T20:45:58Z</time>
      </trkpt>
      <trkpt lat="44.99548" lon="15.41105">
        <ele>614</ele>
        <time>2016-07-26T20:47:58Z</time>
      </trkpt>
      <trkpt lat="44.9956" lon="15.41091">
        <ele>615</ele>
        <time>2016-07-26T20:49:58Z</time>
      </trkpt>
      <trkpt lat="44.99587" lon="15.41065">
        <ele>612</ele>
        <time>2016-07-26T20:51:58Z</time>
      </trkpt>
      <trkpt lat="44.99591" lon="15.41062">
        <ele>612</ele>
        <time>2016-07-26T20:53:58Z</time>
      </trkpt>
      <trkpt lat="44.99595" lon="15.4106">
        <ele>612</ele>
        <time>2016-07-26T20:55:58Z</time>
      </trkpt>
      <trkpt lat="44.99598" lon="15.4106">
        <ele>612</ele>
        <time>2016-07-26T20:57:58Z</time>
      </trkpt>
      <trkpt lat="44.99603" lon="15.4106">
        <ele>611</ele>
        <time>2016-07-26T20:59:58Z</time>
      </trkpt>
      <trkpt lat="44.99608" lon="15.41061">
        <ele>610</ele>
        <time>2016-07-26T21:01:58Z</time>
      </trkpt>
      <trkpt lat="44.99613" lon="15.41065">
        <ele>608</ele>
        <time>2016-07-26T21:03:58Z</time>
      </trkpt>
      <trkpt lat="44.99617" lon="15.41069">
        <ele>607</ele>
        <time>2016-07-26T21:05:58Z</time>
      </trkpt>
      <trkpt lat="44.99621" lon="15.41075">
        <ele>605</ele>
        <time>2016-07-26T21:07:58Z</time>
      </trkpt>
      <trkpt lat="44.99624" lon="15.41081">
        <ele>604</ele>
        <time>2016-07-26T21:09:58Z</time>
      </trkpt>
      <trkpt lat="44.99629" lon="15.41095">
        <ele>600</ele>
        <time>2016-07-26T21:11:58Z</time>
      </trkpt>
      <trkpt lat="44.99633" lon="15.41106">
        <ele>597</ele>
        <time>2016-07-26T21:13:58Z</time>
      </trkpt>
      <trkpt lat="44.99637" lon="15.41115">
        <ele>594</ele>
        <time>2016-07-26T21:15:58Z</time>
      </trkpt>
      <trkpt lat="44.99641" lon="15.41124">
        <ele>592</ele>
        <time>2016-07-26T21:17:58Z</time>
      </trkpt>
      <trkpt lat="44.99643" lon="15.41126">
        <ele>591</ele>
        <time>2016-07-26T21:19:58Z</time>
      </trkpt>
      <trkpt lat="44.99645" lon="15.41129">
        <ele>590</ele>
        <time>2016-07-26T21:21:58Z</time>
      </trkpt>
      <trkpt lat="44.99648" lon="15.41131">
        <ele>590</ele>
        <time>2016-07-26T21:23:58Z</time>
      </trkpt>
      <trkpt lat="44.99651" lon="15.41132">
        <ele>589</ele>
        <time>2016-07-26T21:25:58Z</time>
      </trkpt>
      <trkpt lat="44.99655" lon="15.41132">
        <ele>589</ele>
        <time>2016-07-26T21:27:58Z</time>
      </trkpt>
      <trkpt lat="44.99657" lon="15.41132">
        <ele>589</ele>
        <time>2016-07-26T21:29:58Z</time>
      </trkpt>
      <trkpt lat="44.99661" lon="15.41129">
        <ele>589</ele>
        <time>2016-07-26T21:31:58Z</time>
      </trkpt>
      <trkpt lat="44.99665" lon="15.41125">
        <ele>589</ele>
        <time>2016-07-26T21:33:58Z</time>
      </trkpt>
      <trkpt lat="44.99668" lon="15.41119">
        <ele>590</ele>
        <time>2016-07-26T21:35:58Z</time>
      </trkpt>
      <trkpt lat="44.99671" lon="15.41112">
        <ele>591</ele>
        <time>2016-07-26T21:37:58Z</time>
      </trkpt>
      <trkpt lat="44.99675" lon="15.411">
        <ele>593</ele>
        <time>2016-07-26T21:39:58Z</time>
      </trkpt>
      <trkpt lat="44.99686" lon="15.41061">
        <ele>599</ele>
        <time>2016-07-26T21:41:58Z</time>
      </trkpt>
      <trkpt lat="44.99692" lon="15.41044">
        <ele>601</ele>
        <time>2016-07-26T21:43:58Z</time>
      </trkpt>
      <trkpt lat="44.99694" lon="15.4104">
        <ele>601</ele>
        <time>2016-07-26T21:45:58Z</time>
      </trkpt>
      <trkpt lat="44.99696" lon="15.41038">
        <ele>601</ele>
        <time>2016-07-26T21:47:58Z</time>
      </trkpt>
      <trkpt lat="44.99698" lon="15.41037">
        <ele>601</ele>
        <time>2016-07-26T21:49:58Z</time>
      </trkpt>
      <trkpt lat="44.997" lon="15.41037">
        <ele>601</ele>
        <time>2016-07-26T21:51:58Z</time>
      </trkpt>
      <trkpt lat="44.99702" lon="15.41037">
        <ele>601</ele>
        <time>2016-07-26T21:53:58Z</time>
      </trkpt>
      <trkpt lat="44.99705" lon="15.41037">
        <ele>601</ele>
        <time>2016-07-26T21:55:58Z</time>
      </trkpt>
      <trkpt lat="44.99708" lon="15.41038">
        <ele>601</ele>
        <time>2016-07-26T21:57:58Z</time>
      </trkpt>
      <trkpt lat="44.9971" lon="15.41041">
        <ele>600</ele>
        <time>2016-07-26T21:59:58Z</time>
      </trkpt>
      <trkpt lat="44.99713" lon="15.41045">
        <ele>599</ele>
        <time>2016-07-26T22:01:58Z</time>
      </trkpt>
      <trkpt lat="44.99717" lon="15.4105">
        <ele>598</ele>
        <time>2016-07-26T22:03:58Z</time>
      </trkpt>
      <trkpt lat="44.99719" lon="15.41055">
        <ele>598</ele>
        <time>2016-07-26T22:05:58Z</time>
      </trkpt>
      <trkpt lat="44.99725" lon="15.4107">
        <ele>595</ele>
        <time>2016-07-26T22:07:58Z</time>
      </trkpt>
      <trkpt lat="44.99727" lon="15.41077">
        <ele>594</ele>
        <time>2016-07-26T22:09:58Z</time>
      </trkpt>
      <trkpt lat="44.99729" lon="15.41088">
        <ele>593</ele>
        <time>2016-07-26T22:11:58Z</time>
      </trkpt>
      <trkpt lat="44.99732" lon="15.41092">
        <ele>592</ele>
        <time>2016-07-26T22:13:58Z</time>
      </trkpt>
      <trkpt lat="44.99734" lon="15.41095">
        <ele>591</ele>
        <time>2016-07-26T22:15:58Z</time>
      </trkpt>
      <trkpt lat="44.99738" lon="15.41099">
        <ele>591</ele>
        <time>2016-07-26T22:17:58Z</time>
      </trkpt>
      <trkpt lat="44.99742" lon="15.41101">
        <ele>590</ele>
        <time>2016-07-26T22:19:58Z</time>
      </trkpt>
      <trkpt lat="44.99746" lon="15.41102">
        <ele>590</ele>
        <time>2016-07-26T22:21:58Z</time>
      </trkpt>
      <trkpt lat="44.99752" lon="15.41104">
        <ele>590</ele>
        <time>2016-07-26T22:23:58Z</time>
      </trkpt>
      <trkpt lat="44.9976" lon="15.41107">
        <ele>590</ele>
        <time>2016-07-26T22:25:58Z</time>
      </trkpt>
      <trkpt lat="44.99762" lon="15.41108">
        <ele>590</ele>
        <time>2016-07-26T22:27:58Z</time>
      </trkpt>
      <trkpt lat="44.99765" lon="15.41111">
        <ele>590</ele>
        <time>2016-07-26T22:29:58Z</time>
      </trkpt>
      <trkpt lat="44.99767" lon="15.41114">
        <ele>590</ele>
        <time>2016-07-26T22:31:58Z</time>
      </trkpt>
      <trkpt lat="44.99769" lon="15.41119">
        <ele>590</ele>
        <time>2016-07-26T22:33:58Z</time>
      </trkpt>
      <trkpt lat="44.9977" lon="15.41122">
        <ele>590</ele>
        <time>2016-07-26T22:35:58Z</time>
      </trkpt>
      <trkpt lat="44.99771" lon="15.41128">
        <ele>589</ele>
        <time>2016-07-26T22:37:58Z</time>
      </trkpt>
      <trkpt lat="44.99772" lon="15.41134">
        <ele>589</ele>
        <time>2016-07-26T22:39:58Z</time>
      </trkpt>
      <trkpt lat="44.99772" lon="15.4114">
        <ele>588</ele>
        <time>2016-07-26T22:41:58Z</time>
      </trkpt>
      <trkpt lat="44.99772" lon="15.41144">
        <ele>588</ele>
        <time>2016-07-26T22:43:58Z</time>
      </trkpt>
      <trkpt lat="44.9977" lon="15.4115">
        <ele>587</ele>
        <time>2016-07-26T22:45:58Z</time>
      </trkpt>
      <trkpt lat="44.99769" lon="15.41156">
        <ele>586</ele>
        <time>2016-07-26T22:47:58Z</time>
      </trkpt>
      <trkpt lat="44.99767" lon="15.41161">
        <ele>585</ele>
        <time>2016-07-26T22:49:58Z</time>
      </trkpt>
      <trkpt lat="44.99764" lon="15.4117">
        <ele>583</ele>
        <time>2016-07-26T22:51:58Z</time>
      </trkpt>
      <trkpt lat="44.99763" lon="15.41174">
        <ele>583</ele>
        <time>2016-07-26T22:53:58Z</time>
      </trkpt>
      <trkpt lat="44.99763" lon="15.41177">
        <ele>582</ele>
        <time>2016-07-26T22:55:58Z</time>
      </trkpt>
      <trkpt lat="44.99763" lon="15.41182">
        <ele>582</ele>
        <time>2016-07-26T22:57:58Z</time>
      </trkpt>
      <trkpt lat="44.99764" lon="15.41187">
        <ele>582</ele>
        <time>2016-07-26T22:59:58Z</time>
      </trkpt>
      <trkpt lat="44.99765" lon="15.41192">
        <ele>581</ele>
        <time>2016-07-26T23:01:58Z</time>
      </trkpt>
      <trkpt lat="44.99766" lon="15.41195">
        <ele>581</ele>
        <time>2016-07-26T23:03:58Z</time>
      </trkpt>
      <trkpt lat="44.99769" lon="15.41199">
        <ele>581</ele>
        <time>2016-07-26T23:05:58Z</time>
      </trkpt>
      <trkpt lat="44.99771" lon="15.41205">
        <ele>581</ele>
        <time>2016-07-26T23:07:58Z</time>
      </trkpt>
      <trkpt lat="44.99773" lon="15.4121">
        <ele>581</ele>
        <time>2016-07-26T23:09:58Z</time>
      </trkpt>
      <trkpt lat="44.99774" lon="15.41216">
        <ele>580</ele>
        <time>2016-07-26T23:11:58Z</time>
      </trkpt>
      <trkpt lat="44.99774" lon="15.41224">
        <ele>580</ele>
        <time>2016-07-26T23:13:58Z</time>
      </trkpt>
      <trkpt lat="44.99774" lon="15.41231">
        <ele>579</ele>
        <time>2016-07-26T23:15:58Z</time>
      </trkpt>
      <trkpt lat="44.99774" lon="15.41236">
        <ele>578</ele>
        <time>2016-07-26T23:17:58Z</time>
      </trkpt>
      <trkpt lat="44.99772" lon="15.41245">
        <ele>577</ele>
        <time>2016-07-26T23:19:58Z</time>
      </trkpt>
      <trkpt lat="44.99769" lon="15.41258">
        <ele>576</ele>
        <time>2016-07-26T23:21:58Z</time>
      </trkpt>
      <trkpt lat="44.99766" lon="15.41263">
        <ele>575</ele>
        <time>2016-07-26T23:23:58Z</time>
      </trkpt>
      <trkpt lat="44.99763" lon="15.41268">
        <ele>574</ele>
        <time>2016-07-26T23:25:58Z</time>
      </trkpt>
      <trkpt lat="44.99761" lon="15.41272">
        <ele>573</ele>
        <time>2016-07-26T23:27:58Z</time>
      </trkpt>
      <trkpt lat="44.99755" lon="15.41276">
        <ele>572</ele>
        <time>2016-07-26T23:29:58Z</time>
      </trkpt>
      <trkpt lat="44.99752" lon="15.41279">
        <ele>572</ele>
        <time>2016-07-26T23:31:58Z</time>
      </trkpt>
      <trkpt lat="44.99746" lon="15.41283">
        <ele>570</ele>
        <time>2016-07-26T23:33:58Z</time>
      </trkpt>
      <trkpt lat="44.99743" lon="15.41286">
        <ele>569</ele>
        <time>2016-07-26T23:35:58Z</time>
      </trkpt>
      <trkpt lat="44.9974" lon="15.41291">
        <ele>569</ele>
        <time>2016-07-26T23:37:58Z</time>
      </trkpt>
      <trkpt lat="44.99739" lon="15.41295">
        <ele>568</ele>
        <time>2016-07-26T23:39:58Z</time>
      </trkpt>
      <trkpt lat="44.99738" lon="15.41298">
        <ele>568</ele>
        <time>2016-07-26T23:41:58Z</time>
      </trkpt>
      <trkpt lat="44.99738" lon="15.41302">
        <ele>567</ele>
        <time>2016-07-26T23:43:58Z</time>
      </trkpt>
      <trkpt lat="44.99738" lon="15.41305">
        <ele>567</ele>
        <time>2016-07-26T23:45:58Z</time>
      </trkpt>
      <trkpt lat="44.99739" lon="15.41321">
        <ele>566</ele>
        <time>2016-07-26T23:47:58Z</time>
      </trkpt>
      <trkpt lat="44.99741" lon="15.41326">
        <ele>566</ele>
        <time>2016-07-26T23:49:58Z</time>
      </trkpt>
      <trkpt lat="44.99743" lon="15.41334">
        <ele>566</ele>
        <time>2016-07-26T23:51:58Z</time>
      </trkpt>
      <trkpt lat="44.99746" lon="15.41337">
        <ele>566</ele>
        <time>2016-07-26T23:53:58Z</time>
      </trkpt>
      <trkpt lat="44.99749" lon="15.41343">
        <ele>566</ele>
        <time>2016-07-26T23:55:58Z</time>
      </trkpt>
      <trkpt lat="44.99754" lon="15.41347">
        <ele>565</ele>
        <time>2016-07-26T23:57:58Z</time>
      </trkpt>
      <trkpt lat="44.99757" lon="15.41349">
        <ele>565</ele>
        <time>2016-07-26T23:59:58Z</time>
      </trkpt>
      <trkpt lat="44.9976" lon="15.4135">
        <ele>566</ele>
        <time>2016-07-27T00:01:58Z</time>
      </trkpt>
      <trkpt lat="44.99764" lon="15.4135">
        <ele>566</ele>
        <time>2016-07-27T00:03:58Z</time>
      </trkpt>
      <trkpt lat="44.99771" lon="15.41346">
        <ele>568</ele>
        <time>2016-07-27T00:05:58Z</time>
      </trkpt>
      <trkpt lat="44.99791" lon="15.41334">
        <ele>572</ele>
        <time>2016-07-27T00:07:58Z</time>
      </trkpt>
      <trkpt lat="44.99795" lon="15.41333">
        <ele>572</ele>
        <time>2016-07-27T00:09:58Z</time>
      </trkpt>
      <trkpt lat="44.99798" lon="15.41333">
        <ele>573</ele>
        <time>2016-07-27T00:11:58Z</time>
      </trkpt>
      <trkpt lat="44.99801" lon="15.41335">
        <ele>573</ele>
        <time>2016-07-27T00:13:58Z</time>
      </trkpt>
      <trkpt lat="44.99804" lon="15.41337">
        <ele>573</ele>
        <time>2016-07-27T00:15:58Z</time>
      </trkpt>
      <trkpt lat="44.99807" lon="15.41339">
        <ele>573</ele>
        <time>2016-07-27T00:17:58Z</time>
      </trkpt>
      <trkpt lat="44.99812" lon="15.41345">
        <ele>572</ele>
        <time>2016-07-27T00:19:58Z</time>
      </trkpt>
      <trkpt lat="44.99824" lon="15.41364">
        <ele>570</ele>
        <time>2016-07-27T00:21:58Z</time>
      </trkpt>
      <trkpt lat="44.99831" lon="15.41375">
        <ele>570</ele>
        <time>2016-07-27T00:23:58Z</time>
      </trkpt>
      <trkpt lat="44.99834" lon="15.41382">
        <ele>569</ele>
        <time>2016-07-27T00:25:58Z</time>
      </trkpt>
      <trkpt lat="44.99836" lon="15.4139">
        <ele>568</ele>
        <time>2016-07-27T00:27:58Z</time>
      </trkpt>
      <trkpt lat="44.99838" lon="15.41396">
        <ele>567</ele>
        <time>2016-07-27T00:29:58Z</time>
      </trkpt>
      <trkpt lat="44.9984" lon="15.41407">
        <ele>566</ele>
        <time>2016-07-27T00:31:58Z</time>
      </trkpt>
      <trkpt lat="44.99841" lon="15.41419">
        <ele>564</ele>
        <time>2016-07-27T00:33:58Z</time>
      </trkpt>
      <trkpt lat="44.99842" lon="15.41429">
        <ele>562</ele>
        <time>2016-07-27T00:35:58Z</time>
      </trkpt>
      <trkpt lat="44.99843" lon="15.41444">
        <ele>560</ele>
        <time>2016-07-27T00:37:58Z</time>
      </trkpt>
      <trkpt lat="44.99844" lon="15.4145">
        <ele>559</ele>
        <time>2016-07-27T00:39:58Z</time>
      </trkpt>
      <trkpt lat="44.99846" lon="15.41453">
        <ele>559</ele>
        <time>2016-07-27T00:41:58Z</time>
      </trkpt>
      <trkpt lat="44.99847" lon="15.41456">
        <ele>558</ele>
        <time>2016-07-27T00:43:58Z</time>
      </trkpt>
      <trkpt lat="44.99849" lon="15.41458">
        <ele>558</ele>
        <time>2016-07-27T00:45:58Z</time>
      </trkpt>
      <trkpt lat="44.99852" lon="15.41459">
        <ele>558</ele>
        <time>2016-07-27T00:47:58Z</time>
      </trkpt>
      <trkpt lat="44.99855" lon="15.41459">
        <ele>558</ele>
        <time>2016-07-27T00:49:58Z</time>
      </trkpt>
      <trkpt lat="44.99858" lon="15.41459">
        <ele>559</ele>
        <time>2016-07-27T00:51:58Z</time>
      </trkpt>
      <trkpt lat="44.99861" lon="15.41456">
        <ele>559</ele>
        <time>2016-07-27T00:53:58Z</time>
      </trkpt>
      <trkpt lat="44.99867" lon="15.41449">
        <ele>561</ele>
        <time>2016-07-27T00:55:58Z</time>
      </trkpt>
      <trkpt lat="44.99875" lon="15.41435">
        <ele>564</ele>
        <time>2016-07-27T00:57:58Z</time>
      </trkpt>
      <trkpt lat="44.99878" lon="15.41431">
        <ele>564</ele>
        <time>2016-07-27T00:59:58Z</time>
      </trkpt>
      <trkpt lat="44.99881" lon="15.41429">
        <ele>565</ele>
        <time>2016-07-27T01:01:58Z</time>
      </trkpt>
      <trkpt lat="44.99884" lon="15.41429">
        <ele>565</ele>
        <time>2016-07-27T01:03:58Z</time>
      </trkpt>
      <trkpt lat="44.99889" lon="15.41429">
        <ele>565</ele>
        <time>2016-07-27T01:05:58Z</time>
      </trkpt>
      <trkpt lat="44.99893" lon="15.4143">
        <ele>566</ele>
        <time>2016-07-27T01:07:58Z</time>
      </trkpt>
      <trkpt lat="44.99895" lon="15.41432">
        <ele>565</ele>
        <time>2016-07-27T01:09:58Z</time>
      </trkpt>
      <trkpt lat="44.99905" lon="15.4144">
        <ele>565</ele>
        <time>2016-07-27T01:11:58Z</time>
      </trkpt>
      <trkpt lat="44.99923" lon="15.4146">
        <ele>563</ele>
        <time>2016-07-27T01:13:58Z</time>
      </trkpt>
      <trkpt lat="44.99942" lon="15.41481">
        <ele>562</ele>
        <time>2016-07-27T01:15:58Z</time>
      </trkpt>
      <trkpt lat="44.99945" lon="15.41485">
        <ele>561</ele>
        <time>2016-07-27T01:17:58Z</time>
      </trkpt>
      <trkpt lat="44.99948" lon="15.41492">
        <ele>561</ele>
        <time>2016-07-27T01:19:58Z</time>
      </trkpt>
      <trkpt lat="44.99949" lon="15.41496">
        <ele>560</ele>
        <time>2016-07-27T01:21:58Z</time>
      </trkpt>
      <trkpt lat="44.99951" lon="15.41503">
        <ele>560</ele>
        <time>2016-07-27T01:23:58Z</time>
      </trkpt>
      <trkpt lat="44.99953" lon="15.41515">
        <ele>559</ele>
        <time>2016-07-27T01:25:58Z</time>
      </trkpt>
      <trkpt lat="44.99953" lon="15.41521">
        <ele>558</ele>
        <time>2016-07-27T01:27:58Z</time>
      </trkpt>
      <trkpt lat="44.99954" lon="15.41529">
        <ele>557</ele>
        <time>2016-07-27T01:29:58Z</time>
      </trkpt>
      <trkpt lat="44.99956" lon="15.41533">
        <ele>557</ele>
        <time>2016-07-27T01:31:58Z</time>
      </trkpt>
      <trkpt lat="44.99957" lon="15.41539">
        <ele>557</ele>
        <time>2016-07-27T01:33:58Z</time>
      </trkpt>
      <trkpt lat="44.99961" lon="15.41544">
        <ele>557</ele>
        <time>2016-07-27T01:35:58Z</time>
      </trkpt>
      <trkpt lat="44.99967" lon="15.41552">
        <ele>556</ele>
        <time>2016-07-27T01:37:58Z</time>
      </trkpt>
      <trkpt lat="44.9997" lon="15.41557">
        <ele>556</ele>
        <time>2016-07-27T01:39:58Z</time>
      </trkpt>
      <trkpt lat="44.99973" lon="15.41564">
        <ele>556</ele>
        <time>2016-07-27T01:41:58Z</time>
      </trkpt>
      <trkpt lat="44.99976" lon="15.41569">
        <ele>556</ele>
        <time>2016-07-27T01:43:58Z</time>
      </trkpt>
      <trkpt lat="44.99978" lon="15.41573">
        <ele>556</ele>
        <time>2016-07-27T01:45:58Z</time>
      </trkpt>
      <trkpt lat="44.99982" lon="15.41586">
        <ele>555</ele>
        <time>2016-07-27T01:47:58Z</time>
      </trkpt>
      <trkpt lat="44.99984" lon="15.41597">
        <ele>554</ele>
        <time>2016-07-27T01:49:58Z</time>
      </trkpt>
      <trkpt lat="44.99987" lon="15.41609">
        <ele>553</ele>
        <time>2016-07-27T01:51:58Z</time>
      </trkpt>
      <trkpt lat="44.99988" lon="15.41617">
        <ele>552</ele>
        <time>2016-07-27T01:53:58Z</time>
      </trkpt>
      <trkpt lat="44.99992" lon="15.41631">
        <ele>551</ele>
        <time>2016-07-27T01:55:58Z</time>
      </trkpt>
      <trkpt lat="44.99999" lon="15.41647">
        <ele>550</ele>
        <time>2016-07-27T01:57:58Z</time>
      </trkpt>
      <trkpt lat="45.00026" lon="15.41698">
        <ele>546</ele>
        <time>2016-07-27T01:59:58Z</time>
      </trkpt>
      <trkpt lat="45.00057" lon="15.41763">
        <ele>544</ele>
        <time>2016-07-27T02:01:58Z</time>
      </trkpt>
      <trkpt lat="45.00088" lon="15.41838">
        <ele>545</ele>
        <time>2016-07-27T02:03:58Z</time>
      </trkpt>
      <trkpt lat="45.00106" lon="15.41877">
        <ele>543</ele>
        <time>2016-07-27T02:05:58Z</time>
      </trkpt>
      <trkpt lat="45.00126" lon="15.41915">
        <ele>541</ele>
        <time>2016-07-27T02:07:58Z</time>
      </trkpt>
      <trkpt lat="45.00131" lon="15.4193">
        <ele>540</ele>
        <time>2016-07-27T02:09:58Z</time>
      </trkpt>
      <trkpt lat="45.00132" lon="15.41939">
        <ele>540</ele>
        <time>2016-07-27T02:11:58Z</time>
      </trkpt>
      <trkpt lat="45.00133" lon="15.41948">
        <ele>539</ele>
        <time>2016-07-27T02:13:58Z</time>
      </trkpt>
      <trkpt lat="45.00134" lon="15.41959">
        <ele>538</ele>
        <time>2016-07-27T02:15:58Z</time>
      </trkpt>
      <trkpt lat="45.00136" lon="15.41981">
        <ele>537</ele>
        <time>2016-07-27T02:17:58Z</time>
      </trkpt>
      <trkpt lat="45.00138" lon="15.41993">
        <ele>536</ele>
        <time>2016-07-27T02:19:58Z</time>
      </trkpt>
      <trkpt lat="45.00141" lon="15.42">
        <ele>536</ele>
        <time>2016-07-27T02:21:58Z</time>
      </trkpt>
      <trkpt lat="45.00144" lon="15.42006">
        <ele>535</ele>
        <time>2016-07-27T02:23:58Z</time>
      </trkpt>
      <trkpt lat="45.00149" lon="15.42014">
        <ele>535</ele>
        <time>2016-07-27T02:25:58Z</time>
      </trkpt>
      <trkpt lat="45.00154" lon="15.4202">
        <ele>534</ele>
        <time>2016-07-27T02:27:58Z</time>
      </trkpt>
      <trkpt lat="45.00164" lon="15.42029">
        <ele>533</ele>
        <time>2016-07-27T02:29:58Z</time>
      </trkpt>
      <trkpt lat="45.00172" lon="15.42035">
        <ele>532</ele>
        <time>2016-07-27T02:31:58Z</time>
      </trkpt>
      <trkpt lat="45.00181" lon="15.4204">
        <ele>532</ele>
        <time>2016-07-27T02:33:58Z</time>
      </trkpt>
      <trkpt lat="45.0019" lon="15.42045">
        <ele>532</ele>
        <time>2016-07-27T02:35:58Z</time>
      </trkpt>
      <trkpt lat="45.00203" lon="15.42048">
        <ele>531</ele>
        <time>2016-07-27T02:37:58Z</time>
      </trkpt>
      <trkpt lat="45.0022" lon="15.42048">
        <ele>531</ele>
        <time>2016-07-27T02:39:58Z</time>
      </trkpt>
      <trkpt lat="45.00234" lon="15.42048">
        <ele>531</ele>
        <time>2016-07-27T02:41:58Z</time>
      </trkpt>
      <trkpt lat="45.00248" lon="15.4205">
        <ele>531</ele>
        <time>2016-07-27T02:43:58Z</time>
      </trkpt>
      <trkpt lat="45.00253" lon="15.42052">
        <ele>531</ele>
        <time>2016-07-27T02:45:58Z</time>
      </trkpt>
      <trkpt lat="45.00257" lon="15.42054">
        <ele>531</ele>
        <time>2016-07-27T02:47:58Z</time>
      </trkpt>
      <trkpt lat="45.00266" lon="15.42062">
        <ele>531</ele>
        <time>2016-07-27T02:49:58Z</time>
      </trkpt>
      <trkpt lat="45.00269" lon="15.42068">
        <ele>530</ele>
        <time>2016-07-27T02:51:58Z</time>
      </trkpt>
      <trkpt lat="45.00272" lon="15.42075">
        <ele>530</ele>
        <time>2016-07-27T02:53:58Z</time>
      </trkpt>
      <trkpt lat="45.00273" lon="15.42081">
        <ele>530</ele>
        <time>2016-07-27T02:55:58Z</time>
      </trkpt>
      <trkpt lat="45.00275" lon="15.42092">
        <ele>529</ele>
        <time>2016-07-27T02:57:58Z</time>
      </trkpt>
      <trkpt lat="45.00278" lon="15.42116">
        <ele>528</ele>
        <time>2016-07-27T02:59:58Z</time>
      </trkpt>
      <trkpt lat="45.00284" lon="15.42186">
        <ele>524</ele>
        <time>2016-07-27T03:01:58Z</time>
      </trkpt>
      <trkpt lat="45.00286" lon="15.422">
        <ele>523</ele>
        <time>2016-07-27T03:03:58Z</time>
      </trkpt>
      <trkpt lat="45.00289" lon="15.4223">
        <ele>522</ele>
        <time>2016-07-27T03:05:58Z</time>
      </trkpt>
      <trkpt lat="45.00291" lon="15.4224">
        <ele>521</ele>
        <time>2016-07-27T03:07:58Z</time>
      </trkpt>
      <trkpt lat="45.00294" lon="15.42251">
        <ele>521</ele>
        <time>2016-07-27T03:09:58Z</time>
      </trkpt>
      <trkpt lat="45.00299" lon="15.42265">
        <ele>520</ele>
        <time>2016-07-27T03:11:58Z</time>
      </trkpt>
      <trkpt lat="45.00308" lon="15.42291">
        <ele>520</ele>
        <time>2016-07-27T03:13:58Z</time>
      </trkpt>
      <trkpt lat="45.0031" lon="15.42299">
        <ele>520</ele>
        <time>2016-07-27T03:15:58Z</time>
      </trkpt>
      <trkpt lat="45.00311" lon="15.42306">
        <ele>519</ele>
        <time>2016-07-27T03:17:58Z</time>
      </trkpt>
      <trkpt lat="45.00311" lon="15.4231">
        <ele>519</ele>
        <time>2016-07-27T03:19:58Z</time>
      </trkpt>
      <trkpt lat="45.0031" lon="15.4232">
        <ele>519</ele>
        <time>2016-07-27T03:21:58Z</time>
      </trkpt>
      <trkpt lat="45.00309" lon="15.42323">
        <ele>518</ele>
        <time>2016-07-27T03:23:58Z</time>
      </trkpt>
      <trkpt lat="45.00307" lon="15.42329">
        <ele>518</ele>
        <time>2016-07-27T03:25:58Z</time>
      </trkpt>
      <trkpt lat="45.00304" lon="15.42336">
        <ele>517</ele>
        <time>2016-07-27T03:27:58Z</time>
      </trkpt>
      <trkpt lat="45.00296" lon="15.42353">
        <ele>516</ele>
        <time>2016-07-27T03:29:58Z</time>
      </trkpt>
      <trkpt lat="45.00289" lon="15.42368">
        <ele>515</ele>
        <time>2016-07-27T03:31:58Z</time>
      </trkpt>
      <trkpt lat="45.00287" lon="15.42377">
        <ele>515</ele>
        <time>2016-07-27T03:33:58Z</time>
      </trkpt>
      <trkpt lat="45.00285" lon="15.42385">
        <ele>515</ele>
        <time>2016-07-27T03:35:58Z</time>
      </trkpt>
      <trkpt lat="45.00285" lon="15.42391">
        <ele>514</ele>
        <time>2016-07-27T03:37:58Z</time>
      </trkpt>
      <trkpt lat="45.00286" lon="15.42399">
        <ele>514</ele>
        <time>2016-07-27T03:39:58Z</time>
      </trkpt>
      <trkpt lat="45.00288" lon="15.42412">
        <ele>514</ele>
        <time>2016-07-27T03:41:58Z</time>
      </trkpt>
      <trkpt lat="45.00306" lon="15.42476">
        <ele>511</ele>
        <time>2016-07-27T03:43:58Z</time>
      </trkpt>
      <trkpt lat="45.00309" lon="15.42488">
        <ele>510</ele>
        <time>2016-07-27T03:45:58Z</time>
      </trkpt>
      <trkpt lat="45.00311" lon="15.42496">
        <ele>510</ele>
        <time>2016-07-27T03:47:58Z</time>
      </trkpt>
      <trkpt lat="45.00311" lon="15.42504">
        <ele>509</ele>
        <time>2016-07-27T03:49:58Z</time>
      </trkpt>
      <trkpt lat="45.00311" lon="15.42513">
        <ele>509</ele>
        <time>2016-07-27T03:51:58Z</time>
      </trkpt>
      <trkpt lat="45.0031" lon="15.42519">
        <ele>509</ele>
        <time>2016-07-27T03:53:58Z</time>
      </trkpt>
      <trkpt lat="45.00307" lon="15.42527">
        <ele>508</ele>
        <time>2016-07-27T03:55:58Z</time>
      </trkpt>
      <trkpt lat="45.00304" lon="15.42535">
        <ele>508</ele>
        <time>2016-07-27T03:57:58Z</time>
      </trkpt>
      <trkpt lat="45.00301" lon="15.4254">
        <ele>507</ele>
        <time>2016-07-27T03:59:58Z</time>
      </trkpt>
      <trkpt lat="45.00293" lon="15.42556">
        <ele>506</ele>
        <time>2016-07-27T04:01:58Z</time>
      </trkpt>
      <trkpt lat="45.00288" lon="15.42569">
        <ele>505</ele>
        <time>2016-07-27T04:03:58Z</time>
      </trkpt>
      <trkpt lat="45.00283" lon="15.42589">
        <ele>505</ele>
        <time>2016-07-27T04:05:58Z</time>
      </trkpt>
      <trkpt lat="45.00279" lon="15.4261">
        <ele>504</ele>
        <time>2016-07-27T04:07:58Z</time>
      </trkpt>
      <trkpt lat="45.00279" lon="15.42613">
        <ele>504</ele>
        <time>2016-07-27T04:09:58Z</time>
      </trkpt>
      <trkpt lat="45.00279" lon="15.42613">
        <ele>504</ele>
        <time>2016-07-27T04:11:58Z</time>
      </trkpt>
      <trkpt lat="45.00274" lon="15.42673">
        <ele>502</ele>
        <time>2016-07-27T04:13:58Z</time>
      </trkpt>
      <trkpt lat="45.00274" lon="15.42673">
        <ele>502</ele>
        <time>2016-07-27T04:15:58Z</time>
      </trkpt>
      <trkpt lat="45.00268" lon="15.42674">
        <ele>502</ele>
        <time>2016-07-27T04:17:58Z</time>
      </trkpt>
      <trkpt lat="45.00265" lon="15.42675">
        <ele>502</ele>
        <time>2016-07-27T04:19:58Z</time>
      </trkpt>
      <trkpt lat="45.00262" lon="15.42676">
        <ele>502</ele>
        <time>2016-07-27T04:21:58Z</time>
      </trkpt>
      <trkpt lat="45.00258" lon="15.42678">
        <ele>502</ele>
        <time>2016-07-27T04:23:58Z</time>
      </trkpt>
      <trkpt lat="45.00252" lon="15.42683">
        <ele>502</ele>
        <time>2016-07-27T04:25:58Z</time>
      </trkpt>
      <trkpt lat="45.00246" lon="15.42687">
        <ele>501</ele>
        <time>2016-07-27T04:27:58Z</time>
      </trkpt>
      <trkpt lat="45.00243" lon="15.42689">
        <ele>501</ele>
        <time>2016-07-27T04:29:58Z</time>
      </trkpt>
      <trkpt lat="45.00239" lon="15.42692">
        <ele>501</ele>
        <time>2016-07-27T04:31:58Z</time>
      </trkpt>
      <trkpt lat="45.00233" lon="15.42698">
        <ele>500</ele>
        <time>2016-07-27T04:33:58Z</time>
      </trkpt>
      <trkpt lat="45.00227" lon="15.42703">
        <ele>500</ele>
        <time>2016-07-27T04:35:58Z</time>
      </trkpt>
      <trkpt lat="45.00221" lon="15.4271">
        <ele>499</ele>
        <time>2016-07-27T04:37:58Z</time>
      </trkpt>
      <trkpt lat="45.00214" lon="15.42717">
        <ele>499</ele>
        <time>2016-07-27T04:39:58Z</time>
      </trkpt>
      <trkpt lat="45.00208" lon="15.42725">
        <ele>498</ele>
        <time>2016-07-27T04:41:58Z</time>
      </trkpt>
      <trkpt lat="45.00202" lon="15.42733">
        <ele>498</ele>
        <time>2016-07-27T04:43:58Z</time>
      </trkpt>
      <trkpt lat="45.00199" lon="15.42737">
        <ele>497</ele>
        <time>2016-07-27T04:45:58Z</time>
      </trkpt>
      <trkpt lat="45.00195" lon="15.42743">
        <ele>497</ele>
        <time>2016-07-27T04:47:58Z</time>
      </trkpt>
      <trkpt lat="45.00195" lon="15.42744">
        <ele>497</ele>
        <time>2016-07-27T04:49:58Z</time>
      </trkpt>
      <trkpt lat="45.00189" lon="15.42753">
        <ele>496</ele>
        <time>2016-07-27T04:51:58Z</time>
      </trkpt>
      <trkpt lat="45.00184" lon="15.42762">
        <ele>496</ele>
        <time>2016-07-27T04:53:58Z</time>
      </trkpt>
      <trkpt lat="45.00181" lon="15.42766">
        <ele>496</ele>
        <time>2016-07-27T04:55:58Z</time>
      </trkpt>
      <trkpt lat="45.00178" lon="15.42771">
        <ele>496</ele>
        <time>2016-07-27T04:57:58Z</time>
      </trkpt>
      <trkpt lat="45.00175" lon="15.42775">
        <ele>496</ele>
        <time>2016-07-27T04:59:58Z</time>
      </trkpt>
      <trkpt lat="45.00172" lon="15.42779">
        <ele>495</ele>
        <time>2016-07-27T05:01:58Z</time>
      </trkpt>
      <trkpt lat="45.00168" lon="15.42783">
        <ele>495</ele>
        <time>2016-07-27T05:03:58Z</time>
      </trkpt>
      <trkpt lat="45.00164" lon="15.42786">
        <ele>495</ele>
        <time>2016-07-27T05:05:58Z</time>
      </trkpt>
      <trkpt lat="45.0016" lon="15.42789">
        <ele>495</ele>
        <time>2016-07-27T05:07:58Z</time>
      </trkpt>
      <trkpt lat="45.00156" lon="15.42792">
        <ele>494</ele>
        <time>2016-07-27T05:09:58Z</time>
      </trkpt>
      <trkpt lat="45.00151" lon="15.42794">
        <ele>494</ele>
        <time>2016-07-27T05:11:58Z</time>
      </trkpt>
      <trkpt lat="45.00147" lon="15.42796">
        <ele>494</ele>
        <time>2016-07-27T05:13:58Z</time>
      </trkpt>
      <trkpt lat="45.00142" lon="15.42798">
        <ele>493</ele>
        <time>2016-07-27T05:15:58Z</time>
      </trkpt>
      <trkpt lat="45.00137" lon="15.42799">
        <ele>493</ele>
        <time>2016-07-27T05:17:58Z</time>
      </trkpt>
      <trkpt lat="45.00132" lon="15.428">
        <ele>493</ele>
        <time>2016-07-27T05:19:58Z</time>
      </trkpt>
      <trkpt lat="45.00127" lon="15.428">
        <ele>492</ele>
        <time>2016-07-27T05:21:58Z</time>
      </trkpt>
      <trkpt lat="45.00122" lon="15.42799">
        <ele>492</ele>
        <time>2016-07-27T05:23:58Z</time>
      </trkpt>
      <trkpt lat="45.00117" lon="15.42798">
        <ele>492</ele>
        <time>2016-07-27T05:25:58Z</time>
      </trkpt>
      <trkpt lat="45.00113" lon="15.42797">
        <ele>491</ele>
        <time>2016-07-27T05:27:58Z</time>
      </trkpt>
      <trkpt lat="45.0006" lon="15.4279">
        <ele>488</ele>
        <time>2016-07-27T05:29:58Z</time>
      </trkpt>
      <trkpt lat="45.00049" lon="15.42787">
        <ele>488</ele>
        <time>2016-07-27T05:31:58Z</time>
      </trkpt>
      <trkpt lat="45.00038" lon="15.42781">
        <ele>488</ele>
        <time>2016-07-27T05:33:58Z</time>
      </trkpt>
      <trkpt lat="45.00027" lon="15.42774">
        <ele>487</ele>
        <time>2016-07-27T05:35:58Z</time>
      </trkpt>
      <trkpt lat="45.00019" lon="15.42767">
        <ele>487</ele>
        <time>2016-07-27T05:37:58Z</time>
      </trkpt>
      <trkpt lat="45.00012" lon="15.4276">
        <ele>487</ele>
        <time>2016-07-27T05:39:58Z</time>
      </trkpt>
      <trkpt lat="45.00005" lon="15.42752">
        <ele>487</ele>
        <time>2016-07-27T05:41:58Z</time>
      </trkpt>
      <trkpt lat="44.99998" lon="15.42744">
        <ele>487</ele>
        <time>2016-07-27T05:43:58Z</time>
      </trkpt>
      <trkpt lat="44.99991" lon="15.42736">
        <ele>487</ele>
        <time>2016-07-27T05:45:58Z</time>
      </trkpt>
      <trkpt lat="44.99984" lon="15.42726">
        <ele>487</ele>
        <time>2016-07-27T05:47:58Z</time>
      </trkpt>
      <trkpt lat="44.99977" lon="15.42717">
        <ele>487</ele>
        <time>2016-07-27T05:49:58Z</time>
      </trkpt>
      <trkpt lat="44.99971" lon="15.42709">
        <ele>487</ele>
        <time>2016-07-27T05:51:58Z</time>
      </trkpt>
      <trkpt lat="44.99965" lon="15.42699">
        <ele>488</ele>
        <time>2016-07-27T05:53:58Z</time>
      </trkpt>
      <trkpt lat="44.99962" lon="15.42692">
        <ele>488</ele>
        <time>2016-07-27T05:55:58Z</time>
      </trkpt>
      <trkpt lat="44.9996" lon="15.42687">
        <ele>488</ele>
        <time>2016-07-27T05:57:58Z</time>
      </trkpt>
      <trkpt lat="44.99957" lon="15.42682">
        <ele>488</ele>
        <time>2016-07-27T05:59:58Z</time>
      </trkpt>
      <trkpt lat="44.99954" lon="15.42677">
        <ele>488</ele>
        <time>2016-07-27T06:01:58Z</time>
      </trkpt>
      <trkpt lat="44.99952" lon="15.42672">
        <ele>488</ele>
        <time>2016-07-27T06:03:58Z</time>
      </trkpt>
      <trkpt lat="44.99948" lon="15.42668">
        <ele>488</ele>
        <time>2016-07-27T06:05:58Z</time>
      </trkpt>
      <trkpt lat="44.99945" lon="15.42664">
        <ele>488</ele>
        <time>2016-07-27T06:07:58Z</time>
      </trkpt>
      <trkpt lat="44.99941" lon="15.4266">
        <ele>488</ele>
        <time>2016-07-27T06:09:58Z</time>
      </trkpt>
      <trkpt lat="44.99937" lon="15.42656">
        <ele>488</ele>
        <time>2016-07-27T06:11:58Z</time>
      </trkpt>
      <trkpt lat="44.99933" lon="15.42653">
        <ele>488</ele>
        <time>2016-07-27T06:13:58Z</time>
      </trkpt>
      <trkpt lat="44.99929" lon="15.4265">
        <ele>488</ele>
        <time>2016-07-27T06:15:58Z</time>
      </trkpt>
      <trkpt lat="44.99925" lon="15.42647">
        <ele>488</ele>
        <time>2016-07-27T06:17:58Z</time>
      </trkpt>
      <trkpt lat="44.9992" lon="15.42645">
        <ele>487</ele>
        <time>2016-07-27T06:19:58Z</time>
      </trkpt>
      <trkpt lat="44.9991" lon="15.42643">
        <ele>487</ele>
        <time>2016-07-27T06:21:58Z</time>
      </trkpt>
      <trkpt lat="44.99904" lon="15.4264">
        <ele>487</ele>
        <time>2016-07-27T06:23:58Z</time>
      </trkpt>
      <trkpt lat="44.99898" lon="15.42636">
        <ele>487</ele>
        <time>2016-07-27T06:25:58Z</time>
      </trkpt>
      <trkpt lat="44.99893" lon="15.42632">
        <ele>487</ele>
        <time>2016-07-27T06:27:58Z</time>
      </trkpt>
      <trkpt lat="44.99881" lon="15.42618">
        <ele>487</ele>
        <time>2016-07-27T06:29:58Z</time>
      </trkpt>
      <trkpt lat="44.99869" lon="15.42605">
        <ele>487</ele>
        <time>2016-07-27T06:31:58Z</time>
      </trkpt>
      <trkpt lat="44.99859" lon="15.42595">
        <ele>487</ele>
        <time>2016-07-27T06:33:58Z</time>
      </trkpt>
      <trkpt lat="44.99847" lon="15.42584">
        <ele>487</ele>
        <time>2016-07-27T06:35:58Z</time>
      </trkpt>
      <trkpt lat="44.9984" lon="15.4258">
        <ele>487</ele>
        <time>2016-07-27T06:37:58Z</time>
      </trkpt>
      <trkpt lat="44.99827" lon="15.42572">
        <ele>487</ele>
        <time>2016-07-27T06:39:58Z</time>
      </trkpt>
      <trkpt lat="44.99804" lon="15.42562">
        <ele>488</ele>
        <time>2016-07-27T06:41:58Z</time>
      </trkpt>
      <trkpt lat="44.99799" lon="15.42559">
        <ele>488</ele>
        <time>2016-07-27T06:43:58Z</time>
      </trkpt>
      <trkpt lat="44.9978" lon="15.42552">
        <ele>488</ele>
        <time>2016-07-27T06:45:58Z</time>
      </trkpt>
      <trkpt lat="44.99776" lon="15.4255">
        <ele>488</ele>
        <time>2016-07-27T06:47:58Z</time>
      </trkpt>
      <trkpt lat="44.99771" lon="15.42549">
        <ele>489</ele>
        <time>2016-07-27T06:49:58Z</time>
      </trkpt>
      <trkpt lat="44.99766" lon="15.42548">
        <ele>489</ele>
        <time>2016-07-27T06:51:58Z</time>
      </trkpt>
      <trkpt lat="44.99762" lon="15.42548">
        <ele>489</ele>
        <time>2016-07-27T06:53:58Z</time>
      </trkpt>
      <trkpt lat="44.99757" lon="15.42547">
        <ele>489</ele>
        <time>2016-07-27T06:55:58Z</time>
      </trkpt>
      <trkpt lat="44.99752" lon="15.42548">
        <ele>489</ele>
        <time>2016-07-27T06:57:58Z</time>
      </trkpt>
      <trkpt lat="44.99748" lon="15.42549">
        <ele>489</ele>
        <time>2016-07-27T06:59:58Z</time>
      </trkpt>
      <trkpt lat="44.99744" lon="15.4255">
        <ele>489</ele>
        <time>2016-07-27T07:01:58Z</time>
      </trkpt>
      <trkpt lat="44.99739" lon="15.42552">
        <ele>489</ele>
        <time>2016-07-27T07:03:58Z</time>
      </trkpt>
      <trkpt lat="44.99735" lon="15.42553">
        <ele>489</ele>
        <time>2016-07-27T07:05:58Z</time>
      </trkpt>
      <trkpt lat="44.99731" lon="15.42556">
        <ele>489</ele>
        <time>2016-07-27T07:07:58Z</time>
      </trkpt>
      <trkpt lat="44.99727" lon="15.42559">
        <ele>489</ele>
        <time>2016-07-27T07:09:58Z</time>
      </trkpt>
      <trkpt lat="44.99723" lon="15.42562">
        <ele>489</ele>
        <time>2016-07-27T07:11:58Z</time>
      </trkpt>
      <trkpt lat="44.99713" lon="15.42568">
        <ele>489</ele>
        <time>2016-07-27T07:13:58Z</time>
      </trkpt>
      <trkpt lat="44.99703" lon="15.42574">
        <ele>489</ele>
        <time>2016-07-27T07:15:58Z</time>
      </trkpt>
      <trkpt lat="44.99701" lon="15.42574">
        <ele>489</ele>
        <time>2016-07-27T07:17:58Z</time>
      </trkpt>
      <trkpt lat="44.99693" lon="15.42579">
        <ele>489</ele>
        <time>2016-07-27T07:19:58Z</time>
      </trkpt>
      <trkpt lat="44.99683" lon="15.42584">
        <ele>489</ele>
        <time>2016-07-27T07:21:58Z</time>
      </trkpt>
      <trkpt lat="44.99673" lon="15.42588">
        <ele>489</ele>
        <time>2016-07-27T07:23:58Z</time>
      </trkpt>
      <trkpt lat="44.99664" lon="15.42592">
        <ele>489</ele>
        <time>2016-07-27T07:25:58Z</time>
      </trkpt>
      <trkpt lat="44.99663" lon="15.42592">
        <ele>489</ele>
        <time>2016-07-27T07:27:58Z</time>
      </trkpt>
      <trkpt lat="44.99653" lon="15.42596">
        <ele>488</ele>
        <time>2016-07-27T07:29:58Z</time>
      </trkpt>
      <trkpt lat="44.99643" lon="15.42599">
        <ele>487</ele>
        <time>2016-07-27T07:31:58Z</time>
      </trkpt>
      <trkpt lat="44.99635" lon="15.426">
        <ele>487</ele>
        <time>2016-07-27T07:33:58Z</time>
      </trkpt>
      <trkpt lat="44.99627" lon="15.42601">
        <ele>486</ele>
        <time>2016-07-27T07:35:58Z</time>
      </trkpt>
      <trkpt lat="44.99619" lon="15.42602">
        <ele>486</ele>
        <time>2016-07-27T07:37:58Z</time>
      </trkpt>
      <trkpt lat="44.99611" lon="15.42604">
        <ele>485</ele>
        <time>2016-07-27T07:39:58Z</time>
      </trkpt>
      <trkpt lat="44.99603" lon="15.42606">
        <ele>485</ele>
        <time>2016-07-27T07:41:58Z</time>
      </trkpt>
      <trkpt lat="44.99596" lon="15.42609">
        <ele>484</ele>
        <time>2016-07-27T07:43:58Z</time>
      </trkpt>
      <trkpt lat="44.99588" lon="15.42612">
        <ele>484</ele>
        <time>2016-07-27T07:45:58Z</time>
      </trkpt>
      <trkpt lat="44.99581" lon="15.42616">
        <ele>483</ele>
        <time>2016-07-27T07:47:58Z</time>
      </trkpt>
      <trkpt lat="44.99574" lon="15.42619">
        <ele>483</ele>
        <time>2016-07-27T07:49:58Z</time>
      </trkpt>
      <trkpt lat="44.99567" lon="15.42624">
        <ele>483</ele>
        <time>2016-07-27T07:51:58Z</time>
      </trkpt>
      <trkpt lat="44.9956" lon="15.42629">
        <ele>483</ele>
        <time>2016-07-27T07:53:58Z</time>
      </trkpt>
      <trkpt lat="44.99553" lon="15.42634">
        <ele>483</ele>
        <time>2016-07-27T07:55:58Z</time>
      </trkpt>
      <trkpt lat="44.99547" lon="15.4264">
        <ele>483</ele>
        <time>2016-07-27T07:57:58Z</time>
      </trkpt>
      <trkpt lat="44.99532" lon="15.42654">
        <ele>483</ele>
        <time>2016-07-27T07:59:58Z</time>
      </trkpt>
      <trkpt lat="44.99518" lon="15.4267">
        <ele>483</ele>
        <time>2016-07-27T08:01:58Z</time>
      </trkpt>
      <trkpt lat="44.99504" lon="15.42685">
        <ele>482</ele>
        <time>2016-07-27T08:03:58Z</time>
      </trkpt>
      <trkpt lat="44.99491" lon="15.42701">
        <ele>481</ele>
        <time>2016-07-27T08:05:58Z</time>
      </trkpt>
      <trkpt lat="44.99477" lon="15.42718">
        <ele>480</ele>
        <time>2016-07-27T08:07:58Z</time>
      </trkpt>
      <trkpt lat="44.99465" lon="15.42734">
        <ele>479</ele>
        <time>2016-07-27T08:09:58Z</time>
      </trkpt>
      <trkpt lat="44.99453" lon="15.4275">
        <ele>479</ele>
        <time>2016-07-27T08:11:58Z</time>
      </trkpt>
      <trkpt lat="44.99441" lon="15.42766">
        <ele>478</ele>
        <time>2016-07-27T08:13:58Z</time>
      </trkpt>
      <trkpt lat="44.99429" lon="15.42783">
        <ele>478</ele>
        <time>2016-07-27T08:15:58Z</time>
      </trkpt>
      <trkpt lat="44.99417" lon="15.428">
        <ele>477</ele>
        <time>2016-07-27T08:17:58Z</time>
      </trkpt>
      <trkpt lat="44.99414" lon="15.42805">
        <ele>477</ele>
        <time>2016-07-27T08:19:58Z</time>
      </trkpt>
      <trkpt lat="44.99411" lon="15.42809">
        <ele>477</ele>
        <time>2016-07-27T08:21:58Z</time>
      </trkpt>
      <trkpt lat="44.99408" lon="15.42814">
        <ele>476</ele>
        <time>2016-07-27T08:23:58Z</time>
      </trkpt>
      <trkpt lat="44.99406" lon="15.42819">
        <ele>476</ele>
        <time>2016-07-27T08:25:58Z</time>
      </trkpt>
      <trkpt lat="44.99404" lon="15.42825">
        <ele>476</ele>
        <time>2016-07-27T08:27:58Z</time>
      </trkpt>
      <trkpt lat="44.99402" lon="15.4283">
        <ele>475</ele>
        <time>2016-07-27T08:29:58Z</time>
      </trkpt>
      <trkpt lat="44.994" lon="15.42836">
        <ele>475</ele>
        <time>2016-07-27T08:31:58Z</time>
      </trkpt>
      <trkpt lat="44.99399" lon="15.42842">
        <ele>475</ele>
        <time>2016-07-27T08:33:58Z</time>
      </trkpt>
      <trkpt lat="44.99398" lon="15.42846">
        <ele>475</ele>
        <time>2016-07-27T08:35:58Z</time>
      </trkpt>
      <trkpt lat="44.99398" lon="15.42848">
        <ele>475</ele>
        <time>2016-07-27T08:37:58Z</time>
      </trkpt>
      <trkpt lat="44.99397" lon="15.42855">
        <ele>474</ele>
        <time>2016-07-27T08:39:58Z</time>
      </trkpt>
      <trkpt lat="44.99397" lon="15.42861">
        <ele>474</ele>
        <time>2016-07-27T08:41:58Z</time>
      </trkpt>
      <trkpt lat="44.99397" lon="15.42868">
        <ele>474</ele>
        <time>2016-07-27T08:43:58Z</time>
      </trkpt>
      <trkpt lat="44.99397" lon="15.42874">
        <ele>474</ele>
        <time>2016-07-27T08:45:58Z</time>
      </trkpt>
      <trkpt lat="44.99398" lon="15.42881">
        <ele>474</ele>
        <time>2016-07-27T08:47:58Z</time>
      </trkpt>
      <trkpt lat="44.99399" lon="15.42887">
        <ele>474</ele>
        <time>2016-07-27T08:49:58Z</time>
      </trkpt>
      <trkpt lat="44.994" lon="15.42893">
        <ele>474</ele>
        <time>2016-07-27T08:51:58Z</time>
      </trkpt>
      <trkpt lat="44.99431" lon="15.43032">
        <ele>472</ele>
        <time>2016-07-27T08:53:58Z</time>
      </trkpt>
      <trkpt lat="44.99445" lon="15.43092">
        <ele>471</ele>
        <time>2016-07-27T08:55:58Z</time>
      </trkpt>
      <trkpt lat="44.99449" lon="15.43115">
        <ele>471</ele>
        <time>2016-07-27T08:57:58Z</time>
      </trkpt>
      <trkpt lat="44.9945" lon="15.43126">
        <ele>471</ele>
        <time>2016-07-27T08:59:58Z</time>
      </trkpt>
      <trkpt lat="44.99452" lon="15.43145">
        <ele>471</ele>
        <time>2016-07-27T09:01:58Z</time>
      </trkpt>
      <trkpt lat="44.99453" lon="15.43163">
        <ele>471</ele>
        <time>2016-07-27T09:03:58Z</time>
      </trkpt>
      <trkpt lat="44.99454" lon="15.4318">
        <ele>471</ele>
        <time>2016-07-27T09:05:58Z</time>
      </trkpt>
      <trkpt lat="44.99455" lon="15.43198">
        <ele>471</ele>
        <time>2016-07-27T09:07:58Z</time>
      </trkpt>
      <trkpt lat="44.99457" lon="15.43216">
        <ele>471</ele>
        <time>2016-07-27T09:09:58Z</time>
      </trkpt>
      <trkpt lat="44.99458" lon="15.43234">
        <ele>471</ele>
        <time>2016-07-27T09:11:58Z</time>
      </trkpt>
      <trkpt lat="44.99461" lon="15.43251">
        <ele>471</ele>
        <time>2016-07-27T09:13:58Z</time>
      </trkpt>
      <trkpt lat="44.99463" lon="15.43269">
        <ele>470</ele>
        <time>2016-07-27T09:15:58Z</time>
      </trkpt>
      <trkpt lat="44.99466" lon="15.43286">
        <ele>470</ele>
        <time>2016-07-27T09:17:58Z</time>
      </trkpt>
      <trkpt lat="44.99469" lon="15.43304">
        <ele>470</ele>
        <time>2016-07-27T09:19:58Z</time>
      </trkpt>
      <trkpt lat="44.99472" lon="15.4332">
        <ele>470</ele>
        <time>2016-07-27T09:21:58Z</time>
      </trkpt>
      <trkpt lat="44.99475" lon="15.43336">
        <ele>470</ele>
        <time>2016-07-27T09:23:58Z</time>
      </trkpt>
      <trkpt lat="44.99479" lon="15.43353">
        <ele>471</ele>
        <time>2016-07-27T09:25:58Z</time>
      </trkpt>
      <trkpt lat="44.99483" lon="15.43369">
        <ele>471</ele>
        <time>2016-07-27T09:27:58Z</time>
      </trkpt>
      <trkpt lat="44.99487" lon="15.43385">
        <ele>471</ele>
        <time>2016-07-27T09:29:58Z</time>
      </trkpt>
      <trkpt lat="44.99491" lon="15.43401">
        <ele>471</ele>
        <time>2016-07-27T09:31:58Z</time>
      </trkpt>
      <trkpt lat="44.99495" lon="15.43417">
        <ele>472</ele>
        <time>2016-07-27T09:33:58Z</time>
      </trkpt>
      <trkpt lat="44.99499" lon="15.43434">
        <ele>472</ele>
        <time>2016-07-27T09:35:58Z</time>
      </trkpt>
      <trkpt lat="44.99503" lon="15.43451">
        <ele>472</ele>
        <time>2016-07-27T09:37:58Z</time>
      </trkpt>
      <trkpt lat="44.99507" lon="15.43468">
        <ele>472</ele>
        <time>2016-07-27T09:39:58Z</time>
      </trkpt>
      <trkpt lat="44.9951" lon="15.43485">
        <ele>472</ele>
        <time>2016-07-27T09:41:58Z</time>
      </trkpt>
      <trkpt lat="44.99512" lon="15.43502">
        <ele>472</ele>
        <time>2016-07-27T09:43:58Z</time>
      </trkpt>
      <trkpt lat="44.99515" lon="15.43519">
        <ele>471</ele>
        <time>2016-07-27T09:45:58Z</time>
      </trkpt>
      <trkpt lat="44.99516" lon="15.43537">
        <ele>471</ele>
        <time>2016-07-27T09:47:58Z</time>
      </trkpt>
      <trkpt lat="44.99517" lon="15.43555">
        <ele>470</ele>
        <time>2016-07-27T09:49:58Z</time>
      </trkpt>
      <trkpt lat="44.99518" lon="15.43564">
        <ele>470</ele>
        <time>2016-07-27T09:51:58Z</time>
      </trkpt>
      <trkpt lat="44.99518" lon="15.43573">
        <ele>470</ele>
        <time>2016-07-27T09:53:58Z</time>
      </trkpt>
      <trkpt lat="44.99519" lon="15.43582">
        <ele>470</ele>
        <time>2016-07-27T09:55:58Z</time>
      </trkpt>
      <trkpt lat="44.99521" lon="15.43591">
        <ele>470</ele>
        <time>2016-07-27T09:57:58Z</time>
      </trkpt>
      <trkpt lat="44.99522" lon="15.436">
        <ele>470</ele>
        <time>2016-07-27T09:59:58Z</time>
      </trkpt>
      <trkpt lat="44.99524" lon="15.43609">
        <ele>471</ele>
        <time>2016-07-27T10:01:58Z</time>
      </trkpt>
      <trkpt lat="44.99526" lon="15.43617">
        <ele>471</ele>
        <time>2016-07-27T10:03:58Z</time>
      </trkpt>
      <trkpt lat="44.99528" lon="15.43626">
        <ele>471</ele>
        <time>2016-07-27T10:05:58Z</time>
      </trkpt>
      <trkpt lat="44.99531" lon="15.43634">
        <ele>471</ele>
        <time>2016-07-27T10:07:58Z</time>
      </trkpt>
      <trkpt lat="44.99534" lon="15.43642">
        <ele>472</ele>
        <time>2016-07-27T10:09:58Z</time>
      </trkpt>
      <trkpt lat="44.99537" lon="15.4365">
        <ele>472</ele>
        <time>2016-07-27T10:11:58Z</time>
      </trkpt>
      <trkpt lat="44.9954" lon="15.43658">
        <ele>472</ele>
        <time>2016-07-27T10:13:58Z</time>
      </trkpt>
      <trkpt lat="44.99556" lon="15.43717">
        <ele>473</ele>
        <time>2016-07-27T10:15:58Z</time>
      </trkpt>
      <trkpt lat="44.99559" lon="15.4373">
        <ele>473</ele>
        <time>2016-07-27T10:17:58Z</time>
      </trkpt>
      <trkpt lat="44.99561" lon="15.43742">
        <ele>473</ele>
        <time>2016-07-27T10:19:58Z</time>
      </trkpt>
      <trkpt lat="44.99564" lon="15.43754">
        <ele>474</ele>
        <time>2016-07-27T10:21:58Z</time>
      </trkpt>
      <trkpt lat="44.99567" lon="15.43766">
        <ele>474</ele>
        <time>2016-07-27T10:23:58Z</time>
      </trkpt>
      <trkpt lat="44.99571" lon="15.43777">
        <ele>474</ele>
        <time>2016-07-27T10:25:58Z</time>
      </trkpt>
      <trkpt lat="44.99574" lon="15.43786">
        <ele>474</ele>
        <time>2016-07-27T10:27:58Z</time>
      </trkpt>
      <trkpt lat="44.99574" lon="15.43788">
        <ele>474</ele>
        <time>2016-07-27T10:29:58Z</time>
      </trkpt>
      <trkpt lat="44.99578" lon="15.43799">
        <ele>474</ele>
        <time>2016-07-27T10:31:58Z</time>
      </trkpt>
      <trkpt lat="44.99582" lon="15.43809">
        <ele>474</ele>
        <time>2016-07-27T10:33:58Z</time>
      </trkpt>
      <trkpt lat="44.99601" lon="15.439">
        <ele>474</ele>
        <time>2016-07-27T10:35:58Z</time>
      </trkpt>
      <trkpt lat="44.99614" lon="15.44011">
        <ele>474</ele>
        <time>2016-07-27T10:37:58Z</time>
      </trkpt>
      <trkpt lat="44.99617" lon="15.44048">
        <ele>473</ele>
        <time>2016-07-27T10:39:58Z</time>
      </trkpt>
      <trkpt lat="44.99617" lon="15.44056">
        <ele>473</ele>
        <time>2016-07-27T10:41:58Z</time>
      </trkpt>
      <trkpt lat="44.99617" lon="15.44062">
        <ele>473</ele>
        <time>2016-07-27T10:43:58Z</time>
      </trkpt>
      <trkpt lat="44.99618" lon="15.44067">
        <ele>473</ele>
        <time>2016-07-27T10:45:58Z</time>
      </trkpt>
      <trkpt lat="44.99618" lon="15.44072">
        <ele>473</ele>
        <time>2016-07-27T10:47:58Z</time>
      </trkpt>
      <trkpt lat="44.9962" lon="15.44077">
        <ele>473</ele>
        <time>2016-07-27T10:49:58Z</time>
      </trkpt>
      <trkpt lat="44.99621" lon="15.44082">
        <ele>473</ele>
        <time>2016-07-27T10:51:58Z</time>
      </trkpt>
      <trkpt lat="44.99623" lon="15.44087">
        <ele>472</ele>
        <time>2016-07-27T10:53:58Z</time>
      </trkpt>
      <trkpt lat="44.99624" lon="15.44092">
        <ele>472</ele>
        <time>2016-07-27T10:55:58Z</time>
      </trkpt>
      <trkpt lat="44.99627" lon="15.44096">
        <ele>472</ele>
        <time>2016-07-27T10:57:58Z</time>
      </trkpt>
      <trkpt lat="44.99629" lon="15.441">
        <ele>472</ele>
        <time>2016-07-27T10:59:58Z</time>
      </trkpt>
      <trkpt lat="44.99632" lon="15.44103">
        <ele>472</ele>
        <time>2016-07-27T11:01:58Z</time>
      </trkpt>
      <trkpt lat="44.99634" lon="15.44107">
        <ele>472</ele>
        <time>2016-07-27T11:03:58Z</time>
      </trkpt>
      <trkpt lat="44.99637" lon="15.4411">
        <ele>472</ele>
        <time>2016-07-27T11:05:58Z</time>
      </trkpt>
      <trkpt lat="44.99676" lon="15.44148">
        <ele>470</ele>
        <time>2016-07-27T11:07:58Z</time>
      </trkpt>
      <trkpt lat="44.99678" lon="15.44151">
        <ele>470</ele>
        <time>2016-07-27T11:09:58Z</time>
      </trkpt>
      <trkpt lat="44.9968" lon="15.44154">
        <ele>470</ele>
        <time>2016-07-27T11:11:58Z</time>
      </trkpt>
      <trkpt lat="44.99682" lon="15.44157">
        <ele>470</ele>
        <time>2016-07-27T11:13:58Z</time>
      </trkpt>
      <trkpt lat="44.99684" lon="15.44161">
        <ele>470</ele>
        <time>2016-07-27T11:15:58Z</time>
      </trkpt>
      <trkpt lat="44.99685" lon="15.44165">
        <ele>470</ele>
        <time>2016-07-27T11:17:58Z</time>
      </trkpt>
      <trkpt lat="44.99686" lon="15.44169">
        <ele>470</ele>
        <time>2016-07-27T11:19:58Z</time>
      </trkpt>
      <trkpt lat="44.99687" lon="15.44173">
        <ele>470</ele>
        <time>2016-07-27T11:21:58Z</time>
      </trkpt>
      <trkpt lat="44.99688" lon="15.44177">
        <ele>470</ele>
        <time>2016-07-27T11:23:58Z</time>
      </trkpt>
      <trkpt lat="44.99688" lon="15.44181">
        <ele>470</ele>
        <time>2016-07-27T11:25:58Z</time>
      </trkpt>
      <trkpt lat="44.99688" lon="15.44185">
        <ele>470</ele>
        <time>2016-07-27T11:27:58Z</time>
      </trkpt>
      <trkpt lat="44.99687" lon="15.44187">
        <ele>470</ele>
        <time>2016-07-27T11:29:58Z</time>
      </trkpt>
      <trkpt lat="44.99687" lon="15.44189">
        <ele>470</ele>
        <time>2016-07-27T11:31:58Z</time>
      </trkpt>
      <trkpt lat="44.99686" lon="15.44193">
        <ele>470</ele>
        <time>2016-07-27T11:33:58Z</time>
      </trkpt>
      <trkpt lat="44.99685" lon="15.44196">
        <ele>470</ele>
        <time>2016-07-27T11:35:58Z</time>
      </trkpt>
      <trkpt lat="44.99684" lon="15.442">
        <ele>470</ele>
        <time>2016-07-27T11:37:58Z</time>
      </trkpt>
      <trkpt lat="44.99683" lon="15.44203">
        <ele>470</ele>
        <time>2016-07-27T11:39:58Z</time>
      </trkpt>
      <trkpt lat="44.99681" lon="15.44206">
        <ele>470</ele>
        <time>2016-07-27T11:41:58Z</time>
      </trkpt>
      <trkpt lat="44.99677" lon="15.44216">
        <ele>470</ele>
        <time>2016-07-27T11:43:58Z</time>
      </trkpt>
      <trkpt lat="44.99672" lon="15.44225">
        <ele>470</ele>
        <time>2016-07-27T11:45:58Z</time>
      </trkpt>
      <trkpt lat="44.99667" lon="15.44234">
        <ele>470</ele>
        <time>2016-07-27T11:47:58Z</time>
      </trkpt>
      <trkpt lat="44.99662" lon="15.44242">
        <ele>470</ele>
        <time>2016-07-27T11:49:58Z</time>
      </trkpt>
      <trkpt lat="44.99657" lon="15.44251">
        <ele>470</ele>
        <time>2016-07-27T11:51:58Z</time>
      </trkpt>
      <trkpt lat="44.99651" lon="15.44259">
        <ele>470</ele>
        <time>2016-07-27T11:53:58Z</time>
      </trkpt>
      <trkpt lat="44.99645" lon="15.44268">
        <ele>471</ele>
        <time>2016-07-27T11:55:58Z</time>
      </trkpt>
      <trkpt lat="44.99639" lon="15.44276">
        <ele>471</ele>
        <time>2016-07-27T11:57:58Z</time>
      </trkpt>
      <trkpt lat="44.99633" lon="15.44283">
        <ele>471</ele>
        <time>2016-07-27T11:59:58Z</time>
      </trkpt>
      <trkpt lat="44.99626" lon="15.44291">
        <ele>471</ele>
        <time>2016-07-27T12:01:58Z</time>
      </trkpt>
      <trkpt lat="44.99573" lon="15.4434">
        <ele>472</ele>
        <time>2016-07-27T12:03:58Z</time>
      </trkpt>
      <trkpt lat="44.99545" lon="15.44368">
        <ele>472</ele>
        <time>2016-07-27T12:05:58Z</time>
      </trkpt>
      <trkpt lat="44.99522" lon="15.44394">
        <ele>472</ele>
        <time>2016-07-27T12:07:58Z</time>
      </trkpt>
      <trkpt lat="44.995" lon="15.44425">
        <ele>473</ele>
        <time>2016-07-27T12:09:58Z</time>
      </trkpt>
      <trkpt lat="44.99429" lon="15.44559">
        <ele>475</ele>
        <time>2016-07-27T12:11:58Z</time>
      </trkpt>
      <trkpt lat="44.99374" lon="15.44685">
        <ele>472</ele>
        <time>2016-07-27T12:13:58Z</time>
      </trkpt>
      <trkpt lat="44.99371" lon="15.44691">
        <ele>472</ele>
        <time>2016-07-27T12:15:58Z</time>
      </trkpt>
      <trkpt lat="44.99369" lon="15.44697">
        <ele>472</ele>
        <time>2016-07-27T12:17:58Z</time>
      </trkpt>
      <trkpt lat="44.99366" lon="15.44703">
        <ele>472</ele>
        <time>2016-07-27T12:19:58Z</time>
      </trkpt>
      <trkpt lat="44.99363" lon="15.44709">
        <ele>472</ele>
        <time>2016-07-27T12:21:58Z</time>
      </trkpt>
      <trkpt lat="44.9936" lon="15.44714">
        <ele>472</ele>
        <time>2016-07-27T12:23:58Z</time>
      </trkpt>
      <trkpt lat="44.99356" lon="15.4472">
        <ele>472</ele>
        <time>2016-07-27T12:25:58Z</time>
      </trkpt>
      <trkpt lat="44.99352" lon="15.44725">
        <ele>472</ele>
        <time>2016-07-27T12:27:58Z</time>
      </trkpt>
      <trkpt lat="44.99348" lon="15.44729">
        <ele>471</ele>
        <time>2016-07-27T12:29:58Z</time>
      </trkpt>
      <trkpt lat="44.99344" lon="15.44734">
        <ele>471</ele>
        <time>2016-07-27T12:31:58Z</time>
      </trkpt>
      <trkpt lat="44.9934" lon="15.44738">
        <ele>471</ele>
        <time>2016-07-27T12:33:58Z</time>
      </trkpt>
      <trkpt lat="44.99335" lon="15.44742">
        <ele>471</ele>
        <time>2016-07-27T12:35:58Z</time>
      </trkpt>
      <trkpt lat="44.99331" lon="15.44745">
        <ele>471</ele>
        <time>2016-07-27T12:37:58Z</time>
      </trkpt>
      <trkpt lat="44.99326" lon="15.44748">
        <ele>472</ele>
        <time>2016-07-27T12:39:58Z</time>
      </trkpt>
      <trkpt lat="44.99321" lon="15.44751">
        <ele>472</ele>
        <time>2016-07-27T12:41:58Z</time>
      </trkpt>
      <trkpt lat="44.99316" lon="15.44753">
        <ele>473</ele>
        <time>2016-07-27T12:43:58Z</time>
      </trkpt>
      <trkpt lat="44.9931" lon="15.44754">
        <ele>473</ele>
        <time>2016-07-27T12:45:58Z</time>
      </trkpt>
      <trkpt lat="44.99305" lon="15.44756">
        <ele>474</ele>
        <time>2016-07-27T12:47:58Z</time>
      </trkpt>
      <trkpt lat="44.993" lon="15.44758">
        <ele>474</ele>
        <time>2016-07-27T12:49:58Z</time>
      </trkpt>
      <trkpt lat="44.99295" lon="15.44759">
        <ele>475</ele>
        <time>2016-07-27T12:51:58Z</time>
      </trkpt>
      <trkpt lat="44.9929" lon="15.4476">
        <ele>475</ele>
        <time>2016-07-27T12:53:58Z</time>
      </trkpt>
      <trkpt lat="44.99284" lon="15.44761">
        <ele>476</ele>
        <time>2016-07-27T12:55:58Z</time>
      </trkpt>
      <trkpt lat="44.99279" lon="15.44761">
        <ele>477</ele>
        <time>2016-07-27T12:57:58Z</time>
      </trkpt>
      <trkpt lat="44.99274" lon="15.44761">
        <ele>477</ele>
        <time>2016-07-27T12:59:58Z</time>
      </trkpt>
      <trkpt lat="44.99268" lon="15.4476">
        <ele>478</ele>
        <time>2016-07-27T13:01:58Z</time>
      </trkpt>
      <trkpt lat="44.99264" lon="15.44759">
        <ele>478</ele>
        <time>2016-07-27T13:03:58Z</time>
      </trkpt>
      <trkpt lat="44.99259" lon="15.44758">
        <ele>478</ele>
        <time>2016-07-27T13:05:58Z</time>
      </trkpt>
      <trkpt lat="44.99254" lon="15.44756">
        <ele>478</ele>
        <time>2016-07-27T13:07:58Z</time>
      </trkpt>
      <trkpt lat="44.9925" lon="15.44754">
        <ele>479</ele>
        <time>2016-07-27T13:09:58Z</time>
      </trkpt>
      <trkpt lat="44.99246" lon="15.44751">
        <ele>479</ele>
        <time>2016-07-27T13:11:58Z</time>
      </trkpt>
      <trkpt lat="44.99241" lon="15.44748">
        <ele>480</ele>
        <time>2016-07-27T13:13:58Z</time>
      </trkpt>
      <trkpt lat="44.99237" lon="15.44745">
        <ele>480</ele>
        <time>2016-07-27T13:15:58Z</time>
      </trkpt>
      <trkpt lat="44.99231" lon="15.44742">
        <ele>481</ele>
        <time>2016-07-27T13:17:58Z</time>
      </trkpt>
      <trkpt lat="44.99226" lon="15.44738">
        <ele>482</ele>
        <time>2016-07-27T13:19:58Z</time>
      </trkpt>
      <trkpt lat="44.99221" lon="15.44734">
        <ele>483</ele>
        <time>2016-07-27T13:21:58Z</time>
      </trkpt>
      <trkpt lat="44.99215" lon="15.4473">
        <ele>483</ele>
        <time>2016-07-27T13:23:58Z</time>
      </trkpt>
      <trkpt lat="44.9921" lon="15.44725">
        <ele>484</ele>
        <time>2016-07-27T13:25:58Z</time>
      </trkpt>
      <trkpt lat="44.99205" lon="15.4472">
        <ele>485</ele>
        <time>2016-07-27T13:27:58Z</time>
      </trkpt>
      <trkpt lat="44.992" lon="15.44715">
        <ele>485</ele>
        <time>2016-07-27T13:29:58Z</time>
      </trkpt>
      <trkpt lat="44.99196" lon="15.4471">
        <ele>485</ele>
        <time>2016-07-27T13:31:58Z</time>
      </trkpt>
      <trkpt lat="44.99191" lon="15.44704">
        <ele>486</ele>
        <time>2016-07-27T13:33:58Z</time>
      </trkpt>
      <trkpt lat="44.99187" lon="15.44698">
        <ele>486</ele>
        <time>2016-07-27T13:35:58Z</time>
      </trkpt>
      <trkpt lat="44.99183" lon="15.44692">
        <ele>486</ele>
        <time>2016-07-27T13:37:58Z</time>
      </trkpt>
      <trkpt lat="44.99179" lon="15.44686">
        <ele>486</ele>
        <time>2016-07-27T13:39:58Z</time>
      </trkpt>
      <trkpt lat="44.99175" lon="15.44679">
        <ele>486</ele>
        <time>2016-07-27T13:41:58Z</time>
      </trkpt>
      <trkpt lat="44.99172" lon="15.44673">
        <ele>486</ele>
        <time>2016-07-27T13:43:58Z</time>
      </trkpt>
      <trkpt lat="44.99168" lon="15.44666">
        <ele>486</ele>
        <time>2016-07-27T13:45:58Z</time>
      </trkpt>
      <trkpt lat="44.99163" lon="15.4466">
        <ele>486</ele>
        <time>2016-07-27T13:47:58Z</time>
      </trkpt>
      <trkpt lat="44.99159" lon="15.44655">
        <ele>486</ele>
        <time>2016-07-27T13:49:58Z</time>
      </trkpt>
      <trkpt lat="44.99154" lon="15.44649">
        <ele>486</ele>
        <time>2016-07-27T13:51:58Z</time>
      </trkpt>
      <trkpt lat="44.99149" lon="15.44643">
        <ele>486</ele>
        <time>2016-07-27T13:53:58Z</time>
      </trkpt>
      <trkpt lat="44.99144" lon="15.44638">
        <ele>486</ele>
        <time>2016-07-27T13:55:58Z</time>
      </trkpt>
      <trkpt lat="44.99138" lon="15.44633">
        <ele>486</ele>
        <time>2016-07-27T13:57:58Z</time>
      </trkpt>
      <trkpt lat="44.99133" lon="15.44629">
        <ele>486</ele>
        <time>2016-07-27T13:59:58Z</time>
      </trkpt>
      <trkpt lat="44.99127" lon="15.44625">
        <ele>486</ele>
        <time>2016-07-27T14:01:58Z</time>
      </trkpt>
      <trkpt lat="44.99121" lon="15.44621">
        <ele>486</ele>
        <time>2016-07-27T14:03:58Z</time>
      </trkpt>
      <trkpt lat="44.99119" lon="15.4462">
        <ele>486</ele>
        <time>2016-07-27T14:05:58Z</time>
      </trkpt>
      <trkpt lat="44.99117" lon="15.44619">
        <ele>486</ele>
        <time>2016-07-27T14:07:58Z</time>
      </trkpt>
      <trkpt lat="44.99115" lon="15.44618">
        <ele>486</ele>
        <time>2016-07-27T14:09:58Z</time>
      </trkpt>
      <trkpt lat="44.99113" lon="15.44618">
        <ele>486</ele>
        <time>2016-07-27T14:11:58Z</time>
      </trkpt>
      <trkpt lat="44.99111" lon="15.44618">
        <ele>486</ele>
        <time>2016-07-27T14:13:58Z</time>
      </trkpt>
      <trkpt lat="44.99109" lon="15.44618">
        <ele>486</ele>
        <time>2016-07-27T14:15:58Z</time>
      </trkpt>
      <trkpt lat="44.99107" lon="15.44619">
        <ele>487</ele>
        <time>2016-07-27T14:17:58Z</time>
      </trkpt>
      <trkpt lat="44.99104" lon="15.4462">
        <ele>487</ele>
        <time>2016-07-27T14:19:58Z</time>
      </trkpt>
      <trkpt lat="44.99103" lon="15.44621">
        <ele>487</ele>
        <time>2016-07-27T14:21:58Z</time>
      </trkpt>
      <trkpt lat="44.99103" lon="15.44622">
        <ele>487</ele>
        <time>2016-07-27T14:23:58Z</time>
      </trkpt>
      <trkpt lat="44.99101" lon="15.44624">
        <ele>487</ele>
        <time>2016-07-27T14:25:58Z</time>
      </trkpt>
      <trkpt lat="44.99099" lon="15.44626">
        <ele>487</ele>
        <time>2016-07-27T14:27:58Z</time>
      </trkpt>
      <trkpt lat="44.99098" lon="15.44629">
        <ele>487</ele>
        <time>2016-07-27T14:29:58Z</time>
      </trkpt>
      <trkpt lat="44.99097" lon="15.44631">
        <ele>488</ele>
        <time>2016-07-27T14:31:58Z</time>
      </trkpt>
      <trkpt lat="44.99096" lon="15.44634">
        <ele>488</ele>
        <time>2016-07-27T14:33:58Z</time>
      </trkpt>
      <trkpt lat="44.99095" lon="15.44637">
        <ele>488</ele>
        <time>2016-07-27T14:35:58Z</time>
      </trkpt>
      <trkpt lat="44.99095" lon="15.44641">
        <ele>488</ele>
        <time>2016-07-27T14:37:58Z</time>
      </trkpt>
      <trkpt lat="44.99095" lon="15.44644">
        <ele>488</ele>
        <time>2016-07-27T14:39:58Z</time>
      </trkpt>
      <trkpt lat="44.99096" lon="15.44647">
        <ele>488</ele>
        <time>2016-07-27T14:41:58Z</time>
      </trkpt>
      <trkpt lat="44.99096" lon="15.4465">
        <ele>489</ele>
        <time>2016-07-27T14:43:58Z</time>
      </trkpt>
      <trkpt lat="44.99097" lon="15.44653">
        <ele>489</ele>
        <time>2016-07-27T14:45:58Z</time>
      </trkpt>
      <trkpt lat="44.99098" lon="15.44656">
        <ele>489</ele>
        <time>2016-07-27T14:47:58Z</time>
      </trkpt>
      <trkpt lat="44.991" lon="15.44658">
        <ele>489</ele>
        <time>2016-07-27T14:49:58Z</time>
      </trkpt>
      <trkpt lat="44.9913" lon="15.44703">
        <ele>491</ele>
        <time>2016-07-27T14:51:58Z</time>
      </trkpt>
      <trkpt lat="44.99167" lon="15.44764">
        <ele>496</ele>
        <time>2016-07-27T14:53:58Z</time>
      </trkpt>
      <trkpt lat="44.99242" lon="15.44876">
        <ele>498</ele>
        <time>2016-07-27T14:55:58Z</time>
      </trkpt>
      <trkpt lat="44.99261" lon="15.44907">
        <ele>499</ele>
        <time>2016-07-27T14:57:58Z</time>
      </trkpt>
      <trkpt lat="44.9928" lon="15.44948">
        <ele>501</ele>
        <time>2016-07-27T14:59:58Z</time>
      </trkpt>
      <trkpt lat="44.99304" lon="15.45004">
        <ele>505</ele>
        <time>2016-07-27T15:01:58Z</time>
      </trkpt>
      <trkpt lat="44.99313" lon="15.45029">
        <ele>506</ele>
        <time>2016-07-27T15:03:58Z</time>
      </trkpt>
      <trkpt lat="44.99319" lon="15.45049">
        <ele>507</ele>
        <time>2016-07-27T15:05:58Z</time>
      </trkpt>
      <trkpt lat="44.9933" lon="15.45095">
        <ele>509</ele>
        <time>2016-07-27T15:07:58Z</time>
      </trkpt>
      <trkpt lat="44.99335" lon="15.45127">
        <ele>510</ele>
        <time>2016-07-27T15:09:58Z</time>
      </trkpt>
      <trkpt lat="44.99336" lon="15.45143">
        <ele>511</ele>
        <time>2016-07-27T15:11:58Z</time>
      </trkpt>
      <trkpt lat="44.99337" lon="15.45157">
        <ele>512</ele>
        <time>2016-07-27T15:13:58Z</time>
      </trkpt>
      <trkpt lat="44.99337" lon="15.45178">
        <ele>513</ele>
        <time>2016-07-27T15:15:58Z</time>
      </trkpt>
      <trkpt lat="44.99336" lon="15.45191">
        <ele>514</ele>
        <time>2016-07-27T15:17:58Z</time>
      </trkpt>
      <trkpt lat="44.99336" lon="15.45198">
        <ele>514</ele>
        <time>2016-07-27T15:19:58Z</time>
      </trkpt>
      <trkpt lat="44.99336" lon="15.45208">
        <ele>514</ele>
        <time>2016-07-27T15:21:58Z</time>
      </trkpt>
      <trkpt lat="44.99338" lon="15.45222">
        <ele>514</ele>
        <time>2016-07-27T15:23:58Z</time>
      </trkpt>
      <trkpt lat="44.99339" lon="15.45236">
        <ele>514</ele>
        <time>2016-07-27T15:25:58Z</time>
      </trkpt>
      <trkpt lat="44.99341" lon="15.45249">
        <ele>514</ele>
        <time>2016-07-27T15:27:58Z</time>
      </trkpt>
      <trkpt lat="44.99341" lon="15.45261">
        <ele>515</ele>
        <time>2016-07-27T15:29:58Z</time>
      </trkpt>
      <trkpt lat="44.99338" lon="15.45276">
        <ele>516</ele>
        <time>2016-07-27T15:31:58Z</time>
      </trkpt>
      <trkpt lat="44.99336" lon="15.45285">
        <ele>518</ele>
        <time>2016-07-27T15:33:58Z</time>
      </trkpt>
      <trkpt lat="44.99332" lon="15.45298">
        <ele>520</ele>
        <time>2016-07-27T15:35:58Z</time>
      </trkpt>
      <trkpt lat="44.99331" lon="15.4531">
        <ele>521</ele>
        <time>2016-07-27T15:37:58Z</time>
      </trkpt>
      <trkpt lat="44.99331" lon="15.45319">
        <ele>521</ele>
        <time>2016-07-27T15:39:58Z</time>
      </trkpt>
      <trkpt lat="44.99331" lon="15.45333">
        <ele>522</ele>
        <time>2016-07-27T15:41:58Z</time>
      </trkpt>
      <trkpt lat="44.99332" lon="15.45345">
        <ele>523</ele>
        <time>2016-07-27T15:43:58Z</time>
      </trkpt>
      <trkpt lat="44.99336" lon="15.45369">
        <ele>524</ele>
        <time>2016-07-27T15:45:58Z</time>
      </trkpt>
      <trkpt lat="44.99341" lon="15.4541">
        <ele>527</ele>
        <time>2016-07-27T15:47:58Z</time>
      </trkpt>
      <trkpt lat="44.99341" lon="15.4543">
        <ele>528</ele>
        <time>2016-07-27T15:49:58Z</time>
      </trkpt>
      <trkpt lat="44.9934" lon="15.45455">
        <ele>529</ele>
        <time>2016-07-27T15:51:58Z</time>
      </trkpt>
      <trkpt lat="44.99339" lon="15.45498">
        <ele>531</ele>
        <time>2016-07-27T15:53:58Z</time>
      </trkpt>
      <trkpt lat="44.99336" lon="15.45524">
        <ele>532</ele>
        <time>2016-07-27T15:55:58Z</time>
      </trkpt>
      <trkpt lat="44.99334" lon="15.45535">
        <ele>533</ele>
        <time>2016-07-27T15:57:58Z</time>
      </trkpt>
      <trkpt lat="44.99332" lon="15.45542">
        <ele>534</ele>
        <time>2016-07-27T15:59:58Z</time>
      </trkpt>
      <trkpt lat="44.99328" lon="15.45551">
        <ele>535</ele>
        <time>2016-07-27T16:01:58Z</time>
      </trkpt>
      <trkpt lat="44.99324" lon="15.45557">
        <ele>537</ele>
        <time>2016-07-27T16:03:58Z</time>
      </trkpt>
      <trkpt lat="44.99317" lon="15.45567">
        <ele>540</ele>
        <time>2016-07-27T16:05:58Z</time>
      </trkpt>
      <trkpt lat="44.99315" lon="15.4557">
        <ele>541</ele>
        <time>2016-07-27T16:07:58Z</time>
      </trkpt>
      <trkpt lat="44.99313" lon="15.45573">
        <ele>542</ele>
        <time>2016-07-27T16:09:58Z</time>
      </trkpt>
      <trkpt lat="44.99312" lon="15.45579">
        <ele>543</ele>
        <time>2016-07-27T16:11:58Z</time>
      </trkpt>
      <trkpt lat="44.99311" lon="15.45586">
        <ele>543</ele>
        <time>2016-07-27T16:13:58Z</time>
      </trkpt>
      <trkpt lat="44.9931" lon="15.45592">
        <ele>544</ele>
        <time>2016-07-27T16:15:58Z</time>
      </trkpt>
      <trkpt lat="44.9931" lon="15.45608">
        <ele>544</ele>
        <time>2016-07-27T16:17:58Z</time>
      </trkpt>
      <trkpt lat="44.9931" lon="15.45625">
        <ele>543</ele>
        <time>2016-07-27T16:19:58Z</time>
      </trkpt>
      <trkpt lat="44.9931" lon="15.4563">
        <ele>543</ele>
        <time>2016-07-27T16:21:58Z</time>
      </trkpt>
      <trkpt lat="44.99309" lon="15.45635">
        <ele>544</ele>
        <time>2016-07-27T16:23:58Z</time>
      </trkpt>
      <trkpt lat="44.99308" lon="15.45643">
        <ele>544</ele>
        <time>2016-07-27T16:25:58Z</time>
      </trkpt>
      <trkpt lat="44.99307" lon="15.45651">
        <ele>545</ele>
        <time>2016-07-27T16:27:58Z</time>
      </trkpt>
      <trkpt lat="44.99306" lon="15.45659">
        <ele>545</ele>
        <time>2016-07-27T16:29:58Z</time>
      </trkpt>
      <trkpt lat="44.99306" lon="15.45668">
        <ele>545</ele>
        <time>2016-07-27T16:31:58Z</time>
      </trkpt>
      <trkpt lat="44.99306" lon="15.45674">
        <ele>545</ele>
        <time>2016-07-27T16:33:58Z</time>
      </trkpt>
      <trkpt lat="44.99307" lon="15.45683">
        <ele>545</ele>
        <time>2016-07-27T16:35:58Z</time>
      </trkpt>
      <trkpt lat="44.99309" lon="15.45689">
        <ele>543</ele>
        <time>2016-07-27T16:37:58Z</time>
      </trkpt>
      <trkpt lat="44.9931" lon="15.45695">
        <ele>543</ele>
        <time>2016-07-27T16:39:58Z</time>
      </trkpt>
      <trkpt lat="44.99311" lon="15.45703">
        <ele>542</ele>
        <time>2016-07-27T16:41:58Z</time>
      </trkpt>
      <trkpt lat="44.99311" lon="15.45711">
        <ele>542</ele>
        <time>2016-07-27T16:43:58Z</time>
      </trkpt>
      <trkpt lat="44.99311" lon="15.45722">
        <ele>542</ele>
        <time>2016-07-27T16:45:58Z</time>
      </trkpt>
      <trkpt lat="44.99308" lon="15.45739">
        <ele>544</ele>
        <time>2016-07-27T16:47:58Z</time>
      </trkpt>
      <trkpt lat="44.99306" lon="15.45751">
        <ele>545</ele>
        <time>2016-07-27T16:49:58Z</time>
      </trkpt>
      <trkpt lat="44.99304" lon="15.4576">
        <ele>546</ele>
        <time>2016-07-27T16:51:58Z</time>
      </trkpt>
      <trkpt lat="44.99304" lon="15.45772">
        <ele>546</ele>
        <time>2016-07-27T16:53:58Z</time>
      </trkpt>
      <trkpt lat="44.99304" lon="15.45778">
        <ele>546</ele>
        <time>2016-07-27T16:55:58Z</time>
      </trkpt>
      <trkpt lat="44.99306" lon="15.45787">
        <ele>545</ele>
        <time>2016-07-27T16:57:58Z</time>
      </trkpt>
      <trkpt lat="44.99308" lon="15.45793">
        <ele>544</ele>
        <time>2016-07-27T16:59:58Z</time>
      </trkpt>
      <trkpt lat="44.99309" lon="15.45803">
        <ele>543</ele>
        <time>2016-07-27T17:01:58Z</time>
      </trkpt>
      <trkpt lat="44.99311" lon="15.45815">
        <ele>543</ele>
        <time>2016-07-27T17:03:58Z</time>
      </trkpt>
      <trkpt lat="44.99312" lon="15.45823">
        <ele>542</ele>
        <time>2016-07-27T17:05:58Z</time>
      </trkpt>
      <trkpt lat="44.99311" lon="15.45833">
        <ele>543</ele>
        <time>2016-07-27T17:07:58Z</time>
      </trkpt>
      <trkpt lat="44.9931" lon="15.45839">
        <ele>543</ele>
        <time>2016-07-27T17:09:58Z</time>
      </trkpt>
      <trkpt lat="44.99308" lon="15.45844">
        <ele>544</ele>
        <time>2016-07-27T17:11:58Z</time>
      </trkpt>
      <trkpt lat="44.99306" lon="15.45848">
        <ele>544</ele>
        <time>2016-07-27T17:13:58Z</time>
      </trkpt>
      <trkpt lat="44.99303" lon="15.45852">
        <ele>546</ele>
        <time>2016-07-27T17:15:58Z</time>
      </trkpt>
      <trkpt lat="44.99291" lon="15.45861">
        <ele>551</ele>
        <time>2016-07-27T17:17:58Z</time>
      </trkpt>
      <trkpt lat="44.99282" lon="15.45867">
        <ele>555</ele>
        <time>2016-07-27T17:19:58Z</time>
      </trkpt>
      <trkpt lat="44.99278" lon="15.45871">
        <ele>556</ele>
        <time>2016-07-27T17:21:58Z</time>
      </trkpt>
      <trkpt lat="44.99275" lon="15.45875">
        <ele>557</ele>
        <time>2016-07-27T17:23:58Z</time>
      </trkpt>
      <trkpt lat="44.99272" lon="15.45883">
        <ele>558</ele>
        <time>2016-07-27T17:25:58Z</time>
      </trkpt>
      <trkpt lat="44.9927" lon="15.45892">
        <ele>559</ele>
        <time>2016-07-27T17:27:58Z</time>
      </trkpt>
      <trkpt lat="44.9927" lon="15.45902">
        <ele>558</ele>
        <time>2016-07-27T17:29:58Z</time>
      </trkpt>
      <trkpt lat="44.99271" lon="15.45914">
        <ele>557</ele>
        <time>2016-07-27T17:31:58Z</time>
      </trkpt>
      <trkpt lat="44.99271" lon="15.45925">
        <ele>556</ele>
        <time>2016-07-27T17:33:58Z</time>
      </trkpt>
      <trkpt lat="44.99274" lon="15.45936">
        <ele>555</ele>
        <time>2016-07-27T17:35:58Z</time>
      </trkpt>
      <trkpt lat="44.99298" lon="15.4601">
        <ele>547</ele>
        <time>2016-07-27T17:37:58Z</time>
      </trkpt>
      <trkpt lat="44.99308" lon="15.46044">
        <ele>547</ele>
        <time>2016-07-27T17:39:58Z</time>
      </trkpt>
      <trkpt lat="44.99311" lon="15.46056">
        <ele>547</ele>
        <time>2016-07-27T17:41:58Z</time>
      </trkpt>
      <trkpt lat="44.99313" lon="15.46067">
        <ele>548</ele>
        <time>2016-07-27T17:43:58Z</time>
      </trkpt>
      <trkpt lat="44.99314" lon="15.46077">
        <ele>549</ele>
        <time>2016-07-27T17:45:58Z</time>
      </trkpt>
      <trkpt lat="44.99314" lon="15.46088">
        <ele>550</ele>
        <time>2016-07-27T17:47:58Z</time>
      </trkpt>
      <trkpt lat="44.99314" lon="15.46099">
        <ele>551</ele>
        <time>2016-07-27T17:49:58Z</time>
      </trkpt>
      <trkpt lat="44.99312" lon="15.46113">
        <ele>553</ele>
        <time>2016-07-27T17:51:58Z</time>
      </trkpt>
      <trkpt lat="44.9931" lon="15.46129">
        <ele>555</ele>
        <time>2016-07-27T17:53:58Z</time>
      </trkpt>
      <trkpt lat="44.99309" lon="15.46142">
        <ele>557</ele>
        <time>2016-07-27T17:55:58Z</time>
      </trkpt>
      <trkpt lat="44.99308" lon="15.46152">
        <ele>558</ele>
        <time>2016-07-27T17:57:58Z</time>
      </trkpt>
      <trkpt lat="44.99308" lon="15.46162">
        <ele>559</ele>
        <time>2016-07-27T17:59:58Z</time>
      </trkpt>
      <trkpt lat="44.99309" lon="15.46172">
        <ele>560</ele>
        <time>2016-07-27T18:01:58Z</time>
      </trkpt>
      <trkpt lat="44.9931" lon="15.4618">
        <ele>560</ele>
        <time>2016-07-27T18:03:58Z</time>
      </trkpt>
      <trkpt lat="44.99314" lon="15.46195">
        <ele>561</ele>
        <time>2016-07-27T18:05:58Z</time>
      </trkpt>
      <trkpt lat="44.99319" lon="15.46206">
        <ele>561</ele>
        <time>2016-07-27T18:07:58Z</time>
      </trkpt>
      <trkpt lat="44.99324" lon="15.46214">
        <ele>560</ele>
        <time>2016-07-27T18:09:58Z</time>
      </trkpt>
      <trkpt lat="44.99329" lon="15.46223">
        <ele>560</ele>
        <time>2016-07-27T18:11:58Z</time>
      </trkpt>
      <trkpt lat="44.99342" lon="15.46238">
        <ele>558</ele>
        <time>2016-07-27T18:13:58Z</time>
      </trkpt>
      <trkpt lat="44.99346" lon="15.46245">
        <ele>558</ele>
        <time>2016-07-27T18:15:58Z</time>
      </trkpt>
      <trkpt lat="44.99349" lon="15.46253">
        <ele>558</ele>
        <time>2016-07-27T18:17:58Z</time>
      </trkpt>
      <trkpt lat="44.99351" lon="15.46261">
        <ele>558</ele>
        <time>2016-07-27T18:19:58Z</time>
      </trkpt>
      <trkpt lat="44.99354" lon="15.46275">
        <ele>558</ele>
        <time>2016-07-27T18:21:58Z</time>
      </trkpt>
      <trkpt lat="44.99356" lon="15.46286">
        <ele>558</ele>
        <time>2016-07-27T18:23:58Z</time>
      </trkpt>
      <trkpt lat="44.99356" lon="15.463">
        <ele>559</ele>
        <time>2016-07-27T18:25:58Z</time>
      </trkpt>
      <trkpt lat="44.99356" lon="15.46319">
        <ele>560</ele>
        <time>2016-07-27T18:27:58Z</time>
      </trkpt>
      <trkpt lat="44.99354" lon="15.46338">
        <ele>561</ele>
        <time>2016-07-27T18:29:58Z</time>
      </trkpt>
      <trkpt lat="44.99352" lon="15.46349">
        <ele>562</ele>
        <time>2016-07-27T18:31:58Z</time>
      </trkpt>
      <trkpt lat="44.9935" lon="15.46357">
        <ele>563</ele>
        <time>2016-07-27T18:33:58Z</time>
      </trkpt>
      <trkpt lat="44.9935" lon="15.46364">
        <ele>563</ele>
        <time>2016-07-27T18:35:58Z</time>
      </trkpt>
      <trkpt lat="44.9935" lon="15.46371">
        <ele>564</ele>
        <time>2016-07-27T18:37:58Z</time>
      </trkpt>
      <trkpt lat="44.99351" lon="15.46381">
        <ele>564</ele>
        <time>2016-07-27T18:39:58Z</time>
      </trkpt>
      <trkpt lat="44.99353" lon="15.46392">
        <ele>564</ele>
        <time>2016-07-27T18:41:58Z</time>
      </trkpt>
      <trkpt lat="44.99355" lon="15.46401">
        <ele>563</ele>
        <time>2016-07-27T18:43:58Z</time>
      </trkpt>
      <trkpt lat="44.99363" lon="15.46425">
        <ele>563</ele>
        <time>2016-07-27T18:45:58Z</time>
      </trkpt>
      <trkpt lat="44.99368" lon="15.46442">
        <ele>562</ele>
        <time>2016-07-27T18:47:58Z</time>
      </trkpt>
      <trkpt lat="44.99369" lon="15.46452">
        <ele>562</ele>
        <time>2016-07-27T18:49:58Z</time>
      </trkpt>
      <trkpt lat="44.99371" lon="15.46463">
        <ele>562</ele>
        <time>2016-07-27T18:51:58Z</time>
      </trkpt>
      <trkpt lat="44.99371" lon="15.46476">
        <ele>563</ele>
        <time>2016-07-27T18:53:58Z</time>
      </trkpt>
      <trkpt lat="44.9937" lon="15.4649">
        <ele>564</ele>
        <time>2016-07-27T18:55:58Z</time>
      </trkpt>
      <trkpt lat="44.99369" lon="15.46501">
        <ele>564</ele>
        <time>2016-07-27T18:57:58Z</time>
      </trkpt>
      <trkpt lat="44.99365" lon="15.46522">
        <ele>565</ele>
        <time>2016-07-27T18:59:58Z</time>
      </trkpt>
      <trkpt lat="44.99349" lon="15.46575">
        <ele>567</ele>
        <time>2016-07-27T19:01:58Z</time>
      </trkpt>
      <trkpt lat="44.99343" lon="15.46597">
        <ele>569</ele>
        <time>2016-07-27T19:03:58Z</time>
      </trkpt>
      <trkpt lat="44.99341" lon="15.46605">
        <ele>570</ele>
        <time>2016-07-27T19:05:58Z</time>
      </trkpt>
      <trkpt lat="44.9934" lon="15.46613">
        <ele>570</ele>
        <time>2016-07-27T19:07:58Z</time>
      </trkpt>
      <trkpt lat="44.9934" lon="15.46621">
        <ele>570</ele>
        <time>2016-07-27T19:09:58Z</time>
      </trkpt>
      <trkpt lat="44.9934" lon="15.46635">
        <ele>571</ele>
        <time>2016-07-27T19:11:58Z</time>
      </trkpt>
      <trkpt lat="44.99341" lon="15.46647">
        <ele>571</ele>
        <time>2016-07-27T19:13:58Z</time>
      </trkpt>
      <trkpt lat="44.99343" lon="15.46682">
        <ele>571</ele>
        <time>2016-07-27T19:15:58Z</time>
      </trkpt>
      <trkpt lat="44.99344" lon="15.4671">
        <ele>570</ele>
        <time>2016-07-27T19:17:58Z</time>
      </trkpt>
      <trkpt lat="44.99342" lon="15.46732">
        <ele>571</ele>
        <time>2016-07-27T19:19:58Z</time>
      </trkpt>
      <trkpt lat="44.99341" lon="15.4674">
        <ele>571</ele>
        <time>2016-07-27T19:21:58Z</time>
      </trkpt>
      <trkpt lat="44.99337" lon="15.4675">
        <ele>573</ele>
        <time>2016-07-27T19:23:58Z</time>
      </trkpt>
      <trkpt lat="44.99333" lon="15.4676">
        <ele>573</ele>
        <time>2016-07-27T19:25:58Z</time>
      </trkpt>
      <trkpt lat="44.99328" lon="15.46771">
        <ele>573</ele>
        <time>2016-07-27T19:27:58Z</time>
      </trkpt>
      <trkpt lat="44.99318" lon="15.4679">
        <ele>573</ele>
        <time>2016-07-27T19:29:58Z</time>
      </trkpt>
      <trkpt lat="44.99311" lon="15.46799">
        <ele>574</ele>
        <time>2016-07-27T19:31:58Z</time>
      </trkpt>
      <trkpt lat="44.99295" lon="15.46814">
        <ele>574</ele>
        <time>2016-07-27T19:33:58Z</time>
      </trkpt>
      <trkpt lat="44.9928" lon="15.46822">
        <ele>576</ele>
        <time>2016-07-27T19:35:58Z</time>
      </trkpt>
      <trkpt lat="44.99268" lon="15.46825">
        <ele>577</ele>
        <time>2016-07-27T19:37:58Z</time>
      </trkpt>
      <trkpt lat="44.99258" lon="15.46827">
        <ele>578</ele>
        <time>2016-07-27T19:39:58Z</time>
      </trkpt>
      <trkpt lat="44.99249" lon="15.46827">
        <ele>579</ele>
        <time>2016-07-27T19:41:58Z</time>
      </trkpt>
      <trkpt lat="44.9924" lon="15.46825">
        <ele>579</ele>
        <time>2016-07-27T19:43:58Z</time>
      </trkpt>
      <trkpt lat="44.99233" lon="15.46823">
        <ele>580</ele>
        <time>2016-07-27T19:45:58Z</time>
      </trkpt>
      <trkpt lat="44.99224" lon="15.46819">
        <ele>580</ele>
        <time>2016-07-27T19:47:58Z</time>
      </trkpt>
      <trkpt lat="44.99214" lon="15.46816">
        <ele>581</ele>
        <time>2016-07-27T19:49:58Z</time>
      </trkpt>
      <trkpt lat="44.99179" lon="15.46804">
        <ele>584</ele>
        <time>2016-07-27T19:51:58Z</time>
      </trkpt>
      <trkpt lat="44.99165" lon="15.468">
        <ele>585</ele>
        <time>2016-07-27T19:53:58Z</time>
      </trkpt>
      <trkpt lat="44.99146" lon="15.46798">
        <ele>586</ele>
        <time>2016-07-27T19:55:58Z</time>
      </trkpt>
      <trkpt lat="44.99084" lon="15.46792">
        <ele>590</ele>
        <time>2016-07-27T19:57:58Z</time>
      </trkpt>
      <trkpt lat="44.99071" lon="15.46789">
        <ele>590</ele>
        <time>2016-07-27T19:59:58Z</time>
      </trkpt>
      <trkpt lat="44.99069" lon="15.46788">
        <ele>590</ele>
        <time>2016-07-27T20:01:58Z</time>
      </trkpt>
      <trkpt lat="44.99063" lon="15.46785">
        <ele>590</ele>
        <time>2016-07-27T20:03:58Z</time>
      </trkpt>
      <trkpt lat="44.99056" lon="15.46782">
        <ele>590</ele>
        <time>2016-07-27T20:05:58Z</time>
      </trkpt>
      <trkpt lat="44.99045" lon="15.46775">
        <ele>590</ele>
        <time>2016-07-27T20:07:58Z</time>
      </trkpt>
      <trkpt lat="44.99037" lon="15.46768">
        <ele>590</ele>
        <time>2016-07-27T20:09:58Z</time>
      </trkpt>
      <trkpt lat="44.99028" lon="15.46762">
        <ele>590</ele>
        <time>2016-07-27T20:11:58Z</time>
      </trkpt>
      <trkpt lat="44.99016" lon="15.46754">
        <ele>591</ele>
        <time>2016-07-27T20:13:58Z</time>
      </trkpt>
      <trkpt lat="44.99006" lon="15.46747">
        <ele>591</ele>
        <time>2016-07-27T20:15:58Z</time>
      </trkpt>
      <trkpt lat="44.98999" lon="15.46745">
        <ele>591</ele>
        <time>2016-07-27T20:17:58Z</time>
      </trkpt>
      <trkpt lat="44.98994" lon="15.46744">
        <ele>591</ele>
        <time>2016-07-27T20:19:58Z</time>
      </trkpt>
      <trkpt lat="44.98993" lon="15.46744">
        <ele>591</ele>
        <time>2016-07-27T20:21:58Z</time>
      </trkpt>
      <trkpt lat="44.98989" lon="15.46744">
        <ele>591</ele>
        <time>2016-07-27T20:23:58Z</time>
      </trkpt>
      <trkpt lat="44.98983" lon="15.46745">
        <ele>590</ele>
        <time>2016-07-27T20:25:58Z</time>
      </trkpt>
      <trkpt lat="44.98979" lon="15.46747">
        <ele>590</ele>
        <time>2016-07-27T20:27:58Z</time>
      </trkpt>
      <trkpt lat="44.98975" lon="15.46749">
        <ele>590</ele>
        <time>2016-07-27T20:29:58Z</time>
      </trkpt>
      <trkpt lat="44.98969" lon="15.46754">
        <ele>589</ele>
        <time>2016-07-27T20:31:58Z</time>
      </trkpt>
      <trkpt lat="44.98885" lon="15.46828">
        <ele>586</ele>
        <time>2016-07-27T20:33:58Z</time>
      </trkpt>
      <trkpt lat="44.98828" lon="15.46874">
        <ele>589</ele>
        <time>2016-07-27T20:35:58Z</time>
      </trkpt>
      <trkpt lat="44.98814" lon="15.46883">
        <ele>589</ele>
        <time>2016-07-27T20:37:58Z</time>
      </trkpt>
      <trkpt lat="44.98811" lon="15.46884">
        <ele>589</ele>
        <time>2016-07-27T20:39:58Z</time>
      </trkpt>
      <trkpt lat="44.98807" lon="15.46885">
        <ele>589</ele>
        <time>2016-07-27T20:41:58Z</time>
      </trkpt>
      <trkpt lat="44.988" lon="15.46886">
        <ele>589</ele>
        <time>2016-07-27T20:43:58Z</time>
      </trkpt>
      <trkpt lat="44.98791" lon="15.46885">
        <ele>589</ele>
        <time>2016-07-27T20:45:58Z</time>
      </trkpt>
      <trkpt lat="44.98732" lon="15.46873">
        <ele>589</ele>
        <time>2016-07-27T20:47:58Z</time>
      </trkpt>
      <trkpt lat="44.98721" lon="15.46872">
        <ele>589</ele>
        <time>2016-07-27T20:49:58Z</time>
      </trkpt>
      <trkpt lat="44.98714" lon="15.46872">
        <ele>589</ele>
        <time>2016-07-27T20:51:58Z</time>
      </trkpt>
      <trkpt lat="44.98707" lon="15.46872">
        <ele>589</ele>
        <time>2016-07-27T20:53:58Z</time>
      </trkpt>
      <trkpt lat="44.98703" lon="15.46873">
        <ele>589</ele>
        <time>2016-07-27T20:55:58Z</time>
      </trkpt>
      <trkpt lat="44.98694" lon="15.46875">
        <ele>590</ele>
        <time>2016-07-27T20:57:58Z</time>
      </trkpt>
      <trkpt lat="44.98686" lon="15.46878">
        <ele>590</ele>
        <time>2016-07-27T20:59:58Z</time>
      </trkpt>
      <trkpt lat="44.98667" lon="15.46891">
        <ele>590</ele>
        <time>2016-07-27T21:01:58Z</time>
      </trkpt>
      <trkpt lat="44.98639" lon="15.46911">
        <ele>592</ele>
        <time>2016-07-27T21:03:58Z</time>
      </trkpt>
      <trkpt lat="44.98617" lon="15.46924">
        <ele>593</ele>
        <time>2016-07-27T21:05:58Z</time>
      </trkpt>
      <trkpt lat="44.98608" lon="15.46931">
        <ele>594</ele>
        <time>2016-07-27T21:07:58Z</time>
      </trkpt>
      <trkpt lat="44.98595" lon="15.46942">
        <ele>594</ele>
        <time>2016-07-27T21:09:58Z</time>
      </trkpt>
      <trkpt lat="44.98591" lon="15.46947">
        <ele>595</ele>
        <time>2016-07-27T21:11:58Z</time>
      </trkpt>
      <trkpt lat="44.98589" lon="15.4695">
        <ele>595</ele>
        <time>2016-07-27T21:13:58Z</time>
      </trkpt>
      <trkpt lat="44.98587" lon="15.46955">
        <ele>595</ele>
        <time>2016-07-27T21:15:58Z</time>
      </trkpt>
      <trkpt lat="44.98565" lon="15.47022">
        <ele>595</ele>
        <time>2016-07-27T21:17:58Z</time>
      </trkpt>
      <trkpt lat="44.98543" lon="15.47098">
        <ele>596</ele>
        <time>2016-07-27T21:19:58Z</time>
      </trkpt>
      <trkpt lat="44.98529" lon="15.47143">
        <ele>596</ele>
        <time>2016-07-27T21:21:58Z</time>
      </trkpt>
      <trkpt lat="44.98524" lon="15.47159">
        <ele>596</ele>
        <time>2016-07-27T21:23:58Z</time>
      </trkpt>
      <trkpt lat="44.98523" lon="15.47162">
        <ele>596</ele>
        <time>2016-07-27T21:25:58Z</time>
      </trkpt>
      <trkpt lat="44.98519" lon="15.47173">
        <ele>597</ele>
        <time>2016-07-27T21:27:58Z</time>
      </trkpt>
      <trkpt lat="44.98516" lon="15.4718">
        <ele>597</ele>
        <time>2016-07-27T21:29:58Z</time>
      </trkpt>
      <trkpt lat="44.98512" lon="15.47185">
        <ele>597</ele>
        <time>2016-07-27T21:31:58Z</time>
      </trkpt>
      <trkpt lat="44.9851" lon="15.47188">
        <ele>597</ele>
        <time>2016-07-27T21:33:58Z</time>
      </trkpt>
      <trkpt lat="44.98499" lon="15.47203">
        <ele>597</ele>
        <time>2016-07-27T21:35:58Z</time>
      </trkpt>
      <trkpt lat="44.98489" lon="15.47217">
        <ele>597</ele>
        <time>2016-07-27T21:37:58Z</time>
      </trkpt>
      <trkpt lat="44.98483" lon="15.47225">
        <ele>597</ele>
        <time>2016-07-27T21:39:58Z</time>
      </trkpt>
      <trkpt lat="44.98482" lon="15.47227">
        <ele>597</ele>
        <time>2016-07-27T21:41:58Z</time>
      </trkpt>
      <trkpt lat="44.98477" lon="15.47235">
        <ele>597</ele>
        <time>2016-07-27T21:43:58Z</time>
      </trkpt>
      <trkpt lat="44.98463" lon="15.47262">
        <ele>597</ele>
        <time>2016-07-27T21:45:58Z</time>
      </trkpt>
      <trkpt lat="44.98458" lon="15.47276">
        <ele>597</ele>
        <time>2016-07-27T21:47:58Z</time>
      </trkpt>
      <trkpt lat="44.9845" lon="15.47294">
        <ele>598</ele>
        <time>2016-07-27T21:49:58Z</time>
      </trkpt>
      <trkpt lat="44.98434" lon="15.47343">
        <ele>599</ele>
        <time>2016-07-27T21:51:58Z</time>
      </trkpt>
      <trkpt lat="44.98422" lon="15.47395">
        <ele>603</ele>
        <time>2016-07-27T21:53:58Z</time>
      </trkpt>
      <trkpt lat="44.98417" lon="15.47425">
        <ele>605</ele>
        <time>2016-07-27T21:55:58Z</time>
      </trkpt>
      <trkpt lat="44.98407" lon="15.47477">
        <ele>607</ele>
        <time>2016-07-27T21:57:58Z</time>
      </trkpt>
      <trkpt lat="44.98398" lon="15.4755">
        <ele>607</ele>
        <time>2016-07-27T21:59:58Z</time>
      </trkpt>
      <trkpt lat="44.98394" lon="15.47601">
        <ele>606</ele>
        <time>2016-07-27T22:01:58Z</time>
      </trkpt>
      <trkpt lat="44.98394" lon="15.47605">
        <ele>606</ele>
        <time>2016-07-27T22:03:58Z</time>
      </trkpt>
      <trkpt lat="44.9839" lon="15.47667">
        <ele>606</ele>
        <time>2016-07-27T22:05:58Z</time>
      </trkpt>
      <trkpt lat="44.98387" lon="15.47694">
        <ele>607</ele>
        <time>2016-07-27T22:07:58Z</time>
      </trkpt>
      <trkpt lat="44.98387" lon="15.47701">
        <ele>607</ele>
        <time>2016-07-27T22:09:58Z</time>
      </trkpt>
      <trkpt lat="44.98383" lon="15.4773">
        <ele>607</ele>
        <time>2016-07-27T22:11:58Z</time>
      </trkpt>
      <trkpt lat="44.98381" lon="15.47756">
        <ele>608</ele>
        <time>2016-07-27T22:13:58Z</time>
      </trkpt>
      <trkpt lat="44.98374" lon="15.47801">
        <ele>610</ele>
        <time>2016-07-27T22:15:58Z</time>
      </trkpt>
      <trkpt lat="44.98374" lon="15.47805">
        <ele>610</ele>
        <time>2016-07-27T22:17:58Z</time>
      </trkpt>
      <trkpt lat="44.98372" lon="15.4782">
        <ele>610</ele>
        <time>2016-07-27T22:19:58Z</time>
      </trkpt>
      <trkpt lat="44.98368" lon="15.47834">
        <ele>611</ele>
        <time>2016-07-27T22:21:58Z</time>
      </trkpt>
      <trkpt lat="44.98364" lon="15.47843">
        <ele>611</ele>
        <time>2016-07-27T22:23:58Z</time>
      </trkpt>
      <trkpt lat="44.98363" lon="15.47845">
        <ele>611</ele>
        <time>2016-07-27T22:25:58Z</time>
      </trkpt>
      <trkpt lat="44.98359" lon="15.47855">
        <ele>612</ele>
        <time>2016-07-27T22:27:58Z</time>
      </trkpt>
      <trkpt lat="44.98353" lon="15.47869">
        <ele>612</ele>
        <time>2016-07-27T22:29:58Z</time>
      </trkpt>
      <trkpt lat="44.98339" lon="15.47903">
        <ele>613</ele>
        <time>2016-07-27T22:31:58Z</time>
      </trkpt>
      <trkpt lat="44.9829" lon="15.48031">
        <ele>616</ele>
        <time>2016-07-27T22:33:58Z</time>
      </trkpt>
      <trkpt lat="44.98268" lon="15.48085">
        <ele>618</ele>
        <time>2016-07-27T22:35:58Z</time>
      </trkpt>
      <trkpt lat="44.98262" lon="15.481">
        <ele>619</ele>
        <time>2016-07-27T22:37:58Z</time>
      </trkpt>
      <trkpt lat="44.98248" lon="15.48136">
        <ele>620</ele>
        <time>2016-07-27T22:39:58Z</time>
      </trkpt>
      <trkpt lat="44.98213" lon="15.48226">
        <ele>621</ele>
        <time>2016-07-27T22:41:58Z</time>
      </trkpt>
      <trkpt lat="44.9821" lon="15.48232">
        <ele>621</ele>
        <time>2016-07-27T22:43:58Z</time>
      </trkpt>
      <trkpt lat="44.98198" lon="15.48268">
        <ele>621</ele>
        <time>2016-07-27T22:45:58Z</time>
      </trkpt>
      <trkpt lat="44.9818" lon="15.48325">
        <ele>622</ele>
        <time>2016-07-27T22:47:58Z</time>
      </trkpt>
      <trkpt lat="44.98178" lon="15.48329">
        <ele>622</ele>
        <time>2016-07-27T22:49:58Z</time>
      </trkpt>
      <trkpt lat="44.98171" lon="15.48352">
        <ele>622</ele>
        <time>2016-07-27T22:51:58Z</time>
      </trkpt>
      <trkpt lat="44.98154" lon="15.48406">
        <ele>622</ele>
        <time>2016-07-27T22:53:58Z</time>
      </trkpt>
      <trkpt lat="44.98142" lon="15.48445">
        <ele>622</ele>
        <time>2016-07-27T22:55:58Z</time>
      </trkpt>
      <trkpt lat="44.98137" lon="15.48462">
        <ele>623</ele>
        <time>2016-07-27T22:57:58Z</time>
      </trkpt>
      <trkpt lat="44.98104" lon="15.48575">
        <ele>625</ele>
        <time>2016-07-27T22:59:58Z</time>
      </trkpt>
      <trkpt lat="44.9808" lon="15.48658">
        <ele>627</ele>
        <time>2016-07-27T23:01:58Z</time>
      </trkpt>
      <trkpt lat="44.98079" lon="15.48661">
        <ele>627</ele>
        <time>2016-07-27T23:03:58Z</time>
      </trkpt>
      <trkpt lat="44.9807" lon="15.48684">
        <ele>627</ele>
        <time>2016-07-27T23:05:58Z</time>
      </trkpt>
      <trkpt lat="44.98061" lon="15.48711">
        <ele>628</ele>
        <time>2016-07-27T23:07:58Z</time>
      </trkpt>
      <trkpt lat="44.9805" lon="15.4874">
        <ele>628</ele>
        <time>2016-07-27T23:09:58Z</time>
      </trkpt>
      <trkpt lat="44.98043" lon="15.48754">
        <ele>629</ele>
        <time>2016-07-27T23:11:58Z</time>
      </trkpt>
      <trkpt lat="44.98026" lon="15.48784">
        <ele>630</ele>
        <time>2016-07-27T23:13:58Z</time>
      </trkpt>
      <trkpt lat="44.98018" lon="15.48799">
        <ele>630</ele>
        <time>2016-07-27T23:15:58Z</time>
      </trkpt>
      <trkpt lat="44.98012" lon="15.48807">
        <ele>630</ele>
        <time>2016-07-27T23:17:58Z</time>
      </trkpt>
      <trkpt lat="44.97977" lon="15.48858">
        <ele>632</ele>
        <time>2016-07-27T23:19:58Z</time>
      </trkpt>
      <trkpt lat="44.97933" lon="15.48921">
        <ele>632</ele>
        <time>2016-07-27T23:21:58Z</time>
      </trkpt>
      <trkpt lat="44.97876" lon="15.49006">
        <ele>636</ele>
        <time>2016-07-27T23:23:58Z</time>
      </trkpt>
      <trkpt lat="44.97873" lon="15.49009">
        <ele>637</ele>
        <time>2016-07-27T23:25:58Z</time>
      </trkpt>
      <trkpt lat="44.97857" lon="15.49034">
        <ele>637</ele>
        <time>2016-07-27T23:27:58Z</time>
      </trkpt>
      <trkpt lat="44.97849" lon="15.49048">
        <ele>637</ele>
        <time>2016-07-27T23:29:58Z</time>
      </trkpt>
      <trkpt lat="44.97839" lon="15.4907">
        <ele>637</ele>
        <time>2016-07-27T23:31:58Z</time>
      </trkpt>
      <trkpt lat="44.97822" lon="15.4911">
        <ele>637</ele>
        <time>2016-07-27T23:33:58Z</time>
      </trkpt>
      <trkpt lat="44.978" lon="15.49157">
        <ele>638</ele>
        <time>2016-07-27T23:35:58Z</time>
      </trkpt>
      <trkpt lat="44.97784" lon="15.49185">
        <ele>639</ele>
        <time>2016-07-27T23:37:58Z</time>
      </trkpt>
      <trkpt lat="44.97783" lon="15.49187">
        <ele>640</ele>
        <time>2016-07-27T23:39:58Z</time>
      </trkpt>
      <trkpt lat="44.97774" lon="15.49204">
        <ele>640</ele>
        <time>2016-07-27T23:41:58Z</time>
      </trkpt>
      <trkpt lat="44.9777" lon="15.49211">
        <ele>641</ele>
        <time>2016-07-27T23:43:58Z</time>
      </trkpt>
      <trkpt lat="44.97769" lon="15.49215">
        <ele>641</ele>
        <time>2016-07-27T23:45:58Z</time>
      </trkpt>
      <trkpt lat="44.97765" lon="15.49224">
        <ele>641</ele>
        <time>2016-07-27T23:47:58Z</time>
      </trkpt>
      <trkpt lat="44.97763" lon="15.49231">
        <ele>642</ele>
        <time>2016-07-27T23:49:58Z</time>
      </trkpt>
      <trkpt lat="44.97763" lon="15.49233">
        <ele>642</ele>
        <time>2016-07-27T23:51:58Z</time>
      </trkpt>
      <trkpt lat="44.97762" lon="15.49234">
        <ele>642</ele>
        <time>2016-07-27T23:53:58Z</time>
      </trkpt>
      <trkpt lat="44.97761" lon="15.4924">
        <ele>642</ele>
        <time>2016-07-27T23:55:58Z</time>
      </trkpt>
      <trkpt lat="44.97761" lon="15.49245">
        <ele>642</ele>
        <time>2016-07-27T23:57:58Z</time>
      </trkpt>
      <trkpt lat="44.9776" lon="15.49249">
        <ele>642</ele>
        <time>2016-07-27T23:59:58Z</time>
      </trkpt>
      <trkpt lat="44.9776" lon="15.49256">
        <ele>642</ele>
        <time>2016-07-28T00:01:58Z</time>
      </trkpt>
      <trkpt lat="44.97759" lon="15.49284">
        <ele>642</ele>
        <time>2016-07-28T00:03:58Z</time>
      </trkpt>
      <trkpt lat="44.97758" lon="15.49303">
        <ele>642</ele>
        <time>2016-07-28T00:05:58Z</time>
      </trkpt>
      <trkpt lat="44.97756" lon="15.4934">
        <ele>642</ele>
        <time>2016-07-28T00:07:58Z</time>
      </trkpt>
      <trkpt lat="44.97753" lon="15.49395">
        <ele>640</ele>
        <time>2016-07-28T00:09:58Z</time>
      </trkpt>
      <trkpt lat="44.97749" lon="15.49422">
        <ele>640</ele>
        <time>2016-07-28T00:11:58Z</time>
      </trkpt>
      <trkpt lat="44.97748" lon="15.49428">
        <ele>640</ele>
        <time>2016-07-28T00:13:58Z</time>
      </trkpt>
      <trkpt lat="44.97747" lon="15.49434">
        <ele>640</ele>
        <time>2016-07-28T00:15:58Z</time>
      </trkpt>
      <trkpt lat="44.97746" lon="15.49438">
        <ele>640</ele>
        <time>2016-07-28T00:17:58Z</time>
      </trkpt>
      <trkpt lat="44.97742" lon="15.49455">
        <ele>640</ele>
        <time>2016-07-28T00:19:58Z</time>
      </trkpt>
      <trkpt lat="44.97734" lon="15.49476">
        <ele>640</ele>
        <time>2016-07-28T00:21:58Z</time>
      </trkpt>
      <trkpt lat="44.9773" lon="15.49486">
        <ele>640</ele>
        <time>2016-07-28T00:23:58Z</time>
      </trkpt>
      <trkpt lat="44.97709" lon="15.49536">
        <ele>641</ele>
        <time>2016-07-28T00:25:58Z</time>
      </trkpt>
      <trkpt lat="44.97686" lon="15.49596">
        <ele>642</ele>
        <time>2016-07-28T00:27:58Z</time>
      </trkpt>
      <trkpt lat="44.97685" lon="15.49598">
        <ele>642</ele>
        <time>2016-07-28T00:29:58Z</time>
      </trkpt>
      <trkpt lat="44.97672" lon="15.49628">
        <ele>642</ele>
        <time>2016-07-28T00:31:58Z</time>
      </trkpt>
      <trkpt lat="44.97667" lon="15.4964">
        <ele>642</ele>
        <time>2016-07-28T00:33:58Z</time>
      </trkpt>
      <trkpt lat="44.97661" lon="15.49651">
        <ele>642</ele>
        <time>2016-07-28T00:35:58Z</time>
      </trkpt>
      <trkpt lat="44.97655" lon="15.49661">
        <ele>642</ele>
        <time>2016-07-28T00:37:58Z</time>
      </trkpt>
      <trkpt lat="44.9765" lon="15.49666">
        <ele>643</ele>
        <time>2016-07-28T00:39:58Z</time>
      </trkpt>
      <trkpt lat="44.97645" lon="15.49671">
        <ele>643</ele>
        <time>2016-07-28T00:41:58Z</time>
      </trkpt>
      <trkpt lat="44.97621" lon="15.4969">
        <ele>644</ele>
        <time>2016-07-28T00:43:58Z</time>
      </trkpt>
      <trkpt lat="44.97594" lon="15.49712">
        <ele>646</ele>
        <time>2016-07-28T00:45:58Z</time>
      </trkpt>
      <trkpt lat="44.9758" lon="15.49727">
        <ele>647</ele>
        <time>2016-07-28T00:47:58Z</time>
      </trkpt>
      <trkpt lat="44.97549" lon="15.49761">
        <ele>648</ele>
        <time>2016-07-28T00:49:58Z</time>
      </trkpt>
      <trkpt lat="44.97498" lon="15.49816">
        <ele>651</ele>
        <time>2016-07-28T00:51:58Z</time>
      </trkpt>
      <trkpt lat="44.97459" lon="15.49856">
        <ele>652</ele>
        <time>2016-07-28T00:53:58Z</time>
      </trkpt>
      <trkpt lat="44.97457" lon="15.49859">
        <ele>652</ele>
        <time>2016-07-28T00:55:58Z</time>
      </trkpt>
      <trkpt lat="44.97442" lon="15.49877">
        <ele>652</ele>
        <time>2016-07-28T00:57:58Z</time>
      </trkpt>
      <trkpt lat="44.97436" lon="15.49886">
        <ele>653</ele>
        <time>2016-07-28T00:59:58Z</time>
      </trkpt>
      <trkpt lat="44.97428" lon="15.49901">
        <ele>653</ele>
        <time>2016-07-28T01:01:58Z</time>
      </trkpt>
      <trkpt lat="44.97422" lon="15.49912">
        <ele>654</ele>
        <time>2016-07-28T01:03:58Z</time>
      </trkpt>
      <trkpt lat="44.97416" lon="15.4992">
        <ele>654</ele>
        <time>2016-07-28T01:05:58Z</time>
      </trkpt>
      <trkpt lat="44.9741" lon="15.49927">
        <ele>654</ele>
        <time>2016-07-28T01:07:58Z</time>
      </trkpt>
      <trkpt lat="44.97405" lon="15.49933">
        <ele>654</ele>
        <time>2016-07-28T01:09:58Z</time>
      </trkpt>
      <trkpt lat="44.97392" lon="15.49946">
        <ele>655</ele>
        <time>2016-07-28T01:11:58Z</time>
      </trkpt>
      <trkpt lat="44.9738" lon="15.49955">
        <ele>655</ele>
        <time>2016-07-28T01:13:58Z</time>
      </trkpt>
      <trkpt lat="44.97374" lon="15.49959">
        <ele>656</ele>
        <time>2016-07-28T01:15:58Z</time>
      </trkpt>
      <trkpt lat="44.9737" lon="15.49963">
        <ele>656</ele>
        <time>2016-07-28T01:17:58Z</time>
      </trkpt>
      <trkpt lat="44.97366" lon="15.49969">
        <ele>656</ele>
        <time>2016-07-28T01:19:58Z</time>
      </trkpt>
      <trkpt lat="44.97297" lon="15.50078">
        <ele>658</ele>
        <time>2016-07-28T01:21:58Z</time>
      </trkpt>
      <trkpt lat="44.97285" lon="15.50099">
        <ele>659</ele>
        <time>2016-07-28T01:23:58Z</time>
      </trkpt>
      <trkpt lat="44.97249" lon="15.50156">
        <ele>661</ele>
        <time>2016-07-28T01:25:58Z</time>
      </trkpt>
      <trkpt lat="44.97238" lon="15.50173">
        <ele>661</ele>
        <time>2016-07-28T01:27:58Z</time>
      </trkpt>
      <trkpt lat="44.97215" lon="15.50209">
        <ele>659</ele>
        <time>2016-07-28T01:29:58Z</time>
      </trkpt>
      <trkpt lat="44.97199" lon="15.50235">
        <ele>658</ele>
        <time>2016-07-28T01:31:58Z</time>
      </trkpt>
      <trkpt lat="44.97178" lon="15.50278">
        <ele>658</ele>
        <time>2016-07-28T01:33:58Z</time>
      </trkpt>
      <trkpt lat="44.97172" lon="15.50292">
        <ele>657</ele>
        <time>2016-07-28T01:35:58Z</time>
      </trkpt>
      <trkpt lat="44.97166" lon="15.50306">
        <ele>657</ele>
        <time>2016-07-28T01:37:58Z</time>
      </trkpt>
      <trkpt lat="44.97151" lon="15.50345">
        <ele>656</ele>
        <time>2016-07-28T01:39:58Z</time>
      </trkpt>
      <trkpt lat="44.9714" lon="15.50394">
        <ele>656</ele>
        <time>2016-07-28T01:41:58Z</time>
      </trkpt>
      <trkpt lat="44.9713" lon="15.50432">
        <ele>656</ele>
        <time>2016-07-28T01:43:58Z</time>
      </trkpt>
      <trkpt lat="44.97122" lon="15.5047">
        <ele>656</ele>
        <time>2016-07-28T01:45:58Z</time>
      </trkpt>
      <trkpt lat="44.97108" lon="15.50531">
        <ele>656</ele>
        <time>2016-07-28T01:47:58Z</time>
      </trkpt>
      <trkpt lat="44.97089" lon="15.5061">
        <ele>658</ele>
        <time>2016-07-28T01:49:58Z</time>
      </trkpt>
      <trkpt lat="44.9708" lon="15.5064">
        <ele>659</ele>
        <time>2016-07-28T01:51:58Z</time>
      </trkpt>
      <trkpt lat="44.97058" lon="15.50708">
        <ele>660</ele>
        <time>2016-07-28T01:53:58Z</time>
      </trkpt>
      <trkpt lat="44.97019" lon="15.50813">
        <ele>662</ele>
        <time>2016-07-28T01:55:58Z</time>
      </trkpt>
      <trkpt lat="44.96977" lon="15.50933">
        <ele>667</ele>
        <time>2016-07-28T01:57:58Z</time>
      </trkpt>
      <trkpt lat="44.9693" lon="15.51062">
        <ele>672</ele>
        <time>2016-07-28T01:59:58Z</time>
      </trkpt>
      <trkpt lat="44.9691" lon="15.51117">
        <ele>673</ele>
        <time>2016-07-28T02:01:58Z</time>
      </trkpt>
      <trkpt lat="44.96904" lon="15.51134">
        <ele>674</ele>
        <time>2016-07-28T02:03:58Z</time>
      </trkpt>
      <trkpt lat="44.969" lon="15.51145">
        <ele>675</ele>
        <time>2016-07-28T02:05:58Z</time>
      </trkpt>
      <trkpt lat="44.96895" lon="15.51158">
        <ele>675</ele>
        <time>2016-07-28T02:07:58Z</time>
      </trkpt>
      <trkpt lat="44.96892" lon="15.51173">
        <ele>676</ele>
        <time>2016-07-28T02:09:58Z</time>
      </trkpt>
      <trkpt lat="44.9689" lon="15.51191">
        <ele>677</ele>
        <time>2016-07-28T02:11:58Z</time>
      </trkpt>
      <trkpt lat="44.96889" lon="15.51201">
        <ele>677</ele>
        <time>2016-07-28T02:13:58Z</time>
      </trkpt>
      <trkpt lat="44.96889" lon="15.51211">
        <ele>677</ele>
        <time>2016-07-28T02:15:58Z</time>
      </trkpt>
      <trkpt lat="44.96889" lon="15.5122">
        <ele>678</ele>
        <time>2016-07-28T02:17:58Z</time>
      </trkpt>
      <trkpt lat="44.96887" lon="15.51231">
        <ele>678</ele>
        <time>2016-07-28T02:19:58Z</time>
      </trkpt>
      <trkpt lat="44.96884" lon="15.51242">
        <ele>679</ele>
        <time>2016-07-28T02:21:58Z</time>
      </trkpt>
      <trkpt lat="44.96881" lon="15.5125">
        <ele>679</ele>
        <time>2016-07-28T02:23:58Z</time>
      </trkpt>
      <trkpt lat="44.96874" lon="15.51265">
        <ele>680</ele>
        <time>2016-07-28T02:25:58Z</time>
      </trkpt>
      <trkpt lat="44.96864" lon="15.5128">
        <ele>680</ele>
        <time>2016-07-28T02:27:58Z</time>
      </trkpt>
      <trkpt lat="44.96833" lon="15.51314">
        <ele>679</ele>
        <time>2016-07-28T02:29:58Z</time>
      </trkpt>
      <trkpt lat="44.96822" lon="15.51323">
        <ele>680</ele>
        <time>2016-07-28T02:31:58Z</time>
      </trkpt>
      <trkpt lat="44.96816" lon="15.5133">
        <ele>680</ele>
        <time>2016-07-28T02:33:58Z</time>
      </trkpt>
      <trkpt lat="44.96811" lon="15.51336">
        <ele>681</ele>
        <time>2016-07-28T02:35:58Z</time>
      </trkpt>
      <trkpt lat="44.96806" lon="15.51342">
        <ele>681</ele>
        <time>2016-07-28T02:37:58Z</time>
      </trkpt>
      <trkpt lat="44.96802" lon="15.51348">
        <ele>682</ele>
        <time>2016-07-28T02:39:58Z</time>
      </trkpt>
      <trkpt lat="44.96797" lon="15.51355">
        <ele>682</ele>
        <time>2016-07-28T02:41:58Z</time>
      </trkpt>
      <trkpt lat="44.96794" lon="15.51362">
        <ele>683</ele>
        <time>2016-07-28T02:43:58Z</time>
      </trkpt>
      <trkpt lat="44.96792" lon="15.51373">
        <ele>683</ele>
        <time>2016-07-28T02:45:58Z</time>
      </trkpt>
      <trkpt lat="44.96789" lon="15.51389">
        <ele>684</ele>
        <time>2016-07-28T02:47:58Z</time>
      </trkpt>
      <trkpt lat="44.96782" lon="15.51428">
        <ele>685</ele>
        <time>2016-07-28T02:49:58Z</time>
      </trkpt>
      <trkpt lat="44.96778" lon="15.51481">
        <ele>685</ele>
        <time>2016-07-28T02:51:58Z</time>
      </trkpt>
      <trkpt lat="44.96772" lon="15.51518">
        <ele>684</ele>
        <time>2016-07-28T02:53:58Z</time>
      </trkpt>
      <trkpt lat="44.96769" lon="15.51531">
        <ele>684</ele>
        <time>2016-07-28T02:55:58Z</time>
      </trkpt>
      <trkpt lat="44.96766" lon="15.5154">
        <ele>683</ele>
        <time>2016-07-28T02:57:58Z</time>
      </trkpt>
      <trkpt lat="44.96763" lon="15.51548">
        <ele>683</ele>
        <time>2016-07-28T02:59:58Z</time>
      </trkpt>
      <trkpt lat="44.96753" lon="15.5158">
        <ele>681</ele>
        <time>2016-07-28T03:01:58Z</time>
      </trkpt>
      <trkpt lat="44.96748" lon="15.51587">
        <ele>682</ele>
        <time>2016-07-28T03:03:58Z</time>
      </trkpt>
      <trkpt lat="44.96739" lon="15.51598">
        <ele>684</ele>
        <time>2016-07-28T03:05:58Z</time>
      </trkpt>
      <trkpt lat="44.9673" lon="15.51613">
        <ele>687</ele>
        <time>2016-07-28T03:07:58Z</time>
      </trkpt>
      <trkpt lat="44.96724" lon="15.51625">
        <ele>688</ele>
        <time>2016-07-28T03:09:58Z</time>
      </trkpt>
      <trkpt lat="44.96721" lon="15.51635">
        <ele>689</ele>
        <time>2016-07-28T03:11:58Z</time>
      </trkpt>
      <trkpt lat="44.96718" lon="15.51649">
        <ele>690</ele>
        <time>2016-07-28T03:13:58Z</time>
      </trkpt>
      <trkpt lat="44.96717" lon="15.51674">
        <ele>691</ele>
        <time>2016-07-28T03:15:58Z</time>
      </trkpt>
      <trkpt lat="44.96716" lon="15.517">
        <ele>691</ele>
        <time>2016-07-28T03:17:58Z</time>
      </trkpt>
      <trkpt lat="44.96717" lon="15.51747">
        <ele>691</ele>
        <time>2016-07-28T03:19:58Z</time>
      </trkpt>
      <trkpt lat="44.96717" lon="15.51751">
        <ele>691</ele>
        <time>2016-07-28T03:21:58Z</time>
      </trkpt>
      <trkpt lat="44.96716" lon="15.51773">
        <ele>691</ele>
        <time>2016-07-28T03:23:58Z</time>
      </trkpt>
      <trkpt lat="44.96713" lon="15.51789">
        <ele>691</ele>
        <time>2016-07-28T03:25:58Z</time>
      </trkpt>
      <trkpt lat="44.96709" lon="15.51807">
        <ele>691</ele>
        <time>2016-07-28T03:27:58Z</time>
      </trkpt>
      <trkpt lat="44.96704" lon="15.51821">
        <ele>691</ele>
        <time>2016-07-28T03:29:58Z</time>
      </trkpt>
      <trkpt lat="44.96694" lon="15.51844">
        <ele>691</ele>
        <time>2016-07-28T03:31:58Z</time>
      </trkpt>
      <trkpt lat="44.96687" lon="15.51858">
        <ele>692</ele>
        <time>2016-07-28T03:33:58Z</time>
      </trkpt>
      <trkpt lat="44.96661" lon="15.5192">
        <ele>693</ele>
        <time>2016-07-28T03:35:58Z</time>
      </trkpt>
      <trkpt lat="44.96651" lon="15.51944">
        <ele>694</ele>
        <time>2016-07-28T03:37:58Z</time>
      </trkpt>
      <trkpt lat="44.96636" lon="15.51969">
        <ele>695</ele>
        <time>2016-07-28T03:39:58Z</time>
      </trkpt>
      <trkpt lat="44.96622" lon="15.51991">
        <ele>695</ele>
        <time>2016-07-28T03:41:58Z</time>
      </trkpt>
      <trkpt lat="44.9656" lon="15.52088">
        <ele>697</ele>
        <time>2016-07-28T03:43:58Z</time>
      </trkpt>
      <trkpt lat="44.96521" lon="15.52149">
        <ele>698</ele>
        <time>2016-07-28T03:45:58Z</time>
      </trkpt>
      <trkpt lat="44.9651" lon="15.52166">
        <ele>697</ele>
        <time>2016-07-28T03:47:58Z</time>
      </trkpt>
      <trkpt lat="44.96464" lon="15.5224">
        <ele>702</ele>
        <time>2016-07-28T03:49:58Z</time>
      </trkpt>
      <trkpt lat="44.9643" lon="15.52308">
        <ele>705</ele>
        <time>2016-07-28T03:51:58Z</time>
      </trkpt>
      <trkpt lat="44.96422" lon="15.52327">
        <ele>705</ele>
        <time>2016-07-28T03:53:58Z</time>
      </trkpt>
      <trkpt lat="44.96415" lon="15.52345">
        <ele>705</ele>
        <time>2016-07-28T03:55:58Z</time>
      </trkpt>
      <trkpt lat="44.96403" lon="15.52374">
        <ele>706</ele>
        <time>2016-07-28T03:57:58Z</time>
      </trkpt>
      <trkpt lat="44.96392" lon="15.52402">
        <ele>707</ele>
        <time>2016-07-28T03:59:58Z</time>
      </trkpt>
      <trkpt lat="44.96366" lon="15.52468">
        <ele>709</ele>
        <time>2016-07-28T04:01:58Z</time>
      </trkpt>
      <trkpt lat="44.96365" lon="15.52469">
        <ele>709</ele>
        <time>2016-07-28T04:03:58Z</time>
      </trkpt>
      <trkpt lat="44.96335" lon="15.5254">
        <ele>709</ele>
        <time>2016-07-28T04:05:58Z</time>
      </trkpt>
      <trkpt lat="44.96293" lon="15.52622">
        <ele>714</ele>
        <time>2016-07-28T04:07:58Z</time>
      </trkpt>
      <trkpt lat="44.96279" lon="15.52646">
        <ele>714</ele>
        <time>2016-07-28T04:09:58Z</time>
      </trkpt>
      <trkpt lat="44.96269" lon="15.52661">
        <ele>714</ele>
        <time>2016-07-28T04:11:58Z</time>
      </trkpt>
      <trkpt lat="44.96263" lon="15.52669">
        <ele>714</ele>
        <time>2016-07-28T04:13:58Z</time>
      </trkpt>
      <trkpt lat="44.96256" lon="15.52675">
        <ele>715</ele>
        <time>2016-07-28T04:15:58Z</time>
      </trkpt>
      <trkpt lat="44.96247" lon="15.52681">
        <ele>715</ele>
        <time>2016-07-28T04:17:58Z</time>
      </trkpt>
      <trkpt lat="44.96234" lon="15.52688">
        <ele>716</ele>
        <time>2016-07-28T04:19:58Z</time>
      </trkpt>
      <trkpt lat="44.96219" lon="15.52692">
        <ele>717</ele>
        <time>2016-07-28T04:21:58Z</time>
      </trkpt>
      <trkpt lat="44.96208" lon="15.52691">
        <ele>718</ele>
        <time>2016-07-28T04:23:58Z</time>
      </trkpt>
      <trkpt lat="44.96195" lon="15.5269">
        <ele>719</ele>
        <time>2016-07-28T04:25:58Z</time>
      </trkpt>
      <trkpt lat="44.96187" lon="15.52687">
        <ele>720</ele>
        <time>2016-07-28T04:27:58Z</time>
      </trkpt>
      <trkpt lat="44.96177" lon="15.52686">
        <ele>721</ele>
        <time>2016-07-28T04:29:58Z</time>
      </trkpt>
      <trkpt lat="44.96168" lon="15.52685">
        <ele>722</ele>
        <time>2016-07-28T04:31:58Z</time>
      </trkpt>
      <trkpt lat="44.96159" lon="15.52684">
        <ele>723</ele>
        <time>2016-07-28T04:33:58Z</time>
      </trkpt>
      <trkpt lat="44.96151" lon="15.52683">
        <ele>724</ele>
        <time>2016-07-28T04:35:58Z</time>
      </trkpt>
      <trkpt lat="44.96141" lon="15.52681">
        <ele>725</ele>
        <time>2016-07-28T04:37:58Z</time>
      </trkpt>
      <trkpt lat="44.96132" lon="15.52678">
        <ele>726</ele>
        <time>2016-07-28T04:39:58Z</time>
      </trkpt>
      <trkpt lat="44.96125" lon="15.52675">
        <ele>727</ele>
        <time>2016-07-28T04:41:58Z</time>
      </trkpt>
      <trkpt lat="44.96112" lon="15.5267">
        <ele>728</ele>
        <time>2016-07-28T04:43:58Z</time>
      </trkpt>
      <trkpt lat="44.96096" lon="15.52661">
        <ele>730</ele>
        <time>2016-07-28T04:45:58Z</time>
      </trkpt>
      <trkpt lat="44.9609" lon="15.52658">
        <ele>731</ele>
        <time>2016-07-28T04:47:58Z</time>
      </trkpt>
      <trkpt lat="44.96085" lon="15.52656">
        <ele>732</ele>
        <time>2016-07-28T04:49:58Z</time>
      </trkpt>
      <trkpt lat="44.96076" lon="15.52653">
        <ele>732</ele>
        <time>2016-07-28T04:51:58Z</time>
      </trkpt>
      <trkpt lat="44.96066" lon="15.52651">
        <ele>733</ele>
        <time>2016-07-28T04:53:58Z</time>
      </trkpt>
      <trkpt lat="44.96062" lon="15.5265">
        <ele>733</ele>
        <time>2016-07-28T04:55:58Z</time>
      </trkpt>
      <trkpt lat="44.96044" lon="15.52648">
        <ele>735</ele>
        <time>2016-07-28T04:57:58Z</time>
      </trkpt>
      <trkpt lat="44.96036" lon="15.52648">
        <ele>735</ele>
        <time>2016-07-28T04:59:58Z</time>
      </trkpt>
      <trkpt lat="44.9602" lon="15.5265">
        <ele>736</ele>
        <time>2016-07-28T05:01:58Z</time>
      </trkpt>
      <trkpt lat="44.96014" lon="15.52651">
        <ele>736</ele>
        <time>2016-07-28T05:03:58Z</time>
      </trkpt>
      <trkpt lat="44.96008" lon="15.52652">
        <ele>737</ele>
        <time>2016-07-28T05:05:58Z</time>
      </trkpt>
      <trkpt lat="44.96003" lon="15.52653">
        <ele>737</ele>
        <time>2016-07-28T05:07:58Z</time>
      </trkpt>
      <trkpt lat="44.95994" lon="15.52653">
        <ele>737</ele>
        <time>2016-07-28T05:09:58Z</time>
      </trkpt>
      <trkpt lat="44.95988" lon="15.52653">
        <ele>737</ele>
        <time>2016-07-28T05:11:58Z</time>
      </trkpt>
      <trkpt lat="44.95982" lon="15.52652">
        <ele>737</ele>
        <time>2016-07-28T05:13:58Z</time>
      </trkpt>
      <trkpt lat="44.95977" lon="15.52651">
        <ele>738</ele>
        <time>2016-07-28T05:15:58Z</time>
      </trkpt>
      <trkpt lat="44.95973" lon="15.52649">
        <ele>738</ele>
        <time>2016-07-28T05:17:58Z</time>
      </trkpt>
      <trkpt lat="44.95969" lon="15.52647">
        <ele>738</ele>
        <time>2016-07-28T05:19:58Z</time>
      </trkpt>
      <trkpt lat="44.95966" lon="15.52644">
        <ele>738</ele>
        <time>2016-07-28T05:21:58Z</time>
      </trkpt>
      <trkpt lat="44.95963" lon="15.5264">
        <ele>738</ele>
        <time>2016-07-28T05:23:58Z</time>
      </trkpt>
      <trkpt lat="44.95961" lon="15.52636">
        <ele>738</ele>
        <time>2016-07-28T05:25:58Z</time>
      </trkpt>
      <trkpt lat="44.95957" lon="15.52629">
        <ele>738</ele>
        <time>2016-07-28T05:27:58Z</time>
      </trkpt>
      <trkpt lat="44.95955" lon="15.52625">
        <ele>737</ele>
        <time>2016-07-28T05:29:58Z</time>
      </trkpt>
      <trkpt lat="44.95952" lon="15.52621">
        <ele>737</ele>
        <time>2016-07-28T05:31:58Z</time>
      </trkpt>
      <trkpt lat="44.9594" lon="15.52606">
        <ele>737</ele>
        <time>2016-07-28T05:33:58Z</time>
      </trkpt>
      <trkpt lat="44.95921" lon="15.52589">
        <ele>736</ele>
        <time>2016-07-28T05:35:58Z</time>
      </trkpt>
      <trkpt lat="44.9591" lon="15.5258">
        <ele>736</ele>
        <time>2016-07-28T05:37:58Z</time>
      </trkpt>
      <trkpt lat="44.95902" lon="15.52575">
        <ele>737</ele>
        <time>2016-07-28T05:39:58Z</time>
      </trkpt>
      <trkpt lat="44.95896" lon="15.52572">
        <ele>737</ele>
        <time>2016-07-28T05:41:58Z</time>
      </trkpt>
      <trkpt lat="44.95891" lon="15.5257">
        <ele>737</ele>
        <time>2016-07-28T05:43:58Z</time>
      </trkpt>
      <trkpt lat="44.95875" lon="15.52565">
        <ele>738</ele>
        <time>2016-07-28T05:45:58Z</time>
      </trkpt>
      <trkpt lat="44.95863" lon="15.52563">
        <ele>738</ele>
        <time>2016-07-28T05:47:58Z</time>
      </trkpt>
      <trkpt lat="44.95849" lon="15.5256">
        <ele>738</ele>
        <time>2016-07-28T05:49:58Z</time>
      </trkpt>
      <trkpt lat="44.95835" lon="15.52559">
        <ele>738</ele>
        <time>2016-07-28T05:51:58Z</time>
      </trkpt>
      <trkpt lat="44.95822" lon="15.52559">
        <ele>738</ele>
        <time>2016-07-28T05:53:58Z</time>
      </trkpt>
      <trkpt lat="44.95809" lon="15.52559">
        <ele>738</ele>
        <time>2016-07-28T05:55:58Z</time>
      </trkpt>
      <trkpt lat="44.9579" lon="15.52562">
        <ele>738</ele>
        <time>2016-07-28T05:57:58Z</time>
      </trkpt>
      <trkpt lat="44.95778" lon="15.52565">
        <ele>739</ele>
        <time>2016-07-28T05:59:58Z</time>
      </trkpt>
      <trkpt lat="44.95769" lon="15.52569">
        <ele>739</ele>
        <time>2016-07-28T06:01:58Z</time>
      </trkpt>
      <trkpt lat="44.9576" lon="15.52573">
        <ele>739</ele>
        <time>2016-07-28T06:03:58Z</time>
      </trkpt>
      <trkpt lat="44.95746" lon="15.52585">
        <ele>739</ele>
        <time>2016-07-28T06:05:58Z</time>
      </trkpt>
      <trkpt lat="44.9574" lon="15.52592">
        <ele>739</ele>
        <time>2016-07-28T06:07:58Z</time>
      </trkpt>
      <trkpt lat="44.95729" lon="15.52606">
        <ele>740</ele>
        <time>2016-07-28T06:09:58Z</time>
      </trkpt>
      <trkpt lat="44.95703" lon="15.52636">
        <ele>741</ele>
        <time>2016-07-28T06:11:58Z</time>
      </trkpt>
      <trkpt lat="44.9569" lon="15.52647">
        <ele>742</ele>
        <time>2016-07-28T06:13:58Z</time>
      </trkpt>
      <trkpt lat="44.9568" lon="15.52654">
        <ele>742</ele>
        <time>2016-07-28T06:15:58Z</time>
      </trkpt>
      <trkpt lat="44.95658" lon="15.52668">
        <ele>742</ele>
        <time>2016-07-28T06:17:58Z</time>
      </trkpt>
      <trkpt lat="44.95643" lon="15.52675">
        <ele>743</ele>
        <time>2016-07-28T06:19:58Z</time>
      </trkpt>
      <trkpt lat="44.9561" lon="15.52686">
        <ele>744</ele>
        <time>2016-07-28T06:21:58Z</time>
      </trkpt>
      <trkpt lat="44.95582" lon="15.52695">
        <ele>744</ele>
        <time>2016-07-28T06:23:58Z</time>
      </trkpt>
      <trkpt lat="44.9556" lon="15.52703">
        <ele>744</ele>
        <time>2016-07-28T06:25:58Z</time>
      </trkpt>
      <trkpt lat="44.95535" lon="15.52716">
        <ele>745</ele>
        <time>2016-07-28T06:27:58Z</time>
      </trkpt>
      <trkpt lat="44.95518" lon="15.52728">
        <ele>745</ele>
        <time>2016-07-28T06:29:58Z</time>
      </trkpt>
      <trkpt lat="44.95501" lon="15.52741">
        <ele>746</ele>
        <time>2016-07-28T06:31:58Z</time>
      </trkpt>
      <trkpt lat="44.95472" lon="15.52771">
        <ele>746</ele>
        <time>2016-07-28T06:33:58Z</time>
      </trkpt>
      <trkpt lat="44.9541" lon="15.52841">
        <ele>746</ele>
        <time>2016-07-28T06:35:58Z</time>
      </trkpt>
      <trkpt lat="44.95348" lon="15.5291">
        <ele>747</ele>
        <time>2016-07-28T06:37:58Z</time>
      </trkpt>
      <trkpt lat="44.95316" lon="15.52947">
        <ele>749</ele>
        <time>2016-07-28T06:39:58Z</time>
      </trkpt>
      <trkpt lat="44.95297" lon="15.5297">
        <ele>750</ele>
        <time>2016-07-28T06:41:58Z</time>
      </trkpt>
      <trkpt lat="44.95278" lon="15.52997">
        <ele>750</ele>
        <time>2016-07-28T06:43:58Z</time>
      </trkpt>
      <trkpt lat="44.95257" lon="15.53026">
        <ele>750</ele>
        <time>2016-07-28T06:45:58Z</time>
      </trkpt>
      <trkpt lat="44.95233" lon="15.53067">
        <ele>751</ele>
        <time>2016-07-28T06:47:58Z</time>
      </trkpt>
      <trkpt lat="44.952" lon="15.5314">
        <ele>751</ele>
        <time>2016-07-28T06:49:58Z</time>
      </trkpt>
      <trkpt lat="44.95198" lon="15.53145">
        <ele>751</ele>
        <time>2016-07-28T06:51:58Z</time>
      </trkpt>
      <trkpt lat="44.95189" lon="15.53171">
        <ele>752</ele>
        <time>2016-07-28T06:53:58Z</time>
      </trkpt>
      <trkpt lat="44.9518" lon="15.53189">
        <ele>752</ele>
        <time>2016-07-28T06:55:58Z</time>
      </trkpt>
      <trkpt lat="44.95172" lon="15.53203">
        <ele>752</ele>
        <time>2016-07-28T06:57:58Z</time>
      </trkpt>
      <trkpt lat="44.95165" lon="15.53215">
        <ele>753</ele>
        <time>2016-07-28T06:59:58Z</time>
      </trkpt>
      <trkpt lat="44.95159" lon="15.53223">
        <ele>753</ele>
        <time>2016-07-28T07:01:58Z</time>
      </trkpt>
      <trkpt lat="44.95153" lon="15.53231">
        <ele>753</ele>
        <time>2016-07-28T07:03:58Z</time>
      </trkpt>
      <trkpt lat="44.95119" lon="15.53263">
        <ele>754</ele>
        <time>2016-07-28T07:05:58Z</time>
      </trkpt>
      <trkpt lat="44.95095" lon="15.53286">
        <ele>754</ele>
        <time>2016-07-28T07:07:58Z</time>
      </trkpt>
      <trkpt lat="44.95023" lon="15.5336">
        <ele>756</ele>
        <time>2016-07-28T07:09:58Z</time>
      </trkpt>
      <trkpt lat="44.94921" lon="15.53459">
        <ele>763</ele>
        <time>2016-07-28T07:11:58Z</time>
      </trkpt>
      <trkpt lat="44.94908" lon="15.53471">
        <ele>763</ele>
        <time>2016-07-28T07:13:58Z</time>
      </trkpt>
      <trkpt lat="44.94891" lon="15.53486">
        <ele>764</ele>
        <time>2016-07-28T07:15:58Z</time>
      </trkpt>
      <trkpt lat="44.9487" lon="15.53505">
        <ele>763</ele>
        <time>2016-07-28T07:17:58Z</time>
      </trkpt>
      <trkpt lat="44.94859" lon="15.53514">
        <ele>763</ele>
        <time>2016-07-28T07:19:58Z</time>
      </trkpt>
      <trkpt lat="44.94851" lon="15.53522">
        <ele>763</ele>
        <time>2016-07-28T07:21:58Z</time>
      </trkpt>
      <trkpt lat="44.94836" lon="15.53541">
        <ele>763</ele>
        <time>2016-07-28T07:23:58Z</time>
      </trkpt>
      <trkpt lat="44.94833" lon="15.53546">
        <ele>763</ele>
        <time>2016-07-28T07:25:58Z</time>
      </trkpt>
      <trkpt lat="44.94829" lon="15.53552">
        <ele>763</ele>
        <time>2016-07-28T07:27:58Z</time>
      </trkpt>
      <trkpt lat="44.94824" lon="15.5356">
        <ele>763</ele>
        <time>2016-07-28T07:29:58Z</time>
      </trkpt>
      <trkpt lat="44.94815" lon="15.53583">
        <ele>764</ele>
        <time>2016-07-28T07:31:58Z</time>
      </trkpt>
      <trkpt lat="44.94809" lon="15.53598">
        <ele>763</ele>
        <time>2016-07-28T07:33:58Z</time>
      </trkpt>
      <trkpt lat="44.94807" lon="15.53603">
        <ele>763</ele>
        <time>2016-07-28T07:35:58Z</time>
      </trkpt>
      <trkpt lat="44.9479" lon="15.53671">
        <ele>764</ele>
        <time>2016-07-28T07:37:58Z</time>
      </trkpt>
      <trkpt lat="44.94761" lon="15.53796">
        <ele>764</ele>
        <time>2016-07-28T07:39:58Z</time>
      </trkpt>
      <trkpt lat="44.94758" lon="15.53803">
        <ele>764</ele>
        <time>2016-07-28T07:41:58Z</time>
      </trkpt>
      <trkpt lat="44.94756" lon="15.53809">
        <ele>764</ele>
        <time>2016-07-28T07:43:58Z</time>
      </trkpt>
      <trkpt lat="44.94753" lon="15.53814">
        <ele>764</ele>
        <time>2016-07-28T07:45:58Z</time>
      </trkpt>
      <trkpt lat="44.94753" lon="15.53815">
        <ele>764</ele>
        <time>2016-07-28T07:47:58Z</time>
      </trkpt>
      <trkpt lat="44.9475" lon="15.5382">
        <ele>764</ele>
        <time>2016-07-28T07:49:58Z</time>
      </trkpt>
      <trkpt lat="44.94747" lon="15.53825">
        <ele>764</ele>
        <time>2016-07-28T07:51:58Z</time>
      </trkpt>
      <trkpt lat="44.94744" lon="15.5383">
        <ele>764</ele>
        <time>2016-07-28T07:53:58Z</time>
      </trkpt>
      <trkpt lat="44.94741" lon="15.53835">
        <ele>764</ele>
        <time>2016-07-28T07:55:58Z</time>
      </trkpt>
      <trkpt lat="44.94737" lon="15.5384">
        <ele>764</ele>
        <time>2016-07-28T07:57:58Z</time>
      </trkpt>
      <trkpt lat="44.94733" lon="15.53845">
        <ele>764</ele>
        <time>2016-07-28T07:59:58Z</time>
      </trkpt>
      <trkpt lat="44.94728" lon="15.53849">
        <ele>764</ele>
        <time>2016-07-28T08:01:58Z</time>
      </trkpt>
      <trkpt lat="44.94724" lon="15.53853">
        <ele>764</ele>
        <time>2016-07-28T08:03:58Z</time>
      </trkpt>
      <trkpt lat="44.94719" lon="15.53857">
        <ele>764</ele>
        <time>2016-07-28T08:05:58Z</time>
      </trkpt>
      <trkpt lat="44.94714" lon="15.5386">
        <ele>764</ele>
        <time>2016-07-28T08:07:58Z</time>
      </trkpt>
      <trkpt lat="44.94709" lon="15.53863">
        <ele>764</ele>
        <time>2016-07-28T08:09:58Z</time>
      </trkpt>
      <trkpt lat="44.94704" lon="15.53866">
        <ele>764</ele>
        <time>2016-07-28T08:11:58Z</time>
      </trkpt>
      <trkpt lat="44.94681" lon="15.53883">
        <ele>764</ele>
        <time>2016-07-28T08:13:58Z</time>
      </trkpt>
      <trkpt lat="44.94614" lon="15.53932">
        <ele>765</ele>
        <time>2016-07-28T08:15:58Z</time>
      </trkpt>
      <trkpt lat="44.94582" lon="15.53955">
        <ele>766</ele>
        <time>2016-07-28T08:17:58Z</time>
      </trkpt>
      <trkpt lat="44.94573" lon="15.5396">
        <ele>766</ele>
        <time>2016-07-28T08:19:58Z</time>
      </trkpt>
      <trkpt lat="44.94565" lon="15.53966">
        <ele>767</ele>
        <time>2016-07-28T08:21:58Z</time>
      </trkpt>
      <trkpt lat="44.94556" lon="15.5397">
        <ele>767</ele>
        <time>2016-07-28T08:23:58Z</time>
      </trkpt>
      <trkpt lat="44.94547" lon="15.53975">
        <ele>767</ele>
        <time>2016-07-28T08:25:58Z</time>
      </trkpt>
      <trkpt lat="44.94538" lon="15.53979">
        <ele>768</ele>
        <time>2016-07-28T08:27:58Z</time>
      </trkpt>
      <trkpt lat="44.9453" lon="15.53983">
        <ele>768</ele>
        <time>2016-07-28T08:29:58Z</time>
      </trkpt>
      <trkpt lat="44.94521" lon="15.53986">
        <ele>768</ele>
        <time>2016-07-28T08:31:58Z</time>
      </trkpt>
      <trkpt lat="44.94513" lon="15.53989">
        <ele>768</ele>
        <time>2016-07-28T08:33:58Z</time>
      </trkpt>
      <trkpt lat="44.94504" lon="15.53991">
        <ele>769</ele>
        <time>2016-07-28T08:35:58Z</time>
      </trkpt>
      <trkpt lat="44.94496" lon="15.53994">
        <ele>769</ele>
        <time>2016-07-28T08:37:58Z</time>
      </trkpt>
      <trkpt lat="44.94487" lon="15.53996">
        <ele>769</ele>
        <time>2016-07-28T08:39:58Z</time>
      </trkpt>
      <trkpt lat="44.94484" lon="15.53998">
        <ele>769</ele>
        <time>2016-07-28T08:41:58Z</time>
      </trkpt>
      <trkpt lat="44.9448" lon="15.54">
        <ele>769</ele>
        <time>2016-07-28T08:43:58Z</time>
      </trkpt>
      <trkpt lat="44.94477" lon="15.54003">
        <ele>769</ele>
        <time>2016-07-28T08:45:58Z</time>
      </trkpt>
      <trkpt lat="44.94474" lon="15.54006">
        <ele>769</ele>
        <time>2016-07-28T08:47:58Z</time>
      </trkpt>
      <trkpt lat="44.94471" lon="15.54009">
        <ele>770</ele>
        <time>2016-07-28T08:49:58Z</time>
      </trkpt>
      <trkpt lat="44.94468" lon="15.54013">
        <ele>770</ele>
        <time>2016-07-28T08:51:58Z</time>
      </trkpt>
      <trkpt lat="44.94466" lon="15.54017">
        <ele>770</ele>
        <time>2016-07-28T08:53:58Z</time>
      </trkpt>
      <trkpt lat="44.94463" lon="15.54021">
        <ele>770</ele>
        <time>2016-07-28T08:55:58Z</time>
      </trkpt>
      <trkpt lat="44.94461" lon="15.54025">
        <ele>771</ele>
        <time>2016-07-28T08:57:58Z</time>
      </trkpt>
      <trkpt lat="44.94459" lon="15.5403">
        <ele>771</ele>
        <time>2016-07-28T08:59:58Z</time>
      </trkpt>
      <trkpt lat="44.94457" lon="15.54034">
        <ele>771</ele>
        <time>2016-07-28T09:01:58Z</time>
      </trkpt>
      <trkpt lat="44.94456" lon="15.54039">
        <ele>771</ele>
        <time>2016-07-28T09:03:58Z</time>
      </trkpt>
      <trkpt lat="44.94454" lon="15.54044">
        <ele>772</ele>
        <time>2016-07-28T09:05:58Z</time>
      </trkpt>
      <trkpt lat="44.94453" lon="15.54049">
        <ele>772</ele>
        <time>2016-07-28T09:07:58Z</time>
      </trkpt>
      <trkpt lat="44.94452" lon="15.54054">
        <ele>772</ele>
        <time>2016-07-28T09:09:58Z</time>
      </trkpt>
      <trkpt lat="44.9445" lon="15.54059">
        <ele>772</ele>
        <time>2016-07-28T09:11:58Z</time>
      </trkpt>
      <trkpt lat="44.94447" lon="15.54064">
        <ele>773</ele>
        <time>2016-07-28T09:13:58Z</time>
      </trkpt>
      <trkpt lat="44.94445" lon="15.54069">
        <ele>773</ele>
        <time>2016-07-28T09:15:58Z</time>
      </trkpt>
      <trkpt lat="44.94442" lon="15.54073">
        <ele>773</ele>
        <time>2016-07-28T09:17:58Z</time>
      </trkpt>
      <trkpt lat="44.9444" lon="15.54077">
        <ele>773</ele>
        <time>2016-07-28T09:19:58Z</time>
      </trkpt>
      <trkpt lat="44.94436" lon="15.54081">
        <ele>773</ele>
        <time>2016-07-28T09:21:58Z</time>
      </trkpt>
      <trkpt lat="44.94433" lon="15.54085">
        <ele>773</ele>
        <time>2016-07-28T09:23:58Z</time>
      </trkpt>
      <trkpt lat="44.9443" lon="15.54088">
        <ele>774</ele>
        <time>2016-07-28T09:25:58Z</time>
      </trkpt>
      <trkpt lat="44.94426" lon="15.54091">
        <ele>774</ele>
        <time>2016-07-28T09:27:58Z</time>
      </trkpt>
      <trkpt lat="44.94423" lon="15.54094">
        <ele>774</ele>
        <time>2016-07-28T09:29:58Z</time>
      </trkpt>
      <trkpt lat="44.94419" lon="15.54096">
        <ele>774</ele>
        <time>2016-07-28T09:31:58Z</time>
      </trkpt>
      <trkpt lat="44.94415" lon="15.54098">
        <ele>774</ele>
        <time>2016-07-28T09:33:58Z</time>
      </trkpt>
      <trkpt lat="44.94411" lon="15.541">
        <ele>774</ele>
        <time>2016-07-28T09:35:58Z</time>
      </trkpt>
      <trkpt lat="44.94407" lon="15.54101">
        <ele>774</ele>
        <time>2016-07-28T09:37:58Z</time>
      </trkpt>
      <trkpt lat="44.94403" lon="15.54102">
        <ele>774</ele>
        <time>2016-07-28T09:39:58Z</time>
      </trkpt>
      <trkpt lat="44.94399" lon="15.54102">
        <ele>774</ele>
        <time>2016-07-28T09:41:58Z</time>
      </trkpt>
      <trkpt lat="44.9439" lon="15.54106">
        <ele>774</ele>
        <time>2016-07-28T09:43:58Z</time>
      </trkpt>
      <trkpt lat="44.94382" lon="15.5411">
        <ele>775</ele>
        <time>2016-07-28T09:45:58Z</time>
      </trkpt>
      <trkpt lat="44.94373" lon="15.54114">
        <ele>775</ele>
        <time>2016-07-28T09:47:58Z</time>
      </trkpt>
      <trkpt lat="44.94365" lon="15.54118">
        <ele>775</ele>
        <time>2016-07-28T09:49:58Z</time>
      </trkpt>
      <trkpt lat="44.94357" lon="15.54123">
        <ele>775</ele>
        <time>2016-07-28T09:51:58Z</time>
      </trkpt>
      <trkpt lat="44.94349" lon="15.54128">
        <ele>775</ele>
        <time>2016-07-28T09:53:58Z</time>
      </trkpt>
      <trkpt lat="44.94341" lon="15.54132">
        <ele>775</ele>
        <time>2016-07-28T09:55:58Z</time>
      </trkpt>
      <trkpt lat="44.94333" lon="15.54138">
        <ele>776</ele>
        <time>2016-07-28T09:57:58Z</time>
      </trkpt>
      <trkpt lat="44.94326" lon="15.54143">
        <ele>776</ele>
        <time>2016-07-28T09:59:58Z</time>
      </trkpt>
      <trkpt lat="44.94306" lon="15.54161">
        <ele>777</ele>
        <time>2016-07-28T10:01:58Z</time>
      </trkpt>
      <trkpt lat="44.943" lon="15.54168">
        <ele>778</ele>
        <time>2016-07-28T10:03:58Z</time>
      </trkpt>
      <trkpt lat="44.94296" lon="15.54174">
        <ele>778</ele>
        <time>2016-07-28T10:05:58Z</time>
      </trkpt>
      <trkpt lat="44.94287" lon="15.54188">
        <ele>779</ele>
        <time>2016-07-28T10:07:58Z</time>
      </trkpt>
      <trkpt lat="44.94284" lon="15.54196">
        <ele>779</ele>
        <time>2016-07-28T10:09:58Z</time>
      </trkpt>
      <trkpt lat="44.94281" lon="15.54204">
        <ele>780</ele>
        <time>2016-07-28T10:11:58Z</time>
      </trkpt>
      <trkpt lat="44.94278" lon="15.54211">
        <ele>780</ele>
        <time>2016-07-28T10:13:58Z</time>
      </trkpt>
      <trkpt lat="44.94274" lon="15.54218">
        <ele>780</ele>
        <time>2016-07-28T10:15:58Z</time>
      </trkpt>
      <trkpt lat="44.9427" lon="15.54225">
        <ele>781</ele>
        <time>2016-07-28T10:17:58Z</time>
      </trkpt>
      <trkpt lat="44.94266" lon="15.54232">
        <ele>781</ele>
        <time>2016-07-28T10:19:58Z</time>
      </trkpt>
      <trkpt lat="44.94262" lon="15.54238">
        <ele>781</ele>
        <time>2016-07-28T10:21:58Z</time>
      </trkpt>
      <trkpt lat="44.94257" lon="15.54244">
        <ele>781</ele>
        <time>2016-07-28T10:23:58Z</time>
      </trkpt>
      <trkpt lat="44.94253" lon="15.5425">
        <ele>781</ele>
        <time>2016-07-28T10:25:58Z</time>
      </trkpt>
      <trkpt lat="44.94248" lon="15.54255">
        <ele>781</ele>
        <time>2016-07-28T10:27:58Z</time>
      </trkpt>
      <trkpt lat="44.94243" lon="15.54261">
        <ele>782</ele>
        <time>2016-07-28T10:29:58Z</time>
      </trkpt>
      <trkpt lat="44.94238" lon="15.54265">
        <ele>782</ele>
        <time>2016-07-28T10:31:58Z</time>
      </trkpt>
      <trkpt lat="44.94233" lon="15.5427">
        <ele>782</ele>
        <time>2016-07-28T10:33:58Z</time>
      </trkpt>
      <trkpt lat="44.94227" lon="15.54274">
        <ele>782</ele>
        <time>2016-07-28T10:35:58Z</time>
      </trkpt>
      <trkpt lat="44.94211" lon="15.54282">
        <ele>782</ele>
        <time>2016-07-28T10:37:58Z</time>
      </trkpt>
      <trkpt lat="44.94202" lon="15.54287">
        <ele>782</ele>
        <time>2016-07-28T10:39:58Z</time>
      </trkpt>
      <trkpt lat="44.94196" lon="15.5429">
        <ele>782</ele>
        <time>2016-07-28T10:41:58Z</time>
      </trkpt>
      <trkpt lat="44.94179" lon="15.54298">
        <ele>782</ele>
        <time>2016-07-28T10:43:58Z</time>
      </trkpt>
      <trkpt lat="44.94165" lon="15.54306">
        <ele>782</ele>
        <time>2016-07-28T10:45:58Z</time>
      </trkpt>
      <trkpt lat="44.94159" lon="15.5431">
        <ele>782</ele>
        <time>2016-07-28T10:47:58Z</time>
      </trkpt>
      <trkpt lat="44.9415" lon="15.54317">
        <ele>782</ele>
        <time>2016-07-28T10:49:58Z</time>
      </trkpt>
      <trkpt lat="44.94142" lon="15.54325">
        <ele>782</ele>
        <time>2016-07-28T10:51:58Z</time>
      </trkpt>
      <trkpt lat="44.94125" lon="15.54348">
        <ele>783</ele>
        <time>2016-07-28T10:53:58Z</time>
      </trkpt>
      <trkpt lat="44.9411" lon="15.54367">
        <ele>783</ele>
        <time>2016-07-28T10:55:58Z</time>
      </trkpt>
      <trkpt lat="44.94107" lon="15.54371">
        <ele>784</ele>
        <time>2016-07-28T10:57:58Z</time>
      </trkpt>
      <trkpt lat="44.94103" lon="15.54375">
        <ele>784</ele>
        <time>2016-07-28T10:59:58Z</time>
      </trkpt>
      <trkpt lat="44.941" lon="15.54377">
        <ele>784</ele>
        <time>2016-07-28T11:01:58Z</time>
      </trkpt>
      <trkpt lat="44.94097" lon="15.54378">
        <ele>784</ele>
        <time>2016-07-28T11:03:58Z</time>
      </trkpt>
      <trkpt lat="44.94085" lon="15.54384">
        <ele>783</ele>
        <time>2016-07-28T11:05:58Z</time>
      </trkpt>
      <trkpt lat="44.9408" lon="15.54386">
        <ele>783</ele>
        <time>2016-07-28T11:07:58Z</time>
      </trkpt>
      <trkpt lat="44.94075" lon="15.54389">
        <ele>783</ele>
        <time>2016-07-28T11:09:58Z</time>
      </trkpt>
      <trkpt lat="44.94072" lon="15.54391">
        <ele>783</ele>
        <time>2016-07-28T11:11:58Z</time>
      </trkpt>
      <trkpt lat="44.94066" lon="15.54393">
        <ele>783</ele>
        <time>2016-07-28T11:13:58Z</time>
      </trkpt>
      <trkpt lat="44.94058" lon="15.54396">
        <ele>783</ele>
        <time>2016-07-28T11:15:58Z</time>
      </trkpt>
      <trkpt lat="44.94052" lon="15.54397">
        <ele>783</ele>
        <time>2016-07-28T11:17:58Z</time>
      </trkpt>
      <trkpt lat="44.94042" lon="15.54398">
        <ele>783</ele>
        <time>2016-07-28T11:19:58Z</time>
      </trkpt>
      <trkpt lat="44.93947" lon="15.54402">
        <ele>782</ele>
        <time>2016-07-28T11:21:58Z</time>
      </trkpt>
      <trkpt lat="44.93923" lon="15.54402">
        <ele>782</ele>
        <time>2016-07-28T11:23:58Z</time>
      </trkpt>
      <trkpt lat="44.93908" lon="15.54401">
        <ele>781</ele>
        <time>2016-07-28T11:25:58Z</time>
      </trkpt>
      <trkpt lat="44.93899" lon="15.54401">
        <ele>781</ele>
        <time>2016-07-28T11:27:58Z</time>
      </trkpt>
      <trkpt lat="44.93894" lon="15.54401">
        <ele>780</ele>
        <time>2016-07-28T11:29:58Z</time>
      </trkpt>
      <trkpt lat="44.9389" lon="15.54402">
        <ele>780</ele>
        <time>2016-07-28T11:31:58Z</time>
      </trkpt>
      <trkpt lat="44.93887" lon="15.54404">
        <ele>780</ele>
        <time>2016-07-28T11:33:58Z</time>
      </trkpt>
      <trkpt lat="44.93883" lon="15.54406">
        <ele>780</ele>
        <time>2016-07-28T11:35:58Z</time>
      </trkpt>
      <trkpt lat="44.93877" lon="15.5441">
        <ele>780</ele>
        <time>2016-07-28T11:37:58Z</time>
      </trkpt>
      <trkpt lat="44.93869" lon="15.54416">
        <ele>779</ele>
        <time>2016-07-28T11:39:58Z</time>
      </trkpt>
      <trkpt lat="44.93864" lon="15.54421">
        <ele>779</ele>
        <time>2016-07-28T11:41:58Z</time>
      </trkpt>
      <trkpt lat="44.93859" lon="15.54427">
        <ele>780</ele>
        <time>2016-07-28T11:43:58Z</time>
      </trkpt>
      <trkpt lat="44.93854" lon="15.54434">
        <ele>780</ele>
        <time>2016-07-28T11:45:58Z</time>
      </trkpt>
      <trkpt lat="44.93851" lon="15.5444">
        <ele>781</ele>
        <time>2016-07-28T11:47:58Z</time>
      </trkpt>
      <trkpt lat="44.93848" lon="15.54445">
        <ele>781</ele>
        <time>2016-07-28T11:49:58Z</time>
      </trkpt>
      <trkpt lat="44.93843" lon="15.54454">
        <ele>782</ele>
        <time>2016-07-28T11:51:58Z</time>
      </trkpt>
      <trkpt lat="44.93839" lon="15.5446">
        <ele>783</ele>
        <time>2016-07-28T11:53:58Z</time>
      </trkpt>
      <trkpt lat="44.93835" lon="15.54464">
        <ele>783</ele>
        <time>2016-07-28T11:55:58Z</time>
      </trkpt>
      <trkpt lat="44.93829" lon="15.54469">
        <ele>783</ele>
        <time>2016-07-28T11:57:58Z</time>
      </trkpt>
      <trkpt lat="44.9382" lon="15.54476">
        <ele>783</ele>
        <time>2016-07-28T11:59:58Z</time>
      </trkpt>
      <trkpt lat="44.93812" lon="15.5448">
        <ele>783</ele>
        <time>2016-07-28T12:01:58Z</time>
      </trkpt>
      <trkpt lat="44.93803" lon="15.54485">
        <ele>782</ele>
        <time>2016-07-28T12:03:58Z</time>
      </trkpt>
      <trkpt lat="44.93795" lon="15.54491">
        <ele>783</ele>
        <time>2016-07-28T12:05:58Z</time>
      </trkpt>
      <trkpt lat="44.93783" lon="15.54505">
        <ele>783</ele>
        <time>2016-07-28T12:07:58Z</time>
      </trkpt>
      <trkpt lat="44.93773" lon="15.54517">
        <ele>783</ele>
        <time>2016-07-28T12:09:58Z</time>
      </trkpt>
      <trkpt lat="44.93766" lon="15.54526">
        <ele>783</ele>
        <time>2016-07-28T12:11:58Z</time>
      </trkpt>
      <trkpt lat="44.93754" lon="15.5454">
        <ele>783</ele>
        <time>2016-07-28T12:13:58Z</time>
      </trkpt>
      <trkpt lat="44.93724" lon="15.54572">
        <ele>785</ele>
        <time>2016-07-28T12:15:58Z</time>
      </trkpt>
      <trkpt lat="44.93704" lon="15.54591">
        <ele>785</ele>
        <time>2016-07-28T12:17:58Z</time>
      </trkpt>
      <trkpt lat="44.93697" lon="15.54596">
        <ele>785</ele>
        <time>2016-07-28T12:19:58Z</time>
      </trkpt>
      <trkpt lat="44.93683" lon="15.54601">
        <ele>785</ele>
        <time>2016-07-28T12:21:58Z</time>
      </trkpt>
      <trkpt lat="44.93668" lon="15.54601">
        <ele>785</ele>
        <time>2016-07-28T12:23:58Z</time>
      </trkpt>
      <trkpt lat="44.93655" lon="15.54598">
        <ele>785</ele>
        <time>2016-07-28T12:25:58Z</time>
      </trkpt>
      <trkpt lat="44.93647" lon="15.54597">
        <ele>785</ele>
        <time>2016-07-28T12:27:58Z</time>
      </trkpt>
      <trkpt lat="44.93637" lon="15.54599">
        <ele>785</ele>
        <time>2016-07-28T12:29:58Z</time>
      </trkpt>
      <trkpt lat="44.93629" lon="15.54604">
        <ele>785</ele>
        <time>2016-07-28T12:31:58Z</time>
      </trkpt>
      <trkpt lat="44.93622" lon="15.5461">
        <ele>785</ele>
        <time>2016-07-28T12:33:58Z</time>
      </trkpt>
      <trkpt lat="44.93607" lon="15.54623">
        <ele>786</ele>
        <time>2016-07-28T12:35:58Z</time>
      </trkpt>
      <trkpt lat="44.93588" lon="15.54639">
        <ele>787</ele>
        <time>2016-07-28T12:37:58Z</time>
      </trkpt>
      <trkpt lat="44.93569" lon="15.54653">
        <ele>786</ele>
        <time>2016-07-28T12:39:58Z</time>
      </trkpt>
      <trkpt lat="44.93565" lon="15.54655">
        <ele>786</ele>
        <time>2016-07-28T12:41:58Z</time>
      </trkpt>
      <trkpt lat="44.93559" lon="15.54658">
        <ele>786</ele>
        <time>2016-07-28T12:43:58Z</time>
      </trkpt>
      <trkpt lat="44.93554" lon="15.5466">
        <ele>785</ele>
        <time>2016-07-28T12:45:58Z</time>
      </trkpt>
      <trkpt lat="44.93545" lon="15.54663">
        <ele>785</ele>
        <time>2016-07-28T12:47:58Z</time>
      </trkpt>
      <trkpt lat="44.93541" lon="15.54665">
        <ele>785</ele>
        <time>2016-07-28T12:49:58Z</time>
      </trkpt>
      <trkpt lat="44.93536" lon="15.54668">
        <ele>785</ele>
        <time>2016-07-28T12:51:58Z</time>
      </trkpt>
      <trkpt lat="44.93532" lon="15.54671">
        <ele>784</ele>
        <time>2016-07-28T12:53:58Z</time>
      </trkpt>
      <trkpt lat="44.93524" lon="15.5468">
        <ele>784</ele>
        <time>2016-07-28T12:55:58Z</time>
      </trkpt>
      <trkpt lat="44.9352" lon="15.54689">
        <ele>784</ele>
        <time>2016-07-28T12:57:58Z</time>
      </trkpt>
      <trkpt lat="44.93517" lon="15.54697">
        <ele>784</ele>
        <time>2016-07-28T12:59:58Z</time>
      </trkpt>
      <trkpt lat="44.93515" lon="15.54702">
        <ele>785</ele>
        <time>2016-07-28T13:01:58Z</time>
      </trkpt>
      <trkpt lat="44.93514" lon="15.54709">
        <ele>785</ele>
        <time>2016-07-28T13:03:58Z</time>
      </trkpt>
      <trkpt lat="44.9351" lon="15.54742">
        <ele>786</ele>
        <time>2016-07-28T13:05:58Z</time>
      </trkpt>
      <trkpt lat="44.93503" lon="15.54786">
        <ele>785</ele>
        <time>2016-07-28T13:07:58Z</time>
      </trkpt>
      <trkpt lat="44.935" lon="15.54803">
        <ele>784</ele>
        <time>2016-07-28T13:09:58Z</time>
      </trkpt>
      <trkpt lat="44.93493" lon="15.54829">
        <ele>782</ele>
        <time>2016-07-28T13:11:58Z</time>
      </trkpt>
      <trkpt lat="44.93491" lon="15.54835">
        <ele>782</ele>
        <time>2016-07-28T13:13:58Z</time>
      </trkpt>
      <trkpt lat="44.93489" lon="15.54838">
        <ele>782</ele>
        <time>2016-07-28T13:15:58Z</time>
      </trkpt>
      <trkpt lat="44.93485" lon="15.54844">
        <ele>781</ele>
        <time>2016-07-28T13:17:58Z</time>
      </trkpt>
      <trkpt lat="44.93479" lon="15.54849">
        <ele>780</ele>
        <time>2016-07-28T13:19:58Z</time>
      </trkpt>
      <trkpt lat="44.93473" lon="15.54851">
        <ele>780</ele>
        <time>2016-07-28T13:21:58Z</time>
      </trkpt>
      <trkpt lat="44.93449" lon="15.54856">
        <ele>778</ele>
        <time>2016-07-28T13:23:58Z</time>
      </trkpt>
      <trkpt lat="44.93442" lon="15.54861">
        <ele>777</ele>
        <time>2016-07-28T13:25:58Z</time>
      </trkpt>
      <trkpt lat="44.93437" lon="15.54866">
        <ele>777</ele>
        <time>2016-07-28T13:27:58Z</time>
      </trkpt>
      <trkpt lat="44.93433" lon="15.54873">
        <ele>777</ele>
        <time>2016-07-28T13:29:58Z</time>
      </trkpt>
      <trkpt lat="44.93432" lon="15.54879">
        <ele>777</ele>
        <time>2016-07-28T13:31:58Z</time>
      </trkpt>
      <trkpt lat="44.93427" lon="15.54894">
        <ele>777</ele>
        <time>2016-07-28T13:33:58Z</time>
      </trkpt>
      <trkpt lat="44.93424" lon="15.54908">
        <ele>778</ele>
        <time>2016-07-28T13:35:58Z</time>
      </trkpt>
      <trkpt lat="44.93418" lon="15.54925">
        <ele>778</ele>
        <time>2016-07-28T13:37:58Z</time>
      </trkpt>
      <trkpt lat="44.93412" lon="15.5494">
        <ele>776</ele>
        <time>2016-07-28T13:39:58Z</time>
      </trkpt>
      <trkpt lat="44.93407" lon="15.5495">
        <ele>775</ele>
        <time>2016-07-28T13:41:58Z</time>
      </trkpt>
      <trkpt lat="44.93398" lon="15.54966">
        <ele>774</ele>
        <time>2016-07-28T13:43:58Z</time>
      </trkpt>
      <trkpt lat="44.93381" lon="15.54986">
        <ele>772</ele>
        <time>2016-07-28T13:45:58Z</time>
      </trkpt>
      <trkpt lat="44.93367" lon="15.55003">
        <ele>772</ele>
        <time>2016-07-28T13:47:58Z</time>
      </trkpt>
      <trkpt lat="44.93361" lon="15.55011">
        <ele>772</ele>
        <time>2016-07-28T13:49:58Z</time>
      </trkpt>
      <trkpt lat="44.93351" lon="15.55029">
        <ele>772</ele>
        <time>2016-07-28T13:51:58Z</time>
      </trkpt>
      <trkpt lat="44.93344" lon="15.55049">
        <ele>772</ele>
        <time>2016-07-28T13:53:58Z</time>
      </trkpt>
      <trkpt lat="44.93341" lon="15.55064">
        <ele>772</ele>
        <time>2016-07-28T13:55:58Z</time>
      </trkpt>
      <trkpt lat="44.93339" lon="15.5508">
        <ele>773</ele>
        <time>2016-07-28T13:57:58Z</time>
      </trkpt>
      <trkpt lat="44.93338" lon="15.55087">
        <ele>773</ele>
        <time>2016-07-28T13:59:58Z</time>
      </trkpt>
      <trkpt lat="44.93336" lon="15.55093">
        <ele>773</ele>
        <time>2016-07-28T14:01:58Z</time>
      </trkpt>
      <trkpt lat="44.93332" lon="15.55101">
        <ele>773</ele>
        <time>2016-07-28T14:03:58Z</time>
      </trkpt>
      <trkpt lat="44.93328" lon="15.55107">
        <ele>772</ele>
        <time>2016-07-28T14:05:58Z</time>
      </trkpt>
      <trkpt lat="44.93319" lon="15.55118">
        <ele>771</ele>
        <time>2016-07-28T14:07:58Z</time>
      </trkpt>
      <trkpt lat="44.93307" lon="15.55129">
        <ele>770</ele>
        <time>2016-07-28T14:09:58Z</time>
      </trkpt>
      <trkpt lat="44.93296" lon="15.55139">
        <ele>769</ele>
        <time>2016-07-28T14:11:58Z</time>
      </trkpt>
      <trkpt lat="44.93265" lon="15.55172">
        <ele>769</ele>
        <time>2016-07-28T14:13:58Z</time>
      </trkpt>
      <trkpt lat="44.93248" lon="15.55196">
        <ele>769</ele>
        <time>2016-07-28T14:15:58Z</time>
      </trkpt>
      <trkpt lat="44.93222" lon="15.55231">
        <ele>767</ele>
        <time>2016-07-28T14:17:58Z</time>
      </trkpt>
      <trkpt lat="44.93217" lon="15.55235">
        <ele>766</ele>
        <time>2016-07-28T14:19:58Z</time>
      </trkpt>
      <trkpt lat="44.93211" lon="15.55241">
        <ele>766</ele>
        <time>2016-07-28T14:21:58Z</time>
      </trkpt>
      <trkpt lat="44.93201" lon="15.55249">
        <ele>766</ele>
        <time>2016-07-28T14:23:58Z</time>
      </trkpt>
      <trkpt lat="44.93197" lon="15.55252">
        <ele>766</ele>
        <time>2016-07-28T14:25:58Z</time>
      </trkpt>
      <trkpt lat="44.93181" lon="15.55262">
        <ele>765</ele>
        <time>2016-07-28T14:27:58Z</time>
      </trkpt>
      <trkpt lat="44.9318" lon="15.55263">
        <ele>765</ele>
        <time>2016-07-28T14:29:58Z</time>
      </trkpt>
      <trkpt lat="44.9317" lon="15.55266">
        <ele>764</ele>
        <time>2016-07-28T14:31:58Z</time>
      </trkpt>
      <trkpt lat="44.93154" lon="15.5527">
        <ele>763</ele>
        <time>2016-07-28T14:33:58Z</time>
      </trkpt>
      <trkpt lat="44.93132" lon="15.55272">
        <ele>760</ele>
        <time>2016-07-28T14:35:58Z</time>
      </trkpt>
      <trkpt lat="44.93106" lon="15.55279">
        <ele>758</ele>
        <time>2016-07-28T14:37:58Z</time>
      </trkpt>
      <trkpt lat="44.93094" lon="15.55283">
        <ele>757</ele>
        <time>2016-07-28T14:39:58Z</time>
      </trkpt>
      <trkpt lat="44.9308" lon="15.55291">
        <ele>758</ele>
        <time>2016-07-28T14:41:58Z</time>
      </trkpt>
      <trkpt lat="44.93064" lon="15.55307">
        <ele>759</ele>
        <time>2016-07-28T14:43:58Z</time>
      </trkpt>
      <trkpt lat="44.93054" lon="15.55321">
        <ele>762</ele>
        <time>2016-07-28T14:45:58Z</time>
      </trkpt>
      <trkpt lat="44.9304" lon="15.55337">
        <ele>763</ele>
        <time>2016-07-28T14:47:58Z</time>
      </trkpt>
      <trkpt lat="44.93016" lon="15.55356">
        <ele>762</ele>
        <time>2016-07-28T14:49:58Z</time>
      </trkpt>
      <trkpt lat="44.93001" lon="15.55366">
        <ele>761</ele>
        <time>2016-07-28T14:51:58Z</time>
      </trkpt>
      <trkpt lat="44.92995" lon="15.55373">
        <ele>761</ele>
        <time>2016-07-28T14:53:58Z</time>
      </trkpt>
      <trkpt lat="44.92989" lon="15.55383">
        <ele>761</ele>
        <time>2016-07-28T14:55:58Z</time>
      </trkpt>
      <trkpt lat="44.92983" lon="15.55397">
        <ele>761</ele>
        <time>2016-07-28T14:57:58Z</time>
      </trkpt>
      <trkpt lat="44.92979" lon="15.55412">
        <ele>762</ele>
        <time>2016-07-28T14:59:58Z</time>
      </trkpt>
      <trkpt lat="44.92977" lon="15.55421">
        <ele>763</ele>
        <time>2016-07-28T15:01:58Z</time>
      </trkpt>
      <trkpt lat="44.92975" lon="15.55432">
        <ele>763</ele>
        <time>2016-07-28T15:03:58Z</time>
      </trkpt>
      <trkpt lat="44.92974" lon="15.55438">
        <ele>763</ele>
        <time>2016-07-28T15:05:58Z</time>
      </trkpt>
      <trkpt lat="44.92972" lon="15.55446">
        <ele>764</ele>
        <time>2016-07-28T15:07:58Z</time>
      </trkpt>
      <trkpt lat="44.92966" lon="15.55459">
        <ele>763</ele>
        <time>2016-07-28T15:09:58Z</time>
      </trkpt>
      <trkpt lat="44.92958" lon="15.55474">
        <ele>763</ele>
        <time>2016-07-28T15:11:58Z</time>
      </trkpt>
      <trkpt lat="44.92951" lon="15.55482">
        <ele>761</ele>
        <time>2016-07-28T15:13:58Z</time>
      </trkpt>
      <trkpt lat="44.92941" lon="15.5549">
        <ele>760</ele>
        <time>2016-07-28T15:15:58Z</time>
      </trkpt>
      <trkpt lat="44.92931" lon="15.55497">
        <ele>758</ele>
        <time>2016-07-28T15:17:58Z</time>
      </trkpt>
      <trkpt lat="44.92917" lon="15.55505">
        <ele>755</ele>
        <time>2016-07-28T15:19:58Z</time>
      </trkpt>
      <trkpt lat="44.92909" lon="15.55514">
        <ele>752</ele>
        <time>2016-07-28T15:21:58Z</time>
      </trkpt>
      <trkpt lat="44.92905" lon="15.55521">
        <ele>752</ele>
        <time>2016-07-28T15:23:58Z</time>
      </trkpt>
      <trkpt lat="44.92903" lon="15.55526">
        <ele>751</ele>
        <time>2016-07-28T15:25:58Z</time>
      </trkpt>
      <trkpt lat="44.92899" lon="15.55545">
        <ele>752</ele>
        <time>2016-07-28T15:27:58Z</time>
      </trkpt>
      <trkpt lat="44.92895" lon="15.55566">
        <ele>753</ele>
        <time>2016-07-28T15:29:58Z</time>
      </trkpt>
      <trkpt lat="44.92881" lon="15.55608">
        <ele>753</ele>
        <time>2016-07-28T15:31:58Z</time>
      </trkpt>
      <trkpt lat="44.92865" lon="15.55638">
        <ele>752</ele>
        <time>2016-07-28T15:33:58Z</time>
      </trkpt>
      <trkpt lat="44.92844" lon="15.55671">
        <ele>750</ele>
        <time>2016-07-28T15:35:58Z</time>
      </trkpt>
      <trkpt lat="44.92827" lon="15.55698">
        <ele>749</ele>
        <time>2016-07-28T15:37:58Z</time>
      </trkpt>
      <trkpt lat="44.92817" lon="15.55713">
        <ele>748</ele>
        <time>2016-07-28T15:39:58Z</time>
      </trkpt>
      <trkpt lat="44.92808" lon="15.55731">
        <ele>749</ele>
        <time>2016-07-28T15:41:58Z</time>
      </trkpt>
      <trkpt lat="44.92805" lon="15.5575">
        <ele>750</ele>
        <time>2016-07-28T15:43:58Z</time>
      </trkpt>
      <trkpt lat="44.92804" lon="15.55796">
        <ele>749</ele>
        <time>2016-07-28T15:45:58Z</time>
      </trkpt>
      <trkpt lat="44.92807" lon="15.55832">
        <ele>750</ele>
        <time>2016-07-28T15:47:58Z</time>
      </trkpt>
      <trkpt lat="44.92807" lon="15.55874">
        <ele>747</ele>
        <time>2016-07-28T15:49:58Z</time>
      </trkpt>
      <trkpt lat="44.92805" lon="15.55917">
        <ele>745</ele>
        <time>2016-07-28T15:51:58Z</time>
      </trkpt>
      <trkpt lat="44.92801" lon="15.55956">
        <ele>741</ele>
        <time>2016-07-28T15:53:58Z</time>
      </trkpt>
      <trkpt lat="44.92799" lon="15.55988">
        <ele>739</ele>
        <time>2016-07-28T15:55:58Z</time>
      </trkpt>
      <trkpt lat="44.928" lon="15.56024">
        <ele>737</ele>
        <time>2016-07-28T15:57:58Z</time>
      </trkpt>
      <trkpt lat="44.92808" lon="15.56072">
        <ele>735</ele>
        <time>2016-07-28T15:59:58Z</time>
      </trkpt>
      <trkpt lat="44.92822" lon="15.5611">
        <ele>734</ele>
        <time>2016-07-28T16:01:58Z</time>
      </trkpt>
      <trkpt lat="44.92833" lon="15.56136">
        <ele>732</ele>
        <time>2016-07-28T16:03:58Z</time>
      </trkpt>
      <trkpt lat="44.92838" lon="15.56152">
        <ele>732</ele>
        <time>2016-07-28T16:05:58Z</time>
      </trkpt>
      <trkpt lat="44.92841" lon="15.56163">
        <ele>731</ele>
        <time>2016-07-28T16:07:58Z</time>
      </trkpt>
      <trkpt lat="44.92842" lon="15.56169">
        <ele>731</ele>
        <time>2016-07-28T16:09:58Z</time>
      </trkpt>
      <trkpt lat="44.92842" lon="15.56179">
        <ele>731</ele>
        <time>2016-07-28T16:11:58Z</time>
      </trkpt>
      <trkpt lat="44.9284" lon="15.56187">
        <ele>730</ele>
        <time>2016-07-28T16:13:58Z</time>
      </trkpt>
      <trkpt lat="44.92832" lon="15.56205">
        <ele>727</ele>
        <time>2016-07-28T16:15:58Z</time>
      </trkpt>
      <trkpt lat="44.92822" lon="15.56229">
        <ele>724</ele>
        <time>2016-07-28T16:17:58Z</time>
      </trkpt>
      <trkpt lat="44.92812" lon="15.5626">
        <ele>722</ele>
        <time>2016-07-28T16:19:58Z</time>
      </trkpt>
      <trkpt lat="44.92808" lon="15.56278">
        <ele>722</ele>
        <time>2016-07-28T16:21:58Z</time>
      </trkpt>
      <trkpt lat="44.92791" lon="15.56349">
        <ele>720</ele>
        <time>2016-07-28T16:23:58Z</time>
      </trkpt>
      <trkpt lat="44.92784" lon="15.56386">
        <ele>719</ele>
        <time>2016-07-28T16:25:58Z</time>
      </trkpt>
      <trkpt lat="44.9278" lon="15.56421">
        <ele>719</ele>
        <time>2016-07-28T16:27:58Z</time>
      </trkpt>
      <trkpt lat="44.92777" lon="15.5647">
        <ele>716</ele>
        <time>2016-07-28T16:29:58Z</time>
      </trkpt>
      <trkpt lat="44.92778" lon="15.56504">
        <ele>716</ele>
        <time>2016-07-28T16:31:58Z</time>
      </trkpt>
      <trkpt lat="44.92778" lon="15.5653">
        <ele>717</ele>
        <time>2016-07-28T16:33:58Z</time>
      </trkpt>
      <trkpt lat="44.92778" lon="15.56557">
        <ele>718</ele>
        <time>2016-07-28T16:35:58Z</time>
      </trkpt>
      <trkpt lat="44.92775" lon="15.56577">
        <ele>718</ele>
        <time>2016-07-28T16:37:58Z</time>
      </trkpt>
      <trkpt lat="44.92773" lon="15.56588">
        <ele>718</ele>
        <time>2016-07-28T16:39:58Z</time>
      </trkpt>
      <trkpt lat="44.92769" lon="15.56602">
        <ele>718</ele>
        <time>2016-07-28T16:41:58Z</time>
      </trkpt>
      <trkpt lat="44.92762" lon="15.56621">
        <ele>718</ele>
        <time>2016-07-28T16:43:58Z</time>
      </trkpt>
      <trkpt lat="44.92757" lon="15.56631">
        <ele>718</ele>
        <time>2016-07-28T16:45:58Z</time>
      </trkpt>
      <trkpt lat="44.92752" lon="15.56638">
        <ele>718</ele>
        <time>2016-07-28T16:47:58Z</time>
      </trkpt>
      <trkpt lat="44.92747" lon="15.56643">
        <ele>718</ele>
        <time>2016-07-28T16:49:58Z</time>
      </trkpt>
      <trkpt lat="44.92743" lon="15.56646">
        <ele>717</ele>
        <time>2016-07-28T16:51:58Z</time>
      </trkpt>
      <trkpt lat="44.92739" lon="15.56648">
        <ele>717</ele>
        <time>2016-07-28T16:53:58Z</time>
      </trkpt>
      <trkpt lat="44.9273" lon="15.5665">
        <ele>716</ele>
        <time>2016-07-28T16:55:58Z</time>
      </trkpt>
      <trkpt lat="44.92717" lon="15.56651">
        <ele>714</ele>
        <time>2016-07-28T16:57:58Z</time>
      </trkpt>
      <trkpt lat="44.92708" lon="15.56652">
        <ele>713</ele>
        <time>2016-07-28T16:59:58Z</time>
      </trkpt>
      <trkpt lat="44.92704" lon="15.56653">
        <ele>712</ele>
        <time>2016-07-28T17:01:58Z</time>
      </trkpt>
      <trkpt lat="44.92702" lon="15.56655">
        <ele>712</ele>
        <time>2016-07-28T17:03:58Z</time>
      </trkpt>
      <trkpt lat="44.927" lon="15.56657">
        <ele>712</ele>
        <time>2016-07-28T17:05:58Z</time>
      </trkpt>
      <trkpt lat="44.92697" lon="15.56662">
        <ele>712</ele>
        <time>2016-07-28T17:07:58Z</time>
      </trkpt>
      <trkpt lat="44.92692" lon="15.56671">
        <ele>712</ele>
        <time>2016-07-28T17:09:58Z</time>
      </trkpt>
      <trkpt lat="44.92691" lon="15.56672">
        <ele>712</ele>
        <time>2016-07-28T17:11:58Z</time>
      </trkpt>
      <trkpt lat="44.92691" lon="15.56674">
        <ele>712</ele>
        <time>2016-07-28T17:13:58Z</time>
      </trkpt>
      <trkpt lat="44.9269" lon="15.5668">
        <ele>712</ele>
        <time>2016-07-28T17:15:58Z</time>
      </trkpt>
      <trkpt lat="44.92689" lon="15.5669">
        <ele>712</ele>
        <time>2016-07-28T17:17:58Z</time>
      </trkpt>
      <trkpt lat="44.92689" lon="15.56708">
        <ele>712</ele>
        <time>2016-07-28T17:19:58Z</time>
      </trkpt>
      <trkpt lat="44.9269" lon="15.56727">
        <ele>712</ele>
        <time>2016-07-28T17:21:58Z</time>
      </trkpt>
      <trkpt lat="44.92691" lon="15.56757">
        <ele>713</ele>
        <time>2016-07-28T17:23:58Z</time>
      </trkpt>
      <trkpt lat="44.92691" lon="15.56778">
        <ele>713</ele>
        <time>2016-07-28T17:25:58Z</time>
      </trkpt>
      <trkpt lat="44.92691" lon="15.56794">
        <ele>713</ele>
        <time>2016-07-28T17:27:58Z</time>
      </trkpt>
      <trkpt lat="44.9269" lon="15.56808">
        <ele>713</ele>
        <time>2016-07-28T17:29:58Z</time>
      </trkpt>
      <trkpt lat="44.92687" lon="15.5682">
        <ele>712</ele>
        <time>2016-07-28T17:31:58Z</time>
      </trkpt>
      <trkpt lat="44.92679" lon="15.56835">
        <ele>711</ele>
        <time>2016-07-28T17:33:58Z</time>
      </trkpt>
      <trkpt lat="44.92673" lon="15.56846">
        <ele>709</ele>
        <time>2016-07-28T17:35:58Z</time>
      </trkpt>
      <trkpt lat="44.92657" lon="15.5688">
        <ele>707</ele>
        <time>2016-07-28T17:37:58Z</time>
      </trkpt>
      <trkpt lat="44.92646" lon="15.56908">
        <ele>706</ele>
        <time>2016-07-28T17:39:58Z</time>
      </trkpt>
      <trkpt lat="44.92639" lon="15.56929">
        <ele>706</ele>
        <time>2016-07-28T17:41:58Z</time>
      </trkpt>
      <trkpt lat="44.92628" lon="15.56964">
        <ele>706</ele>
        <time>2016-07-28T17:43:58Z</time>
      </trkpt>
      <trkpt lat="44.9262" lon="15.56984">
        <ele>706</ele>
        <time>2016-07-28T17:45:58Z</time>
      </trkpt>
      <trkpt lat="44.92616" lon="15.56993">
        <ele>706</ele>
        <time>2016-07-28T17:47:58Z</time>
      </trkpt>
      <trkpt lat="44.92613" lon="15.56998">
        <ele>705</ele>
        <time>2016-07-28T17:49:58Z</time>
      </trkpt>
      <trkpt lat="44.92611" lon="15.57003">
        <ele>705</ele>
        <time>2016-07-28T17:51:58Z</time>
      </trkpt>
      <trkpt lat="44.9261" lon="15.57009">
        <ele>705</ele>
        <time>2016-07-28T17:53:58Z</time>
      </trkpt>
      <trkpt lat="44.92609" lon="15.57016">
        <ele>705</ele>
        <time>2016-07-28T17:55:58Z</time>
      </trkpt>
      <trkpt lat="44.92608" lon="15.5702">
        <ele>705</ele>
        <time>2016-07-28T17:57:58Z</time>
      </trkpt>
      <trkpt lat="44.92608" lon="15.57024">
        <ele>705</ele>
        <time>2016-07-28T17:59:58Z</time>
      </trkpt>
      <trkpt lat="44.92608" lon="15.57035">
        <ele>705</ele>
        <time>2016-07-28T18:01:58Z</time>
      </trkpt>
      <trkpt lat="44.9261" lon="15.57046">
        <ele>705</ele>
        <time>2016-07-28T18:03:58Z</time>
      </trkpt>
      <trkpt lat="44.92612" lon="15.5706">
        <ele>705</ele>
        <time>2016-07-28T18:05:58Z</time>
      </trkpt>
      <trkpt lat="44.92613" lon="15.57064">
        <ele>705</ele>
        <time>2016-07-28T18:07:58Z</time>
      </trkpt>
      <trkpt lat="44.92613" lon="15.57072">
        <ele>705</ele>
        <time>2016-07-28T18:09:58Z</time>
      </trkpt>
      <trkpt lat="44.92614" lon="15.57078">
        <ele>705</ele>
        <time>2016-07-28T18:11:58Z</time>
      </trkpt>
      <trkpt lat="44.92613" lon="15.57085">
        <ele>704</ele>
        <time>2016-07-28T18:13:58Z</time>
      </trkpt>
      <trkpt lat="44.92612" lon="15.57092">
        <ele>704</ele>
        <time>2016-07-28T18:15:58Z</time>
      </trkpt>
      <trkpt lat="44.9261" lon="15.57096">
        <ele>704</ele>
        <time>2016-07-28T18:17:58Z</time>
      </trkpt>
      <trkpt lat="44.92607" lon="15.57102">
        <ele>704</ele>
        <time>2016-07-28T18:19:58Z</time>
      </trkpt>
      <trkpt lat="44.92601" lon="15.5711">
        <ele>703</ele>
        <time>2016-07-28T18:21:58Z</time>
      </trkpt>
      <trkpt lat="44.9259" lon="15.57121">
        <ele>703</ele>
        <time>2016-07-28T18:23:58Z</time>
      </trkpt>
      <trkpt lat="44.92578" lon="15.57133">
        <ele>702</ele>
        <time>2016-07-28T18:25:58Z</time>
      </trkpt>
      <trkpt lat="44.9255" lon="15.57172">
        <ele>699</ele>
        <time>2016-07-28T18:27:58Z</time>
      </trkpt>
      <trkpt lat="44.92542" lon="15.57182">
        <ele>698</ele>
        <time>2016-07-28T18:29:58Z</time>
      </trkpt>
      <trkpt lat="44.92538" lon="15.57188">
        <ele>697</ele>
        <time>2016-07-28T18:31:58Z</time>
      </trkpt>
      <trkpt lat="44.92535" lon="15.57196">
        <ele>697</ele>
        <time>2016-07-28T18:33:58Z</time>
      </trkpt>
      <trkpt lat="44.92533" lon="15.57204">
        <ele>696</ele>
        <time>2016-07-28T18:35:58Z</time>
      </trkpt>
      <trkpt lat="44.92532" lon="15.57212">
        <ele>696</ele>
        <time>2016-07-28T18:37:58Z</time>
      </trkpt>
      <trkpt lat="44.92534" lon="15.5722">
        <ele>696</ele>
        <time>2016-07-28T18:39:58Z</time>
      </trkpt>
      <trkpt lat="44.92538" lon="15.57236">
        <ele>696</ele>
        <time>2016-07-28T18:41:58Z</time>
      </trkpt>
      <trkpt lat="44.92542" lon="15.57255">
        <ele>696</ele>
        <time>2016-07-28T18:43:58Z</time>
      </trkpt>
      <trkpt lat="44.92547" lon="15.57274">
        <ele>695</ele>
        <time>2016-07-28T18:45:58Z</time>
      </trkpt>
      <trkpt lat="44.92551" lon="15.57292">
        <ele>694</ele>
        <time>2016-07-28T18:47:58Z</time>
      </trkpt>
      <trkpt lat="44.92555" lon="15.57303">
        <ele>693</ele>
        <time>2016-07-28T18:49:58Z</time>
      </trkpt>
      <trkpt lat="44.9256" lon="15.57315">
        <ele>693</ele>
        <time>2016-07-28T18:51:58Z</time>
      </trkpt>
      <trkpt lat="44.92566" lon="15.57325">
        <ele>692</ele>
        <time>2016-07-28T18:53:58Z</time>
      </trkpt>
      <trkpt lat="44.92571" lon="15.57332">
        <ele>692</ele>
        <time>2016-07-28T18:55:58Z</time>
      </trkpt>
      <trkpt lat="44.9258" lon="15.57343">
        <ele>692</ele>
        <time>2016-07-28T18:57:58Z</time>
      </trkpt>
      <trkpt lat="44.92588" lon="15.57348">
        <ele>693</ele>
        <time>2016-07-28T18:59:58Z</time>
      </trkpt>
      <trkpt lat="44.92596" lon="15.57349">
        <ele>693</ele>
        <time>2016-07-28T19:01:58Z</time>
      </trkpt>
      <trkpt lat="44.92605" lon="15.57348">
        <ele>693</ele>
        <time>2016-07-28T19:03:58Z</time>
      </trkpt>
      <trkpt lat="44.92619" lon="15.57343">
        <ele>693</ele>
        <time>2016-07-28T19:05:58Z</time>
      </trkpt>
      <trkpt lat="44.92626" lon="15.57336">
        <ele>693</ele>
        <time>2016-07-28T19:07:58Z</time>
      </trkpt>
      <trkpt lat="44.92634" lon="15.57332">
        <ele>694</ele>
        <time>2016-07-28T19:09:58Z</time>
      </trkpt>
      <trkpt lat="44.92642" lon="15.5733">
        <ele>694</ele>
        <time>2016-07-28T19:11:58Z</time>
      </trkpt>
      <trkpt lat="44.92648" lon="15.5733">
        <ele>694</ele>
        <time>2016-07-28T19:13:58Z</time>
      </trkpt>
      <trkpt lat="44.92654" lon="15.57331">
        <ele>694</ele>
        <time>2016-07-28T19:15:58Z</time>
      </trkpt>
      <trkpt lat="44.92671" lon="15.5734">
        <ele>694</ele>
        <time>2016-07-28T19:17:58Z</time>
      </trkpt>
      <trkpt lat="44.9268" lon="15.57348">
        <ele>693</ele>
        <time>2016-07-28T19:19:58Z</time>
      </trkpt>
      <trkpt lat="44.9269" lon="15.57361">
        <ele>692</ele>
        <time>2016-07-28T19:21:58Z</time>
      </trkpt>
      <trkpt lat="44.92699" lon="15.57377">
        <ele>691</ele>
        <time>2016-07-28T19:23:58Z</time>
      </trkpt>
      <trkpt lat="44.92712" lon="15.57407">
        <ele>690</ele>
        <time>2016-07-28T19:25:58Z</time>
      </trkpt>
      <trkpt lat="44.9272" lon="15.57426">
        <ele>689</ele>
        <time>2016-07-28T19:27:58Z</time>
      </trkpt>
      <trkpt lat="44.9273" lon="15.57451">
        <ele>687</ele>
        <time>2016-07-28T19:29:58Z</time>
      </trkpt>
      <trkpt lat="44.92737" lon="15.57464">
        <ele>687</ele>
        <time>2016-07-28T19:31:58Z</time>
      </trkpt>
      <trkpt lat="44.92746" lon="15.5748">
        <ele>686</ele>
        <time>2016-07-28T19:33:58Z</time>
      </trkpt>
      <trkpt lat="44.9275" lon="15.57484">
        <ele>686</ele>
        <time>2016-07-28T19:35:58Z</time>
      </trkpt>
      <trkpt lat="44.92753" lon="15.57486">
        <ele>686</ele>
        <time>2016-07-28T19:37:58Z</time>
      </trkpt>
      <trkpt lat="44.92759" lon="15.57487">
        <ele>686</ele>
        <time>2016-07-28T19:39:58Z</time>
      </trkpt>
      <trkpt lat="44.92771" lon="15.57485">
        <ele>686</ele>
        <time>2016-07-28T19:41:58Z</time>
      </trkpt>
      <trkpt lat="44.92787" lon="15.57478">
        <ele>687</ele>
        <time>2016-07-28T19:43:58Z</time>
      </trkpt>
      <trkpt lat="44.92797" lon="15.57476">
        <ele>688</ele>
        <time>2016-07-28T19:45:58Z</time>
      </trkpt>
      <trkpt lat="44.92808" lon="15.57475">
        <ele>688</ele>
        <time>2016-07-28T19:47:58Z</time>
      </trkpt>
      <trkpt lat="44.92814" lon="15.57476">
        <ele>688</ele>
        <time>2016-07-28T19:49:58Z</time>
      </trkpt>
      <trkpt lat="44.92825" lon="15.57482">
        <ele>688</ele>
        <time>2016-07-28T19:51:58Z</time>
      </trkpt>
      <trkpt lat="44.92843" lon="15.57496">
        <ele>688</ele>
        <time>2016-07-28T19:53:58Z</time>
      </trkpt>
      <trkpt lat="44.92858" lon="15.57512">
        <ele>688</ele>
        <time>2016-07-28T19:55:58Z</time>
      </trkpt>
      <trkpt lat="44.92866" lon="15.57528">
        <ele>688</ele>
        <time>2016-07-28T19:57:58Z</time>
      </trkpt>
      <trkpt lat="44.92876" lon="15.5755">
        <ele>688</ele>
        <time>2016-07-28T19:59:58Z</time>
      </trkpt>
      <trkpt lat="44.92881" lon="15.57569">
        <ele>687</ele>
        <time>2016-07-28T20:01:58Z</time>
      </trkpt>
      <trkpt lat="44.92882" lon="15.5758">
        <ele>686</ele>
        <time>2016-07-28T20:03:58Z</time>
      </trkpt>
      <trkpt lat="44.92882" lon="15.5759">
        <ele>686</ele>
        <time>2016-07-28T20:05:58Z</time>
      </trkpt>
      <trkpt lat="44.92882" lon="15.57599">
        <ele>685</ele>
        <time>2016-07-28T20:07:58Z</time>
      </trkpt>
      <trkpt lat="44.92881" lon="15.57607">
        <ele>685</ele>
        <time>2016-07-28T20:09:58Z</time>
      </trkpt>
      <trkpt lat="44.92878" lon="15.57625">
        <ele>684</ele>
        <time>2016-07-28T20:11:58Z</time>
      </trkpt>
      <trkpt lat="44.92873" lon="15.57644">
        <ele>683</ele>
        <time>2016-07-28T20:13:58Z</time>
      </trkpt>
      <trkpt lat="44.92869" lon="15.57659">
        <ele>683</ele>
        <time>2016-07-28T20:15:58Z</time>
      </trkpt>
      <trkpt lat="44.92868" lon="15.57662">
        <ele>682</ele>
        <time>2016-07-28T20:17:58Z</time>
      </trkpt>
      <trkpt lat="44.92866" lon="15.57666">
        <ele>682</ele>
        <time>2016-07-28T20:19:58Z</time>
      </trkpt>
      <trkpt lat="44.92862" lon="15.57673">
        <ele>681</ele>
        <time>2016-07-28T20:21:58Z</time>
      </trkpt>
      <trkpt lat="44.92858" lon="15.57677">
        <ele>681</ele>
        <time>2016-07-28T20:23:58Z</time>
      </trkpt>
      <trkpt lat="44.92855" lon="15.5768">
        <ele>680</ele>
        <time>2016-07-28T20:25:58Z</time>
      </trkpt>
      <trkpt lat="44.92848" lon="15.57689">
        <ele>679</ele>
        <time>2016-07-28T20:27:58Z</time>
      </trkpt>
      <trkpt lat="44.92846" lon="15.57695">
        <ele>679</ele>
        <time>2016-07-28T20:29:58Z</time>
      </trkpt>
      <trkpt lat="44.92845" lon="15.57698">
        <ele>679</ele>
        <time>2016-07-28T20:31:58Z</time>
      </trkpt>
      <trkpt lat="44.92845" lon="15.57707">
        <ele>678</ele>
        <time>2016-07-28T20:33:58Z</time>
      </trkpt>
      <trkpt lat="44.92845" lon="15.57719">
        <ele>678</ele>
        <time>2016-07-28T20:35:58Z</time>
      </trkpt>
      <trkpt lat="44.92849" lon="15.57772">
        <ele>676</ele>
        <time>2016-07-28T20:37:58Z</time>
      </trkpt>
      <trkpt lat="44.9285" lon="15.57792">
        <ele>675</ele>
        <time>2016-07-28T20:39:58Z</time>
      </trkpt>
      <trkpt lat="44.92849" lon="15.5781">
        <ele>674</ele>
        <time>2016-07-28T20:41:58Z</time>
      </trkpt>
      <trkpt lat="44.92846" lon="15.57832">
        <ele>673</ele>
        <time>2016-07-28T20:43:58Z</time>
      </trkpt>
      <trkpt lat="44.92845" lon="15.57834">
        <ele>673</ele>
        <time>2016-07-28T20:45:58Z</time>
      </trkpt>
      <trkpt lat="44.92844" lon="15.57836">
        <ele>673</ele>
        <time>2016-07-28T20:47:58Z</time>
      </trkpt>
      <trkpt lat="44.92841" lon="15.57842">
        <ele>673</ele>
        <time>2016-07-28T20:49:58Z</time>
      </trkpt>
      <trkpt lat="44.92837" lon="15.57847">
        <ele>672</ele>
        <time>2016-07-28T20:51:58Z</time>
      </trkpt>
      <trkpt lat="44.92834" lon="15.57852">
        <ele>672</ele>
        <time>2016-07-28T20:53:58Z</time>
      </trkpt>
      <trkpt lat="44.9283" lon="15.57858">
        <ele>672</ele>
        <time>2016-07-28T20:55:58Z</time>
      </trkpt>
      <trkpt lat="44.92826" lon="15.57862">
        <ele>672</ele>
        <time>2016-07-28T20:57:58Z</time>
      </trkpt>
      <trkpt lat="44.92822" lon="15.57867">
        <ele>672</ele>
        <time>2016-07-28T20:59:58Z</time>
      </trkpt>
      <trkpt lat="44.92818" lon="15.57871">
        <ele>672</ele>
        <time>2016-07-28T21:01:58Z</time>
      </trkpt>
      <trkpt lat="44.92813" lon="15.57875">
        <ele>672</ele>
        <time>2016-07-28T21:03:58Z</time>
      </trkpt>
      <trkpt lat="44.92809" lon="15.57879">
        <ele>672</ele>
        <time>2016-07-28T21:05:58Z</time>
      </trkpt>
      <trkpt lat="44.92804" lon="15.57882">
        <ele>672</ele>
        <time>2016-07-28T21:07:58Z</time>
      </trkpt>
      <trkpt lat="44.92799" lon="15.57885">
        <ele>672</ele>
        <time>2016-07-28T21:09:58Z</time>
      </trkpt>
      <trkpt lat="44.92794" lon="15.57888">
        <ele>672</ele>
        <time>2016-07-28T21:11:58Z</time>
      </trkpt>
      <trkpt lat="44.92789" lon="15.5789">
        <ele>672</ele>
        <time>2016-07-28T21:13:58Z</time>
      </trkpt>
      <trkpt lat="44.92769" lon="15.57896">
        <ele>672</ele>
        <time>2016-07-28T21:15:58Z</time>
      </trkpt>
      <trkpt lat="44.92759" lon="15.579">
        <ele>672</ele>
        <time>2016-07-28T21:17:58Z</time>
      </trkpt>
      <trkpt lat="44.92757" lon="15.57901">
        <ele>672</ele>
        <time>2016-07-28T21:19:58Z</time>
      </trkpt>
      <trkpt lat="44.92755" lon="15.57902">
        <ele>672</ele>
        <time>2016-07-28T21:21:58Z</time>
      </trkpt>
      <trkpt lat="44.92753" lon="15.57904">
        <ele>672</ele>
        <time>2016-07-28T21:23:58Z</time>
      </trkpt>
      <trkpt lat="44.92752" lon="15.57906">
        <ele>672</ele>
        <time>2016-07-28T21:25:58Z</time>
      </trkpt>
      <trkpt lat="44.9275" lon="15.57908">
        <ele>672</ele>
        <time>2016-07-28T21:27:58Z</time>
      </trkpt>
      <trkpt lat="44.92749" lon="15.5791">
        <ele>672</ele>
        <time>2016-07-28T21:29:58Z</time>
      </trkpt>
      <trkpt lat="44.92748" lon="15.57913">
        <ele>672</ele>
        <time>2016-07-28T21:31:58Z</time>
      </trkpt>
      <trkpt lat="44.92747" lon="15.57916">
        <ele>672</ele>
        <time>2016-07-28T21:33:58Z</time>
      </trkpt>
      <trkpt lat="44.92746" lon="15.57919">
        <ele>672</ele>
        <time>2016-07-28T21:35:58Z</time>
      </trkpt>
      <trkpt lat="44.92745" lon="15.57922">
        <ele>672</ele>
        <time>2016-07-28T21:37:58Z</time>
      </trkpt>
      <trkpt lat="44.92745" lon="15.57925">
        <ele>672</ele>
        <time>2016-07-28T21:39:58Z</time>
      </trkpt>
      <trkpt lat="44.92745" lon="15.57928">
        <ele>672</ele>
        <time>2016-07-28T21:41:58Z</time>
      </trkpt>
      <trkpt lat="44.92746" lon="15.57931">
        <ele>672</ele>
        <time>2016-07-28T21:43:58Z</time>
      </trkpt>
      <trkpt lat="44.92746" lon="15.57934">
        <ele>672</ele>
        <time>2016-07-28T21:45:58Z</time>
      </trkpt>
      <trkpt lat="44.92767" lon="15.58003">
        <ele>673</ele>
        <time>2016-07-28T21:47:58Z</time>
      </trkpt>
      <trkpt lat="44.92768" lon="15.5801">
        <ele>673</ele>
        <time>2016-07-28T21:49:58Z</time>
      </trkpt>
      <trkpt lat="44.92768" lon="15.58016">
        <ele>673</ele>
        <time>2016-07-28T21:51:58Z</time>
      </trkpt>
      <trkpt lat="44.92769" lon="15.58023">
        <ele>673</ele>
        <time>2016-07-28T21:53:58Z</time>
      </trkpt>
      <trkpt lat="44.92769" lon="15.58029">
        <ele>673</ele>
        <time>2016-07-28T21:55:58Z</time>
      </trkpt>
      <trkpt lat="44.92768" lon="15.58035">
        <ele>673</ele>
        <time>2016-07-28T21:57:58Z</time>
      </trkpt>
      <trkpt lat="44.92768" lon="15.58042">
        <ele>673</ele>
        <time>2016-07-28T21:59:58Z</time>
      </trkpt>
      <trkpt lat="44.92767" lon="15.58048">
        <ele>673</ele>
        <time>2016-07-28T22:01:58Z</time>
      </trkpt>
      <trkpt lat="44.92766" lon="15.58054">
        <ele>673</ele>
        <time>2016-07-28T22:03:58Z</time>
      </trkpt>
      <trkpt lat="44.92765" lon="15.5806">
        <ele>673</ele>
        <time>2016-07-28T22:05:58Z</time>
      </trkpt>
      <trkpt lat="44.92763" lon="15.58066">
        <ele>672</ele>
        <time>2016-07-28T22:07:58Z</time>
      </trkpt>
      <trkpt lat="44.92761" lon="15.58071">
        <ele>672</ele>
        <time>2016-07-28T22:09:58Z</time>
      </trkpt>
      <trkpt lat="44.92759" lon="15.58076">
        <ele>672</ele>
        <time>2016-07-28T22:11:58Z</time>
      </trkpt>
      <trkpt lat="44.92757" lon="15.58082">
        <ele>672</ele>
        <time>2016-07-28T22:13:58Z</time>
      </trkpt>
      <trkpt lat="44.92755" lon="15.58087">
        <ele>672</ele>
        <time>2016-07-28T22:15:58Z</time>
      </trkpt>
      <trkpt lat="44.92752" lon="15.58092">
        <ele>671</ele>
        <time>2016-07-28T22:17:58Z</time>
      </trkpt>
      <trkpt lat="44.92749" lon="15.58096">
        <ele>671</ele>
        <time>2016-07-28T22:19:58Z</time>
      </trkpt>
      <trkpt lat="44.92746" lon="15.581">
        <ele>671</ele>
        <time>2016-07-28T22:21:58Z</time>
      </trkpt>
      <trkpt lat="44.92743" lon="15.58104">
        <ele>671</ele>
        <time>2016-07-28T22:23:58Z</time>
      </trkpt>
      <trkpt lat="44.9274" lon="15.58107">
        <ele>671</ele>
        <time>2016-07-28T22:25:58Z</time>
      </trkpt>
      <trkpt lat="44.92739" lon="15.58108">
        <ele>671</ele>
        <time>2016-07-28T22:27:58Z</time>
      </trkpt>
      <trkpt lat="44.92735" lon="15.58111">
        <ele>671</ele>
        <time>2016-07-28T22:29:58Z</time>
      </trkpt>
      <trkpt lat="44.92731" lon="15.58114">
        <ele>671</ele>
        <time>2016-07-28T22:31:58Z</time>
      </trkpt>
      <trkpt lat="44.92728" lon="15.58116">
        <ele>671</ele>
        <time>2016-07-28T22:33:58Z</time>
      </trkpt>
      <trkpt lat="44.92724" lon="15.58119">
        <ele>671</ele>
        <time>2016-07-28T22:35:58Z</time>
      </trkpt>
      <trkpt lat="44.9272" lon="15.58121">
        <ele>671</ele>
        <time>2016-07-28T22:37:58Z</time>
      </trkpt>
      <trkpt lat="44.92716" lon="15.58122">
        <ele>670</ele>
        <time>2016-07-28T22:39:58Z</time>
      </trkpt>
      <trkpt lat="44.92712" lon="15.58124">
        <ele>670</ele>
        <time>2016-07-28T22:41:58Z</time>
      </trkpt>
      <trkpt lat="44.92708" lon="15.58125">
        <ele>670</ele>
        <time>2016-07-28T22:43:58Z</time>
      </trkpt>
      <trkpt lat="44.92707" lon="15.58125">
        <ele>670</ele>
        <time>2016-07-28T22:45:58Z</time>
      </trkpt>
      <trkpt lat="44.92705" lon="15.58126">
        <ele>670</ele>
        <time>2016-07-28T22:47:58Z</time>
      </trkpt>
      <trkpt lat="44.92703" lon="15.58127">
        <ele>670</ele>
        <time>2016-07-28T22:49:58Z</time>
      </trkpt>
      <trkpt lat="44.92702" lon="15.58128">
        <ele>670</ele>
        <time>2016-07-28T22:51:58Z</time>
      </trkpt>
      <trkpt lat="44.92701" lon="15.5813">
        <ele>670</ele>
        <time>2016-07-28T22:53:58Z</time>
      </trkpt>
      <trkpt lat="44.927" lon="15.58132">
        <ele>670</ele>
        <time>2016-07-28T22:55:58Z</time>
      </trkpt>
      <trkpt lat="44.92699" lon="15.58134">
        <ele>670</ele>
        <time>2016-07-28T22:57:58Z</time>
      </trkpt>
      <trkpt lat="44.92698" lon="15.58137">
        <ele>669</ele>
        <time>2016-07-28T22:59:58Z</time>
      </trkpt>
      <trkpt lat="44.92698" lon="15.58139">
        <ele>669</ele>
        <time>2016-07-28T23:01:58Z</time>
      </trkpt>
      <trkpt lat="44.92698" lon="15.58142">
        <ele>669</ele>
        <time>2016-07-28T23:03:58Z</time>
      </trkpt>
      <trkpt lat="44.92698" lon="15.58144">
        <ele>669</ele>
        <time>2016-07-28T23:05:58Z</time>
      </trkpt>
      <trkpt lat="44.92698" lon="15.58146">
        <ele>669</ele>
        <time>2016-07-28T23:07:58Z</time>
      </trkpt>
      <trkpt lat="44.92699" lon="15.58149">
        <ele>669</ele>
        <time>2016-07-28T23:09:58Z</time>
      </trkpt>
      <trkpt lat="44.927" lon="15.58151">
        <ele>669</ele>
        <time>2016-07-28T23:11:58Z</time>
      </trkpt>
      <trkpt lat="44.92701" lon="15.58153">
        <ele>670</ele>
        <time>2016-07-28T23:13:58Z</time>
      </trkpt>
      <trkpt lat="44.92703" lon="15.58154">
        <ele>670</ele>
        <time>2016-07-28T23:15:58Z</time>
      </trkpt>
      <trkpt lat="44.92704" lon="15.58156">
        <ele>670</ele>
        <time>2016-07-28T23:17:58Z</time>
      </trkpt>
      <trkpt lat="44.92721" lon="15.58178">
        <ele>671</ele>
        <time>2016-07-28T23:19:58Z</time>
      </trkpt>
      <trkpt lat="44.92725" lon="15.58184">
        <ele>671</ele>
        <time>2016-07-28T23:21:58Z</time>
      </trkpt>
      <trkpt lat="44.92728" lon="15.58189">
        <ele>672</ele>
        <time>2016-07-28T23:23:58Z</time>
      </trkpt>
      <trkpt lat="44.9273" lon="15.58192">
        <ele>672</ele>
        <time>2016-07-28T23:25:58Z</time>
      </trkpt>
      <trkpt lat="44.92731" lon="15.58195">
        <ele>672</ele>
        <time>2016-07-28T23:27:58Z</time>
      </trkpt>
      <trkpt lat="44.92732" lon="15.58199">
        <ele>672</ele>
        <time>2016-07-28T23:29:58Z</time>
      </trkpt>
      <trkpt lat="44.92732" lon="15.58202">
        <ele>672</ele>
        <time>2016-07-28T23:31:58Z</time>
      </trkpt>
      <trkpt lat="44.92732" lon="15.58206">
        <ele>672</ele>
        <time>2016-07-28T23:33:58Z</time>
      </trkpt>
      <trkpt lat="44.92732" lon="15.5821">
        <ele>672</ele>
        <time>2016-07-28T23:35:58Z</time>
      </trkpt>
      <trkpt lat="44.92732" lon="15.58213">
        <ele>672</ele>
        <time>2016-07-28T23:37:58Z</time>
      </trkpt>
      <trkpt lat="44.92732" lon="15.58217">
        <ele>672</ele>
        <time>2016-07-28T23:39:58Z</time>
      </trkpt>
      <trkpt lat="44.92731" lon="15.5822">
        <ele>672</ele>
        <time>2016-07-28T23:41:58Z</time>
      </trkpt>
      <trkpt lat="44.9273" lon="15.58224">
        <ele>672</ele>
        <time>2016-07-28T23:43:58Z</time>
      </trkpt>
      <trkpt lat="44.92729" lon="15.58226">
        <ele>672</ele>
        <time>2016-07-28T23:45:58Z</time>
      </trkpt>
      <trkpt lat="44.92729" lon="15.58227">
        <ele>672</ele>
        <time>2016-07-28T23:47:58Z</time>
      </trkpt>
      <trkpt lat="44.92727" lon="15.5823">
        <ele>672</ele>
        <time>2016-07-28T23:49:58Z</time>
      </trkpt>
      <trkpt lat="44.92725" lon="15.58233">
        <ele>672</ele>
        <time>2016-07-28T23:51:58Z</time>
      </trkpt>
      <trkpt lat="44.92724" lon="15.58235">
        <ele>672</ele>
        <time>2016-07-28T23:53:58Z</time>
      </trkpt>
      <trkpt lat="44.92722" lon="15.58237">
        <ele>672</ele>
        <time>2016-07-28T23:55:58Z</time>
      </trkpt>
      <trkpt lat="44.92712" lon="15.58252">
        <ele>672</ele>
        <time>2016-07-28T23:57:58Z</time>
      </trkpt>
      <trkpt lat="44.92705" lon="15.58274">
        <ele>671</ele>
        <time>2016-07-28T23:59:58Z</time>
      </trkpt>
      <trkpt lat="44.92702" lon="15.58291">
        <ele>671</ele>
        <time>2016-07-29T00:01:58Z</time>
      </trkpt>
      <trkpt lat="44.92698" lon="15.58307">
        <ele>671</ele>
        <time>2016-07-29T00:03:58Z</time>
      </trkpt>
      <trkpt lat="44.92691" lon="15.58322">
        <ele>671</ele>
        <time>2016-07-29T00:05:58Z</time>
      </trkpt>
      <trkpt lat="44.92685" lon="15.58332">
        <ele>671</ele>
        <time>2016-07-29T00:07:58Z</time>
      </trkpt>
      <trkpt lat="44.92678" lon="15.5834">
        <ele>670</ele>
        <time>2016-07-29T00:09:58Z</time>
      </trkpt>
      <trkpt lat="44.92671" lon="15.58347">
        <ele>670</ele>
        <time>2016-07-29T00:11:58Z</time>
      </trkpt>
      <trkpt lat="44.92668" lon="15.58352">
        <ele>670</ele>
        <time>2016-07-29T00:13:58Z</time>
      </trkpt>
      <trkpt lat="44.92665" lon="15.58358">
        <ele>670</ele>
        <time>2016-07-29T00:15:58Z</time>
      </trkpt>
      <trkpt lat="44.92664" lon="15.58364">
        <ele>669</ele>
        <time>2016-07-29T00:17:58Z</time>
      </trkpt>
      <trkpt lat="44.92664" lon="15.58368">
        <ele>669</ele>
        <time>2016-07-29T00:19:58Z</time>
      </trkpt>
      <trkpt lat="44.92663" lon="15.58375">
        <ele>669</ele>
        <time>2016-07-29T00:21:58Z</time>
      </trkpt>
      <trkpt lat="44.92664" lon="15.5838">
        <ele>669</ele>
        <time>2016-07-29T00:23:58Z</time>
      </trkpt>
      <trkpt lat="44.92671" lon="15.58403">
        <ele>669</ele>
        <time>2016-07-29T00:25:58Z</time>
      </trkpt>
      <trkpt lat="44.92677" lon="15.58419">
        <ele>670</ele>
        <time>2016-07-29T00:27:58Z</time>
      </trkpt>
      <trkpt lat="44.92684" lon="15.58433">
        <ele>670</ele>
        <time>2016-07-29T00:29:58Z</time>
      </trkpt>
      <trkpt lat="44.92688" lon="15.58444">
        <ele>671</ele>
        <time>2016-07-29T00:31:58Z</time>
      </trkpt>
      <trkpt lat="44.92694" lon="15.58464">
        <ele>671</ele>
        <time>2016-07-29T00:33:58Z</time>
      </trkpt>
      <trkpt lat="44.92695" lon="15.58476">
        <ele>672</ele>
        <time>2016-07-29T00:35:58Z</time>
      </trkpt>
      <trkpt lat="44.92695" lon="15.58491">
        <ele>672</ele>
        <time>2016-07-29T00:37:58Z</time>
      </trkpt>
      <trkpt lat="44.92695" lon="15.58508">
        <ele>672</ele>
        <time>2016-07-29T00:39:58Z</time>
      </trkpt>
      <trkpt lat="44.92695" lon="15.58518">
        <ele>673</ele>
        <time>2016-07-29T00:41:58Z</time>
      </trkpt>
      <trkpt lat="44.92694" lon="15.58526">
        <ele>673</ele>
        <time>2016-07-29T00:43:58Z</time>
      </trkpt>
      <trkpt lat="44.92691" lon="15.58534">
        <ele>674</ele>
        <time>2016-07-29T00:45:58Z</time>
      </trkpt>
      <trkpt lat="44.92689" lon="15.5854">
        <ele>674</ele>
        <time>2016-07-29T00:47:58Z</time>
      </trkpt>
      <trkpt lat="44.92685" lon="15.58544">
        <ele>674</ele>
        <time>2016-07-29T00:49:58Z</time>
      </trkpt>
      <trkpt lat="44.92676" lon="15.58552">
        <ele>673</ele>
        <time>2016-07-29T00:51:58Z</time>
      </trkpt>
      <trkpt lat="44.92671" lon="15.58556">
        <ele>673</ele>
        <time>2016-07-29T00:53:58Z</time>
      </trkpt>
      <trkpt lat="44.92669" lon="15.5856">
        <ele>673</ele>
        <time>2016-07-29T00:55:58Z</time>
      </trkpt>
      <trkpt lat="44.92661" lon="15.58575">
        <ele>673</ele>
        <time>2016-07-29T00:57:58Z</time>
      </trkpt>
      <trkpt lat="44.92651" lon="15.58598">
        <ele>673</ele>
        <time>2016-07-29T00:59:58Z</time>
      </trkpt>
      <trkpt lat="44.92642" lon="15.58616">
        <ele>672</ele>
        <time>2016-07-29T01:01:58Z</time>
      </trkpt>
      <trkpt lat="44.92633" lon="15.58628">
        <ele>671</ele>
        <time>2016-07-29T01:03:58Z</time>
      </trkpt>
      <trkpt lat="44.92616" lon="15.58648">
        <ele>670</ele>
        <time>2016-07-29T01:05:58Z</time>
      </trkpt>
      <trkpt lat="44.92605" lon="15.58661">
        <ele>669</ele>
        <time>2016-07-29T01:07:58Z</time>
      </trkpt>
      <trkpt lat="44.92599" lon="15.58669">
        <ele>668</ele>
        <time>2016-07-29T01:09:58Z</time>
      </trkpt>
      <trkpt lat="44.92588" lon="15.58689">
        <ele>667</ele>
        <time>2016-07-29T01:11:58Z</time>
      </trkpt>
      <trkpt lat="44.92583" lon="15.58706">
        <ele>666</ele>
        <time>2016-07-29T01:13:58Z</time>
      </trkpt>
      <trkpt lat="44.92579" lon="15.5872">
        <ele>665</ele>
        <time>2016-07-29T01:15:58Z</time>
      </trkpt>
      <trkpt lat="44.92573" lon="15.58735">
        <ele>665</ele>
        <time>2016-07-29T01:17:58Z</time>
      </trkpt>
      <trkpt lat="44.92567" lon="15.58744">
        <ele>664</ele>
        <time>2016-07-29T01:19:58Z</time>
      </trkpt>
      <trkpt lat="44.92546" lon="15.58766">
        <ele>662</ele>
        <time>2016-07-29T01:21:58Z</time>
      </trkpt>
      <trkpt lat="44.92502" lon="15.5881">
        <ele>660</ele>
        <time>2016-07-29T01:23:58Z</time>
      </trkpt>
      <trkpt lat="44.92486" lon="15.58822">
        <ele>659</ele>
        <time>2016-07-29T01:25:58Z</time>
      </trkpt>
      <trkpt lat="44.92477" lon="15.58828">
        <ele>658</ele>
        <time>2016-07-29T01:27:58Z</time>
      </trkpt>
      <trkpt lat="44.92471" lon="15.5883">
        <ele>658</ele>
        <time>2016-07-29T01:29:58Z</time>
      </trkpt>
      <trkpt lat="44.92467" lon="15.58833">
        <ele>657</ele>
        <time>2016-07-29T01:31:58Z</time>
      </trkpt>
      <trkpt lat="44.92462" lon="15.58837">
        <ele>657</ele>
        <time>2016-07-29T01:33:58Z</time>
      </trkpt>
      <trkpt lat="44.92458" lon="15.58841">
        <ele>656</ele>
        <time>2016-07-29T01:35:58Z</time>
      </trkpt>
      <trkpt lat="44.92455" lon="15.58846">
        <ele>656</ele>
        <time>2016-07-29T01:37:58Z</time>
      </trkpt>
      <trkpt lat="44.92452" lon="15.58853">
        <ele>655</ele>
        <time>2016-07-29T01:39:58Z</time>
      </trkpt>
      <trkpt lat="44.92452" lon="15.58858">
        <ele>655</ele>
        <time>2016-07-29T01:41:58Z</time>
      </trkpt>
      <trkpt lat="44.92452" lon="15.58863">
        <ele>655</ele>
        <time>2016-07-29T01:43:58Z</time>
      </trkpt>
      <trkpt lat="44.92452" lon="15.58891">
        <ele>654</ele>
        <time>2016-07-29T01:45:58Z</time>
      </trkpt>
      <trkpt lat="44.92455" lon="15.58912">
        <ele>653</ele>
        <time>2016-07-29T01:47:58Z</time>
      </trkpt>
      <trkpt lat="44.92458" lon="15.58935">
        <ele>653</ele>
        <time>2016-07-29T01:49:58Z</time>
      </trkpt>
      <trkpt lat="44.92461" lon="15.58949">
        <ele>654</ele>
        <time>2016-07-29T01:51:58Z</time>
      </trkpt>
      <trkpt lat="44.92463" lon="15.5896">
        <ele>654</ele>
        <time>2016-07-29T01:53:58Z</time>
      </trkpt>
      <trkpt lat="44.92463" lon="15.58965">
        <ele>654</ele>
        <time>2016-07-29T01:55:58Z</time>
      </trkpt>
      <trkpt lat="44.92463" lon="15.58974">
        <ele>654</ele>
        <time>2016-07-29T01:57:58Z</time>
      </trkpt>
      <trkpt lat="44.92462" lon="15.5898">
        <ele>654</ele>
        <time>2016-07-29T01:59:58Z</time>
      </trkpt>
      <trkpt lat="44.92457" lon="15.58993">
        <ele>653</ele>
        <time>2016-07-29T02:01:58Z</time>
      </trkpt>
      <trkpt lat="44.92454" lon="15.58997">
        <ele>652</ele>
        <time>2016-07-29T02:03:58Z</time>
      </trkpt>
      <trkpt lat="44.9245" lon="15.59001">
        <ele>651</ele>
        <time>2016-07-29T02:05:58Z</time>
      </trkpt>
      <trkpt lat="44.92444" lon="15.59008">
        <ele>650</ele>
        <time>2016-07-29T02:07:58Z</time>
      </trkpt>
      <trkpt lat="44.92439" lon="15.59016">
        <ele>648</ele>
        <time>2016-07-29T02:09:58Z</time>
      </trkpt>
      <trkpt lat="44.92437" lon="15.59022">
        <ele>648</ele>
        <time>2016-07-29T02:11:58Z</time>
      </trkpt>
      <trkpt lat="44.92436" lon="15.59026">
        <ele>647</ele>
        <time>2016-07-29T02:13:58Z</time>
      </trkpt>
      <trkpt lat="44.92436" lon="15.59031">
        <ele>647</ele>
        <time>2016-07-29T02:15:58Z</time>
      </trkpt>
      <trkpt lat="44.92436" lon="15.59061">
        <ele>645</ele>
        <time>2016-07-29T02:17:58Z</time>
      </trkpt>
      <trkpt lat="44.92438" lon="15.5909">
        <ele>644</ele>
        <time>2016-07-29T02:19:58Z</time>
      </trkpt>
      <trkpt lat="44.92437" lon="15.59099">
        <ele>644</ele>
        <time>2016-07-29T02:21:58Z</time>
      </trkpt>
      <trkpt lat="44.92437" lon="15.59107">
        <ele>644</ele>
        <time>2016-07-29T02:23:58Z</time>
      </trkpt>
      <trkpt lat="44.92426" lon="15.59158">
        <ele>640</ele>
        <time>2016-07-29T02:25:58Z</time>
      </trkpt>
      <trkpt lat="44.92418" lon="15.59192">
        <ele>638</ele>
        <time>2016-07-29T02:27:58Z</time>
      </trkpt>
      <trkpt lat="44.92409" lon="15.59228">
        <ele>637</ele>
        <time>2016-07-29T02:29:58Z</time>
      </trkpt>
      <trkpt lat="44.92405" lon="15.59262">
        <ele>636</ele>
        <time>2016-07-29T02:31:58Z</time>
      </trkpt>
      <trkpt lat="44.92402" lon="15.59333">
        <ele>635</ele>
        <time>2016-07-29T02:33:58Z</time>
      </trkpt>
      <trkpt lat="44.92402" lon="15.5934">
        <ele>635</ele>
        <time>2016-07-29T02:35:58Z</time>
      </trkpt>
      <trkpt lat="44.92401" lon="15.59346">
        <ele>634</ele>
        <time>2016-07-29T02:37:58Z</time>
      </trkpt>
      <trkpt lat="44.92401" lon="15.59352">
        <ele>634</ele>
        <time>2016-07-29T02:39:58Z</time>
      </trkpt>
      <trkpt lat="44.924" lon="15.59358">
        <ele>634</ele>
        <time>2016-07-29T02:41:58Z</time>
      </trkpt>
      <trkpt lat="44.92399" lon="15.59364">
        <ele>633</ele>
        <time>2016-07-29T02:43:58Z</time>
      </trkpt>
      <trkpt lat="44.92398" lon="15.5937">
        <ele>633</ele>
        <time>2016-07-29T02:45:58Z</time>
      </trkpt>
      <trkpt lat="44.92397" lon="15.59376">
        <ele>633</ele>
        <time>2016-07-29T02:47:58Z</time>
      </trkpt>
      <trkpt lat="44.92395" lon="15.59381">
        <ele>632</ele>
        <time>2016-07-29T02:49:58Z</time>
      </trkpt>
      <trkpt lat="44.92393" lon="15.59387">
        <ele>632</ele>
        <time>2016-07-29T02:51:58Z</time>
      </trkpt>
      <trkpt lat="44.92391" lon="15.59392">
        <ele>631</ele>
        <time>2016-07-29T02:53:58Z</time>
      </trkpt>
      <trkpt lat="44.92388" lon="15.59398">
        <ele>631</ele>
        <time>2016-07-29T02:55:58Z</time>
      </trkpt>
      <trkpt lat="44.92386" lon="15.59403">
        <ele>630</ele>
        <time>2016-07-29T02:57:58Z</time>
      </trkpt>
      <trkpt lat="44.92383" lon="15.59408">
        <ele>630</ele>
        <time>2016-07-29T02:59:58Z</time>
      </trkpt>
      <trkpt lat="44.9238" lon="15.59413">
        <ele>629</ele>
        <time>2016-07-29T03:01:58Z</time>
      </trkpt>
      <trkpt lat="44.92376" lon="15.59417">
        <ele>629</ele>
        <time>2016-07-29T03:03:58Z</time>
      </trkpt>
      <trkpt lat="44.92374" lon="15.59422">
        <ele>628</ele>
        <time>2016-07-29T03:05:58Z</time>
      </trkpt>
      <trkpt lat="44.92372" lon="15.59426">
        <ele>628</ele>
        <time>2016-07-29T03:07:58Z</time>
      </trkpt>
      <trkpt lat="44.92368" lon="15.5944">
        <ele>627</ele>
        <time>2016-07-29T03:09:58Z</time>
      </trkpt>
      <trkpt lat="44.92366" lon="15.59455">
        <ele>626</ele>
        <time>2016-07-29T03:11:58Z</time>
      </trkpt>
      <trkpt lat="44.92362" lon="15.5953">
        <ele>622</ele>
        <time>2016-07-29T03:13:58Z</time>
      </trkpt>
      <trkpt lat="44.9236" lon="15.59576">
        <ele>620</ele>
        <time>2016-07-29T03:15:58Z</time>
      </trkpt>
      <trkpt lat="44.92359" lon="15.59602">
        <ele>619</ele>
        <time>2016-07-29T03:17:58Z</time>
      </trkpt>
      <trkpt lat="44.92359" lon="15.59623">
        <ele>619</ele>
        <time>2016-07-29T03:19:58Z</time>
      </trkpt>
      <trkpt lat="44.92358" lon="15.59629">
        <ele>619</ele>
        <time>2016-07-29T03:21:58Z</time>
      </trkpt>
      <trkpt lat="44.92358" lon="15.59635">
        <ele>618</ele>
        <time>2016-07-29T03:23:58Z</time>
      </trkpt>
      <trkpt lat="44.92358" lon="15.59641">
        <ele>618</ele>
        <time>2016-07-29T03:25:58Z</time>
      </trkpt>
      <trkpt lat="44.92359" lon="15.59647">
        <ele>618</ele>
        <time>2016-07-29T03:27:58Z</time>
      </trkpt>
      <trkpt lat="44.92359" lon="15.59653">
        <ele>618</ele>
        <time>2016-07-29T03:29:58Z</time>
      </trkpt>
      <trkpt lat="44.9236" lon="15.59659">
        <ele>618</ele>
        <time>2016-07-29T03:31:58Z</time>
      </trkpt>
      <trkpt lat="44.92362" lon="15.59665">
        <ele>618</ele>
        <time>2016-07-29T03:33:58Z</time>
      </trkpt>
      <trkpt lat="44.92363" lon="15.59671">
        <ele>617</ele>
        <time>2016-07-29T03:35:58Z</time>
      </trkpt>
      <trkpt lat="44.92364" lon="15.59672">
        <ele>617</ele>
        <time>2016-07-29T03:37:58Z</time>
      </trkpt>
      <trkpt lat="44.92365" lon="15.59676">
        <ele>617</ele>
        <time>2016-07-29T03:39:58Z</time>
      </trkpt>
      <trkpt lat="44.92367" lon="15.59681">
        <ele>617</ele>
        <time>2016-07-29T03:41:58Z</time>
      </trkpt>
      <trkpt lat="44.92369" lon="15.59686">
        <ele>616</ele>
        <time>2016-07-29T03:43:58Z</time>
      </trkpt>
      <trkpt lat="44.92372" lon="15.59691">
        <ele>616</ele>
        <time>2016-07-29T03:45:58Z</time>
      </trkpt>
      <trkpt lat="44.92374" lon="15.59696">
        <ele>616</ele>
        <time>2016-07-29T03:47:58Z</time>
      </trkpt>
      <trkpt lat="44.92377" lon="15.597">
        <ele>616</ele>
        <time>2016-07-29T03:49:58Z</time>
      </trkpt>
      <trkpt lat="44.92425" lon="15.59771">
        <ele>613</ele>
        <time>2016-07-29T03:51:58Z</time>
      </trkpt>
      <trkpt lat="44.92441" lon="15.59795">
        <ele>612</ele>
        <time>2016-07-29T03:53:58Z</time>
      </trkpt>
      <trkpt lat="44.92447" lon="15.59801">
        <ele>612</ele>
        <time>2016-07-29T03:55:58Z</time>
      </trkpt>
      <trkpt lat="44.92449" lon="15.59803">
        <ele>613</ele>
        <time>2016-07-29T03:57:58Z</time>
      </trkpt>
      <trkpt lat="44.92452" lon="15.59804">
        <ele>613</ele>
        <time>2016-07-29T03:59:58Z</time>
      </trkpt>
      <trkpt lat="44.92454" lon="15.59805">
        <ele>613</ele>
        <time>2016-07-29T04:01:58Z</time>
      </trkpt>
      <trkpt lat="44.92456" lon="15.59807">
        <ele>613</ele>
        <time>2016-07-29T04:03:58Z</time>
      </trkpt>
      <trkpt lat="44.92458" lon="15.59808">
        <ele>613</ele>
        <time>2016-07-29T04:05:58Z</time>
      </trkpt>
      <trkpt lat="44.9246" lon="15.5981">
        <ele>613</ele>
        <time>2016-07-29T04:07:58Z</time>
      </trkpt>
      <trkpt lat="44.92462" lon="15.59813">
        <ele>613</ele>
        <time>2016-07-29T04:09:58Z</time>
      </trkpt>
      <trkpt lat="44.92463" lon="15.59816">
        <ele>613</ele>
        <time>2016-07-29T04:11:58Z</time>
      </trkpt>
      <trkpt lat="44.92465" lon="15.59818">
        <ele>613</ele>
        <time>2016-07-29T04:13:58Z</time>
      </trkpt>
      <trkpt lat="44.92466" lon="15.59821">
        <ele>613</ele>
        <time>2016-07-29T04:15:58Z</time>
      </trkpt>
      <trkpt lat="44.92466" lon="15.59825">
        <ele>613</ele>
        <time>2016-07-29T04:17:58Z</time>
      </trkpt>
      <trkpt lat="44.92467" lon="15.59828">
        <ele>612</ele>
        <time>2016-07-29T04:19:58Z</time>
      </trkpt>
      <trkpt lat="44.92467" lon="15.59831">
        <ele>612</ele>
        <time>2016-07-29T04:21:58Z</time>
      </trkpt>
      <trkpt lat="44.92467" lon="15.59834">
        <ele>612</ele>
        <time>2016-07-29T04:23:58Z</time>
      </trkpt>
      <trkpt lat="44.92467" lon="15.59838">
        <ele>612</ele>
        <time>2016-07-29T04:25:58Z</time>
      </trkpt>
      <trkpt lat="44.92466" lon="15.59841">
        <ele>611</ele>
        <time>2016-07-29T04:27:58Z</time>
      </trkpt>
      <trkpt lat="44.92465" lon="15.59844">
        <ele>611</ele>
        <time>2016-07-29T04:29:58Z</time>
      </trkpt>
      <trkpt lat="44.92452" lon="15.59947">
        <ele>603</ele>
        <time>2016-07-29T04:31:58Z</time>
      </trkpt>
      <trkpt lat="44.9245" lon="15.59952">
        <ele>603</ele>
        <time>2016-07-29T04:33:58Z</time>
      </trkpt>
      <trkpt lat="44.92449" lon="15.59958">
        <ele>603</ele>
        <time>2016-07-29T04:35:58Z</time>
      </trkpt>
      <trkpt lat="44.92447" lon="15.59964">
        <ele>603</ele>
        <time>2016-07-29T04:37:58Z</time>
      </trkpt>
      <trkpt lat="44.92446" lon="15.5997">
        <ele>603</ele>
        <time>2016-07-29T04:39:58Z</time>
      </trkpt>
      <trkpt lat="44.92445" lon="15.59976">
        <ele>602</ele>
        <time>2016-07-29T04:41:58Z</time>
      </trkpt>
      <trkpt lat="44.92444" lon="15.59983">
        <ele>602</ele>
        <time>2016-07-29T04:43:58Z</time>
      </trkpt>
      <trkpt lat="44.92444" lon="15.5999">
        <ele>602</ele>
        <time>2016-07-29T04:45:58Z</time>
      </trkpt>
      <trkpt lat="44.92444" lon="15.59996">
        <ele>602</ele>
        <time>2016-07-29T04:47:58Z</time>
      </trkpt>
      <trkpt lat="44.92444" lon="15.60003">
        <ele>602</ele>
        <time>2016-07-29T04:49:58Z</time>
      </trkpt>
      <trkpt lat="44.92444" lon="15.6001">
        <ele>602</ele>
        <time>2016-07-29T04:51:58Z</time>
      </trkpt>
      <trkpt lat="44.92445" lon="15.60017">
        <ele>602</ele>
        <time>2016-07-29T04:53:58Z</time>
      </trkpt>
      <trkpt lat="44.92446" lon="15.60022">
        <ele>602</ele>
        <time>2016-07-29T04:55:58Z</time>
      </trkpt>
      <trkpt lat="44.92446" lon="15.60026">
        <ele>602</ele>
        <time>2016-07-29T04:57:58Z</time>
      </trkpt>
      <trkpt lat="44.92447" lon="15.60031">
        <ele>601</ele>
        <time>2016-07-29T04:59:58Z</time>
      </trkpt>
      <trkpt lat="44.92446" lon="15.60035">
        <ele>601</ele>
        <time>2016-07-29T05:01:58Z</time>
      </trkpt>
      <trkpt lat="44.92446" lon="15.6004">
        <ele>601</ele>
        <time>2016-07-29T05:03:58Z</time>
      </trkpt>
      <trkpt lat="44.92445" lon="15.60044">
        <ele>601</ele>
        <time>2016-07-29T05:05:58Z</time>
      </trkpt>
      <trkpt lat="44.92444" lon="15.60048">
        <ele>600</ele>
        <time>2016-07-29T05:07:58Z</time>
      </trkpt>
      <trkpt lat="44.92443" lon="15.60053">
        <ele>600</ele>
        <time>2016-07-29T05:09:58Z</time>
      </trkpt>
      <trkpt lat="44.92441" lon="15.60057">
        <ele>599</ele>
        <time>2016-07-29T05:11:58Z</time>
      </trkpt>
      <trkpt lat="44.9244" lon="15.6006">
        <ele>599</ele>
        <time>2016-07-29T05:13:58Z</time>
      </trkpt>
      <trkpt lat="44.92438" lon="15.60063">
        <ele>599</ele>
        <time>2016-07-29T05:15:58Z</time>
      </trkpt>
      <trkpt lat="44.92436" lon="15.60066">
        <ele>598</ele>
        <time>2016-07-29T05:17:58Z</time>
      </trkpt>
      <trkpt lat="44.92434" lon="15.60069">
        <ele>598</ele>
        <time>2016-07-29T05:19:58Z</time>
      </trkpt>
      <trkpt lat="44.92432" lon="15.60071">
        <ele>597</ele>
        <time>2016-07-29T05:21:58Z</time>
      </trkpt>
      <trkpt lat="44.92429" lon="15.60072">
        <ele>597</ele>
        <time>2016-07-29T05:23:58Z</time>
      </trkpt>
      <trkpt lat="44.92392" lon="15.6008">
        <ele>592</ele>
        <time>2016-07-29T05:25:58Z</time>
      </trkpt>
      <trkpt lat="44.92387" lon="15.6008">
        <ele>591</ele>
        <time>2016-07-29T05:27:58Z</time>
      </trkpt>
      <trkpt lat="44.92383" lon="15.60079">
        <ele>591</ele>
        <time>2016-07-29T05:29:58Z</time>
      </trkpt>
      <trkpt lat="44.92379" lon="15.60078">
        <ele>590</ele>
        <time>2016-07-29T05:31:58Z</time>
      </trkpt>
      <trkpt lat="44.92374" lon="15.60077">
        <ele>590</ele>
        <time>2016-07-29T05:33:58Z</time>
      </trkpt>
      <trkpt lat="44.9237" lon="15.60075">
        <ele>589</ele>
        <time>2016-07-29T05:35:58Z</time>
      </trkpt>
      <trkpt lat="44.92367" lon="15.60073">
        <ele>589</ele>
        <time>2016-07-29T05:37:58Z</time>
      </trkpt>
      <trkpt lat="44.92363" lon="15.60071">
        <ele>589</ele>
        <time>2016-07-29T05:39:58Z</time>
      </trkpt>
      <trkpt lat="44.92359" lon="15.60068">
        <ele>589</ele>
        <time>2016-07-29T05:41:58Z</time>
      </trkpt>
      <trkpt lat="44.92356" lon="15.60065">
        <ele>589</ele>
        <time>2016-07-29T05:43:58Z</time>
      </trkpt>
      <trkpt lat="44.92351" lon="15.6006">
        <ele>588</ele>
        <time>2016-07-29T05:45:58Z</time>
      </trkpt>
      <trkpt lat="44.92346" lon="15.60055">
        <ele>588</ele>
        <time>2016-07-29T05:47:58Z</time>
      </trkpt>
      <trkpt lat="44.92341" lon="15.6005">
        <ele>588</ele>
        <time>2016-07-29T05:49:58Z</time>
      </trkpt>
      <trkpt lat="44.92337" lon="15.60044">
        <ele>588</ele>
        <time>2016-07-29T05:51:58Z</time>
      </trkpt>
      <trkpt lat="44.92331" lon="15.60037">
        <ele>587</ele>
        <time>2016-07-29T05:53:58Z</time>
      </trkpt>
      <trkpt lat="44.92326" lon="15.6003">
        <ele>587</ele>
        <time>2016-07-29T05:55:58Z</time>
      </trkpt>
      <trkpt lat="44.92322" lon="15.60023">
        <ele>587</ele>
        <time>2016-07-29T05:57:58Z</time>
      </trkpt>
      <trkpt lat="44.92317" lon="15.60015">
        <ele>587</ele>
        <time>2016-07-29T05:59:58Z</time>
      </trkpt>
      <trkpt lat="44.92313" lon="15.60007">
        <ele>586</ele>
        <time>2016-07-29T06:01:58Z</time>
      </trkpt>
      <trkpt lat="44.92309" lon="15.59999">
        <ele>586</ele>
        <time>2016-07-29T06:03:58Z</time>
      </trkpt>
      <trkpt lat="44.92304" lon="15.5999">
        <ele>586</ele>
        <time>2016-07-29T06:05:58Z</time>
      </trkpt>
      <trkpt lat="44.92299" lon="15.59981">
        <ele>585</ele>
        <time>2016-07-29T06:07:58Z</time>
      </trkpt>
      <trkpt lat="44.92295" lon="15.59972">
        <ele>585</ele>
        <time>2016-07-29T06:09:58Z</time>
      </trkpt>
      <trkpt lat="44.92291" lon="15.59962">
        <ele>585</ele>
        <time>2016-07-29T06:11:58Z</time>
      </trkpt>
      <trkpt lat="44.92287" lon="15.59952">
        <ele>585</ele>
        <time>2016-07-29T06:13:58Z</time>
      </trkpt>
      <trkpt lat="44.92283" lon="15.59942">
        <ele>585</ele>
        <time>2016-07-29T06:15:58Z</time>
      </trkpt>
      <trkpt lat="44.9228" lon="15.59933">
        <ele>585</ele>
        <time>2016-07-29T06:17:58Z</time>
      </trkpt>
      <trkpt lat="44.92277" lon="15.59923">
        <ele>585</ele>
        <time>2016-07-29T06:19:58Z</time>
      </trkpt>
      <trkpt lat="44.92274" lon="15.59913">
        <ele>585</ele>
        <time>2016-07-29T06:21:58Z</time>
      </trkpt>
      <trkpt lat="44.92271" lon="15.59902">
        <ele>586</ele>
        <time>2016-07-29T06:23:58Z</time>
      </trkpt>
      <trkpt lat="44.92269" lon="15.59892">
        <ele>586</ele>
        <time>2016-07-29T06:25:58Z</time>
      </trkpt>
      <trkpt lat="44.92267" lon="15.59882">
        <ele>587</ele>
        <time>2016-07-29T06:27:58Z</time>
      </trkpt>
      <trkpt lat="44.92265" lon="15.59871">
        <ele>587</ele>
        <time>2016-07-29T06:29:58Z</time>
      </trkpt>
      <trkpt lat="44.92264" lon="15.59867">
        <ele>587</ele>
        <time>2016-07-29T06:31:58Z</time>
      </trkpt>
      <trkpt lat="44.92263" lon="15.59863">
        <ele>587</ele>
        <time>2016-07-29T06:33:58Z</time>
      </trkpt>
      <trkpt lat="44.92261" lon="15.5986">
        <ele>587</ele>
        <time>2016-07-29T06:35:58Z</time>
      </trkpt>
      <trkpt lat="44.92259" lon="15.59856">
        <ele>587</ele>
        <time>2016-07-29T06:37:58Z</time>
      </trkpt>
      <trkpt lat="44.92257" lon="15.59853">
        <ele>587</ele>
        <time>2016-07-29T06:39:58Z</time>
      </trkpt>
      <trkpt lat="44.92255" lon="15.5985">
        <ele>587</ele>
        <time>2016-07-29T06:41:58Z</time>
      </trkpt>
      <trkpt lat="44.92253" lon="15.59847">
        <ele>587</ele>
        <time>2016-07-29T06:43:58Z</time>
      </trkpt>
      <trkpt lat="44.9225" lon="15.59845">
        <ele>587</ele>
        <time>2016-07-29T06:45:58Z</time>
      </trkpt>
      <trkpt lat="44.92248" lon="15.59843">
        <ele>587</ele>
        <time>2016-07-29T06:47:58Z</time>
      </trkpt>
      <trkpt lat="44.92245" lon="15.59841">
        <ele>587</ele>
        <time>2016-07-29T06:49:58Z</time>
      </trkpt>
      <trkpt lat="44.92242" lon="15.5984">
        <ele>587</ele>
        <time>2016-07-29T06:51:58Z</time>
      </trkpt>
      <trkpt lat="44.9224" lon="15.59839">
        <ele>587</ele>
        <time>2016-07-29T06:53:58Z</time>
      </trkpt>
      <trkpt lat="44.92237" lon="15.59839">
        <ele>586</ele>
        <time>2016-07-29T06:55:58Z</time>
      </trkpt>
      <trkpt lat="44.92234" lon="15.59838">
        <ele>586</ele>
        <time>2016-07-29T06:57:58Z</time>
      </trkpt>
      <trkpt lat="44.92233" lon="15.59839">
        <ele>586</ele>
        <time>2016-07-29T06:59:58Z</time>
      </trkpt>
      <trkpt lat="44.92231" lon="15.59839">
        <ele>586</ele>
        <time>2016-07-29T07:01:58Z</time>
      </trkpt>
      <trkpt lat="44.92228" lon="15.59841">
        <ele>585</ele>
        <time>2016-07-29T07:03:58Z</time>
      </trkpt>
      <trkpt lat="44.92226" lon="15.59843">
        <ele>585</ele>
        <time>2016-07-29T07:05:58Z</time>
      </trkpt>
      <trkpt lat="44.92223" lon="15.59845">
        <ele>585</ele>
        <time>2016-07-29T07:07:58Z</time>
      </trkpt>
      <trkpt lat="44.9222" lon="15.59847">
        <ele>584</ele>
        <time>2016-07-29T07:09:58Z</time>
      </trkpt>
      <trkpt lat="44.92217" lon="15.59848">
        <ele>584</ele>
        <time>2016-07-29T07:11:58Z</time>
      </trkpt>
      <trkpt lat="44.92214" lon="15.59849">
        <ele>583</ele>
        <time>2016-07-29T07:13:58Z</time>
      </trkpt>
      <trkpt lat="44.92211" lon="15.5985">
        <ele>583</ele>
        <time>2016-07-29T07:15:58Z</time>
      </trkpt>
      <trkpt lat="44.92208" lon="15.5985">
        <ele>583</ele>
        <time>2016-07-29T07:17:58Z</time>
      </trkpt>
      <trkpt lat="44.92205" lon="15.5985">
        <ele>582</ele>
        <time>2016-07-29T07:19:58Z</time>
      </trkpt>
      <trkpt lat="44.92201" lon="15.5985">
        <ele>582</ele>
        <time>2016-07-29T07:21:58Z</time>
      </trkpt>
      <trkpt lat="44.92198" lon="15.59849">
        <ele>582</ele>
        <time>2016-07-29T07:23:58Z</time>
      </trkpt>
      <trkpt lat="44.92195" lon="15.59847">
        <ele>582</ele>
        <time>2016-07-29T07:25:58Z</time>
      </trkpt>
      <trkpt lat="44.92192" lon="15.59846">
        <ele>581</ele>
        <time>2016-07-29T07:27:58Z</time>
      </trkpt>
      <trkpt lat="44.92189" lon="15.59844">
        <ele>581</ele>
        <time>2016-07-29T07:29:58Z</time>
      </trkpt>
      <trkpt lat="44.92187" lon="15.59841">
        <ele>581</ele>
        <time>2016-07-29T07:31:58Z</time>
      </trkpt>
      <trkpt lat="44.92184" lon="15.5984">
        <ele>581</ele>
        <time>2016-07-29T07:33:58Z</time>
      </trkpt>
      <trkpt lat="44.9218" lon="15.59839">
        <ele>581</ele>
        <time>2016-07-29T07:35:58Z</time>
      </trkpt>
      <trkpt lat="44.92177" lon="15.59839">
        <ele>581</ele>
        <time>2016-07-29T07:37:58Z</time>
      </trkpt>
      <trkpt lat="44.92173" lon="15.5984">
        <ele>580</ele>
        <time>2016-07-29T07:39:58Z</time>
      </trkpt>
      <trkpt lat="44.9217" lon="15.59841">
        <ele>580</ele>
        <time>2016-07-29T07:41:58Z</time>
      </trkpt>
      <trkpt lat="44.92166" lon="15.59843">
        <ele>579</ele>
        <time>2016-07-29T07:43:58Z</time>
      </trkpt>
      <trkpt lat="44.92163" lon="15.59845">
        <ele>579</ele>
        <time>2016-07-29T07:45:58Z</time>
      </trkpt>
      <trkpt lat="44.9216" lon="15.59847">
        <ele>578</ele>
        <time>2016-07-29T07:47:58Z</time>
      </trkpt>
      <trkpt lat="44.92157" lon="15.5985">
        <ele>578</ele>
        <time>2016-07-29T07:49:58Z</time>
      </trkpt>
      <trkpt lat="44.92154" lon="15.59853">
        <ele>577</ele>
        <time>2016-07-29T07:51:58Z</time>
      </trkpt>
      <trkpt lat="44.92151" lon="15.59856">
        <ele>577</ele>
        <time>2016-07-29T07:53:58Z</time>
      </trkpt>
      <trkpt lat="44.92148" lon="15.5986">
        <ele>576</ele>
        <time>2016-07-29T07:55:58Z</time>
      </trkpt>
      <trkpt lat="44.92146" lon="15.59864">
        <ele>575</ele>
        <time>2016-07-29T07:57:58Z</time>
      </trkpt>
      <trkpt lat="44.92144" lon="15.59868">
        <ele>575</ele>
        <time>2016-07-29T07:59:58Z</time>
      </trkpt>
      <trkpt lat="44.92142" lon="15.59872">
        <ele>574</ele>
        <time>2016-07-29T08:01:58Z</time>
      </trkpt>
      <trkpt lat="44.9214" lon="15.59876">
        <ele>574</ele>
        <time>2016-07-29T08:03:58Z</time>
      </trkpt>
      <trkpt lat="44.92139" lon="15.59881">
        <ele>573</ele>
        <time>2016-07-29T08:05:58Z</time>
      </trkpt>
      <trkpt lat="44.92138" lon="15.59886">
        <ele>572</ele>
        <time>2016-07-29T08:07:58Z</time>
      </trkpt>
      <trkpt lat="44.92137" lon="15.5989">
        <ele>572</ele>
        <time>2016-07-29T08:09:58Z</time>
      </trkpt>
      <trkpt lat="44.92136" lon="15.59895">
        <ele>571</ele>
        <time>2016-07-29T08:11:58Z</time>
      </trkpt>
      <trkpt lat="44.92136" lon="15.59897">
        <ele>571</ele>
        <time>2016-07-29T08:13:58Z</time>
      </trkpt>
      <trkpt lat="44.92136" lon="15.599">
        <ele>571</ele>
        <time>2016-07-29T08:15:58Z</time>
      </trkpt>
      <trkpt lat="44.92136" lon="15.59905">
        <ele>570</ele>
        <time>2016-07-29T08:17:58Z</time>
      </trkpt>
      <trkpt lat="44.92136" lon="15.59909">
        <ele>570</ele>
        <time>2016-07-29T08:19:58Z</time>
      </trkpt>
      <trkpt lat="44.92151" lon="15.59972">
        <ele>569</ele>
        <time>2016-07-29T08:21:58Z</time>
      </trkpt>
      <trkpt lat="44.92155" lon="15.59998">
        <ele>569</ele>
        <time>2016-07-29T08:23:58Z</time>
      </trkpt>
      <trkpt lat="44.92158" lon="15.60018">
        <ele>568</ele>
        <time>2016-07-29T08:25:58Z</time>
      </trkpt>
      <trkpt lat="44.9216" lon="15.60035">
        <ele>568</ele>
        <time>2016-07-29T08:27:58Z</time>
      </trkpt>
      <trkpt lat="44.92161" lon="15.60056">
        <ele>567</ele>
        <time>2016-07-29T08:29:58Z</time>
      </trkpt>
      <trkpt lat="44.92165" lon="15.60082">
        <ele>567</ele>
        <time>2016-07-29T08:31:58Z</time>
      </trkpt>
      <trkpt lat="44.92169" lon="15.60105">
        <ele>565</ele>
        <time>2016-07-29T08:33:58Z</time>
      </trkpt>
      <trkpt lat="44.92175" lon="15.60128">
        <ele>564</ele>
        <time>2016-07-29T08:35:58Z</time>
      </trkpt>
      <trkpt lat="44.92184" lon="15.60155">
        <ele>563</ele>
        <time>2016-07-29T08:37:58Z</time>
      </trkpt>
      <trkpt lat="44.9219" lon="15.60174">
        <ele>561</ele>
        <time>2016-07-29T08:39:58Z</time>
      </trkpt>
      <trkpt lat="44.9226" lon="15.60238">
        <ele>560</ele>
        <time>2016-07-29T08:41:58Z</time>
      </trkpt>
      <trkpt lat="44.92264" lon="15.60242">
        <ele>561</ele>
        <time>2016-07-29T08:43:58Z</time>
      </trkpt>
      <trkpt lat="44.92269" lon="15.60247">
        <ele>561</ele>
        <time>2016-07-29T08:45:58Z</time>
      </trkpt>
      <trkpt lat="44.92273" lon="15.60252">
        <ele>562</ele>
        <time>2016-07-29T08:47:58Z</time>
      </trkpt>
      <trkpt lat="44.92276" lon="15.60256">
        <ele>561</ele>
        <time>2016-07-29T08:49:58Z</time>
      </trkpt>
      <trkpt lat="44.9228" lon="15.6026">
        <ele>561</ele>
        <time>2016-07-29T08:51:58Z</time>
      </trkpt>
      <trkpt lat="44.92282" lon="15.60265">
        <ele>561</ele>
        <time>2016-07-29T08:53:58Z</time>
      </trkpt>
      <trkpt lat="44.92285" lon="15.6027">
        <ele>560</ele>
        <time>2016-07-29T08:55:58Z</time>
      </trkpt>
      <trkpt lat="44.92337" lon="15.60408">
        <ele>554</ele>
        <time>2016-07-29T08:57:58Z</time>
      </trkpt>
      <trkpt lat="44.92341" lon="15.60417">
        <ele>554</ele>
        <time>2016-07-29T08:59:58Z</time>
      </trkpt>
      <trkpt lat="44.92345" lon="15.60426">
        <ele>554</ele>
        <time>2016-07-29T09:01:58Z</time>
      </trkpt>
      <trkpt lat="44.92349" lon="15.60435">
        <ele>553</ele>
        <time>2016-07-29T09:03:58Z</time>
      </trkpt>
      <trkpt lat="44.92352" lon="15.60445">
        <ele>552</ele>
        <time>2016-07-29T09:05:58Z</time>
      </trkpt>
      <trkpt lat="44.92355" lon="15.60454">
        <ele>552</ele>
        <time>2016-07-29T09:07:58Z</time>
      </trkpt>
      <trkpt lat="44.92357" lon="15.60464">
        <ele>550</ele>
        <time>2016-07-29T09:09:58Z</time>
      </trkpt>
      <trkpt lat="44.9236" lon="15.60474">
        <ele>550</ele>
        <time>2016-07-29T09:11:58Z</time>
      </trkpt>
      <trkpt lat="44.92362" lon="15.60485">
        <ele>548</ele>
        <time>2016-07-29T09:13:58Z</time>
      </trkpt>
      <trkpt lat="44.92364" lon="15.60495">
        <ele>547</ele>
        <time>2016-07-29T09:15:58Z</time>
      </trkpt>
      <trkpt lat="44.92365" lon="15.60505">
        <ele>547</ele>
        <time>2016-07-29T09:17:58Z</time>
      </trkpt>
      <trkpt lat="44.92366" lon="15.60516">
        <ele>546</ele>
        <time>2016-07-29T09:19:58Z</time>
      </trkpt>
      <trkpt lat="44.92367" lon="15.60526">
        <ele>546</ele>
        <time>2016-07-29T09:21:58Z</time>
      </trkpt>
      <trkpt lat="44.92368" lon="15.60537">
        <ele>546</ele>
        <time>2016-07-29T09:23:58Z</time>
      </trkpt>
      <trkpt lat="44.92368" lon="15.60547">
        <ele>545</ele>
        <time>2016-07-29T09:25:58Z</time>
      </trkpt>
      <trkpt lat="44.92377" lon="15.60752">
        <ele>543</ele>
        <time>2016-07-29T09:27:58Z</time>
      </trkpt>
      <trkpt lat="44.92377" lon="15.60756">
        <ele>543</ele>
        <time>2016-07-29T09:29:58Z</time>
      </trkpt>
      <trkpt lat="44.92377" lon="15.60761">
        <ele>543</ele>
        <time>2016-07-29T09:31:58Z</time>
      </trkpt>
      <trkpt lat="44.92377" lon="15.60766">
        <ele>543</ele>
        <time>2016-07-29T09:33:58Z</time>
      </trkpt>
      <trkpt lat="44.92376" lon="15.60771">
        <ele>542</ele>
        <time>2016-07-29T09:35:58Z</time>
      </trkpt>
      <trkpt lat="44.92375" lon="15.60775">
        <ele>542</ele>
        <time>2016-07-29T09:37:58Z</time>
      </trkpt>
      <trkpt lat="44.92374" lon="15.6078">
        <ele>541</ele>
        <time>2016-07-29T09:39:58Z</time>
      </trkpt>
      <trkpt lat="44.92373" lon="15.60784">
        <ele>540</ele>
        <time>2016-07-29T09:41:58Z</time>
      </trkpt>
      <trkpt lat="44.92371" lon="15.60788">
        <ele>539</ele>
        <time>2016-07-29T09:43:58Z</time>
      </trkpt>
      <trkpt lat="44.9237" lon="15.60792">
        <ele>538</ele>
        <time>2016-07-29T09:45:58Z</time>
      </trkpt>
      <trkpt lat="44.92368" lon="15.60796">
        <ele>536</ele>
        <time>2016-07-29T09:47:58Z</time>
      </trkpt>
      <trkpt lat="44.92366" lon="15.608">
        <ele>535</ele>
        <time>2016-07-29T09:49:58Z</time>
      </trkpt>
      <trkpt lat="44.92364" lon="15.60805">
        <ele>534</ele>
        <time>2016-07-29T09:51:58Z</time>
      </trkpt>
      <trkpt lat="44.92362" lon="15.6081">
        <ele>532</ele>
        <time>2016-07-29T09:53:58Z</time>
      </trkpt>
      <trkpt lat="44.92361" lon="15.60814">
        <ele>532</ele>
        <time>2016-07-29T09:55:58Z</time>
      </trkpt>
      <trkpt lat="44.9236" lon="15.60819">
        <ele>531</ele>
        <time>2016-07-29T09:57:58Z</time>
      </trkpt>
      <trkpt lat="44.92359" lon="15.60824">
        <ele>531</ele>
        <time>2016-07-29T09:59:58Z</time>
      </trkpt>
      <trkpt lat="44.92358" lon="15.60829">
        <ele>530</ele>
        <time>2016-07-29T10:01:58Z</time>
      </trkpt>
      <trkpt lat="44.92358" lon="15.60834">
        <ele>530</ele>
        <time>2016-07-29T10:03:58Z</time>
      </trkpt>
      <trkpt lat="44.92358" lon="15.60839">
        <ele>529</ele>
        <time>2016-07-29T10:05:58Z</time>
      </trkpt>
      <trkpt lat="44.92363" lon="15.60938">
        <ele>515</ele>
        <time>2016-07-29T10:07:58Z</time>
      </trkpt>
      <trkpt lat="44.92363" lon="15.60943">
        <ele>514</ele>
        <time>2016-07-29T10:09:58Z</time>
      </trkpt>
      <trkpt lat="44.92364" lon="15.60947">
        <ele>514</ele>
        <time>2016-07-29T10:11:58Z</time>
      </trkpt>
      <trkpt lat="44.92365" lon="15.60952">
        <ele>513</ele>
        <time>2016-07-29T10:13:58Z</time>
      </trkpt>
      <trkpt lat="44.92366" lon="15.60957">
        <ele>512</ele>
        <time>2016-07-29T10:15:58Z</time>
      </trkpt>
      <trkpt lat="44.92367" lon="15.60961">
        <ele>512</ele>
        <time>2016-07-29T10:17:58Z</time>
      </trkpt>
      <trkpt lat="44.92369" lon="15.60965">
        <ele>512</ele>
        <time>2016-07-29T10:19:58Z</time>
      </trkpt>
      <trkpt lat="44.92371" lon="15.60969">
        <ele>512</ele>
        <time>2016-07-29T10:21:58Z</time>
      </trkpt>
      <trkpt lat="44.92373" lon="15.60973">
        <ele>512</ele>
        <time>2016-07-29T10:23:58Z</time>
      </trkpt>
      <trkpt lat="44.92375" lon="15.60976">
        <ele>512</ele>
        <time>2016-07-29T10:25:58Z</time>
      </trkpt>
      <trkpt lat="44.92377" lon="15.6098">
        <ele>512</ele>
        <time>2016-07-29T10:27:58Z</time>
      </trkpt>
      <trkpt lat="44.9238" lon="15.60983">
        <ele>513</ele>
        <time>2016-07-29T10:29:58Z</time>
      </trkpt>
      <trkpt lat="44.92383" lon="15.60985">
        <ele>513</ele>
        <time>2016-07-29T10:31:58Z</time>
      </trkpt>
      <trkpt lat="44.92477" lon="15.61067">
        <ele>521</ele>
        <time>2016-07-29T10:33:58Z</time>
      </trkpt>
      <trkpt lat="44.92503" lon="15.61088">
        <ele>522</ele>
        <time>2016-07-29T10:35:58Z</time>
      </trkpt>
      <trkpt lat="44.92516" lon="15.61105">
        <ele>520</ele>
        <time>2016-07-29T10:37:58Z</time>
      </trkpt>
      <trkpt lat="44.92518" lon="15.61107">
        <ele>520</ele>
        <time>2016-07-29T10:39:58Z</time>
      </trkpt>
      <trkpt lat="44.92538" lon="15.61141">
        <ele>517</ele>
        <time>2016-07-29T10:41:58Z</time>
      </trkpt>
      <trkpt lat="44.92555" lon="15.61176">
        <ele>513</ele>
        <time>2016-07-29T10:43:58Z</time>
      </trkpt>
      <trkpt lat="44.92571" lon="15.61202">
        <ele>512</ele>
        <time>2016-07-29T10:45:58Z</time>
      </trkpt>
      <trkpt lat="44.92584" lon="15.61218">
        <ele>512</ele>
        <time>2016-07-29T10:47:58Z</time>
      </trkpt>
      <trkpt lat="44.92591" lon="15.61229">
        <ele>511</ele>
        <time>2016-07-29T10:49:58Z</time>
      </trkpt>
      <trkpt lat="44.92601" lon="15.61235">
        <ele>512</ele>
        <time>2016-07-29T10:51:58Z</time>
      </trkpt>
      <trkpt lat="44.92606" lon="15.61239">
        <ele>512</ele>
        <time>2016-07-29T10:53:58Z</time>
      </trkpt>
      <trkpt lat="44.92612" lon="15.61243">
        <ele>513</ele>
        <time>2016-07-29T10:55:58Z</time>
      </trkpt>
      <trkpt lat="44.92617" lon="15.61247">
        <ele>513</ele>
        <time>2016-07-29T10:57:58Z</time>
      </trkpt>
      <trkpt lat="44.92623" lon="15.61251">
        <ele>513</ele>
        <time>2016-07-29T10:59:58Z</time>
      </trkpt>
      <trkpt lat="44.92628" lon="15.61256">
        <ele>513</ele>
        <time>2016-07-29T11:01:58Z</time>
      </trkpt>
      <trkpt lat="44.92633" lon="15.61261">
        <ele>513</ele>
        <time>2016-07-29T11:03:58Z</time>
      </trkpt>
      <trkpt lat="44.92638" lon="15.61267">
        <ele>512</ele>
        <time>2016-07-29T11:05:58Z</time>
      </trkpt>
      <trkpt lat="44.92643" lon="15.61273">
        <ele>512</ele>
        <time>2016-07-29T11:07:58Z</time>
      </trkpt>
      <trkpt lat="44.92647" lon="15.61279">
        <ele>511</ele>
        <time>2016-07-29T11:09:58Z</time>
      </trkpt>
      <trkpt lat="44.92652" lon="15.61286">
        <ele>510</ele>
        <time>2016-07-29T11:11:58Z</time>
      </trkpt>
      <trkpt lat="44.92656" lon="15.61292">
        <ele>510</ele>
        <time>2016-07-29T11:13:58Z</time>
      </trkpt>
      <trkpt lat="44.9275" lon="15.61494">
        <ele>499</ele>
        <time>2016-07-29T11:15:58Z</time>
      </trkpt>
      <trkpt lat="44.92765" lon="15.61525">
        <ele>498</ele>
        <time>2016-07-29T11:17:58Z</time>
      </trkpt>
      <trkpt lat="44.9278" lon="15.61554">
        <ele>497</ele>
        <time>2016-07-29T11:19:58Z</time>
      </trkpt>
      <trkpt lat="44.928" lon="15.61596">
        <ele>494</ele>
        <time>2016-07-29T11:21:58Z</time>
      </trkpt>
      <trkpt lat="44.92806" lon="15.61604">
        <ele>495</ele>
        <time>2016-07-29T11:23:58Z</time>
      </trkpt>
      <trkpt lat="44.9281" lon="15.61613">
        <ele>494</ele>
        <time>2016-07-29T11:25:58Z</time>
      </trkpt>
      <trkpt lat="44.92815" lon="15.61622">
        <ele>494</ele>
        <time>2016-07-29T11:27:58Z</time>
      </trkpt>
      <trkpt lat="44.92819" lon="15.61631">
        <ele>494</ele>
        <time>2016-07-29T11:29:58Z</time>
      </trkpt>
      <trkpt lat="44.92823" lon="15.6164">
        <ele>493</ele>
        <time>2016-07-29T11:31:58Z</time>
      </trkpt>
      <trkpt lat="44.92827" lon="15.6165">
        <ele>492</ele>
        <time>2016-07-29T11:33:58Z</time>
      </trkpt>
      <trkpt lat="44.92831" lon="15.61659">
        <ele>492</ele>
        <time>2016-07-29T11:35:58Z</time>
      </trkpt>
      <trkpt lat="44.92832" lon="15.61662">
        <ele>492</ele>
        <time>2016-07-29T11:37:58Z</time>
      </trkpt>
      <trkpt lat="44.92834" lon="15.61669">
        <ele>491</ele>
        <time>2016-07-29T11:39:58Z</time>
      </trkpt>
      <trkpt lat="44.92837" lon="15.61679">
        <ele>491</ele>
        <time>2016-07-29T11:41:58Z</time>
      </trkpt>
      <trkpt lat="44.9284" lon="15.61689">
        <ele>491</ele>
        <time>2016-07-29T11:43:58Z</time>
      </trkpt>
      <trkpt lat="44.92842" lon="15.61699">
        <ele>490</ele>
        <time>2016-07-29T11:45:58Z</time>
      </trkpt>
      <trkpt lat="44.92844" lon="15.61709">
        <ele>490</ele>
        <time>2016-07-29T11:47:58Z</time>
      </trkpt>
      <trkpt lat="44.92846" lon="15.61719">
        <ele>489</ele>
        <time>2016-07-29T11:49:58Z</time>
      </trkpt>
      <trkpt lat="44.92848" lon="15.61729">
        <ele>488</ele>
        <time>2016-07-29T11:51:58Z</time>
      </trkpt>
      <trkpt lat="44.9287" lon="15.61835">
        <ele>482</ele>
        <time>2016-07-29T11:53:58Z</time>
      </trkpt>
      <trkpt lat="44.92873" lon="15.61852">
        <ele>481</ele>
        <time>2016-07-29T11:55:58Z</time>
      </trkpt>
      <trkpt lat="44.92877" lon="15.6187">
        <ele>479</ele>
        <time>2016-07-29T11:57:58Z</time>
      </trkpt>
      <trkpt lat="44.92881" lon="15.61886">
        <ele>478</ele>
        <time>2016-07-29T11:59:58Z</time>
      </trkpt>
      <trkpt lat="44.92885" lon="15.61903">
        <ele>477</ele>
        <time>2016-07-29T12:01:58Z</time>
      </trkpt>
      <trkpt lat="44.9289" lon="15.6192">
        <ele>476</ele>
        <time>2016-07-29T12:03:58Z</time>
      </trkpt>
      <trkpt lat="44.92895" lon="15.61936">
        <ele>475</ele>
        <time>2016-07-29T12:05:58Z</time>
      </trkpt>
      <trkpt lat="44.929" lon="15.61953">
        <ele>475</ele>
        <time>2016-07-29T12:07:58Z</time>
      </trkpt>
      <trkpt lat="44.92906" lon="15.61969">
        <ele>474</ele>
        <time>2016-07-29T12:09:58Z</time>
      </trkpt>
      <trkpt lat="44.92911" lon="15.61985">
        <ele>473</ele>
        <time>2016-07-29T12:11:58Z</time>
      </trkpt>
      <trkpt lat="44.92917" lon="15.62">
        <ele>473</ele>
        <time>2016-07-29T12:13:58Z</time>
      </trkpt>
      <trkpt lat="44.92924" lon="15.62016">
        <ele>473</ele>
        <time>2016-07-29T12:15:58Z</time>
      </trkpt>
      <trkpt lat="44.9293" lon="15.62031">
        <ele>472</ele>
        <time>2016-07-29T12:17:58Z</time>
      </trkpt>
      <trkpt lat="44.92937" lon="15.62046">
        <ele>471</ele>
        <time>2016-07-29T12:19:58Z</time>
      </trkpt>
      <trkpt lat="44.92944" lon="15.62061">
        <ele>470</ele>
        <time>2016-07-29T12:21:58Z</time>
      </trkpt>
      <trkpt lat="44.92951" lon="15.62075">
        <ele>470</ele>
        <time>2016-07-29T12:23:58Z</time>
      </trkpt>
      <trkpt lat="44.92994" lon="15.62145">
        <ele>467</ele>
        <time>2016-07-29T12:25:58Z</time>
      </trkpt>
      <trkpt lat="44.93015" lon="15.6218">
        <ele>464</ele>
        <time>2016-07-29T12:27:58Z</time>
      </trkpt>
      <trkpt lat="44.93076" lon="15.62246">
        <ele>459</ele>
        <time>2016-07-29T12:29:58Z</time>
      </trkpt>
      <trkpt lat="44.93187" lon="15.62345">
        <ele>452</ele>
        <time>2016-07-29T12:31:58Z</time>
      </trkpt>
      <trkpt lat="44.93254" lon="15.62411">
        <ele>448</ele>
        <time>2016-07-29T12:33:58Z</time>
      </trkpt>
      <trkpt lat="44.9328" lon="15.62431">
        <ele>446</ele>
        <time>2016-07-29T12:35:58Z</time>
      </trkpt>
      <trkpt lat="44.93284" lon="15.62432">
        <ele>446</ele>
        <time>2016-07-29T12:37:58Z</time>
      </trkpt>
      <trkpt lat="44.93288" lon="15.62435">
        <ele>446</ele>
        <time>2016-07-29T12:39:58Z</time>
      </trkpt>
      <trkpt lat="44.93292" lon="15.62437">
        <ele>446</ele>
        <time>2016-07-29T12:41:58Z</time>
      </trkpt>
      <trkpt lat="44.93296" lon="15.6244">
        <ele>445</ele>
        <time>2016-07-29T12:43:58Z</time>
      </trkpt>
      <trkpt lat="44.933" lon="15.62444">
        <ele>445</ele>
        <time>2016-07-29T12:45:58Z</time>
      </trkpt>
      <trkpt lat="44.93303" lon="15.62447">
        <ele>444</ele>
        <time>2016-07-29T12:47:58Z</time>
      </trkpt>
      <trkpt lat="44.93306" lon="15.62451">
        <ele>444</ele>
        <time>2016-07-29T12:49:58Z</time>
      </trkpt>
      <trkpt lat="44.93309" lon="15.62455">
        <ele>443</ele>
        <time>2016-07-29T12:51:58Z</time>
      </trkpt>
      <trkpt lat="44.93312" lon="15.62459">
        <ele>442</ele>
        <time>2016-07-29T12:53:58Z</time>
      </trkpt>
      <trkpt lat="44.93314" lon="15.62463">
        <ele>442</ele>
        <time>2016-07-29T12:55:58Z</time>
      </trkpt>
      <trkpt lat="44.93316" lon="15.62467">
        <ele>441</ele>
        <time>2016-07-29T12:57:58Z</time>
      </trkpt>
      <trkpt lat="44.93319" lon="15.62472">
        <ele>440</ele>
        <time>2016-07-29T12:59:58Z</time>
      </trkpt>
      <trkpt lat="44.93321" lon="15.62476">
        <ele>439</ele>
        <time>2016-07-29T13:01:58Z</time>
      </trkpt>
      <trkpt lat="44.9336" lon="15.62517">
        <ele>435</ele>
        <time>2016-07-29T13:03:58Z</time>
      </trkpt>
      <trkpt lat="44.93438" lon="15.6259">
        <ele>429</ele>
        <time>2016-07-29T13:05:58Z</time>
      </trkpt>
      <trkpt lat="44.93442" lon="15.62592">
        <ele>428</ele>
        <time>2016-07-29T13:07:58Z</time>
      </trkpt>
      <trkpt lat="44.93446" lon="15.62594">
        <ele>428</ele>
        <time>2016-07-29T13:09:58Z</time>
      </trkpt>
      <trkpt lat="44.93449" lon="15.62596">
        <ele>427</ele>
        <time>2016-07-29T13:11:58Z</time>
      </trkpt>
      <trkpt lat="44.93453" lon="15.62597">
        <ele>427</ele>
        <time>2016-07-29T13:13:58Z</time>
      </trkpt>
      <trkpt lat="44.93457" lon="15.62598">
        <ele>427</ele>
        <time>2016-07-29T13:15:58Z</time>
      </trkpt>
      <trkpt lat="44.93461" lon="15.62599">
        <ele>427</ele>
        <time>2016-07-29T13:17:58Z</time>
      </trkpt>
      <trkpt lat="44.93465" lon="15.62599">
        <ele>427</ele>
        <time>2016-07-29T13:19:58Z</time>
      </trkpt>
      <trkpt lat="44.93469" lon="15.62599">
        <ele>427</ele>
        <time>2016-07-29T13:21:58Z</time>
      </trkpt>
      <trkpt lat="44.93472" lon="15.62599">
        <ele>427</ele>
        <time>2016-07-29T13:23:58Z</time>
      </trkpt>
      <trkpt lat="44.93477" lon="15.62598">
        <ele>428</ele>
        <time>2016-07-29T13:25:58Z</time>
      </trkpt>
      <trkpt lat="44.93481" lon="15.62597">
        <ele>428</ele>
        <time>2016-07-29T13:27:58Z</time>
      </trkpt>
      <trkpt lat="44.93485" lon="15.62596">
        <ele>428</ele>
        <time>2016-07-29T13:29:58Z</time>
      </trkpt>
      <trkpt lat="44.93489" lon="15.62594">
        <ele>429</ele>
        <time>2016-07-29T13:31:58Z</time>
      </trkpt>
      <trkpt lat="44.93493" lon="15.62591">
        <ele>430</ele>
        <time>2016-07-29T13:33:58Z</time>
      </trkpt>
      <trkpt lat="44.93495" lon="15.62589">
        <ele>431</ele>
        <time>2016-07-29T13:35:58Z</time>
      </trkpt>
      <trkpt lat="44.93498" lon="15.62588">
        <ele>431</ele>
        <time>2016-07-29T13:37:58Z</time>
      </trkpt>
      <trkpt lat="44.93501" lon="15.62586">
        <ele>431</ele>
        <time>2016-07-29T13:39:58Z</time>
      </trkpt>
      <trkpt lat="44.93503" lon="15.62586">
        <ele>432</ele>
        <time>2016-07-29T13:41:58Z</time>
      </trkpt>
      <trkpt lat="44.93506" lon="15.62585">
        <ele>432</ele>
        <time>2016-07-29T13:43:58Z</time>
      </trkpt>
      <trkpt lat="44.93509" lon="15.62585">
        <ele>432</ele>
        <time>2016-07-29T13:45:58Z</time>
      </trkpt>
      <trkpt lat="44.93512" lon="15.62585">
        <ele>433</ele>
        <time>2016-07-29T13:47:58Z</time>
      </trkpt>
      <trkpt lat="44.93515" lon="15.62585">
        <ele>433</ele>
        <time>2016-07-29T13:49:58Z</time>
      </trkpt>
      <trkpt lat="44.93518" lon="15.62586">
        <ele>433</ele>
        <time>2016-07-29T13:51:58Z</time>
      </trkpt>
      <trkpt lat="44.93521" lon="15.62587">
        <ele>433</ele>
        <time>2016-07-29T13:53:58Z</time>
      </trkpt>
      <trkpt lat="44.93523" lon="15.62589">
        <ele>433</ele>
        <time>2016-07-29T13:55:58Z</time>
      </trkpt>
      <trkpt lat="44.93526" lon="15.62591">
        <ele>432</ele>
        <time>2016-07-29T13:57:58Z</time>
      </trkpt>
      <trkpt lat="44.93529" lon="15.62593">
        <ele>432</ele>
        <time>2016-07-29T13:59:58Z</time>
      </trkpt>
      <trkpt lat="44.93531" lon="15.62595">
        <ele>432</ele>
        <time>2016-07-29T14:01:58Z</time>
      </trkpt>
      <trkpt lat="44.93533" lon="15.62598">
        <ele>432</ele>
        <time>2016-07-29T14:03:58Z</time>
      </trkpt>
      <trkpt lat="44.93535" lon="15.62601">
        <ele>431</ele>
        <time>2016-07-29T14:05:58Z</time>
      </trkpt>
      <trkpt lat="44.93537" lon="15.62605">
        <ele>430</ele>
        <time>2016-07-29T14:07:58Z</time>
      </trkpt>
      <trkpt lat="44.93539" lon="15.62611">
        <ele>429</ele>
        <time>2016-07-29T14:09:58Z</time>
      </trkpt>
      <trkpt lat="44.93541" lon="15.62618">
        <ele>428</ele>
        <time>2016-07-29T14:11:58Z</time>
      </trkpt>
      <trkpt lat="44.93544" lon="15.62624">
        <ele>427</ele>
        <time>2016-07-29T14:13:58Z</time>
      </trkpt>
      <trkpt lat="44.93547" lon="15.6263">
        <ele>426</ele>
        <time>2016-07-29T14:15:58Z</time>
      </trkpt>
      <trkpt lat="44.93549" lon="15.62636">
        <ele>425</ele>
        <time>2016-07-29T14:17:58Z</time>
      </trkpt>
      <trkpt lat="44.93553" lon="15.62641">
        <ele>425</ele>
        <time>2016-07-29T14:19:58Z</time>
      </trkpt>
      <trkpt lat="44.93556" lon="15.62647">
        <ele>424</ele>
        <time>2016-07-29T14:21:58Z</time>
      </trkpt>
      <trkpt lat="44.93559" lon="15.62652">
        <ele>423</ele>
        <time>2016-07-29T14:23:58Z</time>
      </trkpt>
      <trkpt lat="44.93563" lon="15.62657">
        <ele>423</ele>
        <time>2016-07-29T14:25:58Z</time>
      </trkpt>
      <trkpt lat="44.93566" lon="15.6266">
        <ele>423</ele>
        <time>2016-07-29T14:27:58Z</time>
      </trkpt>
      <trkpt lat="44.93567" lon="15.62661">
        <ele>423</ele>
        <time>2016-07-29T14:29:58Z</time>
      </trkpt>
      <trkpt lat="44.93571" lon="15.62666">
        <ele>422</ele>
        <time>2016-07-29T14:31:58Z</time>
      </trkpt>
      <trkpt lat="44.93575" lon="15.6267">
        <ele>422</ele>
        <time>2016-07-29T14:33:58Z</time>
      </trkpt>
      <trkpt lat="44.9358" lon="15.62674">
        <ele>422</ele>
        <time>2016-07-29T14:35:58Z</time>
      </trkpt>
      <trkpt lat="44.93584" lon="15.62677">
        <ele>421</ele>
        <time>2016-07-29T14:37:58Z</time>
      </trkpt>
      <trkpt lat="44.93589" lon="15.6268">
        <ele>421</ele>
        <time>2016-07-29T14:39:58Z</time>
      </trkpt>
      <trkpt lat="44.93594" lon="15.62683">
        <ele>421</ele>
        <time>2016-07-29T14:41:58Z</time>
      </trkpt>
      <trkpt lat="44.93606" lon="15.62691">
        <ele>419</ele>
        <time>2016-07-29T14:43:58Z</time>
      </trkpt>
      <trkpt lat="44.93618" lon="15.62698">
        <ele>418</ele>
        <time>2016-07-29T14:45:58Z</time>
      </trkpt>
      <trkpt lat="44.93631" lon="15.62705">
        <ele>417</ele>
        <time>2016-07-29T14:47:58Z</time>
      </trkpt>
      <trkpt lat="44.93644" lon="15.62711">
        <ele>417</ele>
        <time>2016-07-29T14:49:58Z</time>
      </trkpt>
      <trkpt lat="44.93656" lon="15.62717">
        <ele>416</ele>
        <time>2016-07-29T14:51:58Z</time>
      </trkpt>
      <trkpt lat="44.93669" lon="15.62723">
        <ele>416</ele>
        <time>2016-07-29T14:53:58Z</time>
      </trkpt>
      <trkpt lat="44.9368" lon="15.62727">
        <ele>415</ele>
        <time>2016-07-29T14:55:58Z</time>
      </trkpt>
      <trkpt lat="44.93691" lon="15.62732">
        <ele>414</ele>
        <time>2016-07-29T14:57:58Z</time>
      </trkpt>
      <trkpt lat="44.93702" lon="15.62736">
        <ele>413</ele>
        <time>2016-07-29T14:59:58Z</time>
      </trkpt>
      <trkpt lat="44.93713" lon="15.6274">
        <ele>413</ele>
        <time>2016-07-29T15:01:58Z</time>
      </trkpt>
      <trkpt lat="44.93724" lon="15.62741">
        <ele>413</ele>
        <time>2016-07-29T15:03:58Z</time>
      </trkpt>
      <trkpt lat="44.93738" lon="15.62748">
        <ele>412</ele>
        <time>2016-07-29T15:05:58Z</time>
      </trkpt>
      <trkpt lat="44.93749" lon="15.62753">
        <ele>411</ele>
        <time>2016-07-29T15:07:58Z</time>
      </trkpt>
      <trkpt lat="44.93758" lon="15.62759">
        <ele>411</ele>
        <time>2016-07-29T15:09:58Z</time>
      </trkpt>
      <trkpt lat="44.93766" lon="15.62765">
        <ele>410</ele>
        <time>2016-07-29T15:11:58Z</time>
      </trkpt>
      <trkpt lat="44.93773" lon="15.62772">
        <ele>409</ele>
        <time>2016-07-29T15:13:58Z</time>
      </trkpt>
      <trkpt lat="44.9378" lon="15.62778">
        <ele>408</ele>
        <time>2016-07-29T15:15:58Z</time>
      </trkpt>
      <trkpt lat="44.93791" lon="15.62784">
        <ele>408</ele>
        <time>2016-07-29T15:17:58Z</time>
      </trkpt>
      <trkpt lat="44.93794" lon="15.62786">
        <ele>408</ele>
        <time>2016-07-29T15:19:58Z</time>
      </trkpt>
      <trkpt lat="44.93796" lon="15.62789">
        <ele>408</ele>
        <time>2016-07-29T15:21:58Z</time>
      </trkpt>
      <trkpt lat="44.93797" lon="15.62792">
        <ele>408</ele>
        <time>2016-07-29T15:23:58Z</time>
      </trkpt>
      <trkpt lat="44.93798" lon="15.62795">
        <ele>407</ele>
        <time>2016-07-29T15:25:58Z</time>
      </trkpt>
      <trkpt lat="44.93798" lon="15.62799">
        <ele>406</ele>
        <time>2016-07-29T15:27:58Z</time>
      </trkpt>
      <trkpt lat="44.93798" lon="15.62806">
        <ele>405</ele>
        <time>2016-07-29T15:29:58Z</time>
      </trkpt>
      <trkpt lat="44.93798" lon="15.62806">
        <ele>405</ele>
        <time>2016-07-29T15:31:58Z</time>
      </trkpt>
      <trkpt lat="44.93755" lon="15.6279">
        <ele>403</ele>
        <time>2016-07-29T15:33:58Z</time>
      </trkpt>
      <trkpt lat="44.9373" lon="15.62783">
        <ele>403</ele>
        <time>2016-07-29T15:35:58Z</time>
      </trkpt>
      <trkpt lat="44.93719" lon="15.62781">
        <ele>403</ele>
        <time>2016-07-29T15:37:58Z</time>
      </trkpt>
      <trkpt lat="44.9363" lon="15.62773">
        <ele>400</ele>
        <time>2016-07-29T15:39:58Z</time>
      </trkpt>
      <trkpt lat="44.93612" lon="15.6277">
        <ele>400</ele>
        <time>2016-07-29T15:41:58Z</time>
      </trkpt>
      <trkpt lat="44.93596" lon="15.62765">
        <ele>400</ele>
        <time>2016-07-29T15:43:58Z</time>
      </trkpt>
      <trkpt lat="44.93579" lon="15.62758">
        <ele>400</ele>
        <time>2016-07-29T15:45:58Z</time>
      </trkpt>
      <trkpt lat="44.93548" lon="15.6274">
        <ele>398</ele>
        <time>2016-07-29T15:47:58Z</time>
      </trkpt>
      <trkpt lat="44.93488" lon="15.62697">
        <ele>400</ele>
        <time>2016-07-29T15:49:58Z</time>
      </trkpt>
      <trkpt lat="44.93458" lon="15.62679">
        <ele>402</ele>
        <time>2016-07-29T15:51:58Z</time>
      </trkpt>
      <trkpt lat="44.93442" lon="15.62672">
        <ele>402</ele>
        <time>2016-07-29T15:53:58Z</time>
      </trkpt>
      <trkpt lat="44.93329" lon="15.62631">
        <ele>400</ele>
        <time>2016-07-29T15:55:58Z</time>
      </trkpt>
      <trkpt lat="44.93278" lon="15.62609">
        <ele>399</ele>
        <time>2016-07-29T15:57:58Z</time>
      </trkpt>
      <trkpt lat="44.9319" lon="15.62562">
        <ele>397</ele>
        <time>2016-07-29T15:59:58Z</time>
      </trkpt>
      <trkpt lat="44.93172" lon="15.62555">
        <ele>395</ele>
        <time>2016-07-29T16:01:58Z</time>
      </trkpt>
      <trkpt lat="44.93154" lon="15.62549">
        <ele>393</ele>
        <time>2016-07-29T16:03:58Z</time>
      </trkpt>
      <trkpt lat="44.93136" lon="15.62547">
        <ele>388</ele>
        <time>2016-07-29T16:05:58Z</time>
      </trkpt>
      <trkpt lat="44.93117" lon="15.62547">
        <ele>383</ele>
        <time>2016-07-29T16:07:58Z</time>
      </trkpt>
      <trkpt lat="44.93079" lon="15.6255">
        <ele>374</ele>
        <time>2016-07-29T16:09:58Z</time>
      </trkpt>
      <trkpt lat="44.93044" lon="15.62553">
        <ele>381</ele>
        <time>2016-07-29T16:11:58Z</time>
      </trkpt>
      <trkpt lat="44.93025" lon="15.62552">
        <ele>385</ele>
        <time>2016-07-29T16:13:58Z</time>
      </trkpt>
      <trkpt lat="44.93007" lon="15.62548">
        <ele>388</ele>
        <time>2016-07-29T16:15:58Z</time>
      </trkpt>
      <trkpt lat="44.92992" lon="15.62543">
        <ele>391</ele>
        <time>2016-07-29T16:17:58Z</time>
      </trkpt>
      <trkpt lat="44.92988" lon="15.62541">
        <ele>391</ele>
        <time>2016-07-29T16:19:58Z</time>
      </trkpt>
      <trkpt lat="44.92933" lon="15.62516">
        <ele>397</ele>
        <time>2016-07-29T16:21:58Z</time>
      </trkpt>
      <trkpt lat="44.92896" lon="15.62503">
        <ele>400</ele>
        <time>2016-07-29T16:23:58Z</time>
      </trkpt>
      <trkpt lat="44.92859" lon="15.62496">
        <ele>404</ele>
        <time>2016-07-29T16:25:58Z</time>
      </trkpt>
      <trkpt lat="44.92823" lon="15.62493">
        <ele>410</ele>
        <time>2016-07-29T16:27:58Z</time>
      </trkpt>
      <trkpt lat="44.92805" lon="15.6249">
        <ele>413</ele>
        <time>2016-07-29T16:29:58Z</time>
      </trkpt>
      <trkpt lat="44.92771" lon="15.62481">
        <ele>417</ele>
        <time>2016-07-29T16:31:58Z</time>
      </trkpt>
      <trkpt lat="44.92737" lon="15.62468">
        <ele>418</ele>
        <time>2016-07-29T16:33:58Z</time>
      </trkpt>
      <trkpt lat="44.92635" lon="15.62423">
        <ele>422</ele>
        <time>2016-07-29T16:35:58Z</time>
      </trkpt>
      <trkpt lat="44.92597" lon="15.62408">
        <ele>426</ele>
        <time>2016-07-29T16:37:58Z</time>
      </trkpt>
      <trkpt lat="44.92578" lon="15.62402">
        <ele>428</ele>
        <time>2016-07-29T16:39:58Z</time>
      </trkpt>
      <trkpt lat="44.9252" lon="15.62389">
        <ele>439</ele>
        <time>2016-07-29T16:41:58Z</time>
      </trkpt>
      <trkpt lat="44.92501" lon="15.62382">
        <ele>442</ele>
        <time>2016-07-29T16:43:58Z</time>
      </trkpt>
      <trkpt lat="44.92484" lon="15.62372">
        <ele>445</ele>
        <time>2016-07-29T16:45:58Z</time>
      </trkpt>
      <trkpt lat="44.92468" lon="15.6236">
        <ele>447</ele>
        <time>2016-07-29T16:47:58Z</time>
      </trkpt>
      <trkpt lat="44.92452" lon="15.62344">
        <ele>450</ele>
        <time>2016-07-29T16:49:58Z</time>
      </trkpt>
      <trkpt lat="44.92439" lon="15.62326">
        <ele>451</ele>
        <time>2016-07-29T16:51:58Z</time>
      </trkpt>
      <trkpt lat="44.92427" lon="15.62306">
        <ele>451</ele>
        <time>2016-07-29T16:53:58Z</time>
      </trkpt>
      <trkpt lat="44.92417" lon="15.62285">
        <ele>452</ele>
        <time>2016-07-29T16:55:58Z</time>
      </trkpt>
      <trkpt lat="44.92408" lon="15.62262">
        <ele>452</ele>
        <time>2016-07-29T16:57:58Z</time>
      </trkpt>
      <trkpt lat="44.92401" lon="15.62237">
        <ele>452</ele>
        <time>2016-07-29T16:59:58Z</time>
      </trkpt>
      <trkpt lat="44.92396" lon="15.62212">
        <ele>450</ele>
        <time>2016-07-29T17:01:58Z</time>
      </trkpt>
      <trkpt lat="44.92394" lon="15.62186">
        <ele>447</ele>
        <time>2016-07-29T17:03:58Z</time>
      </trkpt>
      <trkpt lat="44.92393" lon="15.62133">
        <ele>444</ele>
        <time>2016-07-29T17:05:58Z</time>
      </trkpt>
      <trkpt lat="44.92394" lon="15.62055">
        <ele>443</ele>
        <time>2016-07-29T17:07:58Z</time>
      </trkpt>
      <trkpt lat="44.92391" lon="15.6203">
        <ele>443</ele>
        <time>2016-07-29T17:09:58Z</time>
      </trkpt>
      <trkpt lat="44.92387" lon="15.62006">
        <ele>444</ele>
        <time>2016-07-29T17:11:58Z</time>
      </trkpt>
      <trkpt lat="44.9238" lon="15.61983">
        <ele>445</ele>
        <time>2016-07-29T17:13:58Z</time>
      </trkpt>
      <trkpt lat="44.92371" lon="15.61962">
        <ele>446</ele>
        <time>2016-07-29T17:15:58Z</time>
      </trkpt>
      <trkpt lat="44.92371" lon="15.61961">
        <ele>446</ele>
        <time>2016-07-29T17:17:58Z</time>
      </trkpt>
      <trkpt lat="44.9236" lon="15.61941">
        <ele>447</ele>
        <time>2016-07-29T17:19:58Z</time>
      </trkpt>
      <trkpt lat="44.92347" lon="15.61923">
        <ele>448</ele>
        <time>2016-07-29T17:21:58Z</time>
      </trkpt>
      <trkpt lat="44.92318" lon="15.61889">
        <ele>451</ele>
        <time>2016-07-29T17:23:58Z</time>
      </trkpt>
      <trkpt lat="44.9229" lon="15.61854">
        <ele>454</ele>
        <time>2016-07-29T17:25:58Z</time>
      </trkpt>
      <trkpt lat="44.92278" lon="15.61834">
        <ele>454</ele>
        <time>2016-07-29T17:27:58Z</time>
      </trkpt>
      <trkpt lat="44.92268" lon="15.61812">
        <ele>456</ele>
        <time>2016-07-29T17:29:58Z</time>
      </trkpt>
      <trkpt lat="44.92258" lon="15.61789">
        <ele>458</ele>
        <time>2016-07-29T17:31:58Z</time>
      </trkpt>
      <trkpt lat="44.9225" lon="15.61764">
        <ele>461</ele>
        <time>2016-07-29T17:33:58Z</time>
      </trkpt>
      <trkpt lat="44.92234" lon="15.6168">
        <ele>462</ele>
        <time>2016-07-29T17:35:58Z</time>
      </trkpt>
      <trkpt lat="44.92226" lon="15.61652">
        <ele>462</ele>
        <time>2016-07-29T17:37:58Z</time>
      </trkpt>
      <trkpt lat="44.92217" lon="15.61626">
        <ele>462</ele>
        <time>2016-07-29T17:39:58Z</time>
      </trkpt>
      <trkpt lat="44.92208" lon="15.61602">
        <ele>463</ele>
        <time>2016-07-29T17:41:58Z</time>
      </trkpt>
      <trkpt lat="44.92207" lon="15.61601">
        <ele>463</ele>
        <time>2016-07-29T17:43:58Z</time>
      </trkpt>
      <trkpt lat="44.92195" lon="15.61577">
        <ele>465</ele>
        <time>2016-07-29T17:45:58Z</time>
      </trkpt>
      <trkpt lat="44.92182" lon="15.61555">
        <ele>466</ele>
        <time>2016-07-29T17:47:58Z</time>
      </trkpt>
      <trkpt lat="44.92115" lon="15.6145">
        <ele>478</ele>
        <time>2016-07-29T17:49:58Z</time>
      </trkpt>
      <trkpt lat="44.92089" lon="15.61407">
        <ele>485</ele>
        <time>2016-07-29T17:51:58Z</time>
      </trkpt>
      <trkpt lat="44.9208" lon="15.61382">
        <ele>486</ele>
        <time>2016-07-29T17:53:58Z</time>
      </trkpt>
      <trkpt lat="44.92052" lon="15.61279">
        <ele>486</ele>
        <time>2016-07-29T17:55:58Z</time>
      </trkpt>
      <trkpt lat="44.92044" lon="15.61255">
        <ele>487</ele>
        <time>2016-07-29T17:57:58Z</time>
      </trkpt>
      <trkpt lat="44.92033" lon="15.61233">
        <ele>487</ele>
        <time>2016-07-29T17:59:58Z</time>
      </trkpt>
      <trkpt lat="44.9202" lon="15.61214">
        <ele>489</ele>
        <time>2016-07-29T18:01:58Z</time>
      </trkpt>
      <trkpt lat="44.92009" lon="15.61203">
        <ele>491</ele>
        <time>2016-07-29T18:03:58Z</time>
      </trkpt>
      <trkpt lat="44.92004" lon="15.61198">
        <ele>491</ele>
        <time>2016-07-29T18:05:58Z</time>
      </trkpt>
      <trkpt lat="44.91987" lon="15.61185">
        <ele>493</ele>
        <time>2016-07-29T18:07:58Z</time>
      </trkpt>
      <trkpt lat="44.9197" lon="15.61176">
        <ele>494</ele>
        <time>2016-07-29T18:09:58Z</time>
      </trkpt>
      <trkpt lat="44.91951" lon="15.61169">
        <ele>496</ele>
        <time>2016-07-29T18:11:58Z</time>
      </trkpt>
      <trkpt lat="44.91895" lon="15.61154">
        <ele>505</ele>
        <time>2016-07-29T18:13:58Z</time>
      </trkpt>
      <trkpt lat="44.91876" lon="15.61147">
        <ele>507</ele>
        <time>2016-07-29T18:15:58Z</time>
      </trkpt>
      <trkpt lat="44.91858" lon="15.61139">
        <ele>509</ele>
        <time>2016-07-29T18:17:58Z</time>
      </trkpt>
      <trkpt lat="44.9184" lon="15.61128">
        <ele>511</ele>
        <time>2016-07-29T18:19:58Z</time>
      </trkpt>
      <trkpt lat="44.91804" lon="15.61103">
        <ele>511</ele>
        <time>2016-07-29T18:21:58Z</time>
      </trkpt>
      <trkpt lat="44.91752" lon="15.61058">
        <ele>512</ele>
        <time>2016-07-29T18:23:58Z</time>
      </trkpt>
      <trkpt lat="44.91719" lon="15.61024">
        <ele>514</ele>
        <time>2016-07-29T18:25:58Z</time>
      </trkpt>
      <trkpt lat="44.91704" lon="15.61005">
        <ele>515</ele>
        <time>2016-07-29T18:27:58Z</time>
      </trkpt>
      <trkpt lat="44.91689" lon="15.60986">
        <ele>515</ele>
        <time>2016-07-29T18:29:58Z</time>
      </trkpt>
      <trkpt lat="44.91665" lon="15.60951">
        <ele>515</ele>
        <time>2016-07-29T18:31:58Z</time>
      </trkpt>
      <trkpt lat="44.91661" lon="15.60946">
        <ele>516</ele>
        <time>2016-07-29T18:33:58Z</time>
      </trkpt>
      <trkpt lat="44.91626" lon="15.60882">
        <ele>518</ele>
        <time>2016-07-29T18:35:58Z</time>
      </trkpt>
      <trkpt lat="44.91587" lon="15.60803">
        <ele>524</ele>
        <time>2016-07-29T18:37:58Z</time>
      </trkpt>
      <trkpt lat="44.91575" lon="15.60779">
        <ele>525</ele>
        <time>2016-07-29T18:39:58Z</time>
      </trkpt>
      <trkpt lat="44.91552" lon="15.60744">
        <ele>527</ele>
        <time>2016-07-29T18:41:58Z</time>
      </trkpt>
      <trkpt lat="44.9154" lon="15.60729">
        <ele>528</ele>
        <time>2016-07-29T18:43:58Z</time>
      </trkpt>
      <trkpt lat="44.91519" lon="15.60709">
        <ele>529</ele>
        <time>2016-07-29T18:45:58Z</time>
      </trkpt>
      <trkpt lat="44.91514" lon="15.60704">
        <ele>529</ele>
        <time>2016-07-29T18:47:58Z</time>
      </trkpt>
      <trkpt lat="44.91503" lon="15.60694">
        <ele>530</ele>
        <time>2016-07-29T18:49:58Z</time>
      </trkpt>
      <trkpt lat="44.91501" lon="15.60693">
        <ele>530</ele>
        <time>2016-07-29T18:51:58Z</time>
      </trkpt>
      <trkpt lat="44.91473" lon="15.60676">
        <ele>531</ele>
        <time>2016-07-29T18:53:58Z</time>
      </trkpt>
      <trkpt lat="44.91459" lon="15.6067">
        <ele>531</ele>
        <time>2016-07-29T18:55:58Z</time>
      </trkpt>
      <trkpt lat="44.9143" lon="15.60661">
        <ele>532</ele>
        <time>2016-07-29T18:57:58Z</time>
      </trkpt>
      <trkpt lat="44.91426" lon="15.6066">
        <ele>532</ele>
        <time>2016-07-29T18:59:58Z</time>
      </trkpt>
      <trkpt lat="44.91399" lon="15.60658">
        <ele>532</ele>
        <time>2016-07-29T19:01:58Z</time>
      </trkpt>
      <trkpt lat="44.91384" lon="15.60659">
        <ele>532</ele>
        <time>2016-07-29T19:03:58Z</time>
      </trkpt>
      <trkpt lat="44.91368" lon="15.60661">
        <ele>532</ele>
        <time>2016-07-29T19:05:58Z</time>
      </trkpt>
      <trkpt lat="44.91353" lon="15.60666">
        <ele>533</ele>
        <time>2016-07-29T19:07:58Z</time>
      </trkpt>
      <trkpt lat="44.91338" lon="15.60671">
        <ele>533</ele>
        <time>2016-07-29T19:09:58Z</time>
      </trkpt>
      <trkpt lat="44.91323" lon="15.60679">
        <ele>533</ele>
        <time>2016-07-29T19:11:58Z</time>
      </trkpt>
      <trkpt lat="44.913" lon="15.60694">
        <ele>533</ele>
        <time>2016-07-29T19:13:58Z</time>
      </trkpt>
      <trkpt lat="44.91294" lon="15.60698">
        <ele>533</ele>
        <time>2016-07-29T19:15:58Z</time>
      </trkpt>
      <trkpt lat="44.9128" lon="15.60709">
        <ele>533</ele>
        <time>2016-07-29T19:17:58Z</time>
      </trkpt>
      <trkpt lat="44.91267" lon="15.60722">
        <ele>534</ele>
        <time>2016-07-29T19:19:58Z</time>
      </trkpt>
      <trkpt lat="44.91206" lon="15.60793">
        <ele>534</ele>
        <time>2016-07-29T19:21:58Z</time>
      </trkpt>
      <trkpt lat="44.9118" lon="15.60818">
        <ele>535</ele>
        <time>2016-07-29T19:23:58Z</time>
      </trkpt>
      <trkpt lat="44.9116" lon="15.60833">
        <ele>535</ele>
        <time>2016-07-29T19:25:58Z</time>
      </trkpt>
      <trkpt lat="44.91154" lon="15.60838">
        <ele>534</ele>
        <time>2016-07-29T19:27:58Z</time>
      </trkpt>
      <trkpt lat="44.91142" lon="15.60846">
        <ele>533</ele>
        <time>2016-07-29T19:29:58Z</time>
      </trkpt>
      <trkpt lat="44.9109" lon="15.60872">
        <ele>529</ele>
        <time>2016-07-29T19:31:58Z</time>
      </trkpt>
      <trkpt lat="44.91078" lon="15.6088">
        <ele>527</ele>
        <time>2016-07-29T19:33:58Z</time>
      </trkpt>
      <trkpt lat="44.91065" lon="15.60889">
        <ele>523</ele>
        <time>2016-07-29T19:35:58Z</time>
      </trkpt>
      <trkpt lat="44.91053" lon="15.609">
        <ele>520</ele>
        <time>2016-07-29T19:37:58Z</time>
      </trkpt>
      <trkpt lat="44.91042" lon="15.60912">
        <ele>518</ele>
        <time>2016-07-29T19:39:58Z</time>
      </trkpt>
      <trkpt lat="44.91021" lon="15.60941">
        <ele>518</ele>
        <time>2016-07-29T19:41:58Z</time>
      </trkpt>
      <trkpt lat="44.90998" lon="15.60978">
        <ele>525</ele>
        <time>2016-07-29T19:43:58Z</time>
      </trkpt>
      <trkpt lat="44.9097" lon="15.61024">
        <ele>531</ele>
        <time>2016-07-29T19:45:58Z</time>
      </trkpt>
      <trkpt lat="44.90958" lon="15.61041">
        <ele>533</ele>
        <time>2016-07-29T19:47:58Z</time>
      </trkpt>
      <trkpt lat="44.90933" lon="15.61072">
        <ele>537</ele>
        <time>2016-07-29T19:49:58Z</time>
      </trkpt>
      <trkpt lat="44.90907" lon="15.61098">
        <ele>541</ele>
        <time>2016-07-29T19:51:58Z</time>
      </trkpt>
      <trkpt lat="44.90879" lon="15.6112">
        <ele>543</ele>
        <time>2016-07-29T19:53:58Z</time>
      </trkpt>
      <trkpt lat="44.90865" lon="15.61129">
        <ele>544</ele>
        <time>2016-07-29T19:55:58Z</time>
      </trkpt>
      <trkpt lat="44.90838" lon="15.61145">
        <ele>546</ele>
        <time>2016-07-29T19:57:58Z</time>
      </trkpt>
      <trkpt lat="44.90816" lon="15.61154">
        <ele>546</ele>
        <time>2016-07-29T19:59:58Z</time>
      </trkpt>
      <trkpt lat="44.90798" lon="15.6116">
        <ele>546</ele>
        <time>2016-07-29T20:01:58Z</time>
      </trkpt>
      <trkpt lat="44.90772" lon="15.61164">
        <ele>545</ele>
        <time>2016-07-29T20:03:58Z</time>
      </trkpt>
      <trkpt lat="44.90753" lon="15.61166">
        <ele>545</ele>
        <time>2016-07-29T20:05:58Z</time>
      </trkpt>
      <trkpt lat="44.90743" lon="15.61163">
        <ele>545</ele>
        <time>2016-07-29T20:07:58Z</time>
      </trkpt>
      <trkpt lat="44.90721" lon="15.61162">
        <ele>544</ele>
        <time>2016-07-29T20:09:58Z</time>
      </trkpt>
      <trkpt lat="44.90681" lon="15.61163">
        <ele>545</ele>
        <time>2016-07-29T20:11:58Z</time>
      </trkpt>
      <trkpt lat="44.90666" lon="15.61162">
        <ele>545</ele>
        <time>2016-07-29T20:13:58Z</time>
      </trkpt>
      <trkpt lat="44.90641" lon="15.6116">
        <ele>544</ele>
        <time>2016-07-29T20:15:58Z</time>
      </trkpt>
      <trkpt lat="44.90613" lon="15.61162">
        <ele>545</ele>
        <time>2016-07-29T20:17:58Z</time>
      </trkpt>
      <trkpt lat="44.90593" lon="15.61165">
        <ele>545</ele>
        <time>2016-07-29T20:19:58Z</time>
      </trkpt>
      <trkpt lat="44.90585" lon="15.61167">
        <ele>545</ele>
        <time>2016-07-29T20:21:58Z</time>
      </trkpt>
      <trkpt lat="44.90572" lon="15.61171">
        <ele>545</ele>
        <time>2016-07-29T20:23:58Z</time>
      </trkpt>
      <trkpt lat="44.90548" lon="15.61181">
        <ele>546</ele>
        <time>2016-07-29T20:25:58Z</time>
      </trkpt>
      <trkpt lat="44.90539" lon="15.61186">
        <ele>547</ele>
        <time>2016-07-29T20:27:58Z</time>
      </trkpt>
      <trkpt lat="44.90515" lon="15.61198">
        <ele>549</ele>
        <time>2016-07-29T20:29:58Z</time>
      </trkpt>
      <trkpt lat="44.90465" lon="15.61232">
        <ele>552</ele>
        <time>2016-07-29T20:31:58Z</time>
      </trkpt>
      <trkpt lat="44.90463" lon="15.61233">
        <ele>552</ele>
        <time>2016-07-29T20:33:58Z</time>
      </trkpt>
      <trkpt lat="44.90459" lon="15.61241">
        <ele>553</ele>
        <time>2016-07-29T20:35:58Z</time>
      </trkpt>
      <trkpt lat="44.9045" lon="15.61247">
        <ele>553</ele>
        <time>2016-07-29T20:37:58Z</time>
      </trkpt>
      <trkpt lat="44.90427" lon="15.6126">
        <ele>553</ele>
        <time>2016-07-29T20:39:58Z</time>
      </trkpt>
      <trkpt lat="44.90415" lon="15.61264">
        <ele>554</ele>
        <time>2016-07-29T20:41:58Z</time>
      </trkpt>
      <trkpt lat="44.90388" lon="15.6127">
        <ele>555</ele>
        <time>2016-07-29T20:43:58Z</time>
      </trkpt>
      <trkpt lat="44.90375" lon="15.61271">
        <ele>556</ele>
        <time>2016-07-29T20:45:58Z</time>
      </trkpt>
      <trkpt lat="44.90362" lon="15.6127">
        <ele>557</ele>
        <time>2016-07-29T20:47:58Z</time>
      </trkpt>
      <trkpt lat="44.90336" lon="15.61265">
        <ele>558</ele>
        <time>2016-07-29T20:49:58Z</time>
      </trkpt>
      <trkpt lat="44.90309" lon="15.61257">
        <ele>558</ele>
        <time>2016-07-29T20:51:58Z</time>
      </trkpt>
      <trkpt lat="44.90282" lon="15.61246">
        <ele>559</ele>
        <time>2016-07-29T20:53:58Z</time>
      </trkpt>
      <trkpt lat="44.90253" lon="15.61236">
        <ele>558</ele>
        <time>2016-07-29T20:55:58Z</time>
      </trkpt>
      <trkpt lat="44.90225" lon="15.61228">
        <ele>557</ele>
        <time>2016-07-29T20:57:58Z</time>
      </trkpt>
      <trkpt lat="44.9021" lon="15.61227">
        <ele>556</ele>
        <time>2016-07-29T20:59:58Z</time>
      </trkpt>
      <trkpt lat="44.9018" lon="15.61227">
        <ele>555</ele>
        <time>2016-07-29T21:01:58Z</time>
      </trkpt>
      <trkpt lat="44.90151" lon="15.61233">
        <ele>556</ele>
        <time>2016-07-29T21:03:58Z</time>
      </trkpt>
      <trkpt lat="44.90079" lon="15.61257">
        <ele>562</ele>
        <time>2016-07-29T21:05:58Z</time>
      </trkpt>
      <trkpt lat="44.9002" lon="15.61274">
        <ele>566</ele>
        <time>2016-07-29T21:07:58Z</time>
      </trkpt>
      <trkpt lat="44.8999" lon="15.61279">
        <ele>567</ele>
        <time>2016-07-29T21:09:58Z</time>
      </trkpt>
      <trkpt lat="44.8996" lon="15.61281">
        <ele>569</ele>
        <time>2016-07-29T21:11:58Z</time>
      </trkpt>
      <trkpt lat="44.89929" lon="15.61279">
        <ele>570</ele>
        <time>2016-07-29T21:13:58Z</time>
      </trkpt>
      <trkpt lat="44.89898" lon="15.61274">
        <ele>570</ele>
        <time>2016-07-29T21:15:58Z</time>
      </trkpt>
      <trkpt lat="44.89793" lon="15.61247">
        <ele>571</ele>
        <time>2016-07-29T21:17:58Z</time>
      </trkpt>
      <trkpt lat="44.89759" lon="15.6124">
        <ele>571</ele>
        <time>2016-07-29T21:19:58Z</time>
      </trkpt>
      <trkpt lat="44.89726" lon="15.61238">
        <ele>572</ele>
        <time>2016-07-29T21:21:58Z</time>
      </trkpt>
      <trkpt lat="44.89709" lon="15.61239">
        <ele>573</ele>
        <time>2016-07-29T21:23:58Z</time>
      </trkpt>
      <trkpt lat="44.89692" lon="15.61241">
        <ele>574</ele>
        <time>2016-07-29T21:25:58Z</time>
      </trkpt>
      <trkpt lat="44.89658" lon="15.6125">
        <ele>577</ele>
        <time>2016-07-29T21:27:58Z</time>
      </trkpt>
      <trkpt lat="44.89641" lon="15.61256">
        <ele>578</ele>
        <time>2016-07-29T21:29:58Z</time>
      </trkpt>
      <trkpt lat="44.89625" lon="15.61263">
        <ele>580</ele>
        <time>2016-07-29T21:31:58Z</time>
      </trkpt>
      <trkpt lat="44.89583" lon="15.61289">
        <ele>584</ele>
        <time>2016-07-29T21:33:58Z</time>
      </trkpt>
      <trkpt lat="44.89542" lon="15.61319">
        <ele>585</ele>
        <time>2016-07-29T21:35:58Z</time>
      </trkpt>
      <trkpt lat="44.89514" lon="15.61341">
        <ele>586</ele>
        <time>2016-07-29T21:37:58Z</time>
      </trkpt>
      <trkpt lat="44.8947" lon="15.61369">
        <ele>588</ele>
        <time>2016-07-29T21:39:58Z</time>
      </trkpt>
      <trkpt lat="44.89469" lon="15.61369">
        <ele>588</ele>
        <time>2016-07-29T21:41:58Z</time>
      </trkpt>
      <trkpt lat="44.89439" lon="15.61381">
        <ele>588</ele>
        <time>2016-07-29T21:43:58Z</time>
      </trkpt>
      <trkpt lat="44.89424" lon="15.61385">
        <ele>588</ele>
        <time>2016-07-29T21:45:58Z</time>
      </trkpt>
      <trkpt lat="44.89409" lon="15.61387">
        <ele>588</ele>
        <time>2016-07-29T21:47:58Z</time>
      </trkpt>
      <trkpt lat="44.89393" lon="15.61388">
        <ele>587</ele>
        <time>2016-07-29T21:49:58Z</time>
      </trkpt>
      <trkpt lat="44.89377" lon="15.61387">
        <ele>587</ele>
        <time>2016-07-29T21:51:58Z</time>
      </trkpt>
      <trkpt lat="44.89361" lon="15.61385">
        <ele>587</ele>
        <time>2016-07-29T21:53:58Z</time>
      </trkpt>
      <trkpt lat="44.89346" lon="15.6138">
        <ele>587</ele>
        <time>2016-07-29T21:55:58Z</time>
      </trkpt>
      <trkpt lat="44.89314" lon="15.61368">
        <ele>587</ele>
        <time>2016-07-29T21:57:58Z</time>
      </trkpt>
      <trkpt lat="44.89197" lon="15.61314">
        <ele>587</ele>
        <time>2016-07-29T21:59:58Z</time>
      </trkpt>
      <trkpt lat="44.89166" lon="15.61304">
        <ele>587</ele>
        <time>2016-07-29T22:01:58Z</time>
      </trkpt>
      <trkpt lat="44.89134" lon="15.61297">
        <ele>584</ele>
        <time>2016-07-29T22:03:58Z</time>
      </trkpt>
      <trkpt lat="44.89117" lon="15.61295">
        <ele>583</ele>
        <time>2016-07-29T22:05:58Z</time>
      </trkpt>
      <trkpt lat="44.89084" lon="15.61293">
        <ele>581</ele>
        <time>2016-07-29T22:07:58Z</time>
      </trkpt>
      <trkpt lat="44.89054" lon="15.61295">
        <ele>582</ele>
        <time>2016-07-29T22:09:58Z</time>
      </trkpt>
      <trkpt lat="44.89038" lon="15.61297">
        <ele>582</ele>
        <time>2016-07-29T22:11:58Z</time>
      </trkpt>
      <trkpt lat="44.89005" lon="15.61304">
        <ele>584</ele>
        <time>2016-07-29T22:13:58Z</time>
      </trkpt>
      <trkpt lat="44.88989" lon="15.61309">
        <ele>584</ele>
        <time>2016-07-29T22:15:58Z</time>
      </trkpt>
      <trkpt lat="44.8896" lon="15.61321">
        <ele>585</ele>
        <time>2016-07-29T22:17:58Z</time>
      </trkpt>
      <trkpt lat="44.88904" lon="15.61351">
        <ele>587</ele>
        <time>2016-07-29T22:19:58Z</time>
      </trkpt>
      <trkpt lat="44.8886" lon="15.61377">
        <ele>590</ele>
        <time>2016-07-29T22:21:58Z</time>
      </trkpt>
      <trkpt lat="44.88816" lon="15.61408">
        <ele>595</ele>
        <time>2016-07-29T22:23:58Z</time>
      </trkpt>
      <trkpt lat="44.88773" lon="15.61444">
        <ele>598</ele>
        <time>2016-07-29T22:25:58Z</time>
      </trkpt>
      <trkpt lat="44.88724" lon="15.6149">
        <ele>598</ele>
        <time>2016-07-29T22:27:58Z</time>
      </trkpt>
      <trkpt lat="44.88681" lon="15.61537">
        <ele>595</ele>
        <time>2016-07-29T22:29:58Z</time>
      </trkpt>
      <trkpt lat="44.88633" lon="15.61597">
        <ele>594</ele>
        <time>2016-07-29T22:31:58Z</time>
      </trkpt>
      <trkpt lat="44.88615" lon="15.61623">
        <ele>594</ele>
        <time>2016-07-29T22:33:58Z</time>
      </trkpt>
      <trkpt lat="44.88593" lon="15.61667">
        <ele>595</ele>
        <time>2016-07-29T22:35:58Z</time>
      </trkpt>
      <trkpt lat="44.88586" lon="15.61682">
        <ele>595</ele>
        <time>2016-07-29T22:37:58Z</time>
      </trkpt>
      <trkpt lat="44.88575" lon="15.61714">
        <ele>596</ele>
        <time>2016-07-29T22:39:58Z</time>
      </trkpt>
      <trkpt lat="44.88565" lon="15.6175">
        <ele>597</ele>
        <time>2016-07-29T22:41:58Z</time>
      </trkpt>
      <trkpt lat="44.88559" lon="15.61788">
        <ele>596</ele>
        <time>2016-07-29T22:43:58Z</time>
      </trkpt>
      <trkpt lat="44.8855" lon="15.61868">
        <ele>595</ele>
        <time>2016-07-29T22:45:58Z</time>
      </trkpt>
      <trkpt lat="44.8855" lon="15.61871">
        <ele>595</ele>
        <time>2016-07-29T22:47:58Z</time>
      </trkpt>
      <trkpt lat="44.88548" lon="15.61893">
        <ele>594</ele>
        <time>2016-07-29T22:49:58Z</time>
      </trkpt>
      <trkpt lat="44.88545" lon="15.61918">
        <ele>594</ele>
        <time>2016-07-29T22:51:58Z</time>
      </trkpt>
      <trkpt lat="44.88542" lon="15.6195">
        <ele>593</ele>
        <time>2016-07-29T22:53:58Z</time>
      </trkpt>
      <trkpt lat="44.88539" lon="15.61981">
        <ele>593</ele>
        <time>2016-07-29T22:55:58Z</time>
      </trkpt>
      <trkpt lat="44.88534" lon="15.62014">
        <ele>593</ele>
        <time>2016-07-29T22:57:58Z</time>
      </trkpt>
      <trkpt lat="44.88532" lon="15.62023">
        <ele>593</ele>
        <time>2016-07-29T22:59:58Z</time>
      </trkpt>
      <trkpt lat="44.88522" lon="15.62062">
        <ele>595</ele>
        <time>2016-07-29T23:01:58Z</time>
      </trkpt>
      <trkpt lat="44.88508" lon="15.62099">
        <ele>599</ele>
        <time>2016-07-29T23:03:58Z</time>
      </trkpt>
      <trkpt lat="44.88496" lon="15.62123">
        <ele>602</ele>
        <time>2016-07-29T23:05:58Z</time>
      </trkpt>
      <trkpt lat="44.88476" lon="15.62155">
        <ele>605</ele>
        <time>2016-07-29T23:07:58Z</time>
      </trkpt>
      <trkpt lat="44.88464" lon="15.62171">
        <ele>607</ele>
        <time>2016-07-29T23:09:58Z</time>
      </trkpt>
      <trkpt lat="44.88452" lon="15.62185">
        <ele>607</ele>
        <time>2016-07-29T23:11:58Z</time>
      </trkpt>
      <trkpt lat="44.8843" lon="15.62205">
        <ele>609</ele>
        <time>2016-07-29T23:13:58Z</time>
      </trkpt>
      <trkpt lat="44.8841" lon="15.62221">
        <ele>611</ele>
        <time>2016-07-29T23:15:58Z</time>
      </trkpt>
      <trkpt lat="44.8839" lon="15.62234">
        <ele>613</ele>
        <time>2016-07-29T23:17:58Z</time>
      </trkpt>
      <trkpt lat="44.88366" lon="15.62245">
        <ele>614</ele>
        <time>2016-07-29T23:19:58Z</time>
      </trkpt>
      <trkpt lat="44.88356" lon="15.62251">
        <ele>614</ele>
        <time>2016-07-29T23:21:58Z</time>
      </trkpt>
      <trkpt lat="44.88351" lon="15.62253">
        <ele>614</ele>
        <time>2016-07-29T23:23:58Z</time>
      </trkpt>
      <trkpt lat="44.88343" lon="15.62252">
        <ele>614</ele>
        <time>2016-07-29T23:25:58Z</time>
      </trkpt>
      <trkpt lat="44.88341" lon="15.62252">
        <ele>614</ele>
        <time>2016-07-29T23:27:58Z</time>
      </trkpt>
      <trkpt lat="44.88324" lon="15.62261">
        <ele>614</ele>
        <time>2016-07-29T23:29:58Z</time>
      </trkpt>
      <trkpt lat="44.88282" lon="15.6228">
        <ele>616</ele>
        <time>2016-07-29T23:31:58Z</time>
      </trkpt>
      <trkpt lat="44.88244" lon="15.62299">
        <ele>617</ele>
        <time>2016-07-29T23:33:58Z</time>
      </trkpt>
      <trkpt lat="44.88243" lon="15.623">
        <ele>617</ele>
        <time>2016-07-29T23:35:58Z</time>
      </trkpt>
      <trkpt lat="44.88216" lon="15.62315">
        <ele>617</ele>
        <time>2016-07-29T23:37:58Z</time>
      </trkpt>
      <trkpt lat="44.88205" lon="15.62322">
        <ele>618</ele>
        <time>2016-07-29T23:39:58Z</time>
      </trkpt>
      <trkpt lat="44.88182" lon="15.62347">
        <ele>619</ele>
        <time>2016-07-29T23:41:58Z</time>
      </trkpt>
      <trkpt lat="44.88157" lon="15.62371">
        <ele>619</ele>
        <time>2016-07-29T23:43:58Z</time>
      </trkpt>
      <trkpt lat="44.88131" lon="15.62403">
        <ele>619</ele>
        <time>2016-07-29T23:45:58Z</time>
      </trkpt>
      <trkpt lat="44.88105" lon="15.62443">
        <ele>618</ele>
        <time>2016-07-29T23:47:58Z</time>
      </trkpt>
      <trkpt lat="44.88096" lon="15.62461">
        <ele>619</ele>
        <time>2016-07-29T23:49:58Z</time>
      </trkpt>
      <trkpt lat="44.88094" lon="15.62475">
        <ele>619</ele>
        <time>2016-07-29T23:51:58Z</time>
      </trkpt>
      <trkpt lat="44.88088" lon="15.62488">
        <ele>619</ele>
        <time>2016-07-29T23:53:58Z</time>
      </trkpt>
      <trkpt lat="44.88082" lon="15.62505">
        <ele>619</ele>
        <time>2016-07-29T23:55:58Z</time>
      </trkpt>
      <trkpt lat="44.88075" lon="15.62526">
        <ele>620</ele>
        <time>2016-07-29T23:57:58Z</time>
      </trkpt>
      <trkpt lat="44.88068" lon="15.62551">
        <ele>620</ele>
        <time>2016-07-29T23:59:58Z</time>
      </trkpt>
      <trkpt lat="44.88057" lon="15.62601">
        <ele>621</ele>
        <time>2016-07-30T00:01:58Z</time>
      </trkpt>
      <trkpt lat="44.88057" lon="15.62603">
        <ele>621</ele>
        <time>2016-07-30T00:03:58Z</time>
      </trkpt>
      <trkpt lat="44.88049" lon="15.62707">
        <ele>622</ele>
        <time>2016-07-30T00:05:58Z</time>
      </trkpt>
      <trkpt lat="44.88042" lon="15.6278">
        <ele>624</ele>
        <time>2016-07-30T00:07:58Z</time>
      </trkpt>
      <trkpt lat="44.88033" lon="15.62824">
        <ele>628</ele>
        <time>2016-07-30T00:09:58Z</time>
      </trkpt>
      <trkpt lat="44.88021" lon="15.6286">
        <ele>630</ele>
        <time>2016-07-30T00:11:58Z</time>
      </trkpt>
      <trkpt lat="44.88013" lon="15.62884">
        <ele>630</ele>
        <time>2016-07-30T00:13:58Z</time>
      </trkpt>
      <trkpt lat="44.88004" lon="15.62905">
        <ele>630</ele>
        <time>2016-07-30T00:15:58Z</time>
      </trkpt>
      <trkpt lat="44.87996" lon="15.62918">
        <ele>630</ele>
        <time>2016-07-30T00:17:58Z</time>
      </trkpt>
      <trkpt lat="44.87987" lon="15.62931">
        <ele>630</ele>
        <time>2016-07-30T00:19:58Z</time>
      </trkpt>
      <trkpt lat="44.87961" lon="15.62962">
        <ele>631</ele>
        <time>2016-07-30T00:21:58Z</time>
      </trkpt>
      <trkpt lat="44.8793" lon="15.62988">
        <ele>632</ele>
        <time>2016-07-30T00:23:58Z</time>
      </trkpt>
      <trkpt lat="44.87898" lon="15.63003">
        <ele>632</ele>
        <time>2016-07-30T00:25:58Z</time>
      </trkpt>
      <trkpt lat="44.87866" lon="15.63013">
        <ele>633</ele>
        <time>2016-07-30T00:27:58Z</time>
      </trkpt>
      <trkpt lat="44.87834" lon="15.63017">
        <ele>634</ele>
        <time>2016-07-30T00:29:58Z</time>
      </trkpt>
      <trkpt lat="44.87801" lon="15.6302">
        <ele>636</ele>
        <time>2016-07-30T00:31:58Z</time>
      </trkpt>
      <trkpt lat="44.87741" lon="15.63027">
        <ele>639</ele>
        <time>2016-07-30T00:33:58Z</time>
      </trkpt>
      <trkpt lat="44.87726" lon="15.63029">
        <ele>640</ele>
        <time>2016-07-30T00:35:58Z</time>
      </trkpt>
      <trkpt lat="44.87714" lon="15.63032">
        <ele>641</ele>
        <time>2016-07-30T00:37:58Z</time>
      </trkpt>
      <trkpt lat="44.87688" lon="15.63043">
        <ele>642</ele>
        <time>2016-07-30T00:39:58Z</time>
      </trkpt>
      <trkpt lat="44.87675" lon="15.63051">
        <ele>642</ele>
        <time>2016-07-30T00:41:58Z</time>
      </trkpt>
      <trkpt lat="44.87648" lon="15.6307">
        <ele>643</ele>
        <time>2016-07-30T00:43:58Z</time>
      </trkpt>
      <trkpt lat="44.87636" lon="15.6308">
        <ele>643</ele>
        <time>2016-07-30T00:45:58Z</time>
      </trkpt>
      <trkpt lat="44.87624" lon="15.6309">
        <ele>643</ele>
        <time>2016-07-30T00:47:58Z</time>
      </trkpt>
      <trkpt lat="44.87613" lon="15.63102">
        <ele>643</ele>
        <time>2016-07-30T00:49:58Z</time>
      </trkpt>
      <trkpt lat="44.87591" lon="15.63128">
        <ele>643</ele>
        <time>2016-07-30T00:51:58Z</time>
      </trkpt>
      <trkpt lat="44.87551" lon="15.63181">
        <ele>642</ele>
        <time>2016-07-30T00:53:58Z</time>
      </trkpt>
      <trkpt lat="44.87532" lon="15.63209">
        <ele>642</ele>
        <time>2016-07-30T00:55:58Z</time>
      </trkpt>
      <trkpt lat="44.87522" lon="15.63223">
        <ele>642</ele>
        <time>2016-07-30T00:57:58Z</time>
      </trkpt>
      <trkpt lat="44.875" lon="15.6325">
        <ele>642</ele>
        <time>2016-07-30T00:59:58Z</time>
      </trkpt>
      <trkpt lat="44.8749" lon="15.63262">
        <ele>643</ele>
        <time>2016-07-30T01:01:58Z</time>
      </trkpt>
      <trkpt lat="44.87467" lon="15.63282">
        <ele>644</ele>
        <time>2016-07-30T01:03:58Z</time>
      </trkpt>
      <trkpt lat="44.87455" lon="15.63291">
        <ele>644</ele>
        <time>2016-07-30T01:05:58Z</time>
      </trkpt>
      <trkpt lat="44.87427" lon="15.63304">
        <ele>646</ele>
        <time>2016-07-30T01:07:58Z</time>
      </trkpt>
      <trkpt lat="44.87396" lon="15.63313">
        <ele>646</ele>
        <time>2016-07-30T01:09:58Z</time>
      </trkpt>
      <trkpt lat="44.87381" lon="15.63315">
        <ele>646</ele>
        <time>2016-07-30T01:11:58Z</time>
      </trkpt>
      <trkpt lat="44.87365" lon="15.63316">
        <ele>646</ele>
        <time>2016-07-30T01:13:58Z</time>
      </trkpt>
      <trkpt lat="44.8735" lon="15.63315">
        <ele>646</ele>
        <time>2016-07-30T01:15:58Z</time>
      </trkpt>
      <trkpt lat="44.87321" lon="15.63311">
        <ele>646</ele>
        <time>2016-07-30T01:17:58Z</time>
      </trkpt>
      <trkpt lat="44.8723" lon="15.63279">
        <ele>647</ele>
        <time>2016-07-30T01:19:58Z</time>
      </trkpt>
      <trkpt lat="44.87219" lon="15.63277">
        <ele>648</ele>
        <time>2016-07-30T01:21:58Z</time>
      </trkpt>
      <trkpt lat="44.87194" lon="15.63272">
        <ele>648</ele>
        <time>2016-07-30T01:23:58Z</time>
      </trkpt>
      <trkpt lat="44.87168" lon="15.63268">
        <ele>649</ele>
        <time>2016-07-30T01:25:58Z</time>
      </trkpt>
      <trkpt lat="44.87154" lon="15.63266">
        <ele>649</ele>
        <time>2016-07-30T01:27:58Z</time>
      </trkpt>
      <trkpt lat="44.87128" lon="15.63267">
        <ele>648</ele>
        <time>2016-07-30T01:29:58Z</time>
      </trkpt>
      <trkpt lat="44.87122" lon="15.63268">
        <ele>648</ele>
        <time>2016-07-30T01:31:58Z</time>
      </trkpt>
      <trkpt lat="44.87096" lon="15.63271">
        <ele>647</ele>
        <time>2016-07-30T01:33:58Z</time>
      </trkpt>
      <trkpt lat="44.87073" lon="15.63282">
        <ele>647</ele>
        <time>2016-07-30T01:35:58Z</time>
      </trkpt>
      <trkpt lat="44.87034" lon="15.63303">
        <ele>647</ele>
        <time>2016-07-30T01:37:58Z</time>
      </trkpt>
      <trkpt lat="44.87031" lon="15.63305">
        <ele>647</ele>
        <time>2016-07-30T01:39:58Z</time>
      </trkpt>
      <trkpt lat="44.87004" lon="15.63322">
        <ele>647</ele>
        <time>2016-07-30T01:41:58Z</time>
      </trkpt>
      <trkpt lat="44.86977" lon="15.63342">
        <ele>648</ele>
        <time>2016-07-30T01:43:58Z</time>
      </trkpt>
      <trkpt lat="44.86963" lon="15.63353">
        <ele>648</ele>
        <time>2016-07-30T01:45:58Z</time>
      </trkpt>
      <trkpt lat="44.86922" lon="15.63392">
        <ele>650</ele>
        <time>2016-07-30T01:47:58Z</time>
      </trkpt>
      <trkpt lat="44.86909" lon="15.63405">
        <ele>651</ele>
        <time>2016-07-30T01:49:58Z</time>
      </trkpt>
      <trkpt lat="44.86884" lon="15.63433">
        <ele>654</ele>
        <time>2016-07-30T01:51:58Z</time>
      </trkpt>
      <trkpt lat="44.86852" lon="15.63477">
        <ele>656</ele>
        <time>2016-07-30T01:53:58Z</time>
      </trkpt>
      <trkpt lat="44.86842" lon="15.63491">
        <ele>657</ele>
        <time>2016-07-30T01:55:58Z</time>
      </trkpt>
      <trkpt lat="44.86824" lon="15.6352">
        <ele>658</ele>
        <time>2016-07-30T01:57:58Z</time>
      </trkpt>
      <trkpt lat="44.86798" lon="15.63567">
        <ele>660</ele>
        <time>2016-07-30T01:59:58Z</time>
      </trkpt>
      <trkpt lat="44.86769" lon="15.63626">
        <ele>659</ele>
        <time>2016-07-30T02:01:58Z</time>
      </trkpt>
      <trkpt lat="44.86757" lon="15.63651">
        <ele>658</ele>
        <time>2016-07-30T02:03:58Z</time>
      </trkpt>
      <trkpt lat="44.8675" lon="15.63667">
        <ele>657</ele>
        <time>2016-07-30T02:05:58Z</time>
      </trkpt>
      <trkpt lat="44.86724" lon="15.63718">
        <ele>654</ele>
        <time>2016-07-30T02:07:58Z</time>
      </trkpt>
      <trkpt lat="44.86695" lon="15.63771">
        <ele>652</ele>
        <time>2016-07-30T02:09:58Z</time>
      </trkpt>
      <trkpt lat="44.86679" lon="15.63797">
        <ele>651</ele>
        <time>2016-07-30T02:11:58Z</time>
      </trkpt>
      <trkpt lat="44.86645" lon="15.63849">
        <ele>649</ele>
        <time>2016-07-30T02:13:58Z</time>
      </trkpt>
      <trkpt lat="44.86614" lon="15.63891">
        <ele>647</ele>
        <time>2016-07-30T02:15:58Z</time>
      </trkpt>
      <trkpt lat="44.8658" lon="15.63933">
        <ele>645</ele>
        <time>2016-07-30T02:17:58Z</time>
      </trkpt>
      <trkpt lat="44.86512" lon="15.64008">
        <ele>647</ele>
        <time>2016-07-30T02:19:58Z</time>
      </trkpt>
      <trkpt lat="44.86466" lon="15.64064">
        <ele>648</ele>
        <time>2016-07-30T02:21:58Z</time>
      </trkpt>
      <trkpt lat="44.86432" lon="15.64108">
        <ele>649</ele>
        <time>2016-07-30T02:23:58Z</time>
      </trkpt>
      <trkpt lat="44.86398" lon="15.64156">
        <ele>649</ele>
        <time>2016-07-30T02:25:58Z</time>
      </trkpt>
      <trkpt lat="44.86362" lon="15.64211">
        <ele>649</ele>
        <time>2016-07-30T02:27:58Z</time>
      </trkpt>
      <trkpt lat="44.86279" lon="15.64356">
        <ele>649</ele>
        <time>2016-07-30T02:29:58Z</time>
      </trkpt>
      <trkpt lat="44.86242" lon="15.64431">
        <ele>650</ele>
        <time>2016-07-30T02:31:58Z</time>
      </trkpt>
      <trkpt lat="44.86226" lon="15.64464">
        <ele>651</ele>
        <time>2016-07-30T02:33:58Z</time>
      </trkpt>
      <trkpt lat="44.86186" lon="15.64542">
        <ele>650</ele>
        <time>2016-07-30T02:35:58Z</time>
      </trkpt>
      <trkpt lat="44.8616" lon="15.64587">
        <ele>649</ele>
        <time>2016-07-30T02:37:58Z</time>
      </trkpt>
      <trkpt lat="44.86116" lon="15.64651">
        <ele>651</ele>
        <time>2016-07-30T02:39:58Z</time>
      </trkpt>
      <trkpt lat="44.861" lon="15.64672">
        <ele>652</ele>
        <time>2016-07-30T02:41:58Z</time>
      </trkpt>
      <trkpt lat="44.86083" lon="15.64692">
        <ele>652</ele>
        <time>2016-07-30T02:43:58Z</time>
      </trkpt>
      <trkpt lat="44.86048" lon="15.64729">
        <ele>654</ele>
        <time>2016-07-30T02:45:58Z</time>
      </trkpt>
      <trkpt lat="44.8601" lon="15.64763">
        <ele>657</ele>
        <time>2016-07-30T02:47:58Z</time>
      </trkpt>
      <trkpt lat="44.85989" lon="15.64779">
        <ele>658</ele>
        <time>2016-07-30T02:49:58Z</time>
      </trkpt>
      <trkpt lat="44.85947" lon="15.64808">
        <ele>660</ele>
        <time>2016-07-30T02:51:58Z</time>
      </trkpt>
      <trkpt lat="44.85925" lon="15.64821">
        <ele>660</ele>
        <time>2016-07-30T02:53:58Z</time>
      </trkpt>
      <trkpt lat="44.8588" lon="15.64843">
        <ele>664</ele>
        <time>2016-07-30T02:55:58Z</time>
      </trkpt>
      <trkpt lat="44.85842" lon="15.64857">
        <ele>668</ele>
        <time>2016-07-30T02:57:58Z</time>
      </trkpt>
      <trkpt lat="44.85833" lon="15.6486">
        <ele>668</ele>
        <time>2016-07-30T02:59:58Z</time>
      </trkpt>
      <trkpt lat="44.85759" lon="15.64883">
        <ele>672</ele>
        <time>2016-07-30T03:01:58Z</time>
      </trkpt>
      <trkpt lat="44.8574" lon="15.64888">
        <ele>673</ele>
        <time>2016-07-30T03:03:58Z</time>
      </trkpt>
      <trkpt lat="44.85717" lon="15.64896">
        <ele>674</ele>
        <time>2016-07-30T03:05:58Z</time>
      </trkpt>
      <trkpt lat="44.85694" lon="15.64906">
        <ele>674</ele>
        <time>2016-07-30T03:07:58Z</time>
      </trkpt>
      <trkpt lat="44.85651" lon="15.64931">
        <ele>675</ele>
        <time>2016-07-30T03:09:58Z</time>
      </trkpt>
      <trkpt lat="44.8564" lon="15.64939">
        <ele>675</ele>
        <time>2016-07-30T03:11:58Z</time>
      </trkpt>
      <trkpt lat="44.8563" lon="15.64946">
        <ele>675</ele>
        <time>2016-07-30T03:13:58Z</time>
      </trkpt>
      <trkpt lat="44.85609" lon="15.64963">
        <ele>675</ele>
        <time>2016-07-30T03:15:58Z</time>
      </trkpt>
      <trkpt lat="44.85589" lon="15.64981">
        <ele>675</ele>
        <time>2016-07-30T03:17:58Z</time>
      </trkpt>
      <trkpt lat="44.85525" lon="15.65037">
        <ele>677</ele>
        <time>2016-07-30T03:19:58Z</time>
      </trkpt>
      <trkpt lat="44.85509" lon="15.65054">
        <ele>678</ele>
        <time>2016-07-30T03:21:58Z</time>
      </trkpt>
      <trkpt lat="44.85495" lon="15.65069">
        <ele>679</ele>
        <time>2016-07-30T03:23:58Z</time>
      </trkpt>
      <trkpt lat="44.85453" lon="15.65109">
        <ele>683</ele>
        <time>2016-07-30T03:25:58Z</time>
      </trkpt>
      <trkpt lat="44.8543" lon="15.65126">
        <ele>685</ele>
        <time>2016-07-30T03:27:58Z</time>
      </trkpt>
      <trkpt lat="44.85421" lon="15.65135">
        <ele>686</ele>
        <time>2016-07-30T03:29:58Z</time>
      </trkpt>
      <trkpt lat="44.85398" lon="15.6515">
        <ele>687</ele>
        <time>2016-07-30T03:31:58Z</time>
      </trkpt>
      <trkpt lat="44.85374" lon="15.65163">
        <ele>688</ele>
        <time>2016-07-30T03:33:58Z</time>
      </trkpt>
      <trkpt lat="44.85349" lon="15.65175">
        <ele>689</ele>
        <time>2016-07-30T03:35:58Z</time>
      </trkpt>
      <trkpt lat="44.85323" lon="15.65185">
        <ele>689</ele>
        <time>2016-07-30T03:37:58Z</time>
      </trkpt>
      <trkpt lat="44.85298" lon="15.65193">
        <ele>689</ele>
        <time>2016-07-30T03:39:58Z</time>
      </trkpt>
      <trkpt lat="44.85273" lon="15.65199">
        <ele>689</ele>
        <time>2016-07-30T03:41:58Z</time>
      </trkpt>
      <trkpt lat="44.85248" lon="15.65204">
        <ele>689</ele>
        <time>2016-07-30T03:43:58Z</time>
      </trkpt>
      <trkpt lat="44.85223" lon="15.65206">
        <ele>690</ele>
        <time>2016-07-30T03:45:58Z</time>
      </trkpt>
      <trkpt lat="44.85147" lon="15.65211">
        <ele>694</ele>
        <time>2016-07-30T03:47:58Z</time>
      </trkpt>
      <trkpt lat="44.85131" lon="15.65213">
        <ele>695</ele>
        <time>2016-07-30T03:49:58Z</time>
      </trkpt>
      <trkpt lat="44.85121" lon="15.65214">
        <ele>695</ele>
        <time>2016-07-30T03:51:58Z</time>
      </trkpt>
      <trkpt lat="44.85096" lon="15.65219">
        <ele>697</ele>
        <time>2016-07-30T03:53:58Z</time>
      </trkpt>
      <trkpt lat="44.85071" lon="15.65227">
        <ele>698</ele>
        <time>2016-07-30T03:55:58Z</time>
      </trkpt>
      <trkpt lat="44.85048" lon="15.65238">
        <ele>700</ele>
        <time>2016-07-30T03:57:58Z</time>
      </trkpt>
      <trkpt lat="44.85002" lon="15.65265">
        <ele>702</ele>
        <time>2016-07-30T03:59:58Z</time>
      </trkpt>
      <trkpt lat="44.84982" lon="15.65281">
        <ele>704</ele>
        <time>2016-07-30T04:01:58Z</time>
      </trkpt>
      <trkpt lat="44.84961" lon="15.65298">
        <ele>705</ele>
        <time>2016-07-30T04:03:58Z</time>
      </trkpt>
      <trkpt lat="44.84943" lon="15.65318">
        <ele>705</ele>
        <time>2016-07-30T04:05:58Z</time>
      </trkpt>
      <trkpt lat="44.84908" lon="15.65361">
        <ele>707</ele>
        <time>2016-07-30T04:07:58Z</time>
      </trkpt>
      <trkpt lat="44.84891" lon="15.65384">
        <ele>708</ele>
        <time>2016-07-30T04:09:58Z</time>
      </trkpt>
      <trkpt lat="44.84843" lon="15.6545">
        <ele>708</ele>
        <time>2016-07-30T04:11:58Z</time>
      </trkpt>
      <trkpt lat="44.84809" lon="15.65494">
        <ele>706</ele>
        <time>2016-07-30T04:13:58Z</time>
      </trkpt>
      <trkpt lat="44.84756" lon="15.65556">
        <ele>705</ele>
        <time>2016-07-30T04:15:58Z</time>
      </trkpt>
      <trkpt lat="44.84739" lon="15.65575">
        <ele>705</ele>
        <time>2016-07-30T04:17:58Z</time>
      </trkpt>
      <trkpt lat="44.8473" lon="15.65583">
        <ele>705</ele>
        <time>2016-07-30T04:19:58Z</time>
      </trkpt>
      <trkpt lat="44.84715" lon="15.65598">
        <ele>705</ele>
        <time>2016-07-30T04:21:58Z</time>
      </trkpt>
      <trkpt lat="44.84682" lon="15.6563">
        <ele>705</ele>
        <time>2016-07-30T04:23:58Z</time>
      </trkpt>
      <trkpt lat="44.84662" lon="15.65649">
        <ele>704</ele>
        <time>2016-07-30T04:25:58Z</time>
      </trkpt>
      <trkpt lat="44.84631" lon="15.65672">
        <ele>704</ele>
        <time>2016-07-30T04:27:58Z</time>
      </trkpt>
      <trkpt lat="44.84624" lon="15.65678">
        <ele>704</ele>
        <time>2016-07-30T04:29:58Z</time>
      </trkpt>
      <trkpt lat="44.84561" lon="15.65721">
        <ele>706</ele>
        <time>2016-07-30T04:31:58Z</time>
      </trkpt>
      <trkpt lat="44.84497" lon="15.65763">
        <ele>707</ele>
        <time>2016-07-30T04:33:58Z</time>
      </trkpt>
      <trkpt lat="44.8443" lon="15.65804">
        <ele>708</ele>
        <time>2016-07-30T04:35:58Z</time>
      </trkpt>
      <trkpt lat="44.84389" lon="15.65832">
        <ele>705</ele>
        <time>2016-07-30T04:37:58Z</time>
      </trkpt>
      <trkpt lat="44.84348" lon="15.65865">
        <ele>704</ele>
        <time>2016-07-30T04:39:58Z</time>
      </trkpt>
      <trkpt lat="44.84328" lon="15.65883">
        <ele>703</ele>
        <time>2016-07-30T04:41:58Z</time>
      </trkpt>
      <trkpt lat="44.84298" lon="15.65916">
        <ele>703</ele>
        <time>2016-07-30T04:43:58Z</time>
      </trkpt>
      <trkpt lat="44.84291" lon="15.65924">
        <ele>703</ele>
        <time>2016-07-30T04:45:58Z</time>
      </trkpt>
      <trkpt lat="44.84264" lon="15.6596">
        <ele>702</ele>
        <time>2016-07-30T04:47:58Z</time>
      </trkpt>
      <trkpt lat="44.84231" lon="15.66013">
        <ele>702</ele>
        <time>2016-07-30T04:49:58Z</time>
      </trkpt>
      <trkpt lat="44.84218" lon="15.66035">
        <ele>702</ele>
        <time>2016-07-30T04:51:58Z</time>
      </trkpt>
      <trkpt lat="44.84195" lon="15.66082">
        <ele>701</ele>
        <time>2016-07-30T04:53:58Z</time>
      </trkpt>
      <trkpt lat="44.84176" lon="15.66131">
        <ele>698</ele>
        <time>2016-07-30T04:55:58Z</time>
      </trkpt>
      <trkpt lat="44.84159" lon="15.66182">
        <ele>696</ele>
        <time>2016-07-30T04:57:58Z</time>
      </trkpt>
      <trkpt lat="44.84151" lon="15.66208">
        <ele>696</ele>
        <time>2016-07-30T04:59:58Z</time>
      </trkpt>
      <trkpt lat="44.84109" lon="15.66367">
        <ele>697</ele>
        <time>2016-07-30T05:01:58Z</time>
      </trkpt>
      <trkpt lat="44.84092" lon="15.66419">
        <ele>695</ele>
        <time>2016-07-30T05:03:58Z</time>
      </trkpt>
      <trkpt lat="44.84071" lon="15.6647">
        <ele>694</ele>
        <time>2016-07-30T05:05:58Z</time>
      </trkpt>
      <trkpt lat="44.84049" lon="15.66519">
        <ele>695</ele>
        <time>2016-07-30T05:07:58Z</time>
      </trkpt>
      <trkpt lat="44.8401" lon="15.6659">
        <ele>697</ele>
        <time>2016-07-30T05:09:58Z</time>
      </trkpt>
      <trkpt lat="44.83981" lon="15.66634">
        <ele>697</ele>
        <time>2016-07-30T05:11:58Z</time>
      </trkpt>
      <trkpt lat="44.8395" lon="15.66675">
        <ele>697</ele>
        <time>2016-07-30T05:13:58Z</time>
      </trkpt>
      <trkpt lat="44.83918" lon="15.66711">
        <ele>697</ele>
        <time>2016-07-30T05:15:58Z</time>
      </trkpt>
      <trkpt lat="44.83888" lon="15.66742">
        <ele>698</ele>
        <time>2016-07-30T05:17:58Z</time>
      </trkpt>
      <trkpt lat="44.83867" lon="15.66761">
        <ele>698</ele>
        <time>2016-07-30T05:19:58Z</time>
      </trkpt>
      <trkpt lat="44.83853" lon="15.66773">
        <ele>698</ele>
        <time>2016-07-30T05:21:58Z</time>
      </trkpt>
      <trkpt lat="44.83841" lon="15.66778">
        <ele>698</ele>
        <time>2016-07-30T05:23:58Z</time>
      </trkpt>
      <trkpt lat="44.83786" lon="15.6682">
        <ele>697</ele>
        <time>2016-07-30T05:25:58Z</time>
      </trkpt>
      <trkpt lat="44.8374" lon="15.66856">
        <ele>697</ele>
        <time>2016-07-30T05:27:58Z</time>
      </trkpt>
      <trkpt lat="44.83665" lon="15.66908">
        <ele>700</ele>
        <time>2016-07-30T05:29:58Z</time>
      </trkpt>
      <trkpt lat="44.83645" lon="15.66926">
        <ele>701</ele>
        <time>2016-07-30T05:31:58Z</time>
      </trkpt>
      <trkpt lat="44.83639" lon="15.66935">
        <ele>701</ele>
        <time>2016-07-30T05:33:58Z</time>
      </trkpt>
      <trkpt lat="44.83599" lon="15.66965">
        <ele>701</ele>
        <time>2016-07-30T05:35:58Z</time>
      </trkpt>
      <trkpt lat="44.83576" lon="15.66985">
        <ele>700</ele>
        <time>2016-07-30T05:37:58Z</time>
      </trkpt>
      <trkpt lat="44.83553" lon="15.67006">
        <ele>701</ele>
        <time>2016-07-30T05:39:58Z</time>
      </trkpt>
      <trkpt lat="44.83532" lon="15.6703">
        <ele>701</ele>
        <time>2016-07-30T05:41:58Z</time>
      </trkpt>
      <trkpt lat="44.83501" lon="15.67071">
        <ele>700</ele>
        <time>2016-07-30T05:43:58Z</time>
      </trkpt>
      <trkpt lat="44.83482" lon="15.67103">
        <ele>701</ele>
        <time>2016-07-30T05:45:58Z</time>
      </trkpt>
      <trkpt lat="44.83461" lon="15.67141">
        <ele>703</ele>
        <time>2016-07-30T05:47:58Z</time>
      </trkpt>
      <trkpt lat="44.83442" lon="15.67185">
        <ele>705</ele>
        <time>2016-07-30T05:49:58Z</time>
      </trkpt>
      <trkpt lat="44.83402" lon="15.67278">
        <ele>707</ele>
        <time>2016-07-30T05:51:58Z</time>
      </trkpt>
      <trkpt lat="44.83391" lon="15.673">
        <ele>708</ele>
        <time>2016-07-30T05:53:58Z</time>
      </trkpt>
      <trkpt lat="44.83377" lon="15.67321">
        <ele>708</ele>
        <time>2016-07-30T05:55:58Z</time>
      </trkpt>
      <trkpt lat="44.83361" lon="15.67338">
        <ele>707</ele>
        <time>2016-07-30T05:57:58Z</time>
      </trkpt>
      <trkpt lat="44.83344" lon="15.67352">
        <ele>707</ele>
        <time>2016-07-30T05:59:58Z</time>
      </trkpt>
      <trkpt lat="44.83326" lon="15.67362">
        <ele>706</ele>
        <time>2016-07-30T06:01:58Z</time>
      </trkpt>
      <trkpt lat="44.83306" lon="15.67368">
        <ele>706</ele>
        <time>2016-07-30T06:03:58Z</time>
      </trkpt>
      <trkpt lat="44.83287" lon="15.67371">
        <ele>705</ele>
        <time>2016-07-30T06:05:58Z</time>
      </trkpt>
      <trkpt lat="44.83267" lon="15.67372">
        <ele>705</ele>
        <time>2016-07-30T06:07:58Z</time>
      </trkpt>
      <trkpt lat="44.83226" lon="15.67371">
        <ele>705</ele>
        <time>2016-07-30T06:09:58Z</time>
      </trkpt>
      <trkpt lat="44.83126" lon="15.67363">
        <ele>707</ele>
        <time>2016-07-30T06:11:58Z</time>
      </trkpt>
      <trkpt lat="44.83017" lon="15.67351">
        <ele>709</ele>
        <time>2016-07-30T06:13:58Z</time>
      </trkpt>
      <trkpt lat="44.8301" lon="15.6735">
        <ele>709</ele>
        <time>2016-07-30T06:15:58Z</time>
      </trkpt>
      <trkpt lat="44.82949" lon="15.67348">
        <ele>708</ele>
        <time>2016-07-30T06:17:58Z</time>
      </trkpt>
      <trkpt lat="44.8287" lon="15.67341">
        <ele>712</ele>
        <time>2016-07-30T06:19:58Z</time>
      </trkpt>
      <trkpt lat="44.82828" lon="15.67339">
        <ele>714</ele>
        <time>2016-07-30T06:21:58Z</time>
      </trkpt>
      <trkpt lat="44.82806" lon="15.67339">
        <ele>715</ele>
        <time>2016-07-30T06:23:58Z</time>
      </trkpt>
      <trkpt lat="44.82761" lon="15.67344">
        <ele>716</ele>
        <time>2016-07-30T06:25:58Z</time>
      </trkpt>
      <trkpt lat="44.82714" lon="15.67355">
        <ele>717</ele>
        <time>2016-07-30T06:27:58Z</time>
      </trkpt>
      <trkpt lat="44.82692" lon="15.67363">
        <ele>717</ele>
        <time>2016-07-30T06:29:58Z</time>
      </trkpt>
      <trkpt lat="44.82669" lon="15.67373">
        <ele>716</ele>
        <time>2016-07-30T06:31:58Z</time>
      </trkpt>
      <trkpt lat="44.82647" lon="15.67385">
        <ele>717</ele>
        <time>2016-07-30T06:33:58Z</time>
      </trkpt>
      <trkpt lat="44.82625" lon="15.67398">
        <ele>718</ele>
        <time>2016-07-30T06:35:58Z</time>
      </trkpt>
      <trkpt lat="44.82584" lon="15.6743">
        <ele>719</ele>
        <time>2016-07-30T06:37:58Z</time>
      </trkpt>
      <trkpt lat="44.82543" lon="15.67466">
        <ele>717</ele>
        <time>2016-07-30T06:39:58Z</time>
      </trkpt>
      <trkpt lat="44.82483" lon="15.67526">
        <ele>715</ele>
        <time>2016-07-30T06:41:58Z</time>
      </trkpt>
      <trkpt lat="44.82463" lon="15.67544">
        <ele>715</ele>
        <time>2016-07-30T06:43:58Z</time>
      </trkpt>
      <trkpt lat="44.82442" lon="15.67559">
        <ele>715</ele>
        <time>2016-07-30T06:45:58Z</time>
      </trkpt>
      <trkpt lat="44.82421" lon="15.67572">
        <ele>714</ele>
        <time>2016-07-30T06:47:58Z</time>
      </trkpt>
      <trkpt lat="44.82399" lon="15.67583">
        <ele>715</ele>
        <time>2016-07-30T06:49:58Z</time>
      </trkpt>
      <trkpt lat="44.82326" lon="15.67616">
        <ele>721</ele>
        <time>2016-07-30T06:51:58Z</time>
      </trkpt>
      <trkpt lat="44.82302" lon="15.67628">
        <ele>723</ele>
        <time>2016-07-30T06:53:58Z</time>
      </trkpt>
      <trkpt lat="44.82274" lon="15.67645">
        <ele>723</ele>
        <time>2016-07-30T06:55:58Z</time>
      </trkpt>
      <trkpt lat="44.82255" lon="15.67657">
        <ele>722</ele>
        <time>2016-07-30T06:57:58Z</time>
      </trkpt>
      <trkpt lat="44.82232" lon="15.67674">
        <ele>721</ele>
        <time>2016-07-30T06:59:58Z</time>
      </trkpt>
      <trkpt lat="44.82209" lon="15.67692">
        <ele>721</ele>
        <time>2016-07-30T07:01:58Z</time>
      </trkpt>
      <trkpt lat="44.82167" lon="15.6773">
        <ele>717</ele>
        <time>2016-07-30T07:03:58Z</time>
      </trkpt>
      <trkpt lat="44.82085" lon="15.67814">
        <ele>719</ele>
        <time>2016-07-30T07:05:58Z</time>
      </trkpt>
      <trkpt lat="44.82064" lon="15.67834">
        <ele>718</ele>
        <time>2016-07-30T07:07:58Z</time>
      </trkpt>
      <trkpt lat="44.82022" lon="15.67872">
        <ele>719</ele>
        <time>2016-07-30T07:09:58Z</time>
      </trkpt>
      <trkpt lat="44.81978" lon="15.67904">
        <ele>718</ele>
        <time>2016-07-30T07:11:58Z</time>
      </trkpt>
      <trkpt lat="44.81955" lon="15.67917">
        <ele>718</ele>
        <time>2016-07-30T07:13:58Z</time>
      </trkpt>
      <trkpt lat="44.81932" lon="15.67929">
        <ele>718</ele>
        <time>2016-07-30T07:15:58Z</time>
      </trkpt>
      <trkpt lat="44.81908" lon="15.67939">
        <ele>717</ele>
        <time>2016-07-30T07:17:58Z</time>
      </trkpt>
      <trkpt lat="44.81884" lon="15.67947">
        <ele>718</ele>
        <time>2016-07-30T07:19:58Z</time>
      </trkpt>
      <trkpt lat="44.8186" lon="15.67952">
        <ele>718</ele>
        <time>2016-07-30T07:21:58Z</time>
      </trkpt>
      <trkpt lat="44.81835" lon="15.67956">
        <ele>719</ele>
        <time>2016-07-30T07:23:58Z</time>
      </trkpt>
      <trkpt lat="44.8181" lon="15.67958">
        <ele>718</ele>
        <time>2016-07-30T07:25:58Z</time>
      </trkpt>
      <trkpt lat="44.81796" lon="15.67958">
        <ele>718</ele>
        <time>2016-07-30T07:27:58Z</time>
      </trkpt>
      <trkpt lat="44.81785" lon="15.67958">
        <ele>718</ele>
        <time>2016-07-30T07:29:58Z</time>
      </trkpt>
      <trkpt lat="44.81782" lon="15.67958">
        <ele>718</ele>
        <time>2016-07-30T07:31:58Z</time>
      </trkpt>
      <trkpt lat="44.81771" lon="15.67956">
        <ele>717</ele>
        <time>2016-07-30T07:33:58Z</time>
      </trkpt>
      <trkpt lat="44.81761" lon="15.67955">
        <ele>717</ele>
        <time>2016-07-30T07:35:58Z</time>
      </trkpt>
      <trkpt lat="44.81736" lon="15.67952">
        <ele>717</ele>
        <time>2016-07-30T07:37:58Z</time>
      </trkpt>
      <trkpt lat="44.81712" lon="15.67946">
        <ele>717</ele>
        <time>2016-07-30T07:39:58Z</time>
      </trkpt>
      <trkpt lat="44.81687" lon="15.67938">
        <ele>717</ele>
        <time>2016-07-30T07:41:58Z</time>
      </trkpt>
      <trkpt lat="44.8162" lon="15.6791">
        <ele>721</ele>
        <time>2016-07-30T07:43:58Z</time>
      </trkpt>
      <trkpt lat="44.81613" lon="15.67907">
        <ele>721</ele>
        <time>2016-07-30T07:45:58Z</time>
      </trkpt>
      <trkpt lat="44.81597" lon="15.679">
        <ele>722</ele>
        <time>2016-07-30T07:47:58Z</time>
      </trkpt>
      <trkpt lat="44.81575" lon="15.67892">
        <ele>723</ele>
        <time>2016-07-30T07:49:58Z</time>
      </trkpt>
      <trkpt lat="44.81552" lon="15.67887">
        <ele>724</ele>
        <time>2016-07-30T07:51:58Z</time>
      </trkpt>
      <trkpt lat="44.8153" lon="15.67887">
        <ele>725</ele>
        <time>2016-07-30T07:53:58Z</time>
      </trkpt>
      <trkpt lat="44.81518" lon="15.67888">
        <ele>725</ele>
        <time>2016-07-30T07:55:58Z</time>
      </trkpt>
      <trkpt lat="44.81508" lon="15.67891">
        <ele>726</ele>
        <time>2016-07-30T07:57:58Z</time>
      </trkpt>
      <trkpt lat="44.81486" lon="15.67899">
        <ele>726</ele>
        <time>2016-07-30T07:59:58Z</time>
      </trkpt>
      <trkpt lat="44.81465" lon="15.67911">
        <ele>725</ele>
        <time>2016-07-30T08:01:58Z</time>
      </trkpt>
      <trkpt lat="44.81446" lon="15.67925">
        <ele>725</ele>
        <time>2016-07-30T08:03:58Z</time>
      </trkpt>
      <trkpt lat="44.81426" lon="15.67943">
        <ele>724</ele>
        <time>2016-07-30T08:05:58Z</time>
      </trkpt>
      <trkpt lat="44.81417" lon="15.67953">
        <ele>724</ele>
        <time>2016-07-30T08:07:58Z</time>
      </trkpt>
      <trkpt lat="44.81353" lon="15.68033">
        <ele>726</ele>
        <time>2016-07-30T08:09:58Z</time>
      </trkpt>
      <trkpt lat="44.81344" lon="15.68043">
        <ele>726</ele>
        <time>2016-07-30T08:11:58Z</time>
      </trkpt>
      <trkpt lat="44.81334" lon="15.68055">
        <ele>726</ele>
        <time>2016-07-30T08:13:58Z</time>
      </trkpt>
      <trkpt lat="44.81315" lon="15.68076">
        <ele>726</ele>
        <time>2016-07-30T08:15:58Z</time>
      </trkpt>
      <trkpt lat="44.81294" lon="15.68095">
        <ele>727</ele>
        <time>2016-07-30T08:17:58Z</time>
      </trkpt>
      <trkpt lat="44.81279" lon="15.68107">
        <ele>727</ele>
        <time>2016-07-30T08:19:58Z</time>
      </trkpt>
      <trkpt lat="44.81269" lon="15.68114">
        <ele>727</ele>
        <time>2016-07-30T08:21:58Z</time>
      </trkpt>
      <trkpt lat="44.81251" lon="15.68126">
        <ele>727</ele>
        <time>2016-07-30T08:23:58Z</time>
      </trkpt>
      <trkpt lat="44.81228" lon="15.68139">
        <ele>729</ele>
        <time>2016-07-30T08:25:58Z</time>
      </trkpt>
      <trkpt lat="44.81204" lon="15.68149">
        <ele>730</ele>
        <time>2016-07-30T08:27:58Z</time>
      </trkpt>
      <trkpt lat="44.81157" lon="15.68166">
        <ele>732</ele>
        <time>2016-07-30T08:29:58Z</time>
      </trkpt>
      <trkpt lat="44.81091" lon="15.68184">
        <ele>734</ele>
        <time>2016-07-30T08:31:58Z</time>
      </trkpt>
      <trkpt lat="44.81087" lon="15.68185">
        <ele>735</ele>
        <time>2016-07-30T08:33:58Z</time>
      </trkpt>
      <trkpt lat="44.81058" lon="15.68193">
        <ele>735</ele>
        <time>2016-07-30T08:35:58Z</time>
      </trkpt>
      <trkpt lat="44.81007" lon="15.68208">
        <ele>735</ele>
        <time>2016-07-30T08:37:58Z</time>
      </trkpt>
      <trkpt lat="44.8096" lon="15.68224">
        <ele>734</ele>
        <time>2016-07-30T08:39:58Z</time>
      </trkpt>
      <trkpt lat="44.80902" lon="15.68249">
        <ele>734</ele>
        <time>2016-07-30T08:41:58Z</time>
      </trkpt>
      <trkpt lat="44.80819" lon="15.68292">
        <ele>734</ele>
        <time>2016-07-30T08:43:58Z</time>
      </trkpt>
      <trkpt lat="44.80797" lon="15.68301">
        <ele>735</ele>
        <time>2016-07-30T08:45:58Z</time>
      </trkpt>
      <trkpt lat="44.80774" lon="15.68307">
        <ele>735</ele>
        <time>2016-07-30T08:47:58Z</time>
      </trkpt>
      <trkpt lat="44.8075" lon="15.6831">
        <ele>735</ele>
        <time>2016-07-30T08:49:58Z</time>
      </trkpt>
      <trkpt lat="44.80678" lon="15.68313">
        <ele>740</ele>
        <time>2016-07-30T08:51:58Z</time>
      </trkpt>
      <trkpt lat="44.80653" lon="15.68316">
        <ele>742</ele>
        <time>2016-07-30T08:53:58Z</time>
      </trkpt>
      <trkpt lat="44.80631" lon="15.68321">
        <ele>744</ele>
        <time>2016-07-30T08:55:58Z</time>
      </trkpt>
      <trkpt lat="44.806" lon="15.6833">
        <ele>745</ele>
        <time>2016-07-30T08:57:58Z</time>
      </trkpt>
      <trkpt lat="44.80573" lon="15.68335">
        <ele>746</ele>
        <time>2016-07-30T08:59:58Z</time>
      </trkpt>
      <trkpt lat="44.80537" lon="15.68337">
        <ele>746</ele>
        <time>2016-07-30T09:01:58Z</time>
      </trkpt>
      <trkpt lat="44.80481" lon="15.68336">
        <ele>745</ele>
        <time>2016-07-30T09:03:58Z</time>
      </trkpt>
      <trkpt lat="44.80366" lon="15.68328">
        <ele>743</ele>
        <time>2016-07-30T09:05:58Z</time>
      </trkpt>
      <trkpt lat="44.80288" lon="15.6832">
        <ele>745</ele>
        <time>2016-07-30T09:07:58Z</time>
      </trkpt>
      <trkpt lat="44.80194" lon="15.68304">
        <ele>748</ele>
        <time>2016-07-30T09:09:58Z</time>
      </trkpt>
      <trkpt lat="44.80131" lon="15.68293">
        <ele>750</ele>
        <time>2016-07-30T09:11:58Z</time>
      </trkpt>
      <trkpt lat="44.80078" lon="15.68294">
        <ele>752</ele>
        <time>2016-07-30T09:13:58Z</time>
      </trkpt>
      <trkpt lat="44.80011" lon="15.68301">
        <ele>758</ele>
        <time>2016-07-30T09:15:58Z</time>
      </trkpt>
      <trkpt lat="44.79922" lon="15.68307">
        <ele>764</ele>
        <time>2016-07-30T09:17:58Z</time>
      </trkpt>
      <trkpt lat="44.79893" lon="15.68307">
        <ele>766</ele>
        <time>2016-07-30T09:19:58Z</time>
      </trkpt>
      <trkpt lat="44.79844" lon="15.68318">
        <ele>771</ele>
        <time>2016-07-30T09:21:58Z</time>
      </trkpt>
      <trkpt lat="44.79821" lon="15.68325">
        <ele>772</ele>
        <time>2016-07-30T09:23:58Z</time>
      </trkpt>
      <trkpt lat="44.79802" lon="15.68331">
        <ele>773</ele>
        <time>2016-07-30T09:25:58Z</time>
      </trkpt>
      <trkpt lat="44.79777" lon="15.68342">
        <ele>776</ele>
        <time>2016-07-30T09:27:58Z</time>
      </trkpt>
      <trkpt lat="44.79777" lon="15.68343">
        <ele>776</ele>
        <time>2016-07-30T09:29:58Z</time>
      </trkpt>
      <trkpt lat="44.79745" lon="15.68361">
        <ele>778</ele>
        <time>2016-07-30T09:31:58Z</time>
      </trkpt>
      <trkpt lat="44.79686" lon="15.68405">
        <ele>774</ele>
        <time>2016-07-30T09:33:58Z</time>
      </trkpt>
      <trkpt lat="44.796" lon="15.68472">
        <ele>774</ele>
        <time>2016-07-30T09:35:58Z</time>
      </trkpt>
      <trkpt lat="44.79512" lon="15.68534">
        <ele>770</ele>
        <time>2016-07-30T09:37:58Z</time>
      </trkpt>
      <trkpt lat="44.79458" lon="15.6857">
        <ele>768</ele>
        <time>2016-07-30T09:39:58Z</time>
      </trkpt>
      <trkpt lat="44.79392" lon="15.68605">
        <ele>764</ele>
        <time>2016-07-30T09:41:58Z</time>
      </trkpt>
      <trkpt lat="44.79321" lon="15.68634">
        <ele>759</ele>
        <time>2016-07-30T09:43:58Z</time>
      </trkpt>
      <trkpt lat="44.79267" lon="15.68651">
        <ele>751</ele>
        <time>2016-07-30T09:45:58Z</time>
      </trkpt>
      <trkpt lat="44.79219" lon="15.68664">
        <ele>749</ele>
        <time>2016-07-30T09:47:58Z</time>
      </trkpt>
      <trkpt lat="44.79174" lon="15.68672">
        <ele>748</ele>
        <time>2016-07-30T09:49:58Z</time>
      </trkpt>
      <trkpt lat="44.79129" lon="15.68679">
        <ele>750</ele>
        <time>2016-07-30T09:51:58Z</time>
      </trkpt>
      <trkpt lat="44.79066" lon="15.68682">
        <ele>750</ele>
        <time>2016-07-30T09:53:58Z</time>
      </trkpt>
      <trkpt lat="44.79022" lon="15.68684">
        <ele>750</ele>
        <time>2016-07-30T09:55:58Z</time>
      </trkpt>
      <trkpt lat="44.78934" lon="15.68675">
        <ele>746</ele>
        <time>2016-07-30T09:57:58Z</time>
      </trkpt>
      <trkpt lat="44.78767" lon="15.68645">
        <ele>741</ele>
        <time>2016-07-30T09:59:58Z</time>
      </trkpt>
      <trkpt lat="44.78717" lon="15.68639">
        <ele>738</ele>
        <time>2016-07-30T10:01:58Z</time>
      </trkpt>
      <trkpt lat="44.78692" lon="15.68638">
        <ele>736</ele>
        <time>2016-07-30T10:03:58Z</time>
      </trkpt>
      <trkpt lat="44.7864" lon="15.6864">
        <ele>732</ele>
        <time>2016-07-30T10:05:58Z</time>
      </trkpt>
      <trkpt lat="44.78588" lon="15.68646">
        <ele>727</ele>
        <time>2016-07-30T10:07:58Z</time>
      </trkpt>
      <trkpt lat="44.78563" lon="15.6865">
        <ele>725</ele>
        <time>2016-07-30T10:09:58Z</time>
      </trkpt>
      <trkpt lat="44.78519" lon="15.68661">
        <ele>724</ele>
        <time>2016-07-30T10:11:58Z</time>
      </trkpt>
      <trkpt lat="44.7848" lon="15.68673">
        <ele>724</ele>
        <time>2016-07-30T10:13:58Z</time>
      </trkpt>
      <trkpt lat="44.78444" lon="15.68687">
        <ele>724</ele>
        <time>2016-07-30T10:15:58Z</time>
      </trkpt>
      <trkpt lat="44.78418" lon="15.68699">
        <ele>725</ele>
        <time>2016-07-30T10:17:58Z</time>
      </trkpt>
      <trkpt lat="44.78391" lon="15.68713">
        <ele>724</ele>
        <time>2016-07-30T10:19:58Z</time>
      </trkpt>
      <trkpt lat="44.7834" lon="15.68742">
        <ele>722</ele>
        <time>2016-07-30T10:21:58Z</time>
      </trkpt>
      <trkpt lat="44.78232" lon="15.68808">
        <ele>716</ele>
        <time>2016-07-30T10:23:58Z</time>
      </trkpt>
      <trkpt lat="44.78163" lon="15.68851">
        <ele>713</ele>
        <time>2016-07-30T10:25:58Z</time>
      </trkpt>
      <trkpt lat="44.78098" lon="15.6889">
        <ele>711</ele>
        <time>2016-07-30T10:27:58Z</time>
      </trkpt>
      <trkpt lat="44.78006" lon="15.68939">
        <ele>707</ele>
        <time>2016-07-30T10:29:58Z</time>
      </trkpt>
      <trkpt lat="44.77919" lon="15.68979">
        <ele>703</ele>
        <time>2016-07-30T10:31:58Z</time>
      </trkpt>
      <trkpt lat="44.7783" lon="15.69016">
        <ele>701</ele>
        <time>2016-07-30T10:33:58Z</time>
      </trkpt>
      <trkpt lat="44.77745" lon="15.69046">
        <ele>698</ele>
        <time>2016-07-30T10:35:58Z</time>
      </trkpt>
      <trkpt lat="44.77703" lon="15.69058">
        <ele>696</ele>
        <time>2016-07-30T10:37:58Z</time>
      </trkpt>
      <trkpt lat="44.77641" lon="15.69074">
        <ele>693</ele>
        <time>2016-07-30T10:39:58Z</time>
      </trkpt>
      <trkpt lat="44.7758" lon="15.69088">
        <ele>691</ele>
        <time>2016-07-30T10:41:58Z</time>
      </trkpt>
      <trkpt lat="44.77547" lon="15.69093">
        <ele>689</ele>
        <time>2016-07-30T10:43:58Z</time>
      </trkpt>
      <trkpt lat="44.77504" lon="15.69101">
        <ele>688</ele>
        <time>2016-07-30T10:45:58Z</time>
      </trkpt>
      <trkpt lat="44.77452" lon="15.69107">
        <ele>686</ele>
        <time>2016-07-30T10:47:58Z</time>
      </trkpt>
      <trkpt lat="44.7744" lon="15.69108">
        <ele>686</ele>
        <time>2016-07-30T10:49:58Z</time>
      </trkpt>
      <trkpt lat="44.77399" lon="15.6911">
        <ele>684</ele>
        <time>2016-07-30T10:51:58Z</time>
      </trkpt>
      <trkpt lat="44.77342" lon="15.69112">
        <ele>681</ele>
        <time>2016-07-30T10:53:58Z</time>
      </trkpt>
      <trkpt lat="44.77335" lon="15.69112">
        <ele>681</ele>
        <time>2016-07-30T10:55:58Z</time>
      </trkpt>
      <trkpt lat="44.7718" lon="15.69111">
        <ele>675</ele>
        <time>2016-07-30T10:57:58Z</time>
      </trkpt>
      <trkpt lat="44.77041" lon="15.69104">
        <ele>670</ele>
        <time>2016-07-30T10:59:58Z</time>
      </trkpt>
      <trkpt lat="44.77026" lon="15.69103">
        <ele>670</ele>
        <time>2016-07-30T11:01:58Z</time>
      </trkpt>
      <trkpt lat="44.76985" lon="15.69101">
        <ele>669</ele>
        <time>2016-07-30T11:03:58Z</time>
      </trkpt>
      <trkpt lat="44.76942" lon="15.69102">
        <ele>669</ele>
        <time>2016-07-30T11:05:58Z</time>
      </trkpt>
      <trkpt lat="44.76888" lon="15.69105">
        <ele>668</ele>
        <time>2016-07-30T11:07:58Z</time>
      </trkpt>
      <trkpt lat="44.76825" lon="15.69116">
        <ele>669</ele>
        <time>2016-07-30T11:09:58Z</time>
      </trkpt>
      <trkpt lat="44.7674" lon="15.69138">
        <ele>673</ele>
        <time>2016-07-30T11:11:58Z</time>
      </trkpt>
      <trkpt lat="44.76733" lon="15.69136">
        <ele>673</ele>
        <time>2016-07-30T11:13:58Z</time>
      </trkpt>
      <trkpt lat="44.76731" lon="15.69136">
        <ele>673</ele>
        <time>2016-07-30T11:15:58Z</time>
      </trkpt>
      <trkpt lat="44.76677" lon="15.69148">
        <ele>673</ele>
        <time>2016-07-30T11:17:58Z</time>
      </trkpt>
      <trkpt lat="44.76666" lon="15.69151">
        <ele>673</ele>
        <time>2016-07-30T11:19:58Z</time>
      </trkpt>
      <trkpt lat="44.76607" lon="15.69158">
        <ele>674</ele>
        <time>2016-07-30T11:21:58Z</time>
      </trkpt>
      <trkpt lat="44.76572" lon="15.69163">
        <ele>676</ele>
        <time>2016-07-30T11:23:58Z</time>
      </trkpt>
      <trkpt lat="44.76568" lon="15.69164">
        <ele>676</ele>
        <time>2016-07-30T11:25:58Z</time>
      </trkpt>
      <trkpt lat="44.76551" lon="15.69163">
        <ele>676</ele>
        <time>2016-07-30T11:27:58Z</time>
      </trkpt>
      <trkpt lat="44.76491" lon="15.69154">
        <ele>678</ele>
        <time>2016-07-30T11:29:58Z</time>
      </trkpt>
      <trkpt lat="44.76482" lon="15.69153">
        <ele>679</ele>
        <time>2016-07-30T11:31:58Z</time>
      </trkpt>
      <trkpt lat="44.76471" lon="15.69155">
        <ele>678</ele>
        <time>2016-07-30T11:33:58Z</time>
      </trkpt>
      <trkpt lat="44.76457" lon="15.69154">
        <ele>679</ele>
        <time>2016-07-30T11:35:58Z</time>
      </trkpt>
      <trkpt lat="44.7643" lon="15.69153">
        <ele>679</ele>
        <time>2016-07-30T11:37:58Z</time>
      </trkpt>
      <trkpt lat="44.76407" lon="15.69154">
        <ele>678</ele>
        <time>2016-07-30T11:39:58Z</time>
      </trkpt>
      <trkpt lat="44.76377" lon="15.69161">
        <ele>677</ele>
        <time>2016-07-30T11:41:58Z</time>
      </trkpt>
      <trkpt lat="44.76327" lon="15.69179">
        <ele>676</ele>
        <time>2016-07-30T11:43:58Z</time>
      </trkpt>
      <trkpt lat="44.76216" lon="15.69225">
        <ele>674</ele>
        <time>2016-07-30T11:45:58Z</time>
      </trkpt>
      <trkpt lat="44.76214" lon="15.69226">
        <ele>674</ele>
        <time>2016-07-30T11:47:58Z</time>
      </trkpt>
      <trkpt lat="44.76153" lon="15.6925">
        <ele>674</ele>
        <time>2016-07-30T11:49:58Z</time>
      </trkpt>
      <trkpt lat="44.7611" lon="15.69272">
        <ele>675</ele>
        <time>2016-07-30T11:51:58Z</time>
      </trkpt>
      <trkpt lat="44.76085" lon="15.69289">
        <ele>675</ele>
        <time>2016-07-30T11:53:58Z</time>
      </trkpt>
      <trkpt lat="44.76074" lon="15.69298">
        <ele>674</ele>
        <time>2016-07-30T11:55:58Z</time>
      </trkpt>
      <trkpt lat="44.76051" lon="15.69319">
        <ele>674</ele>
        <time>2016-07-30T11:57:58Z</time>
      </trkpt>
      <trkpt lat="44.76019" lon="15.69357">
        <ele>674</ele>
        <time>2016-07-30T11:59:58Z</time>
      </trkpt>
      <trkpt lat="44.76008" lon="15.69372">
        <ele>673</ele>
        <time>2016-07-30T12:01:58Z</time>
      </trkpt>
      <trkpt lat="44.75936" lon="15.69486">
        <ele>670</ele>
        <time>2016-07-30T12:03:58Z</time>
      </trkpt>
      <trkpt lat="44.75915" lon="15.69517">
        <ele>670</ele>
        <time>2016-07-30T12:05:58Z</time>
      </trkpt>
      <trkpt lat="44.75892" lon="15.69547">
        <ele>670</ele>
        <time>2016-07-30T12:07:58Z</time>
      </trkpt>
      <trkpt lat="44.75821" lon="15.69632">
        <ele>670</ele>
        <time>2016-07-30T12:09:58Z</time>
      </trkpt>
      <trkpt lat="44.75764" lon="15.69697">
        <ele>669</ele>
        <time>2016-07-30T12:11:58Z</time>
      </trkpt>
      <trkpt lat="44.75717" lon="15.69754">
        <ele>668</ele>
        <time>2016-07-30T12:13:58Z</time>
      </trkpt>
      <trkpt lat="44.75673" lon="15.69808">
        <ele>669</ele>
        <time>2016-07-30T12:15:58Z</time>
      </trkpt>
      <trkpt lat="44.75651" lon="15.69835">
        <ele>669</ele>
        <time>2016-07-30T12:17:58Z</time>
      </trkpt>
      <trkpt lat="44.75616" lon="15.69871">
        <ele>668</ele>
        <time>2016-07-30T12:19:58Z</time>
      </trkpt>
      <trkpt lat="44.75575" lon="15.69911">
        <ele>666</ele>
        <time>2016-07-30T12:21:58Z</time>
      </trkpt>
      <trkpt lat="44.75531" lon="15.69945">
        <ele>665</ele>
        <time>2016-07-30T12:23:58Z</time>
      </trkpt>
      <trkpt lat="44.75528" lon="15.69948">
        <ele>665</ele>
        <time>2016-07-30T12:25:58Z</time>
      </trkpt>
      <trkpt lat="44.75498" lon="15.69971">
        <ele>664</ele>
        <time>2016-07-30T12:27:58Z</time>
      </trkpt>
      <trkpt lat="44.75487" lon="15.69979">
        <ele>664</ele>
        <time>2016-07-30T12:29:58Z</time>
      </trkpt>
      <trkpt lat="44.75465" lon="15.69994">
        <ele>663</ele>
        <time>2016-07-30T12:31:58Z</time>
      </trkpt>
      <trkpt lat="44.75402" lon="15.7004">
        <ele>660</ele>
        <time>2016-07-30T12:33:58Z</time>
      </trkpt>
      <trkpt lat="44.75392" lon="15.70047">
        <ele>659</ele>
        <time>2016-07-30T12:35:58Z</time>
      </trkpt>
      <trkpt lat="44.75305" lon="15.70111">
        <ele>656</ele>
        <time>2016-07-30T12:37:58Z</time>
      </trkpt>
      <trkpt lat="44.75264" lon="15.70145">
        <ele>657</ele>
        <time>2016-07-30T12:39:58Z</time>
      </trkpt>
      <trkpt lat="44.75263" lon="15.70145">
        <ele>657</ele>
        <time>2016-07-30T12:41:58Z</time>
      </trkpt>
      <trkpt lat="44.75212" lon="15.70194">
        <ele>658</ele>
        <time>2016-07-30T12:43:58Z</time>
      </trkpt>
      <trkpt lat="44.75191" lon="15.70214">
        <ele>658</ele>
        <time>2016-07-30T12:45:58Z</time>
      </trkpt>
      <trkpt lat="44.75186" lon="15.70218">
        <ele>658</ele>
        <time>2016-07-30T12:47:58Z</time>
      </trkpt>
      <trkpt lat="44.75174" lon="15.70229">
        <ele>657</ele>
        <time>2016-07-30T12:49:58Z</time>
      </trkpt>
      <trkpt lat="44.75164" lon="15.70236">
        <ele>657</ele>
        <time>2016-07-30T12:51:58Z</time>
      </trkpt>
      <trkpt lat="44.75146" lon="15.70249">
        <ele>658</ele>
        <time>2016-07-30T12:53:58Z</time>
      </trkpt>
      <trkpt lat="44.75121" lon="15.70266">
        <ele>658</ele>
        <time>2016-07-30T12:55:58Z</time>
      </trkpt>
      <trkpt lat="44.75093" lon="15.7028">
        <ele>659</ele>
        <time>2016-07-30T12:57:58Z</time>
      </trkpt>
      <trkpt lat="44.75078" lon="15.70286">
        <ele>659</ele>
        <time>2016-07-30T12:59:58Z</time>
      </trkpt>
      <trkpt lat="44.75038" lon="15.70301">
        <ele>660</ele>
        <time>2016-07-30T13:01:58Z</time>
      </trkpt>
      <trkpt lat="44.75031" lon="15.70304">
        <ele>661</ele>
        <time>2016-07-30T13:03:58Z</time>
      </trkpt>
      <trkpt lat="44.74981" lon="15.70319">
        <ele>662</ele>
        <time>2016-07-30T13:05:58Z</time>
      </trkpt>
      <trkpt lat="44.74938" lon="15.70331">
        <ele>663</ele>
        <time>2016-07-30T13:07:58Z</time>
      </trkpt>
      <trkpt lat="44.74936" lon="15.70332">
        <ele>663</ele>
        <time>2016-07-30T13:09:58Z</time>
      </trkpt>
      <trkpt lat="44.74935" lon="15.70332">
        <ele>663</ele>
        <time>2016-07-30T13:11:58Z</time>
      </trkpt>
      <trkpt lat="44.74857" lon="15.70357">
        <ele>664</ele>
        <time>2016-07-30T13:13:58Z</time>
      </trkpt>
      <trkpt lat="44.7482" lon="15.70369">
        <ele>665</ele>
        <time>2016-07-30T13:15:58Z</time>
      </trkpt>
      <trkpt lat="44.74791" lon="15.70374">
        <ele>666</ele>
        <time>2016-07-30T13:17:58Z</time>
      </trkpt>
      <trkpt lat="44.74725" lon="15.70382">
        <ele>667</ele>
        <time>2016-07-30T13:19:58Z</time>
      </trkpt>
      <trkpt lat="44.74719" lon="15.70384">
        <ele>667</ele>
        <time>2016-07-30T13:21:58Z</time>
      </trkpt>
      <trkpt lat="44.74701" lon="15.70389">
        <ele>666</ele>
        <time>2016-07-30T13:23:58Z</time>
      </trkpt>
      <trkpt lat="44.74669" lon="15.70403">
        <ele>666</ele>
        <time>2016-07-30T13:25:58Z</time>
      </trkpt>
      <trkpt lat="44.74651" lon="15.70417">
        <ele>665</ele>
        <time>2016-07-30T13:27:58Z</time>
      </trkpt>
      <trkpt lat="44.74636" lon="15.70434">
        <ele>664</ele>
        <time>2016-07-30T13:29:58Z</time>
      </trkpt>
      <trkpt lat="44.74613" lon="15.70461">
        <ele>662</ele>
        <time>2016-07-30T13:31:58Z</time>
      </trkpt>
      <trkpt lat="44.74605" lon="15.7047">
        <ele>662</ele>
        <time>2016-07-30T13:33:58Z</time>
      </trkpt>
      <trkpt lat="44.74589" lon="15.70487">
        <ele>661</ele>
        <time>2016-07-30T13:35:58Z</time>
      </trkpt>
      <trkpt lat="44.74544" lon="15.7053">
        <ele>660</ele>
        <time>2016-07-30T13:37:58Z</time>
      </trkpt>
      <trkpt lat="44.74529" lon="15.70544">
        <ele>659</ele>
        <time>2016-07-30T13:39:58Z</time>
      </trkpt>
      <trkpt lat="44.74505" lon="15.70565">
        <ele>658</ele>
        <time>2016-07-30T13:41:58Z</time>
      </trkpt>
      <trkpt lat="44.74495" lon="15.70573">
        <ele>658</ele>
        <time>2016-07-30T13:43:58Z</time>
      </trkpt>
      <trkpt lat="44.74447" lon="15.70609">
        <ele>657</ele>
        <time>2016-07-30T13:45:58Z</time>
      </trkpt>
      <trkpt lat="44.74434" lon="15.70619">
        <ele>657</ele>
        <time>2016-07-30T13:47:58Z</time>
      </trkpt>
      <trkpt lat="44.74431" lon="15.70621">
        <ele>657</ele>
        <time>2016-07-30T13:49:58Z</time>
      </trkpt>
      <trkpt lat="44.74422" lon="15.70627">
        <ele>657</ele>
        <time>2016-07-30T13:51:58Z</time>
      </trkpt>
      <trkpt lat="44.74407" lon="15.7064">
        <ele>658</ele>
        <time>2016-07-30T13:53:58Z</time>
      </trkpt>
      <trkpt lat="44.74389" lon="15.70656">
        <ele>658</ele>
        <time>2016-07-30T13:55:58Z</time>
      </trkpt>
      <trkpt lat="44.74388" lon="15.70659">
        <ele>658</ele>
        <time>2016-07-30T13:57:58Z</time>
      </trkpt>
      <trkpt lat="44.74385" lon="15.70662">
        <ele>659</ele>
        <time>2016-07-30T13:59:58Z</time>
      </trkpt>
      <trkpt lat="44.7438" lon="15.70669">
        <ele>659</ele>
        <time>2016-07-30T14:01:58Z</time>
      </trkpt>
      <trkpt lat="44.7437" lon="15.70681">
        <ele>659</ele>
        <time>2016-07-30T14:03:58Z</time>
      </trkpt>
      <trkpt lat="44.74351" lon="15.70705">
        <ele>659</ele>
        <time>2016-07-30T14:05:58Z</time>
      </trkpt>
      <trkpt lat="44.74333" lon="15.70733">
        <ele>659</ele>
        <time>2016-07-30T14:07:58Z</time>
      </trkpt>
      <trkpt lat="44.74306" lon="15.70777">
        <ele>658</ele>
        <time>2016-07-30T14:09:58Z</time>
      </trkpt>
      <trkpt lat="44.74305" lon="15.70778">
        <ele>658</ele>
        <time>2016-07-30T14:11:58Z</time>
      </trkpt>
      <trkpt lat="44.74274" lon="15.70834">
        <ele>657</ele>
        <time>2016-07-30T14:13:58Z</time>
      </trkpt>
      <trkpt lat="44.74253" lon="15.70877">
        <ele>657</ele>
        <time>2016-07-30T14:15:58Z</time>
      </trkpt>
      <trkpt lat="44.74226" lon="15.70934">
        <ele>657</ele>
        <time>2016-07-30T14:17:58Z</time>
      </trkpt>
      <trkpt lat="44.74219" lon="15.7095">
        <ele>657</ele>
        <time>2016-07-30T14:19:58Z</time>
      </trkpt>
      <trkpt lat="44.74206" lon="15.70978">
        <ele>656</ele>
        <time>2016-07-30T14:21:58Z</time>
      </trkpt>
      <trkpt lat="44.74185" lon="15.71028">
        <ele>654</ele>
        <time>2016-07-30T14:23:58Z</time>
      </trkpt>
      <trkpt lat="44.74183" lon="15.71033">
        <ele>654</ele>
        <time>2016-07-30T14:25:58Z</time>
      </trkpt>
      <trkpt lat="44.7418" lon="15.71039">
        <ele>654</ele>
        <time>2016-07-30T14:27:58Z</time>
      </trkpt>
      <trkpt lat="44.74131" lon="15.71139">
        <ele>652</ele>
        <time>2016-07-30T14:29:58Z</time>
      </trkpt>
      <trkpt lat="44.74131" lon="15.7114">
        <ele>652</ele>
        <time>2016-07-30T14:31:58Z</time>
      </trkpt>
      <trkpt lat="44.74113" lon="15.71175">
        <ele>652</ele>
        <time>2016-07-30T14:33:58Z</time>
      </trkpt>
      <trkpt lat="44.74109" lon="15.71189">
        <ele>652</ele>
        <time>2016-07-30T14:35:58Z</time>
      </trkpt>
      <trkpt lat="44.74092" lon="15.71222">
        <ele>651</ele>
        <time>2016-07-30T14:37:58Z</time>
      </trkpt>
      <trkpt lat="44.74021" lon="15.71361">
        <ele>649</ele>
        <time>2016-07-30T14:39:58Z</time>
      </trkpt>
      <trkpt lat="44.74017" lon="15.7137">
        <ele>648</ele>
        <time>2016-07-30T14:41:58Z</time>
      </trkpt>
      <trkpt lat="44.73987" lon="15.71431">
        <ele>648</ele>
        <time>2016-07-30T14:43:58Z</time>
      </trkpt>
      <trkpt lat="44.73956" lon="15.71489">
        <ele>647</ele>
        <time>2016-07-30T14:45:58Z</time>
      </trkpt>
      <trkpt lat="44.73925" lon="15.71546">
        <ele>648</ele>
        <time>2016-07-30T14:47:58Z</time>
      </trkpt>
      <trkpt lat="44.73924" lon="15.71546">
        <ele>648</ele>
        <time>2016-07-30T14:49:58Z</time>
      </trkpt>
      <trkpt lat="44.73912" lon="15.71566">
        <ele>648</ele>
        <time>2016-07-30T14:51:58Z</time>
      </trkpt>
      <trkpt lat="44.73895" lon="15.71594">
        <ele>649</ele>
        <time>2016-07-30T14:53:58Z</time>
      </trkpt>
      <trkpt lat="44.73869" lon="15.71628">
        <ele>649</ele>
        <time>2016-07-30T14:55:58Z</time>
      </trkpt>
      <trkpt lat="44.73853" lon="15.71646">
        <ele>650</ele>
        <time>2016-07-30T14:57:58Z</time>
      </trkpt>
      <trkpt lat="44.73837" lon="15.71663">
        <ele>650</ele>
        <time>2016-07-30T14:59:58Z</time>
      </trkpt>
      <trkpt lat="44.73821" lon="15.7168">
        <ele>651</ele>
        <time>2016-07-30T15:01:58Z</time>
      </trkpt>
      <trkpt lat="44.73787" lon="15.71717">
        <ele>652</ele>
        <time>2016-07-30T15:03:58Z</time>
      </trkpt>
      <trkpt lat="44.73685" lon="15.71832">
        <ele>652</ele>
        <time>2016-07-30T15:05:58Z</time>
      </trkpt>
      <trkpt lat="44.73676" lon="15.71842">
        <ele>653</ele>
        <time>2016-07-30T15:07:58Z</time>
      </trkpt>
      <trkpt lat="44.73672" lon="15.71846">
        <ele>653</ele>
        <time>2016-07-30T15:09:58Z</time>
      </trkpt>
      <trkpt lat="44.73615" lon="15.71918">
        <ele>653</ele>
        <time>2016-07-30T15:11:58Z</time>
      </trkpt>
      <trkpt lat="44.73604" lon="15.71933">
        <ele>653</ele>
        <time>2016-07-30T15:13:58Z</time>
      </trkpt>
      <trkpt lat="44.73601" lon="15.71939">
        <ele>653</ele>
        <time>2016-07-30T15:15:58Z</time>
      </trkpt>
      <trkpt lat="44.73592" lon="15.71955">
        <ele>652</ele>
        <time>2016-07-30T15:17:58Z</time>
      </trkpt>
      <trkpt lat="44.73585" lon="15.71972">
        <ele>652</ele>
        <time>2016-07-30T15:19:58Z</time>
      </trkpt>
      <trkpt lat="44.7358" lon="15.7199">
        <ele>651</ele>
        <time>2016-07-30T15:21:58Z</time>
      </trkpt>
      <trkpt lat="44.73579" lon="15.72005">
        <ele>651</ele>
        <time>2016-07-30T15:23:58Z</time>
      </trkpt>
      <trkpt lat="44.73578" lon="15.72018">
        <ele>651</ele>
        <time>2016-07-30T15:25:58Z</time>
      </trkpt>
      <trkpt lat="44.73578" lon="15.72039">
        <ele>652</ele>
        <time>2016-07-30T15:27:58Z</time>
      </trkpt>
      <trkpt lat="44.73578" lon="15.72079">
        <ele>653</ele>
        <time>2016-07-30T15:29:58Z</time>
      </trkpt>
      <trkpt lat="44.73582" lon="15.7214">
        <ele>655</ele>
        <time>2016-07-30T15:31:58Z</time>
      </trkpt>
      <trkpt lat="44.73582" lon="15.72153">
        <ele>656</ele>
        <time>2016-07-30T15:33:58Z</time>
      </trkpt>
      <trkpt lat="44.73582" lon="15.72182">
        <ele>656</ele>
        <time>2016-07-30T15:35:58Z</time>
      </trkpt>
      <trkpt lat="44.73582" lon="15.72223">
        <ele>657</ele>
        <time>2016-07-30T15:37:58Z</time>
      </trkpt>
      <trkpt lat="44.7358" lon="15.72252">
        <ele>658</ele>
        <time>2016-07-30T15:39:58Z</time>
      </trkpt>
      <trkpt lat="44.73573" lon="15.72293">
        <ele>657</ele>
        <time>2016-07-30T15:41:58Z</time>
      </trkpt>
      <trkpt lat="44.73563" lon="15.7234">
        <ele>656</ele>
        <time>2016-07-30T15:43:58Z</time>
      </trkpt>
      <trkpt lat="44.7355" lon="15.72382">
        <ele>654</ele>
        <time>2016-07-30T15:45:58Z</time>
      </trkpt>
      <trkpt lat="44.73528" lon="15.72465">
        <ele>649</ele>
        <time>2016-07-30T15:47:58Z</time>
      </trkpt>
      <trkpt lat="44.73512" lon="15.72513">
        <ele>646</ele>
        <time>2016-07-30T15:49:58Z</time>
      </trkpt>
      <trkpt lat="44.73504" lon="15.72536">
        <ele>645</ele>
        <time>2016-07-30T15:51:58Z</time>
      </trkpt>
      <trkpt lat="44.73494" lon="15.72559">
        <ele>644</ele>
        <time>2016-07-30T15:53:58Z</time>
      </trkpt>
      <trkpt lat="44.73486" lon="15.72575">
        <ele>643</ele>
        <time>2016-07-30T15:55:58Z</time>
      </trkpt>
      <trkpt lat="44.73463" lon="15.72605">
        <ele>643</ele>
        <time>2016-07-30T15:57:58Z</time>
      </trkpt>
      <trkpt lat="44.73436" lon="15.7263">
        <ele>642</ele>
        <time>2016-07-30T15:59:58Z</time>
      </trkpt>
      <trkpt lat="44.73436" lon="15.72631">
        <ele>642</ele>
        <time>2016-07-30T16:01:58Z</time>
      </trkpt>
      <trkpt lat="44.73431" lon="15.72634">
        <ele>642</ele>
        <time>2016-07-30T16:03:58Z</time>
      </trkpt>
      <trkpt lat="44.73421" lon="15.72641">
        <ele>642</ele>
        <time>2016-07-30T16:05:58Z</time>
      </trkpt>
      <trkpt lat="44.7337" lon="15.72673">
        <ele>640</ele>
        <time>2016-07-30T16:07:58Z</time>
      </trkpt>
      <trkpt lat="44.73361" lon="15.72679">
        <ele>640</ele>
        <time>2016-07-30T16:09:58Z</time>
      </trkpt>
      <trkpt lat="44.73335" lon="15.72697">
        <ele>640</ele>
        <time>2016-07-30T16:11:58Z</time>
      </trkpt>
      <trkpt lat="44.73301" lon="15.72729">
        <ele>640</ele>
        <time>2016-07-30T16:13:58Z</time>
      </trkpt>
      <trkpt lat="44.73286" lon="15.72748">
        <ele>641</ele>
        <time>2016-07-30T16:15:58Z</time>
      </trkpt>
      <trkpt lat="44.73273" lon="15.72768">
        <ele>641</ele>
        <time>2016-07-30T16:17:58Z</time>
      </trkpt>
      <trkpt lat="44.7326" lon="15.72789">
        <ele>641</ele>
        <time>2016-07-30T16:19:58Z</time>
      </trkpt>
      <trkpt lat="44.7324" lon="15.72828">
        <ele>640</ele>
        <time>2016-07-30T16:21:58Z</time>
      </trkpt>
      <trkpt lat="44.73221" lon="15.7287">
        <ele>641</ele>
        <time>2016-07-30T16:23:58Z</time>
      </trkpt>
      <trkpt lat="44.73199" lon="15.72912">
        <ele>642</ele>
        <time>2016-07-30T16:25:58Z</time>
      </trkpt>
      <trkpt lat="44.73179" lon="15.72945">
        <ele>643</ele>
        <time>2016-07-30T16:27:58Z</time>
      </trkpt>
      <trkpt lat="44.7317" lon="15.72958">
        <ele>643</ele>
        <time>2016-07-30T16:29:58Z</time>
      </trkpt>
      <trkpt lat="44.73161" lon="15.7297">
        <ele>643</ele>
        <time>2016-07-30T16:31:58Z</time>
      </trkpt>
      <trkpt lat="44.73153" lon="15.72981">
        <ele>643</ele>
        <time>2016-07-30T16:33:58Z</time>
      </trkpt>
      <trkpt lat="44.7314" lon="15.72997">
        <ele>643</ele>
        <time>2016-07-30T16:35:58Z</time>
      </trkpt>
      <trkpt lat="44.73122" lon="15.73017">
        <ele>643</ele>
        <time>2016-07-30T16:37:58Z</time>
      </trkpt>
      <trkpt lat="44.73023" lon="15.73108">
        <ele>642</ele>
        <time>2016-07-30T16:39:58Z</time>
      </trkpt>
      <trkpt lat="44.72967" lon="15.73157">
        <ele>641</ele>
        <time>2016-07-30T16:41:58Z</time>
      </trkpt>
      <trkpt lat="44.72893" lon="15.73234">
        <ele>642</ele>
        <time>2016-07-30T16:43:58Z</time>
      </trkpt>
      <trkpt lat="44.72817" lon="15.73322">
        <ele>643</ele>
        <time>2016-07-30T16:45:58Z</time>
      </trkpt>
      <trkpt lat="44.7279" lon="15.73352">
        <ele>644</ele>
        <time>2016-07-30T16:47:58Z</time>
      </trkpt>
      <trkpt lat="44.72758" lon="15.73383">
        <ele>645</ele>
        <time>2016-07-30T16:49:58Z</time>
      </trkpt>
      <trkpt lat="44.72731" lon="15.73403">
        <ele>646</ele>
        <time>2016-07-30T16:51:58Z</time>
      </trkpt>
      <trkpt lat="44.72709" lon="15.73418">
        <ele>647</ele>
        <time>2016-07-30T16:53:58Z</time>
      </trkpt>
      <trkpt lat="44.72663" lon="15.73445">
        <ele>649</ele>
        <time>2016-07-30T16:55:58Z</time>
      </trkpt>
      <trkpt lat="44.72559" lon="15.73493">
        <ele>652</ele>
        <time>2016-07-30T16:57:58Z</time>
      </trkpt>
      <trkpt lat="44.72449" lon="15.73544">
        <ele>654</ele>
        <time>2016-07-30T16:59:58Z</time>
      </trkpt>
      <trkpt lat="44.72413" lon="15.73562">
        <ele>655</ele>
        <time>2016-07-30T17:01:58Z</time>
      </trkpt>
      <trkpt lat="44.72396" lon="15.73571">
        <ele>656</ele>
        <time>2016-07-30T17:03:58Z</time>
      </trkpt>
      <trkpt lat="44.72381" lon="15.73581">
        <ele>656</ele>
        <time>2016-07-30T17:05:58Z</time>
      </trkpt>
      <trkpt lat="44.7238" lon="15.73582">
        <ele>656</ele>
        <time>2016-07-30T17:07:58Z</time>
      </trkpt>
      <trkpt lat="44.72364" lon="15.73594">
        <ele>656</ele>
        <time>2016-07-30T17:09:58Z</time>
      </trkpt>
      <trkpt lat="44.72335" lon="15.73619">
        <ele>657</ele>
        <time>2016-07-30T17:11:58Z</time>
      </trkpt>
      <trkpt lat="44.72334" lon="15.73619">
        <ele>657</ele>
        <time>2016-07-30T17:13:58Z</time>
      </trkpt>
      <trkpt lat="44.72323" lon="15.73632">
        <ele>657</ele>
        <time>2016-07-30T17:15:58Z</time>
      </trkpt>
      <trkpt lat="44.723" lon="15.7366">
        <ele>658</ele>
        <time>2016-07-30T17:17:58Z</time>
      </trkpt>
      <trkpt lat="44.72279" lon="15.73691">
        <ele>659</ele>
        <time>2016-07-30T17:19:58Z</time>
      </trkpt>
      <trkpt lat="44.72261" lon="15.73725">
        <ele>661</ele>
        <time>2016-07-30T17:21:58Z</time>
      </trkpt>
      <trkpt lat="44.72249" lon="15.73751">
        <ele>663</ele>
        <time>2016-07-30T17:23:58Z</time>
      </trkpt>
      <trkpt lat="44.72239" lon="15.73776">
        <ele>663</ele>
        <time>2016-07-30T17:25:58Z</time>
      </trkpt>
      <trkpt lat="44.72233" lon="15.73793">
        <ele>663</ele>
        <time>2016-07-30T17:27:58Z</time>
      </trkpt>
      <trkpt lat="44.72226" lon="15.73815">
        <ele>663</ele>
        <time>2016-07-30T17:29:58Z</time>
      </trkpt>
      <trkpt lat="44.72216" lon="15.7386">
        <ele>663</ele>
        <time>2016-07-30T17:31:58Z</time>
      </trkpt>
      <trkpt lat="44.72207" lon="15.73925">
        <ele>663</ele>
        <time>2016-07-30T17:33:58Z</time>
      </trkpt>
      <trkpt lat="44.72195" lon="15.74053">
        <ele>669</ele>
        <time>2016-07-30T17:35:58Z</time>
      </trkpt>
      <trkpt lat="44.72189" lon="15.74094">
        <ele>672</ele>
        <time>2016-07-30T17:37:58Z</time>
      </trkpt>
      <trkpt lat="44.7218" lon="15.74132">
        <ele>673</ele>
        <time>2016-07-30T17:39:58Z</time>
      </trkpt>
      <trkpt lat="44.72166" lon="15.74169">
        <ele>675</ele>
        <time>2016-07-30T17:41:58Z</time>
      </trkpt>
      <trkpt lat="44.72149" lon="15.742">
        <ele>676</ele>
        <time>2016-07-30T17:43:58Z</time>
      </trkpt>
      <trkpt lat="44.72132" lon="15.74224">
        <ele>676</ele>
        <time>2016-07-30T17:45:58Z</time>
      </trkpt>
      <trkpt lat="44.72105" lon="15.7425">
        <ele>677</ele>
        <time>2016-07-30T17:47:58Z</time>
      </trkpt>
      <trkpt lat="44.72085" lon="15.74265">
        <ele>677</ele>
        <time>2016-07-30T17:49:58Z</time>
      </trkpt>
      <trkpt lat="44.72071" lon="15.74273">
        <ele>676</ele>
        <time>2016-07-30T17:51:58Z</time>
      </trkpt>
      <trkpt lat="44.72055" lon="15.74279">
        <ele>676</ele>
        <time>2016-07-30T17:53:58Z</time>
      </trkpt>
      <trkpt lat="44.7204" lon="15.74283">
        <ele>675</ele>
        <time>2016-07-30T17:55:58Z</time>
      </trkpt>
      <trkpt lat="44.7197" lon="15.74297">
        <ele>672</ele>
        <time>2016-07-30T17:57:58Z</time>
      </trkpt>
      <trkpt lat="44.71827" lon="15.74323">
        <ele>664</ele>
        <time>2016-07-30T17:59:58Z</time>
      </trkpt>
      <trkpt lat="44.71744" lon="15.74339">
        <ele>659</ele>
        <time>2016-07-30T18:01:58Z</time>
      </trkpt>
      <trkpt lat="44.71701" lon="15.74348">
        <ele>656</ele>
        <time>2016-07-30T18:03:58Z</time>
      </trkpt>
      <trkpt lat="44.7168" lon="15.74354">
        <ele>654</ele>
        <time>2016-07-30T18:05:58Z</time>
      </trkpt>
      <trkpt lat="44.71649" lon="15.74365">
        <ele>652</ele>
        <time>2016-07-30T18:07:58Z</time>
      </trkpt>
      <trkpt lat="44.71611" lon="15.74382">
        <ele>649</ele>
        <time>2016-07-30T18:09:58Z</time>
      </trkpt>
      <trkpt lat="44.71584" lon="15.74399">
        <ele>647</ele>
        <time>2016-07-30T18:11:58Z</time>
      </trkpt>
      <trkpt lat="44.71575" lon="15.74405">
        <ele>647</ele>
        <time>2016-07-30T18:13:58Z</time>
      </trkpt>
      <trkpt lat="44.71514" lon="15.74448">
        <ele>647</ele>
        <time>2016-07-30T18:15:58Z</time>
      </trkpt>
      <trkpt lat="44.71472" lon="15.74471">
        <ele>648</ele>
        <time>2016-07-30T18:17:58Z</time>
      </trkpt>
      <trkpt lat="44.71441" lon="15.74484">
        <ele>649</ele>
        <time>2016-07-30T18:19:58Z</time>
      </trkpt>
      <trkpt lat="44.71421" lon="15.74488">
        <ele>649</ele>
        <time>2016-07-30T18:21:58Z</time>
      </trkpt>
      <trkpt lat="44.71402" lon="15.74491">
        <ele>648</ele>
        <time>2016-07-30T18:23:58Z</time>
      </trkpt>
      <trkpt lat="44.71383" lon="15.7449">
        <ele>647</ele>
        <time>2016-07-30T18:25:58Z</time>
      </trkpt>
      <trkpt lat="44.71191" lon="15.74468">
        <ele>640</ele>
        <time>2016-07-30T18:27:58Z</time>
      </trkpt>
      <trkpt lat="44.71161" lon="15.74466">
        <ele>639</ele>
        <time>2016-07-30T18:29:58Z</time>
      </trkpt>
      <trkpt lat="44.71154" lon="15.74465">
        <ele>639</ele>
        <time>2016-07-30T18:31:58Z</time>
      </trkpt>
      <trkpt lat="44.71135" lon="15.74465">
        <ele>638</ele>
        <time>2016-07-30T18:33:58Z</time>
      </trkpt>
      <trkpt lat="44.71098" lon="15.74467">
        <ele>636</ele>
        <time>2016-07-30T18:35:58Z</time>
      </trkpt>
      <trkpt lat="44.71062" lon="15.74472">
        <ele>635</ele>
        <time>2016-07-30T18:37:58Z</time>
      </trkpt>
      <trkpt lat="44.71042" lon="15.74476">
        <ele>634</ele>
        <time>2016-07-30T18:39:58Z</time>
      </trkpt>
      <trkpt lat="44.71004" lon="15.74487">
        <ele>632</ele>
        <time>2016-07-30T18:41:58Z</time>
      </trkpt>
      <trkpt lat="44.70967" lon="15.745">
        <ele>632</ele>
        <time>2016-07-30T18:43:58Z</time>
      </trkpt>
      <trkpt lat="44.70895" lon="15.74532">
        <ele>633</ele>
        <time>2016-07-30T18:45:58Z</time>
      </trkpt>
      <trkpt lat="44.70835" lon="15.74561">
        <ele>636</ele>
        <time>2016-07-30T18:47:58Z</time>
      </trkpt>
      <trkpt lat="44.70807" lon="15.74573">
        <ele>636</ele>
        <time>2016-07-30T18:49:58Z</time>
      </trkpt>
      <trkpt lat="44.70798" lon="15.74578">
        <ele>636</ele>
        <time>2016-07-30T18:51:58Z</time>
      </trkpt>
      <trkpt lat="44.70784" lon="15.74585">
        <ele>636</ele>
        <time>2016-07-30T18:53:58Z</time>
      </trkpt>
      <trkpt lat="44.70775" lon="15.74589">
        <ele>636</ele>
        <time>2016-07-30T18:55:58Z</time>
      </trkpt>
      <trkpt lat="44.70764" lon="15.74595">
        <ele>637</ele>
        <time>2016-07-30T18:57:58Z</time>
      </trkpt>
      <trkpt lat="44.70749" lon="15.74605">
        <ele>637</ele>
        <time>2016-07-30T18:59:58Z</time>
      </trkpt>
      <trkpt lat="44.70741" lon="15.7461">
        <ele>638</ele>
        <time>2016-07-30T19:01:58Z</time>
      </trkpt>
      <trkpt lat="44.70734" lon="15.74617">
        <ele>638</ele>
        <time>2016-07-30T19:03:58Z</time>
      </trkpt>
      <trkpt lat="44.70727" lon="15.74623">
        <ele>638</ele>
        <time>2016-07-30T19:05:58Z</time>
      </trkpt>
      <trkpt lat="44.70716" lon="15.74635">
        <ele>638</ele>
        <time>2016-07-30T19:07:58Z</time>
      </trkpt>
      <trkpt lat="44.70709" lon="15.74644">
        <ele>638</ele>
        <time>2016-07-30T19:09:58Z</time>
      </trkpt>
      <trkpt lat="44.70701" lon="15.74655">
        <ele>637</ele>
        <time>2016-07-30T19:11:58Z</time>
      </trkpt>
      <trkpt lat="44.70699" lon="15.74659">
        <ele>637</ele>
        <time>2016-07-30T19:13:58Z</time>
      </trkpt>
      <trkpt lat="44.70687" lon="15.7468">
        <ele>635</ele>
        <time>2016-07-30T19:15:58Z</time>
      </trkpt>
      <trkpt lat="44.70653" lon="15.74751">
        <ele>630</ele>
        <time>2016-07-30T19:17:58Z</time>
      </trkpt>
      <trkpt lat="44.70643" lon="15.7477">
        <ele>632</ele>
        <time>2016-07-30T19:19:58Z</time>
      </trkpt>
      <trkpt lat="44.70635" lon="15.74782">
        <ele>632</ele>
        <time>2016-07-30T19:21:58Z</time>
      </trkpt>
      <trkpt lat="44.70633" lon="15.74785">
        <ele>632</ele>
        <time>2016-07-30T19:23:58Z</time>
      </trkpt>
      <trkpt lat="44.70627" lon="15.74791">
        <ele>632</ele>
        <time>2016-07-30T19:25:58Z</time>
      </trkpt>
      <trkpt lat="44.70616" lon="15.74801">
        <ele>631</ele>
        <time>2016-07-30T19:27:58Z</time>
      </trkpt>
      <trkpt lat="44.70607" lon="15.74806">
        <ele>630</ele>
        <time>2016-07-30T19:29:58Z</time>
      </trkpt>
      <trkpt lat="44.70593" lon="15.74817">
        <ele>628</ele>
        <time>2016-07-30T19:31:58Z</time>
      </trkpt>
      <trkpt lat="44.7059" lon="15.74819">
        <ele>628</ele>
        <time>2016-07-30T19:33:58Z</time>
      </trkpt>
      <trkpt lat="44.70577" lon="15.74824">
        <ele>627</ele>
        <time>2016-07-30T19:35:58Z</time>
      </trkpt>
      <trkpt lat="44.70562" lon="15.74829">
        <ele>626</ele>
        <time>2016-07-30T19:37:58Z</time>
      </trkpt>
      <trkpt lat="44.70544" lon="15.74832">
        <ele>625</ele>
        <time>2016-07-30T19:39:58Z</time>
      </trkpt>
      <trkpt lat="44.70482" lon="15.74843">
        <ele>624</ele>
        <time>2016-07-30T19:41:58Z</time>
      </trkpt>
      <trkpt lat="44.70435" lon="15.74859">
        <ele>624</ele>
        <time>2016-07-30T19:43:58Z</time>
      </trkpt>
      <trkpt lat="44.70419" lon="15.74867">
        <ele>624</ele>
        <time>2016-07-30T19:45:58Z</time>
      </trkpt>
      <trkpt lat="44.70401" lon="15.74876">
        <ele>624</ele>
        <time>2016-07-30T19:47:58Z</time>
      </trkpt>
      <trkpt lat="44.70385" lon="15.74888">
        <ele>624</ele>
        <time>2016-07-30T19:49:58Z</time>
      </trkpt>
      <trkpt lat="44.70377" lon="15.74895">
        <ele>624</ele>
        <time>2016-07-30T19:51:58Z</time>
      </trkpt>
      <trkpt lat="44.70376" lon="15.74896">
        <ele>624</ele>
        <time>2016-07-30T19:53:58Z</time>
      </trkpt>
      <trkpt lat="44.70372" lon="15.74904">
        <ele>624</ele>
        <time>2016-07-30T19:55:58Z</time>
      </trkpt>
      <trkpt lat="44.70358" lon="15.74915">
        <ele>624</ele>
        <time>2016-07-30T19:57:58Z</time>
      </trkpt>
      <trkpt lat="44.70335" lon="15.74933">
        <ele>624</ele>
        <time>2016-07-30T19:59:58Z</time>
      </trkpt>
      <trkpt lat="44.70329" lon="15.74937">
        <ele>624</ele>
        <time>2016-07-30T20:01:58Z</time>
      </trkpt>
      <trkpt lat="44.70318" lon="15.74945">
        <ele>624</ele>
        <time>2016-07-30T20:03:58Z</time>
      </trkpt>
      <trkpt lat="44.70303" lon="15.74953">
        <ele>623</ele>
        <time>2016-07-30T20:05:58Z</time>
      </trkpt>
      <trkpt lat="44.70289" lon="15.74957">
        <ele>623</ele>
        <time>2016-07-30T20:07:58Z</time>
      </trkpt>
      <trkpt lat="44.70275" lon="15.74962">
        <ele>623</ele>
        <time>2016-07-30T20:09:58Z</time>
      </trkpt>
      <trkpt lat="44.70256" lon="15.74964">
        <ele>623</ele>
        <time>2016-07-30T20:11:58Z</time>
      </trkpt>
      <trkpt lat="44.70198" lon="15.74964">
        <ele>621</ele>
        <time>2016-07-30T20:13:58Z</time>
      </trkpt>
      <trkpt lat="44.70175" lon="15.74962">
        <ele>620</ele>
        <time>2016-07-30T20:15:58Z</time>
      </trkpt>
      <trkpt lat="44.70148" lon="15.74956">
        <ele>619</ele>
        <time>2016-07-30T20:17:58Z</time>
      </trkpt>
      <trkpt lat="44.70118" lon="15.74941">
        <ele>619</ele>
        <time>2016-07-30T20:19:58Z</time>
      </trkpt>
      <trkpt lat="44.70103" lon="15.7493">
        <ele>619</ele>
        <time>2016-07-30T20:21:58Z</time>
      </trkpt>
      <trkpt lat="44.70077" lon="15.74911">
        <ele>619</ele>
        <time>2016-07-30T20:23:58Z</time>
      </trkpt>
      <trkpt lat="44.70045" lon="15.74895">
        <ele>620</ele>
        <time>2016-07-30T20:25:58Z</time>
      </trkpt>
      <trkpt lat="44.69855" lon="15.74822">
        <ele>623</ele>
        <time>2016-07-30T20:27:58Z</time>
      </trkpt>
      <trkpt lat="44.69836" lon="15.74816">
        <ele>623</ele>
        <time>2016-07-30T20:29:58Z</time>
      </trkpt>
      <trkpt lat="44.6982" lon="15.74814">
        <ele>624</ele>
        <time>2016-07-30T20:31:58Z</time>
      </trkpt>
      <trkpt lat="44.69803" lon="15.74815">
        <ele>625</ele>
        <time>2016-07-30T20:33:58Z</time>
      </trkpt>
      <trkpt lat="44.69786" lon="15.74819">
        <ele>626</ele>
        <time>2016-07-30T20:35:58Z</time>
      </trkpt>
      <trkpt lat="44.6976" lon="15.74828">
        <ele>626</ele>
        <time>2016-07-30T20:37:58Z</time>
      </trkpt>
      <trkpt lat="44.69731" lon="15.74839">
        <ele>626</ele>
        <time>2016-07-30T20:39:58Z</time>
      </trkpt>
      <trkpt lat="44.6972" lon="15.74844">
        <ele>625</ele>
        <time>2016-07-30T20:41:58Z</time>
      </trkpt>
      <trkpt lat="44.69686" lon="15.74857">
        <ele>624</ele>
        <time>2016-07-30T20:43:58Z</time>
      </trkpt>
      <trkpt lat="44.69668" lon="15.74861">
        <ele>623</ele>
        <time>2016-07-30T20:45:58Z</time>
      </trkpt>
      <trkpt lat="44.6965" lon="15.74863">
        <ele>622</ele>
        <time>2016-07-30T20:47:58Z</time>
      </trkpt>
      <trkpt lat="44.6963" lon="15.74864">
        <ele>621</ele>
        <time>2016-07-30T20:49:58Z</time>
      </trkpt>
      <trkpt lat="44.69611" lon="15.74863">
        <ele>621</ele>
        <time>2016-07-30T20:51:58Z</time>
      </trkpt>
      <trkpt lat="44.69592" lon="15.74861">
        <ele>620</ele>
        <time>2016-07-30T20:53:58Z</time>
      </trkpt>
      <trkpt lat="44.69573" lon="15.74856">
        <ele>620</ele>
        <time>2016-07-30T20:55:58Z</time>
      </trkpt>
      <trkpt lat="44.69566" lon="15.74854">
        <ele>620</ele>
        <time>2016-07-30T20:57:58Z</time>
      </trkpt>
      <trkpt lat="44.69473" lon="15.74827">
        <ele>618</ele>
        <time>2016-07-30T20:59:58Z</time>
      </trkpt>
      <trkpt lat="44.69373" lon="15.74797">
        <ele>614</ele>
        <time>2016-07-30T21:01:58Z</time>
      </trkpt>
      <trkpt lat="44.69369" lon="15.74795">
        <ele>614</ele>
        <time>2016-07-30T21:03:58Z</time>
      </trkpt>
      <trkpt lat="44.69357" lon="15.74788">
        <ele>614</ele>
        <time>2016-07-30T21:05:58Z</time>
      </trkpt>
      <trkpt lat="44.69346" lon="15.74781">
        <ele>614</ele>
        <time>2016-07-30T21:07:58Z</time>
      </trkpt>
      <trkpt lat="44.69331" lon="15.74767">
        <ele>614</ele>
        <time>2016-07-30T21:09:58Z</time>
      </trkpt>
      <trkpt lat="44.69319" lon="15.74752">
        <ele>614</ele>
        <time>2016-07-30T21:11:58Z</time>
      </trkpt>
      <trkpt lat="44.69306" lon="15.74732">
        <ele>614</ele>
        <time>2016-07-30T21:13:58Z</time>
      </trkpt>
      <trkpt lat="44.69289" lon="15.74701">
        <ele>615</ele>
        <time>2016-07-30T21:15:58Z</time>
      </trkpt>
      <trkpt lat="44.69278" lon="15.7468">
        <ele>615</ele>
        <time>2016-07-30T21:17:58Z</time>
      </trkpt>
      <trkpt lat="44.69264" lon="15.74654">
        <ele>616</ele>
        <time>2016-07-30T21:19:58Z</time>
      </trkpt>
      <trkpt lat="44.69251" lon="15.74629">
        <ele>618</ele>
        <time>2016-07-30T21:21:58Z</time>
      </trkpt>
      <trkpt lat="44.69241" lon="15.74611">
        <ele>619</ele>
        <time>2016-07-30T21:23:58Z</time>
      </trkpt>
      <trkpt lat="44.69218" lon="15.74581">
        <ele>619</ele>
        <time>2016-07-30T21:25:58Z</time>
      </trkpt>
      <trkpt lat="44.69206" lon="15.74569">
        <ele>619</ele>
        <time>2016-07-30T21:27:58Z</time>
      </trkpt>
      <trkpt lat="44.69197" lon="15.74561">
        <ele>618</ele>
        <time>2016-07-30T21:29:58Z</time>
      </trkpt>
      <trkpt lat="44.69187" lon="15.74555">
        <ele>618</ele>
        <time>2016-07-30T21:31:58Z</time>
      </trkpt>
      <trkpt lat="44.69172" lon="15.74547">
        <ele>617</ele>
        <time>2016-07-30T21:33:58Z</time>
      </trkpt>
      <trkpt lat="44.69154" lon="15.74541">
        <ele>616</ele>
        <time>2016-07-30T21:35:58Z</time>
      </trkpt>
      <trkpt lat="44.69141" lon="15.74539">
        <ele>616</ele>
        <time>2016-07-30T21:37:58Z</time>
      </trkpt>
      <trkpt lat="44.69131" lon="15.74538">
        <ele>616</ele>
        <time>2016-07-30T21:39:58Z</time>
      </trkpt>
      <trkpt lat="44.69111" lon="15.74539">
        <ele>615</ele>
        <time>2016-07-30T21:41:58Z</time>
      </trkpt>
      <trkpt lat="44.69091" lon="15.7454">
        <ele>615</ele>
        <time>2016-07-30T21:43:58Z</time>
      </trkpt>
      <trkpt lat="44.69053" lon="15.74544">
        <ele>616</ele>
        <time>2016-07-30T21:45:58Z</time>
      </trkpt>
      <trkpt lat="44.6902" lon="15.74545">
        <ele>617</ele>
        <time>2016-07-30T21:47:58Z</time>
      </trkpt>
      <trkpt lat="44.68977" lon="15.74539">
        <ele>618</ele>
        <time>2016-07-30T21:49:58Z</time>
      </trkpt>
      <trkpt lat="44.68955" lon="15.74531">
        <ele>619</ele>
        <time>2016-07-30T21:51:58Z</time>
      </trkpt>
      <trkpt lat="44.68919" lon="15.74516">
        <ele>620</ele>
        <time>2016-07-30T21:53:58Z</time>
      </trkpt>
      <trkpt lat="44.68885" lon="15.74498">
        <ele>621</ele>
        <time>2016-07-30T21:55:58Z</time>
      </trkpt>
      <trkpt lat="44.68868" lon="15.74485">
        <ele>621</ele>
        <time>2016-07-30T21:57:58Z</time>
      </trkpt>
      <trkpt lat="44.68851" lon="15.7447">
        <ele>622</ele>
        <time>2016-07-30T21:59:58Z</time>
      </trkpt>
      <trkpt lat="44.68834" lon="15.74454">
        <ele>623</ele>
        <time>2016-07-30T22:01:58Z</time>
      </trkpt>
      <trkpt lat="44.68819" lon="15.74435">
        <ele>623</ele>
        <time>2016-07-30T22:03:58Z</time>
      </trkpt>
      <trkpt lat="44.68808" lon="15.74422">
        <ele>623</ele>
        <time>2016-07-30T22:05:58Z</time>
      </trkpt>
      <trkpt lat="44.68742" lon="15.74336">
        <ele>626</ele>
        <time>2016-07-30T22:07:58Z</time>
      </trkpt>
      <trkpt lat="44.68696" lon="15.74278">
        <ele>626</ele>
        <time>2016-07-30T22:09:58Z</time>
      </trkpt>
      <trkpt lat="44.6868" lon="15.7426">
        <ele>626</ele>
        <time>2016-07-30T22:11:58Z</time>
      </trkpt>
      <trkpt lat="44.68648" lon="15.74226">
        <ele>627</ele>
        <time>2016-07-30T22:13:58Z</time>
      </trkpt>
      <trkpt lat="44.68632" lon="15.74211">
        <ele>628</ele>
        <time>2016-07-30T22:15:58Z</time>
      </trkpt>
      <trkpt lat="44.68567" lon="15.74156">
        <ele>628</ele>
        <time>2016-07-30T22:17:58Z</time>
      </trkpt>
      <trkpt lat="44.68549" lon="15.74142">
        <ele>629</ele>
        <time>2016-07-30T22:19:58Z</time>
      </trkpt>
      <trkpt lat="44.68514" lon="15.74112">
        <ele>629</ele>
        <time>2016-07-30T22:21:58Z</time>
      </trkpt>
      <trkpt lat="44.68498" lon="15.74096">
        <ele>629</ele>
        <time>2016-07-30T22:23:58Z</time>
      </trkpt>
      <trkpt lat="44.68483" lon="15.74079">
        <ele>628</ele>
        <time>2016-07-30T22:25:58Z</time>
      </trkpt>
      <trkpt lat="44.68455" lon="15.74042">
        <ele>628</ele>
        <time>2016-07-30T22:27:58Z</time>
      </trkpt>
      <trkpt lat="44.68442" lon="15.74022">
        <ele>627</ele>
        <time>2016-07-30T22:29:58Z</time>
      </trkpt>
      <trkpt lat="44.68418" lon="15.73981">
        <ele>627</ele>
        <time>2016-07-30T22:31:58Z</time>
      </trkpt>
      <trkpt lat="44.68371" lon="15.739">
        <ele>625</ele>
        <time>2016-07-30T22:33:58Z</time>
      </trkpt>
      <trkpt lat="44.68348" lon="15.73868">
        <ele>623</ele>
        <time>2016-07-30T22:35:58Z</time>
      </trkpt>
      <trkpt lat="44.68319" lon="15.73818">
        <ele>622</ele>
        <time>2016-07-30T22:37:58Z</time>
      </trkpt>
      <trkpt lat="44.68223" lon="15.73651">
        <ele>620</ele>
        <time>2016-07-30T22:39:58Z</time>
      </trkpt>
      <trkpt lat="44.6821" lon="15.73628">
        <ele>620</ele>
        <time>2016-07-30T22:41:58Z</time>
      </trkpt>
      <trkpt lat="44.68205" lon="15.73618">
        <ele>620</ele>
        <time>2016-07-30T22:43:58Z</time>
      </trkpt>
      <trkpt lat="44.68203" lon="15.73615">
        <ele>620</ele>
        <time>2016-07-30T22:45:58Z</time>
      </trkpt>
      <trkpt lat="44.6818" lon="15.73564">
        <ele>621</ele>
        <time>2016-07-30T22:47:58Z</time>
      </trkpt>
      <trkpt lat="44.6817" lon="15.73524">
        <ele>620</ele>
        <time>2016-07-30T22:49:58Z</time>
      </trkpt>
      <trkpt lat="44.68161" lon="15.73474">
        <ele>621</ele>
        <time>2016-07-30T22:51:58Z</time>
      </trkpt>
      <trkpt lat="44.68158" lon="15.73452">
        <ele>621</ele>
        <time>2016-07-30T22:53:58Z</time>
      </trkpt>
      <trkpt lat="44.68157" lon="15.73415">
        <ele>623</ele>
        <time>2016-07-30T22:55:58Z</time>
      </trkpt>
      <trkpt lat="44.68158" lon="15.73373">
        <ele>625</ele>
        <time>2016-07-30T22:57:58Z</time>
      </trkpt>
      <trkpt lat="44.68163" lon="15.73335">
        <ele>627</ele>
        <time>2016-07-30T22:59:58Z</time>
      </trkpt>
      <trkpt lat="44.68169" lon="15.733">
        <ele>628</ele>
        <time>2016-07-30T23:01:58Z</time>
      </trkpt>
      <trkpt lat="44.68181" lon="15.73255">
        <ele>629</ele>
        <time>2016-07-30T23:03:58Z</time>
      </trkpt>
      <trkpt lat="44.68216" lon="15.73167">
        <ele>636</ele>
        <time>2016-07-30T23:05:58Z</time>
      </trkpt>
      <trkpt lat="44.68234" lon="15.73122">
        <ele>640</ele>
        <time>2016-07-30T23:07:58Z</time>
      </trkpt>
      <trkpt lat="44.6825" lon="15.73077">
        <ele>643</ele>
        <time>2016-07-30T23:09:58Z</time>
      </trkpt>
      <trkpt lat="44.68263" lon="15.73033">
        <ele>646</ele>
        <time>2016-07-30T23:11:58Z</time>
      </trkpt>
      <trkpt lat="44.6827" lon="15.72998">
        <ele>648</ele>
        <time>2016-07-30T23:13:58Z</time>
      </trkpt>
      <trkpt lat="44.68276" lon="15.72938">
        <ele>649</ele>
        <time>2016-07-30T23:15:58Z</time>
      </trkpt>
      <trkpt lat="44.68276" lon="15.72901">
        <ele>649</ele>
        <time>2016-07-30T23:17:58Z</time>
      </trkpt>
      <trkpt lat="44.68272" lon="15.72855">
        <ele>647</ele>
        <time>2016-07-30T23:19:58Z</time>
      </trkpt>
      <trkpt lat="44.68265" lon="15.72817">
        <ele>645</ele>
        <time>2016-07-30T23:21:58Z</time>
      </trkpt>
      <trkpt lat="44.68247" lon="15.72754">
        <ele>640</ele>
        <time>2016-07-30T23:23:58Z</time>
      </trkpt>
      <trkpt lat="44.68224" lon="15.72703">
        <ele>641</ele>
        <time>2016-07-30T23:25:58Z</time>
      </trkpt>
      <trkpt lat="44.68196" lon="15.72661">
        <ele>640</ele>
        <time>2016-07-30T23:27:58Z</time>
      </trkpt>
      <trkpt lat="44.68168" lon="15.72631">
        <ele>638</ele>
        <time>2016-07-30T23:29:58Z</time>
      </trkpt>
      <trkpt lat="44.68141" lon="15.72607">
        <ele>640</ele>
        <time>2016-07-30T23:31:58Z</time>
      </trkpt>
      <trkpt lat="44.68116" lon="15.72592">
        <ele>642</ele>
        <time>2016-07-30T23:33:58Z</time>
      </trkpt>
      <trkpt lat="44.68102" lon="15.72584">
        <ele>642</ele>
        <time>2016-07-30T23:35:58Z</time>
      </trkpt>
      <trkpt lat="44.68074" lon="15.72575">
        <ele>644</ele>
        <time>2016-07-30T23:37:58Z</time>
      </trkpt>
      <trkpt lat="44.68036" lon="15.72568">
        <ele>650</ele>
        <time>2016-07-30T23:39:58Z</time>
      </trkpt>
      <trkpt lat="44.67989" lon="15.72573">
        <ele>656</ele>
        <time>2016-07-30T23:41:58Z</time>
      </trkpt>
      <trkpt lat="44.67958" lon="15.72583">
        <ele>659</ele>
        <time>2016-07-30T23:43:58Z</time>
      </trkpt>
      <trkpt lat="44.67957" lon="15.72584">
        <ele>659</ele>
        <time>2016-07-30T23:45:58Z</time>
      </trkpt>
      <trkpt lat="44.67923" lon="15.72603">
        <ele>660</ele>
        <time>2016-07-30T23:47:58Z</time>
      </trkpt>
      <trkpt lat="44.67857" lon="15.72646">
        <ele>666</ele>
        <time>2016-07-30T23:49:58Z</time>
      </trkpt>
      <trkpt lat="44.67841" lon="15.72655">
        <ele>667</ele>
        <time>2016-07-30T23:51:58Z</time>
      </trkpt>
      <trkpt lat="44.67799" lon="15.72679">
        <ele>671</ele>
        <time>2016-07-30T23:53:58Z</time>
      </trkpt>
      <trkpt lat="44.67765" lon="15.72689">
        <ele>675</ele>
        <time>2016-07-30T23:55:58Z</time>
      </trkpt>
      <trkpt lat="44.67729" lon="15.72695">
        <ele>678</ele>
        <time>2016-07-30T23:57:58Z</time>
      </trkpt>
      <trkpt lat="44.67705" lon="15.72698">
        <ele>680</ele>
        <time>2016-07-30T23:59:58Z</time>
      </trkpt>
      <trkpt lat="44.67674" lon="15.72695">
        <ele>683</ele>
        <time>2016-07-31T00:01:58Z</time>
      </trkpt>
      <trkpt lat="44.67647" lon="15.72689">
        <ele>685</ele>
        <time>2016-07-31T00:03:58Z</time>
      </trkpt>
      <trkpt lat="44.67606" lon="15.72673">
        <ele>688</ele>
        <time>2016-07-31T00:05:58Z</time>
      </trkpt>
      <trkpt lat="44.67557" lon="15.72642">
        <ele>691</ele>
        <time>2016-07-31T00:07:58Z</time>
      </trkpt>
      <trkpt lat="44.67513" lon="15.72608">
        <ele>690</ele>
        <time>2016-07-31T00:09:58Z</time>
      </trkpt>
      <trkpt lat="44.67502" lon="15.72601">
        <ele>690</ele>
        <time>2016-07-31T00:11:58Z</time>
      </trkpt>
      <trkpt lat="44.67487" lon="15.7259">
        <ele>691</ele>
        <time>2016-07-31T00:13:58Z</time>
      </trkpt>
      <trkpt lat="44.67472" lon="15.72581">
        <ele>691</ele>
        <time>2016-07-31T00:15:58Z</time>
      </trkpt>
      <trkpt lat="44.6747" lon="15.7258">
        <ele>691</ele>
        <time>2016-07-31T00:17:58Z</time>
      </trkpt>
      <trkpt lat="44.67446" lon="15.72568">
        <ele>692</ele>
        <time>2016-07-31T00:19:58Z</time>
      </trkpt>
      <trkpt lat="44.67411" lon="15.72561">
        <ele>692</ele>
        <time>2016-07-31T00:21:58Z</time>
      </trkpt>
      <trkpt lat="44.67383" lon="15.72561">
        <ele>695</ele>
        <time>2016-07-31T00:23:58Z</time>
      </trkpt>
      <trkpt lat="44.67355" lon="15.72563">
        <ele>697</ele>
        <time>2016-07-31T00:25:58Z</time>
      </trkpt>
      <trkpt lat="44.67321" lon="15.72572">
        <ele>700</ele>
        <time>2016-07-31T00:27:58Z</time>
      </trkpt>
      <trkpt lat="44.67304" lon="15.72579">
        <ele>702</ele>
        <time>2016-07-31T00:29:58Z</time>
      </trkpt>
      <trkpt lat="44.67215" lon="15.72617">
        <ele>706</ele>
        <time>2016-07-31T00:31:58Z</time>
      </trkpt>
      <trkpt lat="44.67177" lon="15.72632">
        <ele>708</ele>
        <time>2016-07-31T00:33:58Z</time>
      </trkpt>
      <trkpt lat="44.67144" lon="15.72638">
        <ele>710</ele>
        <time>2016-07-31T00:35:58Z</time>
      </trkpt>
      <trkpt lat="44.6712" lon="15.72642">
        <ele>712</ele>
        <time>2016-07-31T00:37:58Z</time>
      </trkpt>
      <trkpt lat="44.67097" lon="15.7264">
        <ele>714</ele>
        <time>2016-07-31T00:39:58Z</time>
      </trkpt>
      <trkpt lat="44.67073" lon="15.72636">
        <ele>716</ele>
        <time>2016-07-31T00:41:58Z</time>
      </trkpt>
      <trkpt lat="44.67028" lon="15.72625">
        <ele>716</ele>
        <time>2016-07-31T00:43:58Z</time>
      </trkpt>
      <trkpt lat="44.66984" lon="15.72602">
        <ele>715</ele>
        <time>2016-07-31T00:45:58Z</time>
      </trkpt>
      <trkpt lat="44.66943" lon="15.72571">
        <ele>715</ele>
        <time>2016-07-31T00:47:58Z</time>
      </trkpt>
      <trkpt lat="44.6692" lon="15.7255">
        <ele>716</ele>
        <time>2016-07-31T00:49:58Z</time>
      </trkpt>
      <trkpt lat="44.66911" lon="15.72538">
        <ele>716</ele>
        <time>2016-07-31T00:51:58Z</time>
      </trkpt>
      <trkpt lat="44.66895" lon="15.7252">
        <ele>717</ele>
        <time>2016-07-31T00:53:58Z</time>
      </trkpt>
      <trkpt lat="44.66894" lon="15.72518">
        <ele>717</ele>
        <time>2016-07-31T00:55:58Z</time>
      </trkpt>
      <trkpt lat="44.66881" lon="15.72501">
        <ele>717</ele>
        <time>2016-07-31T00:57:58Z</time>
      </trkpt>
      <trkpt lat="44.66871" lon="15.72487">
        <ele>717</ele>
        <time>2016-07-31T00:59:58Z</time>
      </trkpt>
      <trkpt lat="44.6687" lon="15.72484">
        <ele>717</ele>
        <time>2016-07-31T01:01:58Z</time>
      </trkpt>
      <trkpt lat="44.66841" lon="15.72436">
        <ele>715</ele>
        <time>2016-07-31T01:03:58Z</time>
      </trkpt>
      <trkpt lat="44.66812" lon="15.7239">
        <ele>715</ele>
        <time>2016-07-31T01:05:58Z</time>
      </trkpt>
      <trkpt lat="44.66793" lon="15.7236">
        <ele>716</ele>
        <time>2016-07-31T01:07:58Z</time>
      </trkpt>
      <trkpt lat="44.6676" lon="15.72311">
        <ele>717</ele>
        <time>2016-07-31T01:09:58Z</time>
      </trkpt>
      <trkpt lat="44.66729" lon="15.72274">
        <ele>718</ele>
        <time>2016-07-31T01:11:58Z</time>
      </trkpt>
      <trkpt lat="44.66695" lon="15.72243">
        <ele>717</ele>
        <time>2016-07-31T01:13:58Z</time>
      </trkpt>
      <trkpt lat="44.66656" lon="15.72211">
        <ele>715</ele>
        <time>2016-07-31T01:15:58Z</time>
      </trkpt>
      <trkpt lat="44.66593" lon="15.7217">
        <ele>714</ele>
        <time>2016-07-31T01:17:58Z</time>
      </trkpt>
      <trkpt lat="44.66473" lon="15.72096">
        <ele>705</ele>
        <time>2016-07-31T01:19:58Z</time>
      </trkpt>
      <trkpt lat="44.6646" lon="15.72089">
        <ele>705</ele>
        <time>2016-07-31T01:21:58Z</time>
      </trkpt>
      <trkpt lat="44.66406" lon="15.72057">
        <ele>703</ele>
        <time>2016-07-31T01:23:58Z</time>
      </trkpt>
      <trkpt lat="44.66341" lon="15.72007">
        <ele>698</ele>
        <time>2016-07-31T01:25:58Z</time>
      </trkpt>
      <trkpt lat="44.66283" lon="15.71956">
        <ele>692</ele>
        <time>2016-07-31T01:27:58Z</time>
      </trkpt>
      <trkpt lat="44.6619" lon="15.71869">
        <ele>685</ele>
        <time>2016-07-31T01:29:58Z</time>
      </trkpt>
      <trkpt lat="44.66133" lon="15.7182">
        <ele>682</ele>
        <time>2016-07-31T01:31:58Z</time>
      </trkpt>
      <trkpt lat="44.66092" lon="15.71792">
        <ele>681</ele>
        <time>2016-07-31T01:33:58Z</time>
      </trkpt>
      <trkpt lat="44.66049" lon="15.71772">
        <ele>678</ele>
        <time>2016-07-31T01:35:58Z</time>
      </trkpt>
      <trkpt lat="44.66033" lon="15.71767">
        <ele>677</ele>
        <time>2016-07-31T01:37:58Z</time>
      </trkpt>
      <trkpt lat="44.66005" lon="15.71759">
        <ele>675</ele>
        <time>2016-07-31T01:39:58Z</time>
      </trkpt>
      <trkpt lat="44.65949" lon="15.71756">
        <ele>674</ele>
        <time>2016-07-31T01:41:58Z</time>
      </trkpt>
      <trkpt lat="44.6589" lon="15.71766">
        <ele>670</ele>
        <time>2016-07-31T01:43:58Z</time>
      </trkpt>
      <trkpt lat="44.65837" lon="15.71784">
        <ele>665</ele>
        <time>2016-07-31T01:45:58Z</time>
      </trkpt>
      <trkpt lat="44.65821" lon="15.71789">
        <ele>663</ele>
        <time>2016-07-31T01:47:58Z</time>
      </trkpt>
      <trkpt lat="44.65808" lon="15.71794">
        <ele>662</ele>
        <time>2016-07-31T01:49:58Z</time>
      </trkpt>
      <trkpt lat="44.65706" lon="15.71829">
        <ele>648</ele>
        <time>2016-07-31T01:51:58Z</time>
      </trkpt>
      <trkpt lat="44.65662" lon="15.71844">
        <ele>639</ele>
        <time>2016-07-31T01:53:58Z</time>
      </trkpt>
      <trkpt lat="44.65618" lon="15.71854">
        <ele>634</ele>
        <time>2016-07-31T01:55:58Z</time>
      </trkpt>
      <trkpt lat="44.65597" lon="15.71857">
        <ele>631</ele>
        <time>2016-07-31T01:57:58Z</time>
      </trkpt>
      <trkpt lat="44.65553" lon="15.71859">
        <ele>629</ele>
        <time>2016-07-31T01:59:58Z</time>
      </trkpt>
      <trkpt lat="44.65408" lon="15.71863">
        <ele>628</ele>
        <time>2016-07-31T02:01:58Z</time>
      </trkpt>
      <trkpt lat="44.65367" lon="15.71861">
        <ele>628</ele>
        <time>2016-07-31T02:03:58Z</time>
      </trkpt>
      <trkpt lat="44.65353" lon="15.7186">
        <ele>627</ele>
        <time>2016-07-31T02:05:58Z</time>
      </trkpt>
      <trkpt lat="44.65273" lon="15.71856">
        <ele>626</ele>
        <time>2016-07-31T02:07:58Z</time>
      </trkpt>
      <trkpt lat="44.6509" lon="15.7186">
        <ele>629</ele>
        <time>2016-07-31T02:09:58Z</time>
      </trkpt>
      <trkpt lat="44.65059" lon="15.71868">
        <ele>628</ele>
        <time>2016-07-31T02:11:58Z</time>
      </trkpt>
      <trkpt lat="44.64787" lon="15.71983">
        <ele>630</ele>
        <time>2016-07-31T02:13:58Z</time>
      </trkpt>
      <trkpt lat="44.64765" lon="15.71992">
        <ele>630</ele>
        <time>2016-07-31T02:15:58Z</time>
      </trkpt>
      <trkpt lat="44.64718" lon="15.72012">
        <ele>630</ele>
        <time>2016-07-31T02:17:58Z</time>
      </trkpt>
      <trkpt lat="44.64649" lon="15.72042">
        <ele>630</ele>
        <time>2016-07-31T02:19:58Z</time>
      </trkpt>
      <trkpt lat="44.64592" lon="15.72063">
        <ele>629</ele>
        <time>2016-07-31T02:21:58Z</time>
      </trkpt>
      <trkpt lat="44.6458" lon="15.72066">
        <ele>629</ele>
        <time>2016-07-31T02:23:58Z</time>
      </trkpt>
      <trkpt lat="44.64554" lon="15.72073">
        <ele>630</ele>
        <time>2016-07-31T02:25:58Z</time>
      </trkpt>
      <trkpt lat="44.64515" lon="15.72081">
        <ele>630</ele>
        <time>2016-07-31T02:27:58Z</time>
      </trkpt>
      <trkpt lat="44.64476" lon="15.72085">
        <ele>630</ele>
        <time>2016-07-31T02:29:58Z</time>
      </trkpt>
      <trkpt lat="44.64435" lon="15.72087">
        <ele>630</ele>
        <time>2016-07-31T02:31:58Z</time>
      </trkpt>
      <trkpt lat="44.64401" lon="15.72085">
        <ele>630</ele>
        <time>2016-07-31T02:33:58Z</time>
      </trkpt>
      <trkpt lat="44.64373" lon="15.72083">
        <ele>629</ele>
        <time>2016-07-31T02:35:58Z</time>
      </trkpt>
      <trkpt lat="44.64209" lon="15.72064">
        <ele>628</ele>
        <time>2016-07-31T02:37:58Z</time>
      </trkpt>
      <trkpt lat="44.64167" lon="15.72062">
        <ele>628</ele>
        <time>2016-07-31T02:39:58Z</time>
      </trkpt>
      <trkpt lat="44.6416" lon="15.72062">
        <ele>628</ele>
        <time>2016-07-31T02:41:58Z</time>
      </trkpt>
      <trkpt lat="44.64106" lon="15.72063">
        <ele>628</ele>
        <time>2016-07-31T02:43:58Z</time>
      </trkpt>
      <trkpt lat="44.64067" lon="15.72067">
        <ele>628</ele>
        <time>2016-07-31T02:45:58Z</time>
      </trkpt>
      <trkpt lat="44.64048" lon="15.72071">
        <ele>628</ele>
        <time>2016-07-31T02:47:58Z</time>
      </trkpt>
      <trkpt lat="44.64028" lon="15.72076">
        <ele>628</ele>
        <time>2016-07-31T02:49:58Z</time>
      </trkpt>
      <trkpt lat="44.64009" lon="15.72081">
        <ele>628</ele>
        <time>2016-07-31T02:51:58Z</time>
      </trkpt>
      <trkpt lat="44.6399" lon="15.72087">
        <ele>628</ele>
        <time>2016-07-31T02:53:58Z</time>
      </trkpt>
      <trkpt lat="44.6397" lon="15.72093">
        <ele>628</ele>
        <time>2016-07-31T02:55:58Z</time>
      </trkpt>
      <trkpt lat="44.63931" lon="15.72109">
        <ele>629</ele>
        <time>2016-07-31T02:57:58Z</time>
      </trkpt>
      <trkpt lat="44.63893" lon="15.72128">
        <ele>630</ele>
        <time>2016-07-31T02:59:58Z</time>
      </trkpt>
      <trkpt lat="44.63837" lon="15.72163">
        <ele>630</ele>
        <time>2016-07-31T03:01:58Z</time>
      </trkpt>
      <trkpt lat="44.638" lon="15.7219">
        <ele>633</ele>
        <time>2016-07-31T03:03:58Z</time>
      </trkpt>
      <trkpt lat="44.63765" lon="15.7222">
        <ele>636</ele>
        <time>2016-07-31T03:05:58Z</time>
      </trkpt>
      <trkpt lat="44.63731" lon="15.72253">
        <ele>639</ele>
        <time>2016-07-31T03:07:58Z</time>
      </trkpt>
      <trkpt lat="44.63698" lon="15.72288">
        <ele>642</ele>
        <time>2016-07-31T03:09:58Z</time>
      </trkpt>
      <trkpt lat="44.63667" lon="15.72327">
        <ele>644</ele>
        <time>2016-07-31T03:11:58Z</time>
      </trkpt>
      <trkpt lat="44.63636" lon="15.72369">
        <ele>644</ele>
        <time>2016-07-31T03:13:58Z</time>
      </trkpt>
      <trkpt lat="44.63622" lon="15.72391">
        <ele>644</ele>
        <time>2016-07-31T03:15:58Z</time>
      </trkpt>
      <trkpt lat="44.63594" lon="15.72437">
        <ele>639</ele>
        <time>2016-07-31T03:17:58Z</time>
      </trkpt>
      <trkpt lat="44.63568" lon="15.72485">
        <ele>639</ele>
        <time>2016-07-31T03:19:58Z</time>
      </trkpt>
      <trkpt lat="44.63556" lon="15.7251">
        <ele>639</ele>
        <time>2016-07-31T03:21:58Z</time>
      </trkpt>
      <trkpt lat="44.63533" lon="15.72562">
        <ele>639</ele>
        <time>2016-07-31T03:23:58Z</time>
      </trkpt>
      <trkpt lat="44.63513" lon="15.72616">
        <ele>635</ele>
        <time>2016-07-31T03:25:58Z</time>
      </trkpt>
      <trkpt lat="44.63476" lon="15.72723">
        <ele>634</ele>
        <time>2016-07-31T03:27:58Z</time>
      </trkpt>
      <trkpt lat="44.63457" lon="15.72774">
        <ele>637</ele>
        <time>2016-07-31T03:29:58Z</time>
      </trkpt>
      <trkpt lat="44.63445" lon="15.72798">
        <ele>638</ele>
        <time>2016-07-31T03:31:58Z</time>
      </trkpt>
      <trkpt lat="44.63433" lon="15.72821">
        <ele>638</ele>
        <time>2016-07-31T03:33:58Z</time>
      </trkpt>
      <trkpt lat="44.63419" lon="15.72842">
        <ele>637</ele>
        <time>2016-07-31T03:35:58Z</time>
      </trkpt>
      <trkpt lat="44.63391" lon="15.72881">
        <ele>639</ele>
        <time>2016-07-31T03:37:58Z</time>
      </trkpt>
      <trkpt lat="44.63358" lon="15.72915">
        <ele>636</ele>
        <time>2016-07-31T03:39:58Z</time>
      </trkpt>
      <trkpt lat="44.63322" lon="15.72945">
        <ele>637</ele>
        <time>2016-07-31T03:41:58Z</time>
      </trkpt>
      <trkpt lat="44.63215" lon="15.73031">
        <ele>644</ele>
        <time>2016-07-31T03:43:58Z</time>
      </trkpt>
      <trkpt lat="44.63179" lon="15.73064">
        <ele>644</ele>
        <time>2016-07-31T03:45:58Z</time>
      </trkpt>
      <trkpt lat="44.63156" lon="15.73079">
        <ele>643</ele>
        <time>2016-07-31T03:47:58Z</time>
      </trkpt>
      <trkpt lat="44.63123" lon="15.73096">
        <ele>643</ele>
        <time>2016-07-31T03:49:58Z</time>
      </trkpt>
      <trkpt lat="44.63077" lon="15.73112">
        <ele>642</ele>
        <time>2016-07-31T03:51:58Z</time>
      </trkpt>
      <trkpt lat="44.63035" lon="15.73118">
        <ele>642</ele>
        <time>2016-07-31T03:53:58Z</time>
      </trkpt>
      <trkpt lat="44.63012" lon="15.73121">
        <ele>642</ele>
        <time>2016-07-31T03:55:58Z</time>
      </trkpt>
      <trkpt lat="44.62972" lon="15.73133">
        <ele>641</ele>
        <time>2016-07-31T03:57:58Z</time>
      </trkpt>
      <trkpt lat="44.62951" lon="15.73139">
        <ele>639</ele>
        <time>2016-07-31T03:59:58Z</time>
      </trkpt>
      <trkpt lat="44.62914" lon="15.73162">
        <ele>637</ele>
        <time>2016-07-31T04:01:58Z</time>
      </trkpt>
      <trkpt lat="44.62896" lon="15.73175">
        <ele>638</ele>
        <time>2016-07-31T04:03:58Z</time>
      </trkpt>
      <trkpt lat="44.62879" lon="15.73189">
        <ele>640</ele>
        <time>2016-07-31T04:05:58Z</time>
      </trkpt>
      <trkpt lat="44.62862" lon="15.73204">
        <ele>640</ele>
        <time>2016-07-31T04:07:58Z</time>
      </trkpt>
      <trkpt lat="44.62831" lon="15.73238">
        <ele>640</ele>
        <time>2016-07-31T04:09:58Z</time>
      </trkpt>
      <trkpt lat="44.62816" lon="15.73256">
        <ele>641</ele>
        <time>2016-07-31T04:11:58Z</time>
      </trkpt>
      <trkpt lat="44.62788" lon="15.73296">
        <ele>643</ele>
        <time>2016-07-31T04:13:58Z</time>
      </trkpt>
      <trkpt lat="44.62737" lon="15.73376">
        <ele>641</ele>
        <time>2016-07-31T04:15:58Z</time>
      </trkpt>
      <trkpt lat="44.62703" lon="15.73436">
        <ele>644</ele>
        <time>2016-07-31T04:17:58Z</time>
      </trkpt>
      <trkpt lat="44.62678" lon="15.7347">
        <ele>644</ele>
        <time>2016-07-31T04:19:58Z</time>
      </trkpt>
      <trkpt lat="44.62652" lon="15.73499">
        <ele>643</ele>
        <time>2016-07-31T04:21:58Z</time>
      </trkpt>
      <trkpt lat="44.62638" lon="15.73512">
        <ele>644</ele>
        <time>2016-07-31T04:23:58Z</time>
      </trkpt>
      <trkpt lat="44.62623" lon="15.73524">
        <ele>644</ele>
        <time>2016-07-31T04:25:58Z</time>
      </trkpt>
      <trkpt lat="44.62577" lon="15.73554">
        <ele>641</ele>
        <time>2016-07-31T04:27:58Z</time>
      </trkpt>
      <trkpt lat="44.62576" lon="15.73554">
        <ele>641</ele>
        <time>2016-07-31T04:29:58Z</time>
      </trkpt>
      <trkpt lat="44.62486" lon="15.73609">
        <ele>635</ele>
        <time>2016-07-31T04:31:58Z</time>
      </trkpt>
      <trkpt lat="44.62441" lon="15.73635">
        <ele>633</ele>
        <time>2016-07-31T04:33:58Z</time>
      </trkpt>
      <trkpt lat="44.62341" lon="15.73695">
        <ele>638</ele>
        <time>2016-07-31T04:35:58Z</time>
      </trkpt>
      <trkpt lat="44.62303" lon="15.73716">
        <ele>641</ele>
        <time>2016-07-31T04:37:58Z</time>
      </trkpt>
      <trkpt lat="44.62283" lon="15.73725">
        <ele>641</ele>
        <time>2016-07-31T04:39:58Z</time>
      </trkpt>
      <trkpt lat="44.62263" lon="15.73733">
        <ele>640</ele>
        <time>2016-07-31T04:41:58Z</time>
      </trkpt>
      <trkpt lat="44.62243" lon="15.73738">
        <ele>639</ele>
        <time>2016-07-31T04:43:58Z</time>
      </trkpt>
      <trkpt lat="44.62223" lon="15.73742">
        <ele>638</ele>
        <time>2016-07-31T04:45:58Z</time>
      </trkpt>
      <trkpt lat="44.62202" lon="15.73744">
        <ele>638</ele>
        <time>2016-07-31T04:47:58Z</time>
      </trkpt>
      <trkpt lat="44.62181" lon="15.73744">
        <ele>637</ele>
        <time>2016-07-31T04:49:58Z</time>
      </trkpt>
      <trkpt lat="44.62149" lon="15.73743">
        <ele>638</ele>
        <time>2016-07-31T04:51:58Z</time>
      </trkpt>
      <trkpt lat="44.62085" lon="15.73729">
        <ele>644</ele>
        <time>2016-07-31T04:53:58Z</time>
      </trkpt>
      <trkpt lat="44.62026" lon="15.73702">
        <ele>639</ele>
        <time>2016-07-31T04:55:58Z</time>
      </trkpt>
      <trkpt lat="44.61986" lon="15.73688">
        <ele>636</ele>
        <time>2016-07-31T04:57:58Z</time>
      </trkpt>
      <trkpt lat="44.61951" lon="15.73681">
        <ele>635</ele>
        <time>2016-07-31T04:59:58Z</time>
      </trkpt>
      <trkpt lat="44.61927" lon="15.73679">
        <ele>634</ele>
        <time>2016-07-31T05:01:58Z</time>
      </trkpt>
      <trkpt lat="44.61906" lon="15.73684">
        <ele>635</ele>
        <time>2016-07-31T05:03:58Z</time>
      </trkpt>
      <trkpt lat="44.61885" lon="15.73691">
        <ele>635</ele>
        <time>2016-07-31T05:05:58Z</time>
      </trkpt>
      <trkpt lat="44.61866" lon="15.73701">
        <ele>636</ele>
        <time>2016-07-31T05:07:58Z</time>
      </trkpt>
      <trkpt lat="44.61846" lon="15.73714">
        <ele>636</ele>
        <time>2016-07-31T05:09:58Z</time>
      </trkpt>
      <trkpt lat="44.61827" lon="15.73729">
        <ele>636</ele>
        <time>2016-07-31T05:11:58Z</time>
      </trkpt>
      <trkpt lat="44.61792" lon="15.73764">
        <ele>637</ele>
        <time>2016-07-31T05:13:58Z</time>
      </trkpt>
      <trkpt lat="44.61759" lon="15.738">
        <ele>638</ele>
        <time>2016-07-31T05:15:58Z</time>
      </trkpt>
      <trkpt lat="44.61725" lon="15.73835">
        <ele>638</ele>
        <time>2016-07-31T05:17:58Z</time>
      </trkpt>
      <trkpt lat="44.61706" lon="15.73851">
        <ele>639</ele>
        <time>2016-07-31T05:19:58Z</time>
      </trkpt>
      <trkpt lat="44.61669" lon="15.73878">
        <ele>641</ele>
        <time>2016-07-31T05:21:58Z</time>
      </trkpt>
      <trkpt lat="44.61609" lon="15.73908">
        <ele>644</ele>
        <time>2016-07-31T05:23:58Z</time>
      </trkpt>
      <trkpt lat="44.61456" lon="15.73976">
        <ele>640</ele>
        <time>2016-07-31T05:25:58Z</time>
      </trkpt>
      <trkpt lat="44.61411" lon="15.73994">
        <ele>641</ele>
        <time>2016-07-31T05:27:58Z</time>
      </trkpt>
      <trkpt lat="44.61387" lon="15.74001">
        <ele>641</ele>
        <time>2016-07-31T05:29:58Z</time>
      </trkpt>
      <trkpt lat="44.6134" lon="15.7401">
        <ele>641</ele>
        <time>2016-07-31T05:31:58Z</time>
      </trkpt>
      <trkpt lat="44.61316" lon="15.74013">
        <ele>642</ele>
        <time>2016-07-31T05:33:58Z</time>
      </trkpt>
      <trkpt lat="44.61293" lon="15.74013">
        <ele>643</ele>
        <time>2016-07-31T05:35:58Z</time>
      </trkpt>
      <trkpt lat="44.61269" lon="15.74011">
        <ele>644</ele>
        <time>2016-07-31T05:37:58Z</time>
      </trkpt>
      <trkpt lat="44.61246" lon="15.74008">
        <ele>643</ele>
        <time>2016-07-31T05:39:58Z</time>
      </trkpt>
      <trkpt lat="44.61222" lon="15.74003">
        <ele>640</ele>
        <time>2016-07-31T05:41:58Z</time>
      </trkpt>
      <trkpt lat="44.61185" lon="15.7399">
        <ele>636</ele>
        <time>2016-07-31T05:43:58Z</time>
      </trkpt>
      <trkpt lat="44.61153" lon="15.73977">
        <ele>633</ele>
        <time>2016-07-31T05:45:58Z</time>
      </trkpt>
      <trkpt lat="44.61132" lon="15.73965">
        <ele>630</ele>
        <time>2016-07-31T05:47:58Z</time>
      </trkpt>
      <trkpt lat="44.6111" lon="15.73951">
        <ele>628</ele>
        <time>2016-07-31T05:49:58Z</time>
      </trkpt>
      <trkpt lat="44.6107" lon="15.73918">
        <ele>627</ele>
        <time>2016-07-31T05:51:58Z</time>
      </trkpt>
      <trkpt lat="44.61031" lon="15.73879">
        <ele>627</ele>
        <time>2016-07-31T05:53:58Z</time>
      </trkpt>
      <trkpt lat="44.60951" lon="15.73798">
        <ele>631</ele>
        <time>2016-07-31T05:55:58Z</time>
      </trkpt>
      <trkpt lat="44.60918" lon="15.73762">
        <ele>630</ele>
        <time>2016-07-31T05:57:58Z</time>
      </trkpt>
      <trkpt lat="44.60881" lon="15.73732">
        <ele>632</ele>
        <time>2016-07-31T05:59:58Z</time>
      </trkpt>
      <trkpt lat="44.6083" lon="15.73702">
        <ele>633</ele>
        <time>2016-07-31T06:01:58Z</time>
      </trkpt>
      <trkpt lat="44.60784" lon="15.73677">
        <ele>630</ele>
        <time>2016-07-31T06:03:58Z</time>
      </trkpt>
      <trkpt lat="44.60735" lon="15.73661">
        <ele>630</ele>
        <time>2016-07-31T06:05:58Z</time>
      </trkpt>
      <trkpt lat="44.60686" lon="15.73655">
        <ele>629</ele>
        <time>2016-07-31T06:07:58Z</time>
      </trkpt>
      <trkpt lat="44.60608" lon="15.73651">
        <ele>629</ele>
        <time>2016-07-31T06:09:58Z</time>
      </trkpt>
      <trkpt lat="44.60429" lon="15.73647">
        <ele>631</ele>
        <time>2016-07-31T06:11:58Z</time>
      </trkpt>
      <trkpt lat="44.6038" lon="15.73644">
        <ele>632</ele>
        <time>2016-07-31T06:13:58Z</time>
      </trkpt>
      <trkpt lat="44.6031" lon="15.73636">
        <ele>633</ele>
        <time>2016-07-31T06:15:58Z</time>
      </trkpt>
      <trkpt lat="44.60263" lon="15.73627">
        <ele>633</ele>
        <time>2016-07-31T06:17:58Z</time>
      </trkpt>
      <trkpt lat="44.60243" lon="15.73624">
        <ele>633</ele>
        <time>2016-07-31T06:19:58Z</time>
      </trkpt>
      <trkpt lat="44.60199" lon="15.73614">
        <ele>633</ele>
        <time>2016-07-31T06:21:58Z</time>
      </trkpt>
      <trkpt lat="44.60155" lon="15.73601">
        <ele>632</ele>
        <time>2016-07-31T06:23:58Z</time>
      </trkpt>
      <trkpt lat="44.60112" lon="15.73587">
        <ele>632</ele>
        <time>2016-07-31T06:25:58Z</time>
      </trkpt>
      <trkpt lat="44.60069" lon="15.73571">
        <ele>633</ele>
        <time>2016-07-31T06:27:58Z</time>
      </trkpt>
      <trkpt lat="44.60049" lon="15.73566">
        <ele>632</ele>
        <time>2016-07-31T06:29:58Z</time>
      </trkpt>
      <trkpt lat="44.60007" lon="15.73541">
        <ele>632</ele>
        <time>2016-07-31T06:31:58Z</time>
      </trkpt>
      <trkpt lat="44.59925" lon="15.73497">
        <ele>635</ele>
        <time>2016-07-31T06:33:58Z</time>
      </trkpt>
      <trkpt lat="44.59881" lon="15.73478">
        <ele>634</ele>
        <time>2016-07-31T06:35:58Z</time>
      </trkpt>
      <trkpt lat="44.59859" lon="15.73471">
        <ele>634</ele>
        <time>2016-07-31T06:37:58Z</time>
      </trkpt>
      <trkpt lat="44.59837" lon="15.73465">
        <ele>633</ele>
        <time>2016-07-31T06:39:58Z</time>
      </trkpt>
      <trkpt lat="44.59814" lon="15.73462">
        <ele>633</ele>
        <time>2016-07-31T06:41:58Z</time>
      </trkpt>
      <trkpt lat="44.59798" lon="15.7346">
        <ele>633</ele>
        <time>2016-07-31T06:43:58Z</time>
      </trkpt>
      <trkpt lat="44.59792" lon="15.7346">
        <ele>633</ele>
        <time>2016-07-31T06:45:58Z</time>
      </trkpt>
      <trkpt lat="44.5977" lon="15.7346">
        <ele>633</ele>
        <time>2016-07-31T06:47:58Z</time>
      </trkpt>
      <trkpt lat="44.59759" lon="15.73462">
        <ele>633</ele>
        <time>2016-07-31T06:49:58Z</time>
      </trkpt>
      <trkpt lat="44.59727" lon="15.73466">
        <ele>633</ele>
        <time>2016-07-31T06:51:58Z</time>
      </trkpt>
      <trkpt lat="44.59684" lon="15.73478">
        <ele>633</ele>
        <time>2016-07-31T06:53:58Z</time>
      </trkpt>
      <trkpt lat="44.5967" lon="15.73484">
        <ele>633</ele>
        <time>2016-07-31T06:55:58Z</time>
      </trkpt>
      <trkpt lat="44.59663" lon="15.73487">
        <ele>633</ele>
        <time>2016-07-31T06:57:58Z</time>
      </trkpt>
      <trkpt lat="44.5958" lon="15.73528">
        <ele>633</ele>
        <time>2016-07-31T06:59:58Z</time>
      </trkpt>
      <trkpt lat="44.59539" lon="15.73547">
        <ele>634</ele>
        <time>2016-07-31T07:01:58Z</time>
      </trkpt>
      <trkpt lat="44.59519" lon="15.73556">
        <ele>634</ele>
        <time>2016-07-31T07:03:58Z</time>
      </trkpt>
      <trkpt lat="44.59477" lon="15.7357">
        <ele>634</ele>
        <time>2016-07-31T07:05:58Z</time>
      </trkpt>
      <trkpt lat="44.59473" lon="15.73571">
        <ele>634</ele>
        <time>2016-07-31T07:07:58Z</time>
      </trkpt>
      <trkpt lat="44.59434" lon="15.7358">
        <ele>633</ele>
        <time>2016-07-31T07:09:58Z</time>
      </trkpt>
      <trkpt lat="44.59301" lon="15.73599">
        <ele>634</ele>
        <time>2016-07-31T07:11:58Z</time>
      </trkpt>
      <trkpt lat="44.59256" lon="15.73609">
        <ele>635</ele>
        <time>2016-07-31T07:13:58Z</time>
      </trkpt>
      <trkpt lat="44.59234" lon="15.73616">
        <ele>635</ele>
        <time>2016-07-31T07:15:58Z</time>
      </trkpt>
      <trkpt lat="44.5919" lon="15.73634">
        <ele>636</ele>
        <time>2016-07-31T07:17:58Z</time>
      </trkpt>
      <trkpt lat="44.59121" lon="15.73665">
        <ele>637</ele>
        <time>2016-07-31T07:19:58Z</time>
      </trkpt>
      <trkpt lat="44.59103" lon="15.73673">
        <ele>637</ele>
        <time>2016-07-31T07:21:58Z</time>
      </trkpt>
      <trkpt lat="44.58995" lon="15.73719">
        <ele>638</ele>
        <time>2016-07-31T07:23:58Z</time>
      </trkpt>
      <trkpt lat="44.58972" lon="15.73728">
        <ele>638</ele>
        <time>2016-07-31T07:25:58Z</time>
      </trkpt>
      <trkpt lat="44.58955" lon="15.73735">
        <ele>638</ele>
        <time>2016-07-31T07:27:58Z</time>
      </trkpt>
      <trkpt lat="44.58914" lon="15.73748">
        <ele>638</ele>
        <time>2016-07-31T07:29:58Z</time>
      </trkpt>
      <trkpt lat="44.58903" lon="15.73751">
        <ele>639</ele>
        <time>2016-07-31T07:31:58Z</time>
      </trkpt>
      <trkpt lat="44.58791" lon="15.73777">
        <ele>641</ele>
        <time>2016-07-31T07:33:58Z</time>
      </trkpt>
      <trkpt lat="44.58729" lon="15.73795">
        <ele>642</ele>
        <time>2016-07-31T07:35:58Z</time>
      </trkpt>
      <trkpt lat="44.58689" lon="15.7381">
        <ele>642</ele>
        <time>2016-07-31T07:37:58Z</time>
      </trkpt>
      <trkpt lat="44.58648" lon="15.73826">
        <ele>642</ele>
        <time>2016-07-31T07:39:58Z</time>
      </trkpt>
      <trkpt lat="44.58608" lon="15.73845">
        <ele>643</ele>
        <time>2016-07-31T07:41:58Z</time>
      </trkpt>
      <trkpt lat="44.58569" lon="15.73865">
        <ele>644</ele>
        <time>2016-07-31T07:43:58Z</time>
      </trkpt>
      <trkpt lat="44.58514" lon="15.73899">
        <ele>644</ele>
        <time>2016-07-31T07:45:58Z</time>
      </trkpt>
      <trkpt lat="44.58495" lon="15.73911">
        <ele>644</ele>
        <time>2016-07-31T07:47:58Z</time>
      </trkpt>
      <trkpt lat="44.5846" lon="15.73936">
        <ele>645</ele>
        <time>2016-07-31T07:49:58Z</time>
      </trkpt>
      <trkpt lat="44.58443" lon="15.7395">
        <ele>645</ele>
        <time>2016-07-31T07:51:58Z</time>
      </trkpt>
      <trkpt lat="44.5841" lon="15.73979">
        <ele>646</ele>
        <time>2016-07-31T07:53:58Z</time>
      </trkpt>
      <trkpt lat="44.58377" lon="15.74011">
        <ele>647</ele>
        <time>2016-07-31T07:55:58Z</time>
      </trkpt>
      <trkpt lat="44.58345" lon="15.74046">
        <ele>648</ele>
        <time>2016-07-31T07:57:58Z</time>
      </trkpt>
      <trkpt lat="44.58314" lon="15.74082">
        <ele>648</ele>
        <time>2016-07-31T07:59:58Z</time>
      </trkpt>
      <trkpt lat="44.583" lon="15.74102">
        <ele>648</ele>
        <time>2016-07-31T08:01:58Z</time>
      </trkpt>
      <trkpt lat="44.58271" lon="15.74142">
        <ele>650</ele>
        <time>2016-07-31T08:03:58Z</time>
      </trkpt>
      <trkpt lat="44.58206" lon="15.74244">
        <ele>653</ele>
        <time>2016-07-31T08:05:58Z</time>
      </trkpt>
      <trkpt lat="44.58193" lon="15.74264">
        <ele>654</ele>
        <time>2016-07-31T08:07:58Z</time>
      </trkpt>
      <trkpt lat="44.5818" lon="15.74282">
        <ele>655</ele>
        <time>2016-07-31T08:09:58Z</time>
      </trkpt>
      <trkpt lat="44.58152" lon="15.74317">
        <ele>656</ele>
        <time>2016-07-31T08:11:58Z</time>
      </trkpt>
      <trkpt lat="44.58134" lon="15.74338">
        <ele>656</ele>
        <time>2016-07-31T08:13:58Z</time>
      </trkpt>
      <trkpt lat="44.58124" lon="15.7435">
        <ele>656</ele>
        <time>2016-07-31T08:15:58Z</time>
      </trkpt>
      <trkpt lat="44.58109" lon="15.74365">
        <ele>656</ele>
        <time>2016-07-31T08:17:58Z</time>
      </trkpt>
      <trkpt lat="44.58106" lon="15.74367">
        <ele>656</ele>
        <time>2016-07-31T08:19:58Z</time>
      </trkpt>
      <trkpt lat="44.58095" lon="15.74378">
        <ele>656</ele>
        <time>2016-07-31T08:21:58Z</time>
      </trkpt>
      <trkpt lat="44.58088" lon="15.74384">
        <ele>657</ele>
        <time>2016-07-31T08:23:58Z</time>
      </trkpt>
      <trkpt lat="44.58079" lon="15.74392">
        <ele>657</ele>
        <time>2016-07-31T08:25:58Z</time>
      </trkpt>
      <trkpt lat="44.57987" lon="15.74465">
        <ele>657</ele>
        <time>2016-07-31T08:27:58Z</time>
      </trkpt>
      <trkpt lat="44.57955" lon="15.74494">
        <ele>657</ele>
        <time>2016-07-31T08:29:58Z</time>
      </trkpt>
      <trkpt lat="44.57908" lon="15.74539">
        <ele>658</ele>
        <time>2016-07-31T08:31:58Z</time>
      </trkpt>
      <trkpt lat="44.57865" lon="15.74589">
        <ele>660</ele>
        <time>2016-07-31T08:33:58Z</time>
      </trkpt>
      <trkpt lat="44.57857" lon="15.74595">
        <ele>660</ele>
        <time>2016-07-31T08:35:58Z</time>
      </trkpt>
      <trkpt lat="44.5785" lon="15.74604">
        <ele>660</ele>
        <time>2016-07-31T08:37:58Z</time>
      </trkpt>
      <trkpt lat="44.57825" lon="15.74637">
        <ele>661</ele>
        <time>2016-07-31T08:39:58Z</time>
      </trkpt>
      <trkpt lat="44.57811" lon="15.74657">
        <ele>661</ele>
        <time>2016-07-31T08:41:58Z</time>
      </trkpt>
      <trkpt lat="44.57777" lon="15.74705">
        <ele>660</ele>
        <time>2016-07-31T08:43:58Z</time>
      </trkpt>
      <trkpt lat="44.5775" lon="15.74741">
        <ele>661</ele>
        <time>2016-07-31T08:45:58Z</time>
      </trkpt>
      <trkpt lat="44.57706" lon="15.74789">
        <ele>663</ele>
        <time>2016-07-31T08:47:58Z</time>
      </trkpt>
      <trkpt lat="44.57623" lon="15.74873">
        <ele>668</ele>
        <time>2016-07-31T08:49:58Z</time>
      </trkpt>
      <trkpt lat="44.57597" lon="15.74902">
        <ele>670</ele>
        <time>2016-07-31T08:51:58Z</time>
      </trkpt>
      <trkpt lat="44.57546" lon="15.74969">
        <ele>668</ele>
        <time>2016-07-31T08:53:58Z</time>
      </trkpt>
      <trkpt lat="44.57517" lon="15.75002">
        <ele>667</ele>
        <time>2016-07-31T08:55:58Z</time>
      </trkpt>
      <trkpt lat="44.57501" lon="15.75017">
        <ele>666</ele>
        <time>2016-07-31T08:57:58Z</time>
      </trkpt>
      <trkpt lat="44.57468" lon="15.75044">
        <ele>665</ele>
        <time>2016-07-31T08:59:58Z</time>
      </trkpt>
      <trkpt lat="44.57329" lon="15.7514">
        <ele>666</ele>
        <time>2016-07-31T09:01:58Z</time>
      </trkpt>
      <trkpt lat="44.57316" lon="15.75149">
        <ele>666</ele>
        <time>2016-07-31T09:03:58Z</time>
      </trkpt>
      <trkpt lat="44.57185" lon="15.7524">
        <ele>667</ele>
        <time>2016-07-31T09:05:58Z</time>
      </trkpt>
      <trkpt lat="44.57151" lon="15.75262">
        <ele>668</ele>
        <time>2016-07-31T09:07:58Z</time>
      </trkpt>
      <trkpt lat="44.57141" lon="15.75268">
        <ele>668</ele>
        <time>2016-07-31T09:09:58Z</time>
      </trkpt>
      <trkpt lat="44.57097" lon="15.75294">
        <ele>669</ele>
        <time>2016-07-31T09:11:58Z</time>
      </trkpt>
      <trkpt lat="44.57059" lon="15.75313">
        <ele>670</ele>
        <time>2016-07-31T09:13:58Z</time>
      </trkpt>
      <trkpt lat="44.56888" lon="15.75398">
        <ele>671</ele>
        <time>2016-07-31T09:15:58Z</time>
      </trkpt>
      <trkpt lat="44.56746" lon="15.75466">
        <ele>672</ele>
        <time>2016-07-31T09:17:58Z</time>
      </trkpt>
      <trkpt lat="44.56573" lon="15.7555">
        <ele>676</ele>
        <time>2016-07-31T09:19:58Z</time>
      </trkpt>
      <trkpt lat="44.55971" lon="15.75842">
        <ele>693</ele>
        <time>2016-07-31T09:21:58Z</time>
      </trkpt>
      <trkpt lat="44.5569" lon="15.75983">
        <ele>696</ele>
        <time>2016-07-31T09:23:58Z</time>
      </trkpt>
      <trkpt lat="44.55537" lon="15.76064">
        <ele>698</ele>
        <time>2016-07-31T09:25:58Z</time>
      </trkpt>
      <trkpt lat="44.55479" lon="15.76086">
        <ele>697</ele>
        <time>2016-07-31T09:27:58Z</time>
      </trkpt>
      <trkpt lat="44.55446" lon="15.76099">
        <ele>698</ele>
        <time>2016-07-31T09:29:58Z</time>
      </trkpt>
      <trkpt lat="44.55372" lon="15.7612">
        <ele>700</ele>
        <time>2016-07-31T09:31:58Z</time>
      </trkpt>
      <trkpt lat="44.55359" lon="15.76118">
        <ele>700</ele>
        <time>2016-07-31T09:33:58Z</time>
      </trkpt>
      <trkpt lat="44.5531" lon="15.76121">
        <ele>700</ele>
        <time>2016-07-31T09:35:58Z</time>
      </trkpt>
      <trkpt lat="44.55305" lon="15.76122">
        <ele>700</ele>
        <time>2016-07-31T09:37:58Z</time>
      </trkpt>
      <trkpt lat="44.55214" lon="15.76122">
        <ele>701</ele>
        <time>2016-07-31T09:39:58Z</time>
      </trkpt>
      <trkpt lat="44.55214" lon="15.76122">
        <ele>701</ele>
        <time>2016-07-31T09:41:58Z</time>
      </trkpt>
      <trkpt lat="44.55214" lon="15.76134">
        <ele>701</ele>
        <time>2016-07-31T09:43:58Z</time>
      </trkpt>
      <trkpt lat="44.55211" lon="15.76168">
        <ele>702</ele>
        <time>2016-07-31T09:45:58Z</time>
      </trkpt>
      <trkpt lat="44.55208" lon="15.76179">
        <ele>702</ele>
        <time>2016-07-31T09:47:58Z</time>
      </trkpt>
      <trkpt lat="44.55206" lon="15.76188">
        <ele>702</ele>
        <time>2016-07-31T09:49:58Z</time>
      </trkpt>
      <trkpt lat="44.55203" lon="15.76196">
        <ele>702</ele>
        <time>2016-07-31T09:51:58Z</time>
      </trkpt>
      <trkpt lat="44.55198" lon="15.76205">
        <ele>703</ele>
        <time>2016-07-31T09:53:58Z</time>
      </trkpt>
      <trkpt lat="44.55195" lon="15.76212">
        <ele>703</ele>
        <time>2016-07-31T09:55:58Z</time>
      </trkpt>
      <trkpt lat="44.55193" lon="15.76216">
        <ele>703</ele>
        <time>2016-07-31T09:57:58Z</time>
      </trkpt>
      <trkpt lat="44.55191" lon="15.76219">
        <ele>703</ele>
        <time>2016-07-31T09:59:58Z</time>
      </trkpt>
      <trkpt lat="44.55189" lon="15.76222">
        <ele>703</ele>
        <time>2016-07-31T10:01:58Z</time>
      </trkpt>
      <trkpt lat="44.55187" lon="15.76225">
        <ele>703</ele>
        <time>2016-07-31T10:03:58Z</time>
      </trkpt>
      <trkpt lat="44.55185" lon="15.76227">
        <ele>703</ele>
        <time>2016-07-31T10:05:58Z</time>
      </trkpt>
      <trkpt lat="44.55182" lon="15.7623">
        <ele>703</ele>
        <time>2016-07-31T10:07:58Z</time>
      </trkpt>
      <trkpt lat="44.5518" lon="15.76232">
        <ele>703</ele>
        <time>2016-07-31T10:09:58Z</time>
      </trkpt>
      <trkpt lat="44.55177" lon="15.76234">
        <ele>703</ele>
        <time>2016-07-31T10:11:58Z</time>
      </trkpt>
      <trkpt lat="44.55175" lon="15.76236">
        <ele>704</ele>
        <time>2016-07-31T10:13:58Z</time>
      </trkpt>
      <trkpt lat="44.55172" lon="15.76238">
        <ele>704</ele>
        <time>2016-07-31T10:15:58Z</time>
      </trkpt>
      <trkpt lat="44.55169" lon="15.7624">
        <ele>704</ele>
        <time>2016-07-31T10:17:58Z</time>
      </trkpt>
      <trkpt lat="44.55167" lon="15.76241">
        <ele>704</ele>
        <time>2016-07-31T10:19:58Z</time>
      </trkpt>
      <trkpt lat="44.55164" lon="15.76242">
        <ele>704</ele>
        <time>2016-07-31T10:21:58Z</time>
      </trkpt>
      <trkpt lat="44.54887" lon="15.76371">
        <ele>706</ele>
        <time>2016-07-31T10:23:58Z</time>
      </trkpt>
      <trkpt lat="44.54683" lon="15.76467">
        <ele>703</ele>
        <time>2016-07-31T10:25:58Z</time>
      </trkpt>
      <trkpt lat="44.54585" lon="15.76513">
        <ele>700</ele>
        <time>2016-07-31T10:27:58Z</time>
      </trkpt>
      <trkpt lat="44.54474" lon="15.76552">
        <ele>702</ele>
        <time>2016-07-31T10:29:58Z</time>
      </trkpt>
      <trkpt lat="44.5446" lon="15.76554">
        <ele>702</ele>
        <time>2016-07-31T10:31:58Z</time>
      </trkpt>
      <trkpt lat="44.54447" lon="15.76556">
        <ele>702</ele>
        <time>2016-07-31T10:33:58Z</time>
      </trkpt>
      <trkpt lat="44.54443" lon="15.76557">
        <ele>702</ele>
        <time>2016-07-31T10:35:58Z</time>
      </trkpt>
      <trkpt lat="44.54434" lon="15.76557">
        <ele>702</ele>
        <time>2016-07-31T10:37:58Z</time>
      </trkpt>
      <trkpt lat="44.54419" lon="15.76558">
        <ele>702</ele>
        <time>2016-07-31T10:39:58Z</time>
      </trkpt>
      <trkpt lat="44.54409" lon="15.76559">
        <ele>702</ele>
        <time>2016-07-31T10:41:58Z</time>
      </trkpt>
      <trkpt lat="44.54404" lon="15.76559">
        <ele>702</ele>
        <time>2016-07-31T10:43:58Z</time>
      </trkpt>
      <trkpt lat="44.54389" lon="15.76559">
        <ele>703</ele>
        <time>2016-07-31T10:45:58Z</time>
      </trkpt>
      <trkpt lat="44.54374" lon="15.76559">
        <ele>704</ele>
        <time>2016-07-31T10:47:58Z</time>
      </trkpt>
      <trkpt lat="44.54358" lon="15.76558">
        <ele>705</ele>
        <time>2016-07-31T10:49:58Z</time>
      </trkpt>
      <trkpt lat="44.54347" lon="15.76557">
        <ele>706</ele>
        <time>2016-07-31T10:51:58Z</time>
      </trkpt>
      <trkpt lat="44.54336" lon="15.76556">
        <ele>706</ele>
        <time>2016-07-31T10:53:58Z</time>
      </trkpt>
      <trkpt lat="44.54325" lon="15.76555">
        <ele>706</ele>
        <time>2016-07-31T10:55:58Z</time>
      </trkpt>
      <trkpt lat="44.54313" lon="15.76553">
        <ele>707</ele>
        <time>2016-07-31T10:57:58Z</time>
      </trkpt>
      <trkpt lat="44.54302" lon="15.76551">
        <ele>707</ele>
        <time>2016-07-31T10:59:58Z</time>
      </trkpt>
      <trkpt lat="44.5429" lon="15.76548">
        <ele>707</ele>
        <time>2016-07-31T11:01:58Z</time>
      </trkpt>
      <trkpt lat="44.54279" lon="15.76545">
        <ele>707</ele>
        <time>2016-07-31T11:03:58Z</time>
      </trkpt>
      <trkpt lat="44.54267" lon="15.76541">
        <ele>707</ele>
        <time>2016-07-31T11:05:58Z</time>
      </trkpt>
      <trkpt lat="44.54256" lon="15.76537">
        <ele>707</ele>
        <time>2016-07-31T11:07:58Z</time>
      </trkpt>
      <trkpt lat="44.54244" lon="15.76532">
        <ele>707</ele>
        <time>2016-07-31T11:09:58Z</time>
      </trkpt>
      <trkpt lat="44.54047" lon="15.76452">
        <ele>709</ele>
        <time>2016-07-31T11:11:58Z</time>
      </trkpt>
      <trkpt lat="44.54041" lon="15.7645">
        <ele>710</ele>
        <time>2016-07-31T11:13:58Z</time>
      </trkpt>
      <trkpt lat="44.54035" lon="15.76448">
        <ele>710</ele>
        <time>2016-07-31T11:15:58Z</time>
      </trkpt>
      <trkpt lat="44.54029" lon="15.76447">
        <ele>710</ele>
        <time>2016-07-31T11:17:58Z</time>
      </trkpt>
      <trkpt lat="44.54022" lon="15.76446">
        <ele>710</ele>
        <time>2016-07-31T11:19:58Z</time>
      </trkpt>
      <trkpt lat="44.54016" lon="15.76446">
        <ele>711</ele>
        <time>2016-07-31T11:21:58Z</time>
      </trkpt>
      <trkpt lat="44.54009" lon="15.76446">
        <ele>711</ele>
        <time>2016-07-31T11:23:58Z</time>
      </trkpt>
      <trkpt lat="44.54003" lon="15.76446">
        <ele>711</ele>
        <time>2016-07-31T11:25:58Z</time>
      </trkpt>
      <trkpt lat="44.53997" lon="15.76447">
        <ele>712</ele>
        <time>2016-07-31T11:27:58Z</time>
      </trkpt>
      <trkpt lat="44.5399" lon="15.76449">
        <ele>713</ele>
        <time>2016-07-31T11:29:58Z</time>
      </trkpt>
      <trkpt lat="44.53985" lon="15.7645">
        <ele>713</ele>
        <time>2016-07-31T11:31:58Z</time>
      </trkpt>
      <trkpt lat="44.53985" lon="15.7645">
        <ele>713</ele>
        <time>2016-07-31T11:33:58Z</time>
      </trkpt>
      <trkpt lat="44.53984" lon="15.76451">
        <ele>714</ele>
        <time>2016-07-31T11:35:58Z</time>
      </trkpt>
      <trkpt lat="44.53978" lon="15.76453">
        <ele>714</ele>
        <time>2016-07-31T11:37:58Z</time>
      </trkpt>
      <trkpt lat="44.53972" lon="15.76456">
        <ele>715</ele>
        <time>2016-07-31T11:39:58Z</time>
      </trkpt>
      <trkpt lat="44.53966" lon="15.76459">
        <ele>716</ele>
        <time>2016-07-31T11:41:58Z</time>
      </trkpt>
      <trkpt lat="44.5396" lon="15.76463">
        <ele>717</ele>
        <time>2016-07-31T11:43:58Z</time>
      </trkpt>
      <trkpt lat="44.53954" lon="15.76467">
        <ele>718</ele>
        <time>2016-07-31T11:45:58Z</time>
      </trkpt>
      <trkpt lat="44.53948" lon="15.76472">
        <ele>719</ele>
        <time>2016-07-31T11:47:58Z</time>
      </trkpt>
      <trkpt lat="44.53943" lon="15.76477">
        <ele>719</ele>
        <time>2016-07-31T11:49:58Z</time>
      </trkpt>
      <trkpt lat="44.53938" lon="15.76482">
        <ele>720</ele>
        <time>2016-07-31T11:51:58Z</time>
      </trkpt>
      <trkpt lat="44.53933" lon="15.76488">
        <ele>721</ele>
        <time>2016-07-31T11:53:58Z</time>
      </trkpt>
      <trkpt lat="44.5393" lon="15.76493">
        <ele>721</ele>
        <time>2016-07-31T11:55:58Z</time>
      </trkpt>
      <trkpt lat="44.53927" lon="15.76498">
        <ele>722</ele>
        <time>2016-07-31T11:57:58Z</time>
      </trkpt>
      <trkpt lat="44.53924" lon="15.76503">
        <ele>722</ele>
        <time>2016-07-31T11:59:58Z</time>
      </trkpt>
      <trkpt lat="44.53922" lon="15.76509">
        <ele>722</ele>
        <time>2016-07-31T12:01:58Z</time>
      </trkpt>
      <trkpt lat="44.53919" lon="15.76514">
        <ele>723</ele>
        <time>2016-07-31T12:03:58Z</time>
      </trkpt>
      <trkpt lat="44.53917" lon="15.7652">
        <ele>723</ele>
        <time>2016-07-31T12:05:58Z</time>
      </trkpt>
      <trkpt lat="44.53915" lon="15.76525">
        <ele>723</ele>
        <time>2016-07-31T12:07:58Z</time>
      </trkpt>
      <trkpt lat="44.53913" lon="15.76531">
        <ele>724</ele>
        <time>2016-07-31T12:09:58Z</time>
      </trkpt>
      <trkpt lat="44.53911" lon="15.76536">
        <ele>724</ele>
        <time>2016-07-31T12:11:58Z</time>
      </trkpt>
      <trkpt lat="44.53909" lon="15.76542">
        <ele>724</ele>
        <time>2016-07-31T12:13:58Z</time>
      </trkpt>
      <trkpt lat="44.53908" lon="15.76548">
        <ele>725</ele>
        <time>2016-07-31T12:15:58Z</time>
      </trkpt>
      <trkpt lat="44.53907" lon="15.76553">
        <ele>725</ele>
        <time>2016-07-31T12:17:58Z</time>
      </trkpt>
      <trkpt lat="44.53905" lon="15.76559">
        <ele>725</ele>
        <time>2016-07-31T12:19:58Z</time>
      </trkpt>
      <trkpt lat="44.53896" lon="15.76672">
        <ele>730</ele>
        <time>2016-07-31T12:21:58Z</time>
      </trkpt>
      <trkpt lat="44.53892" lon="15.76783">
        <ele>733</ele>
        <time>2016-07-31T12:23:58Z</time>
      </trkpt>
      <trkpt lat="44.53891" lon="15.76791">
        <ele>733</ele>
        <time>2016-07-31T12:25:58Z</time>
      </trkpt>
      <trkpt lat="44.5389" lon="15.768">
        <ele>734</ele>
        <time>2016-07-31T12:27:58Z</time>
      </trkpt>
      <trkpt lat="44.53889" lon="15.76808">
        <ele>734</ele>
        <time>2016-07-31T12:29:58Z</time>
      </trkpt>
      <trkpt lat="44.53888" lon="15.76816">
        <ele>734</ele>
        <time>2016-07-31T12:31:58Z</time>
      </trkpt>
      <trkpt lat="44.53886" lon="15.76824">
        <ele>735</ele>
        <time>2016-07-31T12:33:58Z</time>
      </trkpt>
      <trkpt lat="44.53884" lon="15.76832">
        <ele>735</ele>
        <time>2016-07-31T12:35:58Z</time>
      </trkpt>
      <trkpt lat="44.53881" lon="15.7684">
        <ele>736</ele>
        <time>2016-07-31T12:37:58Z</time>
      </trkpt>
      <trkpt lat="44.53879" lon="15.76847">
        <ele>736</ele>
        <time>2016-07-31T12:39:58Z</time>
      </trkpt>
      <trkpt lat="44.53876" lon="15.76855">
        <ele>736</ele>
        <time>2016-07-31T12:41:58Z</time>
      </trkpt>
      <trkpt lat="44.53872" lon="15.76862">
        <ele>737</ele>
        <time>2016-07-31T12:43:58Z</time>
      </trkpt>
      <trkpt lat="44.53869" lon="15.7687">
        <ele>737</ele>
        <time>2016-07-31T12:45:58Z</time>
      </trkpt>
      <trkpt lat="44.53865" lon="15.76876">
        <ele>738</ele>
        <time>2016-07-31T12:47:58Z</time>
      </trkpt>
      <trkpt lat="44.5386" lon="15.76883">
        <ele>738</ele>
        <time>2016-07-31T12:49:58Z</time>
      </trkpt>
      <trkpt lat="44.53856" lon="15.76889">
        <ele>739</ele>
        <time>2016-07-31T12:51:58Z</time>
      </trkpt>
      <trkpt lat="44.53802" lon="15.76951">
        <ele>747</ele>
        <time>2016-07-31T12:53:58Z</time>
      </trkpt>
      <trkpt lat="44.53799" lon="15.76956">
        <ele>748</ele>
        <time>2016-07-31T12:55:58Z</time>
      </trkpt>
      <trkpt lat="44.53796" lon="15.7696">
        <ele>748</ele>
        <time>2016-07-31T12:57:58Z</time>
      </trkpt>
      <trkpt lat="44.53794" lon="15.76965">
        <ele>749</ele>
        <time>2016-07-31T12:59:58Z</time>
      </trkpt>
      <trkpt lat="44.53791" lon="15.76969">
        <ele>749</ele>
        <time>2016-07-31T13:01:58Z</time>
      </trkpt>
      <trkpt lat="44.53788" lon="15.76974">
        <ele>750</ele>
        <time>2016-07-31T13:03:58Z</time>
      </trkpt>
      <trkpt lat="44.53786" lon="15.7698">
        <ele>750</ele>
        <time>2016-07-31T13:05:58Z</time>
      </trkpt>
      <trkpt lat="44.53784" lon="15.76985">
        <ele>751</ele>
        <time>2016-07-31T13:07:58Z</time>
      </trkpt>
      <trkpt lat="44.53782" lon="15.7699">
        <ele>751</ele>
        <time>2016-07-31T13:09:58Z</time>
      </trkpt>
      <trkpt lat="44.5378" lon="15.76996">
        <ele>751</ele>
        <time>2016-07-31T13:11:58Z</time>
      </trkpt>
      <trkpt lat="44.53778" lon="15.77001">
        <ele>752</ele>
        <time>2016-07-31T13:13:58Z</time>
      </trkpt>
      <trkpt lat="44.53777" lon="15.77007">
        <ele>752</ele>
        <time>2016-07-31T13:15:58Z</time>
      </trkpt>
      <trkpt lat="44.53776" lon="15.77013">
        <ele>752</ele>
        <time>2016-07-31T13:17:58Z</time>
      </trkpt>
      <trkpt lat="44.53774" lon="15.77018">
        <ele>752</ele>
        <time>2016-07-31T13:19:58Z</time>
      </trkpt>
      <trkpt lat="44.53773" lon="15.77024">
        <ele>751</ele>
        <time>2016-07-31T13:21:58Z</time>
      </trkpt>
      <trkpt lat="44.53773" lon="15.7703">
        <ele>751</ele>
        <time>2016-07-31T13:23:58Z</time>
      </trkpt>
      <trkpt lat="44.53772" lon="15.77035">
        <ele>751</ele>
        <time>2016-07-31T13:25:58Z</time>
      </trkpt>
      <trkpt lat="44.53772" lon="15.77041">
        <ele>750</ele>
        <time>2016-07-31T13:27:58Z</time>
      </trkpt>
      <trkpt lat="44.53771" lon="15.77047">
        <ele>750</ele>
        <time>2016-07-31T13:29:58Z</time>
      </trkpt>
      <trkpt lat="44.53771" lon="15.77053">
        <ele>750</ele>
        <time>2016-07-31T13:31:58Z</time>
      </trkpt>
      <trkpt lat="44.53771" lon="15.77059">
        <ele>749</ele>
        <time>2016-07-31T13:33:58Z</time>
      </trkpt>
      <trkpt lat="44.53771" lon="15.77131">
        <ele>744</ele>
        <time>2016-07-31T13:35:58Z</time>
      </trkpt>
      <trkpt lat="44.53771" lon="15.77134">
        <ele>744</ele>
        <time>2016-07-31T13:37:58Z</time>
      </trkpt>
      <trkpt lat="44.5377" lon="15.77137">
        <ele>743</ele>
        <time>2016-07-31T13:39:58Z</time>
      </trkpt>
      <trkpt lat="44.5377" lon="15.7714">
        <ele>743</ele>
        <time>2016-07-31T13:41:58Z</time>
      </trkpt>
      <trkpt lat="44.53769" lon="15.77143">
        <ele>743</ele>
        <time>2016-07-31T13:43:58Z</time>
      </trkpt>
      <trkpt lat="44.53768" lon="15.77145">
        <ele>743</ele>
        <time>2016-07-31T13:45:58Z</time>
      </trkpt>
      <trkpt lat="44.53767" lon="15.77148">
        <ele>743</ele>
        <time>2016-07-31T13:47:58Z</time>
      </trkpt>
      <trkpt lat="44.53766" lon="15.7715">
        <ele>743</ele>
        <time>2016-07-31T13:49:58Z</time>
      </trkpt>
      <trkpt lat="44.53764" lon="15.77153">
        <ele>743</ele>
        <time>2016-07-31T13:51:58Z</time>
      </trkpt>
      <trkpt lat="44.53763" lon="15.77155">
        <ele>743</ele>
        <time>2016-07-31T13:53:58Z</time>
      </trkpt>
      <trkpt lat="44.53761" lon="15.77157">
        <ele>743</ele>
        <time>2016-07-31T13:55:58Z</time>
      </trkpt>
      <trkpt lat="44.53759" lon="15.77158">
        <ele>743</ele>
        <time>2016-07-31T13:57:58Z</time>
      </trkpt>
      <trkpt lat="44.53758" lon="15.7716">
        <ele>743</ele>
        <time>2016-07-31T13:59:58Z</time>
      </trkpt>
      <trkpt lat="44.53756" lon="15.77161">
        <ele>743</ele>
        <time>2016-07-31T14:01:58Z</time>
      </trkpt>
      <trkpt lat="44.53754" lon="15.77162">
        <ele>743</ele>
        <time>2016-07-31T14:03:58Z</time>
      </trkpt>
      <trkpt lat="44.53752" lon="15.77163">
        <ele>743</ele>
        <time>2016-07-31T14:05:58Z</time>
      </trkpt>
      <trkpt lat="44.5375" lon="15.77164">
        <ele>743</ele>
        <time>2016-07-31T14:07:58Z</time>
      </trkpt>
      <trkpt lat="44.53747" lon="15.77164">
        <ele>743</ele>
        <time>2016-07-31T14:09:58Z</time>
      </trkpt>
      <trkpt lat="44.53745" lon="15.77164">
        <ele>744</ele>
        <time>2016-07-31T14:11:58Z</time>
      </trkpt>
      <trkpt lat="44.53743" lon="15.77164">
        <ele>744</ele>
        <time>2016-07-31T14:13:58Z</time>
      </trkpt>
      <trkpt lat="44.53741" lon="15.77163">
        <ele>744</ele>
        <time>2016-07-31T14:15:58Z</time>
      </trkpt>
      <trkpt lat="44.53739" lon="15.77162">
        <ele>744</ele>
        <time>2016-07-31T14:17:58Z</time>
      </trkpt>
      <trkpt lat="44.53737" lon="15.77161">
        <ele>744</ele>
        <time>2016-07-31T14:19:58Z</time>
      </trkpt>
      <trkpt lat="44.53735" lon="15.7716">
        <ele>744</ele>
        <time>2016-07-31T14:21:58Z</time>
      </trkpt>
      <trkpt lat="44.53733" lon="15.77159">
        <ele>745</ele>
        <time>2016-07-31T14:23:58Z</time>
      </trkpt>
      <trkpt lat="44.53732" lon="15.77157">
        <ele>745</ele>
        <time>2016-07-31T14:25:58Z</time>
      </trkpt>
      <trkpt lat="44.5373" lon="15.77156">
        <ele>745</ele>
        <time>2016-07-31T14:27:58Z</time>
      </trkpt>
      <trkpt lat="44.53728" lon="15.77154">
        <ele>745</ele>
        <time>2016-07-31T14:29:58Z</time>
      </trkpt>
      <trkpt lat="44.53727" lon="15.77151">
        <ele>746</ele>
        <time>2016-07-31T14:31:58Z</time>
      </trkpt>
      <trkpt lat="44.53726" lon="15.77149">
        <ele>746</ele>
        <time>2016-07-31T14:33:58Z</time>
      </trkpt>
      <trkpt lat="44.53725" lon="15.77147">
        <ele>746</ele>
        <time>2016-07-31T14:35:58Z</time>
      </trkpt>
      <trkpt lat="44.53724" lon="15.77144">
        <ele>747</ele>
        <time>2016-07-31T14:37:58Z</time>
      </trkpt>
      <trkpt lat="44.53723" lon="15.77141">
        <ele>747</ele>
        <time>2016-07-31T14:39:58Z</time>
      </trkpt>
      <trkpt lat="44.53723" lon="15.77138">
        <ele>747</ele>
        <time>2016-07-31T14:41:58Z</time>
      </trkpt>
      <trkpt lat="44.53723" lon="15.77134">
        <ele>748</ele>
        <time>2016-07-31T14:43:58Z</time>
      </trkpt>
      <trkpt lat="44.53722" lon="15.77131">
        <ele>748</ele>
        <time>2016-07-31T14:45:58Z</time>
      </trkpt>
      <trkpt lat="44.53722" lon="15.77128">
        <ele>749</ele>
        <time>2016-07-31T14:47:58Z</time>
      </trkpt>
      <trkpt lat="44.53722" lon="15.77125">
        <ele>749</ele>
        <time>2016-07-31T14:49:58Z</time>
      </trkpt>
      <trkpt lat="44.53722" lon="15.77121">
        <ele>749</ele>
        <time>2016-07-31T14:51:58Z</time>
      </trkpt>
      <trkpt lat="44.53723" lon="15.77118">
        <ele>750</ele>
        <time>2016-07-31T14:53:58Z</time>
      </trkpt>
      <trkpt lat="44.53723" lon="15.77114">
        <ele>750</ele>
        <time>2016-07-31T14:55:58Z</time>
      </trkpt>
      <trkpt lat="44.53723" lon="15.7711">
        <ele>751</ele>
        <time>2016-07-31T14:57:58Z</time>
      </trkpt>
      <trkpt lat="44.53724" lon="15.77107">
        <ele>751</ele>
        <time>2016-07-31T14:59:58Z</time>
      </trkpt>
      <trkpt lat="44.5373" lon="15.77075">
        <ele>754</ele>
        <time>2016-07-31T15:01:58Z</time>
      </trkpt>
      <trkpt lat="44.53732" lon="15.77069">
        <ele>754</ele>
        <time>2016-07-31T15:03:58Z</time>
      </trkpt>
      <trkpt lat="44.53734" lon="15.77062">
        <ele>755</ele>
        <time>2016-07-31T15:05:58Z</time>
      </trkpt>
      <trkpt lat="44.53735" lon="15.77055">
        <ele>755</ele>
        <time>2016-07-31T15:07:58Z</time>
      </trkpt>
      <trkpt lat="44.53737" lon="15.77048">
        <ele>756</ele>
        <time>2016-07-31T15:09:58Z</time>
      </trkpt>
      <trkpt lat="44.53738" lon="15.77041">
        <ele>757</ele>
        <time>2016-07-31T15:11:58Z</time>
      </trkpt>
      <trkpt lat="44.53739" lon="15.77034">
        <ele>757</ele>
        <time>2016-07-31T15:13:58Z</time>
      </trkpt>
      <trkpt lat="44.5374" lon="15.77027">
        <ele>758</ele>
        <time>2016-07-31T15:15:58Z</time>
      </trkpt>
      <trkpt lat="44.5374" lon="15.7702">
        <ele>758</ele>
        <time>2016-07-31T15:17:58Z</time>
      </trkpt>
      <trkpt lat="44.53741" lon="15.77013">
        <ele>759</ele>
        <time>2016-07-31T15:19:58Z</time>
      </trkpt>
      <trkpt lat="44.53741" lon="15.77005">
        <ele>760</ele>
        <time>2016-07-31T15:21:58Z</time>
      </trkpt>
      <trkpt lat="44.53742" lon="15.76998">
        <ele>760</ele>
        <time>2016-07-31T15:23:58Z</time>
      </trkpt>
      <trkpt lat="44.53742" lon="15.7699">
        <ele>760</ele>
        <time>2016-07-31T15:25:58Z</time>
      </trkpt>
      <trkpt lat="44.53742" lon="15.76983">
        <ele>760</ele>
        <time>2016-07-31T15:27:58Z</time>
      </trkpt>
      <trkpt lat="44.53741" lon="15.76975">
        <ele>761</ele>
        <time>2016-07-31T15:29:58Z</time>
      </trkpt>
      <trkpt lat="44.53741" lon="15.76968">
        <ele>761</ele>
        <time>2016-07-31T15:31:58Z</time>
      </trkpt>
      <trkpt lat="44.5374" lon="15.7696">
        <ele>761</ele>
        <time>2016-07-31T15:33:58Z</time>
      </trkpt>
      <trkpt lat="44.5374" lon="15.76953">
        <ele>761</ele>
        <time>2016-07-31T15:35:58Z</time>
      </trkpt>
      <trkpt lat="44.53713" lon="15.76787">
        <ele>769</ele>
        <time>2016-07-31T15:37:58Z</time>
      </trkpt>
      <trkpt lat="44.5371" lon="15.7678">
        <ele>769</ele>
        <time>2016-07-31T15:39:58Z</time>
      </trkpt>
      <trkpt lat="44.53707" lon="15.76772">
        <ele>769</ele>
        <time>2016-07-31T15:41:58Z</time>
      </trkpt>
      <trkpt lat="44.53704" lon="15.76765">
        <ele>770</ele>
        <time>2016-07-31T15:43:58Z</time>
      </trkpt>
      <trkpt lat="44.537" lon="15.76758">
        <ele>770</ele>
        <time>2016-07-31T15:45:58Z</time>
      </trkpt>
      <trkpt lat="44.53697" lon="15.76751">
        <ele>771</ele>
        <time>2016-07-31T15:47:58Z</time>
      </trkpt>
      <trkpt lat="44.53693" lon="15.76745">
        <ele>771</ele>
        <time>2016-07-31T15:49:58Z</time>
      </trkpt>
      <trkpt lat="44.53689" lon="15.76738">
        <ele>771</ele>
        <time>2016-07-31T15:51:58Z</time>
      </trkpt>
      <trkpt lat="44.53685" lon="15.76732">
        <ele>771</ele>
        <time>2016-07-31T15:53:58Z</time>
      </trkpt>
      <trkpt lat="44.5368" lon="15.76726">
        <ele>771</ele>
        <time>2016-07-31T15:55:58Z</time>
      </trkpt>
      <trkpt lat="44.53676" lon="15.7672">
        <ele>771</ele>
        <time>2016-07-31T15:57:58Z</time>
      </trkpt>
      <trkpt lat="44.53671" lon="15.76715">
        <ele>772</ele>
        <time>2016-07-31T15:59:58Z</time>
      </trkpt>
      <trkpt lat="44.53667" lon="15.7671">
        <ele>772</ele>
        <time>2016-07-31T16:01:58Z</time>
      </trkpt>
      <trkpt lat="44.53662" lon="15.76705">
        <ele>772</ele>
        <time>2016-07-31T16:03:58Z</time>
      </trkpt>
      <trkpt lat="44.53593" lon="15.76643">
        <ele>779</ele>
        <time>2016-07-31T16:05:58Z</time>
      </trkpt>
      <trkpt lat="44.53558" lon="15.76602">
        <ele>785</ele>
        <time>2016-07-31T16:07:58Z</time>
      </trkpt>
      <trkpt lat="44.53554" lon="15.76597">
        <ele>786</ele>
        <time>2016-07-31T16:09:58Z</time>
      </trkpt>
      <trkpt lat="44.5355" lon="15.76592">
        <ele>787</ele>
        <time>2016-07-31T16:11:58Z</time>
      </trkpt>
      <trkpt lat="44.53546" lon="15.76586">
        <ele>787</ele>
        <time>2016-07-31T16:13:58Z</time>
      </trkpt>
      <trkpt lat="44.53542" lon="15.7658">
        <ele>788</ele>
        <time>2016-07-31T16:15:58Z</time>
      </trkpt>
      <trkpt lat="44.53539" lon="15.76574">
        <ele>788</ele>
        <time>2016-07-31T16:17:58Z</time>
      </trkpt>
      <trkpt lat="44.53535" lon="15.76568">
        <ele>789</ele>
        <time>2016-07-31T16:19:58Z</time>
      </trkpt>
      <trkpt lat="44.53532" lon="15.76561">
        <ele>789</ele>
        <time>2016-07-31T16:21:58Z</time>
      </trkpt>
      <trkpt lat="44.53529" lon="15.76555">
        <ele>789</ele>
        <time>2016-07-31T16:23:58Z</time>
      </trkpt>
      <trkpt lat="44.53526" lon="15.76548">
        <ele>790</ele>
        <time>2016-07-31T16:25:58Z</time>
      </trkpt>
      <trkpt lat="44.53523" lon="15.7654">
        <ele>790</ele>
        <time>2016-07-31T16:27:58Z</time>
      </trkpt>
      <trkpt lat="44.5352" lon="15.76533">
        <ele>790</ele>
        <time>2016-07-31T16:29:58Z</time>
      </trkpt>
      <trkpt lat="44.53517" lon="15.76526">
        <ele>791</ele>
        <time>2016-07-31T16:31:58Z</time>
      </trkpt>
      <trkpt lat="44.53515" lon="15.76518">
        <ele>791</ele>
        <time>2016-07-31T16:33:58Z</time>
      </trkpt>
      <trkpt lat="44.53511" lon="15.76502">
        <ele>791</ele>
        <time>2016-07-31T16:35:58Z</time>
      </trkpt>
      <trkpt lat="44.53507" lon="15.76485">
        <ele>791</ele>
        <time>2016-07-31T16:37:58Z</time>
      </trkpt>
      <trkpt lat="44.53503" lon="15.76468">
        <ele>791</ele>
        <time>2016-07-31T16:39:58Z</time>
      </trkpt>
      <trkpt lat="44.53499" lon="15.76452">
        <ele>790</ele>
        <time>2016-07-31T16:41:58Z</time>
      </trkpt>
      <trkpt lat="44.53494" lon="15.76436">
        <ele>791</ele>
        <time>2016-07-31T16:43:58Z</time>
      </trkpt>
      <trkpt lat="44.53489" lon="15.76419">
        <ele>791</ele>
        <time>2016-07-31T16:45:58Z</time>
      </trkpt>
      <trkpt lat="44.53485" lon="15.76407">
        <ele>791</ele>
        <time>2016-07-31T16:47:58Z</time>
      </trkpt>
      <trkpt lat="44.53482" lon="15.76395">
        <ele>791</ele>
        <time>2016-07-31T16:49:58Z</time>
      </trkpt>
      <trkpt lat="44.53478" lon="15.76382">
        <ele>792</ele>
        <time>2016-07-31T16:51:58Z</time>
      </trkpt>
      <trkpt lat="44.53473" lon="15.7637">
        <ele>792</ele>
        <time>2016-07-31T16:53:58Z</time>
      </trkpt>
      <trkpt lat="44.53471" lon="15.76366">
        <ele>792</ele>
        <time>2016-07-31T16:55:58Z</time>
      </trkpt>
      <trkpt lat="44.53468" lon="15.76362">
        <ele>792</ele>
        <time>2016-07-31T16:57:58Z</time>
      </trkpt>
      <trkpt lat="44.53465" lon="15.76358">
        <ele>792</ele>
        <time>2016-07-31T16:59:58Z</time>
      </trkpt>
      <trkpt lat="44.53462" lon="15.76354">
        <ele>792</ele>
        <time>2016-07-31T17:01:58Z</time>
      </trkpt>
      <trkpt lat="44.53459" lon="15.76351">
        <ele>793</ele>
        <time>2016-07-31T17:03:58Z</time>
      </trkpt>
      <trkpt lat="44.53455" lon="15.76348">
        <ele>793</ele>
        <time>2016-07-31T17:05:58Z</time>
      </trkpt>
      <trkpt lat="44.53452" lon="15.76345">
        <ele>793</ele>
        <time>2016-07-31T17:07:58Z</time>
      </trkpt>
      <trkpt lat="44.53448" lon="15.76342">
        <ele>793</ele>
        <time>2016-07-31T17:09:58Z</time>
      </trkpt>
      <trkpt lat="44.53444" lon="15.7634">
        <ele>793</ele>
        <time>2016-07-31T17:11:58Z</time>
      </trkpt>
      <trkpt lat="44.53441" lon="15.76337">
        <ele>793</ele>
        <time>2016-07-31T17:13:58Z</time>
      </trkpt>
      <trkpt lat="44.53437" lon="15.76335">
        <ele>793</ele>
        <time>2016-07-31T17:15:58Z</time>
      </trkpt>
      <trkpt lat="44.53433" lon="15.76334">
        <ele>794</ele>
        <time>2016-07-31T17:17:58Z</time>
      </trkpt>
      <trkpt lat="44.53429" lon="15.76332">
        <ele>794</ele>
        <time>2016-07-31T17:19:58Z</time>
      </trkpt>
      <trkpt lat="44.53425" lon="15.76331">
        <ele>794</ele>
        <time>2016-07-31T17:21:58Z</time>
      </trkpt>
      <trkpt lat="44.53421" lon="15.7633">
        <ele>794</ele>
        <time>2016-07-31T17:23:58Z</time>
      </trkpt>
      <trkpt lat="44.53417" lon="15.7633">
        <ele>794</ele>
        <time>2016-07-31T17:25:58Z</time>
      </trkpt>
      <trkpt lat="44.53413" lon="15.7633">
        <ele>795</ele>
        <time>2016-07-31T17:27:58Z</time>
      </trkpt>
      <trkpt lat="44.53409" lon="15.7633">
        <ele>795</ele>
        <time>2016-07-31T17:29:58Z</time>
      </trkpt>
      <trkpt lat="44.53404" lon="15.7633">
        <ele>796</ele>
        <time>2016-07-31T17:31:58Z</time>
      </trkpt>
      <trkpt lat="44.5337" lon="15.76338">
        <ele>801</ele>
        <time>2016-07-31T17:33:58Z</time>
      </trkpt>
      <trkpt lat="44.53366" lon="15.76339">
        <ele>802</ele>
        <time>2016-07-31T17:35:58Z</time>
      </trkpt>
      <trkpt lat="44.53362" lon="15.7634">
        <ele>802</ele>
        <time>2016-07-31T17:37:58Z</time>
      </trkpt>
      <trkpt lat="44.53358" lon="15.76341">
        <ele>803</ele>
        <time>2016-07-31T17:39:58Z</time>
      </trkpt>
      <trkpt lat="44.53354" lon="15.76342">
        <ele>803</ele>
        <time>2016-07-31T17:41:58Z</time>
      </trkpt>
      <trkpt lat="44.5335" lon="15.76342">
        <ele>804</ele>
        <time>2016-07-31T17:43:58Z</time>
      </trkpt>
      <trkpt lat="44.53346" lon="15.76342">
        <ele>804</ele>
        <time>2016-07-31T17:45:58Z</time>
      </trkpt>
      <trkpt lat="44.53342" lon="15.76341">
        <ele>805</ele>
        <time>2016-07-31T17:47:58Z</time>
      </trkpt>
      <trkpt lat="44.53338" lon="15.76341">
        <ele>805</ele>
        <time>2016-07-31T17:49:58Z</time>
      </trkpt>
      <trkpt lat="44.53334" lon="15.7634">
        <ele>806</ele>
        <time>2016-07-31T17:51:58Z</time>
      </trkpt>
      <trkpt lat="44.5333" lon="15.76338">
        <ele>806</ele>
        <time>2016-07-31T17:53:58Z</time>
      </trkpt>
      <trkpt lat="44.53326" lon="15.76337">
        <ele>806</ele>
        <time>2016-07-31T17:55:58Z</time>
      </trkpt>
      <trkpt lat="44.53322" lon="15.76335">
        <ele>807</ele>
        <time>2016-07-31T17:57:58Z</time>
      </trkpt>
      <trkpt lat="44.53318" lon="15.76333">
        <ele>807</ele>
        <time>2016-07-31T17:59:58Z</time>
      </trkpt>
      <trkpt lat="44.53315" lon="15.7633">
        <ele>807</ele>
        <time>2016-07-31T18:01:58Z</time>
      </trkpt>
      <trkpt lat="44.53308" lon="15.76322">
        <ele>807</ele>
        <time>2016-07-31T18:03:58Z</time>
      </trkpt>
      <trkpt lat="44.53302" lon="15.76314">
        <ele>807</ele>
        <time>2016-07-31T18:05:58Z</time>
      </trkpt>
      <trkpt lat="44.53296" lon="15.76306">
        <ele>806</ele>
        <time>2016-07-31T18:07:58Z</time>
      </trkpt>
      <trkpt lat="44.5329" lon="15.76297">
        <ele>806</ele>
        <time>2016-07-31T18:09:58Z</time>
      </trkpt>
      <trkpt lat="44.53284" lon="15.76289">
        <ele>806</ele>
        <time>2016-07-31T18:11:58Z</time>
      </trkpt>
      <trkpt lat="44.53279" lon="15.7628">
        <ele>806</ele>
        <time>2016-07-31T18:13:58Z</time>
      </trkpt>
      <trkpt lat="44.53274" lon="15.76271">
        <ele>805</ele>
        <time>2016-07-31T18:15:58Z</time>
      </trkpt>
      <trkpt lat="44.53269" lon="15.76262">
        <ele>805</ele>
        <time>2016-07-31T18:17:58Z</time>
      </trkpt>
      <trkpt lat="44.53264" lon="15.76253">
        <ele>805</ele>
        <time>2016-07-31T18:19:58Z</time>
      </trkpt>
      <trkpt lat="44.53259" lon="15.76244">
        <ele>805</ele>
        <time>2016-07-31T18:21:58Z</time>
      </trkpt>
      <trkpt lat="44.53254" lon="15.76235">
        <ele>805</ele>
        <time>2016-07-31T18:23:58Z</time>
      </trkpt>
      <trkpt lat="44.53202" lon="15.76143">
        <ele>800</ele>
        <time>2016-07-31T18:25:58Z</time>
      </trkpt>
      <trkpt lat="44.53198" lon="15.76135">
        <ele>799</ele>
        <time>2016-07-31T18:27:58Z</time>
      </trkpt>
      <trkpt lat="44.53192" lon="15.76127">
        <ele>799</ele>
        <time>2016-07-31T18:29:58Z</time>
      </trkpt>
      <trkpt lat="44.53187" lon="15.7612">
        <ele>798</ele>
        <time>2016-07-31T18:31:58Z</time>
      </trkpt>
      <trkpt lat="44.53182" lon="15.76113">
        <ele>798</ele>
        <time>2016-07-31T18:33:58Z</time>
      </trkpt>
      <trkpt lat="44.53176" lon="15.76106">
        <ele>798</ele>
        <time>2016-07-31T18:35:58Z</time>
      </trkpt>
      <trkpt lat="44.53171" lon="15.76099">
        <ele>797</ele>
        <time>2016-07-31T18:37:58Z</time>
      </trkpt>
      <trkpt lat="44.53165" lon="15.76092">
        <ele>797</ele>
        <time>2016-07-31T18:39:58Z</time>
      </trkpt>
      <trkpt lat="44.53159" lon="15.76086">
        <ele>797</ele>
        <time>2016-07-31T18:41:58Z</time>
      </trkpt>
      <trkpt lat="44.53154" lon="15.76081">
        <ele>797</ele>
        <time>2016-07-31T18:43:58Z</time>
      </trkpt>
      <trkpt lat="44.53153" lon="15.7608">
        <ele>797</ele>
        <time>2016-07-31T18:45:58Z</time>
      </trkpt>
      <trkpt lat="44.53147" lon="15.76075">
        <ele>797</ele>
        <time>2016-07-31T18:47:58Z</time>
      </trkpt>
      <trkpt lat="44.53142" lon="15.7607">
        <ele>797</ele>
        <time>2016-07-31T18:49:58Z</time>
      </trkpt>
      <trkpt lat="44.53136" lon="15.76065">
        <ele>797</ele>
        <time>2016-07-31T18:51:58Z</time>
      </trkpt>
      <trkpt lat="44.5313" lon="15.7606">
        <ele>797</ele>
        <time>2016-07-31T18:53:58Z</time>
      </trkpt>
      <trkpt lat="44.53124" lon="15.76056">
        <ele>797</ele>
        <time>2016-07-31T18:55:58Z</time>
      </trkpt>
      <trkpt lat="44.53118" lon="15.76052">
        <ele>797</ele>
        <time>2016-07-31T18:57:58Z</time>
      </trkpt>
      <trkpt lat="44.53112" lon="15.76048">
        <ele>797</ele>
        <time>2016-07-31T18:59:58Z</time>
      </trkpt>
      <trkpt lat="44.53105" lon="15.76044">
        <ele>798</ele>
        <time>2016-07-31T19:01:58Z</time>
      </trkpt>
      <trkpt lat="44.53099" lon="15.76041">
        <ele>798</ele>
        <time>2016-07-31T19:03:58Z</time>
      </trkpt>
      <trkpt lat="44.53093" lon="15.76037">
        <ele>798</ele>
        <time>2016-07-31T19:05:58Z</time>
      </trkpt>
      <trkpt lat="44.53087" lon="15.76035">
        <ele>798</ele>
        <time>2016-07-31T19:07:58Z</time>
      </trkpt>
      <trkpt lat="44.53081" lon="15.76032">
        <ele>798</ele>
        <time>2016-07-31T19:09:58Z</time>
      </trkpt>
      <trkpt lat="44.53075" lon="15.7603">
        <ele>798</ele>
        <time>2016-07-31T19:11:58Z</time>
      </trkpt>
      <trkpt lat="44.53068" lon="15.76028">
        <ele>798</ele>
        <time>2016-07-31T19:13:58Z</time>
      </trkpt>
      <trkpt lat="44.53062" lon="15.76026">
        <ele>798</ele>
        <time>2016-07-31T19:15:58Z</time>
      </trkpt>
      <trkpt lat="44.53056" lon="15.76025">
        <ele>797</ele>
        <time>2016-07-31T19:17:58Z</time>
      </trkpt>
      <trkpt lat="44.53049" lon="15.76024">
        <ele>797</ele>
        <time>2016-07-31T19:19:58Z</time>
      </trkpt>
      <trkpt lat="44.53043" lon="15.76023">
        <ele>797</ele>
        <time>2016-07-31T19:21:58Z</time>
      </trkpt>
      <trkpt lat="44.53036" lon="15.76023">
        <ele>797</ele>
        <time>2016-07-31T19:23:58Z</time>
      </trkpt>
      <trkpt lat="44.5303" lon="15.76022">
        <ele>797</ele>
        <time>2016-07-31T19:25:58Z</time>
      </trkpt>
      <trkpt lat="44.5296" lon="15.76032">
        <ele>795</ele>
        <time>2016-07-31T19:27:58Z</time>
      </trkpt>
      <trkpt lat="44.52873" lon="15.76053">
        <ele>789</ele>
        <time>2016-07-31T19:29:58Z</time>
      </trkpt>
      <trkpt lat="44.5284" lon="15.76046">
        <ele>786</ele>
        <time>2016-07-31T19:31:58Z</time>
      </trkpt>
      <trkpt lat="44.52835" lon="15.76044">
        <ele>785</ele>
        <time>2016-07-31T19:33:58Z</time>
      </trkpt>
      <trkpt lat="44.5283" lon="15.76042">
        <ele>785</ele>
        <time>2016-07-31T19:35:58Z</time>
      </trkpt>
      <trkpt lat="44.52825" lon="15.76039">
        <ele>785</ele>
        <time>2016-07-31T19:37:58Z</time>
      </trkpt>
      <trkpt lat="44.5282" lon="15.76037">
        <ele>786</ele>
        <time>2016-07-31T19:39:58Z</time>
      </trkpt>
      <trkpt lat="44.52815" lon="15.76034">
        <ele>786</ele>
        <time>2016-07-31T19:41:58Z</time>
      </trkpt>
      <trkpt lat="44.5281" lon="15.76031">
        <ele>786</ele>
        <time>2016-07-31T19:43:58Z</time>
      </trkpt>
      <trkpt lat="44.52804" lon="15.76027">
        <ele>786</ele>
        <time>2016-07-31T19:45:58Z</time>
      </trkpt>
      <trkpt lat="44.52798" lon="15.76023">
        <ele>786</ele>
        <time>2016-07-31T19:47:58Z</time>
      </trkpt>
      <trkpt lat="44.52793" lon="15.76018">
        <ele>786</ele>
        <time>2016-07-31T19:49:58Z</time>
      </trkpt>
      <trkpt lat="44.52788" lon="15.76013">
        <ele>786</ele>
        <time>2016-07-31T19:51:58Z</time>
      </trkpt>
      <trkpt lat="44.52782" lon="15.76008">
        <ele>785</ele>
        <time>2016-07-31T19:53:58Z</time>
      </trkpt>
      <trkpt lat="44.52696" lon="15.75925">
        <ele>780</ele>
        <time>2016-07-31T19:55:58Z</time>
      </trkpt>
      <trkpt lat="44.5269" lon="15.7592">
        <ele>780</ele>
        <time>2016-07-31T19:57:58Z</time>
      </trkpt>
      <trkpt lat="44.52689" lon="15.75919">
        <ele>779</ele>
        <time>2016-07-31T19:59:58Z</time>
      </trkpt>
      <trkpt lat="44.52685" lon="15.75916">
        <ele>779</ele>
        <time>2016-07-31T20:01:58Z</time>
      </trkpt>
      <trkpt lat="44.52679" lon="15.75912">
        <ele>779</ele>
        <time>2016-07-31T20:03:58Z</time>
      </trkpt>
      <trkpt lat="44.52674" lon="15.75909">
        <ele>779</ele>
        <time>2016-07-31T20:05:58Z</time>
      </trkpt>
      <trkpt lat="44.52668" lon="15.75905">
        <ele>779</ele>
        <time>2016-07-31T20:07:58Z</time>
      </trkpt>
      <trkpt lat="44.52662" lon="15.75902">
        <ele>779</ele>
        <time>2016-07-31T20:09:58Z</time>
      </trkpt>
      <trkpt lat="44.52656" lon="15.759">
        <ele>778</ele>
        <time>2016-07-31T20:11:58Z</time>
      </trkpt>
      <trkpt lat="44.5265" lon="15.75898">
        <ele>778</ele>
        <time>2016-07-31T20:13:58Z</time>
      </trkpt>
      <trkpt lat="44.52644" lon="15.75896">
        <ele>778</ele>
        <time>2016-07-31T20:15:58Z</time>
      </trkpt>
      <trkpt lat="44.52637" lon="15.75894">
        <ele>778</ele>
        <time>2016-07-31T20:17:58Z</time>
      </trkpt>
      <trkpt lat="44.52631" lon="15.75893">
        <ele>778</ele>
        <time>2016-07-31T20:19:58Z</time>
      </trkpt>
      <trkpt lat="44.52624" lon="15.75892">
        <ele>777</ele>
        <time>2016-07-31T20:21:58Z</time>
      </trkpt>
      <trkpt lat="44.52617" lon="15.75891">
        <ele>777</ele>
        <time>2016-07-31T20:23:58Z</time>
      </trkpt>
      <trkpt lat="44.52611" lon="15.75891">
        <ele>777</ele>
        <time>2016-07-31T20:25:58Z</time>
      </trkpt>
      <trkpt lat="44.52604" lon="15.75891">
        <ele>777</ele>
        <time>2016-07-31T20:27:58Z</time>
      </trkpt>
      <trkpt lat="44.52597" lon="15.75892">
        <ele>777</ele>
        <time>2016-07-31T20:29:58Z</time>
      </trkpt>
      <trkpt lat="44.5259" lon="15.75893">
        <ele>777</ele>
        <time>2016-07-31T20:31:58Z</time>
      </trkpt>
      <trkpt lat="44.52584" lon="15.75894">
        <ele>777</ele>
        <time>2016-07-31T20:33:58Z</time>
      </trkpt>
      <trkpt lat="44.52577" lon="15.75896">
        <ele>777</ele>
        <time>2016-07-31T20:35:58Z</time>
      </trkpt>
      <trkpt lat="44.52571" lon="15.75898">
        <ele>776</ele>
        <time>2016-07-31T20:37:58Z</time>
      </trkpt>
      <trkpt lat="44.52564" lon="15.75901">
        <ele>776</ele>
        <time>2016-07-31T20:39:58Z</time>
      </trkpt>
      <trkpt lat="44.52562" lon="15.75903">
        <ele>776</ele>
        <time>2016-07-31T20:41:58Z</time>
      </trkpt>
      <trkpt lat="44.52548" lon="15.75913">
        <ele>775</ele>
        <time>2016-07-31T20:43:58Z</time>
      </trkpt>
      <trkpt lat="44.52543" lon="15.75918">
        <ele>775</ele>
        <time>2016-07-31T20:45:58Z</time>
      </trkpt>
      <trkpt lat="44.52537" lon="15.75923">
        <ele>775</ele>
        <time>2016-07-31T20:47:58Z</time>
      </trkpt>
      <trkpt lat="44.52532" lon="15.75928">
        <ele>775</ele>
        <time>2016-07-31T20:49:58Z</time>
      </trkpt>
      <trkpt lat="44.52528" lon="15.75933">
        <ele>775</ele>
        <time>2016-07-31T20:51:58Z</time>
      </trkpt>
      <trkpt lat="44.52523" lon="15.75939">
        <ele>775</ele>
        <time>2016-07-31T20:53:58Z</time>
      </trkpt>
      <trkpt lat="44.52518" lon="15.75945">
        <ele>775</ele>
        <time>2016-07-31T20:55:58Z</time>
      </trkpt>
      <trkpt lat="44.52514" lon="15.75952">
        <ele>775</ele>
        <time>2016-07-31T20:57:58Z</time>
      </trkpt>
      <trkpt lat="44.52508" lon="15.75961">
        <ele>775</ele>
        <time>2016-07-31T20:59:58Z</time>
      </trkpt>
      <trkpt lat="44.52505" lon="15.75967">
        <ele>775</ele>
        <time>2016-07-31T21:01:58Z</time>
      </trkpt>
      <trkpt lat="44.52501" lon="15.75975">
        <ele>775</ele>
        <time>2016-07-31T21:03:58Z</time>
      </trkpt>
      <trkpt lat="44.52497" lon="15.75983">
        <ele>775</ele>
        <time>2016-07-31T21:05:58Z</time>
      </trkpt>
      <trkpt lat="44.52494" lon="15.75992">
        <ele>775</ele>
        <time>2016-07-31T21:07:58Z</time>
      </trkpt>
      <trkpt lat="44.52491" lon="15.76">
        <ele>775</ele>
        <time>2016-07-31T21:09:58Z</time>
      </trkpt>
      <trkpt lat="44.52488" lon="15.76009">
        <ele>775</ele>
        <time>2016-07-31T21:11:58Z</time>
      </trkpt>
      <trkpt lat="44.5247" lon="15.76115">
        <ele>771</ele>
        <time>2016-07-31T21:13:58Z</time>
      </trkpt>
      <trkpt lat="44.52468" lon="15.76128">
        <ele>770</ele>
        <time>2016-07-31T21:15:58Z</time>
      </trkpt>
      <trkpt lat="44.52467" lon="15.76141">
        <ele>769</ele>
        <time>2016-07-31T21:17:58Z</time>
      </trkpt>
      <trkpt lat="44.52465" lon="15.76153">
        <ele>769</ele>
        <time>2016-07-31T21:19:58Z</time>
      </trkpt>
      <trkpt lat="44.52465" lon="15.76155">
        <ele>769</ele>
        <time>2016-07-31T21:21:58Z</time>
      </trkpt>
      <trkpt lat="44.52464" lon="15.76166">
        <ele>768</ele>
        <time>2016-07-31T21:23:58Z</time>
      </trkpt>
      <trkpt lat="44.52462" lon="15.76179">
        <ele>767</ele>
        <time>2016-07-31T21:25:58Z</time>
      </trkpt>
      <trkpt lat="44.5246" lon="15.76192">
        <ele>767</ele>
        <time>2016-07-31T21:27:58Z</time>
      </trkpt>
      <trkpt lat="44.52458" lon="15.76205">
        <ele>766</ele>
        <time>2016-07-31T21:29:58Z</time>
      </trkpt>
      <trkpt lat="44.52455" lon="15.76217">
        <ele>766</ele>
        <time>2016-07-31T21:31:58Z</time>
      </trkpt>
      <trkpt lat="44.52453" lon="15.7623">
        <ele>765</ele>
        <time>2016-07-31T21:33:58Z</time>
      </trkpt>
      <trkpt lat="44.5245" lon="15.76241">
        <ele>764</ele>
        <time>2016-07-31T21:35:58Z</time>
      </trkpt>
      <trkpt lat="44.52448" lon="15.76252">
        <ele>764</ele>
        <time>2016-07-31T21:37:58Z</time>
      </trkpt>
      <trkpt lat="44.52445" lon="15.76263">
        <ele>764</ele>
        <time>2016-07-31T21:39:58Z</time>
      </trkpt>
      <trkpt lat="44.52444" lon="15.76266">
        <ele>763</ele>
        <time>2016-07-31T21:41:58Z</time>
      </trkpt>
      <trkpt lat="44.52442" lon="15.76274">
        <ele>763</ele>
        <time>2016-07-31T21:43:58Z</time>
      </trkpt>
      <trkpt lat="44.52439" lon="15.76285">
        <ele>763</ele>
        <time>2016-07-31T21:45:58Z</time>
      </trkpt>
      <trkpt lat="44.52436" lon="15.76295">
        <ele>762</ele>
        <time>2016-07-31T21:47:58Z</time>
      </trkpt>
      <trkpt lat="44.52433" lon="15.76306">
        <ele>762</ele>
        <time>2016-07-31T21:49:58Z</time>
      </trkpt>
      <trkpt lat="44.52426" lon="15.76324">
        <ele>761</ele>
        <time>2016-07-31T21:51:58Z</time>
      </trkpt>
      <trkpt lat="44.5242" lon="15.76341">
        <ele>760</ele>
        <time>2016-07-31T21:53:58Z</time>
      </trkpt>
      <trkpt lat="44.52419" lon="15.76345">
        <ele>760</ele>
        <time>2016-07-31T21:55:58Z</time>
      </trkpt>
      <trkpt lat="44.52413" lon="15.76359">
        <ele>759</ele>
        <time>2016-07-31T21:57:58Z</time>
      </trkpt>
      <trkpt lat="44.52406" lon="15.76376">
        <ele>758</ele>
        <time>2016-07-31T21:59:58Z</time>
      </trkpt>
      <trkpt lat="44.52399" lon="15.76393">
        <ele>756</ele>
        <time>2016-07-31T22:01:58Z</time>
      </trkpt>
      <trkpt lat="44.5239" lon="15.76413">
        <ele>755</ele>
        <time>2016-07-31T22:03:58Z</time>
      </trkpt>
      <trkpt lat="44.52381" lon="15.76433">
        <ele>754</ele>
        <time>2016-07-31T22:05:58Z</time>
      </trkpt>
      <trkpt lat="44.52372" lon="15.76452">
        <ele>754</ele>
        <time>2016-07-31T22:07:58Z</time>
      </trkpt>
      <trkpt lat="44.52364" lon="15.76467">
        <ele>753</ele>
        <time>2016-07-31T22:09:58Z</time>
      </trkpt>
      <trkpt lat="44.52362" lon="15.76471">
        <ele>753</ele>
        <time>2016-07-31T22:11:58Z</time>
      </trkpt>
      <trkpt lat="44.52354" lon="15.76485">
        <ele>753</ele>
        <time>2016-07-31T22:13:58Z</time>
      </trkpt>
      <trkpt lat="44.52346" lon="15.76499">
        <ele>752</ele>
        <time>2016-07-31T22:15:58Z</time>
      </trkpt>
      <trkpt lat="44.52337" lon="15.76512">
        <ele>752</ele>
        <time>2016-07-31T22:17:58Z</time>
      </trkpt>
      <trkpt lat="44.52328" lon="15.76525">
        <ele>752</ele>
        <time>2016-07-31T22:19:58Z</time>
      </trkpt>
      <trkpt lat="44.52319" lon="15.76538">
        <ele>752</ele>
        <time>2016-07-31T22:21:58Z</time>
      </trkpt>
      <trkpt lat="44.5231" lon="15.76551">
        <ele>752</ele>
        <time>2016-07-31T22:23:58Z</time>
      </trkpt>
      <trkpt lat="44.52301" lon="15.76563">
        <ele>752</ele>
        <time>2016-07-31T22:25:58Z</time>
      </trkpt>
      <trkpt lat="44.52291" lon="15.76575">
        <ele>751</ele>
        <time>2016-07-31T22:27:58Z</time>
      </trkpt>
      <trkpt lat="44.52282" lon="15.76586">
        <ele>751</ele>
        <time>2016-07-31T22:29:58Z</time>
      </trkpt>
      <trkpt lat="44.52272" lon="15.76597">
        <ele>751</ele>
        <time>2016-07-31T22:31:58Z</time>
      </trkpt>
      <trkpt lat="44.52263" lon="15.76607">
        <ele>751</ele>
        <time>2016-07-31T22:33:58Z</time>
      </trkpt>
      <trkpt lat="44.52255" lon="15.76617">
        <ele>751</ele>
        <time>2016-07-31T22:35:58Z</time>
      </trkpt>
      <trkpt lat="44.52246" lon="15.76627">
        <ele>751</ele>
        <time>2016-07-31T22:37:58Z</time>
      </trkpt>
      <trkpt lat="44.52236" lon="15.76636">
        <ele>751</ele>
        <time>2016-07-31T22:39:58Z</time>
      </trkpt>
      <trkpt lat="44.52227" lon="15.76645">
        <ele>751</ele>
        <time>2016-07-31T22:41:58Z</time>
      </trkpt>
      <trkpt lat="44.52218" lon="15.76654">
        <ele>750</ele>
        <time>2016-07-31T22:43:58Z</time>
      </trkpt>
      <trkpt lat="44.52208" lon="15.76662">
        <ele>750</ele>
        <time>2016-07-31T22:45:58Z</time>
      </trkpt>
      <trkpt lat="44.52198" lon="15.7667">
        <ele>750</ele>
        <time>2016-07-31T22:47:58Z</time>
      </trkpt>
      <trkpt lat="44.52187" lon="15.76678">
        <ele>749</ele>
        <time>2016-07-31T22:49:58Z</time>
      </trkpt>
      <trkpt lat="44.52176" lon="15.76686">
        <ele>749</ele>
        <time>2016-07-31T22:51:58Z</time>
      </trkpt>
      <trkpt lat="44.52165" lon="15.76694">
        <ele>749</ele>
        <time>2016-07-31T22:53:58Z</time>
      </trkpt>
      <trkpt lat="44.52153" lon="15.76701">
        <ele>749</ele>
        <time>2016-07-31T22:55:58Z</time>
      </trkpt>
      <trkpt lat="44.52142" lon="15.76707">
        <ele>749</ele>
        <time>2016-07-31T22:57:58Z</time>
      </trkpt>
      <trkpt lat="44.5213" lon="15.76713">
        <ele>749</ele>
        <time>2016-07-31T22:59:58Z</time>
      </trkpt>
      <trkpt lat="44.52118" lon="15.76719">
        <ele>749</ele>
        <time>2016-07-31T23:01:58Z</time>
      </trkpt>
      <trkpt lat="44.52039" lon="15.76744">
        <ele>748</ele>
        <time>2016-07-31T23:03:58Z</time>
      </trkpt>
      <trkpt lat="44.52027" lon="15.76748">
        <ele>747</ele>
        <time>2016-07-31T23:05:58Z</time>
      </trkpt>
      <trkpt lat="44.52015" lon="15.76751">
        <ele>746</ele>
        <time>2016-07-31T23:07:58Z</time>
      </trkpt>
      <trkpt lat="44.52002" lon="15.76754">
        <ele>746</ele>
        <time>2016-07-31T23:09:58Z</time>
      </trkpt>
      <trkpt lat="44.51989" lon="15.76756">
        <ele>745</ele>
        <time>2016-07-31T23:11:58Z</time>
      </trkpt>
      <trkpt lat="44.51977" lon="15.76758">
        <ele>745</ele>
        <time>2016-07-31T23:13:58Z</time>
      </trkpt>
      <trkpt lat="44.51964" lon="15.76759">
        <ele>744</ele>
        <time>2016-07-31T23:15:58Z</time>
      </trkpt>
      <trkpt lat="44.51951" lon="15.7676">
        <ele>744</ele>
        <time>2016-07-31T23:17:58Z</time>
      </trkpt>
      <trkpt lat="44.51939" lon="15.76761">
        <ele>743</ele>
        <time>2016-07-31T23:19:58Z</time>
      </trkpt>
      <trkpt lat="44.51926" lon="15.76761">
        <ele>743</ele>
        <time>2016-07-31T23:21:58Z</time>
      </trkpt>
      <trkpt lat="44.51913" lon="15.7676">
        <ele>742</ele>
        <time>2016-07-31T23:23:58Z</time>
      </trkpt>
      <trkpt lat="44.51901" lon="15.7676">
        <ele>741</ele>
        <time>2016-07-31T23:25:58Z</time>
      </trkpt>
      <trkpt lat="44.51888" lon="15.76758">
        <ele>740</ele>
        <time>2016-07-31T23:27:58Z</time>
      </trkpt>
      <trkpt lat="44.51876" lon="15.76757">
        <ele>738</ele>
        <time>2016-07-31T23:29:58Z</time>
      </trkpt>
      <trkpt lat="44.5186" lon="15.76754">
        <ele>737</ele>
        <time>2016-07-31T23:31:58Z</time>
      </trkpt>
      <trkpt lat="44.51845" lon="15.7675">
        <ele>735</ele>
        <time>2016-07-31T23:33:58Z</time>
      </trkpt>
      <trkpt lat="44.5183" lon="15.76746">
        <ele>734</ele>
        <time>2016-07-31T23:35:58Z</time>
      </trkpt>
      <trkpt lat="44.51817" lon="15.76742">
        <ele>733</ele>
        <time>2016-07-31T23:37:58Z</time>
      </trkpt>
      <trkpt lat="44.51816" lon="15.76742">
        <ele>732</ele>
        <time>2016-07-31T23:39:58Z</time>
      </trkpt>
      <trkpt lat="44.51803" lon="15.76738">
        <ele>731</ele>
        <time>2016-07-31T23:41:58Z</time>
      </trkpt>
      <trkpt lat="44.5179" lon="15.76734">
        <ele>730</ele>
        <time>2016-07-31T23:43:58Z</time>
      </trkpt>
      <trkpt lat="44.51777" lon="15.76729">
        <ele>729</ele>
        <time>2016-07-31T23:45:58Z</time>
      </trkpt>
      <trkpt lat="44.51764" lon="15.76723">
        <ele>728</ele>
        <time>2016-07-31T23:47:58Z</time>
      </trkpt>
      <trkpt lat="44.51595" lon="15.76655">
        <ele>722</ele>
        <time>2016-07-31T23:49:58Z</time>
      </trkpt>
      <trkpt lat="44.51298" lon="15.76532">
        <ele>706</ele>
        <time>2016-07-31T23:51:58Z</time>
      </trkpt>
      <trkpt lat="44.51271" lon="15.76521">
        <ele>706</ele>
        <time>2016-07-31T23:53:58Z</time>
      </trkpt>
      <trkpt lat="44.50996" lon="15.76409">
        <ele>698</ele>
        <time>2016-07-31T23:55:58Z</time>
      </trkpt>
      <trkpt lat="44.50871" lon="15.76368">
        <ele>696</ele>
        <time>2016-07-31T23:57:58Z</time>
      </trkpt>
      <trkpt lat="44.50855" lon="15.76363">
        <ele>696</ele>
        <time>2016-07-31T23:59:58Z</time>
      </trkpt>
      <trkpt lat="44.50839" lon="15.76359">
        <ele>696</ele>
        <time>2016-08-01T00:01:58Z</time>
      </trkpt>
      <trkpt lat="44.50822" lon="15.76354">
        <ele>696</ele>
        <time>2016-08-01T00:03:58Z</time>
      </trkpt>
      <trkpt lat="44.50807" lon="15.7635">
        <ele>696</ele>
        <time>2016-08-01T00:05:58Z</time>
      </trkpt>
      <trkpt lat="44.50791" lon="15.76346">
        <ele>697</ele>
        <time>2016-08-01T00:07:58Z</time>
      </trkpt>
      <trkpt lat="44.50775" lon="15.76342">
        <ele>697</ele>
        <time>2016-08-01T00:09:58Z</time>
      </trkpt>
      <trkpt lat="44.50759" lon="15.76339">
        <ele>697</ele>
        <time>2016-08-01T00:11:58Z</time>
      </trkpt>
      <trkpt lat="44.50743" lon="15.76335">
        <ele>697</ele>
        <time>2016-08-01T00:13:58Z</time>
      </trkpt>
      <trkpt lat="44.50727" lon="15.76332">
        <ele>696</ele>
        <time>2016-08-01T00:15:58Z</time>
      </trkpt>
      <trkpt lat="44.50711" lon="15.76329">
        <ele>696</ele>
        <time>2016-08-01T00:17:58Z</time>
      </trkpt>
      <trkpt lat="44.50511" lon="15.76305">
        <ele>690</ele>
        <time>2016-08-01T00:19:58Z</time>
      </trkpt>
      <trkpt lat="44.50388" lon="15.76307">
        <ele>692</ele>
        <time>2016-08-01T00:21:58Z</time>
      </trkpt>
      <trkpt lat="44.50356" lon="15.76308">
        <ele>692</ele>
        <time>2016-08-01T00:23:58Z</time>
      </trkpt>
      <trkpt lat="44.5034" lon="15.76308">
        <ele>693</ele>
        <time>2016-08-01T00:25:58Z</time>
      </trkpt>
      <trkpt lat="44.50279" lon="15.76311">
        <ele>694</ele>
        <time>2016-08-01T00:27:58Z</time>
      </trkpt>
      <trkpt lat="44.50277" lon="15.76311">
        <ele>694</ele>
        <time>2016-08-01T00:29:58Z</time>
      </trkpt>
      <trkpt lat="44.50276" lon="15.76311">
        <ele>694</ele>
        <time>2016-08-01T00:31:58Z</time>
      </trkpt>
      <trkpt lat="44.50274" lon="15.7631">
        <ele>694</ele>
        <time>2016-08-01T00:33:58Z</time>
      </trkpt>
      <trkpt lat="44.50272" lon="15.7631">
        <ele>694</ele>
        <time>2016-08-01T00:35:58Z</time>
      </trkpt>
      <trkpt lat="44.50271" lon="15.76309">
        <ele>694</ele>
        <time>2016-08-01T00:37:58Z</time>
      </trkpt>
      <trkpt lat="44.50269" lon="15.76309">
        <ele>694</ele>
        <time>2016-08-01T00:39:58Z</time>
      </trkpt>
      <trkpt lat="44.50268" lon="15.76308">
        <ele>694</ele>
        <time>2016-08-01T00:41:58Z</time>
      </trkpt>
      <trkpt lat="44.50266" lon="15.76307">
        <ele>694</ele>
        <time>2016-08-01T00:43:58Z</time>
      </trkpt>
      <trkpt lat="44.50264" lon="15.76306">
        <ele>694</ele>
        <time>2016-08-01T00:45:58Z</time>
      </trkpt>
      <trkpt lat="44.50263" lon="15.76305">
        <ele>694</ele>
        <time>2016-08-01T00:47:58Z</time>
      </trkpt>
      <trkpt lat="44.50262" lon="15.76304">
        <ele>694</ele>
        <time>2016-08-01T00:49:58Z</time>
      </trkpt>
      <trkpt lat="44.5026" lon="15.76303">
        <ele>694</ele>
        <time>2016-08-01T00:51:58Z</time>
      </trkpt>
      <trkpt lat="44.50259" lon="15.76302">
        <ele>694</ele>
        <time>2016-08-01T00:53:58Z</time>
      </trkpt>
      <trkpt lat="44.50257" lon="15.763">
        <ele>694</ele>
        <time>2016-08-01T00:55:58Z</time>
      </trkpt>
      <trkpt lat="44.50256" lon="15.76299">
        <ele>694</ele>
        <time>2016-08-01T00:57:58Z</time>
      </trkpt>
      <trkpt lat="44.50255" lon="15.76297">
        <ele>694</ele>
        <time>2016-08-01T00:59:58Z</time>
      </trkpt>
      <trkpt lat="44.50254" lon="15.76295">
        <ele>694</ele>
        <time>2016-08-01T01:01:58Z</time>
      </trkpt>
      <trkpt lat="44.50233" lon="15.76273">
        <ele>693</ele>
        <time>2016-08-01T01:03:58Z</time>
      </trkpt>
      <trkpt lat="44.50233" lon="15.76273">
        <ele>693</ele>
        <time>2016-08-01T01:05:58Z</time>
      </trkpt>
      <trkpt lat="44.50222" lon="15.7626">
        <ele>692</ele>
        <time>2016-08-01T01:07:58Z</time>
      </trkpt>
      <trkpt lat="44.50253" lon="15.76232">
        <ele>692</ele>
        <time>2016-08-01T01:09:58Z</time>
      </trkpt>
      <trkpt lat="44.50286" lon="15.76203">
        <ele>691</ele>
        <time>2016-08-01T01:11:58Z</time>
      </trkpt>
      <trkpt lat="44.5032" lon="15.76168">
        <ele>690</ele>
        <time>2016-08-01T01:13:58Z</time>
      </trkpt>
      <trkpt lat="44.50333" lon="15.76154">
        <ele>690</ele>
        <time>2016-08-01T01:15:58Z</time>
      </trkpt>
      <trkpt lat="44.50338" lon="15.76149">
        <ele>690</ele>
        <time>2016-08-01T01:17:58Z</time>
      </trkpt>
      <trkpt lat="44.50345" lon="15.76138">
        <ele>689</ele>
        <time>2016-08-01T01:19:58Z</time>
      </trkpt>
      <trkpt lat="44.50351" lon="15.76131">
        <ele>689</ele>
        <time>2016-08-01T01:21:58Z</time>
      </trkpt>
      <trkpt lat="44.50371" lon="15.76107">
        <ele>689</ele>
        <time>2016-08-01T01:23:58Z</time>
      </trkpt>
      <trkpt lat="44.50404" lon="15.76061">
        <ele>689</ele>
        <time>2016-08-01T01:25:58Z</time>
      </trkpt>
      <trkpt lat="44.50435" lon="15.76014">
        <ele>690</ele>
        <time>2016-08-01T01:27:58Z</time>
      </trkpt>
      <trkpt lat="44.50478" lon="15.75937">
        <ele>693</ele>
        <time>2016-08-01T01:29:58Z</time>
      </trkpt>
      <trkpt lat="44.50504" lon="15.75881">
        <ele>694</ele>
        <time>2016-08-01T01:31:58Z</time>
      </trkpt>
      <trkpt lat="44.5053" lon="15.75824">
        <ele>693</ele>
        <time>2016-08-01T01:33:58Z</time>
      </trkpt>
      <trkpt lat="44.50563" lon="15.75736">
        <ele>695</ele>
        <time>2016-08-01T01:35:58Z</time>
      </trkpt>
      <trkpt lat="44.50573" lon="15.75706">
        <ele>696</ele>
        <time>2016-08-01T01:37:58Z</time>
      </trkpt>
      <trkpt lat="44.506" lon="15.75613">
        <ele>701</ele>
        <time>2016-08-01T01:39:58Z</time>
      </trkpt>
      <trkpt lat="44.50623" lon="15.75458">
        <ele>709</ele>
        <time>2016-08-01T01:41:58Z</time>
      </trkpt>
      <trkpt lat="44.50634" lon="15.75368">
        <ele>710</ele>
        <time>2016-08-01T01:43:58Z</time>
      </trkpt>
      <trkpt lat="44.50635" lon="15.75352">
        <ele>710</ele>
        <time>2016-08-01T01:45:58Z</time>
      </trkpt>
      <trkpt lat="44.5064" lon="15.75252">
        <ele>715</ele>
        <time>2016-08-01T01:47:58Z</time>
      </trkpt>
      <trkpt lat="44.50645" lon="15.75193">
        <ele>716</ele>
        <time>2016-08-01T01:49:58Z</time>
      </trkpt>
      <trkpt lat="44.50645" lon="15.75191">
        <ele>716</ele>
        <time>2016-08-01T01:51:58Z</time>
      </trkpt>
      <trkpt lat="44.50654" lon="15.75118">
        <ele>715</ele>
        <time>2016-08-01T01:53:58Z</time>
      </trkpt>
      <trkpt lat="44.50665" lon="15.75076">
        <ele>713</ele>
        <time>2016-08-01T01:55:58Z</time>
      </trkpt>
      <trkpt lat="44.50696" lon="15.74972">
        <ele>710</ele>
        <time>2016-08-01T01:57:58Z</time>
      </trkpt>
      <trkpt lat="44.50696" lon="15.74972">
        <ele>710</ele>
        <time>2016-08-01T01:59:58Z</time>
      </trkpt>
      <trkpt lat="44.50714" lon="15.74895">
        <ele>710</ele>
        <time>2016-08-01T02:01:58Z</time>
      </trkpt>
      <trkpt lat="44.50722" lon="15.74852">
        <ele>711</ele>
        <time>2016-08-01T02:03:58Z</time>
      </trkpt>
      <trkpt lat="44.50731" lon="15.74763">
        <ele>713</ele>
        <time>2016-08-01T02:05:58Z</time>
      </trkpt>
      <trkpt lat="44.50737" lon="15.7469">
        <ele>712</ele>
        <time>2016-08-01T02:07:58Z</time>
      </trkpt>
      <trkpt lat="44.50747" lon="15.74624">
        <ele>711</ele>
        <time>2016-08-01T02:09:58Z</time>
      </trkpt>
      <trkpt lat="44.50753" lon="15.74589">
        <ele>711</ele>
        <time>2016-08-01T02:11:58Z</time>
      </trkpt>
      <trkpt lat="44.50763" lon="15.74563">
        <ele>711</ele>
        <time>2016-08-01T02:13:58Z</time>
      </trkpt>
      <trkpt lat="44.50766" lon="15.74558">
        <ele>711</ele>
        <time>2016-08-01T02:15:58Z</time>
      </trkpt>
      <trkpt lat="44.50775" lon="15.74536">
        <ele>711</ele>
        <time>2016-08-01T02:17:58Z</time>
      </trkpt>
      <trkpt lat="44.50789" lon="15.74515">
        <ele>711</ele>
        <time>2016-08-01T02:19:58Z</time>
      </trkpt>
      <trkpt lat="44.50805" lon="15.74499">
        <ele>710</ele>
        <time>2016-08-01T02:21:58Z</time>
      </trkpt>
      <trkpt lat="44.50819" lon="15.74492">
        <ele>710</ele>
        <time>2016-08-01T02:23:58Z</time>
      </trkpt>
      <trkpt lat="44.50832" lon="15.74492">
        <ele>710</ele>
        <time>2016-08-01T02:25:58Z</time>
      </trkpt>
      <trkpt lat="44.50843" lon="15.74493">
        <ele>710</ele>
        <time>2016-08-01T02:27:58Z</time>
      </trkpt>
      <trkpt lat="44.50851" lon="15.74495">
        <ele>710</ele>
        <time>2016-08-01T02:29:58Z</time>
      </trkpt>
      <trkpt lat="44.50857" lon="15.74499">
        <ele>711</ele>
        <time>2016-08-01T02:31:58Z</time>
      </trkpt>
      <trkpt lat="44.50862" lon="15.74503">
        <ele>711</ele>
        <time>2016-08-01T02:33:58Z</time>
      </trkpt>
      <trkpt lat="44.50871" lon="15.74511">
        <ele>711</ele>
        <time>2016-08-01T02:35:58Z</time>
      </trkpt>
      <trkpt lat="44.50875" lon="15.74521">
        <ele>712</ele>
        <time>2016-08-01T02:37:58Z</time>
      </trkpt>
      <trkpt lat="44.50877" lon="15.74527">
        <ele>712</ele>
        <time>2016-08-01T02:39:58Z</time>
      </trkpt>
      <trkpt lat="44.5088" lon="15.74537">
        <ele>712</ele>
        <time>2016-08-01T02:41:58Z</time>
      </trkpt>
      <trkpt lat="44.50882" lon="15.74547">
        <ele>712</ele>
        <time>2016-08-01T02:43:58Z</time>
      </trkpt>
      <trkpt lat="44.50882" lon="15.74556">
        <ele>712</ele>
        <time>2016-08-01T02:45:58Z</time>
      </trkpt>
      <trkpt lat="44.50882" lon="15.74561">
        <ele>713</ele>
        <time>2016-08-01T02:47:58Z</time>
      </trkpt>
      <trkpt lat="44.50881" lon="15.74569">
        <ele>713</ele>
        <time>2016-08-01T02:49:58Z</time>
      </trkpt>
      <trkpt lat="44.50879" lon="15.74578">
        <ele>713</ele>
        <time>2016-08-01T02:51:58Z</time>
      </trkpt>
      <trkpt lat="44.50878" lon="15.74582">
        <ele>713</ele>
        <time>2016-08-01T02:53:58Z</time>
      </trkpt>
      <trkpt lat="44.50875" lon="15.74589">
        <ele>713</ele>
        <time>2016-08-01T02:55:58Z</time>
      </trkpt>
      <trkpt lat="44.50871" lon="15.74596">
        <ele>713</ele>
        <time>2016-08-01T02:57:58Z</time>
      </trkpt>
      <trkpt lat="44.50869" lon="15.74599">
        <ele>713</ele>
        <time>2016-08-01T02:59:58Z</time>
      </trkpt>
      <trkpt lat="44.50858" lon="15.74613">
        <ele>713</ele>
        <time>2016-08-01T03:01:58Z</time>
      </trkpt>
      <trkpt lat="44.50837" lon="15.74633">
        <ele>713</ele>
        <time>2016-08-01T03:03:58Z</time>
      </trkpt>
      <trkpt lat="44.50819" lon="15.7464">
        <ele>713</ele>
        <time>2016-08-01T03:05:58Z</time>
      </trkpt>
      <trkpt lat="44.50767" lon="15.74654">
        <ele>712</ele>
        <time>2016-08-01T03:07:58Z</time>
      </trkpt>
      <trkpt lat="44.50744" lon="15.7466">
        <ele>712</ele>
        <time>2016-08-01T03:09:58Z</time>
      </trkpt>
      <trkpt lat="44.50723" lon="15.74664">
        <ele>712</ele>
        <time>2016-08-01T03:11:58Z</time>
      </trkpt>
      <trkpt lat="44.50695" lon="15.74671">
        <ele>713</ele>
        <time>2016-08-01T03:13:58Z</time>
      </trkpt>
      <trkpt lat="44.50672" lon="15.74676">
        <ele>713</ele>
        <time>2016-08-01T03:15:58Z</time>
      </trkpt>
      <trkpt lat="44.50624" lon="15.74683">
        <ele>711</ele>
        <time>2016-08-01T03:17:58Z</time>
      </trkpt>
      <trkpt lat="44.50552" lon="15.74688">
        <ele>709</ele>
        <time>2016-08-01T03:19:58Z</time>
      </trkpt>
      <trkpt lat="44.50494" lon="15.74693">
        <ele>708</ele>
        <time>2016-08-01T03:21:58Z</time>
      </trkpt>
      <trkpt lat="44.50464" lon="15.74696">
        <ele>711</ele>
        <time>2016-08-01T03:23:58Z</time>
      </trkpt>
      <trkpt lat="44.50408" lon="15.74695">
        <ele>718</ele>
        <time>2016-08-01T03:25:58Z</time>
      </trkpt>
      <trkpt lat="44.50405" lon="15.74695">
        <ele>718</ele>
        <time>2016-08-01T03:27:58Z</time>
      </trkpt>
      <trkpt lat="44.50329" lon="15.74692">
        <ele>725</ele>
        <time>2016-08-01T03:29:58Z</time>
      </trkpt>
      <trkpt lat="44.50191" lon="15.74676">
        <ele>721</ele>
        <time>2016-08-01T03:31:58Z</time>
      </trkpt>
      <trkpt lat="44.50061" lon="15.74654">
        <ele>715</ele>
        <time>2016-08-01T03:33:58Z</time>
      </trkpt>
      <trkpt lat="44.50002" lon="15.74647">
        <ele>715</ele>
        <time>2016-08-01T03:35:58Z</time>
      </trkpt>
      <trkpt lat="44.49944" lon="15.74645">
        <ele>716</ele>
        <time>2016-08-01T03:37:58Z</time>
      </trkpt>
      <trkpt lat="44.49886" lon="15.74646">
        <ele>717</ele>
        <time>2016-08-01T03:39:58Z</time>
      </trkpt>
      <trkpt lat="44.49829" lon="15.7465">
        <ele>717</ele>
        <time>2016-08-01T03:41:58Z</time>
      </trkpt>
      <trkpt lat="44.49747" lon="15.74656">
        <ele>715</ele>
        <time>2016-08-01T03:43:58Z</time>
      </trkpt>
      <trkpt lat="44.49723" lon="15.74657">
        <ele>715</ele>
        <time>2016-08-01T03:45:58Z</time>
      </trkpt>
      <trkpt lat="44.497" lon="15.74657">
        <ele>715</ele>
        <time>2016-08-01T03:47:58Z</time>
      </trkpt>
      <trkpt lat="44.49678" lon="15.74657">
        <ele>715</ele>
        <time>2016-08-01T03:49:58Z</time>
      </trkpt>
      <trkpt lat="44.49663" lon="15.74655">
        <ele>715</ele>
        <time>2016-08-01T03:51:58Z</time>
      </trkpt>
      <trkpt lat="44.49656" lon="15.74654">
        <ele>716</ele>
        <time>2016-08-01T03:53:58Z</time>
      </trkpt>
      <trkpt lat="44.49656" lon="15.74654">
        <ele>716</ele>
        <time>2016-08-01T03:55:58Z</time>
      </trkpt>
      <trkpt lat="44.49637" lon="15.74643">
        <ele>717</ele>
        <time>2016-08-01T03:57:58Z</time>
      </trkpt>
      <trkpt lat="44.49621" lon="15.74633">
        <ele>717</ele>
        <time>2016-08-01T03:59:58Z</time>
      </trkpt>
      <trkpt lat="44.49605" lon="15.74622">
        <ele>718</ele>
        <time>2016-08-01T04:01:58Z</time>
      </trkpt>
      <trkpt lat="44.49533" lon="15.74564">
        <ele>723</ele>
        <time>2016-08-01T04:03:58Z</time>
      </trkpt>
      <trkpt lat="44.49517" lon="15.74553">
        <ele>724</ele>
        <time>2016-08-01T04:05:58Z</time>
      </trkpt>
      <trkpt lat="44.49492" lon="15.74536">
        <ele>725</ele>
        <time>2016-08-01T04:07:58Z</time>
      </trkpt>
      <trkpt lat="44.49462" lon="15.74521">
        <ele>726</ele>
        <time>2016-08-01T04:09:58Z</time>
      </trkpt>
      <trkpt lat="44.4943" lon="15.74507">
        <ele>726</ele>
        <time>2016-08-01T04:11:58Z</time>
      </trkpt>
      <trkpt lat="44.49348" lon="15.74474">
        <ele>728</ele>
        <time>2016-08-01T04:13:58Z</time>
      </trkpt>
      <trkpt lat="44.49332" lon="15.74466">
        <ele>729</ele>
        <time>2016-08-01T04:15:58Z</time>
      </trkpt>
      <trkpt lat="44.49317" lon="15.74457">
        <ele>728</ele>
        <time>2016-08-01T04:17:58Z</time>
      </trkpt>
      <trkpt lat="44.49302" lon="15.74445">
        <ele>728</ele>
        <time>2016-08-01T04:19:58Z</time>
      </trkpt>
      <trkpt lat="44.49287" lon="15.74431">
        <ele>728</ele>
        <time>2016-08-01T04:21:58Z</time>
      </trkpt>
      <trkpt lat="44.49273" lon="15.74415">
        <ele>728</ele>
        <time>2016-08-01T04:23:58Z</time>
      </trkpt>
      <trkpt lat="44.49261" lon="15.74397">
        <ele>729</ele>
        <time>2016-08-01T04:25:58Z</time>
      </trkpt>
      <trkpt lat="44.49227" lon="15.74345">
        <ele>731</ele>
        <time>2016-08-01T04:27:58Z</time>
      </trkpt>
      <trkpt lat="44.49215" lon="15.7433">
        <ele>732</ele>
        <time>2016-08-01T04:29:58Z</time>
      </trkpt>
      <trkpt lat="44.49203" lon="15.74318">
        <ele>732</ele>
        <time>2016-08-01T04:31:58Z</time>
      </trkpt>
      <trkpt lat="44.49191" lon="15.74307">
        <ele>732</ele>
        <time>2016-08-01T04:33:58Z</time>
      </trkpt>
      <trkpt lat="44.49166" lon="15.74286">
        <ele>731</ele>
        <time>2016-08-01T04:35:58Z</time>
      </trkpt>
      <trkpt lat="44.49142" lon="15.74261">
        <ele>732</ele>
        <time>2016-08-01T04:37:58Z</time>
      </trkpt>
      <trkpt lat="44.49131" lon="15.74246">
        <ele>732</ele>
        <time>2016-08-01T04:39:58Z</time>
      </trkpt>
      <trkpt lat="44.49109" lon="15.74209">
        <ele>731</ele>
        <time>2016-08-01T04:41:58Z</time>
      </trkpt>
      <trkpt lat="44.49064" lon="15.74126">
        <ele>732</ele>
        <time>2016-08-01T04:43:58Z</time>
      </trkpt>
      <trkpt lat="44.49044" lon="15.74085">
        <ele>734</ele>
        <time>2016-08-01T04:45:58Z</time>
      </trkpt>
      <trkpt lat="44.49034" lon="15.74064">
        <ele>735</ele>
        <time>2016-08-01T04:47:58Z</time>
      </trkpt>
      <trkpt lat="44.49034" lon="15.74062">
        <ele>735</ele>
        <time>2016-08-01T04:49:58Z</time>
      </trkpt>
      <trkpt lat="44.49026" lon="15.74041">
        <ele>736</ele>
        <time>2016-08-01T04:51:58Z</time>
      </trkpt>
      <trkpt lat="44.49005" lon="15.73974">
        <ele>737</ele>
        <time>2016-08-01T04:53:58Z</time>
      </trkpt>
      <trkpt lat="44.48997" lon="15.73952">
        <ele>736</ele>
        <time>2016-08-01T04:55:58Z</time>
      </trkpt>
      <trkpt lat="44.48988" lon="15.73933">
        <ele>736</ele>
        <time>2016-08-01T04:57:58Z</time>
      </trkpt>
      <trkpt lat="44.48976" lon="15.73915">
        <ele>735</ele>
        <time>2016-08-01T04:59:58Z</time>
      </trkpt>
      <trkpt lat="44.48938" lon="15.73867">
        <ele>733</ele>
        <time>2016-08-01T05:01:58Z</time>
      </trkpt>
      <trkpt lat="44.48926" lon="15.7385">
        <ele>732</ele>
        <time>2016-08-01T05:03:58Z</time>
      </trkpt>
      <trkpt lat="44.48904" lon="15.73814">
        <ele>731</ele>
        <time>2016-08-01T05:05:58Z</time>
      </trkpt>
      <trkpt lat="44.48862" lon="15.73739">
        <ele>731</ele>
        <time>2016-08-01T05:07:58Z</time>
      </trkpt>
      <trkpt lat="44.48851" lon="15.7372">
        <ele>732</ele>
        <time>2016-08-01T05:09:58Z</time>
      </trkpt>
      <trkpt lat="44.48838" lon="15.73702">
        <ele>733</ele>
        <time>2016-08-01T05:11:58Z</time>
      </trkpt>
      <trkpt lat="44.48824" lon="15.73687">
        <ele>733</ele>
        <time>2016-08-01T05:13:58Z</time>
      </trkpt>
      <trkpt lat="44.48809" lon="15.73674">
        <ele>734</ele>
        <time>2016-08-01T05:15:58Z</time>
      </trkpt>
      <trkpt lat="44.48794" lon="15.73664">
        <ele>734</ele>
        <time>2016-08-01T05:17:58Z</time>
      </trkpt>
      <trkpt lat="44.48752" lon="15.73642">
        <ele>737</ele>
        <time>2016-08-01T05:19:58Z</time>
      </trkpt>
      <trkpt lat="44.48713" lon="15.73622">
        <ele>738</ele>
        <time>2016-08-01T05:21:58Z</time>
      </trkpt>
      <trkpt lat="44.48684" lon="15.73602">
        <ele>740</ele>
        <time>2016-08-01T05:23:58Z</time>
      </trkpt>
      <trkpt lat="44.4867" lon="15.73589">
        <ele>741</ele>
        <time>2016-08-01T05:25:58Z</time>
      </trkpt>
      <trkpt lat="44.48657" lon="15.73574">
        <ele>742</ele>
        <time>2016-08-01T05:27:58Z</time>
      </trkpt>
      <trkpt lat="44.48645" lon="15.73559">
        <ele>743</ele>
        <time>2016-08-01T05:29:58Z</time>
      </trkpt>
      <trkpt lat="44.48597" lon="15.7349">
        <ele>747</ele>
        <time>2016-08-01T05:31:58Z</time>
      </trkpt>
      <trkpt lat="44.48573" lon="15.73457">
        <ele>749</ele>
        <time>2016-08-01T05:33:58Z</time>
      </trkpt>
      <trkpt lat="44.48564" lon="15.73442">
        <ele>749</ele>
        <time>2016-08-01T05:35:58Z</time>
      </trkpt>
      <trkpt lat="44.48556" lon="15.73427">
        <ele>749</ele>
        <time>2016-08-01T05:37:58Z</time>
      </trkpt>
      <trkpt lat="44.48534" lon="15.73374">
        <ele>749</ele>
        <time>2016-08-01T05:39:58Z</time>
      </trkpt>
      <trkpt lat="44.48522" lon="15.73341">
        <ele>748</ele>
        <time>2016-08-01T05:41:58Z</time>
      </trkpt>
      <trkpt lat="44.48512" lon="15.73316">
        <ele>747</ele>
        <time>2016-08-01T05:43:58Z</time>
      </trkpt>
      <trkpt lat="44.48503" lon="15.73296">
        <ele>747</ele>
        <time>2016-08-01T05:45:58Z</time>
      </trkpt>
      <trkpt lat="44.48495" lon="15.73276">
        <ele>747</ele>
        <time>2016-08-01T05:47:58Z</time>
      </trkpt>
      <trkpt lat="44.48486" lon="15.73257">
        <ele>747</ele>
        <time>2016-08-01T05:49:58Z</time>
      </trkpt>
      <trkpt lat="44.48476" lon="15.73238">
        <ele>747</ele>
        <time>2016-08-01T05:51:58Z</time>
      </trkpt>
      <trkpt lat="44.48465" lon="15.7322">
        <ele>747</ele>
        <time>2016-08-01T05:53:58Z</time>
      </trkpt>
      <trkpt lat="44.48453" lon="15.73204">
        <ele>747</ele>
        <time>2016-08-01T05:55:58Z</time>
      </trkpt>
      <trkpt lat="44.48448" lon="15.73199">
        <ele>746</ele>
        <time>2016-08-01T05:57:58Z</time>
      </trkpt>
      <trkpt lat="44.48439" lon="15.7319">
        <ele>746</ele>
        <time>2016-08-01T05:59:58Z</time>
      </trkpt>
      <trkpt lat="44.48425" lon="15.73176">
        <ele>745</ele>
        <time>2016-08-01T06:01:58Z</time>
      </trkpt>
      <trkpt lat="44.4841" lon="15.73165">
        <ele>745</ele>
        <time>2016-08-01T06:03:58Z</time>
      </trkpt>
      <trkpt lat="44.48394" lon="15.73155">
        <ele>744</ele>
        <time>2016-08-01T06:05:58Z</time>
      </trkpt>
      <trkpt lat="44.48377" lon="15.73146">
        <ele>743</ele>
        <time>2016-08-01T06:07:58Z</time>
      </trkpt>
      <trkpt lat="44.48307" lon="15.73114">
        <ele>738</ele>
        <time>2016-08-01T06:09:58Z</time>
      </trkpt>
      <trkpt lat="44.48229" lon="15.73079">
        <ele>729</ele>
        <time>2016-08-01T06:11:58Z</time>
      </trkpt>
      <trkpt lat="44.48167" lon="15.7305">
        <ele>719</ele>
        <time>2016-08-01T06:13:58Z</time>
      </trkpt>
      <trkpt lat="44.48147" lon="15.73041">
        <ele>717</ele>
        <time>2016-08-01T06:15:58Z</time>
      </trkpt>
      <trkpt lat="44.48128" lon="15.73031">
        <ele>716</ele>
        <time>2016-08-01T06:17:58Z</time>
      </trkpt>
      <trkpt lat="44.4811" lon="15.7302">
        <ele>715</ele>
        <time>2016-08-01T06:19:58Z</time>
      </trkpt>
      <trkpt lat="44.48093" lon="15.73007">
        <ele>714</ele>
        <time>2016-08-01T06:21:58Z</time>
      </trkpt>
      <trkpt lat="44.48077" lon="15.72991">
        <ele>713</ele>
        <time>2016-08-01T06:23:58Z</time>
      </trkpt>
      <trkpt lat="44.48062" lon="15.72973">
        <ele>710</ele>
        <time>2016-08-01T06:25:58Z</time>
      </trkpt>
      <trkpt lat="44.48048" lon="15.72952">
        <ele>708</ele>
        <time>2016-08-01T06:27:58Z</time>
      </trkpt>
      <trkpt lat="44.48037" lon="15.72929">
        <ele>706</ele>
        <time>2016-08-01T06:29:58Z</time>
      </trkpt>
      <trkpt lat="44.48026" lon="15.72903">
        <ele>704</ele>
        <time>2016-08-01T06:31:58Z</time>
      </trkpt>
      <trkpt lat="44.48017" lon="15.72876">
        <ele>703</ele>
        <time>2016-08-01T06:33:58Z</time>
      </trkpt>
      <trkpt lat="44.48002" lon="15.72825">
        <ele>701</ele>
        <time>2016-08-01T06:35:58Z</time>
      </trkpt>
      <trkpt lat="44.47993" lon="15.72796">
        <ele>700</ele>
        <time>2016-08-01T06:37:58Z</time>
      </trkpt>
      <trkpt lat="44.47985" lon="15.72771">
        <ele>698</ele>
        <time>2016-08-01T06:39:58Z</time>
      </trkpt>
      <trkpt lat="44.47976" lon="15.72746">
        <ele>697</ele>
        <time>2016-08-01T06:41:58Z</time>
      </trkpt>
      <trkpt lat="44.47967" lon="15.72722">
        <ele>695</ele>
        <time>2016-08-01T06:43:58Z</time>
      </trkpt>
      <trkpt lat="44.47957" lon="15.72699">
        <ele>693</ele>
        <time>2016-08-01T06:45:58Z</time>
      </trkpt>
      <trkpt lat="44.47944" lon="15.72678">
        <ele>691</ele>
        <time>2016-08-01T06:47:58Z</time>
      </trkpt>
      <trkpt lat="44.47936" lon="15.72664">
        <ele>690</ele>
        <time>2016-08-01T06:49:58Z</time>
      </trkpt>
      <trkpt lat="44.47928" lon="15.72653">
        <ele>690</ele>
        <time>2016-08-01T06:51:58Z</time>
      </trkpt>
      <trkpt lat="44.47919" lon="15.72643">
        <ele>689</ele>
        <time>2016-08-01T06:53:58Z</time>
      </trkpt>
      <trkpt lat="44.47902" lon="15.72623">
        <ele>688</ele>
        <time>2016-08-01T06:55:58Z</time>
      </trkpt>
      <trkpt lat="44.47884" lon="15.72604">
        <ele>688</ele>
        <time>2016-08-01T06:57:58Z</time>
      </trkpt>
      <trkpt lat="44.47865" lon="15.72585">
        <ele>687</ele>
        <time>2016-08-01T06:59:58Z</time>
      </trkpt>
      <trkpt lat="44.47855" lon="15.72576">
        <ele>686</ele>
        <time>2016-08-01T07:01:58Z</time>
      </trkpt>
      <trkpt lat="44.47844" lon="15.72566">
        <ele>686</ele>
        <time>2016-08-01T07:03:58Z</time>
      </trkpt>
      <trkpt lat="44.47834" lon="15.72558">
        <ele>685</ele>
        <time>2016-08-01T07:05:58Z</time>
      </trkpt>
      <trkpt lat="44.47823" lon="15.72549">
        <ele>685</ele>
        <time>2016-08-01T07:07:58Z</time>
      </trkpt>
      <trkpt lat="44.47822" lon="15.72549">
        <ele>685</ele>
        <time>2016-08-01T07:09:58Z</time>
      </trkpt>
      <trkpt lat="44.47797" lon="15.7253">
        <ele>685</ele>
        <time>2016-08-01T07:11:58Z</time>
      </trkpt>
      <trkpt lat="44.47772" lon="15.72509">
        <ele>685</ele>
        <time>2016-08-01T07:13:58Z</time>
      </trkpt>
      <trkpt lat="44.47748" lon="15.72487">
        <ele>684</ele>
        <time>2016-08-01T07:15:58Z</time>
      </trkpt>
      <trkpt lat="44.47725" lon="15.72466">
        <ele>684</ele>
        <time>2016-08-01T07:17:58Z</time>
      </trkpt>
      <trkpt lat="44.47714" lon="15.72456">
        <ele>684</ele>
        <time>2016-08-01T07:19:58Z</time>
      </trkpt>
      <trkpt lat="44.47693" lon="15.72434">
        <ele>683</ele>
        <time>2016-08-01T07:21:58Z</time>
      </trkpt>
      <trkpt lat="44.47647" lon="15.72383">
        <ele>681</ele>
        <time>2016-08-01T07:23:58Z</time>
      </trkpt>
      <trkpt lat="44.4761" lon="15.72343">
        <ele>681</ele>
        <time>2016-08-01T07:25:58Z</time>
      </trkpt>
      <trkpt lat="44.47594" lon="15.72326">
        <ele>681</ele>
        <time>2016-08-01T07:27:58Z</time>
      </trkpt>
      <trkpt lat="44.47591" lon="15.72323">
        <ele>681</ele>
        <time>2016-08-01T07:29:58Z</time>
      </trkpt>
      <trkpt lat="44.47584" lon="15.72319">
        <ele>681</ele>
        <time>2016-08-01T07:31:58Z</time>
      </trkpt>
      <trkpt lat="44.4757" lon="15.72311">
        <ele>681</ele>
        <time>2016-08-01T07:33:58Z</time>
      </trkpt>
      <trkpt lat="44.47556" lon="15.72304">
        <ele>681</ele>
        <time>2016-08-01T07:35:58Z</time>
      </trkpt>
      <trkpt lat="44.47541" lon="15.72299">
        <ele>680</ele>
        <time>2016-08-01T07:37:58Z</time>
      </trkpt>
      <trkpt lat="44.47534" lon="15.72296">
        <ele>680</ele>
        <time>2016-08-01T07:39:58Z</time>
      </trkpt>
      <trkpt lat="44.47518" lon="15.72292">
        <ele>680</ele>
        <time>2016-08-01T07:41:58Z</time>
      </trkpt>
      <trkpt lat="44.47506" lon="15.7229">
        <ele>680</ele>
        <time>2016-08-01T07:43:58Z</time>
      </trkpt>
      <trkpt lat="44.47503" lon="15.72289">
        <ele>680</ele>
        <time>2016-08-01T07:45:58Z</time>
      </trkpt>
      <trkpt lat="44.47487" lon="15.72288">
        <ele>680</ele>
        <time>2016-08-01T07:47:58Z</time>
      </trkpt>
      <trkpt lat="44.47466" lon="15.72292">
        <ele>679</ele>
        <time>2016-08-01T07:49:58Z</time>
      </trkpt>
      <trkpt lat="44.47446" lon="15.72294">
        <ele>678</ele>
        <time>2016-08-01T07:51:58Z</time>
      </trkpt>
      <trkpt lat="44.47427" lon="15.72295">
        <ele>678</ele>
        <time>2016-08-01T07:53:58Z</time>
      </trkpt>
      <trkpt lat="44.47418" lon="15.72295">
        <ele>678</ele>
        <time>2016-08-01T07:55:58Z</time>
      </trkpt>
      <trkpt lat="44.47408" lon="15.72294">
        <ele>677</ele>
        <time>2016-08-01T07:57:58Z</time>
      </trkpt>
      <trkpt lat="44.47403" lon="15.72293">
        <ele>677</ele>
        <time>2016-08-01T07:59:58Z</time>
      </trkpt>
      <trkpt lat="44.47393" lon="15.7229">
        <ele>677</ele>
        <time>2016-08-01T08:01:58Z</time>
      </trkpt>
      <trkpt lat="44.47383" lon="15.72285">
        <ele>677</ele>
        <time>2016-08-01T08:03:58Z</time>
      </trkpt>
      <trkpt lat="44.47373" lon="15.7228">
        <ele>676</ele>
        <time>2016-08-01T08:05:58Z</time>
      </trkpt>
      <trkpt lat="44.47369" lon="15.72277">
        <ele>676</ele>
        <time>2016-08-01T08:07:58Z</time>
      </trkpt>
      <trkpt lat="44.47364" lon="15.72273">
        <ele>676</ele>
        <time>2016-08-01T08:09:58Z</time>
      </trkpt>
      <trkpt lat="44.47359" lon="15.72269">
        <ele>676</ele>
        <time>2016-08-01T08:11:58Z</time>
      </trkpt>
      <trkpt lat="44.47355" lon="15.72264">
        <ele>675</ele>
        <time>2016-08-01T08:13:58Z</time>
      </trkpt>
      <trkpt lat="44.4735" lon="15.72259">
        <ele>675</ele>
        <time>2016-08-01T08:15:58Z</time>
      </trkpt>
      <trkpt lat="44.47346" lon="15.72254">
        <ele>675</ele>
        <time>2016-08-01T08:17:58Z</time>
      </trkpt>
      <trkpt lat="44.47342" lon="15.72249">
        <ele>674</ele>
        <time>2016-08-01T08:19:58Z</time>
      </trkpt>
      <trkpt lat="44.47338" lon="15.72243">
        <ele>674</ele>
        <time>2016-08-01T08:21:58Z</time>
      </trkpt>
      <trkpt lat="44.47334" lon="15.72237">
        <ele>674</ele>
        <time>2016-08-01T08:23:58Z</time>
      </trkpt>
      <trkpt lat="44.47319" lon="15.72209">
        <ele>673</ele>
        <time>2016-08-01T08:25:58Z</time>
      </trkpt>
      <trkpt lat="44.47291" lon="15.72156">
        <ele>672</ele>
        <time>2016-08-01T08:27:58Z</time>
      </trkpt>
      <trkpt lat="44.47275" lon="15.72125">
        <ele>671</ele>
        <time>2016-08-01T08:29:58Z</time>
      </trkpt>
      <trkpt lat="44.47244" lon="15.72064">
        <ele>670</ele>
        <time>2016-08-01T08:31:58Z</time>
      </trkpt>
      <trkpt lat="44.47226" lon="15.72031">
        <ele>670</ele>
        <time>2016-08-01T08:33:58Z</time>
      </trkpt>
      <trkpt lat="44.47216" lon="15.72014">
        <ele>670</ele>
        <time>2016-08-01T08:35:58Z</time>
      </trkpt>
      <trkpt lat="44.47194" lon="15.71978">
        <ele>670</ele>
        <time>2016-08-01T08:37:58Z</time>
      </trkpt>
      <trkpt lat="44.47182" lon="15.71958">
        <ele>670</ele>
        <time>2016-08-01T08:39:58Z</time>
      </trkpt>
      <trkpt lat="44.47156" lon="15.71919">
        <ele>670</ele>
        <time>2016-08-01T08:41:58Z</time>
      </trkpt>
      <trkpt lat="44.47049" lon="15.71761">
        <ele>667</ele>
        <time>2016-08-01T08:43:58Z</time>
      </trkpt>
      <trkpt lat="44.4704" lon="15.71746">
        <ele>667</ele>
        <time>2016-08-01T08:45:58Z</time>
      </trkpt>
      <trkpt lat="44.46989" lon="15.71672">
        <ele>665</ele>
        <time>2016-08-01T08:47:58Z</time>
      </trkpt>
      <trkpt lat="44.46938" lon="15.71596">
        <ele>663</ele>
        <time>2016-08-01T08:49:58Z</time>
      </trkpt>
      <trkpt lat="44.46929" lon="15.71584">
        <ele>663</ele>
        <time>2016-08-01T08:51:58Z</time>
      </trkpt>
      <trkpt lat="44.4692" lon="15.71574">
        <ele>663</ele>
        <time>2016-08-01T08:53:58Z</time>
      </trkpt>
      <trkpt lat="44.4691" lon="15.71564">
        <ele>662</ele>
        <time>2016-08-01T08:55:58Z</time>
      </trkpt>
      <trkpt lat="44.46905" lon="15.71559">
        <ele>663</ele>
        <time>2016-08-01T08:57:58Z</time>
      </trkpt>
      <trkpt lat="44.46899" lon="15.71555">
        <ele>662</ele>
        <time>2016-08-01T08:59:58Z</time>
      </trkpt>
      <trkpt lat="44.46893" lon="15.7155">
        <ele>662</ele>
        <time>2016-08-01T09:01:58Z</time>
      </trkpt>
      <trkpt lat="44.46888" lon="15.71547">
        <ele>662</ele>
        <time>2016-08-01T09:03:58Z</time>
      </trkpt>
      <trkpt lat="44.46882" lon="15.71543">
        <ele>662</ele>
        <time>2016-08-01T09:05:58Z</time>
      </trkpt>
      <trkpt lat="44.46875" lon="15.7154">
        <ele>662</ele>
        <time>2016-08-01T09:07:58Z</time>
      </trkpt>
      <trkpt lat="44.46869" lon="15.71537">
        <ele>662</ele>
        <time>2016-08-01T09:09:58Z</time>
      </trkpt>
      <trkpt lat="44.46863" lon="15.71535">
        <ele>662</ele>
        <time>2016-08-01T09:11:58Z</time>
      </trkpt>
      <trkpt lat="44.46857" lon="15.71533">
        <ele>662</ele>
        <time>2016-08-01T09:13:58Z</time>
      </trkpt>
      <trkpt lat="44.46856" lon="15.71532">
        <ele>661</ele>
        <time>2016-08-01T09:15:58Z</time>
      </trkpt>
      <trkpt lat="44.4685" lon="15.71531">
        <ele>661</ele>
        <time>2016-08-01T09:17:58Z</time>
      </trkpt>
      <trkpt lat="44.46843" lon="15.7153">
        <ele>661</ele>
        <time>2016-08-01T09:19:58Z</time>
      </trkpt>
      <trkpt lat="44.46837" lon="15.71529">
        <ele>661</ele>
        <time>2016-08-01T09:21:58Z</time>
      </trkpt>
      <trkpt lat="44.46823" lon="15.71528">
        <ele>661</ele>
        <time>2016-08-01T09:23:58Z</time>
      </trkpt>
      <trkpt lat="44.46809" lon="15.71526">
        <ele>661</ele>
        <time>2016-08-01T09:25:58Z</time>
      </trkpt>
      <trkpt lat="44.46795" lon="15.71523">
        <ele>662</ele>
        <time>2016-08-01T09:27:58Z</time>
      </trkpt>
      <trkpt lat="44.46788" lon="15.71521">
        <ele>662</ele>
        <time>2016-08-01T09:29:58Z</time>
      </trkpt>
      <trkpt lat="44.46773" lon="15.71516">
        <ele>662</ele>
        <time>2016-08-01T09:31:58Z</time>
      </trkpt>
      <trkpt lat="44.46766" lon="15.71513">
        <ele>662</ele>
        <time>2016-08-01T09:33:58Z</time>
      </trkpt>
      <trkpt lat="44.46752" lon="15.71506">
        <ele>663</ele>
        <time>2016-08-01T09:35:58Z</time>
      </trkpt>
      <trkpt lat="44.46741" lon="15.71496">
        <ele>664</ele>
        <time>2016-08-01T09:37:58Z</time>
      </trkpt>
      <trkpt lat="44.46728" lon="15.71482">
        <ele>665</ele>
        <time>2016-08-01T09:39:58Z</time>
      </trkpt>
      <trkpt lat="44.46719" lon="15.7147">
        <ele>666</ele>
        <time>2016-08-01T09:41:58Z</time>
      </trkpt>
      <trkpt lat="44.46715" lon="15.71464">
        <ele>666</ele>
        <time>2016-08-01T09:43:58Z</time>
      </trkpt>
      <trkpt lat="44.46711" lon="15.71457">
        <ele>667</ele>
        <time>2016-08-01T09:45:58Z</time>
      </trkpt>
      <trkpt lat="44.46703" lon="15.71443">
        <ele>667</ele>
        <time>2016-08-01T09:47:58Z</time>
      </trkpt>
      <trkpt lat="44.46697" lon="15.71429">
        <ele>668</ele>
        <time>2016-08-01T09:49:58Z</time>
      </trkpt>
      <trkpt lat="44.46694" lon="15.71421">
        <ele>668</ele>
        <time>2016-08-01T09:51:58Z</time>
      </trkpt>
      <trkpt lat="44.46688" lon="15.71405">
        <ele>668</ele>
        <time>2016-08-01T09:53:58Z</time>
      </trkpt>
      <trkpt lat="44.4668" lon="15.71346">
        <ele>667</ele>
        <time>2016-08-01T09:55:58Z</time>
      </trkpt>
      <trkpt lat="44.46678" lon="15.71328">
        <ele>667</ele>
        <time>2016-08-01T09:57:58Z</time>
      </trkpt>
      <trkpt lat="44.46664" lon="15.71209">
        <ele>667</ele>
        <time>2016-08-01T09:59:58Z</time>
      </trkpt>
      <trkpt lat="44.46658" lon="15.7116">
        <ele>667</ele>
        <time>2016-08-01T10:01:58Z</time>
      </trkpt>
      <trkpt lat="44.46654" lon="15.71112">
        <ele>669</ele>
        <time>2016-08-01T10:03:58Z</time>
      </trkpt>
      <trkpt lat="44.4665" lon="15.71066">
        <ele>670</ele>
        <time>2016-08-01T10:05:58Z</time>
      </trkpt>
      <trkpt lat="44.46648" lon="15.71043">
        <ele>671</ele>
        <time>2016-08-01T10:07:58Z</time>
      </trkpt>
      <trkpt lat="44.46647" lon="15.71016">
        <ele>670</ele>
        <time>2016-08-01T10:09:58Z</time>
      </trkpt>
      <trkpt lat="44.46647" lon="15.71003">
        <ele>670</ele>
        <time>2016-08-01T10:11:58Z</time>
      </trkpt>
      <trkpt lat="44.46647" lon="15.70989">
        <ele>671</ele>
        <time>2016-08-01T10:13:58Z</time>
      </trkpt>
      <trkpt lat="44.46648" lon="15.70963">
        <ele>671</ele>
        <time>2016-08-01T10:15:58Z</time>
      </trkpt>
      <trkpt lat="44.4665" lon="15.70936">
        <ele>672</ele>
        <time>2016-08-01T10:17:58Z</time>
      </trkpt>
      <trkpt lat="44.46656" lon="15.70881">
        <ele>673</ele>
        <time>2016-08-01T10:19:58Z</time>
      </trkpt>
      <trkpt lat="44.46658" lon="15.70853">
        <ele>675</ele>
        <time>2016-08-01T10:21:58Z</time>
      </trkpt>
      <trkpt lat="44.46658" lon="15.70825">
        <ele>676</ele>
        <time>2016-08-01T10:23:58Z</time>
      </trkpt>
      <trkpt lat="44.46656" lon="15.70798">
        <ele>676</ele>
        <time>2016-08-01T10:25:58Z</time>
      </trkpt>
      <trkpt lat="44.46653" lon="15.70772">
        <ele>677</ele>
        <time>2016-08-01T10:27:58Z</time>
      </trkpt>
      <trkpt lat="44.46634" lon="15.70668">
        <ele>677</ele>
        <time>2016-08-01T10:29:58Z</time>
      </trkpt>
      <trkpt lat="44.4663" lon="15.70643">
        <ele>677</ele>
        <time>2016-08-01T10:31:58Z</time>
      </trkpt>
      <trkpt lat="44.46617" lon="15.70526">
        <ele>672</ele>
        <time>2016-08-01T10:33:58Z</time>
      </trkpt>
      <trkpt lat="44.46611" lon="15.70466">
        <ele>668</ele>
        <time>2016-08-01T10:35:58Z</time>
      </trkpt>
      <trkpt lat="44.46609" lon="15.70447">
        <ele>666</ele>
        <time>2016-08-01T10:37:58Z</time>
      </trkpt>
      <trkpt lat="44.46602" lon="15.70376">
        <ele>662</ele>
        <time>2016-08-01T10:39:58Z</time>
      </trkpt>
      <trkpt lat="44.46601" lon="15.70352">
        <ele>662</ele>
        <time>2016-08-01T10:41:58Z</time>
      </trkpt>
      <trkpt lat="44.466" lon="15.70328">
        <ele>662</ele>
        <time>2016-08-01T10:43:58Z</time>
      </trkpt>
      <trkpt lat="44.46601" lon="15.70307">
        <ele>661</ele>
        <time>2016-08-01T10:45:58Z</time>
      </trkpt>
      <trkpt lat="44.46601" lon="15.7028">
        <ele>661</ele>
        <time>2016-08-01T10:47:58Z</time>
      </trkpt>
      <trkpt lat="44.46602" lon="15.70255">
        <ele>660</ele>
        <time>2016-08-01T10:49:58Z</time>
      </trkpt>
      <trkpt lat="44.46603" lon="15.70248">
        <ele>660</ele>
        <time>2016-08-01T10:51:58Z</time>
      </trkpt>
      <trkpt lat="44.46608" lon="15.70203">
        <ele>658</ele>
        <time>2016-08-01T10:53:58Z</time>
      </trkpt>
      <trkpt lat="44.46612" lon="15.70178">
        <ele>657</ele>
        <time>2016-08-01T10:55:58Z</time>
      </trkpt>
      <trkpt lat="44.46613" lon="15.70173">
        <ele>657</ele>
        <time>2016-08-01T10:57:58Z</time>
      </trkpt>
      <trkpt lat="44.46613" lon="15.70173">
        <ele>657</ele>
        <time>2016-08-01T10:59:58Z</time>
      </trkpt>
      <trkpt lat="44.46602" lon="15.7015">
        <ele>657</ele>
        <time>2016-08-01T11:01:58Z</time>
      </trkpt>
      <trkpt lat="44.46595" lon="15.70137">
        <ele>656</ele>
        <time>2016-08-01T11:03:58Z</time>
      </trkpt>
      <trkpt lat="44.46589" lon="15.70115">
        <ele>656</ele>
        <time>2016-08-01T11:05:58Z</time>
      </trkpt>
      <trkpt lat="44.46582" lon="15.70091">
        <ele>655</ele>
        <time>2016-08-01T11:07:58Z</time>
      </trkpt>
      <trkpt lat="44.46572" lon="15.70053">
        <ele>656</ele>
        <time>2016-08-01T11:09:58Z</time>
      </trkpt>
      <trkpt lat="44.46564" lon="15.70024">
        <ele>657</ele>
        <time>2016-08-01T11:11:58Z</time>
      </trkpt>
      <trkpt lat="44.46555" lon="15.6999">
        <ele>658</ele>
        <time>2016-08-01T11:13:58Z</time>
      </trkpt>
      <trkpt lat="44.46548" lon="15.69957">
        <ele>657</ele>
        <time>2016-08-01T11:15:58Z</time>
      </trkpt>
      <trkpt lat="44.46546" lon="15.69931">
        <ele>656</ele>
        <time>2016-08-01T11:17:58Z</time>
      </trkpt>
      <trkpt lat="44.46544" lon="15.69905">
        <ele>655</ele>
        <time>2016-08-01T11:19:58Z</time>
      </trkpt>
      <trkpt lat="44.46546" lon="15.69874">
        <ele>653</ele>
        <time>2016-08-01T11:21:58Z</time>
      </trkpt>
      <trkpt lat="44.46546" lon="15.69846">
        <ele>651</ele>
        <time>2016-08-01T11:23:58Z</time>
      </trkpt>
      <trkpt lat="44.46548" lon="15.69816">
        <ele>650</ele>
        <time>2016-08-01T11:25:58Z</time>
      </trkpt>
      <trkpt lat="44.46548" lon="15.69796">
        <ele>650</ele>
        <time>2016-08-01T11:27:58Z</time>
      </trkpt>
      <trkpt lat="44.46545" lon="15.69783">
        <ele>650</ele>
        <time>2016-08-01T11:29:58Z</time>
      </trkpt>
      <trkpt lat="44.46541" lon="15.69771">
        <ele>650</ele>
        <time>2016-08-01T11:31:58Z</time>
      </trkpt>
      <trkpt lat="44.46534" lon="15.69761">
        <ele>650</ele>
        <time>2016-08-01T11:33:58Z</time>
      </trkpt>
      <trkpt lat="44.46518" lon="15.69746">
        <ele>650</ele>
        <time>2016-08-01T11:35:58Z</time>
      </trkpt>
      <trkpt lat="44.46491" lon="15.69717">
        <ele>650</ele>
        <time>2016-08-01T11:37:58Z</time>
      </trkpt>
      <trkpt lat="44.46462" lon="15.69682">
        <ele>648</ele>
        <time>2016-08-01T11:39:58Z</time>
      </trkpt>
      <trkpt lat="44.46438" lon="15.69648">
        <ele>647</ele>
        <time>2016-08-01T11:41:58Z</time>
      </trkpt>
      <trkpt lat="44.46414" lon="15.69616">
        <ele>647</ele>
        <time>2016-08-01T11:43:58Z</time>
      </trkpt>
      <trkpt lat="44.46381" lon="15.69583">
        <ele>648</ele>
        <time>2016-08-01T11:45:58Z</time>
      </trkpt>
      <trkpt lat="44.4635" lon="15.69555">
        <ele>649</ele>
        <time>2016-08-01T11:47:58Z</time>
      </trkpt>
      <trkpt lat="44.46334" lon="15.69533">
        <ele>649</ele>
        <time>2016-08-01T11:49:58Z</time>
      </trkpt>
      <trkpt lat="44.46316" lon="15.69504">
        <ele>649</ele>
        <time>2016-08-01T11:51:58Z</time>
      </trkpt>
      <trkpt lat="44.46291" lon="15.6946">
        <ele>647</ele>
        <time>2016-08-01T11:53:58Z</time>
      </trkpt>
      <trkpt lat="44.46275" lon="15.69434">
        <ele>647</ele>
        <time>2016-08-01T11:55:58Z</time>
      </trkpt>
      <trkpt lat="44.46257" lon="15.694">
        <ele>646</ele>
        <time>2016-08-01T11:57:58Z</time>
      </trkpt>
      <trkpt lat="44.46237" lon="15.69375">
        <ele>645</ele>
        <time>2016-08-01T11:59:58Z</time>
      </trkpt>
      <trkpt lat="44.46213" lon="15.6935">
        <ele>644</ele>
        <time>2016-08-01T12:01:58Z</time>
      </trkpt>
      <trkpt lat="44.46194" lon="15.69334">
        <ele>645</ele>
        <time>2016-08-01T12:03:58Z</time>
      </trkpt>
      <trkpt lat="44.46179" lon="15.69325">
        <ele>645</ele>
        <time>2016-08-01T12:05:58Z</time>
      </trkpt>
      <trkpt lat="44.46162" lon="15.6932">
        <ele>645</ele>
        <time>2016-08-01T12:07:58Z</time>
      </trkpt>
      <trkpt lat="44.46145" lon="15.69317">
        <ele>646</ele>
        <time>2016-08-01T12:09:58Z</time>
      </trkpt>
      <trkpt lat="44.46129" lon="15.69311">
        <ele>646</ele>
        <time>2016-08-01T12:11:58Z</time>
      </trkpt>
      <trkpt lat="44.46109" lon="15.69302">
        <ele>646</ele>
        <time>2016-08-01T12:13:58Z</time>
      </trkpt>
      <trkpt lat="44.46091" lon="15.69291">
        <ele>646</ele>
        <time>2016-08-01T12:15:58Z</time>
      </trkpt>
      <trkpt lat="44.46081" lon="15.6928">
        <ele>646</ele>
        <time>2016-08-01T12:17:58Z</time>
      </trkpt>
      <trkpt lat="44.4607" lon="15.69261">
        <ele>645</ele>
        <time>2016-08-01T12:19:58Z</time>
      </trkpt>
      <trkpt lat="44.46061" lon="15.69241">
        <ele>645</ele>
        <time>2016-08-01T12:21:58Z</time>
      </trkpt>
      <trkpt lat="44.4605" lon="15.69218">
        <ele>645</ele>
        <time>2016-08-01T12:23:58Z</time>
      </trkpt>
      <trkpt lat="44.46026" lon="15.6918">
        <ele>646</ele>
        <time>2016-08-01T12:25:58Z</time>
      </trkpt>
      <trkpt lat="44.46" lon="15.69141">
        <ele>647</ele>
        <time>2016-08-01T12:27:58Z</time>
      </trkpt>
      <trkpt lat="44.45969" lon="15.69093">
        <ele>647</ele>
        <time>2016-08-01T12:29:58Z</time>
      </trkpt>
      <trkpt lat="44.45952" lon="15.69066">
        <ele>646</ele>
        <time>2016-08-01T12:31:58Z</time>
      </trkpt>
      <trkpt lat="44.45934" lon="15.69032">
        <ele>646</ele>
        <time>2016-08-01T12:33:58Z</time>
      </trkpt>
      <trkpt lat="44.45916" lon="15.69">
        <ele>646</ele>
        <time>2016-08-01T12:35:58Z</time>
      </trkpt>
      <trkpt lat="44.45899" lon="15.68974">
        <ele>646</ele>
        <time>2016-08-01T12:37:58Z</time>
      </trkpt>
      <trkpt lat="44.45887" lon="15.68959">
        <ele>646</ele>
        <time>2016-08-01T12:39:58Z</time>
      </trkpt>
      <trkpt lat="44.4587" lon="15.68939">
        <ele>646</ele>
        <time>2016-08-01T12:41:58Z</time>
      </trkpt>
      <trkpt lat="44.45857" lon="15.68924">
        <ele>646</ele>
        <time>2016-08-01T12:43:58Z</time>
      </trkpt>
      <trkpt lat="44.45846" lon="15.68909">
        <ele>646</ele>
        <time>2016-08-01T12:45:58Z</time>
      </trkpt>
      <trkpt lat="44.45841" lon="15.68902">
        <ele>646</ele>
        <time>2016-08-01T12:47:58Z</time>
      </trkpt>
      <trkpt lat="44.45837" lon="15.68895">
        <ele>645</ele>
        <time>2016-08-01T12:49:58Z</time>
      </trkpt>
      <trkpt lat="44.45833" lon="15.68886">
        <ele>645</ele>
        <time>2016-08-01T12:51:58Z</time>
      </trkpt>
      <trkpt lat="44.45821" lon="15.68857">
        <ele>644</ele>
        <time>2016-08-01T12:53:58Z</time>
      </trkpt>
      <trkpt lat="44.45794" lon="15.68796">
        <ele>643</ele>
        <time>2016-08-01T12:55:58Z</time>
      </trkpt>
      <trkpt lat="44.45763" lon="15.68736">
        <ele>643</ele>
        <time>2016-08-01T12:57:58Z</time>
      </trkpt>
      <trkpt lat="44.45669" lon="15.68546">
        <ele>648</ele>
        <time>2016-08-01T12:59:58Z</time>
      </trkpt>
      <trkpt lat="44.45658" lon="15.68522">
        <ele>650</ele>
        <time>2016-08-01T13:01:58Z</time>
      </trkpt>
      <trkpt lat="44.45652" lon="15.68514">
        <ele>651</ele>
        <time>2016-08-01T13:03:58Z</time>
      </trkpt>
      <trkpt lat="44.45645" lon="15.68505">
        <ele>652</ele>
        <time>2016-08-01T13:05:58Z</time>
      </trkpt>
      <trkpt lat="44.45642" lon="15.68502">
        <ele>653</ele>
        <time>2016-08-01T13:07:58Z</time>
      </trkpt>
      <trkpt lat="44.45639" lon="15.68499">
        <ele>653</ele>
        <time>2016-08-01T13:09:58Z</time>
      </trkpt>
      <trkpt lat="44.45636" lon="15.68497">
        <ele>653</ele>
        <time>2016-08-01T13:11:58Z</time>
      </trkpt>
      <trkpt lat="44.45633" lon="15.68495">
        <ele>654</ele>
        <time>2016-08-01T13:13:58Z</time>
      </trkpt>
      <trkpt lat="44.45631" lon="15.68494">
        <ele>654</ele>
        <time>2016-08-01T13:15:58Z</time>
      </trkpt>
      <trkpt lat="44.45629" lon="15.68493">
        <ele>654</ele>
        <time>2016-08-01T13:17:58Z</time>
      </trkpt>
      <trkpt lat="44.45626" lon="15.68492">
        <ele>654</ele>
        <time>2016-08-01T13:19:58Z</time>
      </trkpt>
      <trkpt lat="44.45622" lon="15.68492">
        <ele>654</ele>
        <time>2016-08-01T13:21:58Z</time>
      </trkpt>
      <trkpt lat="44.45617" lon="15.68492">
        <ele>655</ele>
        <time>2016-08-01T13:23:58Z</time>
      </trkpt>
      <trkpt lat="44.45612" lon="15.68493">
        <ele>655</ele>
        <time>2016-08-01T13:25:58Z</time>
      </trkpt>
      <trkpt lat="44.45605" lon="15.68494">
        <ele>655</ele>
        <time>2016-08-01T13:27:58Z</time>
      </trkpt>
      <trkpt lat="44.45597" lon="15.68496">
        <ele>655</ele>
        <time>2016-08-01T13:29:58Z</time>
      </trkpt>
      <trkpt lat="44.45572" lon="15.68504">
        <ele>656</ele>
        <time>2016-08-01T13:31:58Z</time>
      </trkpt>
      <trkpt lat="44.45552" lon="15.68512">
        <ele>658</ele>
        <time>2016-08-01T13:33:58Z</time>
      </trkpt>
      <trkpt lat="44.45549" lon="15.68513">
        <ele>658</ele>
        <time>2016-08-01T13:35:58Z</time>
      </trkpt>
      <trkpt lat="44.45546" lon="15.68513">
        <ele>659</ele>
        <time>2016-08-01T13:37:58Z</time>
      </trkpt>
      <trkpt lat="44.45543" lon="15.68513">
        <ele>659</ele>
        <time>2016-08-01T13:39:58Z</time>
      </trkpt>
      <trkpt lat="44.4554" lon="15.68513">
        <ele>660</ele>
        <time>2016-08-01T13:41:58Z</time>
      </trkpt>
      <trkpt lat="44.45537" lon="15.68512">
        <ele>660</ele>
        <time>2016-08-01T13:43:58Z</time>
      </trkpt>
      <trkpt lat="44.45534" lon="15.68511">
        <ele>661</ele>
        <time>2016-08-01T13:45:58Z</time>
      </trkpt>
      <trkpt lat="44.45532" lon="15.6851">
        <ele>661</ele>
        <time>2016-08-01T13:47:58Z</time>
      </trkpt>
      <trkpt lat="44.4553" lon="15.68509">
        <ele>661</ele>
        <time>2016-08-01T13:49:58Z</time>
      </trkpt>
      <trkpt lat="44.45529" lon="15.68507">
        <ele>662</ele>
        <time>2016-08-01T13:51:58Z</time>
      </trkpt>
      <trkpt lat="44.45527" lon="15.68505">
        <ele>662</ele>
        <time>2016-08-01T13:53:58Z</time>
      </trkpt>
      <trkpt lat="44.45526" lon="15.68503">
        <ele>662</ele>
        <time>2016-08-01T13:55:58Z</time>
      </trkpt>
      <trkpt lat="44.4552" lon="15.68483">
        <ele>665</ele>
        <time>2016-08-01T13:57:58Z</time>
      </trkpt>
      <trkpt lat="44.45508" lon="15.6843">
        <ele>669</ele>
        <time>2016-08-01T13:59:58Z</time>
      </trkpt>
      <trkpt lat="44.45493" lon="15.6836">
        <ele>676</ele>
        <time>2016-08-01T14:01:58Z</time>
      </trkpt>
      <trkpt lat="44.45492" lon="15.68352">
        <ele>677</ele>
        <time>2016-08-01T14:03:58Z</time>
      </trkpt>
      <trkpt lat="44.45491" lon="15.68348">
        <ele>677</ele>
        <time>2016-08-01T14:05:58Z</time>
      </trkpt>
      <trkpt lat="44.45491" lon="15.68342">
        <ele>678</ele>
        <time>2016-08-01T14:07:58Z</time>
      </trkpt>
      <trkpt lat="44.45491" lon="15.68336">
        <ele>678</ele>
        <time>2016-08-01T14:09:58Z</time>
      </trkpt>
      <trkpt lat="44.45491" lon="15.68332">
        <ele>678</ele>
        <time>2016-08-01T14:11:58Z</time>
      </trkpt>
      <trkpt lat="44.45492" lon="15.6833">
        <ele>678</ele>
        <time>2016-08-01T14:13:58Z</time>
      </trkpt>
      <trkpt lat="44.45493" lon="15.68327">
        <ele>678</ele>
        <time>2016-08-01T14:15:58Z</time>
      </trkpt>
      <trkpt lat="44.45495" lon="15.68324">
        <ele>678</ele>
        <time>2016-08-01T14:17:58Z</time>
      </trkpt>
      <trkpt lat="44.45497" lon="15.68322">
        <ele>678</ele>
        <time>2016-08-01T14:19:58Z</time>
      </trkpt>
      <trkpt lat="44.45501" lon="15.6832">
        <ele>677</ele>
        <time>2016-08-01T14:21:58Z</time>
      </trkpt>
      <trkpt lat="44.45513" lon="15.68316">
        <ele>677</ele>
        <time>2016-08-01T14:23:58Z</time>
      </trkpt>
      <trkpt lat="44.45553" lon="15.68307">
        <ele>676</ele>
        <time>2016-08-01T14:25:58Z</time>
      </trkpt>
      <trkpt lat="44.45594" lon="15.68299">
        <ele>676</ele>
        <time>2016-08-01T14:27:58Z</time>
      </trkpt>
      <trkpt lat="44.45617" lon="15.68294">
        <ele>675</ele>
        <time>2016-08-01T14:29:58Z</time>
      </trkpt>
      <trkpt lat="44.45623" lon="15.68291">
        <ele>676</ele>
        <time>2016-08-01T14:31:58Z</time>
      </trkpt>
      <trkpt lat="44.45625" lon="15.68289">
        <ele>676</ele>
        <time>2016-08-01T14:33:58Z</time>
      </trkpt>
      <trkpt lat="44.45626" lon="15.68288">
        <ele>676</ele>
        <time>2016-08-01T14:35:58Z</time>
      </trkpt>
      <trkpt lat="44.45628" lon="15.68284">
        <ele>676</ele>
        <time>2016-08-01T14:37:58Z</time>
      </trkpt>
      <trkpt lat="44.45628" lon="15.68282">
        <ele>677</ele>
        <time>2016-08-01T14:39:58Z</time>
      </trkpt>
      <trkpt lat="44.45629" lon="15.6828">
        <ele>677</ele>
        <time>2016-08-01T14:41:58Z</time>
      </trkpt>
      <trkpt lat="44.45629" lon="15.68277">
        <ele>677</ele>
        <time>2016-08-01T14:43:58Z</time>
      </trkpt>
      <trkpt lat="44.45628" lon="15.68276">
        <ele>677</ele>
        <time>2016-08-01T14:45:58Z</time>
      </trkpt>
      <trkpt lat="44.45628" lon="15.68274">
        <ele>678</ele>
        <time>2016-08-01T14:47:58Z</time>
      </trkpt>
      <trkpt lat="44.45627" lon="15.68273">
        <ele>678</ele>
        <time>2016-08-01T14:49:58Z</time>
      </trkpt>
      <trkpt lat="44.45626" lon="15.68272">
        <ele>678</ele>
        <time>2016-08-01T14:51:58Z</time>
      </trkpt>
      <trkpt lat="44.45625" lon="15.68271">
        <ele>678</ele>
        <time>2016-08-01T14:53:58Z</time>
      </trkpt>
      <trkpt lat="44.45623" lon="15.6827">
        <ele>678</ele>
        <time>2016-08-01T14:55:58Z</time>
      </trkpt>
      <trkpt lat="44.4561" lon="15.68269">
        <ele>679</ele>
        <time>2016-08-01T14:57:58Z</time>
      </trkpt>
      <trkpt lat="44.45592" lon="15.68268">
        <ele>680</ele>
        <time>2016-08-01T14:59:58Z</time>
      </trkpt>
      <trkpt lat="44.45586" lon="15.68267">
        <ele>680</ele>
        <time>2016-08-01T15:01:58Z</time>
      </trkpt>
      <trkpt lat="44.45581" lon="15.68266">
        <ele>681</ele>
        <time>2016-08-01T15:03:58Z</time>
      </trkpt>
      <trkpt lat="44.45577" lon="15.68264">
        <ele>681</ele>
        <time>2016-08-01T15:05:58Z</time>
      </trkpt>
      <trkpt lat="44.45575" lon="15.68263">
        <ele>681</ele>
        <time>2016-08-01T15:07:58Z</time>
      </trkpt>
      <trkpt lat="44.45571" lon="15.6826">
        <ele>682</ele>
        <time>2016-08-01T15:09:58Z</time>
      </trkpt>
      <trkpt lat="44.45561" lon="15.68253">
        <ele>683</ele>
        <time>2016-08-01T15:11:58Z</time>
      </trkpt>
      <trkpt lat="44.45543" lon="15.68239">
        <ele>685</ele>
        <time>2016-08-01T15:13:58Z</time>
      </trkpt>
      <trkpt lat="44.45508" lon="15.68212">
        <ele>687</ele>
        <time>2016-08-01T15:15:58Z</time>
      </trkpt>
      <trkpt lat="44.45501" lon="15.68206">
        <ele>687</ele>
        <time>2016-08-01T15:17:58Z</time>
      </trkpt>
      <trkpt lat="44.45497" lon="15.68202">
        <ele>687</ele>
        <time>2016-08-01T15:19:58Z</time>
      </trkpt>
      <trkpt lat="44.45494" lon="15.68197">
        <ele>687</ele>
        <time>2016-08-01T15:21:58Z</time>
      </trkpt>
      <trkpt lat="44.45492" lon="15.68193">
        <ele>687</ele>
        <time>2016-08-01T15:23:58Z</time>
      </trkpt>
      <trkpt lat="44.45491" lon="15.68189">
        <ele>688</ele>
        <time>2016-08-01T15:25:58Z</time>
      </trkpt>
      <trkpt lat="44.45491" lon="15.68182">
        <ele>688</ele>
        <time>2016-08-01T15:27:58Z</time>
      </trkpt>
      <trkpt lat="44.45491" lon="15.68171">
        <ele>688</ele>
        <time>2016-08-01T15:29:58Z</time>
      </trkpt>
      <trkpt lat="44.45491" lon="15.68158">
        <ele>688</ele>
        <time>2016-08-01T15:31:58Z</time>
      </trkpt>
      <trkpt lat="44.45491" lon="15.68147">
        <ele>687</ele>
        <time>2016-08-01T15:33:58Z</time>
      </trkpt>
      <trkpt lat="44.45492" lon="15.68136">
        <ele>686</ele>
        <time>2016-08-01T15:35:58Z</time>
      </trkpt>
      <trkpt lat="44.45494" lon="15.68128">
        <ele>686</ele>
        <time>2016-08-01T15:37:58Z</time>
      </trkpt>
      <trkpt lat="44.45496" lon="15.6812">
        <ele>686</ele>
        <time>2016-08-01T15:39:58Z</time>
      </trkpt>
      <trkpt lat="44.45499" lon="15.6811">
        <ele>685</ele>
        <time>2016-08-01T15:41:58Z</time>
      </trkpt>
      <trkpt lat="44.45509" lon="15.68083">
        <ele>686</ele>
        <time>2016-08-01T15:43:58Z</time>
      </trkpt>
      <trkpt lat="44.45514" lon="15.6807">
        <ele>687</ele>
        <time>2016-08-01T15:45:58Z</time>
      </trkpt>
      <trkpt lat="44.45516" lon="15.68064">
        <ele>687</ele>
        <time>2016-08-01T15:47:58Z</time>
      </trkpt>
      <trkpt lat="44.45517" lon="15.68058">
        <ele>687</ele>
        <time>2016-08-01T15:49:58Z</time>
      </trkpt>
      <trkpt lat="44.45518" lon="15.68047">
        <ele>687</ele>
        <time>2016-08-01T15:51:58Z</time>
      </trkpt>
      <trkpt lat="44.45518" lon="15.68038">
        <ele>687</ele>
        <time>2016-08-01T15:53:58Z</time>
      </trkpt>
      <trkpt lat="44.45518" lon="15.68031">
        <ele>687</ele>
        <time>2016-08-01T15:55:58Z</time>
      </trkpt>
      <trkpt lat="44.45516" lon="15.68023">
        <ele>686</ele>
        <time>2016-08-01T15:57:58Z</time>
      </trkpt>
      <trkpt lat="44.45513" lon="15.68014">
        <ele>685</ele>
        <time>2016-08-01T15:59:58Z</time>
      </trkpt>
      <trkpt lat="44.45504" lon="15.67985">
        <ele>681</ele>
        <time>2016-08-01T16:01:58Z</time>
      </trkpt>
      <trkpt lat="44.45501" lon="15.67974">
        <ele>679</ele>
        <time>2016-08-01T16:03:58Z</time>
      </trkpt>
      <trkpt lat="44.45501" lon="15.67968">
        <ele>679</ele>
        <time>2016-08-01T16:05:58Z</time>
      </trkpt>
      <trkpt lat="44.455" lon="15.67958">
        <ele>678</ele>
        <time>2016-08-01T16:07:58Z</time>
      </trkpt>
      <trkpt lat="44.45501" lon="15.67948">
        <ele>678</ele>
        <time>2016-08-01T16:09:58Z</time>
      </trkpt>
      <trkpt lat="44.45502" lon="15.67935">
        <ele>678</ele>
        <time>2016-08-01T16:11:58Z</time>
      </trkpt>
      <trkpt lat="44.45504" lon="15.67919">
        <ele>677</ele>
        <time>2016-08-01T16:13:58Z</time>
      </trkpt>
      <trkpt lat="44.45505" lon="15.67911">
        <ele>677</ele>
        <time>2016-08-01T16:15:58Z</time>
      </trkpt>
      <trkpt lat="44.45507" lon="15.67901">
        <ele>677</ele>
        <time>2016-08-01T16:17:58Z</time>
      </trkpt>
      <trkpt lat="44.45512" lon="15.67886">
        <ele>676</ele>
        <time>2016-08-01T16:19:58Z</time>
      </trkpt>
      <trkpt lat="44.45516" lon="15.67873">
        <ele>676</ele>
        <time>2016-08-01T16:21:58Z</time>
      </trkpt>
      <trkpt lat="44.45538" lon="15.67812">
        <ele>676</ele>
        <time>2016-08-01T16:23:58Z</time>
      </trkpt>
      <trkpt lat="44.45547" lon="15.67775">
        <ele>674</ele>
        <time>2016-08-01T16:25:58Z</time>
      </trkpt>
      <trkpt lat="44.45558" lon="15.67744">
        <ele>674</ele>
        <time>2016-08-01T16:27:58Z</time>
      </trkpt>
      <trkpt lat="44.45579" lon="15.67689">
        <ele>669</ele>
        <time>2016-08-01T16:29:58Z</time>
      </trkpt>
      <trkpt lat="44.45598" lon="15.67646">
        <ele>666</ele>
        <time>2016-08-01T16:31:58Z</time>
      </trkpt>
      <trkpt lat="44.45612" lon="15.67616">
        <ele>663</ele>
        <time>2016-08-01T16:33:58Z</time>
      </trkpt>
      <trkpt lat="44.45625" lon="15.67592">
        <ele>661</ele>
        <time>2016-08-01T16:35:58Z</time>
      </trkpt>
      <trkpt lat="44.45639" lon="15.67568">
        <ele>660</ele>
        <time>2016-08-01T16:37:58Z</time>
      </trkpt>
      <trkpt lat="44.45646" lon="15.67557">
        <ele>659</ele>
        <time>2016-08-01T16:39:58Z</time>
      </trkpt>
      <trkpt lat="44.45651" lon="15.67549">
        <ele>659</ele>
        <time>2016-08-01T16:41:58Z</time>
      </trkpt>
      <trkpt lat="44.45658" lon="15.67541">
        <ele>659</ele>
        <time>2016-08-01T16:43:58Z</time>
      </trkpt>
      <trkpt lat="44.45669" lon="15.67531">
        <ele>659</ele>
        <time>2016-08-01T16:45:58Z</time>
      </trkpt>
      <trkpt lat="44.45681" lon="15.67524">
        <ele>658</ele>
        <time>2016-08-01T16:47:58Z</time>
      </trkpt>
      <trkpt lat="44.45687" lon="15.67521">
        <ele>658</ele>
        <time>2016-08-01T16:49:58Z</time>
      </trkpt>
      <trkpt lat="44.4569" lon="15.6752">
        <ele>658</ele>
        <time>2016-08-01T16:51:58Z</time>
      </trkpt>
      <trkpt lat="44.45693" lon="15.67521">
        <ele>658</ele>
        <time>2016-08-01T16:53:58Z</time>
      </trkpt>
      <trkpt lat="44.45707" lon="15.67526">
        <ele>659</ele>
        <time>2016-08-01T16:55:58Z</time>
      </trkpt>
      <trkpt lat="44.45718" lon="15.67533">
        <ele>661</ele>
        <time>2016-08-01T16:57:58Z</time>
      </trkpt>
      <trkpt lat="44.45723" lon="15.67535">
        <ele>662</ele>
        <time>2016-08-01T16:59:58Z</time>
      </trkpt>
      <trkpt lat="44.45726" lon="15.67537">
        <ele>662</ele>
        <time>2016-08-01T17:01:58Z</time>
      </trkpt>
      <trkpt lat="44.4573" lon="15.67539">
        <ele>662</ele>
        <time>2016-08-01T17:03:58Z</time>
      </trkpt>
      <trkpt lat="44.45734" lon="15.67539">
        <ele>663</ele>
        <time>2016-08-01T17:05:58Z</time>
      </trkpt>
      <trkpt lat="44.45738" lon="15.67539">
        <ele>663</ele>
        <time>2016-08-01T17:07:58Z</time>
      </trkpt>
      <trkpt lat="44.45741" lon="15.67537">
        <ele>662</ele>
        <time>2016-08-01T17:09:58Z</time>
      </trkpt>
      <trkpt lat="44.45745" lon="15.67536">
        <ele>662</ele>
        <time>2016-08-01T17:11:58Z</time>
      </trkpt>
      <trkpt lat="44.45747" lon="15.67534">
        <ele>662</ele>
        <time>2016-08-01T17:13:58Z</time>
      </trkpt>
      <trkpt lat="44.45749" lon="15.67532">
        <ele>662</ele>
        <time>2016-08-01T17:15:58Z</time>
      </trkpt>
      <trkpt lat="44.45757" lon="15.67517">
        <ele>660</ele>
        <time>2016-08-01T17:17:58Z</time>
      </trkpt>
      <trkpt lat="44.45763" lon="15.67506">
        <ele>659</ele>
        <time>2016-08-01T17:19:58Z</time>
      </trkpt>
      <trkpt lat="44.45773" lon="15.6749">
        <ele>657</ele>
        <time>2016-08-01T17:21:58Z</time>
      </trkpt>
      <trkpt lat="44.45782" lon="15.67476">
        <ele>655</ele>
        <time>2016-08-01T17:23:58Z</time>
      </trkpt>
      <trkpt lat="44.45788" lon="15.67471">
        <ele>654</ele>
        <time>2016-08-01T17:25:58Z</time>
      </trkpt>
      <trkpt lat="44.45792" lon="15.67468">
        <ele>654</ele>
        <time>2016-08-01T17:27:58Z</time>
      </trkpt>
      <trkpt lat="44.45797" lon="15.67464">
        <ele>654</ele>
        <time>2016-08-01T17:29:58Z</time>
      </trkpt>
      <trkpt lat="44.45804" lon="15.67462">
        <ele>654</ele>
        <time>2016-08-01T17:31:58Z</time>
      </trkpt>
      <trkpt lat="44.45811" lon="15.6746">
        <ele>654</ele>
        <time>2016-08-01T17:33:58Z</time>
      </trkpt>
      <trkpt lat="44.45814" lon="15.67459">
        <ele>654</ele>
        <time>2016-08-01T17:35:58Z</time>
      </trkpt>
      <trkpt lat="44.45815" lon="15.67458">
        <ele>654</ele>
        <time>2016-08-01T17:37:58Z</time>
      </trkpt>
      <trkpt lat="44.45816" lon="15.67457">
        <ele>654</ele>
        <time>2016-08-01T17:39:58Z</time>
      </trkpt>
      <trkpt lat="44.45817" lon="15.67456">
        <ele>654</ele>
        <time>2016-08-01T17:41:58Z</time>
      </trkpt>
      <trkpt lat="44.45818" lon="15.67455">
        <ele>654</ele>
        <time>2016-08-01T17:43:58Z</time>
      </trkpt>
      <trkpt lat="44.45818" lon="15.67454">
        <ele>654</ele>
        <time>2016-08-01T17:45:58Z</time>
      </trkpt>
      <trkpt lat="44.45818" lon="15.67453">
        <ele>654</ele>
        <time>2016-08-01T17:47:58Z</time>
      </trkpt>
      <trkpt lat="44.45818" lon="15.67452">
        <ele>654</ele>
        <time>2016-08-01T17:49:58Z</time>
      </trkpt>
      <trkpt lat="44.45818" lon="15.67451">
        <ele>653</ele>
        <time>2016-08-01T17:51:58Z</time>
      </trkpt>
      <trkpt lat="44.45818" lon="15.6745">
        <ele>653</ele>
        <time>2016-08-01T17:53:58Z</time>
      </trkpt>
      <trkpt lat="44.45818" lon="15.67449">
        <ele>653</ele>
        <time>2016-08-01T17:55:58Z</time>
      </trkpt>
      <trkpt lat="44.45818" lon="15.67448">
        <ele>653</ele>
        <time>2016-08-01T17:57:58Z</time>
      </trkpt>
      <trkpt lat="44.45817" lon="15.67447">
        <ele>653</ele>
        <time>2016-08-01T17:59:58Z</time>
      </trkpt>
      <trkpt lat="44.45817" lon="15.67446">
        <ele>652</ele>
        <time>2016-08-01T18:01:58Z</time>
      </trkpt>
      <trkpt lat="44.45816" lon="15.67445">
        <ele>652</ele>
        <time>2016-08-01T18:03:58Z</time>
      </trkpt>
      <trkpt lat="44.45815" lon="15.67445">
        <ele>652</ele>
        <time>2016-08-01T18:05:58Z</time>
      </trkpt>
      <trkpt lat="44.45815" lon="15.67444">
        <ele>652</ele>
        <time>2016-08-01T18:07:58Z</time>
      </trkpt>
      <trkpt lat="44.45814" lon="15.67443">
        <ele>652</ele>
        <time>2016-08-01T18:09:58Z</time>
      </trkpt>
      <trkpt lat="44.45812" lon="15.67442">
        <ele>651</ele>
        <time>2016-08-01T18:11:58Z</time>
      </trkpt>
      <trkpt lat="44.4581" lon="15.67441">
        <ele>651</ele>
        <time>2016-08-01T18:13:58Z</time>
      </trkpt>
      <trkpt lat="44.45809" lon="15.67441">
        <ele>651</ele>
        <time>2016-08-01T18:15:58Z</time>
      </trkpt>
      <trkpt lat="44.45807" lon="15.67441">
        <ele>651</ele>
        <time>2016-08-01T18:17:58Z</time>
      </trkpt>
      <trkpt lat="44.45806" lon="15.67442">
        <ele>651</ele>
        <time>2016-08-01T18:19:58Z</time>
      </trkpt>
      <trkpt lat="44.45804" lon="15.67443">
        <ele>651</ele>
        <time>2016-08-01T18:21:58Z</time>
      </trkpt>
      <trkpt lat="44.45796" lon="15.67448">
        <ele>651</ele>
        <time>2016-08-01T18:23:58Z</time>
      </trkpt>
      <trkpt lat="44.45792" lon="15.67451">
        <ele>651</ele>
        <time>2016-08-01T18:25:58Z</time>
      </trkpt>
      <trkpt lat="44.45789" lon="15.67453">
        <ele>651</ele>
        <time>2016-08-01T18:27:58Z</time>
      </trkpt>
      <trkpt lat="44.45783" lon="15.67457">
        <ele>651</ele>
        <time>2016-08-01T18:29:58Z</time>
      </trkpt>
      <trkpt lat="44.4577" lon="15.67471">
        <ele>653</ele>
        <time>2016-08-01T18:31:58Z</time>
      </trkpt>
      <trkpt lat="44.45765" lon="15.67475">
        <ele>653</ele>
        <time>2016-08-01T18:33:58Z</time>
      </trkpt>
      <trkpt lat="44.45762" lon="15.67478">
        <ele>653</ele>
        <time>2016-08-01T18:35:58Z</time>
      </trkpt>
      <trkpt lat="44.45759" lon="15.6748">
        <ele>654</ele>
        <time>2016-08-01T18:37:58Z</time>
      </trkpt>
      <trkpt lat="44.45757" lon="15.67481">
        <ele>654</ele>
        <time>2016-08-01T18:39:58Z</time>
      </trkpt>
      <trkpt lat="44.45755" lon="15.67482">
        <ele>654</ele>
        <time>2016-08-01T18:41:58Z</time>
      </trkpt>
      <trkpt lat="44.4575" lon="15.67482">
        <ele>653</ele>
        <time>2016-08-01T18:43:58Z</time>
      </trkpt>
      <trkpt lat="44.45745" lon="15.67482">
        <ele>653</ele>
        <time>2016-08-01T18:45:58Z</time>
      </trkpt>
      <trkpt lat="44.45737" lon="15.67482">
        <ele>653</ele>
        <time>2016-08-01T18:47:58Z</time>
      </trkpt>
      <trkpt lat="44.45731" lon="15.67481">
        <ele>652</ele>
        <time>2016-08-01T18:49:58Z</time>
      </trkpt>
      <trkpt lat="44.45726" lon="15.6748">
        <ele>652</ele>
        <time>2016-08-01T18:51:58Z</time>
      </trkpt>
      <trkpt lat="44.45719" lon="15.67478">
        <ele>651</ele>
        <time>2016-08-01T18:53:58Z</time>
      </trkpt>
      <trkpt lat="44.45705" lon="15.67473">
        <ele>649</ele>
        <time>2016-08-01T18:55:58Z</time>
      </trkpt>
      <trkpt lat="44.45699" lon="15.6747">
        <ele>648</ele>
        <time>2016-08-01T18:57:58Z</time>
      </trkpt>
      <trkpt lat="44.45687" lon="15.67461">
        <ele>645</ele>
        <time>2016-08-01T18:59:58Z</time>
      </trkpt>
      <trkpt lat="44.45676" lon="15.67453">
        <ele>642</ele>
        <time>2016-08-01T19:01:58Z</time>
      </trkpt>
      <trkpt lat="44.45671" lon="15.67452">
        <ele>642</ele>
        <time>2016-08-01T19:03:58Z</time>
      </trkpt>
      <trkpt lat="44.45668" lon="15.67452">
        <ele>642</ele>
        <time>2016-08-01T19:05:58Z</time>
      </trkpt>
      <trkpt lat="44.45664" lon="15.67452">
        <ele>641</ele>
        <time>2016-08-01T19:07:58Z</time>
      </trkpt>
      <trkpt lat="44.45659" lon="15.67453">
        <ele>641</ele>
        <time>2016-08-01T19:09:58Z</time>
      </trkpt>
      <trkpt lat="44.45644" lon="15.67461">
        <ele>641</ele>
        <time>2016-08-01T19:11:58Z</time>
      </trkpt>
      <trkpt lat="44.4563" lon="15.6747">
        <ele>641</ele>
        <time>2016-08-01T19:13:58Z</time>
      </trkpt>
      <trkpt lat="44.45615" lon="15.67478">
        <ele>640</ele>
        <time>2016-08-01T19:15:58Z</time>
      </trkpt>
      <trkpt lat="44.45604" lon="15.67486">
        <ele>639</ele>
        <time>2016-08-01T19:17:58Z</time>
      </trkpt>
      <trkpt lat="44.45597" lon="15.67492">
        <ele>639</ele>
        <time>2016-08-01T19:19:58Z</time>
      </trkpt>
      <trkpt lat="44.4559" lon="15.67498">
        <ele>638</ele>
        <time>2016-08-01T19:21:58Z</time>
      </trkpt>
      <trkpt lat="44.45561" lon="15.67527">
        <ele>638</ele>
        <time>2016-08-01T19:23:58Z</time>
      </trkpt>
      <trkpt lat="44.4554" lon="15.67548">
        <ele>637</ele>
        <time>2016-08-01T19:25:58Z</time>
      </trkpt>
      <trkpt lat="44.45532" lon="15.67557">
        <ele>636</ele>
        <time>2016-08-01T19:27:58Z</time>
      </trkpt>
      <trkpt lat="44.45511" lon="15.67576">
        <ele>634</ele>
        <time>2016-08-01T19:29:58Z</time>
      </trkpt>
      <trkpt lat="44.45499" lon="15.67586">
        <ele>632</ele>
        <time>2016-08-01T19:31:58Z</time>
      </trkpt>
      <trkpt lat="44.45487" lon="15.67595">
        <ele>632</ele>
        <time>2016-08-01T19:33:58Z</time>
      </trkpt>
      <trkpt lat="44.45475" lon="15.67604">
        <ele>632</ele>
        <time>2016-08-01T19:35:58Z</time>
      </trkpt>
      <trkpt lat="44.45469" lon="15.6761">
        <ele>631</ele>
        <time>2016-08-01T19:37:58Z</time>
      </trkpt>
      <trkpt lat="44.45465" lon="15.67613">
        <ele>631</ele>
        <time>2016-08-01T19:39:58Z</time>
      </trkpt>
      <trkpt lat="44.45461" lon="15.67615">
        <ele>631</ele>
        <time>2016-08-01T19:41:58Z</time>
      </trkpt>
      <trkpt lat="44.45457" lon="15.67616">
        <ele>631</ele>
        <time>2016-08-01T19:43:58Z</time>
      </trkpt>
      <trkpt lat="44.45443" lon="15.6762">
        <ele>629</ele>
        <time>2016-08-01T19:45:58Z</time>
      </trkpt>
      <trkpt lat="44.45435" lon="15.67621">
        <ele>628</ele>
        <time>2016-08-01T19:47:58Z</time>
      </trkpt>
      <trkpt lat="44.4543" lon="15.67621">
        <ele>628</ele>
        <time>2016-08-01T19:49:58Z</time>
      </trkpt>
      <trkpt lat="44.45426" lon="15.67621">
        <ele>627</ele>
        <time>2016-08-01T19:51:58Z</time>
      </trkpt>
      <trkpt lat="44.45418" lon="15.6762">
        <ele>626</ele>
        <time>2016-08-01T19:53:58Z</time>
      </trkpt>
      <trkpt lat="44.45406" lon="15.67618">
        <ele>626</ele>
        <time>2016-08-01T19:55:58Z</time>
      </trkpt>
      <trkpt lat="44.45365" lon="15.67613">
        <ele>624</ele>
        <time>2016-08-01T19:57:58Z</time>
      </trkpt>
      <trkpt lat="44.4534" lon="15.67611">
        <ele>623</ele>
        <time>2016-08-01T19:59:58Z</time>
      </trkpt>
      <trkpt lat="44.45283" lon="15.67603">
        <ele>622</ele>
        <time>2016-08-01T20:01:58Z</time>
      </trkpt>
      <trkpt lat="44.45263" lon="15.67598">
        <ele>621</ele>
        <time>2016-08-01T20:03:58Z</time>
      </trkpt>
      <trkpt lat="44.45255" lon="15.67594">
        <ele>621</ele>
        <time>2016-08-01T20:05:58Z</time>
      </trkpt>
      <trkpt lat="44.45242" lon="15.67587">
        <ele>621</ele>
        <time>2016-08-01T20:07:58Z</time>
      </trkpt>
      <trkpt lat="44.45236" lon="15.67583">
        <ele>621</ele>
        <time>2016-08-01T20:09:58Z</time>
      </trkpt>
      <trkpt lat="44.45231" lon="15.6758">
        <ele>621</ele>
        <time>2016-08-01T20:11:58Z</time>
      </trkpt>
      <trkpt lat="44.45227" lon="15.67576">
        <ele>620</ele>
        <time>2016-08-01T20:13:58Z</time>
      </trkpt>
      <trkpt lat="44.45225" lon="15.67574">
        <ele>620</ele>
        <time>2016-08-01T20:15:58Z</time>
      </trkpt>
      <trkpt lat="44.45224" lon="15.67571">
        <ele>620</ele>
        <time>2016-08-01T20:17:58Z</time>
      </trkpt>
      <trkpt lat="44.45221" lon="15.67563">
        <ele>620</ele>
        <time>2016-08-01T20:19:58Z</time>
      </trkpt>
      <trkpt lat="44.45218" lon="15.6755">
        <ele>620</ele>
        <time>2016-08-01T20:21:58Z</time>
      </trkpt>
      <trkpt lat="44.45209" lon="15.67514">
        <ele>620</ele>
        <time>2016-08-01T20:23:58Z</time>
      </trkpt>
      <trkpt lat="44.45198" lon="15.67479">
        <ele>620</ele>
        <time>2016-08-01T20:25:58Z</time>
      </trkpt>
      <trkpt lat="44.45183" lon="15.6744">
        <ele>620</ele>
        <time>2016-08-01T20:27:58Z</time>
      </trkpt>
      <trkpt lat="44.4518" lon="15.67432">
        <ele>619</ele>
        <time>2016-08-01T20:29:58Z</time>
      </trkpt>
      <trkpt lat="44.45175" lon="15.67426">
        <ele>619</ele>
        <time>2016-08-01T20:31:58Z</time>
      </trkpt>
      <trkpt lat="44.45168" lon="15.67418">
        <ele>619</ele>
        <time>2016-08-01T20:33:58Z</time>
      </trkpt>
      <trkpt lat="44.45161" lon="15.67411">
        <ele>619</ele>
        <time>2016-08-01T20:35:58Z</time>
      </trkpt>
      <trkpt lat="44.45153" lon="15.67405">
        <ele>618</ele>
        <time>2016-08-01T20:37:58Z</time>
      </trkpt>
      <trkpt lat="44.45146" lon="15.674">
        <ele>618</ele>
        <time>2016-08-01T20:39:58Z</time>
      </trkpt>
      <trkpt lat="44.45141" lon="15.67396">
        <ele>618</ele>
        <time>2016-08-01T20:41:58Z</time>
      </trkpt>
      <trkpt lat="44.45135" lon="15.67392">
        <ele>617</ele>
        <time>2016-08-01T20:43:58Z</time>
      </trkpt>
      <trkpt lat="44.45131" lon="15.67389">
        <ele>617</ele>
        <time>2016-08-01T20:45:58Z</time>
      </trkpt>
      <trkpt lat="44.45127" lon="15.67383">
        <ele>617</ele>
        <time>2016-08-01T20:47:58Z</time>
      </trkpt>
      <trkpt lat="44.4512" lon="15.67376">
        <ele>617</ele>
        <time>2016-08-01T20:49:58Z</time>
      </trkpt>
      <trkpt lat="44.45091" lon="15.67334">
        <ele>616</ele>
        <time>2016-08-01T20:51:58Z</time>
      </trkpt>
      <trkpt lat="44.45087" lon="15.67327">
        <ele>616</ele>
        <time>2016-08-01T20:53:58Z</time>
      </trkpt>
      <trkpt lat="44.45045" lon="15.67258">
        <ele>617</ele>
        <time>2016-08-01T20:55:58Z</time>
      </trkpt>
      <trkpt lat="44.44991" lon="15.67172">
        <ele>618</ele>
        <time>2016-08-01T20:57:58Z</time>
      </trkpt>
      <trkpt lat="44.44945" lon="15.67098">
        <ele>616</ele>
        <time>2016-08-01T20:59:58Z</time>
      </trkpt>
      <trkpt lat="44.44883" lon="15.66991">
        <ele>616</ele>
        <time>2016-08-01T21:01:58Z</time>
      </trkpt>
      <trkpt lat="44.44846" lon="15.66931">
        <ele>617</ele>
        <time>2016-08-01T21:03:58Z</time>
      </trkpt>
      <trkpt lat="44.44764" lon="15.66801">
        <ele>619</ele>
        <time>2016-08-01T21:05:58Z</time>
      </trkpt>
      <trkpt lat="44.44737" lon="15.66755">
        <ele>619</ele>
        <time>2016-08-01T21:07:58Z</time>
      </trkpt>
      <trkpt lat="44.44714" lon="15.66715">
        <ele>619</ele>
        <time>2016-08-01T21:09:58Z</time>
      </trkpt>
      <trkpt lat="44.44669" lon="15.6664">
        <ele>619</ele>
        <time>2016-08-01T21:11:58Z</time>
      </trkpt>
      <trkpt lat="44.44652" lon="15.66613">
        <ele>618</ele>
        <time>2016-08-01T21:13:58Z</time>
      </trkpt>
      <trkpt lat="44.44638" lon="15.66592">
        <ele>618</ele>
        <time>2016-08-01T21:15:58Z</time>
      </trkpt>
      <trkpt lat="44.44629" lon="15.66576">
        <ele>617</ele>
        <time>2016-08-01T21:17:58Z</time>
      </trkpt>
      <trkpt lat="44.44618" lon="15.66556">
        <ele>616</ele>
        <time>2016-08-01T21:19:58Z</time>
      </trkpt>
      <trkpt lat="44.44608" lon="15.66535">
        <ele>616</ele>
        <time>2016-08-01T21:21:58Z</time>
      </trkpt>
      <trkpt lat="44.446" lon="15.66517">
        <ele>615</ele>
        <time>2016-08-01T21:23:58Z</time>
      </trkpt>
      <trkpt lat="44.44586" lon="15.66484">
        <ele>614</ele>
        <time>2016-08-01T21:25:58Z</time>
      </trkpt>
      <trkpt lat="44.44586" lon="15.66484">
        <ele>614</ele>
        <time>2016-08-01T21:27:58Z</time>
      </trkpt>
      <trkpt lat="44.44578" lon="15.66453">
        <ele>613</ele>
        <time>2016-08-01T21:29:58Z</time>
      </trkpt>
      <trkpt lat="44.44571" lon="15.66427">
        <ele>613</ele>
        <time>2016-08-01T21:31:58Z</time>
      </trkpt>
      <trkpt lat="44.44564" lon="15.66395">
        <ele>614</ele>
        <time>2016-08-01T21:33:58Z</time>
      </trkpt>
      <trkpt lat="44.44557" lon="15.66362">
        <ele>615</ele>
        <time>2016-08-01T21:35:58Z</time>
      </trkpt>
      <trkpt lat="44.44553" lon="15.66336">
        <ele>616</ele>
        <time>2016-08-01T21:37:58Z</time>
      </trkpt>
      <trkpt lat="44.44553" lon="15.66336">
        <ele>616</ele>
        <time>2016-08-01T21:39:58Z</time>
      </trkpt>
      <trkpt lat="44.44548" lon="15.66343">
        <ele>616</ele>
        <time>2016-08-01T21:41:58Z</time>
      </trkpt>
      <trkpt lat="44.44546" lon="15.66345">
        <ele>616</ele>
        <time>2016-08-01T21:43:58Z</time>
      </trkpt>
      <trkpt lat="44.44543" lon="15.6635">
        <ele>616</ele>
        <time>2016-08-01T21:45:58Z</time>
      </trkpt>
      <trkpt lat="44.44539" lon="15.66357">
        <ele>616</ele>
        <time>2016-08-01T21:47:58Z</time>
      </trkpt>
      <trkpt lat="44.44531" lon="15.66382">
        <ele>615</ele>
        <time>2016-08-01T21:49:58Z</time>
      </trkpt>
      <trkpt lat="44.44521" lon="15.66431">
        <ele>613</ele>
        <time>2016-08-01T21:51:58Z</time>
      </trkpt>
      <trkpt lat="44.4451" lon="15.66475">
        <ele>613</ele>
        <time>2016-08-01T21:53:58Z</time>
      </trkpt>
      <trkpt lat="44.44508" lon="15.66482">
        <ele>613</ele>
        <time>2016-08-01T21:55:58Z</time>
      </trkpt>
      <trkpt lat="44.44508" lon="15.66482">
        <ele>613</ele>
        <time>2016-08-01T21:57:58Z</time>
      </trkpt>
      <trkpt lat="44.44511" lon="15.665">
        <ele>613</ele>
        <time>2016-08-01T21:59:58Z</time>
      </trkpt>
      <trkpt lat="44.44514" lon="15.6651">
        <ele>613</ele>
        <time>2016-08-01T22:01:58Z</time>
      </trkpt>
      <trkpt lat="44.44517" lon="15.66521">
        <ele>614</ele>
        <time>2016-08-01T22:03:58Z</time>
      </trkpt>
      <trkpt lat="44.44522" lon="15.66532">
        <ele>614</ele>
        <time>2016-08-01T22:05:58Z</time>
      </trkpt>
      <trkpt lat="44.44527" lon="15.66542">
        <ele>614</ele>
        <time>2016-08-01T22:07:58Z</time>
      </trkpt>
      <trkpt lat="44.44527" lon="15.66542">
        <ele>614</ele>
        <time>2016-08-01T22:09:58Z</time>
      </trkpt>
      <trkpt lat="44.44488" lon="15.66579">
        <ele>615</ele>
        <time>2016-08-01T22:11:58Z</time>
      </trkpt>
      <trkpt lat="44.44485" lon="15.66582">
        <ele>615</ele>
        <time>2016-08-01T22:13:58Z</time>
      </trkpt>
      <trkpt lat="44.44467" lon="15.66599">
        <ele>615</ele>
        <time>2016-08-01T22:15:58Z</time>
      </trkpt>
      <trkpt lat="44.44443" lon="15.66623">
        <ele>614</ele>
        <time>2016-08-01T22:17:58Z</time>
      </trkpt>
      <trkpt lat="44.44429" lon="15.66635">
        <ele>614</ele>
        <time>2016-08-01T22:19:58Z</time>
      </trkpt>
      <trkpt lat="44.44422" lon="15.6664">
        <ele>614</ele>
        <time>2016-08-01T22:21:58Z</time>
      </trkpt>
      <trkpt lat="44.44415" lon="15.66645">
        <ele>614</ele>
        <time>2016-08-01T22:23:58Z</time>
      </trkpt>
      <trkpt lat="44.44406" lon="15.6665">
        <ele>614</ele>
        <time>2016-08-01T22:25:58Z</time>
      </trkpt>
      <trkpt lat="44.44396" lon="15.66656">
        <ele>614</ele>
        <time>2016-08-01T22:27:58Z</time>
      </trkpt>
      <trkpt lat="44.44387" lon="15.6666">
        <ele>614</ele>
        <time>2016-08-01T22:29:58Z</time>
      </trkpt>
      <trkpt lat="44.44378" lon="15.66664">
        <ele>614</ele>
        <time>2016-08-01T22:31:58Z</time>
      </trkpt>
      <trkpt lat="44.44366" lon="15.66669">
        <ele>613</ele>
        <time>2016-08-01T22:33:58Z</time>
      </trkpt>
      <trkpt lat="44.44355" lon="15.66673">
        <ele>613</ele>
        <time>2016-08-01T22:35:58Z</time>
      </trkpt>
      <trkpt lat="44.44345" lon="15.66679">
        <ele>613</ele>
        <time>2016-08-01T22:37:58Z</time>
      </trkpt>
      <trkpt lat="44.44325" lon="15.66689">
        <ele>613</ele>
        <time>2016-08-01T22:39:58Z</time>
      </trkpt>
      <trkpt lat="44.44305" lon="15.66699">
        <ele>613</ele>
        <time>2016-08-01T22:41:58Z</time>
      </trkpt>
      <trkpt lat="44.44283" lon="15.66708">
        <ele>613</ele>
        <time>2016-08-01T22:43:58Z</time>
      </trkpt>
      <trkpt lat="44.44273" lon="15.66712">
        <ele>613</ele>
        <time>2016-08-01T22:45:58Z</time>
      </trkpt>
      <trkpt lat="44.44264" lon="15.66714">
        <ele>614</ele>
        <time>2016-08-01T22:47:58Z</time>
      </trkpt>
      <trkpt lat="44.44256" lon="15.66716">
        <ele>614</ele>
        <time>2016-08-01T22:49:58Z</time>
      </trkpt>
      <trkpt lat="44.44243" lon="15.66717">
        <ele>614</ele>
        <time>2016-08-01T22:51:58Z</time>
      </trkpt>
      <trkpt lat="44.44226" lon="15.66718">
        <ele>614</ele>
        <time>2016-08-01T22:53:58Z</time>
      </trkpt>
      <trkpt lat="44.44214" lon="15.66718">
        <ele>614</ele>
        <time>2016-08-01T22:55:58Z</time>
      </trkpt>
      <trkpt lat="44.44184" lon="15.66717">
        <ele>615</ele>
        <time>2016-08-01T22:57:58Z</time>
      </trkpt>
      <trkpt lat="44.44169" lon="15.66718">
        <ele>615</ele>
        <time>2016-08-01T22:59:58Z</time>
      </trkpt>
      <trkpt lat="44.44161" lon="15.66719">
        <ele>615</ele>
        <time>2016-08-01T23:01:58Z</time>
      </trkpt>
      <trkpt lat="44.44155" lon="15.6672">
        <ele>615</ele>
        <time>2016-08-01T23:03:58Z</time>
      </trkpt>
      <trkpt lat="44.44149" lon="15.66721">
        <ele>616</ele>
        <time>2016-08-01T23:05:58Z</time>
      </trkpt>
      <trkpt lat="44.44144" lon="15.66723">
        <ele>616</ele>
        <time>2016-08-01T23:07:58Z</time>
      </trkpt>
      <trkpt lat="44.44137" lon="15.66727">
        <ele>616</ele>
        <time>2016-08-01T23:09:58Z</time>
      </trkpt>
      <trkpt lat="44.4413" lon="15.66731">
        <ele>616</ele>
        <time>2016-08-01T23:11:58Z</time>
      </trkpt>
      <trkpt lat="44.44111" lon="15.66745">
        <ele>616</ele>
        <time>2016-08-01T23:13:58Z</time>
      </trkpt>
      <trkpt lat="44.44091" lon="15.6676">
        <ele>616</ele>
        <time>2016-08-01T23:15:58Z</time>
      </trkpt>
      <trkpt lat="44.44083" lon="15.66766">
        <ele>616</ele>
        <time>2016-08-01T23:17:58Z</time>
      </trkpt>
      <trkpt lat="44.44076" lon="15.66771">
        <ele>615</ele>
        <time>2016-08-01T23:19:58Z</time>
      </trkpt>
      <trkpt lat="44.44057" lon="15.66782">
        <ele>615</ele>
        <time>2016-08-01T23:21:58Z</time>
      </trkpt>
      <trkpt lat="44.44047" lon="15.66786">
        <ele>615</ele>
        <time>2016-08-01T23:23:58Z</time>
      </trkpt>
      <trkpt lat="44.4404" lon="15.66789">
        <ele>614</ele>
        <time>2016-08-01T23:25:58Z</time>
      </trkpt>
      <trkpt lat="44.44033" lon="15.6679">
        <ele>614</ele>
        <time>2016-08-01T23:27:58Z</time>
      </trkpt>
      <trkpt lat="44.44026" lon="15.66791">
        <ele>614</ele>
        <time>2016-08-01T23:29:58Z</time>
      </trkpt>
      <trkpt lat="44.44015" lon="15.66791">
        <ele>614</ele>
        <time>2016-08-01T23:31:58Z</time>
      </trkpt>
      <trkpt lat="44.44007" lon="15.6679">
        <ele>614</ele>
        <time>2016-08-01T23:33:58Z</time>
      </trkpt>
      <trkpt lat="44.43998" lon="15.66788">
        <ele>614</ele>
        <time>2016-08-01T23:35:58Z</time>
      </trkpt>
      <trkpt lat="44.43991" lon="15.66787">
        <ele>614</ele>
        <time>2016-08-01T23:37:58Z</time>
      </trkpt>
      <trkpt lat="44.43983" lon="15.66786">
        <ele>615</ele>
        <time>2016-08-01T23:39:58Z</time>
      </trkpt>
      <trkpt lat="44.43975" lon="15.66785">
        <ele>615</ele>
        <time>2016-08-01T23:41:58Z</time>
      </trkpt>
      <trkpt lat="44.43966" lon="15.66785">
        <ele>615</ele>
        <time>2016-08-01T23:43:58Z</time>
      </trkpt>
      <trkpt lat="44.43959" lon="15.66786">
        <ele>616</ele>
        <time>2016-08-01T23:45:58Z</time>
      </trkpt>
      <trkpt lat="44.43948" lon="15.66787">
        <ele>616</ele>
        <time>2016-08-01T23:47:58Z</time>
      </trkpt>
      <trkpt lat="44.43926" lon="15.66792">
        <ele>617</ele>
        <time>2016-08-01T23:49:58Z</time>
      </trkpt>
      <trkpt lat="44.43915" lon="15.66795">
        <ele>617</ele>
        <time>2016-08-01T23:51:58Z</time>
      </trkpt>
      <trkpt lat="44.43902" lon="15.66799">
        <ele>617</ele>
        <time>2016-08-01T23:53:58Z</time>
      </trkpt>
      <trkpt lat="44.43889" lon="15.66801">
        <ele>616</ele>
        <time>2016-08-01T23:55:58Z</time>
      </trkpt>
      <trkpt lat="44.43879" lon="15.66803">
        <ele>616</ele>
        <time>2016-08-01T23:57:58Z</time>
      </trkpt>
      <trkpt lat="44.43868" lon="15.66803">
        <ele>616</ele>
        <time>2016-08-01T23:59:58Z</time>
      </trkpt>
      <trkpt lat="44.43853" lon="15.66801">
        <ele>616</ele>
        <time>2016-08-02T00:01:58Z</time>
      </trkpt>
      <trkpt lat="44.43823" lon="15.66796">
        <ele>616</ele>
        <time>2016-08-02T00:03:58Z</time>
      </trkpt>
      <trkpt lat="44.43799" lon="15.66793">
        <ele>616</ele>
        <time>2016-08-02T00:05:58Z</time>
      </trkpt>
      <trkpt lat="44.43784" lon="15.66791">
        <ele>616</ele>
        <time>2016-08-02T00:07:58Z</time>
      </trkpt>
      <trkpt lat="44.43783" lon="15.66791">
        <ele>616</ele>
        <time>2016-08-02T00:09:58Z</time>
      </trkpt>
      <trkpt lat="44.43769" lon="15.66788">
        <ele>616</ele>
        <time>2016-08-02T00:11:58Z</time>
      </trkpt>
      <trkpt lat="44.43754" lon="15.66784">
        <ele>616</ele>
        <time>2016-08-02T00:13:58Z</time>
      </trkpt>
      <trkpt lat="44.43737" lon="15.66778">
        <ele>616</ele>
        <time>2016-08-02T00:15:58Z</time>
      </trkpt>
      <trkpt lat="44.43723" lon="15.66772">
        <ele>617</ele>
        <time>2016-08-02T00:17:58Z</time>
      </trkpt>
      <trkpt lat="44.4371" lon="15.66765">
        <ele>617</ele>
        <time>2016-08-02T00:19:58Z</time>
      </trkpt>
      <trkpt lat="44.437" lon="15.66761">
        <ele>617</ele>
        <time>2016-08-02T00:21:58Z</time>
      </trkpt>
      <trkpt lat="44.43687" lon="15.66755">
        <ele>617</ele>
        <time>2016-08-02T00:23:58Z</time>
      </trkpt>
      <trkpt lat="44.43668" lon="15.66746">
        <ele>618</ele>
        <time>2016-08-02T00:25:58Z</time>
      </trkpt>
      <trkpt lat="44.43655" lon="15.66741">
        <ele>618</ele>
        <time>2016-08-02T00:27:58Z</time>
      </trkpt>
      <trkpt lat="44.43647" lon="15.66737">
        <ele>619</ele>
        <time>2016-08-02T00:29:58Z</time>
      </trkpt>
      <trkpt lat="44.43637" lon="15.6673">
        <ele>619</ele>
        <time>2016-08-02T00:31:58Z</time>
      </trkpt>
      <trkpt lat="44.4362" lon="15.66718">
        <ele>620</ele>
        <time>2016-08-02T00:33:58Z</time>
      </trkpt>
      <trkpt lat="44.43602" lon="15.667">
        <ele>621</ele>
        <time>2016-08-02T00:35:58Z</time>
      </trkpt>
      <trkpt lat="44.43594" lon="15.66692">
        <ele>621</ele>
        <time>2016-08-02T00:37:58Z</time>
      </trkpt>
      <trkpt lat="44.43587" lon="15.66685">
        <ele>621</ele>
        <time>2016-08-02T00:39:58Z</time>
      </trkpt>
      <trkpt lat="44.43574" lon="15.66673">
        <ele>621</ele>
        <time>2016-08-02T00:41:58Z</time>
      </trkpt>
      <trkpt lat="44.43536" lon="15.66645">
        <ele>624</ele>
        <time>2016-08-02T00:43:58Z</time>
      </trkpt>
      <trkpt lat="44.435" lon="15.6662">
        <ele>625</ele>
        <time>2016-08-02T00:45:58Z</time>
      </trkpt>
      <trkpt lat="44.43473" lon="15.66602">
        <ele>626</ele>
        <time>2016-08-02T00:47:58Z</time>
      </trkpt>
      <trkpt lat="44.43445" lon="15.66582">
        <ele>627</ele>
        <time>2016-08-02T00:49:58Z</time>
      </trkpt>
      <trkpt lat="44.43438" lon="15.66579">
        <ele>627</ele>
        <time>2016-08-02T00:51:58Z</time>
      </trkpt>
      <trkpt lat="44.43433" lon="15.66577">
        <ele>627</ele>
        <time>2016-08-02T00:53:58Z</time>
      </trkpt>
      <trkpt lat="44.43426" lon="15.66575">
        <ele>627</ele>
        <time>2016-08-02T00:55:58Z</time>
      </trkpt>
      <trkpt lat="44.43422" lon="15.66575">
        <ele>627</ele>
        <time>2016-08-02T00:57:58Z</time>
      </trkpt>
      <trkpt lat="44.43416" lon="15.66575">
        <ele>626</ele>
        <time>2016-08-02T00:59:58Z</time>
      </trkpt>
      <trkpt lat="44.43408" lon="15.66576">
        <ele>626</ele>
        <time>2016-08-02T01:01:58Z</time>
      </trkpt>
      <trkpt lat="44.43395" lon="15.66576">
        <ele>625</ele>
        <time>2016-08-02T01:03:58Z</time>
      </trkpt>
      <trkpt lat="44.43382" lon="15.66575">
        <ele>624</ele>
        <time>2016-08-02T01:05:58Z</time>
      </trkpt>
      <trkpt lat="44.43377" lon="15.66575">
        <ele>624</ele>
        <time>2016-08-02T01:07:58Z</time>
      </trkpt>
      <trkpt lat="44.43369" lon="15.66573">
        <ele>624</ele>
        <time>2016-08-02T01:09:58Z</time>
      </trkpt>
      <trkpt lat="44.43352" lon="15.66566">
        <ele>622</ele>
        <time>2016-08-02T01:11:58Z</time>
      </trkpt>
      <trkpt lat="44.43348" lon="15.66563">
        <ele>622</ele>
        <time>2016-08-02T01:13:58Z</time>
      </trkpt>
      <trkpt lat="44.43346" lon="15.66561">
        <ele>622</ele>
        <time>2016-08-02T01:15:58Z</time>
      </trkpt>
      <trkpt lat="44.43341" lon="15.66554">
        <ele>621</ele>
        <time>2016-08-02T01:17:58Z</time>
      </trkpt>
      <trkpt lat="44.43335" lon="15.66544">
        <ele>620</ele>
        <time>2016-08-02T01:19:58Z</time>
      </trkpt>
      <trkpt lat="44.43329" lon="15.66531">
        <ele>620</ele>
        <time>2016-08-02T01:21:58Z</time>
      </trkpt>
      <trkpt lat="44.43322" lon="15.66517">
        <ele>621</ele>
        <time>2016-08-02T01:23:58Z</time>
      </trkpt>
      <trkpt lat="44.43317" lon="15.66506">
        <ele>621</ele>
        <time>2016-08-02T01:25:58Z</time>
      </trkpt>
      <trkpt lat="44.43308" lon="15.66491">
        <ele>621</ele>
        <time>2016-08-02T01:27:58Z</time>
      </trkpt>
      <trkpt lat="44.43303" lon="15.66484">
        <ele>622</ele>
        <time>2016-08-02T01:29:58Z</time>
      </trkpt>
      <trkpt lat="44.43298" lon="15.66477">
        <ele>622</ele>
        <time>2016-08-02T01:31:58Z</time>
      </trkpt>
      <trkpt lat="44.43288" lon="15.66464">
        <ele>622</ele>
        <time>2016-08-02T01:33:58Z</time>
      </trkpt>
      <trkpt lat="44.43282" lon="15.66458">
        <ele>622</ele>
        <time>2016-08-02T01:35:58Z</time>
      </trkpt>
      <trkpt lat="44.43269" lon="15.66446">
        <ele>620</ele>
        <time>2016-08-02T01:37:58Z</time>
      </trkpt>
      <trkpt lat="44.43263" lon="15.6644">
        <ele>619</ele>
        <time>2016-08-02T01:39:58Z</time>
      </trkpt>
      <trkpt lat="44.43255" lon="15.66434">
        <ele>618</ele>
        <time>2016-08-02T01:41:58Z</time>
      </trkpt>
      <trkpt lat="44.43249" lon="15.6643">
        <ele>617</ele>
        <time>2016-08-02T01:43:58Z</time>
      </trkpt>
      <trkpt lat="44.4324" lon="15.66425">
        <ele>617</ele>
        <time>2016-08-02T01:45:58Z</time>
      </trkpt>
      <trkpt lat="44.43233" lon="15.66422">
        <ele>616</ele>
        <time>2016-08-02T01:47:58Z</time>
      </trkpt>
      <trkpt lat="44.43217" lon="15.66414">
        <ele>616</ele>
        <time>2016-08-02T01:49:58Z</time>
      </trkpt>
      <trkpt lat="44.43183" lon="15.66396">
        <ele>616</ele>
        <time>2016-08-02T01:51:58Z</time>
      </trkpt>
      <trkpt lat="44.43174" lon="15.6639">
        <ele>616</ele>
        <time>2016-08-02T01:53:58Z</time>
      </trkpt>
      <trkpt lat="44.43157" lon="15.66378">
        <ele>616</ele>
        <time>2016-08-02T01:55:58Z</time>
      </trkpt>
      <trkpt lat="44.4314" lon="15.66364">
        <ele>617</ele>
        <time>2016-08-02T01:57:58Z</time>
      </trkpt>
      <trkpt lat="44.43131" lon="15.66356">
        <ele>617</ele>
        <time>2016-08-02T01:59:58Z</time>
      </trkpt>
      <trkpt lat="44.43113" lon="15.66341">
        <ele>617</ele>
        <time>2016-08-02T02:01:58Z</time>
      </trkpt>
      <trkpt lat="44.43098" lon="15.66323">
        <ele>617</ele>
        <time>2016-08-02T02:03:58Z</time>
      </trkpt>
      <trkpt lat="44.43091" lon="15.66314">
        <ele>616</ele>
        <time>2016-08-02T02:05:58Z</time>
      </trkpt>
      <trkpt lat="44.43087" lon="15.66307">
        <ele>616</ele>
        <time>2016-08-02T02:07:58Z</time>
      </trkpt>
      <trkpt lat="44.43084" lon="15.66299">
        <ele>615</ele>
        <time>2016-08-02T02:09:58Z</time>
      </trkpt>
      <trkpt lat="44.43081" lon="15.66291">
        <ele>615</ele>
        <time>2016-08-02T02:11:58Z</time>
      </trkpt>
      <trkpt lat="44.43075" lon="15.66271">
        <ele>613</ele>
        <time>2016-08-02T02:13:58Z</time>
      </trkpt>
      <trkpt lat="44.43073" lon="15.66261">
        <ele>612</ele>
        <time>2016-08-02T02:15:58Z</time>
      </trkpt>
      <trkpt lat="44.43067" lon="15.66243">
        <ele>612</ele>
        <time>2016-08-02T02:17:58Z</time>
      </trkpt>
      <trkpt lat="44.43064" lon="15.66234">
        <ele>612</ele>
        <time>2016-08-02T02:19:58Z</time>
      </trkpt>
      <trkpt lat="44.4306" lon="15.66226">
        <ele>612</ele>
        <time>2016-08-02T02:21:58Z</time>
      </trkpt>
      <trkpt lat="44.43051" lon="15.6621">
        <ele>612</ele>
        <time>2016-08-02T02:23:58Z</time>
      </trkpt>
      <trkpt lat="44.43038" lon="15.66191">
        <ele>611</ele>
        <time>2016-08-02T02:25:58Z</time>
      </trkpt>
      <trkpt lat="44.43024" lon="15.66173">
        <ele>610</ele>
        <time>2016-08-02T02:27:58Z</time>
      </trkpt>
      <trkpt lat="44.4301" lon="15.66156">
        <ele>610</ele>
        <time>2016-08-02T02:29:58Z</time>
      </trkpt>
      <trkpt lat="44.42994" lon="15.66141">
        <ele>610</ele>
        <time>2016-08-02T02:31:58Z</time>
      </trkpt>
      <trkpt lat="44.42979" lon="15.66127">
        <ele>611</ele>
        <time>2016-08-02T02:33:58Z</time>
      </trkpt>
      <trkpt lat="44.42964" lon="15.66111">
        <ele>611</ele>
        <time>2016-08-02T02:35:58Z</time>
      </trkpt>
      <trkpt lat="44.42948" lon="15.66096">
        <ele>609</ele>
        <time>2016-08-02T02:37:58Z</time>
      </trkpt>
      <trkpt lat="44.4294" lon="15.66087">
        <ele>608</ele>
        <time>2016-08-02T02:39:58Z</time>
      </trkpt>
      <trkpt lat="44.42923" lon="15.6607">
        <ele>606</ele>
        <time>2016-08-02T02:41:58Z</time>
      </trkpt>
      <trkpt lat="44.42918" lon="15.66065">
        <ele>606</ele>
        <time>2016-08-02T02:43:58Z</time>
      </trkpt>
      <trkpt lat="44.42915" lon="15.66063">
        <ele>606</ele>
        <time>2016-08-02T02:45:58Z</time>
      </trkpt>
      <trkpt lat="44.42909" lon="15.66059">
        <ele>606</ele>
        <time>2016-08-02T02:47:58Z</time>
      </trkpt>
      <trkpt lat="44.42904" lon="15.66056">
        <ele>606</ele>
        <time>2016-08-02T02:49:58Z</time>
      </trkpt>
      <trkpt lat="44.42901" lon="15.66054">
        <ele>607</ele>
        <time>2016-08-02T02:51:58Z</time>
      </trkpt>
      <trkpt lat="44.42895" lon="15.66051">
        <ele>607</ele>
        <time>2016-08-02T02:53:58Z</time>
      </trkpt>
      <trkpt lat="44.42884" lon="15.66046">
        <ele>607</ele>
        <time>2016-08-02T02:55:58Z</time>
      </trkpt>
      <trkpt lat="44.42877" lon="15.66043">
        <ele>607</ele>
        <time>2016-08-02T02:57:58Z</time>
      </trkpt>
      <trkpt lat="44.42858" lon="15.66038">
        <ele>607</ele>
        <time>2016-08-02T02:59:58Z</time>
      </trkpt>
      <trkpt lat="44.42822" lon="15.66027">
        <ele>606</ele>
        <time>2016-08-02T03:01:58Z</time>
      </trkpt>
      <trkpt lat="44.428" lon="15.66021">
        <ele>605</ele>
        <time>2016-08-02T03:03:58Z</time>
      </trkpt>
      <trkpt lat="44.42772" lon="15.66014">
        <ele>604</ele>
        <time>2016-08-02T03:05:58Z</time>
      </trkpt>
      <trkpt lat="44.42759" lon="15.66012">
        <ele>604</ele>
        <time>2016-08-02T03:07:58Z</time>
      </trkpt>
      <trkpt lat="44.42753" lon="15.66011">
        <ele>603</ele>
        <time>2016-08-02T03:09:58Z</time>
      </trkpt>
      <trkpt lat="44.42745" lon="15.6601">
        <ele>603</ele>
        <time>2016-08-02T03:11:58Z</time>
      </trkpt>
      <trkpt lat="44.42737" lon="15.6601">
        <ele>603</ele>
        <time>2016-08-02T03:13:58Z</time>
      </trkpt>
      <trkpt lat="44.4273" lon="15.66011">
        <ele>603</ele>
        <time>2016-08-02T03:15:58Z</time>
      </trkpt>
      <trkpt lat="44.42721" lon="15.66011">
        <ele>603</ele>
        <time>2016-08-02T03:17:58Z</time>
      </trkpt>
      <trkpt lat="44.42704" lon="15.66014">
        <ele>604</ele>
        <time>2016-08-02T03:19:58Z</time>
      </trkpt>
      <trkpt lat="44.42688" lon="15.66017">
        <ele>604</ele>
        <time>2016-08-02T03:21:58Z</time>
      </trkpt>
      <trkpt lat="44.42673" lon="15.6602">
        <ele>604</ele>
        <time>2016-08-02T03:23:58Z</time>
      </trkpt>
      <trkpt lat="44.42649" lon="15.66025">
        <ele>604</ele>
        <time>2016-08-02T03:25:58Z</time>
      </trkpt>
      <trkpt lat="44.42629" lon="15.66031">
        <ele>605</ele>
        <time>2016-08-02T03:27:58Z</time>
      </trkpt>
      <trkpt lat="44.42614" lon="15.66035">
        <ele>605</ele>
        <time>2016-08-02T03:29:58Z</time>
      </trkpt>
      <trkpt lat="44.42602" lon="15.66039">
        <ele>605</ele>
        <time>2016-08-02T03:31:58Z</time>
      </trkpt>
      <trkpt lat="44.4258" lon="15.66049">
        <ele>605</ele>
        <time>2016-08-02T03:33:58Z</time>
      </trkpt>
      <trkpt lat="44.42554" lon="15.66065">
        <ele>604</ele>
        <time>2016-08-02T03:35:58Z</time>
      </trkpt>
      <trkpt lat="44.4252" lon="15.66088">
        <ele>604</ele>
        <time>2016-08-02T03:37:58Z</time>
      </trkpt>
      <trkpt lat="44.42484" lon="15.66107">
        <ele>603</ele>
        <time>2016-08-02T03:39:58Z</time>
      </trkpt>
      <trkpt lat="44.42458" lon="15.6612">
        <ele>603</ele>
        <time>2016-08-02T03:41:58Z</time>
      </trkpt>
      <trkpt lat="44.42433" lon="15.6613">
        <ele>603</ele>
        <time>2016-08-02T03:43:58Z</time>
      </trkpt>
      <trkpt lat="44.42422" lon="15.66134">
        <ele>603</ele>
        <time>2016-08-02T03:45:58Z</time>
      </trkpt>
      <trkpt lat="44.42414" lon="15.66136">
        <ele>603</ele>
        <time>2016-08-02T03:47:58Z</time>
      </trkpt>
      <trkpt lat="44.42405" lon="15.66135">
        <ele>603</ele>
        <time>2016-08-02T03:49:58Z</time>
      </trkpt>
      <trkpt lat="44.42399" lon="15.66135">
        <ele>603</ele>
        <time>2016-08-02T03:51:58Z</time>
      </trkpt>
      <trkpt lat="44.42394" lon="15.66133">
        <ele>603</ele>
        <time>2016-08-02T03:53:58Z</time>
      </trkpt>
      <trkpt lat="44.42388" lon="15.66131">
        <ele>603</ele>
        <time>2016-08-02T03:55:58Z</time>
      </trkpt>
      <trkpt lat="44.42382" lon="15.66128">
        <ele>603</ele>
        <time>2016-08-02T03:57:58Z</time>
      </trkpt>
      <trkpt lat="44.42374" lon="15.66122">
        <ele>603</ele>
        <time>2016-08-02T03:59:58Z</time>
      </trkpt>
      <trkpt lat="44.42363" lon="15.66112">
        <ele>603</ele>
        <time>2016-08-02T04:01:58Z</time>
      </trkpt>
      <trkpt lat="44.42352" lon="15.66101">
        <ele>603</ele>
        <time>2016-08-02T04:03:58Z</time>
      </trkpt>
      <trkpt lat="44.42343" lon="15.66091">
        <ele>603</ele>
        <time>2016-08-02T04:05:58Z</time>
      </trkpt>
      <trkpt lat="44.42335" lon="15.66081">
        <ele>603</ele>
        <time>2016-08-02T04:07:58Z</time>
      </trkpt>
      <trkpt lat="44.42329" lon="15.66075">
        <ele>603</ele>
        <time>2016-08-02T04:09:58Z</time>
      </trkpt>
      <trkpt lat="44.42324" lon="15.6607">
        <ele>603</ele>
        <time>2016-08-02T04:11:58Z</time>
      </trkpt>
      <trkpt lat="44.42318" lon="15.66066">
        <ele>603</ele>
        <time>2016-08-02T04:13:58Z</time>
      </trkpt>
      <trkpt lat="44.42313" lon="15.66062">
        <ele>603</ele>
        <time>2016-08-02T04:15:58Z</time>
      </trkpt>
      <trkpt lat="44.42307" lon="15.66058">
        <ele>603</ele>
        <time>2016-08-02T04:17:58Z</time>
      </trkpt>
      <trkpt lat="44.42301" lon="15.66055">
        <ele>603</ele>
        <time>2016-08-02T04:19:58Z</time>
      </trkpt>
      <trkpt lat="44.42295" lon="15.66052">
        <ele>603</ele>
        <time>2016-08-02T04:21:58Z</time>
      </trkpt>
      <trkpt lat="44.42289" lon="15.66049">
        <ele>603</ele>
        <time>2016-08-02T04:23:58Z</time>
      </trkpt>
      <trkpt lat="44.42282" lon="15.66047">
        <ele>603</ele>
        <time>2016-08-02T04:25:58Z</time>
      </trkpt>
      <trkpt lat="44.4227" lon="15.66044">
        <ele>603</ele>
        <time>2016-08-02T04:27:58Z</time>
      </trkpt>
      <trkpt lat="44.42263" lon="15.66043">
        <ele>603</ele>
        <time>2016-08-02T04:29:58Z</time>
      </trkpt>
      <trkpt lat="44.42254" lon="15.66043">
        <ele>603</ele>
        <time>2016-08-02T04:31:58Z</time>
      </trkpt>
      <trkpt lat="44.42252" lon="15.66043">
        <ele>603</ele>
        <time>2016-08-02T04:33:58Z</time>
      </trkpt>
      <trkpt lat="44.42244" lon="15.66046">
        <ele>603</ele>
        <time>2016-08-02T04:35:58Z</time>
      </trkpt>
      <trkpt lat="44.42238" lon="15.66048">
        <ele>603</ele>
        <time>2016-08-02T04:37:58Z</time>
      </trkpt>
      <trkpt lat="44.42229" lon="15.66051">
        <ele>603</ele>
        <time>2016-08-02T04:39:58Z</time>
      </trkpt>
      <trkpt lat="44.42225" lon="15.66052">
        <ele>603</ele>
        <time>2016-08-02T04:41:58Z</time>
      </trkpt>
      <trkpt lat="44.42222" lon="15.66053">
        <ele>603</ele>
        <time>2016-08-02T04:43:58Z</time>
      </trkpt>
      <trkpt lat="44.42218" lon="15.66053">
        <ele>602</ele>
        <time>2016-08-02T04:45:58Z</time>
      </trkpt>
      <trkpt lat="44.4221" lon="15.66052">
        <ele>602</ele>
        <time>2016-08-02T04:47:58Z</time>
      </trkpt>
      <trkpt lat="44.42187" lon="15.66047">
        <ele>602</ele>
        <time>2016-08-02T04:49:58Z</time>
      </trkpt>
      <trkpt lat="44.42159" lon="15.66036">
        <ele>601</ele>
        <time>2016-08-02T04:51:58Z</time>
      </trkpt>
      <trkpt lat="44.42132" lon="15.66028">
        <ele>600</ele>
        <time>2016-08-02T04:53:58Z</time>
      </trkpt>
      <trkpt lat="44.42095" lon="15.66019">
        <ele>598</ele>
        <time>2016-08-02T04:55:58Z</time>
      </trkpt>
      <trkpt lat="44.42081" lon="15.66017">
        <ele>598</ele>
        <time>2016-08-02T04:57:58Z</time>
      </trkpt>
      <trkpt lat="44.42073" lon="15.66017">
        <ele>598</ele>
        <time>2016-08-02T04:59:58Z</time>
      </trkpt>
      <trkpt lat="44.42066" lon="15.66018">
        <ele>598</ele>
        <time>2016-08-02T05:01:58Z</time>
      </trkpt>
      <trkpt lat="44.42052" lon="15.66019">
        <ele>597</ele>
        <time>2016-08-02T05:03:58Z</time>
      </trkpt>
      <trkpt lat="44.42044" lon="15.66021">
        <ele>597</ele>
        <time>2016-08-02T05:05:58Z</time>
      </trkpt>
      <trkpt lat="44.42034" lon="15.66023">
        <ele>597</ele>
        <time>2016-08-02T05:07:58Z</time>
      </trkpt>
      <trkpt lat="44.42027" lon="15.66025">
        <ele>597</ele>
        <time>2016-08-02T05:09:58Z</time>
      </trkpt>
      <trkpt lat="44.42022" lon="15.66027">
        <ele>597</ele>
        <time>2016-08-02T05:11:58Z</time>
      </trkpt>
      <trkpt lat="44.42016" lon="15.66029">
        <ele>596</ele>
        <time>2016-08-02T05:13:58Z</time>
      </trkpt>
      <trkpt lat="44.42009" lon="15.66033">
        <ele>596</ele>
        <time>2016-08-02T05:15:58Z</time>
      </trkpt>
      <trkpt lat="44.42002" lon="15.66037">
        <ele>596</ele>
        <time>2016-08-02T05:17:58Z</time>
      </trkpt>
      <trkpt lat="44.41983" lon="15.66051">
        <ele>595</ele>
        <time>2016-08-02T05:19:58Z</time>
      </trkpt>
      <trkpt lat="44.41789" lon="15.66247">
        <ele>593</ele>
        <time>2016-08-02T05:21:58Z</time>
      </trkpt>
      <trkpt lat="44.41628" lon="15.66404">
        <ele>599</ele>
        <time>2016-08-02T05:23:58Z</time>
      </trkpt>
      <trkpt lat="44.41612" lon="15.66421">
        <ele>600</ele>
        <time>2016-08-02T05:25:58Z</time>
      </trkpt>
      <trkpt lat="44.41595" lon="15.66438">
        <ele>600</ele>
        <time>2016-08-02T05:27:58Z</time>
      </trkpt>
      <trkpt lat="44.41577" lon="15.66454">
        <ele>600</ele>
        <time>2016-08-02T05:29:58Z</time>
      </trkpt>
      <trkpt lat="44.41567" lon="15.66462">
        <ele>600</ele>
        <time>2016-08-02T05:31:58Z</time>
      </trkpt>
      <trkpt lat="44.41546" lon="15.66478">
        <ele>600</ele>
        <time>2016-08-02T05:33:58Z</time>
      </trkpt>
      <trkpt lat="44.41525" lon="15.66492">
        <ele>600</ele>
        <time>2016-08-02T05:35:58Z</time>
      </trkpt>
      <trkpt lat="44.41515" lon="15.66499">
        <ele>599</ele>
        <time>2016-08-02T05:37:58Z</time>
      </trkpt>
      <trkpt lat="44.41493" lon="15.66512">
        <ele>599</ele>
        <time>2016-08-02T05:39:58Z</time>
      </trkpt>
      <trkpt lat="44.41481" lon="15.66522">
        <ele>598</ele>
        <time>2016-08-02T05:41:58Z</time>
      </trkpt>
      <trkpt lat="44.41475" lon="15.66528">
        <ele>598</ele>
        <time>2016-08-02T05:43:58Z</time>
      </trkpt>
      <trkpt lat="44.41463" lon="15.6654">
        <ele>598</ele>
        <time>2016-08-02T05:45:58Z</time>
      </trkpt>
      <trkpt lat="44.41452" lon="15.66554">
        <ele>598</ele>
        <time>2016-08-02T05:47:58Z</time>
      </trkpt>
      <trkpt lat="44.41447" lon="15.66562">
        <ele>598</ele>
        <time>2016-08-02T05:49:58Z</time>
      </trkpt>
      <trkpt lat="44.41441" lon="15.66569">
        <ele>597</ele>
        <time>2016-08-02T05:51:58Z</time>
      </trkpt>
      <trkpt lat="44.41441" lon="15.6657">
        <ele>597</ele>
        <time>2016-08-02T05:53:58Z</time>
      </trkpt>
      <trkpt lat="44.41436" lon="15.66578">
        <ele>598</ele>
        <time>2016-08-02T05:55:58Z</time>
      </trkpt>
      <trkpt lat="44.41431" lon="15.66586">
        <ele>598</ele>
        <time>2016-08-02T05:57:58Z</time>
      </trkpt>
      <trkpt lat="44.41427" lon="15.66595">
        <ele>597</ele>
        <time>2016-08-02T05:59:58Z</time>
      </trkpt>
      <trkpt lat="44.41404" lon="15.66656">
        <ele>598</ele>
        <time>2016-08-02T06:01:58Z</time>
      </trkpt>
      <trkpt lat="44.414" lon="15.66665">
        <ele>598</ele>
        <time>2016-08-02T06:03:58Z</time>
      </trkpt>
      <trkpt lat="44.41367" lon="15.66752">
        <ele>598</ele>
        <time>2016-08-02T06:05:58Z</time>
      </trkpt>
      <trkpt lat="44.41362" lon="15.66763">
        <ele>598</ele>
        <time>2016-08-02T06:07:58Z</time>
      </trkpt>
      <trkpt lat="44.41358" lon="15.66774">
        <ele>598</ele>
        <time>2016-08-02T06:09:58Z</time>
      </trkpt>
      <trkpt lat="44.41353" lon="15.66784">
        <ele>597</ele>
        <time>2016-08-02T06:11:58Z</time>
      </trkpt>
      <trkpt lat="44.41348" lon="15.66794">
        <ele>597</ele>
        <time>2016-08-02T06:13:58Z</time>
      </trkpt>
      <trkpt lat="44.41343" lon="15.66804">
        <ele>597</ele>
        <time>2016-08-02T06:15:58Z</time>
      </trkpt>
      <trkpt lat="44.41337" lon="15.66814">
        <ele>597</ele>
        <time>2016-08-02T06:17:58Z</time>
      </trkpt>
      <trkpt lat="44.41326" lon="15.66832">
        <ele>597</ele>
        <time>2016-08-02T06:19:58Z</time>
      </trkpt>
      <trkpt lat="44.4132" lon="15.6684">
        <ele>597</ele>
        <time>2016-08-02T06:21:58Z</time>
      </trkpt>
      <trkpt lat="44.41308" lon="15.66857">
        <ele>596</ele>
        <time>2016-08-02T06:23:58Z</time>
      </trkpt>
      <trkpt lat="44.41301" lon="15.66865">
        <ele>596</ele>
        <time>2016-08-02T06:25:58Z</time>
      </trkpt>
      <trkpt lat="44.41288" lon="15.6688">
        <ele>596</ele>
        <time>2016-08-02T06:27:58Z</time>
      </trkpt>
      <trkpt lat="44.41193" lon="15.66957">
        <ele>594</ele>
        <time>2016-08-02T06:29:58Z</time>
      </trkpt>
      <trkpt lat="44.4112" lon="15.67016">
        <ele>590</ele>
        <time>2016-08-02T06:31:58Z</time>
      </trkpt>
      <trkpt lat="44.4109" lon="15.67039">
        <ele>589</ele>
        <time>2016-08-02T06:33:58Z</time>
      </trkpt>
      <trkpt lat="44.41083" lon="15.67044">
        <ele>588</ele>
        <time>2016-08-02T06:35:58Z</time>
      </trkpt>
      <trkpt lat="44.41032" lon="15.67087">
        <ele>588</ele>
        <time>2016-08-02T06:37:58Z</time>
      </trkpt>
      <trkpt lat="44.4098" lon="15.67129">
        <ele>587</ele>
        <time>2016-08-02T06:39:58Z</time>
      </trkpt>
      <trkpt lat="44.40927" lon="15.6717">
        <ele>589</ele>
        <time>2016-08-02T06:41:58Z</time>
      </trkpt>
      <trkpt lat="44.40873" lon="15.6721">
        <ele>590</ele>
        <time>2016-08-02T06:43:58Z</time>
      </trkpt>
      <trkpt lat="44.40819" lon="15.67249">
        <ele>592</ele>
        <time>2016-08-02T06:45:58Z</time>
      </trkpt>
      <trkpt lat="44.40792" lon="15.67269">
        <ele>592</ele>
        <time>2016-08-02T06:47:58Z</time>
      </trkpt>
      <trkpt lat="44.40771" lon="15.67283">
        <ele>592</ele>
        <time>2016-08-02T06:49:58Z</time>
      </trkpt>
      <trkpt lat="44.40729" lon="15.6731">
        <ele>591</ele>
        <time>2016-08-02T06:51:58Z</time>
      </trkpt>
      <trkpt lat="44.4069" lon="15.67334">
        <ele>589</ele>
        <time>2016-08-02T06:53:58Z</time>
      </trkpt>
      <trkpt lat="44.4067" lon="15.67345">
        <ele>589</ele>
        <time>2016-08-02T06:55:58Z</time>
      </trkpt>
      <trkpt lat="44.40617" lon="15.67376">
        <ele>589</ele>
        <time>2016-08-02T06:57:58Z</time>
      </trkpt>
      <trkpt lat="44.4059" lon="15.67392">
        <ele>589</ele>
        <time>2016-08-02T06:59:58Z</time>
      </trkpt>
      <trkpt lat="44.40536" lon="15.67424">
        <ele>590</ele>
        <time>2016-08-02T07:01:58Z</time>
      </trkpt>
      <trkpt lat="44.40484" lon="15.67458">
        <ele>590</ele>
        <time>2016-08-02T07:03:58Z</time>
      </trkpt>
      <trkpt lat="44.40457" lon="15.67475">
        <ele>591</ele>
        <time>2016-08-02T07:05:58Z</time>
      </trkpt>
      <trkpt lat="44.40404" lon="15.67511">
        <ele>592</ele>
        <time>2016-08-02T07:07:58Z</time>
      </trkpt>
      <trkpt lat="44.40352" lon="15.67548">
        <ele>592</ele>
        <time>2016-08-02T07:09:58Z</time>
      </trkpt>
      <trkpt lat="44.40316" lon="15.67571">
        <ele>592</ele>
        <time>2016-08-02T07:11:58Z</time>
      </trkpt>
      <trkpt lat="44.4028" lon="15.67594">
        <ele>593</ele>
        <time>2016-08-02T07:13:58Z</time>
      </trkpt>
      <trkpt lat="44.40211" lon="15.67636">
        <ele>593</ele>
        <time>2016-08-02T07:15:58Z</time>
      </trkpt>
      <trkpt lat="44.40145" lon="15.67676">
        <ele>590</ele>
        <time>2016-08-02T07:17:58Z</time>
      </trkpt>
      <trkpt lat="44.40112" lon="15.67695">
        <ele>589</ele>
        <time>2016-08-02T07:19:58Z</time>
      </trkpt>
      <trkpt lat="44.4004" lon="15.67733">
        <ele>589</ele>
        <time>2016-08-02T07:21:58Z</time>
      </trkpt>
      <trkpt lat="44.39967" lon="15.67769">
        <ele>589</ele>
        <time>2016-08-02T07:23:58Z</time>
      </trkpt>
      <trkpt lat="44.39921" lon="15.67792">
        <ele>588</ele>
        <time>2016-08-02T07:25:58Z</time>
      </trkpt>
      <trkpt lat="44.39876" lon="15.67814">
        <ele>587</ele>
        <time>2016-08-02T07:27:58Z</time>
      </trkpt>
      <trkpt lat="44.3983" lon="15.67836">
        <ele>587</ele>
        <time>2016-08-02T07:29:58Z</time>
      </trkpt>
      <trkpt lat="44.39784" lon="15.67857">
        <ele>586</ele>
        <time>2016-08-02T07:31:58Z</time>
      </trkpt>
      <trkpt lat="44.39737" lon="15.67878">
        <ele>586</ele>
        <time>2016-08-02T07:33:58Z</time>
      </trkpt>
      <trkpt lat="44.39684" lon="15.67899">
        <ele>584</ele>
        <time>2016-08-02T07:35:58Z</time>
      </trkpt>
      <trkpt lat="44.39626" lon="15.67921">
        <ele>582</ele>
        <time>2016-08-02T07:37:58Z</time>
      </trkpt>
      <trkpt lat="44.39568" lon="15.67942">
        <ele>580</ele>
        <time>2016-08-02T07:39:58Z</time>
      </trkpt>
      <trkpt lat="44.39433" lon="15.67998">
        <ele>579</ele>
        <time>2016-08-02T07:41:58Z</time>
      </trkpt>
      <trkpt lat="44.39302" lon="15.68051">
        <ele>579</ele>
        <time>2016-08-02T07:43:58Z</time>
      </trkpt>
      <trkpt lat="44.3928" lon="15.68059">
        <ele>579</ele>
        <time>2016-08-02T07:45:58Z</time>
      </trkpt>
      <trkpt lat="44.39241" lon="15.68079">
        <ele>579</ele>
        <time>2016-08-02T07:47:58Z</time>
      </trkpt>
      <trkpt lat="44.3924" lon="15.6808">
        <ele>579</ele>
        <time>2016-08-02T07:49:58Z</time>
      </trkpt>
      <trkpt lat="44.39227" lon="15.68086">
        <ele>579</ele>
        <time>2016-08-02T07:51:58Z</time>
      </trkpt>
      <trkpt lat="44.39221" lon="15.68089">
        <ele>579</ele>
        <time>2016-08-02T07:53:58Z</time>
      </trkpt>
      <trkpt lat="44.39178" lon="15.68111">
        <ele>579</ele>
        <time>2016-08-02T07:55:58Z</time>
      </trkpt>
      <trkpt lat="44.39151" lon="15.68125">
        <ele>579</ele>
        <time>2016-08-02T07:57:58Z</time>
      </trkpt>
      <trkpt lat="44.39111" lon="15.68148">
        <ele>580</ele>
        <time>2016-08-02T07:59:58Z</time>
      </trkpt>
      <trkpt lat="44.39089" lon="15.68162">
        <ele>580</ele>
        <time>2016-08-02T08:01:58Z</time>
      </trkpt>
      <trkpt lat="44.39067" lon="15.68176">
        <ele>579</ele>
        <time>2016-08-02T08:03:58Z</time>
      </trkpt>
      <trkpt lat="44.39056" lon="15.68187">
        <ele>578</ele>
        <time>2016-08-02T08:05:58Z</time>
      </trkpt>
      <trkpt lat="44.3905" lon="15.68193">
        <ele>578</ele>
        <time>2016-08-02T08:07:58Z</time>
      </trkpt>
      <trkpt lat="44.39039" lon="15.68206">
        <ele>577</ele>
        <time>2016-08-02T08:09:58Z</time>
      </trkpt>
      <trkpt lat="44.39028" lon="15.68221">
        <ele>576</ele>
        <time>2016-08-02T08:11:58Z</time>
      </trkpt>
      <trkpt lat="44.39022" lon="15.68229">
        <ele>576</ele>
        <time>2016-08-02T08:13:58Z</time>
      </trkpt>
      <trkpt lat="44.39012" lon="15.68245">
        <ele>575</ele>
        <time>2016-08-02T08:15:58Z</time>
      </trkpt>
      <trkpt lat="44.39012" lon="15.68245">
        <ele>575</ele>
        <time>2016-08-02T08:17:58Z</time>
      </trkpt>
      <trkpt lat="44.38976" lon="15.68168">
        <ele>576</ele>
        <time>2016-08-02T08:19:58Z</time>
      </trkpt>
      <trkpt lat="44.38954" lon="15.68125">
        <ele>577</ele>
        <time>2016-08-02T08:21:58Z</time>
      </trkpt>
      <trkpt lat="44.38938" lon="15.68091">
        <ele>577</ele>
        <time>2016-08-02T08:23:58Z</time>
      </trkpt>
      <trkpt lat="44.38899" lon="15.68016">
        <ele>576</ele>
        <time>2016-08-02T08:25:58Z</time>
      </trkpt>
      <trkpt lat="44.38855" lon="15.67935">
        <ele>577</ele>
        <time>2016-08-02T08:27:58Z</time>
      </trkpt>
      <trkpt lat="44.38851" lon="15.67929">
        <ele>578</ele>
        <time>2016-08-02T08:29:58Z</time>
      </trkpt>
      <trkpt lat="44.38843" lon="15.67917">
        <ele>578</ele>
        <time>2016-08-02T08:31:58Z</time>
      </trkpt>
      <trkpt lat="44.38839" lon="15.67909">
        <ele>578</ele>
        <time>2016-08-02T08:33:58Z</time>
      </trkpt>
      <trkpt lat="44.3883" lon="15.67896">
        <ele>578</ele>
        <time>2016-08-02T08:35:58Z</time>
      </trkpt>
      <trkpt lat="44.38821" lon="15.67883">
        <ele>578</ele>
        <time>2016-08-02T08:37:58Z</time>
      </trkpt>
      <trkpt lat="44.38814" lon="15.67875">
        <ele>578</ele>
        <time>2016-08-02T08:39:58Z</time>
      </trkpt>
      <trkpt lat="44.38809" lon="15.67871">
        <ele>578</ele>
        <time>2016-08-02T08:41:58Z</time>
      </trkpt>
      <trkpt lat="44.38805" lon="15.67868">
        <ele>578</ele>
        <time>2016-08-02T08:43:58Z</time>
      </trkpt>
      <trkpt lat="44.38793" lon="15.67867">
        <ele>577</ele>
        <time>2016-08-02T08:45:58Z</time>
      </trkpt>
      <trkpt lat="44.38781" lon="15.67863">
        <ele>577</ele>
        <time>2016-08-02T08:47:58Z</time>
      </trkpt>
      <trkpt lat="44.38773" lon="15.67863">
        <ele>577</ele>
        <time>2016-08-02T08:49:58Z</time>
      </trkpt>
      <trkpt lat="44.38767" lon="15.67861">
        <ele>577</ele>
        <time>2016-08-02T08:51:58Z</time>
      </trkpt>
      <trkpt lat="44.38756" lon="15.67859">
        <ele>577</ele>
        <time>2016-08-02T08:53:58Z</time>
      </trkpt>
      <trkpt lat="44.38247" lon="15.67776">
        <ele>579</ele>
        <time>2016-08-02T08:55:58Z</time>
      </trkpt>
      <trkpt lat="44.38224" lon="15.67771">
        <ele>579</ele>
        <time>2016-08-02T08:57:58Z</time>
      </trkpt>
      <trkpt lat="44.38212" lon="15.67765">
        <ele>579</ele>
        <time>2016-08-02T08:59:58Z</time>
      </trkpt>
      <trkpt lat="44.38198" lon="15.67753">
        <ele>579</ele>
        <time>2016-08-02T09:01:58Z</time>
      </trkpt>
      <trkpt lat="44.38179" lon="15.67732">
        <ele>579</ele>
        <time>2016-08-02T09:03:58Z</time>
      </trkpt>
      <trkpt lat="44.38157" lon="15.67709">
        <ele>578</ele>
        <time>2016-08-02T09:05:58Z</time>
      </trkpt>
      <trkpt lat="44.38135" lon="15.67685">
        <ele>578</ele>
        <time>2016-08-02T09:07:58Z</time>
      </trkpt>
      <trkpt lat="44.38116" lon="15.67663">
        <ele>578</ele>
        <time>2016-08-02T09:09:58Z</time>
      </trkpt>
      <trkpt lat="44.38092" lon="15.67636">
        <ele>578</ele>
        <time>2016-08-02T09:11:58Z</time>
      </trkpt>
      <trkpt lat="44.3808" lon="15.67614">
        <ele>577</ele>
        <time>2016-08-02T09:13:58Z</time>
      </trkpt>
      <trkpt lat="44.38068" lon="15.67585">
        <ele>576</ele>
        <time>2016-08-02T09:15:58Z</time>
      </trkpt>
      <trkpt lat="44.38051" lon="15.67537">
        <ele>576</ele>
        <time>2016-08-02T09:17:58Z</time>
      </trkpt>
      <trkpt lat="44.3804" lon="15.67505">
        <ele>576</ele>
        <time>2016-08-02T09:19:58Z</time>
      </trkpt>
      <trkpt lat="44.38034" lon="15.6749">
        <ele>576</ele>
        <time>2016-08-02T09:21:58Z</time>
      </trkpt>
      <trkpt lat="44.38032" lon="15.67486">
        <ele>576</ele>
        <time>2016-08-02T09:23:58Z</time>
      </trkpt>
      <trkpt lat="44.38028" lon="15.67479">
        <ele>576</ele>
        <time>2016-08-02T09:25:58Z</time>
      </trkpt>
      <trkpt lat="44.38022" lon="15.67472">
        <ele>576</ele>
        <time>2016-08-02T09:27:58Z</time>
      </trkpt>
      <trkpt lat="44.38007" lon="15.67454">
        <ele>575</ele>
        <time>2016-08-02T09:29:58Z</time>
      </trkpt>
      <trkpt lat="44.37985" lon="15.67429">
        <ele>574</ele>
        <time>2016-08-02T09:31:58Z</time>
      </trkpt>
      <trkpt lat="44.37961" lon="15.67404">
        <ele>574</ele>
        <time>2016-08-02T09:33:58Z</time>
      </trkpt>
      <trkpt lat="44.37944" lon="15.67385">
        <ele>573</ele>
        <time>2016-08-02T09:35:58Z</time>
      </trkpt>
      <trkpt lat="44.37931" lon="15.67369">
        <ele>572</ele>
        <time>2016-08-02T09:37:58Z</time>
      </trkpt>
      <trkpt lat="44.37922" lon="15.67358">
        <ele>572</ele>
        <time>2016-08-02T09:39:58Z</time>
      </trkpt>
      <trkpt lat="44.37895" lon="15.67329">
        <ele>572</ele>
        <time>2016-08-02T09:41:58Z</time>
      </trkpt>
      <trkpt lat="44.37871" lon="15.67313">
        <ele>572</ele>
        <time>2016-08-02T09:43:58Z</time>
      </trkpt>
      <trkpt lat="44.37854" lon="15.67303">
        <ele>573</ele>
        <time>2016-08-02T09:45:58Z</time>
      </trkpt>
      <trkpt lat="44.37832" lon="15.67299">
        <ele>573</ele>
        <time>2016-08-02T09:47:58Z</time>
      </trkpt>
      <trkpt lat="44.37814" lon="15.67298">
        <ele>573</ele>
        <time>2016-08-02T09:49:58Z</time>
      </trkpt>
      <trkpt lat="44.37794" lon="15.67299">
        <ele>573</ele>
        <time>2016-08-02T09:51:58Z</time>
      </trkpt>
      <trkpt lat="44.37772" lon="15.67302">
        <ele>573</ele>
        <time>2016-08-02T09:53:58Z</time>
      </trkpt>
      <trkpt lat="44.37755" lon="15.67304">
        <ele>572</ele>
        <time>2016-08-02T09:55:58Z</time>
      </trkpt>
      <trkpt lat="44.37736" lon="15.67307">
        <ele>573</ele>
        <time>2016-08-02T09:57:58Z</time>
      </trkpt>
      <trkpt lat="44.37718" lon="15.67309">
        <ele>573</ele>
        <time>2016-08-02T09:59:58Z</time>
      </trkpt>
      <trkpt lat="44.37701" lon="15.67308">
        <ele>573</ele>
        <time>2016-08-02T10:01:58Z</time>
      </trkpt>
      <trkpt lat="44.37684" lon="15.673">
        <ele>573</ele>
        <time>2016-08-02T10:03:58Z</time>
      </trkpt>
      <trkpt lat="44.3766" lon="15.67277">
        <ele>573</ele>
        <time>2016-08-02T10:05:58Z</time>
      </trkpt>
      <trkpt lat="44.37644" lon="15.67253">
        <ele>573</ele>
        <time>2016-08-02T10:07:58Z</time>
      </trkpt>
      <trkpt lat="44.37626" lon="15.6722">
        <ele>573</ele>
        <time>2016-08-02T10:09:58Z</time>
      </trkpt>
      <trkpt lat="44.37604" lon="15.6718">
        <ele>574</ele>
        <time>2016-08-02T10:11:58Z</time>
      </trkpt>
      <trkpt lat="44.37566" lon="15.6711">
        <ele>575</ele>
        <time>2016-08-02T10:13:58Z</time>
      </trkpt>
      <trkpt lat="44.37523" lon="15.67027">
        <ele>576</ele>
        <time>2016-08-02T10:15:58Z</time>
      </trkpt>
      <trkpt lat="44.37491" lon="15.66965">
        <ele>576</ele>
        <time>2016-08-02T10:17:58Z</time>
      </trkpt>
      <trkpt lat="44.37468" lon="15.66923">
        <ele>577</ele>
        <time>2016-08-02T10:19:58Z</time>
      </trkpt>
      <trkpt lat="44.37468" lon="15.66923">
        <ele>577</ele>
        <time>2016-08-02T10:21:58Z</time>
      </trkpt>
    </trkseg>
  </trk>
</gpx>